<?xml version='1.0' encoding='UTF-8'?><gpx version="1.1" creator="JPX - https://github.com/jenetics/jpx" xmlns="http://www.topografix.com/GPX/1/1"><trk><trkseg><trkpt lat="43.607529" lon="13.0604386"><ele>206.0</ele><time>2026-04-25T07:01:14.032Z</time></trkpt><trkpt lat="43.6074367" lon="13.0605778"><ele>206.0</ele><time>2026-04-25T07:01:16.031Z</time></trkpt><trkpt lat="43.6073696" lon="13.060631"><ele>206.0</ele><time>2026-04-25T07:01:17.031Z</time></trkpt><trkpt lat="43.607295" lon="13.0606532"><ele>206.0</ele><time>2026-04-25T07:01:18.031Z</time></trkpt><trkpt lat="43.607183" lon="13.0605901"><ele>206.0</ele><time>2026-04-25T07:01:20.031Z</time></trkpt><trkpt lat="43.6071167" lon="13.060542"><ele>206.00000000000003</ele><time>2026-04-25T07:01:21.031Z</time></trkpt><trkpt lat="43.6070513" lon="13.0604874"><ele>206.0</ele><time>2026-04-25T07:01:22.032Z</time></trkpt><trkpt lat="43.6069836" lon="13.0604369"><ele>206.0</ele><time>2026-04-25T07:01:23.031Z</time></trkpt><trkpt lat="43.60691" lon="13.0603889"><ele>206.0</ele><time>2026-04-25T07:01:24.032Z</time></trkpt><trkpt lat="43.6068348" lon="13.0603353"><ele>206.00000000000003</ele><time>2026-04-25T07:01:25.032Z</time></trkpt><trkpt lat="43.6067605" lon="13.0602822"><ele>206.0</ele><time>2026-04-25T07:01:26.031Z</time></trkpt><trkpt lat="43.6066854" lon="13.0602244"><ele>207.20000000000002</ele><time>2026-04-25T07:01:27.033Z</time></trkpt><trkpt lat="43.6066035" lon="13.0601675"><ele>208.4</ele><time>2026-04-25T07:01:28.031Z</time></trkpt><trkpt lat="43.6065139" lon="13.0601068"><ele>209.6</ele><time>2026-04-25T07:01:29.032Z</time></trkpt><trkpt lat="43.6064183" lon="13.0600365"><ele>210.8</ele><time>2026-04-25T07:01:30.031Z</time></trkpt><trkpt lat="43.6063204" lon="13.0599616"><ele>212.0</ele><time>2026-04-25T07:01:31.031Z</time></trkpt><trkpt lat="43.6062154" lon="13.0598863"><ele>215.75</ele><time>2026-04-25T07:01:32.033Z</time></trkpt><trkpt lat="43.6061065" lon="13.0598118"><ele>219.5</ele><time>2026-04-25T07:01:33.031Z</time></trkpt><trkpt lat="43.6060018" lon="13.0597339"><ele>223.25</ele><time>2026-04-25T07:01:34.032Z</time></trkpt><trkpt lat="43.6058997" lon="13.059659"><ele>227.0</ele><time>2026-04-25T07:01:35.032Z</time></trkpt><trkpt lat="43.6057971" lon="13.0595852"><ele>227.0</ele><time>2026-04-25T07:01:36.032Z</time></trkpt><trkpt lat="43.6056945" lon="13.0595097"><ele>227.0</ele><time>2026-04-25T07:01:37.031Z</time></trkpt><trkpt lat="43.6055986" lon="13.0594375"><ele>227.0</ele><time>2026-04-25T07:01:38.032Z</time></trkpt><trkpt lat="43.6055172" lon="13.0593743"><ele>227.0</ele><time>2026-04-25T07:01:39.031Z</time></trkpt><trkpt lat="43.6054424" lon="13.0593214"><ele>227.0</ele><time>2026-04-25T07:01:40.031Z</time></trkpt><trkpt lat="43.6053687" lon="13.0592644"><ele>228.33333333333334</ele><time>2026-04-25T07:01:41.032Z</time></trkpt><trkpt lat="43.6053056" lon="13.0592154"><ele>229.66666666666669</ele><time>2026-04-25T07:01:42.031Z</time></trkpt><trkpt lat="43.6052236" lon="13.0591458"><ele>231.0</ele><time>2026-04-25T07:01:44.032Z</time></trkpt><trkpt lat="43.6051874" lon="13.0590571"><ele>232.33333333333331</ele><time>2026-04-25T07:01:46.031Z</time></trkpt><trkpt lat="43.6051888" lon="13.0589646"><ele>233.66666666666666</ele><time>2026-04-25T07:01:47.032Z</time></trkpt><trkpt lat="43.6051913" lon="13.0588428"><ele>235.0</ele><time>2026-04-25T07:01:48.031Z</time></trkpt><trkpt lat="43.6051809" lon="13.0587124"><ele>235.0</ele><time>2026-04-25T07:01:49.031Z</time></trkpt><trkpt lat="43.6051492" lon="13.0585903"><ele>235.0</ele><time>2026-04-25T07:01:50.032Z</time></trkpt><trkpt lat="43.6050958" lon="13.0584737"><ele>235.0</ele><time>2026-04-25T07:01:51.032Z</time></trkpt><trkpt lat="43.605025" lon="13.0583641"><ele>235.0</ele><time>2026-04-25T07:01:52.031Z</time></trkpt><trkpt lat="43.6049528" lon="13.0582526"><ele>235.0</ele><time>2026-04-25T07:01:53.032Z</time></trkpt><trkpt lat="43.6048778" lon="13.0581398"><ele>232.0</ele><time>2026-04-25T07:01:54.031Z</time></trkpt><trkpt lat="43.6047998" lon="13.0580246"><ele>229.0</ele><time>2026-04-25T07:01:55.032Z</time></trkpt><trkpt lat="43.6047173" lon="13.0579071"><ele>226.0</ele><time>2026-04-25T07:01:56.031Z</time></trkpt><trkpt lat="43.6046318" lon="13.0577944"><ele>223.0</ele><time>2026-04-25T07:01:57.031Z</time></trkpt><trkpt lat="43.6045412" lon="13.057684"><ele>224.0</ele><time>2026-04-25T07:01:58.031Z</time></trkpt><trkpt lat="43.6044435" lon="13.0575778"><ele>225.0</ele><time>2026-04-25T07:01:59.031Z</time></trkpt><trkpt lat="43.604346" lon="13.0574787"><ele>226.0</ele><time>2026-04-25T07:02:00.032Z</time></trkpt><trkpt lat="43.6042498" lon="13.0573855"><ele>227.0</ele><time>2026-04-25T07:02:01.031Z</time></trkpt><trkpt lat="43.6041525" lon="13.0572916"><ele>227.0</ele><time>2026-04-25T07:02:02.031Z</time></trkpt><trkpt lat="43.6040492" lon="13.0571928"><ele>227.0</ele><time>2026-04-25T07:02:03.032Z</time></trkpt><trkpt lat="43.6039573" lon="13.0571121"><ele>227.0</ele><time>2026-04-25T07:02:04.032Z</time></trkpt><trkpt lat="43.6038582" lon="13.0570309"><ele>227.0</ele><time>2026-04-25T07:02:05.031Z</time></trkpt><trkpt lat="43.6037564" lon="13.0569518"><ele>232.0</ele><time>2026-04-25T07:02:06.031Z</time></trkpt><trkpt lat="43.6036548" lon="13.0568722"><ele>237.0</ele><time>2026-04-25T07:02:07.032Z</time></trkpt><trkpt lat="43.603551" lon="13.056793"><ele>242.0</ele><time>2026-04-25T07:02:08.032Z</time></trkpt><trkpt lat="43.6034551" lon="13.0567221"><ele>247.0</ele><time>2026-04-25T07:02:09.031Z</time></trkpt><trkpt lat="43.6033584" lon="13.0566548"><ele>243.0</ele><time>2026-04-25T07:02:10.032Z</time></trkpt><trkpt lat="43.6032632" lon="13.0565834"><ele>239.0</ele><time>2026-04-25T07:02:11.032Z</time></trkpt><trkpt lat="43.603181" lon="13.0565212"><ele>235.0</ele><time>2026-04-25T07:02:12.031Z</time></trkpt><trkpt lat="43.6031073" lon="13.0564692"><ele>231.0</ele><time>2026-04-25T07:02:13.031Z</time></trkpt><trkpt lat="43.6030389" lon="13.056431"><ele>227.0</ele><time>2026-04-25T07:02:14.032Z</time></trkpt><trkpt lat="43.6029309" lon="13.0564649"><ele>230.0</ele><time>2026-04-25T07:02:16.031Z</time></trkpt><trkpt lat="43.6029172" lon="13.056627"><ele>233.0</ele><time>2026-04-25T07:02:18.032Z</time></trkpt><trkpt lat="43.6029485" lon="13.0567093"><ele>236.0</ele><time>2026-04-25T07:02:19.031Z</time></trkpt><trkpt lat="43.6029485" lon="13.0568462"><ele>239.0</ele><time>2026-04-25T07:02:21.031Z</time></trkpt><trkpt lat="43.6028584" lon="13.0568994"><ele>242.0</ele><time>2026-04-25T07:02:23.031Z</time></trkpt><trkpt lat="43.6027832" lon="13.0568615"><ele>242.0</ele><time>2026-04-25T07:02:24.033Z</time></trkpt><trkpt lat="43.6026842" lon="13.0567903"><ele>242.0</ele><time>2026-04-25T07:02:25.032Z</time></trkpt><trkpt lat="43.6025679" lon="13.0566804"><ele>242.0</ele><time>2026-04-25T07:02:26.031Z</time></trkpt><trkpt lat="43.6024732" lon="13.0565889"><ele>242.0</ele><time>2026-04-25T07:02:27.032Z</time></trkpt><trkpt lat="43.6023872" lon="13.0565047"><ele>241.33333333333334</ele><time>2026-04-25T07:02:28.032Z</time></trkpt><trkpt lat="43.6023132" lon="13.0564263"><ele>240.66666666666669</ele><time>2026-04-25T07:02:29.032Z</time></trkpt><trkpt lat="43.6022441" lon="13.0563576"><ele>240.0</ele><time>2026-04-25T07:02:30.031Z</time></trkpt><trkpt lat="43.60219" lon="13.0563012"><ele>239.33333333333331</ele><time>2026-04-25T07:02:31.031Z</time></trkpt><trkpt lat="43.6020856" lon="13.056219"><ele>238.66666666666666</ele><time>2026-04-25T07:02:33.032Z</time></trkpt><trkpt lat="43.6020319" lon="13.0561456"><ele>238.0</ele><time>2026-04-25T07:02:34.031Z</time></trkpt><trkpt lat="43.6019772" lon="13.05607"><ele>236.83333333333331</ele><time>2026-04-25T07:02:35.032Z</time></trkpt><trkpt lat="43.6019215" lon="13.056"><ele>235.66666666666666</ele><time>2026-04-25T07:02:36.031Z</time></trkpt><trkpt lat="43.6018691" lon="13.0559252"><ele>234.5</ele><time>2026-04-25T07:02:37.031Z</time></trkpt><trkpt lat="43.6018194" lon="13.0558571"><ele>233.33333333333331</ele><time>2026-04-25T07:02:38.032Z</time></trkpt><trkpt lat="43.6017687" lon="13.0557993"><ele>232.16666666666666</ele><time>2026-04-25T07:02:40.031Z</time></trkpt><trkpt lat="43.6016569" lon="13.0557381"><ele>231.0</ele><time>2026-04-25T07:02:43.031Z</time></trkpt><trkpt lat="43.6015594" lon="13.0557277"><ele>229.60000000000002</ele><time>2026-04-25T07:02:44.031Z</time></trkpt><trkpt lat="43.6014633" lon="13.0557218"><ele>228.20000000000002</ele><time>2026-04-25T07:02:45.032Z</time></trkpt><trkpt lat="43.6013668" lon="13.0557227"><ele>226.79999999999998</ele><time>2026-04-25T07:02:46.031Z</time></trkpt><trkpt lat="43.6012625" lon="13.0557213"><ele>225.39999999999998</ele><time>2026-04-25T07:02:47.031Z</time></trkpt><trkpt lat="43.6011602" lon="13.0557248"><ele>224.0</ele><time>2026-04-25T07:02:48.031Z</time></trkpt><trkpt lat="43.6010574" lon="13.0557284"><ele>221.79999999999998</ele><time>2026-04-25T07:02:49.031Z</time></trkpt><trkpt lat="43.600954" lon="13.0557246"><ele>219.59999999999997</ele><time>2026-04-25T07:02:50.031Z</time></trkpt><trkpt lat="43.6008503" lon="13.0557241"><ele>217.4</ele><time>2026-04-25T07:02:51.031Z</time></trkpt><trkpt lat="43.6007471" lon="13.0557243"><ele>215.2</ele><time>2026-04-25T07:02:52.031Z</time></trkpt><trkpt lat="43.6006402" lon="13.0557227"><ele>213.0</ele><time>2026-04-25T07:02:53.032Z</time></trkpt><trkpt lat="43.6004991" lon="13.0557182"><ele>208.33333333333331</ele><time>2026-04-25T07:02:54.033Z</time></trkpt><trkpt lat="43.600319" lon="13.0557236"><ele>203.66666666666666</ele><time>2026-04-25T07:02:55.032Z</time></trkpt><trkpt lat="43.6001554" lon="13.0557396"><ele>199.0</ele><time>2026-04-25T07:02:56.032Z</time></trkpt><trkpt lat="43.6000069" lon="13.0557558"><ele>199.0</ele><time>2026-04-25T07:02:57.031Z</time></trkpt><trkpt lat="43.5998645" lon="13.055752"><ele>199.0</ele><time>2026-04-25T07:02:58.032Z</time></trkpt><trkpt lat="43.5997226" lon="13.0557229"><ele>199.0</ele><time>2026-04-25T07:02:59.031Z</time></trkpt><trkpt lat="43.5995813" lon="13.055676"><ele>199.0</ele><time>2026-04-25T07:03:00.032Z</time></trkpt><trkpt lat="43.5994555" lon="13.055621"><ele>197.75</ele><time>2026-04-25T07:03:01.033Z</time></trkpt><trkpt lat="43.5993403" lon="13.055566"><ele>196.5</ele><time>2026-04-25T07:03:02.031Z</time></trkpt><trkpt lat="43.5992347" lon="13.0555228"><ele>195.25</ele><time>2026-04-25T07:03:03.031Z</time></trkpt><trkpt lat="43.5991285" lon="13.0555062"><ele>194.0</ele><time>2026-04-25T07:03:04.032Z</time></trkpt><trkpt lat="43.5990131" lon="13.0555191"><ele>194.00000000000003</ele><time>2026-04-25T07:03:05.032Z</time></trkpt><trkpt lat="43.5989109" lon="13.0555336"><ele>194.0</ele><time>2026-04-25T07:03:06.033Z</time></trkpt><trkpt lat="43.5988277" lon="13.0555399"><ele>194.0</ele><time>2026-04-25T07:03:07.032Z</time></trkpt><trkpt lat="43.5987544" lon="13.0555354"><ele>194.0</ele><time>2026-04-25T07:03:08.031Z</time></trkpt><trkpt lat="43.5986842" lon="13.0555209"><ele>194.00000000000003</ele><time>2026-04-25T07:03:09.033Z</time></trkpt><trkpt lat="43.5986129" lon="13.055492"><ele>194.0</ele><time>2026-04-25T07:03:10.031Z</time></trkpt><trkpt lat="43.5985506" lon="13.0554474"><ele>194.00000000000003</ele><time>2026-04-25T07:03:11.032Z</time></trkpt><trkpt lat="43.598492" lon="13.055379"><ele>194.0</ele><time>2026-04-25T07:03:12.032Z</time></trkpt><trkpt lat="43.5984398" lon="13.0552904"><ele>194.0</ele><time>2026-04-25T07:03:13.032Z</time></trkpt><trkpt lat="43.5983882" lon="13.0551984"><ele>194.0</ele><time>2026-04-25T07:03:14.032Z</time></trkpt><trkpt lat="43.5983414" lon="13.0551009"><ele>194.00000000000003</ele><time>2026-04-25T07:03:15.032Z</time></trkpt><trkpt lat="43.5982939" lon="13.0549929"><ele>194.0</ele><time>2026-04-25T07:03:16.031Z</time></trkpt><trkpt lat="43.5982414" lon="13.0548609"><ele>192.79999999999998</ele><time>2026-04-25T07:03:17.033Z</time></trkpt><trkpt lat="43.5981919" lon="13.0547388"><ele>191.6</ele><time>2026-04-25T07:03:18.031Z</time></trkpt><trkpt lat="43.5981312" lon="13.0546262"><ele>190.4</ele><time>2026-04-25T07:03:19.031Z</time></trkpt><trkpt lat="43.5980689" lon="13.0545133"><ele>189.2</ele><time>2026-04-25T07:03:20.032Z</time></trkpt><trkpt lat="43.5980079" lon="13.0544068"><ele>188.0</ele><time>2026-04-25T07:03:21.031Z</time></trkpt><trkpt lat="43.5979519" lon="13.0543156"><ele>188.0</ele><time>2026-04-25T07:03:22.031Z</time></trkpt><trkpt lat="43.5978937" lon="13.054247"><ele>188.0</ele><time>2026-04-25T07:03:23.031Z</time></trkpt><trkpt lat="43.5978175" lon="13.0541925"><ele>188.0</ele><time>2026-04-25T07:03:24.032Z</time></trkpt><trkpt lat="43.5977297" lon="13.0541612"><ele>188.0</ele><time>2026-04-25T07:03:25.033Z</time></trkpt><trkpt lat="43.5976247" lon="13.0541579"><ele>188.0</ele><time>2026-04-25T07:03:26.031Z</time></trkpt><trkpt lat="43.5974944" lon="13.0541647"><ele>185.8</ele><time>2026-04-25T07:03:27.031Z</time></trkpt><trkpt lat="43.5973859" lon="13.0541722"><ele>183.60000000000002</ele><time>2026-04-25T07:03:28.032Z</time></trkpt><trkpt lat="43.5972894" lon="13.0541666"><ele>181.39999999999998</ele><time>2026-04-25T07:03:29.031Z</time></trkpt><trkpt lat="43.5971967" lon="13.0541432"><ele>179.2</ele><time>2026-04-25T07:03:30.032Z</time></trkpt><trkpt lat="43.5971065" lon="13.0541115"><ele>177.0</ele><time>2026-04-25T07:03:31.032Z</time></trkpt><trkpt lat="43.5970207" lon="13.0540723"><ele>173.75</ele><time>2026-04-25T07:03:32.031Z</time></trkpt><trkpt lat="43.5969354" lon="13.0540242"><ele>170.5</ele><time>2026-04-25T07:03:33.032Z</time></trkpt><trkpt lat="43.5968422" lon="13.0539717"><ele>167.25</ele><time>2026-04-25T07:03:34.032Z</time></trkpt><trkpt lat="43.5967201" lon="13.05391"><ele>164.0</ele><time>2026-04-25T07:03:35.032Z</time></trkpt><trkpt lat="43.5965887" lon="13.0538542"><ele>164.0</ele><time>2026-04-25T07:03:36.033Z</time></trkpt><trkpt lat="43.5964663" lon="13.0538053"><ele>164.0</ele><time>2026-04-25T07:03:37.032Z</time></trkpt><trkpt lat="43.5963517" lon="13.0537599"><ele>164.0</ele><time>2026-04-25T07:03:38.031Z</time></trkpt><trkpt lat="43.596237" lon="13.053714"><ele>164.0</ele><time>2026-04-25T07:03:39.031Z</time></trkpt><trkpt lat="43.5961273" lon="13.0536718"><ele>160.79999999999998</ele><time>2026-04-25T07:03:40.031Z</time></trkpt><trkpt lat="43.5960152" lon="13.0536334"><ele>157.6</ele><time>2026-04-25T07:03:41.031Z</time></trkpt><trkpt lat="43.5959029" lon="13.0535973"><ele>154.4</ele><time>2026-04-25T07:03:42.032Z</time></trkpt><trkpt lat="43.5957937" lon="13.0535673"><ele>151.2</ele><time>2026-04-25T07:03:43.032Z</time></trkpt><trkpt lat="43.5956988" lon="13.0535473"><ele>148.0</ele><time>2026-04-25T07:03:44.031Z</time></trkpt><trkpt lat="43.595611" lon="13.0535334"><ele>148.0</ele><time>2026-04-25T07:03:45.032Z</time></trkpt><trkpt lat="43.5955332" lon="13.0535232"><ele>148.0</ele><time>2026-04-25T07:03:46.031Z</time></trkpt><trkpt lat="43.595451" lon="13.0535291"><ele>148.0</ele><time>2026-04-25T07:03:47.033Z</time></trkpt><trkpt lat="43.5953521" lon="13.0535531"><ele>148.0</ele><time>2026-04-25T07:03:48.033Z</time></trkpt><trkpt lat="43.5952422" lon="13.0535882"><ele>148.0</ele><time>2026-04-25T07:03:49.032Z</time></trkpt><trkpt lat="43.5951335" lon="13.0536271"><ele>145.6</ele><time>2026-04-25T07:03:50.031Z</time></trkpt><trkpt lat="43.5950223" lon="13.0536628"><ele>143.20000000000002</ele><time>2026-04-25T07:03:51.032Z</time></trkpt><trkpt lat="43.5949173" lon="13.0536992"><ele>140.8</ele><time>2026-04-25T07:03:52.032Z</time></trkpt><trkpt lat="43.5948203" lon="13.0537287"><ele>138.4</ele><time>2026-04-25T07:03:53.033Z</time></trkpt><trkpt lat="43.5947136" lon="13.0537819"><ele>136.0</ele><time>2026-04-25T07:03:54.032Z</time></trkpt><trkpt lat="43.5946036" lon="13.0538356"><ele>132.5</ele><time>2026-04-25T07:03:55.033Z</time></trkpt><trkpt lat="43.5944745" lon="13.0538952"><ele>129.0</ele><time>2026-04-25T07:03:56.032Z</time></trkpt><trkpt lat="43.5943501" lon="13.0539458"><ele>125.5</ele><time>2026-04-25T07:03:57.031Z</time></trkpt><trkpt lat="43.5942282" lon="13.0539884"><ele>122.0</ele><time>2026-04-25T07:03:58.032Z</time></trkpt><trkpt lat="43.5941116" lon="13.0540317"><ele>122.0</ele><time>2026-04-25T07:03:59.032Z</time></trkpt><trkpt lat="43.5940038" lon="13.0540675"><ele>121.99999999999999</ele><time>2026-04-25T07:04:00.032Z</time></trkpt><trkpt lat="43.5939012" lon="13.0540958"><ele>121.99999999999999</ele><time>2026-04-25T07:04:01.032Z</time></trkpt><trkpt lat="43.5937976" lon="13.0541151"><ele>122.0</ele><time>2026-04-25T07:04:02.031Z</time></trkpt><trkpt lat="43.5936875" lon="13.0541257"><ele>122.0</ele><time>2026-04-25T07:04:03.031Z</time></trkpt><trkpt lat="43.5935882" lon="13.0541214"><ele>120.19999999999999</ele><time>2026-04-25T07:04:04.031Z</time></trkpt><trkpt lat="43.5934972" lon="13.0540994"><ele>118.39999999999999</ele><time>2026-04-25T07:04:05.031Z</time></trkpt><trkpt lat="43.5934139" lon="13.0540472"><ele>116.60000000000001</ele><time>2026-04-25T07:04:06.031Z</time></trkpt><trkpt lat="43.5933464" lon="13.053969"><ele>114.80000000000001</ele><time>2026-04-25T07:04:07.032Z</time></trkpt><trkpt lat="43.5932876" lon="13.0538794"><ele>113.0</ele><time>2026-04-25T07:04:08.031Z</time></trkpt><trkpt lat="43.5932246" lon="13.0537805"><ele>113.0</ele><time>2026-04-25T07:04:09.032Z</time></trkpt><trkpt lat="43.5931405" lon="13.0536418"><ele>113.0</ele><time>2026-04-25T07:04:10.032Z</time></trkpt><trkpt lat="43.5930643" lon="13.0534961"><ele>113.0</ele><time>2026-04-25T07:04:11.031Z</time></trkpt><trkpt lat="43.5930102" lon="13.0533634"><ele>113.0</ele><time>2026-04-25T07:04:12.033Z</time></trkpt><trkpt lat="43.5929724" lon="13.0532328"><ele>113.5</ele><time>2026-04-25T07:04:13.031Z</time></trkpt><trkpt lat="43.5929583" lon="13.0530834"><ele>114.0</ele><time>2026-04-25T07:04:14.032Z</time></trkpt><trkpt lat="43.5929419" lon="13.0528898"><ele>114.5</ele><time>2026-04-25T07:04:15.031Z</time></trkpt><trkpt lat="43.5929137" lon="13.0527021"><ele>115.0</ele><time>2026-04-25T07:04:16.032Z</time></trkpt><trkpt lat="43.5928678" lon="13.0525045"><ele>118.66666666666667</ele><time>2026-04-25T07:04:17.033Z</time></trkpt><trkpt lat="43.5928167" lon="13.0522789"><ele>122.33333333333334</ele><time>2026-04-25T07:04:18.032Z</time></trkpt><trkpt lat="43.5927588" lon="13.0520314"><ele>126.0</ele><time>2026-04-25T07:04:19.031Z</time></trkpt><trkpt lat="43.592694" lon="13.0517661"><ele>128.5</ele><time>2026-04-25T07:04:20.031Z</time></trkpt><trkpt lat="43.5926395" lon="13.0515439"><ele>131.0</ele><time>2026-04-25T07:04:21.032Z</time></trkpt><trkpt lat="43.592597" lon="13.0513673"><ele>133.5</ele><time>2026-04-25T07:04:22.032Z</time></trkpt><trkpt lat="43.5925572" lon="13.0512336"><ele>136.0</ele><time>2026-04-25T07:04:23.031Z</time></trkpt><trkpt lat="43.592515" lon="13.0511249"><ele>136.0</ele><time>2026-04-25T07:04:24.031Z</time></trkpt><trkpt lat="43.5924612" lon="13.0510715"><ele>136.0</ele><time>2026-04-25T07:04:25.032Z</time></trkpt><trkpt lat="43.5923949" lon="13.0510369"><ele>136.0</ele><time>2026-04-25T07:04:26.031Z</time></trkpt><trkpt lat="43.5923078" lon="13.051032"><ele>136.0</ele><time>2026-04-25T07:04:27.031Z</time></trkpt><trkpt lat="43.5921946" lon="13.0510451"><ele>136.0</ele><time>2026-04-25T07:04:28.033Z</time></trkpt><trkpt lat="43.5920488" lon="13.05106"><ele>137.5</ele><time>2026-04-25T07:04:29.031Z</time></trkpt><trkpt lat="43.5918747" lon="13.0510856"><ele>139.0</ele><time>2026-04-25T07:04:30.031Z</time></trkpt><trkpt lat="43.5917217" lon="13.0511122"><ele>140.5</ele><time>2026-04-25T07:04:31.032Z</time></trkpt><trkpt lat="43.5916044" lon="13.0511286"><ele>142.0</ele><time>2026-04-25T07:04:32.031Z</time></trkpt><trkpt lat="43.5915219" lon="13.051124"><ele>142.0</ele><time>2026-04-25T07:04:33.032Z</time></trkpt><trkpt lat="43.5914165" lon="13.051054"><ele>142.0</ele><time>2026-04-25T07:04:35.032Z</time></trkpt><trkpt lat="43.5913679" lon="13.0509913"><ele>142.0</ele><time>2026-04-25T07:04:36.031Z</time></trkpt><trkpt lat="43.5913097" lon="13.050901"><ele>142.0</ele><time>2026-04-25T07:04:37.032Z</time></trkpt><trkpt lat="43.5912336" lon="13.0507932"><ele>142.0</ele><time>2026-04-25T07:04:38.031Z</time></trkpt><trkpt lat="43.5911468" lon="13.0506744"><ele>147.0</ele><time>2026-04-25T07:04:39.032Z</time></trkpt><trkpt lat="43.5910487" lon="13.0505406"><ele>152.0</ele><time>2026-04-25T07:04:40.031Z</time></trkpt><trkpt lat="43.5909446" lon="13.0503973"><ele>157.0</ele><time>2026-04-25T07:04:41.032Z</time></trkpt><trkpt lat="43.5908368" lon="13.0502468"><ele>162.0</ele><time>2026-04-25T07:04:42.032Z</time></trkpt><trkpt lat="43.5907223" lon="13.0500815"><ele>164.0</ele><time>2026-04-25T07:04:43.032Z</time></trkpt><trkpt lat="43.5906104" lon="13.0499183"><ele>166.0</ele><time>2026-04-25T07:04:44.031Z</time></trkpt><trkpt lat="43.5905222" lon="13.0497937"><ele>168.0</ele><time>2026-04-25T07:04:45.031Z</time></trkpt><trkpt lat="43.5904493" lon="13.049684"><ele>170.0</ele><time>2026-04-25T07:04:46.031Z</time></trkpt><trkpt lat="43.5903701" lon="13.0495688"><ele>171.0</ele><time>2026-04-25T07:04:47.031Z</time></trkpt><trkpt lat="43.5903047" lon="13.0494728"><ele>172.0</ele><time>2026-04-25T07:04:48.031Z</time></trkpt><trkpt lat="43.5902584" lon="13.0494094"><ele>173.0</ele><time>2026-04-25T07:04:49.032Z</time></trkpt><trkpt lat="43.5902123" lon="13.0493502"><ele>174.0</ele><time>2026-04-25T07:04:51.033Z</time></trkpt><trkpt lat="43.5901336" lon="13.0493447"><ele>175.0</ele><time>2026-04-25T07:04:54.031Z</time></trkpt><trkpt lat="43.5900087" lon="13.0494937"><ele>175.0</ele><time>2026-04-25T07:04:56.031Z</time></trkpt><trkpt lat="43.5899191" lon="13.0496025"><ele>175.0</ele><time>2026-04-25T07:04:57.031Z</time></trkpt><trkpt lat="43.58984" lon="13.049697"><ele>175.0</ele><time>2026-04-25T07:04:58.032Z</time></trkpt><trkpt lat="43.5897596" lon="13.0497774"><ele>175.0</ele><time>2026-04-25T07:04:59.031Z</time></trkpt><trkpt lat="43.589663" lon="13.0498536"><ele>175.0</ele><time>2026-04-25T07:05:00.032Z</time></trkpt><trkpt lat="43.5895556" lon="13.0499169"><ele>173.5</ele><time>2026-04-25T07:05:01.032Z</time></trkpt><trkpt lat="43.5894437" lon="13.0499648"><ele>172.0</ele><time>2026-04-25T07:05:02.031Z</time></trkpt><trkpt lat="43.5893254" lon="13.0500002"><ele>170.5</ele><time>2026-04-25T07:05:03.031Z</time></trkpt><trkpt lat="43.5892058" lon="13.0500255"><ele>169.0</ele><time>2026-04-25T07:05:04.032Z</time></trkpt><trkpt lat="43.5890715" lon="13.0500414"><ele>169.0</ele><time>2026-04-25T07:05:05.031Z</time></trkpt><trkpt lat="43.5889357" lon="13.0500423"><ele>169.0</ele><time>2026-04-25T07:05:06.031Z</time></trkpt><trkpt lat="43.5887982" lon="13.0500402"><ele>169.0</ele><time>2026-04-25T07:05:07.031Z</time></trkpt><trkpt lat="43.5886617" lon="13.0500406"><ele>169.0</ele><time>2026-04-25T07:05:08.031Z</time></trkpt><trkpt lat="43.588533" lon="13.050046"><ele>168.25</ele><time>2026-04-25T07:05:09.031Z</time></trkpt><trkpt lat="43.5884005" lon="13.0500628"><ele>167.5</ele><time>2026-04-25T07:05:10.031Z</time></trkpt><trkpt lat="43.5882601" lon="13.0500952"><ele>166.75</ele><time>2026-04-25T07:05:11.031Z</time></trkpt><trkpt lat="43.588109" lon="13.050138"><ele>166.0</ele><time>2026-04-25T07:05:12.032Z</time></trkpt><trkpt lat="43.5879645" lon="13.0501819"><ele>165.25</ele><time>2026-04-25T07:05:13.031Z</time></trkpt><trkpt lat="43.5878292" lon="13.0502225"><ele>164.5</ele><time>2026-04-25T07:05:14.031Z</time></trkpt><trkpt lat="43.5876914" lon="13.050264"><ele>163.75</ele><time>2026-04-25T07:05:15.031Z</time></trkpt><trkpt lat="43.5875486" lon="13.0503117"><ele>163.0</ele><time>2026-04-25T07:05:16.033Z</time></trkpt><trkpt lat="43.5874095" lon="13.0503555"><ele>163.0</ele><time>2026-04-25T07:05:17.031Z</time></trkpt><trkpt lat="43.5872693" lon="13.0503954"><ele>163.0</ele><time>2026-04-25T07:05:18.032Z</time></trkpt><trkpt lat="43.5871289" lon="13.0504206"><ele>163.0</ele><time>2026-04-25T07:05:19.032Z</time></trkpt><trkpt lat="43.5869873" lon="13.0504295"><ele>163.0</ele><time>2026-04-25T07:05:20.031Z</time></trkpt><trkpt lat="43.5868468" lon="13.0504277"><ele>162.75</ele><time>2026-04-25T07:05:21.032Z</time></trkpt><trkpt lat="43.5867187" lon="13.0504159"><ele>162.5</ele><time>2026-04-25T07:05:22.031Z</time></trkpt><trkpt lat="43.5865886" lon="13.050394"><ele>162.25</ele><time>2026-04-25T07:05:23.032Z</time></trkpt><trkpt lat="43.5864544" lon="13.0503714"><ele>162.0</ele><time>2026-04-25T07:05:24.031Z</time></trkpt><trkpt lat="43.5863223" lon="13.0503511"><ele>162.0</ele><time>2026-04-25T07:05:25.031Z</time></trkpt><trkpt lat="43.5862008" lon="13.0503342"><ele>162.0</ele><time>2026-04-25T07:05:26.031Z</time></trkpt><trkpt lat="43.5860769" lon="13.0503218"><ele>162.0</ele><time>2026-04-25T07:05:27.032Z</time></trkpt><trkpt lat="43.5859521" lon="13.050325"><ele>162.0</ele><time>2026-04-25T07:05:28.031Z</time></trkpt><trkpt lat="43.5858232" lon="13.050341"><ele>161.5</ele><time>2026-04-25T07:05:29.033Z</time></trkpt><trkpt lat="43.5856895" lon="13.0503574"><ele>161.0</ele><time>2026-04-25T07:05:30.031Z</time></trkpt><trkpt lat="43.585553" lon="13.0503678"><ele>160.5</ele><time>2026-04-25T07:05:31.032Z</time></trkpt><trkpt lat="43.5854164" lon="13.0503784"><ele>160.0</ele><time>2026-04-25T07:05:32.032Z</time></trkpt><trkpt lat="43.585278" lon="13.050387"><ele>160.0</ele><time>2026-04-25T07:05:33.031Z</time></trkpt><trkpt lat="43.58514" lon="13.0503948"><ele>160.0</ele><time>2026-04-25T07:05:34.032Z</time></trkpt><trkpt lat="43.5849973" lon="13.0504032"><ele>160.0</ele><time>2026-04-25T07:05:35.032Z</time></trkpt><trkpt lat="43.5848531" lon="13.0504154"><ele>160.0</ele><time>2026-04-25T07:05:36.031Z</time></trkpt><trkpt lat="43.5847127" lon="13.050432"><ele>160.0</ele><time>2026-04-25T07:05:37.031Z</time></trkpt><trkpt lat="43.5845692" lon="13.0504706"><ele>160.0</ele><time>2026-04-25T07:05:38.031Z</time></trkpt><trkpt lat="43.5844179" lon="13.0505319"><ele>160.0</ele><time>2026-04-25T07:05:39.031Z</time></trkpt><trkpt lat="43.5842739" lon="13.0506099"><ele>158.33333333333334</ele><time>2026-04-25T07:05:40.033Z</time></trkpt><trkpt lat="43.5841283" lon="13.0507016"><ele>156.66666666666666</ele><time>2026-04-25T07:05:41.031Z</time></trkpt><trkpt lat="43.5839922" lon="13.0507984"><ele>155.0</ele><time>2026-04-25T07:05:42.031Z</time></trkpt><trkpt lat="43.5838534" lon="13.050902"><ele>153.66666666666666</ele><time>2026-04-25T07:05:43.033Z</time></trkpt><trkpt lat="43.5837154" lon="13.0510059"><ele>152.33333333333334</ele><time>2026-04-25T07:05:44.031Z</time></trkpt><trkpt lat="43.5835827" lon="13.0511046"><ele>151.0</ele><time>2026-04-25T07:05:45.031Z</time></trkpt><trkpt lat="43.5834536" lon="13.0512073"><ele>151.0</ele><time>2026-04-25T07:05:46.031Z</time></trkpt><trkpt lat="43.5833268" lon="13.0513094"><ele>151.0</ele><time>2026-04-25T07:05:47.032Z</time></trkpt><trkpt lat="43.5832031" lon="13.0514099"><ele>151.0</ele><time>2026-04-25T07:05:48.031Z</time></trkpt><trkpt lat="43.5830796" lon="13.051515"><ele>151.0</ele><time>2026-04-25T07:05:49.033Z</time></trkpt><trkpt lat="43.5829555" lon="13.0516163"><ele>150.0</ele><time>2026-04-25T07:05:50.031Z</time></trkpt><trkpt lat="43.5828239" lon="13.0517068"><ele>149.0</ele><time>2026-04-25T07:05:51.032Z</time></trkpt><trkpt lat="43.5826848" lon="13.0517873"><ele>148.0</ele><time>2026-04-25T07:05:52.031Z</time></trkpt><trkpt lat="43.5825474" lon="13.051861"><ele>147.0</ele><time>2026-04-25T07:05:53.032Z</time></trkpt><trkpt lat="43.5824031" lon="13.0519405"><ele>147.0</ele><time>2026-04-25T07:05:54.031Z</time></trkpt><trkpt lat="43.5822564" lon="13.0520231"><ele>147.0</ele><time>2026-04-25T07:05:55.031Z</time></trkpt><trkpt lat="43.5821079" lon="13.0521039"><ele>147.0</ele><time>2026-04-25T07:05:56.031Z</time></trkpt><trkpt lat="43.5819661" lon="13.0521822"><ele>144.66666666666666</ele><time>2026-04-25T07:05:57.031Z</time></trkpt><trkpt lat="43.5818131" lon="13.0522642"><ele>142.33333333333331</ele><time>2026-04-25T07:05:58.031Z</time></trkpt><trkpt lat="43.5816512" lon="13.0523507"><ele>140.0</ele><time>2026-04-25T07:05:59.031Z</time></trkpt><trkpt lat="43.581486" lon="13.0524405"><ele>138.33333333333331</ele><time>2026-04-25T07:06:00.031Z</time></trkpt><trkpt lat="43.5813277" lon="13.0525271"><ele>136.66666666666666</ele><time>2026-04-25T07:06:01.032Z</time></trkpt><trkpt lat="43.5811731" lon="13.0526104"><ele>135.0</ele><time>2026-04-25T07:06:02.032Z</time></trkpt><trkpt lat="43.5810252" lon="13.0526889"><ele>134.0</ele><time>2026-04-25T07:06:03.032Z</time></trkpt><trkpt lat="43.5808777" lon="13.0527634"><ele>133.0</ele><time>2026-04-25T07:06:04.032Z</time></trkpt><trkpt lat="43.5807349" lon="13.0528341"><ele>132.0</ele><time>2026-04-25T07:06:05.032Z</time></trkpt><trkpt lat="43.5805928" lon="13.0529099"><ele>132.0</ele><time>2026-04-25T07:06:06.033Z</time></trkpt><trkpt lat="43.5804584" lon="13.0529857"><ele>132.0</ele><time>2026-04-25T07:06:07.032Z</time></trkpt><trkpt lat="43.5803208" lon="13.0530751"><ele>132.0</ele><time>2026-04-25T07:06:08.032Z</time></trkpt><trkpt lat="43.5801836" lon="13.0531781"><ele>130.0</ele><time>2026-04-25T07:06:09.031Z</time></trkpt><trkpt lat="43.580059" lon="13.0532841"><ele>128.0</ele><time>2026-04-25T07:06:10.032Z</time></trkpt><trkpt lat="43.5799405" lon="13.053401"><ele>126.0</ele><time>2026-04-25T07:06:11.032Z</time></trkpt><trkpt lat="43.5798185" lon="13.0535386"><ele>126.0</ele><time>2026-04-25T07:06:12.031Z</time></trkpt><trkpt lat="43.5796833" lon="13.0536985"><ele>126.0</ele><time>2026-04-25T07:06:13.032Z</time></trkpt><trkpt lat="43.5795595" lon="13.053846"><ele>126.0</ele><time>2026-04-25T07:06:14.032Z</time></trkpt><trkpt lat="43.5794421" lon="13.0539826"><ele>123.66666666666666</ele><time>2026-04-25T07:06:15.032Z</time></trkpt><trkpt lat="43.5793256" lon="13.0541175"><ele>121.33333333333333</ele><time>2026-04-25T07:06:16.033Z</time></trkpt><trkpt lat="43.5792107" lon="13.0542489"><ele>119.0</ele><time>2026-04-25T07:06:17.032Z</time></trkpt><trkpt lat="43.5790928" lon="13.0543827"><ele>118.66666666666666</ele><time>2026-04-25T07:06:18.032Z</time></trkpt><trkpt lat="43.5789595" lon="13.0545311"><ele>118.33333333333334</ele><time>2026-04-25T07:06:19.032Z</time></trkpt><trkpt lat="43.5788209" lon="13.0546808"><ele>118.0</ele><time>2026-04-25T07:06:20.031Z</time></trkpt><trkpt lat="43.5786788" lon="13.0548377"><ele>112.33333333333334</ele><time>2026-04-25T07:06:21.031Z</time></trkpt><trkpt lat="43.5785377" lon="13.0549875"><ele>106.66666666666666</ele><time>2026-04-25T07:06:22.031Z</time></trkpt><trkpt lat="43.5783938" lon="13.0551359"><ele>101.0</ele><time>2026-04-25T07:06:23.031Z</time></trkpt><trkpt lat="43.5782475" lon="13.055282"><ele>101.0</ele><time>2026-04-25T07:06:24.032Z</time></trkpt><trkpt lat="43.5780979" lon="13.0554255"><ele>101.0</ele><time>2026-04-25T07:06:25.032Z</time></trkpt><trkpt lat="43.5779493" lon="13.0555616"><ele>101.0</ele><time>2026-04-25T07:06:26.032Z</time></trkpt><trkpt lat="43.5778038" lon="13.0556935"><ele>99.66666666666666</ele><time>2026-04-25T07:06:27.033Z</time></trkpt><trkpt lat="43.5776661" lon="13.0558181"><ele>98.33333333333334</ele><time>2026-04-25T07:06:28.032Z</time></trkpt><trkpt lat="43.5775337" lon="13.0559359"><ele>97.0</ele><time>2026-04-25T07:06:29.032Z</time></trkpt><trkpt lat="43.5774041" lon="13.056048"><ele>97.0</ele><time>2026-04-25T07:06:30.032Z</time></trkpt><trkpt lat="43.5772786" lon="13.0561674"><ele>97.0</ele><time>2026-04-25T07:06:31.031Z</time></trkpt><trkpt lat="43.5771551" lon="13.0563113"><ele>97.0</ele><time>2026-04-25T07:06:32.032Z</time></trkpt><trkpt lat="43.5770317" lon="13.0564905"><ele>95.0</ele><time>2026-04-25T07:06:33.032Z</time></trkpt><trkpt lat="43.5769192" lon="13.0566815"><ele>93.0</ele><time>2026-04-25T07:06:34.031Z</time></trkpt><trkpt lat="43.5768186" lon="13.0568638"><ele>91.0</ele><time>2026-04-25T07:06:35.031Z</time></trkpt><trkpt lat="43.5767237" lon="13.0570483"><ele>91.0</ele><time>2026-04-25T07:06:36.031Z</time></trkpt><trkpt lat="43.5766445" lon="13.0572153"><ele>91.0</ele><time>2026-04-25T07:06:37.032Z</time></trkpt><trkpt lat="43.5765746" lon="13.0573712"><ele>91.0</ele><time>2026-04-25T07:06:38.032Z</time></trkpt><trkpt lat="43.5765143" lon="13.0575152"><ele>91.0</ele><time>2026-04-25T07:06:39.031Z</time></trkpt><trkpt lat="43.5764594" lon="13.0576385"><ele>91.16666666666666</ele><time>2026-04-25T07:06:40.032Z</time></trkpt><trkpt lat="43.5764124" lon="13.0577338"><ele>91.33333333333333</ele><time>2026-04-25T07:06:41.031Z</time></trkpt><trkpt lat="43.5763702" lon="13.057806"><ele>91.5</ele><time>2026-04-25T07:06:42.031Z</time></trkpt><trkpt lat="43.5763112" lon="13.0578884"><ele>91.66666666666667</ele><time>2026-04-25T07:06:44.032Z</time></trkpt><trkpt lat="43.5762076" lon="13.0579001"><ele>91.83333333333334</ele><time>2026-04-25T07:06:56.032Z</time></trkpt><trkpt lat="43.5761346" lon="13.0578555"><ele>92.0</ele><time>2026-04-25T07:06:57.033Z</time></trkpt><trkpt lat="43.5760167" lon="13.0577839"><ele>92.33333333333334</ele><time>2026-04-25T07:06:58.032Z</time></trkpt><trkpt lat="43.5758624" lon="13.0576867"><ele>92.66666666666667</ele><time>2026-04-25T07:06:59.032Z</time></trkpt><trkpt lat="43.5756826" lon="13.0575698"><ele>93.0</ele><time>2026-04-25T07:07:00.032Z</time></trkpt><trkpt lat="43.5754795" lon="13.0574324"><ele>94.0</ele><time>2026-04-25T07:07:01.031Z</time></trkpt><trkpt lat="43.5752917" lon="13.0572867"><ele>95.0</ele><time>2026-04-25T07:07:02.032Z</time></trkpt><trkpt lat="43.5751307" lon="13.0571386"><ele>96.0</ele><time>2026-04-25T07:07:03.031Z</time></trkpt><trkpt lat="43.574996" lon="13.0569803"><ele>96.0</ele><time>2026-04-25T07:07:04.032Z</time></trkpt><trkpt lat="43.5748786" lon="13.0567983"><ele>96.0</ele><time>2026-04-25T07:07:05.031Z</time></trkpt><trkpt lat="43.5747705" lon="13.0565945"><ele>96.0</ele><time>2026-04-25T07:07:06.032Z</time></trkpt><trkpt lat="43.5746798" lon="13.0564034"><ele>96.33333333333334</ele><time>2026-04-25T07:07:07.031Z</time></trkpt><trkpt lat="43.5745903" lon="13.0562157"><ele>96.66666666666667</ele><time>2026-04-25T07:07:08.032Z</time></trkpt><trkpt lat="43.5745015" lon="13.0560352"><ele>97.0</ele><time>2026-04-25T07:07:09.032Z</time></trkpt><trkpt lat="43.5744043" lon="13.055842"><ele>96.66666666666667</ele><time>2026-04-25T07:07:10.032Z</time></trkpt><trkpt lat="43.5743007" lon="13.0556402"><ele>96.33333333333334</ele><time>2026-04-25T07:07:11.032Z</time></trkpt><trkpt lat="43.5741956" lon="13.0554317"><ele>96.0</ele><time>2026-04-25T07:07:12.032Z</time></trkpt><trkpt lat="43.5740891" lon="13.0552228"><ele>96.0</ele><time>2026-04-25T07:07:13.031Z</time></trkpt><trkpt lat="43.5739798" lon="13.0550126"><ele>96.0</ele><time>2026-04-25T07:07:14.031Z</time></trkpt><trkpt lat="43.5738694" lon="13.054801"><ele>96.0</ele><time>2026-04-25T07:07:15.032Z</time></trkpt><trkpt lat="43.5737619" lon="13.0545972"><ele>96.33333333333334</ele><time>2026-04-25T07:07:16.033Z</time></trkpt><trkpt lat="43.5736481" lon="13.0543811"><ele>96.66666666666667</ele><time>2026-04-25T07:07:17.032Z</time></trkpt><trkpt lat="43.5735289" lon="13.0541639"><ele>97.0</ele><time>2026-04-25T07:07:18.031Z</time></trkpt><trkpt lat="43.5734064" lon="13.0539512"><ele>97.0</ele><time>2026-04-25T07:07:19.031Z</time></trkpt><trkpt lat="43.5732819" lon="13.0537453"><ele>97.0</ele><time>2026-04-25T07:07:20.031Z</time></trkpt><trkpt lat="43.5731569" lon="13.0535454"><ele>97.0</ele><time>2026-04-25T07:07:21.032Z</time></trkpt><trkpt lat="43.573035" lon="13.0533566"><ele>96.66666666666667</ele><time>2026-04-25T07:07:22.032Z</time></trkpt><trkpt lat="43.5729173" lon="13.0531715"><ele>96.33333333333334</ele><time>2026-04-25T07:07:23.031Z</time></trkpt><trkpt lat="43.5727962" lon="13.0529854"><ele>96.0</ele><time>2026-04-25T07:07:24.032Z</time></trkpt><trkpt lat="43.5726758" lon="13.0528011"><ele>96.0</ele><time>2026-04-25T07:07:25.033Z</time></trkpt><trkpt lat="43.5725545" lon="13.0526143"><ele>96.0</ele><time>2026-04-25T07:07:26.031Z</time></trkpt><trkpt lat="43.5724391" lon="13.0524339"><ele>96.0</ele><time>2026-04-25T07:07:27.031Z</time></trkpt><trkpt lat="43.5723149" lon="13.052261"><ele>96.0</ele><time>2026-04-25T07:07:28.033Z</time></trkpt><trkpt lat="43.5721781" lon="13.0520889"><ele>96.0</ele><time>2026-04-25T07:07:29.031Z</time></trkpt><trkpt lat="43.5720243" lon="13.0519226"><ele>96.0</ele><time>2026-04-25T07:07:30.032Z</time></trkpt><trkpt lat="43.5718677" lon="13.051775"><ele>96.0</ele><time>2026-04-25T07:07:31.031Z</time></trkpt><trkpt lat="43.5717026" lon="13.0516333"><ele>96.0</ele><time>2026-04-25T07:07:32.031Z</time></trkpt><trkpt lat="43.5715343" lon="13.0515054"><ele>96.0</ele><time>2026-04-25T07:07:33.032Z</time></trkpt><trkpt lat="43.5713694" lon="13.0513841"><ele>96.66666666666666</ele><time>2026-04-25T07:07:34.032Z</time></trkpt><trkpt lat="43.5712072" lon="13.0512649"><ele>97.33333333333333</ele><time>2026-04-25T07:07:35.032Z</time></trkpt><trkpt lat="43.5710431" lon="13.0511463"><ele>98.0</ele><time>2026-04-25T07:07:36.032Z</time></trkpt><trkpt lat="43.5708838" lon="13.0510316"><ele>98.0</ele><time>2026-04-25T07:07:37.033Z</time></trkpt><trkpt lat="43.570727" lon="13.0509156"><ele>98.0</ele><time>2026-04-25T07:07:38.032Z</time></trkpt><trkpt lat="43.5705767" lon="13.0507953"><ele>98.0</ele><time>2026-04-25T07:07:39.031Z</time></trkpt><trkpt lat="43.5704306" lon="13.0506711"><ele>98.33333333333333</ele><time>2026-04-25T07:07:40.032Z</time></trkpt><trkpt lat="43.5702873" lon="13.0505356"><ele>98.66666666666666</ele><time>2026-04-25T07:07:41.032Z</time></trkpt><trkpt lat="43.5701502" lon="13.0503842"><ele>99.0</ele><time>2026-04-25T07:07:42.031Z</time></trkpt><trkpt lat="43.5700176" lon="13.0502202"><ele>99.0</ele><time>2026-04-25T07:07:43.031Z</time></trkpt><trkpt lat="43.5698865" lon="13.0500532"><ele>99.0</ele><time>2026-04-25T07:07:44.031Z</time></trkpt><trkpt lat="43.5697557" lon="13.0498831"><ele>99.0</ele><time>2026-04-25T07:07:45.032Z</time></trkpt><trkpt lat="43.5696237" lon="13.0497091"><ele>99.33333333333334</ele><time>2026-04-25T07:07:46.031Z</time></trkpt><trkpt lat="43.5694916" lon="13.0495319"><ele>99.66666666666667</ele><time>2026-04-25T07:07:47.031Z</time></trkpt><trkpt lat="43.5693582" lon="13.0493473"><ele>100.0</ele><time>2026-04-25T07:07:48.031Z</time></trkpt><trkpt lat="43.5692228" lon="13.0491647"><ele>100.0</ele><time>2026-04-25T07:07:49.031Z</time></trkpt><trkpt lat="43.5690915" lon="13.0489866"><ele>100.0</ele><time>2026-04-25T07:07:50.032Z</time></trkpt><trkpt lat="43.5689594" lon="13.0488073"><ele>100.0</ele><time>2026-04-25T07:07:51.031Z</time></trkpt><trkpt lat="43.5688318" lon="13.0486402"><ele>100.0</ele><time>2026-04-25T07:07:52.032Z</time></trkpt><trkpt lat="43.5687054" lon="13.0484711"><ele>100.0</ele><time>2026-04-25T07:07:53.031Z</time></trkpt><trkpt lat="43.5685787" lon="13.0482937"><ele>100.0</ele><time>2026-04-25T07:07:54.032Z</time></trkpt><trkpt lat="43.5684509" lon="13.0481209"><ele>99.66666666666667</ele><time>2026-04-25T07:07:55.032Z</time></trkpt><trkpt lat="43.5683205" lon="13.0479466"><ele>99.33333333333334</ele><time>2026-04-25T07:07:56.032Z</time></trkpt><trkpt lat="43.5681894" lon="13.0477736"><ele>99.0</ele><time>2026-04-25T07:07:57.033Z</time></trkpt><trkpt lat="43.5680596" lon="13.047599"><ele>99.0</ele><time>2026-04-25T07:07:58.032Z</time></trkpt><trkpt lat="43.5679387" lon="13.0474333"><ele>99.0</ele><time>2026-04-25T07:07:59.033Z</time></trkpt><trkpt lat="43.5678217" lon="13.0472612"><ele>99.0</ele><time>2026-04-25T07:08:00.033Z</time></trkpt><trkpt lat="43.5677127" lon="13.0470847"><ele>100.0</ele><time>2026-04-25T07:08:01.033Z</time></trkpt><trkpt lat="43.5676169" lon="13.0468952"><ele>101.0</ele><time>2026-04-25T07:08:02.031Z</time></trkpt><trkpt lat="43.5675371" lon="13.0466884"><ele>102.0</ele><time>2026-04-25T07:08:03.032Z</time></trkpt><trkpt lat="43.5674726" lon="13.0464643"><ele>102.33333333333334</ele><time>2026-04-25T07:08:04.032Z</time></trkpt><trkpt lat="43.5674194" lon="13.0462314"><ele>102.66666666666667</ele><time>2026-04-25T07:08:05.033Z</time></trkpt><trkpt lat="43.5673732" lon="13.0459943"><ele>103.0</ele><time>2026-04-25T07:08:06.031Z</time></trkpt><trkpt lat="43.5673289" lon="13.0457549"><ele>103.33333333333334</ele><time>2026-04-25T07:08:07.031Z</time></trkpt><trkpt lat="43.5672833" lon="13.0455141"><ele>103.66666666666666</ele><time>2026-04-25T07:08:08.032Z</time></trkpt><trkpt lat="43.567236" lon="13.0452752"><ele>104.0</ele><time>2026-04-25T07:08:09.031Z</time></trkpt><trkpt lat="43.5671844" lon="13.0450375"><ele>103.66666666666666</ele><time>2026-04-25T07:08:10.031Z</time></trkpt><trkpt lat="43.5671258" lon="13.0447992"><ele>103.33333333333334</ele><time>2026-04-25T07:08:11.031Z</time></trkpt><trkpt lat="43.5670651" lon="13.0445606"><ele>103.0</ele><time>2026-04-25T07:08:12.032Z</time></trkpt><trkpt lat="43.5670028" lon="13.0443324"><ele>103.66666666666667</ele><time>2026-04-25T07:08:13.031Z</time></trkpt><trkpt lat="43.5669392" lon="13.0441133"><ele>104.33333333333334</ele><time>2026-04-25T07:08:14.031Z</time></trkpt><trkpt lat="43.5668776" lon="13.0438937"><ele>105.0</ele><time>2026-04-25T07:08:15.031Z</time></trkpt><trkpt lat="43.5668133" lon="13.0436717"><ele>105.0</ele><time>2026-04-25T07:08:16.031Z</time></trkpt><trkpt lat="43.5667502" lon="13.0434491"><ele>105.0</ele><time>2026-04-25T07:08:17.031Z</time></trkpt><trkpt lat="43.5666853" lon="13.0432335"><ele>105.0</ele><time>2026-04-25T07:08:18.031Z</time></trkpt><trkpt lat="43.5666263" lon="13.04302"><ele>105.0</ele><time>2026-04-25T07:08:19.031Z</time></trkpt><trkpt lat="43.5665673" lon="13.0428039"><ele>105.0</ele><time>2026-04-25T07:08:20.031Z</time></trkpt><trkpt lat="43.5665103" lon="13.0425861"><ele>105.0</ele><time>2026-04-25T07:08:21.031Z</time></trkpt><trkpt lat="43.566451" lon="13.0423668"><ele>105.0</ele><time>2026-04-25T07:08:22.032Z</time></trkpt><trkpt lat="43.5663889" lon="13.0421439"><ele>105.0</ele><time>2026-04-25T07:08:23.032Z</time></trkpt><trkpt lat="43.566331" lon="13.0419207"><ele>105.0</ele><time>2026-04-25T07:08:24.031Z</time></trkpt><trkpt lat="43.5662744" lon="13.041697"><ele>105.33333333333334</ele><time>2026-04-25T07:08:25.031Z</time></trkpt><trkpt lat="43.5662203" lon="13.0414709"><ele>105.66666666666667</ele><time>2026-04-25T07:08:26.031Z</time></trkpt><trkpt lat="43.566173" lon="13.0412442"><ele>106.0</ele><time>2026-04-25T07:08:27.031Z</time></trkpt><trkpt lat="43.5661287" lon="13.0410188"><ele>106.33333333333334</ele><time>2026-04-25T07:08:28.031Z</time></trkpt><trkpt lat="43.566087" lon="13.0407916"><ele>106.66666666666666</ele><time>2026-04-25T07:08:29.031Z</time></trkpt><trkpt lat="43.5660451" lon="13.0405597"><ele>107.0</ele><time>2026-04-25T07:08:30.031Z</time></trkpt><trkpt lat="43.5659983" lon="13.0403172"><ele>107.0</ele><time>2026-04-25T07:08:31.031Z</time></trkpt><trkpt lat="43.5659514" lon="13.0400684"><ele>107.0</ele><time>2026-04-25T07:08:32.032Z</time></trkpt><trkpt lat="43.5659043" lon="13.0398225"><ele>107.0</ele><time>2026-04-25T07:08:33.031Z</time></trkpt><trkpt lat="43.5658576" lon="13.0395844"><ele>107.33333333333333</ele><time>2026-04-25T07:08:34.032Z</time></trkpt><trkpt lat="43.5658164" lon="13.0393508"><ele>107.66666666666666</ele><time>2026-04-25T07:08:35.033Z</time></trkpt><trkpt lat="43.5657719" lon="13.0391187"><ele>108.0</ele><time>2026-04-25T07:08:36.031Z</time></trkpt><trkpt lat="43.5657281" lon="13.0388866"><ele>108.33333333333334</ele><time>2026-04-25T07:08:37.032Z</time></trkpt><trkpt lat="43.5656849" lon="13.0386512"><ele>108.66666666666667</ele><time>2026-04-25T07:08:38.031Z</time></trkpt><trkpt lat="43.5656409" lon="13.0384193"><ele>109.0</ele><time>2026-04-25T07:08:39.031Z</time></trkpt><trkpt lat="43.5655961" lon="13.0381855"><ele>109.0</ele><time>2026-04-25T07:08:40.032Z</time></trkpt><trkpt lat="43.5655541" lon="13.0379506"><ele>109.0</ele><time>2026-04-25T07:08:41.031Z</time></trkpt><trkpt lat="43.5655087" lon="13.037713"><ele>109.0</ele><time>2026-04-25T07:08:42.032Z</time></trkpt><trkpt lat="43.565463" lon="13.0374773"><ele>108.66666666666667</ele><time>2026-04-25T07:08:43.032Z</time></trkpt><trkpt lat="43.5654168" lon="13.0372405"><ele>108.33333333333334</ele><time>2026-04-25T07:08:44.032Z</time></trkpt><trkpt lat="43.5653655" lon="13.0370052"><ele>108.0</ele><time>2026-04-25T07:08:45.031Z</time></trkpt><trkpt lat="43.5653034" lon="13.0367767"><ele>107.66666666666666</ele><time>2026-04-25T07:08:46.032Z</time></trkpt><trkpt lat="43.5652276" lon="13.0365619"><ele>107.33333333333333</ele><time>2026-04-25T07:08:47.032Z</time></trkpt><trkpt lat="43.5651346" lon="13.0363516"><ele>107.0</ele><time>2026-04-25T07:08:48.032Z</time></trkpt><trkpt lat="43.5650357" lon="13.0361414"><ele>107.0</ele><time>2026-04-25T07:08:49.032Z</time></trkpt><trkpt lat="43.5649379" lon="13.0359391"><ele>107.0</ele><time>2026-04-25T07:08:50.031Z</time></trkpt><trkpt lat="43.5648452" lon="13.0357469"><ele>107.0</ele><time>2026-04-25T07:08:51.032Z</time></trkpt><trkpt lat="43.5647526" lon="13.0355546"><ele>107.33333333333333</ele><time>2026-04-25T07:08:52.031Z</time></trkpt><trkpt lat="43.5646593" lon="13.0353629"><ele>107.66666666666666</ele><time>2026-04-25T07:08:53.031Z</time></trkpt><trkpt lat="43.5645651" lon="13.035176"><ele>108.0</ele><time>2026-04-25T07:08:54.033Z</time></trkpt><trkpt lat="43.5644711" lon="13.0349848"><ele>108.0</ele><time>2026-04-25T07:08:55.031Z</time></trkpt><trkpt lat="43.5643761" lon="13.0347913"><ele>108.0</ele><time>2026-04-25T07:08:56.031Z</time></trkpt><trkpt lat="43.5642835" lon="13.0346007"><ele>108.0</ele><time>2026-04-25T07:08:57.032Z</time></trkpt><trkpt lat="43.5641912" lon="13.0344143"><ele>108.0</ele><time>2026-04-25T07:08:58.031Z</time></trkpt><trkpt lat="43.5640984" lon="13.034228"><ele>108.0</ele><time>2026-04-25T07:08:59.033Z</time></trkpt><trkpt lat="43.5640081" lon="13.0340406"><ele>108.0</ele><time>2026-04-25T07:09:00.031Z</time></trkpt><trkpt lat="43.5639159" lon="13.0338509"><ele>107.66666666666666</ele><time>2026-04-25T07:09:01.032Z</time></trkpt><trkpt lat="43.5638223" lon="13.0336591"><ele>107.33333333333333</ele><time>2026-04-25T07:09:02.031Z</time></trkpt><trkpt lat="43.5637269" lon="13.0334632"><ele>107.0</ele><time>2026-04-25T07:09:03.031Z</time></trkpt><trkpt lat="43.56363" lon="13.0332642"><ele>108.0</ele><time>2026-04-25T07:09:04.031Z</time></trkpt><trkpt lat="43.5635325" lon="13.0330676"><ele>109.0</ele><time>2026-04-25T07:09:05.031Z</time></trkpt><trkpt lat="43.5634362" lon="13.0328693"><ele>110.0</ele><time>2026-04-25T07:09:06.032Z</time></trkpt><trkpt lat="43.5633408" lon="13.032671"><ele>110.0</ele><time>2026-04-25T07:09:07.032Z</time></trkpt><trkpt lat="43.5632415" lon="13.032468"><ele>110.0</ele><time>2026-04-25T07:09:08.031Z</time></trkpt><trkpt lat="43.5631433" lon="13.0322673"><ele>110.0</ele><time>2026-04-25T07:09:09.032Z</time></trkpt><trkpt lat="43.563051" lon="13.0320719"><ele>110.0</ele><time>2026-04-25T07:09:10.031Z</time></trkpt><trkpt lat="43.5629558" lon="13.0318767"><ele>110.0</ele><time>2026-04-25T07:09:11.033Z</time></trkpt><trkpt lat="43.5628632" lon="13.0316815"><ele>110.0</ele><time>2026-04-25T07:09:12.031Z</time></trkpt><trkpt lat="43.5627689" lon="13.0314883"><ele>109.33333333333333</ele><time>2026-04-25T07:09:13.032Z</time></trkpt><trkpt lat="43.5626744" lon="13.0312979"><ele>108.66666666666666</ele><time>2026-04-25T07:09:14.031Z</time></trkpt><trkpt lat="43.5625835" lon="13.0311082"><ele>108.0</ele><time>2026-04-25T07:09:15.032Z</time></trkpt><trkpt lat="43.562488" lon="13.0309143"><ele>108.66666666666666</ele><time>2026-04-25T07:09:16.031Z</time></trkpt><trkpt lat="43.5623904" lon="13.0307182"><ele>109.33333333333333</ele><time>2026-04-25T07:09:17.033Z</time></trkpt><trkpt lat="43.5622931" lon="13.0305224"><ele>110.0</ele><time>2026-04-25T07:09:18.031Z</time></trkpt><trkpt lat="43.5621984" lon="13.0303254"><ele>110.0</ele><time>2026-04-25T07:09:19.032Z</time></trkpt><trkpt lat="43.5621016" lon="13.0301262"><ele>110.0</ele><time>2026-04-25T07:09:20.032Z</time></trkpt><trkpt lat="43.5620055" lon="13.0299275"><ele>110.0</ele><time>2026-04-25T07:09:21.031Z</time></trkpt><trkpt lat="43.5619092" lon="13.0297288"><ele>111.0</ele><time>2026-04-25T07:09:22.031Z</time></trkpt><trkpt lat="43.561812" lon="13.0295285"><ele>112.0</ele><time>2026-04-25T07:09:23.032Z</time></trkpt><trkpt lat="43.5617127" lon="13.0293267"><ele>113.0</ele><time>2026-04-25T07:09:24.031Z</time></trkpt><trkpt lat="43.5616127" lon="13.0291234"><ele>113.0</ele><time>2026-04-25T07:09:25.031Z</time></trkpt><trkpt lat="43.5615134" lon="13.0289157"><ele>113.0</ele><time>2026-04-25T07:09:26.032Z</time></trkpt><trkpt lat="43.5614105" lon="13.0287115"><ele>113.0</ele><time>2026-04-25T07:09:27.031Z</time></trkpt><trkpt lat="43.5613096" lon="13.0285067"><ele>113.33333333333333</ele><time>2026-04-25T07:09:28.031Z</time></trkpt><trkpt lat="43.5612152" lon="13.0283062"><ele>113.66666666666666</ele><time>2026-04-25T07:09:29.033Z</time></trkpt><trkpt lat="43.5611214" lon="13.0281137"><ele>114.0</ele><time>2026-04-25T07:09:30.031Z</time></trkpt><trkpt lat="43.5610274" lon="13.0279206"><ele>114.33333333333334</ele><time>2026-04-25T07:09:31.031Z</time></trkpt><trkpt lat="43.5609332" lon="13.0277276"><ele>114.66666666666667</ele><time>2026-04-25T07:09:32.031Z</time></trkpt><trkpt lat="43.5608382" lon="13.0275368"><ele>115.0</ele><time>2026-04-25T07:09:33.031Z</time></trkpt><trkpt lat="43.5607444" lon="13.0273461"><ele>115.33333333333334</ele><time>2026-04-25T07:09:34.031Z</time></trkpt><trkpt lat="43.5606529" lon="13.0271508"><ele>115.66666666666666</ele><time>2026-04-25T07:09:35.032Z</time></trkpt><trkpt lat="43.5605607" lon="13.0269544"><ele>116.0</ele><time>2026-04-25T07:09:36.032Z</time></trkpt><trkpt lat="43.5604678" lon="13.0267573"><ele>116.0</ele><time>2026-04-25T07:09:37.032Z</time></trkpt><trkpt lat="43.5603702" lon="13.0265571"><ele>116.0</ele><time>2026-04-25T07:09:38.031Z</time></trkpt><trkpt lat="43.560273" lon="13.0263574"><ele>116.0</ele><time>2026-04-25T07:09:39.031Z</time></trkpt><trkpt lat="43.560177" lon="13.0261619"><ele>116.0</ele><time>2026-04-25T07:09:40.031Z</time></trkpt><trkpt lat="43.5600797" lon="13.0259665"><ele>116.0</ele><time>2026-04-25T07:09:41.032Z</time></trkpt><trkpt lat="43.5599819" lon="13.0257726"><ele>116.0</ele><time>2026-04-25T07:09:42.032Z</time></trkpt><trkpt lat="43.5598842" lon="13.0255771"><ele>116.0</ele><time>2026-04-25T07:09:43.032Z</time></trkpt><trkpt lat="43.5597887" lon="13.0253827"><ele>116.0</ele><time>2026-04-25T07:09:44.031Z</time></trkpt><trkpt lat="43.5596951" lon="13.025189"><ele>116.0</ele><time>2026-04-25T07:09:45.031Z</time></trkpt><trkpt lat="43.559603" lon="13.0249976"><ele>116.0</ele><time>2026-04-25T07:09:46.031Z</time></trkpt><trkpt lat="43.5595109" lon="13.0248079"><ele>116.0</ele><time>2026-04-25T07:09:47.031Z</time></trkpt><trkpt lat="43.5594192" lon="13.0246172"><ele>116.0</ele><time>2026-04-25T07:09:48.032Z</time></trkpt><trkpt lat="43.5593275" lon="13.0244307"><ele>116.0</ele><time>2026-04-25T07:09:49.032Z</time></trkpt><trkpt lat="43.5592388" lon="13.0242466"><ele>116.0</ele><time>2026-04-25T07:09:50.031Z</time></trkpt><trkpt lat="43.559153" lon="13.0240756"><ele>116.0</ele><time>2026-04-25T07:09:51.031Z</time></trkpt><trkpt lat="43.5590716" lon="13.0239098"><ele>116.66666666666666</ele><time>2026-04-25T07:09:52.032Z</time></trkpt><trkpt lat="43.5589873" lon="13.0237362"><ele>117.33333333333334</ele><time>2026-04-25T07:09:53.032Z</time></trkpt><trkpt lat="43.5589007" lon="13.0235636"><ele>118.0</ele><time>2026-04-25T07:09:54.032Z</time></trkpt><trkpt lat="43.5588132" lon="13.0233955"><ele>117.5</ele><time>2026-04-25T07:09:55.031Z</time></trkpt><trkpt lat="43.558725" lon="13.0232307"><ele>117.0</ele><time>2026-04-25T07:09:56.032Z</time></trkpt><trkpt lat="43.5586364" lon="13.0230633"><ele>116.5</ele><time>2026-04-25T07:09:57.031Z</time></trkpt><trkpt lat="43.5585518" lon="13.0228964"><ele>116.0</ele><time>2026-04-25T07:09:58.032Z</time></trkpt><trkpt lat="43.5584703" lon="13.0227325"><ele>116.8</ele><time>2026-04-25T07:09:59.032Z</time></trkpt><trkpt lat="43.5583956" lon="13.0225831"><ele>117.6</ele><time>2026-04-25T07:10:00.031Z</time></trkpt><trkpt lat="43.5583215" lon="13.0224665"><ele>118.4</ele><time>2026-04-25T07:10:01.032Z</time></trkpt><trkpt lat="43.5582406" lon="13.0223901"><ele>119.2</ele><time>2026-04-25T07:10:02.033Z</time></trkpt><trkpt lat="43.5581512" lon="13.0223595"><ele>120.0</ele><time>2026-04-25T07:10:03.031Z</time></trkpt><trkpt lat="43.5580597" lon="13.0223798"><ele>120.0</ele><time>2026-04-25T07:10:04.031Z</time></trkpt><trkpt lat="43.5579658" lon="13.0224476"><ele>120.0</ele><time>2026-04-25T07:10:05.031Z</time></trkpt><trkpt lat="43.5578494" lon="13.0225235"><ele>120.0</ele><time>2026-04-25T07:10:06.031Z</time></trkpt><trkpt lat="43.5577193" lon="13.0225637"><ele>120.0</ele><time>2026-04-25T07:10:07.032Z</time></trkpt><trkpt lat="43.5575688" lon="13.0225635"><ele>121.66666666666666</ele><time>2026-04-25T07:10:08.031Z</time></trkpt><trkpt lat="43.557378" lon="13.0225512"><ele>123.33333333333333</ele><time>2026-04-25T07:10:09.031Z</time></trkpt><trkpt lat="43.5571591" lon="13.0225595"><ele>125.0</ele><time>2026-04-25T07:10:10.032Z</time></trkpt><trkpt lat="43.5569215" lon="13.0225791"><ele>125.66666666666666</ele><time>2026-04-25T07:10:11.032Z</time></trkpt><trkpt lat="43.5567058" lon="13.0226008"><ele>126.33333333333334</ele><time>2026-04-25T07:10:12.031Z</time></trkpt><trkpt lat="43.5564988" lon="13.022625"><ele>127.0</ele><time>2026-04-25T07:10:13.032Z</time></trkpt><trkpt lat="43.556307" lon="13.0226535"><ele>127.33333333333334</ele><time>2026-04-25T07:10:14.032Z</time></trkpt><trkpt lat="43.5561278" lon="13.022677"><ele>127.66666666666666</ele><time>2026-04-25T07:10:15.031Z</time></trkpt><trkpt lat="43.5559437" lon="13.0227041"><ele>128.0</ele><time>2026-04-25T07:10:16.031Z</time></trkpt><trkpt lat="43.5557609" lon="13.0227321"><ele>128.0</ele><time>2026-04-25T07:10:17.032Z</time></trkpt><trkpt lat="43.5555774" lon="13.0227637"><ele>128.0</ele><time>2026-04-25T07:10:18.032Z</time></trkpt><trkpt lat="43.5553971" lon="13.0227913"><ele>128.0</ele><time>2026-04-25T07:10:19.032Z</time></trkpt><trkpt lat="43.5552152" lon="13.0228165"><ele>128.33333333333331</ele><time>2026-04-25T07:10:20.031Z</time></trkpt><trkpt lat="43.5550329" lon="13.022842"><ele>128.66666666666666</ele><time>2026-04-25T07:10:21.032Z</time></trkpt><trkpt lat="43.554859" lon="13.0228687"><ele>129.0</ele><time>2026-04-25T07:10:22.031Z</time></trkpt><trkpt lat="43.5546811" lon="13.0228937"><ele>129.66666666666666</ele><time>2026-04-25T07:10:23.031Z</time></trkpt><trkpt lat="43.554505" lon="13.0229152"><ele>130.33333333333331</ele><time>2026-04-25T07:10:24.031Z</time></trkpt><trkpt lat="43.5543307" lon="13.0229403"><ele>131.0</ele><time>2026-04-25T07:10:25.032Z</time></trkpt><trkpt lat="43.5541573" lon="13.0229692"><ele>131.0</ele><time>2026-04-25T07:10:26.031Z</time></trkpt><trkpt lat="43.5539853" lon="13.0229948"><ele>131.0</ele><time>2026-04-25T07:10:27.031Z</time></trkpt><trkpt lat="43.5538138" lon="13.0230203"><ele>131.0</ele><time>2026-04-25T07:10:28.031Z</time></trkpt><trkpt lat="43.5536391" lon="13.0230466"><ele>131.66666666666666</ele><time>2026-04-25T07:10:29.031Z</time></trkpt><trkpt lat="43.5534627" lon="13.0230722"><ele>132.33333333333334</ele><time>2026-04-25T07:10:30.031Z</time></trkpt><trkpt lat="43.5532832" lon="13.023101"><ele>133.0</ele><time>2026-04-25T07:10:31.031Z</time></trkpt><trkpt lat="43.5531026" lon="13.0231281"><ele>133.0</ele><time>2026-04-25T07:10:32.031Z</time></trkpt><trkpt lat="43.5529225" lon="13.0231564"><ele>133.0</ele><time>2026-04-25T07:10:33.031Z</time></trkpt><trkpt lat="43.552744" lon="13.0231835"><ele>133.0</ele><time>2026-04-25T07:10:34.033Z</time></trkpt><trkpt lat="43.5525646" lon="13.0232087"><ele>132.66666666666669</ele><time>2026-04-25T07:10:35.031Z</time></trkpt><trkpt lat="43.5523839" lon="13.0232342"><ele>132.33333333333334</ele><time>2026-04-25T07:10:36.031Z</time></trkpt><trkpt lat="43.5522041" lon="13.0232618"><ele>132.0</ele><time>2026-04-25T07:10:37.032Z</time></trkpt><trkpt lat="43.552032" lon="13.0232904"><ele>131.33333333333334</ele><time>2026-04-25T07:10:38.032Z</time></trkpt><trkpt lat="43.5518614" lon="13.0233144"><ele>130.66666666666669</ele><time>2026-04-25T07:10:39.031Z</time></trkpt><trkpt lat="43.5516926" lon="13.0233392"><ele>130.0</ele><time>2026-04-25T07:10:40.033Z</time></trkpt><trkpt lat="43.5515252" lon="13.0233625"><ele>130.0</ele><time>2026-04-25T07:10:41.032Z</time></trkpt><trkpt lat="43.5513647" lon="13.0233831"><ele>130.0</ele><time>2026-04-25T07:10:42.031Z</time></trkpt><trkpt lat="43.5512091" lon="13.023406"><ele>130.0</ele><time>2026-04-25T07:10:43.032Z</time></trkpt><trkpt lat="43.5510556" lon="13.0234286"><ele>129.33333333333334</ele><time>2026-04-25T07:10:44.031Z</time></trkpt><trkpt lat="43.5509016" lon="13.0234499"><ele>128.66666666666666</ele><time>2026-04-25T07:10:45.031Z</time></trkpt><trkpt lat="43.5507421" lon="13.0234711"><ele>128.0</ele><time>2026-04-25T07:10:46.032Z</time></trkpt><trkpt lat="43.5505828" lon="13.0234964"><ele>128.0</ele><time>2026-04-25T07:10:47.031Z</time></trkpt><trkpt lat="43.5504229" lon="13.0235202"><ele>128.0</ele><time>2026-04-25T07:10:48.031Z</time></trkpt><trkpt lat="43.550263" lon="13.0235439"><ele>128.0</ele><time>2026-04-25T07:10:49.032Z</time></trkpt><trkpt lat="43.5501008" lon="13.0235702"><ele>128.66666666666666</ele><time>2026-04-25T07:10:50.031Z</time></trkpt><trkpt lat="43.5499455" lon="13.0235892"><ele>129.33333333333334</ele><time>2026-04-25T07:10:51.031Z</time></trkpt><trkpt lat="43.5497902" lon="13.0236017"><ele>130.0</ele><time>2026-04-25T07:10:52.031Z</time></trkpt><trkpt lat="43.549629" lon="13.0235943"><ele>129.66666666666669</ele><time>2026-04-25T07:10:53.032Z</time></trkpt><trkpt lat="43.54947" lon="13.0235634"><ele>129.33333333333334</ele><time>2026-04-25T07:10:54.031Z</time></trkpt><trkpt lat="43.5493108" lon="13.023521"><ele>129.0</ele><time>2026-04-25T07:10:55.032Z</time></trkpt><trkpt lat="43.5491536" lon="13.0234813"><ele>129.0</ele><time>2026-04-25T07:10:56.033Z</time></trkpt><trkpt lat="43.5489992" lon="13.0234385"><ele>129.0</ele><time>2026-04-25T07:10:57.032Z</time></trkpt><trkpt lat="43.5488469" lon="13.0233968"><ele>129.0</ele><time>2026-04-25T07:10:58.032Z</time></trkpt><trkpt lat="43.5487019" lon="13.0233589"><ele>130.0</ele><time>2026-04-25T07:10:59.032Z</time></trkpt><trkpt lat="43.5485561" lon="13.0233211"><ele>131.0</ele><time>2026-04-25T07:11:00.031Z</time></trkpt><trkpt lat="43.5484067" lon="13.0232836"><ele>132.0</ele><time>2026-04-25T07:11:01.031Z</time></trkpt><trkpt lat="43.5482563" lon="13.0232437"><ele>132.25</ele><time>2026-04-25T07:11:02.032Z</time></trkpt><trkpt lat="43.5481111" lon="13.0232046"><ele>132.5</ele><time>2026-04-25T07:11:03.033Z</time></trkpt><trkpt lat="43.5479622" lon="13.0231661"><ele>132.75</ele><time>2026-04-25T07:11:04.032Z</time></trkpt><trkpt lat="43.5478177" lon="13.0231309"><ele>133.0</ele><time>2026-04-25T07:11:05.033Z</time></trkpt><trkpt lat="43.5476762" lon="13.0230935"><ele>133.0</ele><time>2026-04-25T07:11:06.032Z</time></trkpt><trkpt lat="43.5475339" lon="13.0230572"><ele>133.0</ele><time>2026-04-25T07:11:07.031Z</time></trkpt><trkpt lat="43.5473917" lon="13.0230258"><ele>133.0</ele><time>2026-04-25T07:11:08.031Z</time></trkpt><trkpt lat="43.5472598" lon="13.0229942"><ele>133.0</ele><time>2026-04-25T07:11:09.031Z</time></trkpt><trkpt lat="43.5471274" lon="13.0229635"><ele>132.5</ele><time>2026-04-25T07:11:10.031Z</time></trkpt><trkpt lat="43.5469909" lon="13.0229295"><ele>132.0</ele><time>2026-04-25T07:11:11.033Z</time></trkpt><trkpt lat="43.5468508" lon="13.0228935"><ele>131.5</ele><time>2026-04-25T07:11:12.032Z</time></trkpt><trkpt lat="43.5467169" lon="13.0228603"><ele>131.0</ele><time>2026-04-25T07:11:13.031Z</time></trkpt><trkpt lat="43.5465912" lon="13.0228259"><ele>131.0</ele><time>2026-04-25T07:11:14.032Z</time></trkpt><trkpt lat="43.546473" lon="13.0227963"><ele>131.0</ele><time>2026-04-25T07:11:15.032Z</time></trkpt><trkpt lat="43.5463628" lon="13.0227708"><ele>131.0</ele><time>2026-04-25T07:11:16.032Z</time></trkpt><trkpt lat="43.546263" lon="13.0227458"><ele>131.0</ele><time>2026-04-25T07:11:17.033Z</time></trkpt><trkpt lat="43.5461691" lon="13.0227219"><ele>131.0</ele><time>2026-04-25T07:11:18.032Z</time></trkpt><trkpt lat="43.5460833" lon="13.0227003"><ele>130.5</ele><time>2026-04-25T07:11:19.032Z</time></trkpt><trkpt lat="43.5460022" lon="13.0226823"><ele>130.0</ele><time>2026-04-25T07:11:20.031Z</time></trkpt><trkpt lat="43.5459292" lon="13.0226626"><ele>129.5</ele><time>2026-04-25T07:11:21.031Z</time></trkpt><trkpt lat="43.545866" lon="13.0226471"><ele>129.0</ele><time>2026-04-25T07:11:22.031Z</time></trkpt><trkpt lat="43.5457718" lon="13.0226218"><ele>128.5</ele><time>2026-04-25T07:11:24.032Z</time></trkpt><trkpt lat="43.5457027" lon="13.0226009"><ele>128.0</ele><time>2026-04-25T07:11:26.032Z</time></trkpt><trkpt lat="43.5456142" lon="13.022582"><ele>127.99999999999999</ele><time>2026-04-25T07:11:49.032Z</time></trkpt><trkpt lat="43.5455277" lon="13.0225584"><ele>128.0</ele><time>2026-04-25T07:11:51.033Z</time></trkpt><trkpt lat="43.5454583" lon="13.022539"><ele>128.0</ele><time>2026-04-25T07:11:52.031Z</time></trkpt><trkpt lat="43.5453738" lon="13.0225176"><ele>128.0</ele><time>2026-04-25T07:11:53.032Z</time></trkpt><trkpt lat="43.5452877" lon="13.0225039"><ele>127.99999999999999</ele><time>2026-04-25T07:11:54.031Z</time></trkpt><trkpt lat="43.5451982" lon="13.0224891"><ele>128.0</ele><time>2026-04-25T07:11:55.032Z</time></trkpt><trkpt lat="43.5450991" lon="13.0224687"><ele>129.33333333333331</ele><time>2026-04-25T07:11:56.031Z</time></trkpt><trkpt lat="43.5449815" lon="13.0224349"><ele>130.66666666666666</ele><time>2026-04-25T07:11:57.031Z</time></trkpt><trkpt lat="43.5446804" lon="13.0223718"><ele>132.0</ele><time>2026-04-25T07:11:59.031Z</time></trkpt><trkpt lat="43.5445621" lon="13.0223437"><ele>132.5</ele><time>2026-04-25T07:12:00.033Z</time></trkpt><trkpt lat="43.5444488" lon="13.0223186"><ele>133.0</ele><time>2026-04-25T07:12:01.031Z</time></trkpt><trkpt lat="43.5443126" lon="13.0222843"><ele>133.5</ele><time>2026-04-25T07:12:02.031Z</time></trkpt><trkpt lat="43.5441693" lon="13.0222455"><ele>134.0</ele><time>2026-04-25T07:12:03.031Z</time></trkpt><trkpt lat="43.5440467" lon="13.0222113"><ele>134.0</ele><time>2026-04-25T07:12:04.032Z</time></trkpt><trkpt lat="43.5439052" lon="13.0221753"><ele>134.0</ele><time>2026-04-25T07:12:05.032Z</time></trkpt><trkpt lat="43.5437642" lon="13.022142"><ele>134.0</ele><time>2026-04-25T07:12:06.032Z</time></trkpt><trkpt lat="43.543631" lon="13.0221105"><ele>134.0</ele><time>2026-04-25T07:12:07.031Z</time></trkpt><trkpt lat="43.5434959" lon="13.0220769"><ele>134.0</ele><time>2026-04-25T07:12:08.032Z</time></trkpt><trkpt lat="43.5433577" lon="13.0220433"><ele>134.0</ele><time>2026-04-25T07:12:09.032Z</time></trkpt><trkpt lat="43.543222" lon="13.022008"><ele>134.0</ele><time>2026-04-25T07:12:10.031Z</time></trkpt><trkpt lat="43.5430987" lon="13.0219751"><ele>134.0</ele><time>2026-04-25T07:12:11.032Z</time></trkpt><trkpt lat="43.5429855" lon="13.0219414"><ele>134.0</ele><time>2026-04-25T07:12:12.032Z</time></trkpt><trkpt lat="43.5428815" lon="13.0218976"><ele>134.0</ele><time>2026-04-25T07:12:13.032Z</time></trkpt><trkpt lat="43.542774" lon="13.021839"><ele>134.0</ele><time>2026-04-25T07:12:14.031Z</time></trkpt><trkpt lat="43.5426631" lon="13.0217578"><ele>134.0</ele><time>2026-04-25T07:12:15.031Z</time></trkpt><trkpt lat="43.5425574" lon="13.0216476"><ele>135.0</ele><time>2026-04-25T07:12:16.032Z</time></trkpt><trkpt lat="43.5424609" lon="13.0215112"><ele>136.0</ele><time>2026-04-25T07:12:17.031Z</time></trkpt><trkpt lat="43.5423669" lon="13.0213542"><ele>137.0</ele><time>2026-04-25T07:12:18.032Z</time></trkpt><trkpt lat="43.5422737" lon="13.0211783"><ele>138.0</ele><time>2026-04-25T07:12:19.032Z</time></trkpt><trkpt lat="43.5421789" lon="13.0209946"><ele>138.0</ele><time>2026-04-25T07:12:20.032Z</time></trkpt><trkpt lat="43.542081" lon="13.0208147"><ele>138.0</ele><time>2026-04-25T07:12:21.031Z</time></trkpt><trkpt lat="43.5419777" lon="13.0206167"><ele>138.0</ele><time>2026-04-25T07:12:22.031Z</time></trkpt><trkpt lat="43.5418716" lon="13.0204129"><ele>137.66666666666666</ele><time>2026-04-25T07:12:23.031Z</time></trkpt><trkpt lat="43.5417641" lon="13.0202136"><ele>137.33333333333331</ele><time>2026-04-25T07:12:24.032Z</time></trkpt><trkpt lat="43.5416558" lon="13.0200111"><ele>137.0</ele><time>2026-04-25T07:12:25.032Z</time></trkpt><trkpt lat="43.5415533" lon="13.0198133"><ele>137.66666666666666</ele><time>2026-04-25T07:12:26.032Z</time></trkpt><trkpt lat="43.5414587" lon="13.0196202"><ele>138.33333333333334</ele><time>2026-04-25T07:12:27.031Z</time></trkpt><trkpt lat="43.5413716" lon="13.019427"><ele>139.0</ele><time>2026-04-25T07:12:28.031Z</time></trkpt><trkpt lat="43.5412843" lon="13.0192272"><ele>139.66666666666669</ele><time>2026-04-25T07:12:29.031Z</time></trkpt><trkpt lat="43.541192" lon="13.0190185"><ele>140.33333333333334</ele><time>2026-04-25T07:12:30.032Z</time></trkpt><trkpt lat="43.5410858" lon="13.0187843"><ele>141.0</ele><time>2026-04-25T07:12:31.032Z</time></trkpt><trkpt lat="43.5409754" lon="13.0185327"><ele>143.66666666666666</ele><time>2026-04-25T07:12:32.031Z</time></trkpt><trkpt lat="43.5408682" lon="13.0182817"><ele>146.33333333333331</ele><time>2026-04-25T07:12:33.032Z</time></trkpt><trkpt lat="43.540771" lon="13.0180545"><ele>149.0</ele><time>2026-04-25T07:12:34.032Z</time></trkpt><trkpt lat="43.5406774" lon="13.0178348"><ele>149.0</ele><time>2026-04-25T07:12:35.032Z</time></trkpt><trkpt lat="43.5405868" lon="13.0176124"><ele>149.0</ele><time>2026-04-25T07:12:36.031Z</time></trkpt><trkpt lat="43.5405034" lon="13.0173865"><ele>149.0</ele><time>2026-04-25T07:12:37.031Z</time></trkpt><trkpt lat="43.5404258" lon="13.0171559"><ele>149.0</ele><time>2026-04-25T07:12:38.032Z</time></trkpt><trkpt lat="43.5403536" lon="13.0169243"><ele>149.0</ele><time>2026-04-25T07:12:39.032Z</time></trkpt><trkpt lat="43.5402827" lon="13.0166961"><ele>149.0</ele><time>2026-04-25T07:12:40.031Z</time></trkpt><trkpt lat="43.5402096" lon="13.0164665"><ele>149.0</ele><time>2026-04-25T07:12:41.031Z</time></trkpt><trkpt lat="43.5401386" lon="13.0162371"><ele>149.0</ele><time>2026-04-25T07:12:42.032Z</time></trkpt><trkpt lat="43.5400698" lon="13.0160162"><ele>149.0</ele><time>2026-04-25T07:12:43.032Z</time></trkpt><trkpt lat="43.5399988" lon="13.015802"><ele>150.0</ele><time>2026-04-25T07:12:44.031Z</time></trkpt><trkpt lat="43.5399302" lon="13.0155884"><ele>151.0</ele><time>2026-04-25T07:12:45.032Z</time></trkpt><trkpt lat="43.5398607" lon="13.0153887"><ele>152.0</ele><time>2026-04-25T07:12:46.031Z</time></trkpt><trkpt lat="43.5397868" lon="13.0151886"><ele>152.0</ele><time>2026-04-25T07:12:47.031Z</time></trkpt><trkpt lat="43.539712" lon="13.0149972"><ele>152.0</ele><time>2026-04-25T07:12:48.031Z</time></trkpt><trkpt lat="43.5396382" lon="13.0148131"><ele>152.0</ele><time>2026-04-25T07:12:49.031Z</time></trkpt><trkpt lat="43.5395575" lon="13.0146308"><ele>152.66666666666666</ele><time>2026-04-25T07:12:50.031Z</time></trkpt><trkpt lat="43.5394729" lon="13.0144545"><ele>153.33333333333334</ele><time>2026-04-25T07:12:51.032Z</time></trkpt><trkpt lat="43.5393849" lon="13.0142766"><ele>154.0</ele><time>2026-04-25T07:12:52.032Z</time></trkpt><trkpt lat="43.5392991" lon="13.0141015"><ele>154.0</ele><time>2026-04-25T07:12:53.031Z</time></trkpt><trkpt lat="43.5392143" lon="13.013922"><ele>154.0</ele><time>2026-04-25T07:12:54.032Z</time></trkpt><trkpt lat="43.5391349" lon="13.0137381"><ele>154.0</ele><time>2026-04-25T07:12:55.032Z</time></trkpt><trkpt lat="43.5390611" lon="13.0135457"><ele>154.0</ele><time>2026-04-25T07:12:56.032Z</time></trkpt><trkpt lat="43.5389937" lon="13.0133531"><ele>154.0</ele><time>2026-04-25T07:12:57.032Z</time></trkpt><trkpt lat="43.5389248" lon="13.0131588"><ele>154.0</ele><time>2026-04-25T07:12:58.032Z</time></trkpt><trkpt lat="43.5388544" lon="13.0129636"><ele>154.33333333333334</ele><time>2026-04-25T07:12:59.032Z</time></trkpt><trkpt lat="43.538785" lon="13.012768"><ele>154.66666666666666</ele><time>2026-04-25T07:13:00.032Z</time></trkpt><trkpt lat="43.5387196" lon="13.0125837"><ele>155.0</ele><time>2026-04-25T07:13:01.031Z</time></trkpt><trkpt lat="43.5386547" lon="13.0123951"><ele>152.66666666666666</ele><time>2026-04-25T07:13:02.031Z</time></trkpt><trkpt lat="43.5385892" lon="13.0122052"><ele>150.33333333333334</ele><time>2026-04-25T07:13:03.032Z</time></trkpt><trkpt lat="43.5385227" lon="13.0120154"><ele>148.0</ele><time>2026-04-25T07:13:04.032Z</time></trkpt><trkpt lat="43.5384589" lon="13.0118299"><ele>149.0</ele><time>2026-04-25T07:13:05.031Z</time></trkpt><trkpt lat="43.5383903" lon="13.0116375"><ele>150.0</ele><time>2026-04-25T07:13:06.032Z</time></trkpt><trkpt lat="43.53832" lon="13.0114422"><ele>151.0</ele><time>2026-04-25T07:13:07.031Z</time></trkpt><trkpt lat="43.5382524" lon="13.0112492"><ele>151.0</ele><time>2026-04-25T07:13:08.032Z</time></trkpt><trkpt lat="43.5381848" lon="13.0110598"><ele>151.0</ele><time>2026-04-25T07:13:09.032Z</time></trkpt><trkpt lat="43.5381212" lon="13.0108783"><ele>151.0</ele><time>2026-04-25T07:13:10.031Z</time></trkpt><trkpt lat="43.538056" lon="13.0106918"><ele>151.0</ele><time>2026-04-25T07:13:11.032Z</time></trkpt><trkpt lat="43.5379906" lon="13.0105001"><ele>151.0</ele><time>2026-04-25T07:13:12.031Z</time></trkpt><trkpt lat="43.5379225" lon="13.0103083"><ele>151.0</ele><time>2026-04-25T07:13:13.031Z</time></trkpt><trkpt lat="43.5378523" lon="13.010121"><ele>151.0</ele><time>2026-04-25T07:13:14.032Z</time></trkpt><trkpt lat="43.5377845" lon="13.0099371"><ele>151.0</ele><time>2026-04-25T07:13:15.031Z</time></trkpt><trkpt lat="43.5377118" lon="13.0097388"><ele>151.0</ele><time>2026-04-25T07:13:16.031Z</time></trkpt><trkpt lat="43.5376344" lon="13.0095233"><ele>151.0</ele><time>2026-04-25T07:13:17.031Z</time></trkpt><trkpt lat="43.5375516" lon="13.0092937"><ele>151.33333333333334</ele><time>2026-04-25T07:13:18.031Z</time></trkpt><trkpt lat="43.5374713" lon="13.0090622"><ele>151.66666666666666</ele><time>2026-04-25T07:13:19.032Z</time></trkpt><trkpt lat="43.5373977" lon="13.0088468"><ele>152.0</ele><time>2026-04-25T07:13:20.032Z</time></trkpt><trkpt lat="43.5373302" lon="13.0086416"><ele>152.0</ele><time>2026-04-25T07:13:21.033Z</time></trkpt><trkpt lat="43.5372597" lon="13.008438"><ele>152.0</ele><time>2026-04-25T07:13:22.031Z</time></trkpt><trkpt lat="43.5371843" lon="13.0082291"><ele>152.0</ele><time>2026-04-25T07:13:23.031Z</time></trkpt><trkpt lat="43.5371122" lon="13.0080245"><ele>152.33333333333331</ele><time>2026-04-25T07:13:24.033Z</time></trkpt><trkpt lat="43.5370417" lon="13.0078215"><ele>152.66666666666666</ele><time>2026-04-25T07:13:25.032Z</time></trkpt><trkpt lat="43.5369705" lon="13.0076113"><ele>153.0</ele><time>2026-04-25T07:13:26.031Z</time></trkpt><trkpt lat="43.5368973" lon="13.007402"><ele>153.0</ele><time>2026-04-25T07:13:27.031Z</time></trkpt><trkpt lat="43.5368247" lon="13.0071966"><ele>153.0</ele><time>2026-04-25T07:13:28.031Z</time></trkpt><trkpt lat="43.5367564" lon="13.0069923"><ele>153.0</ele><time>2026-04-25T07:13:29.031Z</time></trkpt><trkpt lat="43.5366852" lon="13.0067897"><ele>153.33333333333334</ele><time>2026-04-25T07:13:30.032Z</time></trkpt><trkpt lat="43.5366148" lon="13.0065892"><ele>153.66666666666669</ele><time>2026-04-25T07:13:31.031Z</time></trkpt><trkpt lat="43.5365453" lon="13.0063887"><ele>154.0</ele><time>2026-04-25T07:13:32.031Z</time></trkpt><trkpt lat="43.5364759" lon="13.0061951"><ele>154.0</ele><time>2026-04-25T07:13:33.031Z</time></trkpt><trkpt lat="43.5364085" lon="13.0060043"><ele>154.0</ele><time>2026-04-25T07:13:34.031Z</time></trkpt><trkpt lat="43.5363427" lon="13.0058102"><ele>154.0</ele><time>2026-04-25T07:13:35.033Z</time></trkpt><trkpt lat="43.536279" lon="13.0056058"><ele>154.0</ele><time>2026-04-25T07:13:36.032Z</time></trkpt><trkpt lat="43.5362184" lon="13.0053959"><ele>154.0</ele><time>2026-04-25T07:13:37.032Z</time></trkpt><trkpt lat="43.5361555" lon="13.0051769"><ele>154.0</ele><time>2026-04-25T07:13:38.031Z</time></trkpt><trkpt lat="43.5360824" lon="13.0049532"><ele>154.0</ele><time>2026-04-25T07:13:39.031Z</time></trkpt><trkpt lat="43.5359964" lon="13.0047346"><ele>154.0</ele><time>2026-04-25T07:13:40.031Z</time></trkpt><trkpt lat="43.535904" lon="13.0045099"><ele>154.0</ele><time>2026-04-25T07:13:41.031Z</time></trkpt><trkpt lat="43.5358113" lon="13.0042749"><ele>155.0</ele><time>2026-04-25T07:13:42.032Z</time></trkpt><trkpt lat="43.5357204" lon="13.0040202"><ele>156.0</ele><time>2026-04-25T07:13:43.032Z</time></trkpt><trkpt lat="43.5356317" lon="13.0037714"><ele>157.0</ele><time>2026-04-25T07:13:44.031Z</time></trkpt><trkpt lat="43.5355495" lon="13.0035333"><ele>157.66666666666669</ele><time>2026-04-25T07:13:45.031Z</time></trkpt><trkpt lat="43.5354625" lon="13.0032875"><ele>158.33333333333334</ele><time>2026-04-25T07:13:46.032Z</time></trkpt><trkpt lat="43.5353755" lon="13.0030379"><ele>159.0</ele><time>2026-04-25T07:13:47.033Z</time></trkpt><trkpt lat="43.5352877" lon="13.0027928"><ele>159.33333333333334</ele><time>2026-04-25T07:13:48.031Z</time></trkpt><trkpt lat="43.5352049" lon="13.0025543"><ele>159.66666666666669</ele><time>2026-04-25T07:13:49.031Z</time></trkpt><trkpt lat="43.5351285" lon="13.0023269"><ele>160.0</ele><time>2026-04-25T07:13:50.032Z</time></trkpt><trkpt lat="43.5350493" lon="13.0021053"><ele>160.33333333333334</ele><time>2026-04-25T07:13:51.031Z</time></trkpt><trkpt lat="43.5349708" lon="13.0018878"><ele>160.66666666666666</ele><time>2026-04-25T07:13:52.032Z</time></trkpt><trkpt lat="43.5348928" lon="13.0016784"><ele>161.0</ele><time>2026-04-25T07:13:53.032Z</time></trkpt><trkpt lat="43.5348113" lon="13.0014658"><ele>161.0</ele><time>2026-04-25T07:13:54.031Z</time></trkpt><trkpt lat="43.5347287" lon="13.0012492"><ele>161.0</ele><time>2026-04-25T07:13:55.032Z</time></trkpt><trkpt lat="43.534647" lon="13.001031"><ele>161.0</ele><time>2026-04-25T07:13:56.032Z</time></trkpt><trkpt lat="43.5345686" lon="13.0008141"><ele>159.33333333333331</ele><time>2026-04-25T07:13:57.031Z</time></trkpt><trkpt lat="43.5344919" lon="13.0006025"><ele>157.66666666666666</ele><time>2026-04-25T07:13:58.032Z</time></trkpt><trkpt lat="43.5344181" lon="13.0003971"><ele>156.0</ele><time>2026-04-25T07:13:59.031Z</time></trkpt><trkpt lat="43.5343447" lon="13.0001938"><ele>156.0</ele><time>2026-04-25T07:14:00.033Z</time></trkpt><trkpt lat="43.5342699" lon="12.9999873"><ele>156.0</ele><time>2026-04-25T07:14:01.032Z</time></trkpt><trkpt lat="43.5341949" lon="12.9997743"><ele>156.0</ele><time>2026-04-25T07:14:02.033Z</time></trkpt><trkpt lat="43.5341191" lon="12.9995576"><ele>156.0</ele><time>2026-04-25T07:14:03.032Z</time></trkpt><trkpt lat="43.534042" lon="12.9993373"><ele>156.0</ele><time>2026-04-25T07:14:04.033Z</time></trkpt><trkpt lat="43.5339618" lon="12.9991153"><ele>156.0</ele><time>2026-04-25T07:14:05.034Z</time></trkpt><trkpt lat="43.5338803" lon="12.9988906"><ele>157.0</ele><time>2026-04-25T07:14:06.032Z</time></trkpt><trkpt lat="43.5338003" lon="12.998661"><ele>158.0</ele><time>2026-04-25T07:14:07.032Z</time></trkpt><trkpt lat="43.5337199" lon="12.9984272"><ele>159.0</ele><time>2026-04-25T07:14:08.033Z</time></trkpt><trkpt lat="43.5336367" lon="12.9981897"><ele>159.33333333333334</ele><time>2026-04-25T07:14:09.033Z</time></trkpt><trkpt lat="43.5335536" lon="12.9979479"><ele>159.66666666666669</ele><time>2026-04-25T07:14:10.033Z</time></trkpt><trkpt lat="43.5334712" lon="12.9977126"><ele>160.0</ele><time>2026-04-25T07:14:11.032Z</time></trkpt><trkpt lat="43.5333948" lon="12.9974854"><ele>160.66666666666669</ele><time>2026-04-25T07:14:12.033Z</time></trkpt><trkpt lat="43.5333174" lon="12.9972599"><ele>161.33333333333334</ele><time>2026-04-25T07:14:13.033Z</time></trkpt><trkpt lat="43.5332412" lon="12.9970386"><ele>162.0</ele><time>2026-04-25T07:14:14.034Z</time></trkpt><trkpt lat="43.5331666" lon="12.9968227"><ele>164.0</ele><time>2026-04-25T07:14:15.032Z</time></trkpt><trkpt lat="43.5330911" lon="12.9966072"><ele>166.0</ele><time>2026-04-25T07:14:16.032Z</time></trkpt><trkpt lat="43.5330121" lon="12.9963876"><ele>168.0</ele><time>2026-04-25T07:14:17.032Z</time></trkpt><trkpt lat="43.532932" lon="12.9961658"><ele>167.33333333333334</ele><time>2026-04-25T07:14:18.032Z</time></trkpt><trkpt lat="43.5328511" lon="12.9959405"><ele>166.66666666666669</ele><time>2026-04-25T07:14:19.033Z</time></trkpt><trkpt lat="43.532769" lon="12.9957163"><ele>166.0</ele><time>2026-04-25T07:14:20.033Z</time></trkpt><trkpt lat="43.5326873" lon="12.9954946"><ele>166.0</ele><time>2026-04-25T07:14:21.033Z</time></trkpt><trkpt lat="43.5326075" lon="12.9952708"><ele>166.0</ele><time>2026-04-25T07:14:22.032Z</time></trkpt><trkpt lat="43.5325254" lon="12.9950456"><ele>166.0</ele><time>2026-04-25T07:14:23.033Z</time></trkpt><trkpt lat="43.5324441" lon="12.9948148"><ele>167.33333333333334</ele><time>2026-04-25T07:14:24.033Z</time></trkpt><trkpt lat="43.5323613" lon="12.9945804"><ele>168.66666666666666</ele><time>2026-04-25T07:14:25.034Z</time></trkpt><trkpt lat="43.5322814" lon="12.9943487"><ele>170.0</ele><time>2026-04-25T07:14:26.032Z</time></trkpt><trkpt lat="43.5322045" lon="12.9941261"><ele>169.33333333333331</ele><time>2026-04-25T07:14:27.032Z</time></trkpt><trkpt lat="43.5321312" lon="12.993911"><ele>168.66666666666666</ele><time>2026-04-25T07:14:28.033Z</time></trkpt><trkpt lat="43.5320554" lon="12.9936964"><ele>168.0</ele><time>2026-04-25T07:14:29.033Z</time></trkpt><trkpt lat="43.5319772" lon="12.9934801"><ele>169.66666666666666</ele><time>2026-04-25T07:14:30.032Z</time></trkpt><trkpt lat="43.5318971" lon="12.9932599"><ele>171.33333333333331</ele><time>2026-04-25T07:14:31.032Z</time></trkpt><trkpt lat="43.5318191" lon="12.9930377"><ele>173.0</ele><time>2026-04-25T07:14:32.032Z</time></trkpt><trkpt lat="43.5317404" lon="12.9928159"><ele>173.0</ele><time>2026-04-25T07:14:33.032Z</time></trkpt><trkpt lat="43.5316616" lon="12.9925933"><ele>173.0</ele><time>2026-04-25T07:14:34.032Z</time></trkpt><trkpt lat="43.5315807" lon="12.9923708"><ele>173.0</ele><time>2026-04-25T07:14:35.034Z</time></trkpt><trkpt lat="43.5315018" lon="12.9921459"><ele>173.66666666666666</ele><time>2026-04-25T07:14:36.032Z</time></trkpt><trkpt lat="43.5314305" lon="12.9919139"><ele>174.33333333333334</ele><time>2026-04-25T07:14:37.033Z</time></trkpt><trkpt lat="43.5313684" lon="12.9916806"><ele>175.0</ele><time>2026-04-25T07:14:38.032Z</time></trkpt><trkpt lat="43.5313099" lon="12.9914411"><ele>175.66666666666669</ele><time>2026-04-25T07:14:39.033Z</time></trkpt><trkpt lat="43.5312554" lon="12.9912009"><ele>176.33333333333334</ele><time>2026-04-25T07:14:40.032Z</time></trkpt><trkpt lat="43.5312077" lon="12.9909652"><ele>177.0</ele><time>2026-04-25T07:14:41.033Z</time></trkpt><trkpt lat="43.5311766" lon="12.9907327"><ele>175.33333333333334</ele><time>2026-04-25T07:14:42.032Z</time></trkpt><trkpt lat="43.5311578" lon="12.9904957"><ele>173.66666666666669</ele><time>2026-04-25T07:14:43.032Z</time></trkpt><trkpt lat="43.5311445" lon="12.990247"><ele>172.0</ele><time>2026-04-25T07:14:44.032Z</time></trkpt><trkpt lat="43.5311212" lon="12.989999"><ele>172.0</ele><time>2026-04-25T07:14:45.034Z</time></trkpt><trkpt lat="43.5310743" lon="12.9897691"><ele>172.0</ele><time>2026-04-25T07:14:46.032Z</time></trkpt><trkpt lat="43.5309973" lon="12.9895604"><ele>172.0</ele><time>2026-04-25T07:14:47.032Z</time></trkpt><trkpt lat="43.5308914" lon="12.9893515"><ele>173.66666666666669</ele><time>2026-04-25T07:14:48.033Z</time></trkpt><trkpt lat="43.5307767" lon="12.9891342"><ele>175.33333333333334</ele><time>2026-04-25T07:14:49.033Z</time></trkpt><trkpt lat="43.5306671" lon="12.9889286"><ele>177.0</ele><time>2026-04-25T07:14:50.032Z</time></trkpt><trkpt lat="43.5305628" lon="12.9887385"><ele>177.0</ele><time>2026-04-25T07:14:51.032Z</time></trkpt><trkpt lat="43.5304645" lon="12.9885652"><ele>177.0</ele><time>2026-04-25T07:14:52.034Z</time></trkpt><trkpt lat="43.5303648" lon="12.9883908"><ele>177.0</ele><time>2026-04-25T07:14:53.032Z</time></trkpt><trkpt lat="43.5302616" lon="12.988217"><ele>176.0</ele><time>2026-04-25T07:14:54.032Z</time></trkpt><trkpt lat="43.5301633" lon="12.9880492"><ele>175.0</ele><time>2026-04-25T07:14:55.033Z</time></trkpt><trkpt lat="43.530065" lon="12.9878787"><ele>174.0</ele><time>2026-04-25T07:14:56.032Z</time></trkpt><trkpt lat="43.5299725" lon="12.9877121"><ele>174.0</ele><time>2026-04-25T07:14:57.034Z</time></trkpt><trkpt lat="43.5298837" lon="12.9875574"><ele>174.0</ele><time>2026-04-25T07:14:58.033Z</time></trkpt><trkpt lat="43.5297996" lon="12.9874247"><ele>174.0</ele><time>2026-04-25T07:14:59.032Z</time></trkpt><trkpt lat="43.5297179" lon="12.9873048"><ele>174.0</ele><time>2026-04-25T07:15:00.032Z</time></trkpt><trkpt lat="43.5296311" lon="12.987184"><ele>174.0</ele><time>2026-04-25T07:15:01.032Z</time></trkpt><trkpt lat="43.5295393" lon="12.9870467"><ele>174.0</ele><time>2026-04-25T07:15:02.033Z</time></trkpt><trkpt lat="43.5294428" lon="12.9868948"><ele>174.0</ele><time>2026-04-25T07:15:03.034Z</time></trkpt><trkpt lat="43.5293463" lon="12.9867179"><ele>174.0</ele><time>2026-04-25T07:15:04.033Z</time></trkpt><trkpt lat="43.5292469" lon="12.9865173"><ele>174.0</ele><time>2026-04-25T07:15:05.033Z</time></trkpt><trkpt lat="43.5291522" lon="12.9863169"><ele>174.0</ele><time>2026-04-25T07:15:06.033Z</time></trkpt><trkpt lat="43.5290638" lon="12.9861224"><ele>174.0</ele><time>2026-04-25T07:15:07.032Z</time></trkpt><trkpt lat="43.5289787" lon="12.9859276"><ele>174.66666666666666</ele><time>2026-04-25T07:15:08.034Z</time></trkpt><trkpt lat="43.5288944" lon="12.9857303"><ele>175.33333333333331</ele><time>2026-04-25T07:15:09.032Z</time></trkpt><trkpt lat="43.5288069" lon="12.9855344"><ele>176.0</ele><time>2026-04-25T07:15:10.032Z</time></trkpt><trkpt lat="43.528716" lon="12.9853355"><ele>176.0</ele><time>2026-04-25T07:15:11.032Z</time></trkpt><trkpt lat="43.5286145" lon="12.9851181"><ele>176.0</ele><time>2026-04-25T07:15:12.032Z</time></trkpt><trkpt lat="43.5285186" lon="12.9849093"><ele>176.0</ele><time>2026-04-25T07:15:13.032Z</time></trkpt><trkpt lat="43.528425" lon="12.9847167"><ele>177.66666666666666</ele><time>2026-04-25T07:15:14.034Z</time></trkpt><trkpt lat="43.52833" lon="12.9845278"><ele>179.33333333333334</ele><time>2026-04-25T07:15:15.032Z</time></trkpt><trkpt lat="43.5282337" lon="12.9843371"><ele>181.0</ele><time>2026-04-25T07:15:16.032Z</time></trkpt><trkpt lat="43.5281414" lon="12.9841518"><ele>181.25</ele><time>2026-04-25T07:15:17.033Z</time></trkpt><trkpt lat="43.5280541" lon="12.9839742"><ele>181.5</ele><time>2026-04-25T07:15:18.033Z</time></trkpt><trkpt lat="43.5279753" lon="12.9838073"><ele>181.75</ele><time>2026-04-25T07:15:19.033Z</time></trkpt><trkpt lat="43.5278943" lon="12.9836407"><ele>182.0</ele><time>2026-04-25T07:15:20.033Z</time></trkpt><trkpt lat="43.5278112" lon="12.9834653"><ele>183.66666666666666</ele><time>2026-04-25T07:15:21.032Z</time></trkpt><trkpt lat="43.5277286" lon="12.9832825"><ele>185.33333333333334</ele><time>2026-04-25T07:15:22.033Z</time></trkpt><trkpt lat="43.5276437" lon="12.9830996"><ele>187.0</ele><time>2026-04-25T07:15:23.032Z</time></trkpt><trkpt lat="43.527557" lon="12.9829143"><ele>187.0</ele><time>2026-04-25T07:15:24.033Z</time></trkpt><trkpt lat="43.5274653" lon="12.9827253"><ele>187.0</ele><time>2026-04-25T07:15:25.033Z</time></trkpt><trkpt lat="43.5273765" lon="12.9825362"><ele>187.0</ele><time>2026-04-25T07:15:26.033Z</time></trkpt><trkpt lat="43.5272956" lon="12.9823606"><ele>187.0</ele><time>2026-04-25T07:15:27.032Z</time></trkpt><trkpt lat="43.527219" lon="12.9821966"><ele>187.0</ele><time>2026-04-25T07:15:28.033Z</time></trkpt><trkpt lat="43.52713" lon="12.982041"><ele>187.0</ele><time>2026-04-25T07:15:29.032Z</time></trkpt><trkpt lat="43.5270268" lon="12.981883"><ele>187.0</ele><time>2026-04-25T07:15:30.033Z</time></trkpt><trkpt lat="43.5269134" lon="12.981724"><ele>187.66666666666669</ele><time>2026-04-25T07:15:31.033Z</time></trkpt><trkpt lat="43.5267935" lon="12.9815641"><ele>188.33333333333334</ele><time>2026-04-25T07:15:32.032Z</time></trkpt><trkpt lat="43.5266737" lon="12.9814062"><ele>189.0</ele><time>2026-04-25T07:15:33.033Z</time></trkpt><trkpt lat="43.5265579" lon="12.9812551"><ele>189.0</ele><time>2026-04-25T07:15:34.032Z</time></trkpt><trkpt lat="43.5264403" lon="12.981105"><ele>189.0</ele><time>2026-04-25T07:15:35.032Z</time></trkpt><trkpt lat="43.5263215" lon="12.9809501"><ele>189.0</ele><time>2026-04-25T07:15:36.032Z</time></trkpt><trkpt lat="43.5262006" lon="12.9807905"><ele>188.66666666666666</ele><time>2026-04-25T07:15:37.032Z</time></trkpt><trkpt lat="43.5260855" lon="12.980638"><ele>188.33333333333331</ele><time>2026-04-25T07:15:38.033Z</time></trkpt><trkpt lat="43.5259708" lon="12.9804933"><ele>188.0</ele><time>2026-04-25T07:15:39.033Z</time></trkpt><trkpt lat="43.5258508" lon="12.9803455"><ele>188.0</ele><time>2026-04-25T07:15:40.033Z</time></trkpt><trkpt lat="43.525724" lon="12.9801904"><ele>188.0</ele><time>2026-04-25T07:15:41.032Z</time></trkpt><trkpt lat="43.5255947" lon="12.9800322"><ele>188.0</ele><time>2026-04-25T07:15:42.033Z</time></trkpt><trkpt lat="43.5254652" lon="12.979876"><ele>188.66666666666666</ele><time>2026-04-25T07:15:43.032Z</time></trkpt><trkpt lat="43.5253419" lon="12.97973"><ele>189.33333333333334</ele><time>2026-04-25T07:15:44.033Z</time></trkpt><trkpt lat="43.5252175" lon="12.9795822"><ele>190.0</ele><time>2026-04-25T07:15:45.032Z</time></trkpt><trkpt lat="43.5250935" lon="12.9794283"><ele>190.0</ele><time>2026-04-25T07:15:46.033Z</time></trkpt><trkpt lat="43.5249664" lon="12.9792747"><ele>190.0</ele><time>2026-04-25T07:15:47.032Z</time></trkpt><trkpt lat="43.5248344" lon="12.9791166"><ele>190.0</ele><time>2026-04-25T07:15:48.032Z</time></trkpt><trkpt lat="43.5246969" lon="12.9789521"><ele>189.66666666666669</ele><time>2026-04-25T07:15:49.032Z</time></trkpt><trkpt lat="43.5245541" lon="12.9787857"><ele>189.33333333333334</ele><time>2026-04-25T07:15:50.032Z</time></trkpt><trkpt lat="43.524408" lon="12.9786108"><ele>189.0</ele><time>2026-04-25T07:15:51.033Z</time></trkpt><trkpt lat="43.5242588" lon="12.9784315"><ele>189.33333333333334</ele><time>2026-04-25T07:15:52.032Z</time></trkpt><trkpt lat="43.5241027" lon="12.9782463"><ele>189.66666666666669</ele><time>2026-04-25T07:15:53.032Z</time></trkpt><trkpt lat="43.5239448" lon="12.9780596"><ele>190.0</ele><time>2026-04-25T07:15:54.032Z</time></trkpt><trkpt lat="43.5237883" lon="12.9778691"><ele>190.0</ele><time>2026-04-25T07:15:55.032Z</time></trkpt><trkpt lat="43.5236329" lon="12.9776828"><ele>190.0</ele><time>2026-04-25T07:15:56.033Z</time></trkpt><trkpt lat="43.5234798" lon="12.9775007"><ele>190.0</ele><time>2026-04-25T07:15:57.033Z</time></trkpt><trkpt lat="43.5233303" lon="12.9773203"><ele>190.0</ele><time>2026-04-25T07:15:58.032Z</time></trkpt><trkpt lat="43.5231819" lon="12.9771456"><ele>190.0</ele><time>2026-04-25T07:15:59.032Z</time></trkpt><trkpt lat="43.5230337" lon="12.9769769"><ele>190.0</ele><time>2026-04-25T07:16:00.033Z</time></trkpt><trkpt lat="43.5228899" lon="12.9768082"><ele>191.0</ele><time>2026-04-25T07:16:01.032Z</time></trkpt><trkpt lat="43.5227481" lon="12.9766428"><ele>192.0</ele><time>2026-04-25T07:16:02.033Z</time></trkpt><trkpt lat="43.5226088" lon="12.9764797"><ele>193.0</ele><time>2026-04-25T07:16:03.032Z</time></trkpt><trkpt lat="43.5224734" lon="12.9763199"><ele>193.0</ele><time>2026-04-25T07:16:04.032Z</time></trkpt><trkpt lat="43.5223363" lon="12.9761613"><ele>193.0</ele><time>2026-04-25T07:16:05.032Z</time></trkpt><trkpt lat="43.522202" lon="12.9759994"><ele>193.0</ele><time>2026-04-25T07:16:06.033Z</time></trkpt><trkpt lat="43.5220638" lon="12.9758367"><ele>193.0</ele><time>2026-04-25T07:16:07.034Z</time></trkpt><trkpt lat="43.5219253" lon="12.9756697"><ele>193.0</ele><time>2026-04-25T07:16:08.032Z</time></trkpt><trkpt lat="43.5217796" lon="12.9754981"><ele>193.0</ele><time>2026-04-25T07:16:09.032Z</time></trkpt><trkpt lat="43.5216317" lon="12.9753279"><ele>193.0</ele><time>2026-04-25T07:16:10.032Z</time></trkpt><trkpt lat="43.5214914" lon="12.9751642"><ele>193.0</ele><time>2026-04-25T07:16:11.033Z</time></trkpt><trkpt lat="43.5213561" lon="12.9750057"><ele>193.0</ele><time>2026-04-25T07:16:12.033Z</time></trkpt><trkpt lat="43.5212191" lon="12.97485"><ele>193.66666666666666</ele><time>2026-04-25T07:16:13.032Z</time></trkpt><trkpt lat="43.5210786" lon="12.9747023"><ele>194.33333333333331</ele><time>2026-04-25T07:16:14.032Z</time></trkpt><trkpt lat="43.5209402" lon="12.9745565"><ele>195.0</ele><time>2026-04-25T07:16:15.033Z</time></trkpt><trkpt lat="43.5208011" lon="12.9744152"><ele>195.0</ele><time>2026-04-25T07:16:16.033Z</time></trkpt><trkpt lat="43.5206606" lon="12.9742697"><ele>195.0</ele><time>2026-04-25T07:16:17.032Z</time></trkpt><trkpt lat="43.5205184" lon="12.9741205"><ele>195.0</ele><time>2026-04-25T07:16:18.033Z</time></trkpt><trkpt lat="43.5203766" lon="12.9739799"><ele>197.0</ele><time>2026-04-25T07:16:19.032Z</time></trkpt><trkpt lat="43.5202435" lon="12.97385"><ele>199.0</ele><time>2026-04-25T07:16:20.032Z</time></trkpt><trkpt lat="43.5201121" lon="12.9737183"><ele>201.0</ele><time>2026-04-25T07:16:21.032Z</time></trkpt><trkpt lat="43.5199782" lon="12.9735705"><ele>201.0</ele><time>2026-04-25T07:16:22.032Z</time></trkpt><trkpt lat="43.5198398" lon="12.9734066"><ele>201.0</ele><time>2026-04-25T07:16:23.032Z</time></trkpt><trkpt lat="43.5196972" lon="12.9732258"><ele>201.0</ele><time>2026-04-25T07:16:24.032Z</time></trkpt><trkpt lat="43.519569" lon="12.9730622"><ele>201.0</ele><time>2026-04-25T07:16:25.033Z</time></trkpt><trkpt lat="43.5194329" lon="12.9728968"><ele>201.0</ele><time>2026-04-25T07:16:26.034Z</time></trkpt><trkpt lat="43.5192905" lon="12.9727269"><ele>201.0</ele><time>2026-04-25T07:16:27.033Z</time></trkpt><trkpt lat="43.5191438" lon="12.9725601"><ele>200.66666666666669</ele><time>2026-04-25T07:16:28.033Z</time></trkpt><trkpt lat="43.5189885" lon="12.9723901"><ele>200.33333333333334</ele><time>2026-04-25T07:16:29.032Z</time></trkpt><trkpt lat="43.5188216" lon="12.9722129"><ele>200.0</ele><time>2026-04-25T07:16:30.032Z</time></trkpt><trkpt lat="43.5186662" lon="12.972044"><ele>200.0</ele><time>2026-04-25T07:16:31.032Z</time></trkpt><trkpt lat="43.5185125" lon="12.9718775"><ele>200.0</ele><time>2026-04-25T07:16:32.032Z</time></trkpt><trkpt lat="43.5183584" lon="12.9717139"><ele>200.0</ele><time>2026-04-25T07:16:33.032Z</time></trkpt><trkpt lat="43.518212" lon="12.9715559"><ele>202.0</ele><time>2026-04-25T07:16:34.033Z</time></trkpt><trkpt lat="43.5180776" lon="12.9714116"><ele>204.0</ele><time>2026-04-25T07:16:35.032Z</time></trkpt><trkpt lat="43.517938" lon="12.9712652"><ele>206.0</ele><time>2026-04-25T07:16:36.033Z</time></trkpt><trkpt lat="43.5177969" lon="12.9711174"><ele>206.0</ele><time>2026-04-25T07:16:37.032Z</time></trkpt><trkpt lat="43.5176603" lon="12.9709794"><ele>206.0</ele><time>2026-04-25T07:16:38.034Z</time></trkpt><trkpt lat="43.5175306" lon="12.9708432"><ele>206.0</ele><time>2026-04-25T07:16:39.032Z</time></trkpt><trkpt lat="43.5174033" lon="12.9707051"><ele>207.0</ele><time>2026-04-25T07:16:40.033Z</time></trkpt><trkpt lat="43.5172686" lon="12.9705576"><ele>208.0</ele><time>2026-04-25T07:16:41.032Z</time></trkpt><trkpt lat="43.5171453" lon="12.9704181"><ele>209.0</ele><time>2026-04-25T07:16:42.033Z</time></trkpt><trkpt lat="43.5170208" lon="12.9702757"><ele>209.0</ele><time>2026-04-25T07:16:43.033Z</time></trkpt><trkpt lat="43.5169018" lon="12.9701389"><ele>209.0</ele><time>2026-04-25T07:16:44.032Z</time></trkpt><trkpt lat="43.5167909" lon="12.9700089"><ele>209.0</ele><time>2026-04-25T07:16:45.033Z</time></trkpt><trkpt lat="43.5166789" lon="12.9698723"><ele>210.5</ele><time>2026-04-25T07:16:46.032Z</time></trkpt><trkpt lat="43.5165712" lon="12.9697315"><ele>212.0</ele><time>2026-04-25T07:16:47.033Z</time></trkpt><trkpt lat="43.5164646" lon="12.9695991"><ele>213.5</ele><time>2026-04-25T07:16:48.034Z</time></trkpt><trkpt lat="43.5163621" lon="12.9694648"><ele>215.0</ele><time>2026-04-25T07:16:49.032Z</time></trkpt><trkpt lat="43.5162446" lon="12.9693245"><ele>215.33333333333334</ele><time>2026-04-25T07:16:50.033Z</time></trkpt><trkpt lat="43.5161302" lon="12.969175"><ele>215.66666666666669</ele><time>2026-04-25T07:16:51.032Z</time></trkpt><trkpt lat="43.5160203" lon="12.9690376"><ele>216.0</ele><time>2026-04-25T07:16:52.032Z</time></trkpt><trkpt lat="43.5159141" lon="12.9689004"><ele>216.0</ele><time>2026-04-25T07:16:53.033Z</time></trkpt><trkpt lat="43.5158172" lon="12.9687771"><ele>216.00000000000003</ele><time>2026-04-25T07:16:54.033Z</time></trkpt><trkpt lat="43.5157359" lon="12.9686624"><ele>216.00000000000003</ele><time>2026-04-25T07:16:55.032Z</time></trkpt><trkpt lat="43.5156643" lon="12.9685612"><ele>216.0</ele><time>2026-04-25T07:16:56.034Z</time></trkpt><trkpt lat="43.5156006" lon="12.9684741"><ele>216.0</ele><time>2026-04-25T07:16:57.032Z</time></trkpt><trkpt lat="43.515533" lon="12.9683794"><ele>217.20000000000002</ele><time>2026-04-25T07:16:58.032Z</time></trkpt><trkpt lat="43.5154655" lon="12.968282"><ele>218.40000000000003</ele><time>2026-04-25T07:16:59.033Z</time></trkpt><trkpt lat="43.5154013" lon="12.9681833"><ele>219.6</ele><time>2026-04-25T07:17:00.032Z</time></trkpt><trkpt lat="43.5153382" lon="12.9680824"><ele>220.8</ele><time>2026-04-25T07:17:01.032Z</time></trkpt><trkpt lat="43.5152763" lon="12.9679789"><ele>222.0</ele><time>2026-04-25T07:17:02.033Z</time></trkpt><trkpt lat="43.5152166" lon="12.9678767"><ele>222.0</ele><time>2026-04-25T07:17:03.033Z</time></trkpt><trkpt lat="43.5151618" lon="12.9677716"><ele>222.0</ele><time>2026-04-25T07:17:04.034Z</time></trkpt><trkpt lat="43.5151114" lon="12.9676739"><ele>222.0</ele><time>2026-04-25T07:17:05.033Z</time></trkpt><trkpt lat="43.5150674" lon="12.9675892"><ele>222.0</ele><time>2026-04-25T07:17:06.033Z</time></trkpt><trkpt lat="43.5150249" lon="12.9675069"><ele>222.0</ele><time>2026-04-25T07:17:07.033Z</time></trkpt><trkpt lat="43.5149853" lon="12.9674236"><ele>222.0</ele><time>2026-04-25T07:17:08.032Z</time></trkpt><trkpt lat="43.5149434" lon="12.9673388"><ele>223.39999999999998</ele><time>2026-04-25T07:17:09.033Z</time></trkpt><trkpt lat="43.5148762" lon="12.9672006"><ele>224.79999999999998</ele><time>2026-04-25T07:17:11.034Z</time></trkpt><trkpt lat="43.514816" lon="12.9670853"><ele>226.2</ele><time>2026-04-25T07:17:13.032Z</time></trkpt><trkpt lat="43.5147584" lon="12.9669746"><ele>227.6</ele><time>2026-04-25T07:17:15.033Z</time></trkpt><trkpt lat="43.5146947" lon="12.9668521"><ele>229.0</ele><time>2026-04-25T07:17:17.034Z</time></trkpt><trkpt lat="43.5146459" lon="12.9667525"><ele>229.39999999999998</ele><time>2026-04-25T07:17:19.033Z</time></trkpt><trkpt lat="43.51459" lon="12.9666607"><ele>229.79999999999998</ele><time>2026-04-25T07:17:21.032Z</time></trkpt><trkpt lat="43.5145173" lon="12.9666396"><ele>230.20000000000002</ele><time>2026-04-25T07:17:23.032Z</time></trkpt><trkpt lat="43.5144085" lon="12.9667382"><ele>230.60000000000002</ele><time>2026-04-25T07:17:25.034Z</time></trkpt><trkpt lat="43.5143289" lon="12.9668162"><ele>231.0</ele><time>2026-04-25T07:17:26.032Z</time></trkpt><trkpt lat="43.5142416" lon="12.9668898"><ele>230.33333333333334</ele><time>2026-04-25T07:17:27.032Z</time></trkpt><trkpt lat="43.5141555" lon="12.9669585"><ele>229.66666666666669</ele><time>2026-04-25T07:17:28.032Z</time></trkpt><trkpt lat="43.5140776" lon="12.9670197"><ele>229.0</ele><time>2026-04-25T07:17:29.034Z</time></trkpt><trkpt lat="43.5140073" lon="12.9670774"><ele>228.33333333333334</ele><time>2026-04-25T07:17:30.032Z</time></trkpt><trkpt lat="43.5139438" lon="12.9671345"><ele>227.66666666666669</ele><time>2026-04-25T07:17:31.033Z</time></trkpt><trkpt lat="43.5138782" lon="12.9671882"><ele>227.0</ele><time>2026-04-25T07:17:32.034Z</time></trkpt><trkpt lat="43.5138174" lon="12.9672453"><ele>227.00000000000003</ele><time>2026-04-25T07:17:33.032Z</time></trkpt><trkpt lat="43.5137553" lon="12.9673144"><ele>227.0</ele><time>2026-04-25T07:17:34.032Z</time></trkpt><trkpt lat="43.5137038" lon="12.9673771"><ele>227.0</ele><time>2026-04-25T07:17:35.032Z</time></trkpt><trkpt lat="43.5136466" lon="12.9674485"><ele>227.0</ele><time>2026-04-25T07:17:36.033Z</time></trkpt><trkpt lat="43.5135881" lon="12.9675381"><ele>227.00000000000003</ele><time>2026-04-25T07:17:37.032Z</time></trkpt><trkpt lat="43.5135316" lon="12.9676357"><ele>227.0</ele><time>2026-04-25T07:17:38.033Z</time></trkpt><trkpt lat="43.5134831" lon="12.9677313"><ele>225.6</ele><time>2026-04-25T07:17:39.033Z</time></trkpt><trkpt lat="43.513441" lon="12.9678327"><ele>224.2</ele><time>2026-04-25T07:17:40.033Z</time></trkpt><trkpt lat="43.5134084" lon="12.9679494"><ele>222.8</ele><time>2026-04-25T07:17:41.032Z</time></trkpt><trkpt lat="43.5133819" lon="12.9680865"><ele>221.4</ele><time>2026-04-25T07:17:42.032Z</time></trkpt><trkpt lat="43.5133665" lon="12.968225"><ele>220.0</ele><time>2026-04-25T07:17:43.032Z</time></trkpt><trkpt lat="43.5133555" lon="12.9683882"><ele>219.2</ele><time>2026-04-25T07:17:44.034Z</time></trkpt><trkpt lat="43.5133539" lon="12.9685477"><ele>218.4</ele><time>2026-04-25T07:17:45.033Z</time></trkpt><trkpt lat="43.5133527" lon="12.9686814"><ele>217.60000000000002</ele><time>2026-04-25T07:17:46.033Z</time></trkpt><trkpt lat="43.5133601" lon="12.9687991"><ele>216.8</ele><time>2026-04-25T07:17:47.032Z</time></trkpt><trkpt lat="43.5133683" lon="12.9689134"><ele>216.0</ele><time>2026-04-25T07:17:48.034Z</time></trkpt><trkpt lat="43.5133919" lon="12.9690355"><ele>216.0</ele><time>2026-04-25T07:17:49.033Z</time></trkpt><trkpt lat="43.5134149" lon="12.9691611"><ele>216.0</ele><time>2026-04-25T07:17:50.033Z</time></trkpt><trkpt lat="43.5134216" lon="12.9692935"><ele>216.0</ele><time>2026-04-25T07:17:51.033Z</time></trkpt><trkpt lat="43.5134214" lon="12.9694095"><ele>216.0</ele><time>2026-04-25T07:17:52.033Z</time></trkpt><trkpt lat="43.5134372" lon="12.9695104"><ele>216.0</ele><time>2026-04-25T07:17:53.033Z</time></trkpt><trkpt lat="43.5134737" lon="12.969612"><ele>216.0</ele><time>2026-04-25T07:17:54.032Z</time></trkpt><trkpt lat="43.5135341" lon="12.9697198"><ele>214.60000000000002</ele><time>2026-04-25T07:17:55.034Z</time></trkpt><trkpt lat="43.5136038" lon="12.9698261"><ele>213.20000000000002</ele><time>2026-04-25T07:17:56.033Z</time></trkpt><trkpt lat="43.5136546" lon="12.9699316"><ele>211.8</ele><time>2026-04-25T07:17:57.033Z</time></trkpt><trkpt lat="43.5136846" lon="12.9700454"><ele>210.39999999999998</ele><time>2026-04-25T07:17:58.032Z</time></trkpt><trkpt lat="43.5136987" lon="12.9701621"><ele>209.0</ele><time>2026-04-25T07:17:59.033Z</time></trkpt><trkpt lat="43.5137192" lon="12.9702782"><ele>209.00000000000003</ele><time>2026-04-25T07:18:00.033Z</time></trkpt><trkpt lat="43.5137454" lon="12.9704037"><ele>209.0</ele><time>2026-04-25T07:18:01.032Z</time></trkpt><trkpt lat="43.5137695" lon="12.9705141"><ele>209.0</ele><time>2026-04-25T07:18:02.032Z</time></trkpt><trkpt lat="43.5137781" lon="12.9706116"><ele>209.0</ele><time>2026-04-25T07:18:03.034Z</time></trkpt><trkpt lat="43.5137644" lon="12.970707"><ele>209.00000000000003</ele><time>2026-04-25T07:18:04.033Z</time></trkpt><trkpt lat="43.5137307" lon="12.9708156"><ele>209.0</ele><time>2026-04-25T07:18:05.032Z</time></trkpt><trkpt lat="43.5137004" lon="12.9709031"><ele>209.79999999999998</ele><time>2026-04-25T07:18:06.032Z</time></trkpt><trkpt lat="43.5136617" lon="12.9709816"><ele>210.6</ele><time>2026-04-25T07:18:07.032Z</time></trkpt><trkpt lat="43.5135498" lon="12.9710364"><ele>211.4</ele><time>2026-04-25T07:18:09.032Z</time></trkpt><trkpt lat="43.5134548" lon="12.9710078"><ele>212.2</ele><time>2026-04-25T07:18:10.032Z</time></trkpt><trkpt lat="43.5133575" lon="12.9709657"><ele>213.0</ele><time>2026-04-25T07:18:11.032Z</time></trkpt><trkpt lat="43.5132843" lon="12.9709281"><ele>213.0</ele><time>2026-04-25T07:18:12.033Z</time></trkpt><trkpt lat="43.5131988" lon="12.9708717"><ele>213.0</ele><time>2026-04-25T07:18:14.034Z</time></trkpt><trkpt lat="43.5131861" lon="12.9707373"><ele>213.0</ele><time>2026-04-25T07:18:16.032Z</time></trkpt><trkpt lat="43.5132088" lon="12.9706461"><ele>213.0</ele><time>2026-04-25T07:18:17.032Z</time></trkpt><trkpt lat="43.5132409" lon="12.9705452"><ele>213.0</ele><time>2026-04-25T07:18:18.033Z</time></trkpt><trkpt lat="43.5132595" lon="12.9704457"><ele>213.0</ele><time>2026-04-25T07:18:19.033Z</time></trkpt><trkpt lat="43.5132628" lon="12.9703521"><ele>212.2</ele><time>2026-04-25T07:18:20.032Z</time></trkpt><trkpt lat="43.5132507" lon="12.9702386"><ele>211.4</ele><time>2026-04-25T07:18:21.033Z</time></trkpt><trkpt lat="43.5132288" lon="12.9700874"><ele>210.6</ele><time>2026-04-25T07:18:22.033Z</time></trkpt><trkpt lat="43.5132034" lon="12.9699689"><ele>209.79999999999998</ele><time>2026-04-25T07:18:23.032Z</time></trkpt><trkpt lat="43.5131682" lon="12.9698718"><ele>209.0</ele><time>2026-04-25T07:18:24.034Z</time></trkpt><trkpt lat="43.5131132" lon="12.9697697"><ele>209.00000000000003</ele><time>2026-04-25T07:18:25.032Z</time></trkpt><trkpt lat="43.5130601" lon="12.9696635"><ele>209.0</ele><time>2026-04-25T07:18:26.033Z</time></trkpt><trkpt lat="43.5130227" lon="12.9695473"><ele>209.0</ele><time>2026-04-25T07:18:27.034Z</time></trkpt><trkpt lat="43.5130218" lon="12.9694533"><ele>209.0</ele><time>2026-04-25T07:18:28.032Z</time></trkpt><trkpt lat="43.5130471" lon="12.9693589"><ele>209.00000000000003</ele><time>2026-04-25T07:18:29.033Z</time></trkpt><trkpt lat="43.5130671" lon="12.9692102"><ele>209.0</ele><time>2026-04-25T07:18:31.032Z</time></trkpt><trkpt lat="43.513043" lon="12.9691231"><ele>209.83333333333334</ele><time>2026-04-25T07:18:33.032Z</time></trkpt><trkpt lat="43.5129652" lon="12.9691152"><ele>210.66666666666669</ele><time>2026-04-25T07:18:35.032Z</time></trkpt><trkpt lat="43.5129054" lon="12.9691526"><ele>211.5</ele><time>2026-04-25T07:18:36.034Z</time></trkpt><trkpt lat="43.5128287" lon="12.9692095"><ele>212.33333333333331</ele><time>2026-04-25T07:18:37.033Z</time></trkpt><trkpt lat="43.5127358" lon="12.9692651"><ele>213.16666666666666</ele><time>2026-04-25T07:18:38.032Z</time></trkpt><trkpt lat="43.5126423" lon="12.9693178"><ele>214.0</ele><time>2026-04-25T07:18:39.032Z</time></trkpt><trkpt lat="43.5125326" lon="12.9693671"><ele>214.0</ele><time>2026-04-25T07:18:40.033Z</time></trkpt><trkpt lat="43.512411" lon="12.9694074"><ele>214.0</ele><time>2026-04-25T07:18:41.033Z</time></trkpt><trkpt lat="43.5123047" lon="12.9694369"><ele>214.0</ele><time>2026-04-25T07:18:42.032Z</time></trkpt><trkpt lat="43.5122049" lon="12.9694448"><ele>214.0</ele><time>2026-04-25T07:18:43.033Z</time></trkpt><trkpt lat="43.5120813" lon="12.9694493"><ele>214.25</ele><time>2026-04-25T07:18:44.033Z</time></trkpt><trkpt lat="43.5119512" lon="12.9694401"><ele>214.5</ele><time>2026-04-25T07:18:45.032Z</time></trkpt><trkpt lat="43.5118076" lon="12.9694251"><ele>214.75</ele><time>2026-04-25T07:18:46.032Z</time></trkpt><trkpt lat="43.5116824" lon="12.9694058"><ele>215.0</ele><time>2026-04-25T07:18:47.032Z</time></trkpt><trkpt lat="43.5115689" lon="12.9693866"><ele>215.0</ele><time>2026-04-25T07:18:48.033Z</time></trkpt><trkpt lat="43.5114651" lon="12.9693623"><ele>215.0</ele><time>2026-04-25T07:18:49.032Z</time></trkpt><trkpt lat="43.5113772" lon="12.9693268"><ele>215.0</ele><time>2026-04-25T07:18:50.033Z</time></trkpt><trkpt lat="43.5112825" lon="12.9692781"><ele>215.0</ele><time>2026-04-25T07:18:51.032Z</time></trkpt><trkpt lat="43.5111884" lon="12.9692346"><ele>215.0</ele><time>2026-04-25T07:18:52.033Z</time></trkpt><trkpt lat="43.5110769" lon="12.9691876"><ele>216.0</ele><time>2026-04-25T07:18:53.033Z</time></trkpt><trkpt lat="43.510996" lon="12.9691524"><ele>217.0</ele><time>2026-04-25T07:18:54.033Z</time></trkpt><trkpt lat="43.51092" lon="12.9691134"><ele>218.0</ele><time>2026-04-25T07:18:55.032Z</time></trkpt><trkpt lat="43.5108287" lon="12.9690493"><ele>219.0</ele><time>2026-04-25T07:18:56.032Z</time></trkpt><trkpt lat="43.5107338" lon="12.9689741"><ele>220.0</ele><time>2026-04-25T07:18:57.033Z</time></trkpt><trkpt lat="43.5106272" lon="12.9688805"><ele>220.0</ele><time>2026-04-25T07:18:58.033Z</time></trkpt><trkpt lat="43.5105386" lon="12.9687917"><ele>220.0</ele><time>2026-04-25T07:18:59.032Z</time></trkpt><trkpt lat="43.510451" lon="12.9686955"><ele>220.0</ele><time>2026-04-25T07:19:00.032Z</time></trkpt><trkpt lat="43.5103479" lon="12.9685756"><ele>220.0</ele><time>2026-04-25T07:19:01.033Z</time></trkpt><trkpt lat="43.5102691" lon="12.9684761"><ele>220.0</ele><time>2026-04-25T07:19:02.033Z</time></trkpt><trkpt lat="43.510204" lon="12.9684095"><ele>220.0</ele><time>2026-04-25T07:19:03.033Z</time></trkpt><trkpt lat="43.5101359" lon="12.9683714"><ele>220.0</ele><time>2026-04-25T07:19:04.032Z</time></trkpt><trkpt lat="43.5100545" lon="12.9683583"><ele>220.0</ele><time>2026-04-25T07:19:05.032Z</time></trkpt><trkpt lat="43.5099466" lon="12.9683517"><ele>220.0</ele><time>2026-04-25T07:19:06.033Z</time></trkpt><trkpt lat="43.5098196" lon="12.9683408"><ele>221.25</ele><time>2026-04-25T07:19:07.034Z</time></trkpt><trkpt lat="43.5096916" lon="12.9683068"><ele>222.5</ele><time>2026-04-25T07:19:08.033Z</time></trkpt><trkpt lat="43.5095383" lon="12.9682534"><ele>223.75</ele><time>2026-04-25T07:19:09.032Z</time></trkpt><trkpt lat="43.5093989" lon="12.9682021"><ele>225.0</ele><time>2026-04-25T07:19:10.032Z</time></trkpt><trkpt lat="43.5092889" lon="12.9681599"><ele>225.0</ele><time>2026-04-25T07:19:11.033Z</time></trkpt><trkpt lat="43.5091828" lon="12.9681093"><ele>225.0</ele><time>2026-04-25T07:19:12.033Z</time></trkpt><trkpt lat="43.5090805" lon="12.9680364"><ele>225.0</ele><time>2026-04-25T07:19:13.032Z</time></trkpt><trkpt lat="43.5089969" lon="12.9679447"><ele>225.0</ele><time>2026-04-25T07:19:14.032Z</time></trkpt><trkpt lat="43.5089134" lon="12.9678464"><ele>225.0</ele><time>2026-04-25T07:19:15.032Z</time></trkpt><trkpt lat="43.5088434" lon="12.9677807"><ele>225.0</ele><time>2026-04-25T07:19:16.032Z</time></trkpt><trkpt lat="43.50875" lon="12.9677239"><ele>225.0</ele><time>2026-04-25T07:19:17.032Z</time></trkpt><trkpt lat="43.5086223" lon="12.9676683"><ele>225.0</ele><time>2026-04-25T07:19:18.032Z</time></trkpt><trkpt lat="43.508502" lon="12.9676075"><ele>225.0</ele><time>2026-04-25T07:19:19.033Z</time></trkpt><trkpt lat="43.5083783" lon="12.9675467"><ele>225.5</ele><time>2026-04-25T07:19:20.032Z</time></trkpt><trkpt lat="43.5082491" lon="12.9674785"><ele>226.0</ele><time>2026-04-25T07:19:21.032Z</time></trkpt><trkpt lat="43.5081349" lon="12.9674179"><ele>226.5</ele><time>2026-04-25T07:19:22.032Z</time></trkpt><trkpt lat="43.5080315" lon="12.9673451"><ele>227.0</ele><time>2026-04-25T07:19:23.033Z</time></trkpt><trkpt lat="43.5079262" lon="12.9672563"><ele>226.75</ele><time>2026-04-25T07:19:24.032Z</time></trkpt><trkpt lat="43.5078113" lon="12.9671469"><ele>226.5</ele><time>2026-04-25T07:19:25.033Z</time></trkpt><trkpt lat="43.5077013" lon="12.9670462"><ele>226.25</ele><time>2026-04-25T07:19:26.033Z</time></trkpt><trkpt lat="43.5075896" lon="12.9669517"><ele>226.0</ele><time>2026-04-25T07:19:27.032Z</time></trkpt><trkpt lat="43.5074719" lon="12.9668537"><ele>226.0</ele><time>2026-04-25T07:19:28.032Z</time></trkpt><trkpt lat="43.507371" lon="12.9667663"><ele>226.00000000000003</ele><time>2026-04-25T07:19:29.032Z</time></trkpt><trkpt lat="43.5072841" lon="12.9666744"><ele>226.00000000000003</ele><time>2026-04-25T07:19:30.033Z</time></trkpt><trkpt lat="43.5072067" lon="12.9665792"><ele>226.0</ele><time>2026-04-25T07:19:31.032Z</time></trkpt><trkpt lat="43.5071411" lon="12.9665208"><ele>226.0</ele><time>2026-04-25T07:19:32.032Z</time></trkpt><trkpt lat="43.5070754" lon="12.9664969"><ele>226.99999999999997</ele><time>2026-04-25T07:19:33.032Z</time></trkpt><trkpt lat="43.507009" lon="12.9665113"><ele>228.0</ele><time>2026-04-25T07:19:34.032Z</time></trkpt><trkpt lat="43.5069266" lon="12.9665646"><ele>229.0</ele><time>2026-04-25T07:19:35.032Z</time></trkpt><trkpt lat="43.5068403" lon="12.9666061"><ele>230.0</ele><time>2026-04-25T07:19:36.032Z</time></trkpt><trkpt lat="43.5067526" lon="12.9666292"><ele>230.99999999999997</ele><time>2026-04-25T07:19:37.032Z</time></trkpt><trkpt lat="43.5066432" lon="12.9666274"><ele>232.0</ele><time>2026-04-25T07:19:38.032Z</time></trkpt><trkpt lat="43.5065405" lon="12.9666139"><ele>231.99999999999997</ele><time>2026-04-25T07:19:39.033Z</time></trkpt><trkpt lat="43.506464" lon="12.9666051"><ele>232.0</ele><time>2026-04-25T07:19:40.033Z</time></trkpt><trkpt lat="43.5064003" lon="12.9665869"><ele>232.0</ele><time>2026-04-25T07:19:41.033Z</time></trkpt><trkpt lat="43.5063286" lon="12.9665403"><ele>232.0</ele><time>2026-04-25T07:19:42.033Z</time></trkpt><trkpt lat="43.5062543" lon="12.9665027"><ele>231.99999999999997</ele><time>2026-04-25T07:19:43.032Z</time></trkpt><trkpt lat="43.5061776" lon="12.9664689"><ele>232.0</ele><time>2026-04-25T07:19:44.032Z</time></trkpt><trkpt lat="43.5060992" lon="12.9664508"><ele>231.8</ele><time>2026-04-25T07:19:45.032Z</time></trkpt><trkpt lat="43.5060144" lon="12.9664326"><ele>231.6</ele><time>2026-04-25T07:19:46.032Z</time></trkpt><trkpt lat="43.5059301" lon="12.966423"><ele>231.40000000000003</ele><time>2026-04-25T07:19:47.033Z</time></trkpt><trkpt lat="43.5058469" lon="12.9664079"><ele>231.20000000000002</ele><time>2026-04-25T07:19:48.033Z</time></trkpt><trkpt lat="43.5057483" lon="12.966389"><ele>231.0</ele><time>2026-04-25T07:19:49.032Z</time></trkpt><trkpt lat="43.505625" lon="12.9663577"><ele>231.0</ele><time>2026-04-25T07:19:50.033Z</time></trkpt><trkpt lat="43.5055191" lon="12.9663398"><ele>231.00000000000003</ele><time>2026-04-25T07:19:51.032Z</time></trkpt><trkpt lat="43.5054269" lon="12.9663447"><ele>231.00000000000003</ele><time>2026-04-25T07:19:52.034Z</time></trkpt><trkpt lat="43.5053481" lon="12.9663845"><ele>231.0</ele><time>2026-04-25T07:19:53.032Z</time></trkpt><trkpt lat="43.505277" lon="12.9664682"><ele>231.0</ele><time>2026-04-25T07:19:54.033Z</time></trkpt><trkpt lat="43.5052081" lon="12.9665988"><ele>231.20000000000002</ele><time>2026-04-25T07:19:55.033Z</time></trkpt><trkpt lat="43.5051548" lon="12.9667019"><ele>231.40000000000003</ele><time>2026-04-25T07:19:56.033Z</time></trkpt><trkpt lat="43.505105" lon="12.9667645"><ele>231.6</ele><time>2026-04-25T07:19:57.033Z</time></trkpt><trkpt lat="43.5050116" lon="12.9667693"><ele>231.8</ele><time>2026-04-25T07:19:59.033Z</time></trkpt><trkpt lat="43.5049189" lon="12.9667273"><ele>232.0</ele><time>2026-04-25T07:20:00.033Z</time></trkpt><trkpt lat="43.5047994" lon="12.9666611"><ele>232.0</ele><time>2026-04-25T07:20:01.033Z</time></trkpt><trkpt lat="43.5046448" lon="12.9665808"><ele>232.0</ele><time>2026-04-25T07:20:02.032Z</time></trkpt><trkpt lat="43.5044959" lon="12.9665007"><ele>232.0</ele><time>2026-04-25T07:20:03.032Z</time></trkpt><trkpt lat="43.5043451" lon="12.9664169"><ele>232.0</ele><time>2026-04-25T07:20:04.032Z</time></trkpt><trkpt lat="43.5041791" lon="12.9663199"><ele>232.0</ele><time>2026-04-25T07:20:05.032Z</time></trkpt><trkpt lat="43.5040308" lon="12.9662439"><ele>232.0</ele><time>2026-04-25T07:20:06.032Z</time></trkpt><trkpt lat="43.5038861" lon="12.9661652"><ele>233.66666666666666</ele><time>2026-04-25T07:20:07.032Z</time></trkpt><trkpt lat="43.5037356" lon="12.966088"><ele>235.33333333333331</ele><time>2026-04-25T07:20:08.033Z</time></trkpt><trkpt lat="43.503592" lon="12.9660184"><ele>237.0</ele><time>2026-04-25T07:20:09.033Z</time></trkpt><trkpt lat="43.5034312" lon="12.9659505"><ele>237.0</ele><time>2026-04-25T07:20:10.033Z</time></trkpt><trkpt lat="43.5032478" lon="12.965872"><ele>237.0</ele><time>2026-04-25T07:20:11.032Z</time></trkpt><trkpt lat="43.5030862" lon="12.9657992"><ele>237.0</ele><time>2026-04-25T07:20:12.032Z</time></trkpt><trkpt lat="43.502943" lon="12.9657377"><ele>237.0</ele><time>2026-04-25T07:20:13.033Z</time></trkpt><trkpt lat="43.5027949" lon="12.9656723"><ele>237.0</ele><time>2026-04-25T07:20:14.033Z</time></trkpt><trkpt lat="43.502651" lon="12.9656076"><ele>237.0</ele><time>2026-04-25T07:20:15.032Z</time></trkpt><trkpt lat="43.5025121" lon="12.96557"><ele>237.0</ele><time>2026-04-25T07:20:16.034Z</time></trkpt><trkpt lat="43.5023825" lon="12.965522"><ele>237.0</ele><time>2026-04-25T07:20:17.033Z</time></trkpt><trkpt lat="43.5022445" lon="12.9654851"><ele>237.0</ele><time>2026-04-25T07:20:18.033Z</time></trkpt><trkpt lat="43.5020997" lon="12.9654648"><ele>237.0</ele><time>2026-04-25T07:20:19.033Z</time></trkpt><trkpt lat="43.5019537" lon="12.9654571"><ele>237.0</ele><time>2026-04-25T07:20:20.032Z</time></trkpt><trkpt lat="43.5018213" lon="12.9654538"><ele>237.33333333333334</ele><time>2026-04-25T07:20:21.032Z</time></trkpt><trkpt lat="43.5017057" lon="12.9654467"><ele>237.66666666666669</ele><time>2026-04-25T07:20:22.033Z</time></trkpt><trkpt lat="43.5016165" lon="12.9654226"><ele>238.0</ele><time>2026-04-25T07:20:23.032Z</time></trkpt><trkpt lat="43.5015539" lon="12.9653798"><ele>238.33333333333334</ele><time>2026-04-25T07:20:24.032Z</time></trkpt><trkpt lat="43.5015053" lon="12.9652996"><ele>238.66666666666669</ele><time>2026-04-25T07:20:25.033Z</time></trkpt><trkpt lat="43.501475" lon="12.965191"><ele>239.0</ele><time>2026-04-25T07:20:26.032Z</time></trkpt><trkpt lat="43.5014581" lon="12.9650494"><ele>238.5</ele><time>2026-04-25T07:20:27.033Z</time></trkpt><trkpt lat="43.5014367" lon="12.964866"><ele>238.0</ele><time>2026-04-25T07:20:28.032Z</time></trkpt><trkpt lat="43.501406" lon="12.9646897"><ele>237.5</ele><time>2026-04-25T07:20:29.034Z</time></trkpt><trkpt lat="43.5013646" lon="12.9645358"><ele>237.0</ele><time>2026-04-25T07:20:30.032Z</time></trkpt><trkpt lat="43.5013033" lon="12.9643907"><ele>236.75</ele><time>2026-04-25T07:20:31.034Z</time></trkpt><trkpt lat="43.5012236" lon="12.9642578"><ele>236.5</ele><time>2026-04-25T07:20:32.032Z</time></trkpt><trkpt lat="43.5011412" lon="12.9641617"><ele>236.25</ele><time>2026-04-25T07:20:33.033Z</time></trkpt><trkpt lat="43.5010309" lon="12.9640649"><ele>236.0</ele><time>2026-04-25T07:20:34.032Z</time></trkpt><trkpt lat="43.5009391" lon="12.9639955"><ele>238.20000000000002</ele><time>2026-04-25T07:20:35.032Z</time></trkpt><trkpt lat="43.5008505" lon="12.9639467"><ele>240.40000000000003</ele><time>2026-04-25T07:20:36.032Z</time></trkpt><trkpt lat="43.5007729" lon="12.9638907"><ele>242.6</ele><time>2026-04-25T07:20:37.033Z</time></trkpt><trkpt lat="43.5007013" lon="12.9638068"><ele>244.8</ele><time>2026-04-25T07:20:38.033Z</time></trkpt><trkpt lat="43.5006323" lon="12.9636886"><ele>247.0</ele><time>2026-04-25T07:20:39.033Z</time></trkpt><trkpt lat="43.5005751" lon="12.9635664"><ele>247.0</ele><time>2026-04-25T07:20:40.033Z</time></trkpt><trkpt lat="43.5005091" lon="12.9634367"><ele>247.0</ele><time>2026-04-25T07:20:41.032Z</time></trkpt><trkpt lat="43.500455" lon="12.9633243"><ele>247.0</ele><time>2026-04-25T07:20:42.032Z</time></trkpt><trkpt lat="43.5003994" lon="12.9631952"><ele>247.0</ele><time>2026-04-25T07:20:43.032Z</time></trkpt><trkpt lat="43.5003496" lon="12.9630733"><ele>247.0</ele><time>2026-04-25T07:20:44.033Z</time></trkpt><trkpt lat="43.5003144" lon="12.9629598"><ele>248.2</ele><time>2026-04-25T07:20:45.032Z</time></trkpt><trkpt lat="43.5002827" lon="12.9628363"><ele>249.39999999999998</ele><time>2026-04-25T07:20:46.033Z</time></trkpt><trkpt lat="43.5002526" lon="12.9627012"><ele>250.60000000000002</ele><time>2026-04-25T07:20:47.033Z</time></trkpt><trkpt lat="43.5002345" lon="12.9625688"><ele>251.8</ele><time>2026-04-25T07:20:48.032Z</time></trkpt><trkpt lat="43.50022" lon="12.9624149"><ele>253.0</ele><time>2026-04-25T07:20:49.032Z</time></trkpt><trkpt lat="43.5002017" lon="12.9622673"><ele>253.60000000000002</ele><time>2026-04-25T07:20:50.032Z</time></trkpt><trkpt lat="43.5001827" lon="12.9621358"><ele>254.20000000000002</ele><time>2026-04-25T07:20:51.032Z</time></trkpt><trkpt lat="43.5001593" lon="12.9620126"><ele>254.8</ele><time>2026-04-25T07:20:52.032Z</time></trkpt><trkpt lat="43.5001339" lon="12.9618913"><ele>255.4</ele><time>2026-04-25T07:20:53.033Z</time></trkpt><trkpt lat="43.5001072" lon="12.9617705"><ele>256.0</ele><time>2026-04-25T07:20:54.032Z</time></trkpt><trkpt lat="43.500085" lon="12.9616504"><ele>257.0</ele><time>2026-04-25T07:20:55.032Z</time></trkpt><trkpt lat="43.5000665" lon="12.961556"><ele>258.0</ele><time>2026-04-25T07:20:56.033Z</time></trkpt><trkpt lat="43.5000588" lon="12.9614648"><ele>259.0</ele><time>2026-04-25T07:20:58.033Z</time></trkpt><trkpt lat="43.5000148" lon="12.9613949"><ele>260.0</ele><time>2026-04-25T07:21:00.032Z</time></trkpt><trkpt lat="43.4998721" lon="12.9614191"><ele>261.0</ele><time>2026-04-25T07:21:02.033Z</time></trkpt><trkpt lat="43.4997829" lon="12.9614784"><ele>262.0</ele><time>2026-04-25T07:21:03.033Z</time></trkpt><trkpt lat="43.4997251" lon="12.9615571"><ele>262.0</ele><time>2026-04-25T07:21:04.032Z</time></trkpt><trkpt lat="43.499697" lon="12.961657"><ele>262.0</ele><time>2026-04-25T07:21:05.033Z</time></trkpt><trkpt lat="43.4996858" lon="12.9617929"><ele>262.0</ele><time>2026-04-25T07:21:06.032Z</time></trkpt><trkpt lat="43.4996963" lon="12.9619639"><ele>262.0</ele><time>2026-04-25T07:21:07.032Z</time></trkpt><trkpt lat="43.4996922" lon="12.9620894"><ele>262.0</ele><time>2026-04-25T07:21:08.033Z</time></trkpt><trkpt lat="43.4996529" lon="12.9622099"><ele>261.75</ele><time>2026-04-25T07:21:09.033Z</time></trkpt><trkpt lat="43.4995886" lon="12.9623157"><ele>261.5</ele><time>2026-04-25T07:21:10.033Z</time></trkpt><trkpt lat="43.4994813" lon="12.9624275"><ele>261.25</ele><time>2026-04-25T07:21:11.033Z</time></trkpt><trkpt lat="43.499325" lon="12.9625759"><ele>261.0</ele><time>2026-04-25T07:21:12.032Z</time></trkpt><trkpt lat="43.4991407" lon="12.9627407"><ele>256.6666666666667</ele><time>2026-04-25T07:21:13.033Z</time></trkpt><trkpt lat="43.4989528" lon="12.9629069"><ele>252.33333333333334</ele><time>2026-04-25T07:21:14.032Z</time></trkpt><trkpt lat="43.4987853" lon="12.9630546"><ele>248.0</ele><time>2026-04-25T07:21:15.032Z</time></trkpt><trkpt lat="43.4986279" lon="12.9631903"><ele>247.0</ele><time>2026-04-25T07:21:16.032Z</time></trkpt><trkpt lat="43.4984786" lon="12.9633205"><ele>246.0</ele><time>2026-04-25T07:21:17.032Z</time></trkpt><trkpt lat="43.4983445" lon="12.9634372"><ele>245.0</ele><time>2026-04-25T07:21:18.034Z</time></trkpt><trkpt lat="43.4982196" lon="12.9635412"><ele>247.75</ele><time>2026-04-25T07:21:19.033Z</time></trkpt><trkpt lat="43.4981128" lon="12.9636194"><ele>250.5</ele><time>2026-04-25T07:21:20.034Z</time></trkpt><trkpt lat="43.4980066" lon="12.96366"><ele>253.25</ele><time>2026-04-25T07:21:21.033Z</time></trkpt><trkpt lat="43.4978967" lon="12.9636517"><ele>256.0</ele><time>2026-04-25T07:21:22.032Z</time></trkpt><trkpt lat="43.497788" lon="12.9635855"><ele>257.0</ele><time>2026-04-25T07:21:23.033Z</time></trkpt><trkpt lat="43.4976519" lon="12.9634685"><ele>258.0</ele><time>2026-04-25T07:21:24.033Z</time></trkpt><trkpt lat="43.4975038" lon="12.9633149"><ele>259.0</ele><time>2026-04-25T07:21:25.032Z</time></trkpt><trkpt lat="43.4973927" lon="12.9631606"><ele>259.0</ele><time>2026-04-25T07:21:26.032Z</time></trkpt><trkpt lat="43.497295" lon="12.9630197"><ele>259.0</ele><time>2026-04-25T07:21:27.032Z</time></trkpt><trkpt lat="43.4972233" lon="12.9629177"><ele>259.0</ele><time>2026-04-25T07:21:28.033Z</time></trkpt><trkpt lat="43.4971601" lon="12.9628373"><ele>259.0</ele><time>2026-04-25T07:21:29.033Z</time></trkpt><trkpt lat="43.4970471" lon="12.9627841"><ele>265.4</ele><time>2026-04-25T07:21:31.032Z</time></trkpt><trkpt lat="43.4969831" lon="12.9627998"><ele>271.79999999999995</ele><time>2026-04-25T07:21:32.033Z</time></trkpt><trkpt lat="43.4968812" lon="12.9627928"><ele>278.20000000000005</ele><time>2026-04-25T07:21:34.032Z</time></trkpt><trkpt lat="43.4968113" lon="12.9627286"><ele>284.6</ele><time>2026-04-25T07:21:35.032Z</time></trkpt><trkpt lat="43.4967238" lon="12.9626535"><ele>291.0</ele><time>2026-04-25T07:21:36.032Z</time></trkpt><trkpt lat="43.4966125" lon="12.962555"><ele>288.6666666666667</ele><time>2026-04-25T07:21:37.032Z</time></trkpt><trkpt lat="43.4964789" lon="12.9624132"><ele>286.33333333333337</ele><time>2026-04-25T07:21:38.032Z</time></trkpt><trkpt lat="43.4963367" lon="12.9622596"><ele>284.0</ele><time>2026-04-25T07:21:39.033Z</time></trkpt><trkpt lat="43.4962188" lon="12.9621416"><ele>284.0</ele><time>2026-04-25T07:21:40.032Z</time></trkpt><trkpt lat="43.49609" lon="12.962029"><ele>284.0</ele><time>2026-04-25T07:21:41.032Z</time></trkpt><trkpt lat="43.4959504" lon="12.9619089"><ele>284.0</ele><time>2026-04-25T07:21:42.032Z</time></trkpt><trkpt lat="43.4958324" lon="12.9618059"><ele>284.0</ele><time>2026-04-25T07:21:43.032Z</time></trkpt><trkpt lat="43.4957193" lon="12.9617153"><ele>284.0</ele><time>2026-04-25T07:21:44.032Z</time></trkpt><trkpt lat="43.4956026" lon="12.9616294"><ele>284.0</ele><time>2026-04-25T07:21:45.032Z</time></trkpt><trkpt lat="43.4954789" lon="12.9615497"><ele>284.0</ele><time>2026-04-25T07:21:46.033Z</time></trkpt><trkpt lat="43.4953658" lon="12.9614846"><ele>281.5</ele><time>2026-04-25T07:21:47.033Z</time></trkpt><trkpt lat="43.4952615" lon="12.9614263"><ele>279.0</ele><time>2026-04-25T07:21:48.033Z</time></trkpt><trkpt lat="43.4951552" lon="12.9613674"><ele>276.5</ele><time>2026-04-25T07:21:49.032Z</time></trkpt><trkpt lat="43.4950542" lon="12.9613052"><ele>274.0</ele><time>2026-04-25T07:21:50.033Z</time></trkpt><trkpt lat="43.4949519" lon="12.9612318"><ele>274.0</ele><time>2026-04-25T07:21:51.034Z</time></trkpt><trkpt lat="43.4948558" lon="12.9611535"><ele>274.0</ele><time>2026-04-25T07:21:52.033Z</time></trkpt><trkpt lat="43.4947711" lon="12.9610738"><ele>274.0</ele><time>2026-04-25T07:21:53.033Z</time></trkpt><trkpt lat="43.4946972" lon="12.961005"><ele>274.0</ele><time>2026-04-25T07:21:54.032Z</time></trkpt><trkpt lat="43.4946222" lon="12.96096"><ele>274.0</ele><time>2026-04-25T07:21:55.032Z</time></trkpt><trkpt lat="43.4945271" lon="12.9609403"><ele>276.2</ele><time>2026-04-25T07:21:56.032Z</time></trkpt><trkpt lat="43.4944287" lon="12.9609414"><ele>278.4</ele><time>2026-04-25T07:21:57.032Z</time></trkpt><trkpt lat="43.4943163" lon="12.9609529"><ele>280.6</ele><time>2026-04-25T07:21:58.032Z</time></trkpt><trkpt lat="43.4942195" lon="12.9609529"><ele>282.8</ele><time>2026-04-25T07:21:59.032Z</time></trkpt><trkpt lat="43.4941195" lon="12.9608988"><ele>285.0</ele><time>2026-04-25T07:22:00.032Z</time></trkpt><trkpt lat="43.4940183" lon="12.9608296"><ele>280.4</ele><time>2026-04-25T07:22:01.032Z</time></trkpt><trkpt lat="43.4939288" lon="12.9607582"><ele>275.8</ele><time>2026-04-25T07:22:02.033Z</time></trkpt><trkpt lat="43.4938571" lon="12.9606837"><ele>271.2</ele><time>2026-04-25T07:22:03.033Z</time></trkpt><trkpt lat="43.4938059" lon="12.9605956"><ele>266.6</ele><time>2026-04-25T07:22:04.034Z</time></trkpt><trkpt lat="43.4937747" lon="12.9604825"><ele>262.0</ele><time>2026-04-25T07:22:05.032Z</time></trkpt><trkpt lat="43.4937711" lon="12.9603604"><ele>262.2</ele><time>2026-04-25T07:22:06.032Z</time></trkpt><trkpt lat="43.4937553" lon="12.9602399"><ele>262.4</ele><time>2026-04-25T07:22:07.033Z</time></trkpt><trkpt lat="43.4937232" lon="12.9601422"><ele>262.6</ele><time>2026-04-25T07:22:08.034Z</time></trkpt><trkpt lat="43.4936594" lon="12.9600149"><ele>262.8</ele><time>2026-04-25T07:22:09.032Z</time></trkpt><trkpt lat="43.4935907" lon="12.9598855"><ele>263.0</ele><time>2026-04-25T07:22:10.032Z</time></trkpt><trkpt lat="43.4935381" lon="12.9597884"><ele>263.0</ele><time>2026-04-25T07:22:11.034Z</time></trkpt><trkpt lat="43.4934766" lon="12.9596725"><ele>263.0</ele><time>2026-04-25T07:22:12.033Z</time></trkpt><trkpt lat="43.4933957" lon="12.9595309"><ele>263.0</ele><time>2026-04-25T07:22:13.032Z</time></trkpt><trkpt lat="43.493297" lon="12.9593738"><ele>263.0</ele><time>2026-04-25T07:22:14.034Z</time></trkpt><trkpt lat="43.4931824" lon="12.9591982"><ele>265.33333333333337</ele><time>2026-04-25T07:22:15.033Z</time></trkpt><trkpt lat="43.493055" lon="12.9590201"><ele>267.6666666666667</ele><time>2026-04-25T07:22:16.032Z</time></trkpt><trkpt lat="43.4929408" lon="12.9588853"><ele>270.0</ele><time>2026-04-25T07:22:17.033Z</time></trkpt><trkpt lat="43.4928209" lon="12.9587431"><ele>270.0</ele><time>2026-04-25T07:22:18.032Z</time></trkpt><trkpt lat="43.4927211" lon="12.9586297"><ele>270.0</ele><time>2026-04-25T07:22:19.032Z</time></trkpt><trkpt lat="43.4926362" lon="12.9585228"><ele>270.0</ele><time>2026-04-25T07:22:20.032Z</time></trkpt><trkpt lat="43.4925465" lon="12.9584029"><ele>270.0</ele><time>2026-04-25T07:22:21.033Z</time></trkpt><trkpt lat="43.4924286" lon="12.958269"><ele>273.5</ele><time>2026-04-25T07:22:22.033Z</time></trkpt><trkpt lat="43.4923225" lon="12.9581445"><ele>277.0</ele><time>2026-04-25T07:22:23.033Z</time></trkpt><trkpt lat="43.4922338" lon="12.9580309"><ele>280.5</ele><time>2026-04-25T07:22:24.034Z</time></trkpt><trkpt lat="43.4921606" lon="12.9579126"><ele>284.0</ele><time>2026-04-25T07:22:25.032Z</time></trkpt><trkpt lat="43.4920981" lon="12.9577686"><ele>282.5</ele><time>2026-04-25T07:22:26.032Z</time></trkpt><trkpt lat="43.4920257" lon="12.9575922"><ele>281.0</ele><time>2026-04-25T07:22:27.034Z</time></trkpt><trkpt lat="43.4919531" lon="12.9574142"><ele>279.5</ele><time>2026-04-25T07:22:28.033Z</time></trkpt><trkpt lat="43.4918814" lon="12.9572387"><ele>278.0</ele><time>2026-04-25T07:22:29.033Z</time></trkpt><trkpt lat="43.4918171" lon="12.9570828"><ele>278.0</ele><time>2026-04-25T07:22:30.032Z</time></trkpt><trkpt lat="43.491745" lon="12.9569176"><ele>278.0</ele><time>2026-04-25T07:22:31.032Z</time></trkpt><trkpt lat="43.4916677" lon="12.9567429"><ele>278.0</ele><time>2026-04-25T07:22:32.032Z</time></trkpt><trkpt lat="43.4915867" lon="12.9565584"><ele>278.0</ele><time>2026-04-25T07:22:33.032Z</time></trkpt><trkpt lat="43.4915029" lon="12.9563741"><ele>281.2</ele><time>2026-04-25T07:22:34.032Z</time></trkpt><trkpt lat="43.4914356" lon="12.9562253"><ele>284.4</ele><time>2026-04-25T07:22:35.034Z</time></trkpt><trkpt lat="43.4913863" lon="12.9561039"><ele>287.59999999999997</ele><time>2026-04-25T07:22:36.033Z</time></trkpt><trkpt lat="43.491361" lon="12.9559979"><ele>290.8</ele><time>2026-04-25T07:22:37.033Z</time></trkpt><trkpt lat="43.4913732" lon="12.9558292"><ele>294.0</ele><time>2026-04-25T07:22:39.033Z</time></trkpt><trkpt lat="43.4914113" lon="12.9557462"><ele>296.0</ele><time>2026-04-25T07:22:40.033Z</time></trkpt><trkpt lat="43.4914755" lon="12.9556786"><ele>298.0</ele><time>2026-04-25T07:22:41.032Z</time></trkpt><trkpt lat="43.4915412" lon="12.955615"><ele>300.0</ele><time>2026-04-25T07:22:42.032Z</time></trkpt><trkpt lat="43.4915614" lon="12.9555106"><ele>302.0</ele><time>2026-04-25T07:22:44.033Z</time></trkpt><trkpt lat="43.4914595" lon="12.9554362"><ele>304.0</ele><time>2026-04-25T07:22:46.034Z</time></trkpt><trkpt lat="43.4913861" lon="12.9554179"><ele>306.0</ele><time>2026-04-25T07:22:47.033Z</time></trkpt><trkpt lat="43.4912829" lon="12.9553939"><ele>307.2</ele><time>2026-04-25T07:22:48.032Z</time></trkpt><trkpt lat="43.4912248" lon="12.9553441"><ele>308.40000000000003</ele><time>2026-04-25T07:22:49.033Z</time></trkpt><trkpt lat="43.49117" lon="12.9552207"><ele>309.6</ele><time>2026-04-25T07:22:51.032Z</time></trkpt><trkpt lat="43.4911765" lon="12.9550589"><ele>310.8</ele><time>2026-04-25T07:22:53.033Z</time></trkpt><trkpt lat="43.4912567" lon="12.9549443"><ele>312.0</ele><time>2026-04-25T07:22:55.032Z</time></trkpt><trkpt lat="43.4913041" lon="12.9548388"><ele>312.0</ele><time>2026-04-25T07:22:57.032Z</time></trkpt><trkpt lat="43.4912714" lon="12.9547587"><ele>312.0</ele><time>2026-04-25T07:22:59.033Z</time></trkpt><trkpt lat="43.491213" lon="12.9547193"><ele>312.0</ele><time>2026-04-25T07:23:32.032Z</time></trkpt><trkpt lat="43.4911448" lon="12.9546973"><ele>312.0</ele><time>2026-04-25T07:23:33.033Z</time></trkpt><trkpt lat="43.4910731" lon="12.9546732"><ele>312.0</ele><time>2026-04-25T07:23:34.032Z</time></trkpt><trkpt lat="43.4909971" lon="12.9546493"><ele>312.0</ele><time>2026-04-25T07:23:35.033Z</time></trkpt><trkpt lat="43.490921" lon="12.9546247"><ele>312.0</ele><time>2026-04-25T07:23:36.033Z</time></trkpt><trkpt lat="43.4908498" lon="12.954592"><ele>306.5</ele><time>2026-04-25T07:23:37.032Z</time></trkpt><trkpt lat="43.4907871" lon="12.9545416"><ele>301.0</ele><time>2026-04-25T07:23:38.032Z</time></trkpt><trkpt lat="43.490704" lon="12.9544541"><ele>295.5</ele><time>2026-04-25T07:23:39.033Z</time></trkpt><trkpt lat="43.490593" lon="12.9543471"><ele>290.0</ele><time>2026-04-25T07:23:40.032Z</time></trkpt><trkpt lat="43.4904804" lon="12.9542395"><ele>289.25</ele><time>2026-04-25T07:23:41.033Z</time></trkpt><trkpt lat="43.4903737" lon="12.9541438"><ele>288.5</ele><time>2026-04-25T07:23:42.032Z</time></trkpt><trkpt lat="43.490278" lon="12.9540501"><ele>287.75</ele><time>2026-04-25T07:23:43.032Z</time></trkpt><trkpt lat="43.4901861" lon="12.9539462"><ele>287.0</ele><time>2026-04-25T07:23:44.033Z</time></trkpt><trkpt lat="43.4900994" lon="12.9538504"><ele>287.0</ele><time>2026-04-25T07:23:45.032Z</time></trkpt><trkpt lat="43.4900127" lon="12.9537575"><ele>287.0</ele><time>2026-04-25T07:23:46.033Z</time></trkpt><trkpt lat="43.4899239" lon="12.9536682"><ele>287.0</ele><time>2026-04-25T07:23:47.033Z</time></trkpt><trkpt lat="43.4898388" lon="12.9535858"><ele>287.0</ele><time>2026-04-25T07:23:48.034Z</time></trkpt><trkpt lat="43.4897547" lon="12.9535054"><ele>287.0</ele><time>2026-04-25T07:23:49.032Z</time></trkpt><trkpt lat="43.4896697" lon="12.9534239"><ele>286.0</ele><time>2026-04-25T07:23:50.032Z</time></trkpt><trkpt lat="43.489593" lon="12.9533565"><ele>285.0</ele><time>2026-04-25T07:23:51.033Z</time></trkpt><trkpt lat="43.4895242" lon="12.9532976"><ele>284.0</ele><time>2026-04-25T07:23:52.032Z</time></trkpt><trkpt lat="43.4894603" lon="12.9532303"><ele>283.0</ele><time>2026-04-25T07:23:53.033Z</time></trkpt><trkpt lat="43.4893934" lon="12.9531567"><ele>282.0</ele><time>2026-04-25T07:23:54.032Z</time></trkpt><trkpt lat="43.4893142" lon="12.9530951"><ele>281.0</ele><time>2026-04-25T07:23:55.032Z</time></trkpt><trkpt lat="43.4892222" lon="12.9530528"><ele>281.0</ele><time>2026-04-25T07:23:56.033Z</time></trkpt><trkpt lat="43.4891231" lon="12.952999"><ele>281.0</ele><time>2026-04-25T07:23:57.033Z</time></trkpt><trkpt lat="43.4890365" lon="12.9529414"><ele>281.0</ele><time>2026-04-25T07:23:58.032Z</time></trkpt><trkpt lat="43.4889539" lon="12.9528757"><ele>281.0</ele><time>2026-04-25T07:23:59.032Z</time></trkpt><trkpt lat="43.4888718" lon="12.9528147"><ele>281.0</ele><time>2026-04-25T07:24:00.033Z</time></trkpt><trkpt lat="43.4887635" lon="12.9527526"><ele>281.5</ele><time>2026-04-25T07:24:01.032Z</time></trkpt><trkpt lat="43.4886514" lon="12.9526822"><ele>282.0</ele><time>2026-04-25T07:24:02.034Z</time></trkpt><trkpt lat="43.4885461" lon="12.9526061"><ele>282.5</ele><time>2026-04-25T07:24:03.032Z</time></trkpt><trkpt lat="43.4884313" lon="12.9525193"><ele>283.0</ele><time>2026-04-25T07:24:04.033Z</time></trkpt><trkpt lat="43.4882992" lon="12.9524289"><ele>283.5</ele><time>2026-04-25T07:24:05.032Z</time></trkpt><trkpt lat="43.4881569" lon="12.9523347"><ele>284.0</ele><time>2026-04-25T07:24:06.032Z</time></trkpt><trkpt lat="43.4880294" lon="12.952262"><ele>284.5</ele><time>2026-04-25T07:24:07.033Z</time></trkpt><trkpt lat="43.487902" lon="12.9521916"><ele>285.0</ele><time>2026-04-25T07:24:08.033Z</time></trkpt><trkpt lat="43.4877854" lon="12.9521304"><ele>285.0</ele><time>2026-04-25T07:24:09.033Z</time></trkpt><trkpt lat="43.4876794" lon="12.9520797"><ele>285.0</ele><time>2026-04-25T07:24:10.032Z</time></trkpt><trkpt lat="43.4875807" lon="12.952042"><ele>285.0</ele><time>2026-04-25T07:24:11.033Z</time></trkpt><trkpt lat="43.4874882" lon="12.9520142"><ele>285.0</ele><time>2026-04-25T07:24:12.032Z</time></trkpt><trkpt lat="43.4873778" lon="12.9519822"><ele>285.0</ele><time>2026-04-25T07:24:13.032Z</time></trkpt><trkpt lat="43.4872904" lon="12.9519552"><ele>285.0</ele><time>2026-04-25T07:24:14.033Z</time></trkpt><trkpt lat="43.4872105" lon="12.9519176"><ele>285.0</ele><time>2026-04-25T07:24:16.032Z</time></trkpt><trkpt lat="43.4871427" lon="12.9518929"><ele>285.0</ele><time>2026-04-25T07:24:18.033Z</time></trkpt><trkpt lat="43.4870309" lon="12.9518202"><ele>285.0</ele><time>2026-04-25T07:24:20.033Z</time></trkpt><trkpt lat="43.4869611" lon="12.9517502"><ele>285.0</ele><time>2026-04-25T07:24:21.032Z</time></trkpt><trkpt lat="43.4869034" lon="12.9517113"><ele>285.0</ele><time>2026-04-25T07:24:22.033Z</time></trkpt><trkpt lat="43.4868362" lon="12.9516461"><ele>287.3333333333333</ele><time>2026-04-25T07:24:23.034Z</time></trkpt><trkpt lat="43.486791" lon="12.951561"><ele>289.6666666666667</ele><time>2026-04-25T07:24:24.032Z</time></trkpt><trkpt lat="43.486736" lon="12.9514578"><ele>292.0</ele><time>2026-04-25T07:24:25.032Z</time></trkpt><trkpt lat="43.4866975" lon="12.9513572"><ele>294.33333333333337</ele><time>2026-04-25T07:24:26.032Z</time></trkpt><trkpt lat="43.4866502" lon="12.9512729"><ele>296.6666666666667</ele><time>2026-04-25T07:24:27.033Z</time></trkpt><trkpt lat="43.4866032" lon="12.9511977"><ele>299.0</ele><time>2026-04-25T07:24:28.032Z</time></trkpt><trkpt lat="43.4865437" lon="12.951118"><ele>299.0</ele><time>2026-04-25T07:24:29.032Z</time></trkpt><trkpt lat="43.4864985" lon="12.9510429"><ele>299.0</ele><time>2026-04-25T07:24:30.032Z</time></trkpt><trkpt lat="43.4864504" lon="12.9509251"><ele>299.0</ele><time>2026-04-25T07:24:31.032Z</time></trkpt><trkpt lat="43.4864203" lon="12.9508245"><ele>299.0</ele><time>2026-04-25T07:24:32.033Z</time></trkpt><trkpt lat="43.4863855" lon="12.950728"><ele>299.0</ele><time>2026-04-25T07:24:33.033Z</time></trkpt><trkpt lat="43.4863473" lon="12.9506209"><ele>299.0</ele><time>2026-04-25T07:24:35.033Z</time></trkpt><trkpt lat="43.4862953" lon="12.9505239"><ele>297.6666666666667</ele><time>2026-04-25T07:24:36.032Z</time></trkpt><trkpt lat="43.4862415" lon="12.9503967"><ele>296.33333333333337</ele><time>2026-04-25T07:24:37.033Z</time></trkpt><trkpt lat="43.486194" lon="12.9502965"><ele>295.0</ele><time>2026-04-25T07:24:38.033Z</time></trkpt><trkpt lat="43.4861483" lon="12.9501981"><ele>293.6666666666667</ele><time>2026-04-25T07:24:39.033Z</time></trkpt><trkpt lat="43.4861056" lon="12.9501273"><ele>292.3333333333333</ele><time>2026-04-25T07:24:40.033Z</time></trkpt><trkpt lat="43.4860484" lon="12.9500644"><ele>291.0</ele><time>2026-04-25T07:24:41.032Z</time></trkpt><trkpt lat="43.4859759" lon="12.9500062"><ele>291.0</ele><time>2026-04-25T07:24:42.032Z</time></trkpt><trkpt lat="43.4859012" lon="12.9499474"><ele>291.0</ele><time>2026-04-25T07:24:43.032Z</time></trkpt><trkpt lat="43.4858286" lon="12.9498765"><ele>291.0</ele><time>2026-04-25T07:24:44.033Z</time></trkpt><trkpt lat="43.4857614" lon="12.9498009"><ele>291.0</ele><time>2026-04-25T07:24:45.032Z</time></trkpt><trkpt lat="43.4856846" lon="12.9497259"><ele>291.0</ele><time>2026-04-25T07:24:46.033Z</time></trkpt><trkpt lat="43.485599" lon="12.9496625"><ele>291.0</ele><time>2026-04-25T07:24:47.032Z</time></trkpt><trkpt lat="43.485505" lon="12.9496061"><ele>291.0</ele><time>2026-04-25T07:24:48.032Z</time></trkpt><trkpt lat="43.4854253" lon="12.9495386"><ele>291.0</ele><time>2026-04-25T07:24:49.032Z</time></trkpt><trkpt lat="43.4853633" lon="12.9494718"><ele>291.0</ele><time>2026-04-25T07:24:50.032Z</time></trkpt><trkpt lat="43.4853151" lon="12.9493926"><ele>291.0</ele><time>2026-04-25T07:24:51.032Z</time></trkpt><trkpt lat="43.4852665" lon="12.9493112"><ele>291.0</ele><time>2026-04-25T07:24:52.032Z</time></trkpt><trkpt lat="43.4852361" lon="12.9492248"><ele>295.0</ele><time>2026-04-25T07:24:53.033Z</time></trkpt><trkpt lat="43.4852221" lon="12.9491011"><ele>299.0</ele><time>2026-04-25T07:24:54.032Z</time></trkpt><trkpt lat="43.4852164" lon="12.9490099"><ele>303.0</ele><time>2026-04-25T07:24:55.032Z</time></trkpt><trkpt lat="43.4852109" lon="12.9489172"><ele>307.0</ele><time>2026-04-25T07:24:56.032Z</time></trkpt><trkpt lat="43.4851653" lon="12.948764"><ele>311.0</ele><time>2026-04-25T07:24:58.033Z</time></trkpt><trkpt lat="43.4851021" lon="12.9486065"><ele>311.0</ele><time>2026-04-25T07:25:00.033Z</time></trkpt><trkpt lat="43.4850531" lon="12.9484576"><ele>311.0</ele><time>2026-04-25T07:25:02.034Z</time></trkpt><trkpt lat="43.4850821" lon="12.9483638"><ele>311.0</ele><time>2026-04-25T07:25:03.033Z</time></trkpt><trkpt lat="43.4851106" lon="12.9482423"><ele>311.0</ele><time>2026-04-25T07:25:06.032Z</time></trkpt><trkpt lat="43.4851219" lon="12.9481393"><ele>311.0</ele><time>2026-04-25T07:25:07.032Z</time></trkpt><trkpt lat="43.4851372" lon="12.9480051"><ele>309.57142857142856</ele><time>2026-04-25T07:25:08.032Z</time></trkpt><trkpt lat="43.4851476" lon="12.9478983"><ele>308.14285714285717</ele><time>2026-04-25T07:25:09.033Z</time></trkpt><trkpt lat="43.4851573" lon="12.9478013"><ele>306.7142857142857</ele><time>2026-04-25T07:25:10.034Z</time></trkpt><trkpt lat="43.4851668" lon="12.9476983"><ele>305.2857142857143</ele><time>2026-04-25T07:25:11.032Z</time></trkpt><trkpt lat="43.4851663" lon="12.9476051"><ele>303.8571428571429</ele><time>2026-04-25T07:25:12.033Z</time></trkpt><trkpt lat="43.4851603" lon="12.9475093"><ele>302.42857142857144</ele><time>2026-04-25T07:25:13.032Z</time></trkpt><trkpt lat="43.4851483" lon="12.9473976"><ele>301.0</ele><time>2026-04-25T07:25:14.032Z</time></trkpt><trkpt lat="43.4851362" lon="12.9472924"><ele>301.0</ele><time>2026-04-25T07:25:15.033Z</time></trkpt><trkpt lat="43.4851226" lon="12.9471906"><ele>301.0</ele><time>2026-04-25T07:25:16.032Z</time></trkpt><trkpt lat="43.4851097" lon="12.9470971"><ele>301.0</ele><time>2026-04-25T07:25:17.033Z</time></trkpt><trkpt lat="43.4850913" lon="12.9469959"><ele>301.0</ele><time>2026-04-25T07:25:18.032Z</time></trkpt><trkpt lat="43.4850709" lon="12.9468892"><ele>301.0</ele><time>2026-04-25T07:25:19.033Z</time></trkpt><trkpt lat="43.4850494" lon="12.9467816"><ele>301.0</ele><time>2026-04-25T07:25:20.033Z</time></trkpt><trkpt lat="43.4850262" lon="12.9466626"><ele>300.8333333333333</ele><time>2026-04-25T07:25:21.033Z</time></trkpt><trkpt lat="43.4850062" lon="12.946557"><ele>300.66666666666663</ele><time>2026-04-25T07:25:22.033Z</time></trkpt><trkpt lat="43.4849805" lon="12.9464644"><ele>300.5</ele><time>2026-04-25T07:25:23.033Z</time></trkpt><trkpt lat="43.484938" lon="12.9463711"><ele>300.3333333333333</ele><time>2026-04-25T07:25:24.033Z</time></trkpt><trkpt lat="43.4848925" lon="12.9462807"><ele>300.1666666666667</ele><time>2026-04-25T07:25:25.033Z</time></trkpt><trkpt lat="43.4848643" lon="12.9461993"><ele>300.0</ele><time>2026-04-25T07:25:26.032Z</time></trkpt><trkpt lat="43.4848273" lon="12.9460399"><ele>299.99999999999994</ele><time>2026-04-25T07:25:28.032Z</time></trkpt><trkpt lat="43.4848188" lon="12.9459523"><ele>300.0</ele><time>2026-04-25T07:25:29.033Z</time></trkpt><trkpt lat="43.4847986" lon="12.9458646"><ele>300.0</ele><time>2026-04-25T07:25:30.033Z</time></trkpt><trkpt lat="43.484777" lon="12.9457634"><ele>300.0</ele><time>2026-04-25T07:25:31.032Z</time></trkpt><trkpt lat="43.4847563" lon="12.9456645"><ele>300.0</ele><time>2026-04-25T07:25:32.032Z</time></trkpt><trkpt lat="43.4847361" lon="12.9455628"><ele>299.99999999999994</ele><time>2026-04-25T07:25:33.033Z</time></trkpt><trkpt lat="43.4847036" lon="12.9454589"><ele>300.0</ele><time>2026-04-25T07:25:34.033Z</time></trkpt><trkpt lat="43.4846644" lon="12.9453533"><ele>300.6</ele><time>2026-04-25T07:25:35.033Z</time></trkpt><trkpt lat="43.484614" lon="12.945254"><ele>301.2</ele><time>2026-04-25T07:25:36.032Z</time></trkpt><trkpt lat="43.4845557" lon="12.945161"><ele>301.8</ele><time>2026-04-25T07:25:37.033Z</time></trkpt><trkpt lat="43.4844844" lon="12.9450579"><ele>302.4</ele><time>2026-04-25T07:25:38.033Z</time></trkpt><trkpt lat="43.48441" lon="12.9449522"><ele>303.0</ele><time>2026-04-25T07:25:39.032Z</time></trkpt><trkpt lat="43.4843505" lon="12.9448435"><ele>305.8333333333333</ele><time>2026-04-25T07:25:40.033Z</time></trkpt><trkpt lat="43.4843081" lon="12.9447539"><ele>308.6666666666667</ele><time>2026-04-25T07:25:41.033Z</time></trkpt><trkpt lat="43.4842736" lon="12.9446786"><ele>311.5</ele><time>2026-04-25T07:25:42.033Z</time></trkpt><trkpt lat="43.484246" lon="12.9445982"><ele>314.33333333333337</ele><time>2026-04-25T07:25:43.032Z</time></trkpt><trkpt lat="43.4842202" lon="12.9445183"><ele>317.1666666666667</ele><time>2026-04-25T07:25:44.033Z</time></trkpt><trkpt lat="43.4841246" lon="12.9443815"><ele>320.0</ele><time>2026-04-25T07:25:46.033Z</time></trkpt><trkpt lat="43.4840629" lon="12.9442978"><ele>317.0</ele><time>2026-04-25T07:25:47.032Z</time></trkpt><trkpt lat="43.4839987" lon="12.9441912"><ele>314.0</ele><time>2026-04-25T07:25:48.032Z</time></trkpt><trkpt lat="43.4839311" lon="12.9440854"><ele>311.0</ele><time>2026-04-25T07:25:49.033Z</time></trkpt><trkpt lat="43.4838753" lon="12.943999"><ele>308.0</ele><time>2026-04-25T07:25:50.033Z</time></trkpt><trkpt lat="43.4838143" lon="12.943926"><ele>305.0</ele><time>2026-04-25T07:25:51.032Z</time></trkpt><trkpt lat="43.4837327" lon="12.9438367"><ele>313.25</ele><time>2026-04-25T07:25:52.032Z</time></trkpt><trkpt lat="43.4836464" lon="12.9437429"><ele>321.5</ele><time>2026-04-25T07:25:53.032Z</time></trkpt><trkpt lat="43.4835495" lon="12.9436345"><ele>329.75</ele><time>2026-04-25T07:25:54.033Z</time></trkpt><trkpt lat="43.4834649" lon="12.9435232"><ele>338.0</ele><time>2026-04-25T07:25:55.034Z</time></trkpt><trkpt lat="43.4833705" lon="12.9434056"><ele>333.4</ele><time>2026-04-25T07:25:56.032Z</time></trkpt><trkpt lat="43.4832955" lon="12.9433001"><ele>328.79999999999995</ele><time>2026-04-25T07:25:57.033Z</time></trkpt><trkpt lat="43.4832245" lon="12.9432113"><ele>324.2</ele><time>2026-04-25T07:25:58.034Z</time></trkpt><trkpt lat="43.4831452" lon="12.9431207"><ele>319.6</ele><time>2026-04-25T07:25:59.033Z</time></trkpt><trkpt lat="43.4830654" lon="12.9430233"><ele>315.0</ele><time>2026-04-25T07:26:00.032Z</time></trkpt><trkpt lat="43.4829825" lon="12.9429141"><ele>315.8333333333333</ele><time>2026-04-25T07:26:01.032Z</time></trkpt><trkpt lat="43.4829023" lon="12.9428245"><ele>316.6666666666667</ele><time>2026-04-25T07:26:02.032Z</time></trkpt><trkpt lat="43.4828286" lon="12.9427499"><ele>317.5</ele><time>2026-04-25T07:26:03.034Z</time></trkpt><trkpt lat="43.4827671" lon="12.9426886"><ele>318.33333333333337</ele><time>2026-04-25T07:26:04.032Z</time></trkpt><trkpt lat="43.482714" lon="12.9426318"><ele>319.1666666666667</ele><time>2026-04-25T07:26:05.033Z</time></trkpt><trkpt lat="43.4826573" lon="12.94257"><ele>320.0</ele><time>2026-04-25T07:26:06.033Z</time></trkpt><trkpt lat="43.4826026" lon="12.9425019"><ele>320.0</ele><time>2026-04-25T07:26:07.034Z</time></trkpt><trkpt lat="43.4825484" lon="12.9424335"><ele>320.0</ele><time>2026-04-25T07:26:08.032Z</time></trkpt><trkpt lat="43.4824916" lon="12.9423502"><ele>320.0</ele><time>2026-04-25T07:26:09.032Z</time></trkpt><trkpt lat="43.4824421" lon="12.9422713"><ele>320.0</ele><time>2026-04-25T07:26:10.032Z</time></trkpt><trkpt lat="43.4823925" lon="12.9421809"><ele>320.0</ele><time>2026-04-25T07:26:11.032Z</time></trkpt><trkpt lat="43.4823582" lon="12.9420974"><ele>320.0</ele><time>2026-04-25T07:26:12.032Z</time></trkpt><trkpt lat="43.4823284" lon="12.9420017"><ele>320.0</ele><time>2026-04-25T07:26:13.033Z</time></trkpt><trkpt lat="43.4823048" lon="12.9419117"><ele>320.0</ele><time>2026-04-25T07:26:14.033Z</time></trkpt><trkpt lat="43.4822813" lon="12.9417609"><ele>320.0</ele><time>2026-04-25T07:26:16.032Z</time></trkpt><trkpt lat="43.4823158" lon="12.9415766"><ele>320.0</ele><time>2026-04-25T07:26:18.033Z</time></trkpt><trkpt lat="43.4823445" lon="12.9414609"><ele>320.0</ele><time>2026-04-25T07:26:19.033Z</time></trkpt><trkpt lat="43.4823665" lon="12.9413581"><ele>319.1666666666667</ele><time>2026-04-25T07:26:20.033Z</time></trkpt><trkpt lat="43.482382" lon="12.9412639"><ele>318.33333333333337</ele><time>2026-04-25T07:26:21.032Z</time></trkpt><trkpt lat="43.4823933" lon="12.9411453"><ele>317.5</ele><time>2026-04-25T07:26:22.034Z</time></trkpt><trkpt lat="43.4824037" lon="12.9410365"><ele>316.6666666666667</ele><time>2026-04-25T07:26:23.033Z</time></trkpt><trkpt lat="43.4824054" lon="12.9409187"><ele>315.8333333333333</ele><time>2026-04-25T07:26:24.033Z</time></trkpt><trkpt lat="43.4823955" lon="12.9408266"><ele>315.0</ele><time>2026-04-25T07:26:25.033Z</time></trkpt><trkpt lat="43.4823738" lon="12.9407394"><ele>315.0</ele><time>2026-04-25T07:26:26.033Z</time></trkpt><trkpt lat="43.4823351" lon="12.9406494"><ele>315.0</ele><time>2026-04-25T07:26:27.032Z</time></trkpt><trkpt lat="43.4822776" lon="12.9405563"><ele>315.0</ele><time>2026-04-25T07:26:28.034Z</time></trkpt><trkpt lat="43.4822167" lon="12.9404887"><ele>315.0</ele><time>2026-04-25T07:26:29.032Z</time></trkpt><trkpt lat="43.4821535" lon="12.9404477"><ele>315.0</ele><time>2026-04-25T07:26:30.033Z</time></trkpt><trkpt lat="43.4820469" lon="12.9404137"><ele>315.0</ele><time>2026-04-25T07:26:32.032Z</time></trkpt><trkpt lat="43.4819392" lon="12.9404081"><ele>314.8</ele><time>2026-04-25T07:26:34.032Z</time></trkpt><trkpt lat="43.4818561" lon="12.9403591"><ele>314.6</ele><time>2026-04-25T07:26:36.033Z</time></trkpt><trkpt lat="43.4818324" lon="12.9402631"><ele>314.4</ele><time>2026-04-25T07:26:40.033Z</time></trkpt><trkpt lat="43.4818851" lon="12.9402066"><ele>314.2</ele><time>2026-04-25T07:27:25.033Z</time></trkpt><trkpt lat="43.4818167" lon="12.9400502"><ele>314.0</ele><time>2026-04-25T07:27:28.032Z</time></trkpt><trkpt lat="43.4817559" lon="12.9399569"><ele>312.75</ele><time>2026-04-25T07:27:29.032Z</time></trkpt><trkpt lat="43.481672" lon="12.9398891"><ele>311.5</ele><time>2026-04-25T07:27:30.033Z</time></trkpt><trkpt lat="43.4815474" lon="12.939815"><ele>310.25</ele><time>2026-04-25T07:27:31.032Z</time></trkpt><trkpt lat="43.4814247" lon="12.9397615"><ele>309.0</ele><time>2026-04-25T07:27:32.033Z</time></trkpt><trkpt lat="43.4813037" lon="12.9397317"><ele>311.25</ele><time>2026-04-25T07:27:33.032Z</time></trkpt><trkpt lat="43.4811883" lon="12.9397295"><ele>313.5</ele><time>2026-04-25T07:27:34.032Z</time></trkpt><trkpt lat="43.4810629" lon="12.9397568"><ele>315.75</ele><time>2026-04-25T07:27:35.032Z</time></trkpt><trkpt lat="43.4809486" lon="12.9398083"><ele>318.0</ele><time>2026-04-25T07:27:36.033Z</time></trkpt><trkpt lat="43.4808431" lon="12.9398786"><ele>318.0</ele><time>2026-04-25T07:27:37.033Z</time></trkpt><trkpt lat="43.4807455" lon="12.9399626"><ele>318.0</ele><time>2026-04-25T07:27:38.033Z</time></trkpt><trkpt lat="43.4806531" lon="12.9400627"><ele>318.0</ele><time>2026-04-25T07:27:39.032Z</time></trkpt><trkpt lat="43.4805718" lon="12.9401672"><ele>318.0</ele><time>2026-04-25T07:27:40.032Z</time></trkpt><trkpt lat="43.4804994" lon="12.9402762"><ele>319.2</ele><time>2026-04-25T07:27:41.033Z</time></trkpt><trkpt lat="43.4804479" lon="12.9403824"><ele>320.4</ele><time>2026-04-25T07:27:42.032Z</time></trkpt><trkpt lat="43.4804254" lon="12.9405038"><ele>321.59999999999997</ele><time>2026-04-25T07:27:43.033Z</time></trkpt><trkpt lat="43.4804357" lon="12.9406592"><ele>322.8</ele><time>2026-04-25T07:27:44.032Z</time></trkpt><trkpt lat="43.4804469" lon="12.9408183"><ele>324.0</ele><time>2026-04-25T07:27:45.032Z</time></trkpt><trkpt lat="43.4804388" lon="12.9409395"><ele>326.2</ele><time>2026-04-25T07:27:46.033Z</time></trkpt><trkpt lat="43.4804064" lon="12.9410375"><ele>328.4</ele><time>2026-04-25T07:27:47.032Z</time></trkpt><trkpt lat="43.4803464" lon="12.9411099"><ele>330.6</ele><time>2026-04-25T07:27:48.032Z</time></trkpt><trkpt lat="43.480262" lon="12.9411491"><ele>332.8</ele><time>2026-04-25T07:27:49.033Z</time></trkpt><trkpt lat="43.4801358" lon="12.9411849"><ele>335.0</ele><time>2026-04-25T07:27:50.033Z</time></trkpt><trkpt lat="43.479987" lon="12.9412372"><ele>335.0</ele><time>2026-04-25T07:27:51.033Z</time></trkpt><trkpt lat="43.4798244" lon="12.9413468"><ele>335.0</ele><time>2026-04-25T07:27:52.032Z</time></trkpt><trkpt lat="43.4796349" lon="12.94149"><ele>335.0</ele><time>2026-04-25T07:27:53.033Z</time></trkpt><trkpt lat="43.479487" lon="12.9416072"><ele>335.6</ele><time>2026-04-25T07:27:54.032Z</time></trkpt><trkpt lat="43.4793721" lon="12.9416943"><ele>336.2</ele><time>2026-04-25T07:27:55.033Z</time></trkpt><trkpt lat="43.479269" lon="12.9417676"><ele>336.79999999999995</ele><time>2026-04-25T07:27:56.033Z</time></trkpt><trkpt lat="43.4791714" lon="12.941801"><ele>337.4</ele><time>2026-04-25T07:27:57.034Z</time></trkpt><trkpt lat="43.479072" lon="12.9417881"><ele>338.0</ele><time>2026-04-25T07:27:58.031Z</time></trkpt><trkpt lat="43.4789912" lon="12.9417223"><ele>338.0</ele><time>2026-04-25T07:27:59.031Z</time></trkpt><trkpt lat="43.4789262" lon="12.9416138"><ele>338.0</ele><time>2026-04-25T07:28:00.031Z</time></trkpt><trkpt lat="43.4788644" lon="12.941449"><ele>338.0</ele><time>2026-04-25T07:28:01.032Z</time></trkpt><trkpt lat="43.4787878" lon="12.9412208"><ele>338.0</ele><time>2026-04-25T07:28:02.033Z</time></trkpt><trkpt lat="43.4787017" lon="12.9409903"><ele>342.0</ele><time>2026-04-25T07:28:03.033Z</time></trkpt><trkpt lat="43.4786054" lon="12.940795"><ele>346.0</ele><time>2026-04-25T07:28:04.032Z</time></trkpt><trkpt lat="43.4784823" lon="12.9406483"><ele>350.0</ele><time>2026-04-25T07:28:05.031Z</time></trkpt><trkpt lat="43.4783344" lon="12.940518"><ele>350.0</ele><time>2026-04-25T07:28:06.031Z</time></trkpt><trkpt lat="43.4781976" lon="12.9404104"><ele>350.0</ele><time>2026-04-25T07:28:07.032Z</time></trkpt><trkpt lat="43.4780876" lon="12.9403446"><ele>350.0</ele><time>2026-04-25T07:28:08.032Z</time></trkpt><trkpt lat="43.4779755" lon="12.9403201"><ele>350.0</ele><time>2026-04-25T07:28:09.033Z</time></trkpt><trkpt lat="43.4778465" lon="12.9403367"><ele>353.0</ele><time>2026-04-25T07:28:10.033Z</time></trkpt><trkpt lat="43.4777015" lon="12.9403869"><ele>356.0</ele><time>2026-04-25T07:28:11.032Z</time></trkpt><trkpt lat="43.4775594" lon="12.9404619"><ele>359.0</ele><time>2026-04-25T07:28:12.032Z</time></trkpt><trkpt lat="43.4774124" lon="12.9405649"><ele>359.0</ele><time>2026-04-25T07:28:13.032Z</time></trkpt><trkpt lat="43.477251" lon="12.9406808"><ele>359.0</ele><time>2026-04-25T07:28:14.031Z</time></trkpt><trkpt lat="43.4771096" lon="12.9407437"><ele>359.0</ele><time>2026-04-25T07:28:15.031Z</time></trkpt><trkpt lat="43.476957" lon="12.9407772"><ele>358.6666666666667</ele><time>2026-04-25T07:28:16.032Z</time></trkpt><trkpt lat="43.4767793" lon="12.9407906"><ele>358.3333333333333</ele><time>2026-04-25T07:28:17.031Z</time></trkpt><trkpt lat="43.4766171" lon="12.9407974"><ele>358.0</ele><time>2026-04-25T07:28:18.031Z</time></trkpt><trkpt lat="43.476479" lon="12.9408161"><ele>358.0</ele><time>2026-04-25T07:28:19.032Z</time></trkpt><trkpt lat="43.4763448" lon="12.9408575"><ele>358.0</ele><time>2026-04-25T07:28:20.032Z</time></trkpt><trkpt lat="43.4762158" lon="12.9409203"><ele>358.0</ele><time>2026-04-25T07:28:21.031Z</time></trkpt><trkpt lat="43.4760898" lon="12.9409881"><ele>358.0</ele><time>2026-04-25T07:28:22.031Z</time></trkpt><trkpt lat="43.4759609" lon="12.9410439"><ele>361.5</ele><time>2026-04-25T07:28:23.031Z</time></trkpt><trkpt lat="43.475826" lon="12.9410774"><ele>365.0</ele><time>2026-04-25T07:28:24.032Z</time></trkpt><trkpt lat="43.4756949" lon="12.9410895"><ele>368.5</ele><time>2026-04-25T07:28:25.031Z</time></trkpt><trkpt lat="43.4755702" lon="12.9410948"><ele>372.0</ele><time>2026-04-25T07:28:26.033Z</time></trkpt><trkpt lat="43.4754364" lon="12.9411224"><ele>372.0</ele><time>2026-04-25T07:28:27.031Z</time></trkpt><trkpt lat="43.4752809" lon="12.9411886"><ele>372.0</ele><time>2026-04-25T07:28:28.032Z</time></trkpt><trkpt lat="43.4751131" lon="12.9412767"><ele>372.0</ele><time>2026-04-25T07:28:29.031Z</time></trkpt><trkpt lat="43.4749476" lon="12.9413731"><ele>372.0</ele><time>2026-04-25T07:28:30.031Z</time></trkpt><trkpt lat="43.4747912" lon="12.9414773"><ele>372.0</ele><time>2026-04-25T07:28:31.031Z</time></trkpt><trkpt lat="43.4746461" lon="12.9415969"><ele>372.0</ele><time>2026-04-25T07:28:32.031Z</time></trkpt><trkpt lat="43.4745128" lon="12.941721"><ele>374.25</ele><time>2026-04-25T07:28:33.032Z</time></trkpt><trkpt lat="43.4743927" lon="12.9418288"><ele>376.5</ele><time>2026-04-25T07:28:34.031Z</time></trkpt><trkpt lat="43.4742892" lon="12.9419323"><ele>378.75</ele><time>2026-04-25T07:28:35.031Z</time></trkpt><trkpt lat="43.474203" lon="12.9420391"><ele>381.0</ele><time>2026-04-25T07:28:36.032Z</time></trkpt><trkpt lat="43.4741405" lon="12.9421551"><ele>381.0</ele><time>2026-04-25T07:28:37.032Z</time></trkpt><trkpt lat="43.4740765" lon="12.9424917"><ele>381.0</ele><time>2026-04-25T07:28:39.031Z</time></trkpt><trkpt lat="43.4740718" lon="12.9427366"><ele>381.0</ele><time>2026-04-25T07:28:40.032Z</time></trkpt><trkpt lat="43.4740463" lon="12.9429711"><ele>383.0</ele><time>2026-04-25T07:28:41.032Z</time></trkpt><trkpt lat="43.4739866" lon="12.9431655"><ele>385.0</ele><time>2026-04-25T07:28:42.031Z</time></trkpt><trkpt lat="43.47392" lon="12.9433621"><ele>387.0</ele><time>2026-04-25T07:28:43.031Z</time></trkpt><trkpt lat="43.4738842" lon="12.9435277"><ele>389.0</ele><time>2026-04-25T07:28:44.032Z</time></trkpt><trkpt lat="43.4738639" lon="12.9437157"><ele>391.66666666666663</ele><time>2026-04-25T07:28:45.031Z</time></trkpt><trkpt lat="43.4738733" lon="12.9439065"><ele>394.33333333333337</ele><time>2026-04-25T07:28:46.032Z</time></trkpt><trkpt lat="43.4739095" lon="12.944115"><ele>397.0</ele><time>2026-04-25T07:28:47.031Z</time></trkpt><trkpt lat="43.4739638" lon="12.9443338"><ele>397.5</ele><time>2026-04-25T07:28:48.031Z</time></trkpt><trkpt lat="43.4740125" lon="12.9445105"><ele>398.0</ele><time>2026-04-25T07:28:49.031Z</time></trkpt><trkpt lat="43.4740601" lon="12.9446557"><ele>398.5</ele><time>2026-04-25T07:28:50.032Z</time></trkpt><trkpt lat="43.4741213" lon="12.9447749"><ele>399.0</ele><time>2026-04-25T07:28:51.031Z</time></trkpt><trkpt lat="43.4742092" lon="12.9448792"><ele>399.0</ele><time>2026-04-25T07:28:52.032Z</time></trkpt><trkpt lat="43.4743243" lon="12.944985"><ele>399.0</ele><time>2026-04-25T07:28:53.031Z</time></trkpt><trkpt lat="43.4744474" lon="12.9450969"><ele>399.0</ele><time>2026-04-25T07:28:54.031Z</time></trkpt><trkpt lat="43.474548" lon="12.9451858"><ele>399.0</ele><time>2026-04-25T07:28:55.031Z</time></trkpt><trkpt lat="43.4746209" lon="12.9452521"><ele>401.6666666666667</ele><time>2026-04-25T07:28:56.032Z</time></trkpt><trkpt lat="43.4746869" lon="12.9453278"><ele>404.33333333333337</ele><time>2026-04-25T07:28:57.031Z</time></trkpt><trkpt lat="43.4747426" lon="12.9454185"><ele>407.0</ele><time>2026-04-25T07:28:58.031Z</time></trkpt><trkpt lat="43.47478" lon="12.9455112"><ele>409.6666666666667</ele><time>2026-04-25T07:28:59.033Z</time></trkpt><trkpt lat="43.4748025" lon="12.9456124"><ele>412.33333333333337</ele><time>2026-04-25T07:29:00.031Z</time></trkpt><trkpt lat="43.4747931" lon="12.9457254"><ele>415.0</ele><time>2026-04-25T07:29:01.031Z</time></trkpt><trkpt lat="43.4747639" lon="12.9458292"><ele>415.4</ele><time>2026-04-25T07:29:02.032Z</time></trkpt><trkpt lat="43.4747144" lon="12.9459051"><ele>415.8</ele><time>2026-04-25T07:29:03.031Z</time></trkpt><trkpt lat="43.4746432" lon="12.9459714"><ele>416.20000000000005</ele><time>2026-04-25T07:29:04.032Z</time></trkpt><trkpt lat="43.4745449" lon="12.9460276"><ele>416.6</ele><time>2026-04-25T07:29:05.033Z</time></trkpt><trkpt lat="43.4744359" lon="12.9460914"><ele>417.0</ele><time>2026-04-25T07:29:06.032Z</time></trkpt><trkpt lat="43.4743317" lon="12.9461853"><ele>417.0</ele><time>2026-04-25T07:29:07.032Z</time></trkpt><trkpt lat="43.4742357" lon="12.9463001"><ele>417.0</ele><time>2026-04-25T07:29:08.031Z</time></trkpt><trkpt lat="43.4741359" lon="12.9464336"><ele>417.0</ele><time>2026-04-25T07:29:09.032Z</time></trkpt><trkpt lat="43.474055" lon="12.946546"><ele>417.0</ele><time>2026-04-25T07:29:10.031Z</time></trkpt><trkpt lat="43.4739835" lon="12.9466418"><ele>420.3333333333333</ele><time>2026-04-25T07:29:11.031Z</time></trkpt><trkpt lat="43.4739187" lon="12.9467183"><ele>423.66666666666663</ele><time>2026-04-25T07:29:12.032Z</time></trkpt><trkpt lat="43.4738458" lon="12.9467748"><ele>427.0</ele><time>2026-04-25T07:29:13.032Z</time></trkpt><trkpt lat="43.4737666" lon="12.9467955"><ele>430.3333333333333</ele><time>2026-04-25T07:29:14.031Z</time></trkpt><trkpt lat="43.4736744" lon="12.9467851"><ele>433.66666666666663</ele><time>2026-04-25T07:29:15.031Z</time></trkpt><trkpt lat="43.4735695" lon="12.946772"><ele>437.0</ele><time>2026-04-25T07:29:16.032Z</time></trkpt><trkpt lat="43.4734516" lon="12.9467684"><ele>437.40000000000003</ele><time>2026-04-25T07:29:17.031Z</time></trkpt><trkpt lat="43.4733281" lon="12.946764"><ele>437.80000000000007</ele><time>2026-04-25T07:29:18.031Z</time></trkpt><trkpt lat="43.4732258" lon="12.9467355"><ele>438.2</ele><time>2026-04-25T07:29:19.032Z</time></trkpt><trkpt lat="43.4731368" lon="12.9466701"><ele>438.6</ele><time>2026-04-25T07:29:20.031Z</time></trkpt><trkpt lat="43.4730719" lon="12.9465768"><ele>439.0</ele><time>2026-04-25T07:29:21.032Z</time></trkpt><trkpt lat="43.4729872" lon="12.9464675"><ele>437.0</ele><time>2026-04-25T07:29:22.033Z</time></trkpt><trkpt lat="43.4728974" lon="12.9464086"><ele>435.0</ele><time>2026-04-25T07:29:23.033Z</time></trkpt><trkpt lat="43.4727804" lon="12.946376"><ele>433.0</ele><time>2026-04-25T07:29:24.031Z</time></trkpt><trkpt lat="43.4726523" lon="12.9463755"><ele>431.0</ele><time>2026-04-25T07:29:25.031Z</time></trkpt><trkpt lat="43.4725312" lon="12.9464017"><ele>431.0</ele><time>2026-04-25T07:29:26.031Z</time></trkpt><trkpt lat="43.472418" lon="12.9464347"><ele>431.0</ele><time>2026-04-25T07:29:27.031Z</time></trkpt><trkpt lat="43.4723023" lon="12.9464714"><ele>431.0</ele><time>2026-04-25T07:29:28.031Z</time></trkpt><trkpt lat="43.4721804" lon="12.9464941"><ele>431.0</ele><time>2026-04-25T07:29:29.031Z</time></trkpt><trkpt lat="43.472059" lon="12.9464945"><ele>432.25</ele><time>2026-04-25T07:29:30.033Z</time></trkpt><trkpt lat="43.471935" lon="12.9464608"><ele>433.5</ele><time>2026-04-25T07:29:31.031Z</time></trkpt><trkpt lat="43.4718043" lon="12.9464048"><ele>434.75</ele><time>2026-04-25T07:29:32.031Z</time></trkpt><trkpt lat="43.4716942" lon="12.946357"><ele>436.0</ele><time>2026-04-25T07:29:33.033Z</time></trkpt><trkpt lat="43.4715988" lon="12.9463254"><ele>436.0</ele><time>2026-04-25T07:29:34.033Z</time></trkpt><trkpt lat="43.4715051" lon="12.9463142"><ele>436.0</ele><time>2026-04-25T07:29:35.031Z</time></trkpt><trkpt lat="43.4714075" lon="12.9463303"><ele>436.0</ele><time>2026-04-25T07:29:36.032Z</time></trkpt><trkpt lat="43.4713072" lon="12.9463773"><ele>436.0</ele><time>2026-04-25T07:29:37.032Z</time></trkpt><trkpt lat="43.4712035" lon="12.9464483"><ele>436.0</ele><time>2026-04-25T07:29:38.031Z</time></trkpt><trkpt lat="43.4710958" lon="12.9465316"><ele>435.4</ele><time>2026-04-25T07:29:39.032Z</time></trkpt><trkpt lat="43.4709946" lon="12.946613"><ele>434.8</ele><time>2026-04-25T07:29:40.031Z</time></trkpt><trkpt lat="43.4708991" lon="12.9466874"><ele>434.19999999999993</ele><time>2026-04-25T07:29:41.031Z</time></trkpt><trkpt lat="43.470804" lon="12.9467583"><ele>433.59999999999997</ele><time>2026-04-25T07:29:42.031Z</time></trkpt><trkpt lat="43.4707113" lon="12.9468316"><ele>433.0</ele><time>2026-04-25T07:29:43.031Z</time></trkpt><trkpt lat="43.4706245" lon="12.9469062"><ele>434.79999999999995</ele><time>2026-04-25T07:29:44.032Z</time></trkpt><trkpt lat="43.4705399" lon="12.9469897"><ele>436.59999999999997</ele><time>2026-04-25T07:29:45.031Z</time></trkpt><trkpt lat="43.4704554" lon="12.9470845"><ele>438.40000000000003</ele><time>2026-04-25T07:29:46.031Z</time></trkpt><trkpt lat="43.4703707" lon="12.9471879"><ele>440.20000000000005</ele><time>2026-04-25T07:29:47.032Z</time></trkpt><trkpt lat="43.470285" lon="12.9472928"><ele>442.0</ele><time>2026-04-25T07:29:48.031Z</time></trkpt><trkpt lat="43.4701951" lon="12.9474041"><ele>442.0</ele><time>2026-04-25T07:29:49.032Z</time></trkpt><trkpt lat="43.4701084" lon="12.9475096"><ele>442.0</ele><time>2026-04-25T07:29:50.032Z</time></trkpt><trkpt lat="43.4700109" lon="12.947605"><ele>442.0</ele><time>2026-04-25T07:29:51.031Z</time></trkpt><trkpt lat="43.4699022" lon="12.9476804"><ele>442.0</ele><time>2026-04-25T07:29:52.031Z</time></trkpt><trkpt lat="43.4697938" lon="12.9477335"><ele>443.6</ele><time>2026-04-25T07:29:53.031Z</time></trkpt><trkpt lat="43.469675" lon="12.9477818"><ele>445.20000000000005</ele><time>2026-04-25T07:29:54.031Z</time></trkpt><trkpt lat="43.4695672" lon="12.9478258"><ele>446.8</ele><time>2026-04-25T07:29:55.031Z</time></trkpt><trkpt lat="43.4694699" lon="12.9478775"><ele>448.4</ele><time>2026-04-25T07:29:56.032Z</time></trkpt><trkpt lat="43.4693883" lon="12.9479331"><ele>450.0</ele><time>2026-04-25T07:29:57.031Z</time></trkpt><trkpt lat="43.4693203" lon="12.9480102"><ele>450.0</ele><time>2026-04-25T07:29:58.033Z</time></trkpt><trkpt lat="43.4692607" lon="12.9481061"><ele>450.0</ele><time>2026-04-25T07:29:59.031Z</time></trkpt><trkpt lat="43.4692242" lon="12.9482198"><ele>450.0</ele><time>2026-04-25T07:30:00.031Z</time></trkpt><trkpt lat="43.4692078" lon="12.9483434"><ele>450.0</ele><time>2026-04-25T07:30:01.032Z</time></trkpt><trkpt lat="43.4692038" lon="12.948477"><ele>450.0</ele><time>2026-04-25T07:30:02.032Z</time></trkpt><trkpt lat="43.4692052" lon="12.9486132"><ele>451.8333333333333</ele><time>2026-04-25T07:30:03.031Z</time></trkpt><trkpt lat="43.4692092" lon="12.948749"><ele>453.66666666666663</ele><time>2026-04-25T07:30:04.032Z</time></trkpt><trkpt lat="43.4692085" lon="12.9488647"><ele>455.5</ele><time>2026-04-25T07:30:05.031Z</time></trkpt><trkpt lat="43.4691944" lon="12.9489586"><ele>457.3333333333333</ele><time>2026-04-25T07:30:06.031Z</time></trkpt><trkpt lat="43.4691091" lon="12.9490661"><ele>459.16666666666663</ele><time>2026-04-25T07:30:08.032Z</time></trkpt><trkpt lat="43.4690435" lon="12.9490818"><ele>461.0</ele><time>2026-04-25T07:30:09.032Z</time></trkpt><trkpt lat="43.4689674" lon="12.9490696"><ele>461.0</ele><time>2026-04-25T07:30:10.031Z</time></trkpt><trkpt lat="43.4688794" lon="12.9490449"><ele>461.0</ele><time>2026-04-25T07:30:11.031Z</time></trkpt><trkpt lat="43.4687388" lon="12.9489754"><ele>461.0</ele><time>2026-04-25T07:30:12.031Z</time></trkpt><trkpt lat="43.4685869" lon="12.94888"><ele>461.0</ele><time>2026-04-25T07:30:13.031Z</time></trkpt><trkpt lat="43.468449" lon="12.9487782"><ele>462.75</ele><time>2026-04-25T07:30:14.033Z</time></trkpt><trkpt lat="43.4683305" lon="12.9486933"><ele>464.5</ele><time>2026-04-25T07:30:15.031Z</time></trkpt><trkpt lat="43.4682211" lon="12.9486478"><ele>466.25</ele><time>2026-04-25T07:30:16.032Z</time></trkpt><trkpt lat="43.4681024" lon="12.9486328"><ele>468.0</ele><time>2026-04-25T07:30:17.032Z</time></trkpt><trkpt lat="43.4679982" lon="12.9486538"><ele>469.79999999999995</ele><time>2026-04-25T07:30:18.033Z</time></trkpt><trkpt lat="43.4679071" lon="12.9487046"><ele>471.59999999999997</ele><time>2026-04-25T07:30:19.033Z</time></trkpt><trkpt lat="43.4678085" lon="12.948783"><ele>473.40000000000003</ele><time>2026-04-25T07:30:20.031Z</time></trkpt><trkpt lat="43.4676993" lon="12.9488577"><ele>475.20000000000005</ele><time>2026-04-25T07:30:21.031Z</time></trkpt><trkpt lat="43.4675922" lon="12.9488985"><ele>477.0</ele><time>2026-04-25T07:30:22.033Z</time></trkpt><trkpt lat="43.4674684" lon="12.9489178"><ele>477.0</ele><time>2026-04-25T07:30:23.032Z</time></trkpt><trkpt lat="43.4673209" lon="12.9489158"><ele>477.0</ele><time>2026-04-25T07:30:24.031Z</time></trkpt><trkpt lat="43.4671756" lon="12.9489123"><ele>477.0</ele><time>2026-04-25T07:30:25.032Z</time></trkpt><trkpt lat="43.4670467" lon="12.9489056"><ele>477.0</ele><time>2026-04-25T07:30:26.031Z</time></trkpt><trkpt lat="43.4669358" lon="12.9489004"><ele>477.8</ele><time>2026-04-25T07:30:27.032Z</time></trkpt><trkpt lat="43.4668409" lon="12.9489062"><ele>478.6</ele><time>2026-04-25T07:30:28.033Z</time></trkpt><trkpt lat="43.4667653" lon="12.9489298"><ele>479.40000000000003</ele><time>2026-04-25T07:30:29.033Z</time></trkpt><trkpt lat="43.4666832" lon="12.9490491"><ele>480.20000000000005</ele><time>2026-04-25T07:30:31.032Z</time></trkpt><trkpt lat="43.4667159" lon="12.949179"><ele>481.0</ele><time>2026-04-25T07:30:33.031Z</time></trkpt><trkpt lat="43.4667741" lon="12.9492181"><ele>484.4</ele><time>2026-04-25T07:30:34.031Z</time></trkpt><trkpt lat="43.4668536" lon="12.9492306"><ele>487.8</ele><time>2026-04-25T07:30:35.032Z</time></trkpt><trkpt lat="43.4669747" lon="12.9492354"><ele>491.19999999999993</ele><time>2026-04-25T07:30:36.032Z</time></trkpt><trkpt lat="43.4671164" lon="12.949242"><ele>494.59999999999997</ele><time>2026-04-25T07:30:37.031Z</time></trkpt><trkpt lat="43.4672156" lon="12.9492544"><ele>498.0</ele><time>2026-04-25T07:30:38.032Z</time></trkpt><trkpt lat="43.4672928" lon="12.9492734"><ele>498.0</ele><time>2026-04-25T07:30:39.032Z</time></trkpt><trkpt lat="43.467351" lon="12.9493162"><ele>498.0</ele><time>2026-04-25T07:30:40.032Z</time></trkpt><trkpt lat="43.4673805" lon="12.9494459"><ele>498.0</ele><time>2026-04-25T07:30:42.031Z</time></trkpt><trkpt lat="43.4673004" lon="12.949517"><ele>498.0</ele><time>2026-04-25T07:30:44.032Z</time></trkpt><trkpt lat="43.4672321" lon="12.9495179"><ele>498.0</ele><time>2026-04-25T07:30:45.032Z</time></trkpt><trkpt lat="43.4671329" lon="12.9494979"><ele>498.0</ele><time>2026-04-25T07:30:46.033Z</time></trkpt><trkpt lat="43.466983" lon="12.9494739"><ele>498.0</ele><time>2026-04-25T07:30:47.033Z</time></trkpt><trkpt lat="43.4668203" lon="12.9494748"><ele>498.0</ele><time>2026-04-25T07:30:48.032Z</time></trkpt><trkpt lat="43.4666462" lon="12.9494959"><ele>498.0</ele><time>2026-04-25T07:30:49.033Z</time></trkpt><trkpt lat="43.4665076" lon="12.9495125"><ele>498.0</ele><time>2026-04-25T07:30:50.033Z</time></trkpt><trkpt lat="43.4663881" lon="12.9495231"><ele>498.0</ele><time>2026-04-25T07:30:51.033Z</time></trkpt><trkpt lat="43.4662766" lon="12.9495289"><ele>498.0</ele><time>2026-04-25T07:30:52.032Z</time></trkpt><trkpt lat="43.4661634" lon="12.9495318"><ele>498.0</ele><time>2026-04-25T07:30:53.033Z</time></trkpt><trkpt lat="43.4660551" lon="12.9495348"><ele>496.4</ele><time>2026-04-25T07:30:54.033Z</time></trkpt><trkpt lat="43.4659662" lon="12.9495394"><ele>494.79999999999995</ele><time>2026-04-25T07:30:55.032Z</time></trkpt><trkpt lat="43.4658958" lon="12.9495438"><ele>493.2</ele><time>2026-04-25T07:30:56.033Z</time></trkpt><trkpt lat="43.4657929" lon="12.9495524"><ele>491.6</ele><time>2026-04-25T07:30:58.033Z</time></trkpt><trkpt lat="43.4657255" lon="12.9495654"><ele>490.0</ele><time>2026-04-25T07:32:14.032Z</time></trkpt><trkpt lat="43.4656061" lon="12.9495517"><ele>490.0</ele><time>2026-04-25T07:32:16.033Z</time></trkpt><trkpt lat="43.4655327" lon="12.9495113"><ele>490.0</ele><time>2026-04-25T07:32:17.033Z</time></trkpt><trkpt lat="43.4654566" lon="12.9494368"><ele>490.0</ele><time>2026-04-25T07:32:18.032Z</time></trkpt><trkpt lat="43.4653756" lon="12.9493463"><ele>490.0</ele><time>2026-04-25T07:32:19.032Z</time></trkpt><trkpt lat="43.4652951" lon="12.9492518"><ele>490.0</ele><time>2026-04-25T07:32:20.032Z</time></trkpt><trkpt lat="43.4652142" lon="12.9491549"><ele>490.2</ele><time>2026-04-25T07:32:21.033Z</time></trkpt><trkpt lat="43.4651337" lon="12.9490641"><ele>490.4</ele><time>2026-04-25T07:32:22.032Z</time></trkpt><trkpt lat="43.4650479" lon="12.9489733"><ele>490.6</ele><time>2026-04-25T07:32:23.033Z</time></trkpt><trkpt lat="43.464958" lon="12.9488858"><ele>490.8</ele><time>2026-04-25T07:32:24.032Z</time></trkpt><trkpt lat="43.4648705" lon="12.9488153"><ele>491.0</ele><time>2026-04-25T07:32:25.032Z</time></trkpt><trkpt lat="43.464784" lon="12.9487529"><ele>491.0</ele><time>2026-04-25T07:32:26.032Z</time></trkpt><trkpt lat="43.4646854" lon="12.9486906"><ele>491.0</ele><time>2026-04-25T07:32:27.032Z</time></trkpt><trkpt lat="43.4645818" lon="12.94863"><ele>491.0</ele><time>2026-04-25T07:32:28.032Z</time></trkpt><trkpt lat="43.4644772" lon="12.9485723"><ele>491.0</ele><time>2026-04-25T07:32:29.032Z</time></trkpt><trkpt lat="43.4643789" lon="12.9485031"><ele>491.0</ele><time>2026-04-25T07:32:30.032Z</time></trkpt><trkpt lat="43.4642884" lon="12.9484268"><ele>492.5</ele><time>2026-04-25T07:32:31.033Z</time></trkpt><trkpt lat="43.4641973" lon="12.948343"><ele>494.0</ele><time>2026-04-25T07:32:32.032Z</time></trkpt><trkpt lat="43.4641005" lon="12.9482592"><ele>495.5</ele><time>2026-04-25T07:32:33.032Z</time></trkpt><trkpt lat="43.464" lon="12.9481759"><ele>497.0</ele><time>2026-04-25T07:32:34.032Z</time></trkpt><trkpt lat="43.4639045" lon="12.9480944"><ele>497.0</ele><time>2026-04-25T07:32:35.032Z</time></trkpt><trkpt lat="43.4638105" lon="12.9479995"><ele>497.0</ele><time>2026-04-25T07:32:36.032Z</time></trkpt><trkpt lat="43.4637158" lon="12.9478829"><ele>497.0</ele><time>2026-04-25T07:32:37.032Z</time></trkpt><trkpt lat="43.4636286" lon="12.9477588"><ele>497.0</ele><time>2026-04-25T07:32:38.033Z</time></trkpt><trkpt lat="43.4635467" lon="12.9476448"><ele>496.0</ele><time>2026-04-25T07:32:39.033Z</time></trkpt><trkpt lat="43.4634639" lon="12.9475489"><ele>495.00000000000006</ele><time>2026-04-25T07:32:40.034Z</time></trkpt><trkpt lat="43.4633799" lon="12.9474706"><ele>494.00000000000006</ele><time>2026-04-25T07:32:41.032Z</time></trkpt><trkpt lat="43.4632918" lon="12.9474034"><ele>493.0</ele><time>2026-04-25T07:32:42.033Z</time></trkpt><trkpt lat="43.4631848" lon="12.9473396"><ele>492.0</ele><time>2026-04-25T07:32:43.032Z</time></trkpt><trkpt lat="43.4630723" lon="12.9472672"><ele>492.0</ele><time>2026-04-25T07:32:44.034Z</time></trkpt><trkpt lat="43.4629753" lon="12.9471823"><ele>492.0</ele><time>2026-04-25T07:32:45.033Z</time></trkpt><trkpt lat="43.4628798" lon="12.9470792"><ele>492.0</ele><time>2026-04-25T07:32:46.033Z</time></trkpt><trkpt lat="43.4627937" lon="12.9469683"><ele>492.0</ele><time>2026-04-25T07:32:47.033Z</time></trkpt><trkpt lat="43.4627093" lon="12.9468587"><ele>490.25</ele><time>2026-04-25T07:32:48.033Z</time></trkpt><trkpt lat="43.4626165" lon="12.946758"><ele>488.5</ele><time>2026-04-25T07:32:49.033Z</time></trkpt><trkpt lat="43.4625151" lon="12.9466712"><ele>486.75</ele><time>2026-04-25T07:32:50.032Z</time></trkpt><trkpt lat="43.4624163" lon="12.9465898"><ele>485.0</ele><time>2026-04-25T07:32:51.033Z</time></trkpt><trkpt lat="43.4623224" lon="12.9464973"><ele>485.0</ele><time>2026-04-25T07:32:52.032Z</time></trkpt><trkpt lat="43.4622325" lon="12.9463841"><ele>485.0</ele><time>2026-04-25T07:32:53.032Z</time></trkpt><trkpt lat="43.4621531" lon="12.9462653"><ele>485.0</ele><time>2026-04-25T07:32:54.033Z</time></trkpt><trkpt lat="43.4620797" lon="12.946151"><ele>485.0</ele><time>2026-04-25T07:32:55.033Z</time></trkpt><trkpt lat="43.4620064" lon="12.9460474"><ele>485.4</ele><time>2026-04-25T07:32:56.032Z</time></trkpt><trkpt lat="43.4619341" lon="12.9459554"><ele>485.8</ele><time>2026-04-25T07:32:57.032Z</time></trkpt><trkpt lat="43.4618489" lon="12.945883"><ele>486.20000000000005</ele><time>2026-04-25T07:32:58.033Z</time></trkpt><trkpt lat="43.4617572" lon="12.9458439"><ele>486.6</ele><time>2026-04-25T07:32:59.033Z</time></trkpt><trkpt lat="43.4616591" lon="12.9458461"><ele>487.0</ele><time>2026-04-25T07:33:00.033Z</time></trkpt><trkpt lat="43.4615697" lon="12.9458947"><ele>485.25</ele><time>2026-04-25T07:33:01.033Z</time></trkpt><trkpt lat="43.4614772" lon="12.9459972"><ele>483.5</ele><time>2026-04-25T07:33:02.032Z</time></trkpt><trkpt lat="43.4613871" lon="12.9461443"><ele>481.75</ele><time>2026-04-25T07:33:03.032Z</time></trkpt><trkpt lat="43.4613131" lon="12.9462867"><ele>480.0</ele><time>2026-04-25T07:33:04.033Z</time></trkpt><trkpt lat="43.4612507" lon="12.9464215"><ele>480.0</ele><time>2026-04-25T07:33:05.032Z</time></trkpt><trkpt lat="43.4611941" lon="12.9465455"><ele>480.0</ele><time>2026-04-25T07:33:06.033Z</time></trkpt><trkpt lat="43.4611324" lon="12.9466566"><ele>480.0</ele><time>2026-04-25T07:33:07.032Z</time></trkpt><trkpt lat="43.4610663" lon="12.9467479"><ele>480.0</ele><time>2026-04-25T07:33:08.033Z</time></trkpt><trkpt lat="43.4609805" lon="12.9468194"><ele>480.0</ele><time>2026-04-25T07:33:09.033Z</time></trkpt><trkpt lat="43.4608794" lon="12.9468624"><ele>473.5</ele><time>2026-04-25T07:33:10.032Z</time></trkpt><trkpt lat="43.4607701" lon="12.9468687"><ele>467.0</ele><time>2026-04-25T07:33:11.032Z</time></trkpt><trkpt lat="43.4606388" lon="12.946842"><ele>460.5</ele><time>2026-04-25T07:33:12.034Z</time></trkpt><trkpt lat="43.4604866" lon="12.9467939"><ele>454.0</ele><time>2026-04-25T07:33:13.033Z</time></trkpt><trkpt lat="43.460335" lon="12.9467443"><ele>453.25</ele><time>2026-04-25T07:33:14.032Z</time></trkpt><trkpt lat="43.4601917" lon="12.946719"><ele>452.5</ele><time>2026-04-25T07:33:15.034Z</time></trkpt><trkpt lat="43.4600538" lon="12.9467176"><ele>451.75</ele><time>2026-04-25T07:33:16.032Z</time></trkpt><trkpt lat="43.4599146" lon="12.9467434"><ele>451.0</ele><time>2026-04-25T07:33:17.032Z</time></trkpt><trkpt lat="43.4597749" lon="12.9468041"><ele>451.0</ele><time>2026-04-25T07:33:18.032Z</time></trkpt><trkpt lat="43.4596323" lon="12.9468805"><ele>451.0</ele><time>2026-04-25T07:33:19.032Z</time></trkpt><trkpt lat="43.4595047" lon="12.9469394"><ele>451.0</ele><time>2026-04-25T07:33:20.032Z</time></trkpt><trkpt lat="43.4593784" lon="12.9469736"><ele>451.0</ele><time>2026-04-25T07:33:21.033Z</time></trkpt><trkpt lat="43.4592403" lon="12.9469961"><ele>453.0</ele><time>2026-04-25T07:33:22.032Z</time></trkpt><trkpt lat="43.4590962" lon="12.9470217"><ele>455.0</ele><time>2026-04-25T07:33:23.034Z</time></trkpt><trkpt lat="43.4589605" lon="12.9470516"><ele>457.0</ele><time>2026-04-25T07:33:24.032Z</time></trkpt><trkpt lat="43.4588475" lon="12.9470792"><ele>459.0</ele><time>2026-04-25T07:33:25.032Z</time></trkpt><trkpt lat="43.4587448" lon="12.9471027"><ele>459.8333333333333</ele><time>2026-04-25T07:33:26.033Z</time></trkpt><trkpt lat="43.4586478" lon="12.9471258"><ele>460.66666666666663</ele><time>2026-04-25T07:33:27.032Z</time></trkpt><trkpt lat="43.4585598" lon="12.9471458"><ele>461.5</ele><time>2026-04-25T07:33:28.032Z</time></trkpt><trkpt lat="43.4584847" lon="12.9471602"><ele>462.3333333333333</ele><time>2026-04-25T07:33:29.032Z</time></trkpt><trkpt lat="43.4584098" lon="12.9471732"><ele>463.16666666666663</ele><time>2026-04-25T07:33:30.032Z</time></trkpt><trkpt lat="43.458344" lon="12.9471866"><ele>464.0</ele><time>2026-04-25T07:33:31.032Z</time></trkpt><trkpt lat="43.4582803" lon="12.9472102"><ele>464.0</ele><time>2026-04-25T07:33:32.032Z</time></trkpt><trkpt lat="43.4582242" lon="12.9472648"><ele>464.0</ele><time>2026-04-25T07:33:33.033Z</time></trkpt><trkpt lat="43.4581715" lon="12.9473514"><ele>464.0</ele><time>2026-04-25T07:33:34.032Z</time></trkpt><trkpt lat="43.4581151" lon="12.9474774"><ele>464.0</ele><time>2026-04-25T07:33:35.032Z</time></trkpt><trkpt lat="43.4580482" lon="12.9476332"><ele>464.0</ele><time>2026-04-25T07:33:36.032Z</time></trkpt><trkpt lat="43.4579803" lon="12.9477883"><ele>464.75</ele><time>2026-04-25T07:33:37.032Z</time></trkpt><trkpt lat="43.4579183" lon="12.9479295"><ele>465.5</ele><time>2026-04-25T07:33:38.032Z</time></trkpt><trkpt lat="43.4578549" lon="12.9480676"><ele>466.25</ele><time>2026-04-25T07:33:39.033Z</time></trkpt><trkpt lat="43.4577965" lon="12.948194"><ele>467.0</ele><time>2026-04-25T07:33:40.034Z</time></trkpt><trkpt lat="43.4577354" lon="12.948321"><ele>467.6</ele><time>2026-04-25T07:33:41.032Z</time></trkpt><trkpt lat="43.4576758" lon="12.9484448"><ele>468.20000000000005</ele><time>2026-04-25T07:33:42.033Z</time></trkpt><trkpt lat="43.4576151" lon="12.9485659"><ele>468.8</ele><time>2026-04-25T07:33:43.032Z</time></trkpt><trkpt lat="43.4575564" lon="12.9486807"><ele>469.4</ele><time>2026-04-25T07:33:44.033Z</time></trkpt><trkpt lat="43.4574983" lon="12.9487944"><ele>470.0</ele><time>2026-04-25T07:33:45.032Z</time></trkpt><trkpt lat="43.4574438" lon="12.9489068"><ele>469.99999999999994</ele><time>2026-04-25T07:33:46.032Z</time></trkpt><trkpt lat="43.4573965" lon="12.9490044"><ele>470.0</ele><time>2026-04-25T07:33:47.033Z</time></trkpt><trkpt lat="43.4573556" lon="12.9490945"><ele>470.0</ele><time>2026-04-25T07:33:48.033Z</time></trkpt><trkpt lat="43.4573152" lon="12.949199"><ele>470.0</ele><time>2026-04-25T07:33:49.032Z</time></trkpt><trkpt lat="43.4572865" lon="12.9493064"><ele>469.99999999999994</ele><time>2026-04-25T07:33:50.032Z</time></trkpt><trkpt lat="43.4572672" lon="12.9494109"><ele>470.0</ele><time>2026-04-25T07:33:51.033Z</time></trkpt><trkpt lat="43.4572537" lon="12.9495169"><ele>470.3333333333333</ele><time>2026-04-25T07:33:52.033Z</time></trkpt><trkpt lat="43.4572409" lon="12.9496207"><ele>470.66666666666663</ele><time>2026-04-25T07:33:53.034Z</time></trkpt><trkpt lat="43.4572302" lon="12.9497205"><ele>471.0</ele><time>2026-04-25T07:33:54.034Z</time></trkpt><trkpt lat="43.4572185" lon="12.9498192"><ele>471.33333333333337</ele><time>2026-04-25T07:33:55.033Z</time></trkpt><trkpt lat="43.4571937" lon="12.9499375"><ele>471.6666666666667</ele><time>2026-04-25T07:33:57.033Z</time></trkpt><trkpt lat="43.4571828" lon="12.9500279"><ele>472.0</ele><time>2026-04-25T07:34:00.033Z</time></trkpt><trkpt lat="43.457245" lon="12.9501083"><ele>470.33333333333337</ele><time>2026-04-25T07:34:02.033Z</time></trkpt><trkpt lat="43.4573267" lon="12.9501572"><ele>468.6666666666667</ele><time>2026-04-25T07:34:04.032Z</time></trkpt><trkpt lat="43.4573897" lon="12.9502097"><ele>467.0</ele><time>2026-04-25T07:34:06.032Z</time></trkpt><trkpt lat="43.457444" lon="12.9502956"><ele>465.33333333333337</ele><time>2026-04-25T07:34:09.032Z</time></trkpt><trkpt lat="43.4574781" lon="12.9503726"><ele>463.6666666666667</ele><time>2026-04-25T07:34:13.033Z</time></trkpt><trkpt lat="43.4574686" lon="12.9502751"><ele>462.0</ele><time>2026-04-25T07:34:18.033Z</time></trkpt><trkpt lat="43.4573798" lon="12.9502166"><ele>462.0</ele><time>2026-04-25T07:34:21.033Z</time></trkpt><trkpt lat="43.4572954" lon="12.9501368"><ele>462.0</ele><time>2026-04-25T07:34:23.032Z</time></trkpt><trkpt lat="43.4572231" lon="12.9500641"><ele>462.0</ele><time>2026-04-25T07:34:25.032Z</time></trkpt><trkpt lat="43.4572007" lon="12.9499689"><ele>462.0</ele><time>2026-04-25T07:34:27.032Z</time></trkpt><trkpt lat="43.4572141" lon="12.9498818"><ele>462.0</ele><time>2026-04-25T07:34:28.034Z</time></trkpt><trkpt lat="43.4572353" lon="12.9497686"><ele>462.0</ele><time>2026-04-25T07:34:29.032Z</time></trkpt><trkpt lat="43.4572556" lon="12.9496316"><ele>463.6</ele><time>2026-04-25T07:34:30.033Z</time></trkpt><trkpt lat="43.457264" lon="12.9494851"><ele>465.20000000000005</ele><time>2026-04-25T07:34:31.033Z</time></trkpt><trkpt lat="43.4572868" lon="12.9493553"><ele>466.8</ele><time>2026-04-25T07:34:32.032Z</time></trkpt><trkpt lat="43.457322" lon="12.9492302"><ele>468.4</ele><time>2026-04-25T07:34:33.032Z</time></trkpt><trkpt lat="43.4573703" lon="12.9490979"><ele>470.0</ele><time>2026-04-25T07:34:34.033Z</time></trkpt><trkpt lat="43.4574233" lon="12.9489739"><ele>470.0</ele><time>2026-04-25T07:34:35.033Z</time></trkpt><trkpt lat="43.457477" lon="12.9488558"><ele>470.0</ele><time>2026-04-25T07:34:36.032Z</time></trkpt><trkpt lat="43.4575386" lon="12.9487337"><ele>470.0</ele><time>2026-04-25T07:34:37.033Z</time></trkpt><trkpt lat="43.4575979" lon="12.9486156"><ele>470.0</ele><time>2026-04-25T07:34:38.032Z</time></trkpt><trkpt lat="43.4576548" lon="12.948505"><ele>470.0</ele><time>2026-04-25T07:34:39.033Z</time></trkpt><trkpt lat="43.4577058" lon="12.9484047"><ele>469.49999999999994</ele><time>2026-04-25T07:34:40.033Z</time></trkpt><trkpt lat="43.4577521" lon="12.9483077"><ele>469.0</ele><time>2026-04-25T07:34:41.032Z</time></trkpt><trkpt lat="43.4577952" lon="12.9482133"><ele>468.5</ele><time>2026-04-25T07:34:42.032Z</time></trkpt><trkpt lat="43.4578366" lon="12.9481199"><ele>468.0</ele><time>2026-04-25T07:34:43.033Z</time></trkpt><trkpt lat="43.45788" lon="12.9480244"><ele>467.49999999999994</ele><time>2026-04-25T07:34:44.032Z</time></trkpt><trkpt lat="43.4579259" lon="12.9479219"><ele>467.0</ele><time>2026-04-25T07:34:45.032Z</time></trkpt><trkpt lat="43.4579757" lon="12.9478154"><ele>466.49999999999994</ele><time>2026-04-25T07:34:46.033Z</time></trkpt><trkpt lat="43.4580253" lon="12.9477084"><ele>466.0</ele><time>2026-04-25T07:34:47.033Z</time></trkpt><trkpt lat="43.4580737" lon="12.9476062"><ele>465.5</ele><time>2026-04-25T07:34:48.032Z</time></trkpt><trkpt lat="43.4581146" lon="12.9475094"><ele>465.0</ele><time>2026-04-25T07:34:49.032Z</time></trkpt><trkpt lat="43.4581437" lon="12.9474192"><ele>464.49999999999994</ele><time>2026-04-25T07:34:50.032Z</time></trkpt><trkpt lat="43.4581602" lon="12.9472833"><ele>464.0</ele><time>2026-04-25T07:34:52.032Z</time></trkpt><trkpt lat="43.4581138" lon="12.9471717"><ele>464.0</ele><time>2026-04-25T07:34:54.034Z</time></trkpt><trkpt lat="43.4580494" lon="12.9471059"><ele>464.0</ele><time>2026-04-25T07:34:55.032Z</time></trkpt><trkpt lat="43.4579619" lon="12.9470018"><ele>464.0</ele><time>2026-04-25T07:34:56.033Z</time></trkpt><trkpt lat="43.4578682" lon="12.9468489"><ele>464.0</ele><time>2026-04-25T07:34:57.032Z</time></trkpt><trkpt lat="43.4577747" lon="12.9466778"><ele>462.0</ele><time>2026-04-25T07:34:58.033Z</time></trkpt><trkpt lat="43.4576862" lon="12.9465284"><ele>460.0</ele><time>2026-04-25T07:34:59.033Z</time></trkpt><trkpt lat="43.4575833" lon="12.9463801"><ele>458.0</ele><time>2026-04-25T07:35:00.033Z</time></trkpt><trkpt lat="43.4574623" lon="12.9462316"><ele>458.0</ele><time>2026-04-25T07:35:01.032Z</time></trkpt><trkpt lat="43.4573454" lon="12.9461059"><ele>458.0</ele><time>2026-04-25T07:35:02.032Z</time></trkpt><trkpt lat="43.4572333" lon="12.9459988"><ele>458.0</ele><time>2026-04-25T07:35:03.032Z</time></trkpt><trkpt lat="43.4571298" lon="12.9459072"><ele>458.0</ele><time>2026-04-25T07:35:04.032Z</time></trkpt><trkpt lat="43.457039" lon="12.9458299"><ele>457.4</ele><time>2026-04-25T07:35:05.032Z</time></trkpt><trkpt lat="43.4569616" lon="12.9457875"><ele>456.79999999999995</ele><time>2026-04-25T07:35:06.034Z</time></trkpt><trkpt lat="43.456852" lon="12.9458298"><ele>456.2</ele><time>2026-04-25T07:35:08.034Z</time></trkpt><trkpt lat="43.456834" lon="12.9459845"><ele>455.6</ele><time>2026-04-25T07:35:10.032Z</time></trkpt><trkpt lat="43.4568785" lon="12.9460985"><ele>455.0</ele><time>2026-04-25T07:35:11.033Z</time></trkpt><trkpt lat="43.456967" lon="12.9462633"><ele>453.8</ele><time>2026-04-25T07:35:12.034Z</time></trkpt><trkpt lat="43.4570342" lon="12.9464079"><ele>452.6</ele><time>2026-04-25T07:35:13.032Z</time></trkpt><trkpt lat="43.4570857" lon="12.9466299"><ele>451.4</ele><time>2026-04-25T07:35:15.033Z</time></trkpt><trkpt lat="43.4570727" lon="12.9467245"><ele>450.2</ele><time>2026-04-25T07:35:16.032Z</time></trkpt><trkpt lat="43.4570349" lon="12.9468221"><ele>449.0</ele><time>2026-04-25T07:35:17.033Z</time></trkpt><trkpt lat="43.4569744" lon="12.9469227"><ele>448.99999999999994</ele><time>2026-04-25T07:35:18.033Z</time></trkpt><trkpt lat="43.4569038" lon="12.9470134"><ele>449.0</ele><time>2026-04-25T07:35:19.032Z</time></trkpt><trkpt lat="43.4568231" lon="12.9470824"><ele>449.0</ele><time>2026-04-25T07:35:20.032Z</time></trkpt><trkpt lat="43.4567484" lon="12.9471206"><ele>449.0</ele><time>2026-04-25T07:35:21.032Z</time></trkpt><trkpt lat="43.4566655" lon="12.9471614"><ele>448.99999999999994</ele><time>2026-04-25T07:35:22.032Z</time></trkpt><trkpt lat="43.4566013" lon="12.9472069"><ele>449.0</ele><time>2026-04-25T07:35:23.032Z</time></trkpt><trkpt lat="43.4565457" lon="12.9473161"><ele>449.0</ele><time>2026-04-25T07:35:25.032Z</time></trkpt><trkpt lat="43.4565553" lon="12.9474473"><ele>449.0</ele><time>2026-04-25T07:35:27.033Z</time></trkpt><trkpt lat="43.4565691" lon="12.9475792"><ele>449.0</ele><time>2026-04-25T07:35:29.032Z</time></trkpt><trkpt lat="43.4565827" lon="12.9476662"><ele>449.0</ele><time>2026-04-25T07:35:32.032Z</time></trkpt><trkpt lat="43.4565714" lon="12.9475469"><ele>449.0</ele><time>2026-04-25T07:35:43.033Z</time></trkpt><trkpt lat="43.4565461" lon="12.9473988"><ele>449.0</ele><time>2026-04-25T07:35:45.033Z</time></trkpt><trkpt lat="43.4565431" lon="12.9473111"><ele>449.0</ele><time>2026-04-25T07:35:47.032Z</time></trkpt><trkpt lat="43.4566283" lon="12.9471951"><ele>449.0</ele><time>2026-04-25T07:38:09.033Z</time></trkpt><trkpt lat="43.4567603" lon="12.9471312"><ele>449.0</ele><time>2026-04-25T07:38:11.032Z</time></trkpt><trkpt lat="43.4568322" lon="12.9470864"><ele>449.0</ele><time>2026-04-25T07:38:12.032Z</time></trkpt><trkpt lat="43.4569067" lon="12.9469882"><ele>449.0</ele><time>2026-04-25T07:38:14.032Z</time></trkpt><trkpt lat="43.4568736" lon="12.9468897"><ele>449.0</ele><time>2026-04-25T07:38:16.033Z</time></trkpt><trkpt lat="43.4568038" lon="12.946823"><ele>449.0</ele><time>2026-04-25T07:38:17.033Z</time></trkpt><trkpt lat="43.4567161" lon="12.9467122"><ele>449.0</ele><time>2026-04-25T07:38:18.032Z</time></trkpt><trkpt lat="43.4566279" lon="12.9465499"><ele>449.0</ele><time>2026-04-25T07:38:19.033Z</time></trkpt><trkpt lat="43.4565532" lon="12.9464017"><ele>447.75</ele><time>2026-04-25T07:38:20.033Z</time></trkpt><trkpt lat="43.4564733" lon="12.9462989"><ele>446.5</ele><time>2026-04-25T07:38:21.034Z</time></trkpt><trkpt lat="43.456363" lon="12.9462139"><ele>445.25</ele><time>2026-04-25T07:38:22.032Z</time></trkpt><trkpt lat="43.4562269" lon="12.9461513"><ele>444.0</ele><time>2026-04-25T07:38:23.033Z</time></trkpt><trkpt lat="43.4560712" lon="12.946106"><ele>440.0</ele><time>2026-04-25T07:38:24.032Z</time></trkpt><trkpt lat="43.4559081" lon="12.946061"><ele>436.0</ele><time>2026-04-25T07:38:25.033Z</time></trkpt><trkpt lat="43.4557508" lon="12.9460154"><ele>432.0</ele><time>2026-04-25T07:38:26.032Z</time></trkpt><trkpt lat="43.4556024" lon="12.9459721"><ele>432.0</ele><time>2026-04-25T07:38:27.033Z</time></trkpt><trkpt lat="43.4554611" lon="12.945926"><ele>432.0</ele><time>2026-04-25T07:38:28.032Z</time></trkpt><trkpt lat="43.4553244" lon="12.9458786"><ele>432.0</ele><time>2026-04-25T07:38:29.032Z</time></trkpt><trkpt lat="43.4551873" lon="12.9458307"><ele>432.0</ele><time>2026-04-25T07:38:30.032Z</time></trkpt><trkpt lat="43.4550463" lon="12.9457826"><ele>431.0</ele><time>2026-04-25T07:38:31.032Z</time></trkpt><trkpt lat="43.454906" lon="12.9457313"><ele>430.0</ele><time>2026-04-25T07:38:32.032Z</time></trkpt><trkpt lat="43.4547744" lon="12.9456727"><ele>429.0</ele><time>2026-04-25T07:38:33.032Z</time></trkpt><trkpt lat="43.4546555" lon="12.9456048"><ele>428.0</ele><time>2026-04-25T07:38:34.032Z</time></trkpt><trkpt lat="43.4545489" lon="12.9455184"><ele>426.25</ele><time>2026-04-25T07:38:35.032Z</time></trkpt><trkpt lat="43.4544471" lon="12.945381"><ele>424.5</ele><time>2026-04-25T07:38:36.032Z</time></trkpt><trkpt lat="43.454336" lon="12.9452211"><ele>422.75</ele><time>2026-04-25T07:38:37.033Z</time></trkpt><trkpt lat="43.4542325" lon="12.945085"><ele>421.0</ele><time>2026-04-25T07:38:38.032Z</time></trkpt><trkpt lat="43.4541236" lon="12.944955"><ele>421.0</ele><time>2026-04-25T07:38:39.034Z</time></trkpt><trkpt lat="43.4540197" lon="12.9448085"><ele>421.0</ele><time>2026-04-25T07:38:40.033Z</time></trkpt><trkpt lat="43.4539317" lon="12.9446365"><ele>421.0</ele><time>2026-04-25T07:38:41.033Z</time></trkpt><trkpt lat="43.4538383" lon="12.9444597"><ele>418.0</ele><time>2026-04-25T07:38:42.032Z</time></trkpt><trkpt lat="43.4537435" lon="12.9442992"><ele>415.0</ele><time>2026-04-25T07:38:43.032Z</time></trkpt><trkpt lat="43.4536456" lon="12.9441546"><ele>412.0</ele><time>2026-04-25T07:38:44.032Z</time></trkpt><trkpt lat="43.453544" lon="12.9440424"><ele>409.0</ele><time>2026-04-25T07:38:45.033Z</time></trkpt><trkpt lat="43.4534399" lon="12.9439684"><ele>409.0</ele><time>2026-04-25T07:38:46.033Z</time></trkpt><trkpt lat="43.453335" lon="12.9439381"><ele>409.0</ele><time>2026-04-25T07:38:47.033Z</time></trkpt><trkpt lat="43.4532193" lon="12.9439642"><ele>409.0</ele><time>2026-04-25T07:38:48.033Z</time></trkpt><trkpt lat="43.4530829" lon="12.9440388"><ele>409.0</ele><time>2026-04-25T07:38:49.033Z</time></trkpt><trkpt lat="43.4529611" lon="12.9441225"><ele>407.2</ele><time>2026-04-25T07:38:50.032Z</time></trkpt><trkpt lat="43.452855" lon="12.9441906"><ele>405.4</ele><time>2026-04-25T07:38:51.032Z</time></trkpt><trkpt lat="43.4527559" lon="12.9442197"><ele>403.6</ele><time>2026-04-25T07:38:52.033Z</time></trkpt><trkpt lat="43.4526534" lon="12.9442025"><ele>401.8</ele><time>2026-04-25T07:38:53.032Z</time></trkpt><trkpt lat="43.4525499" lon="12.9441508"><ele>400.0</ele><time>2026-04-25T07:38:54.034Z</time></trkpt><trkpt lat="43.4524577" lon="12.944079"><ele>400.00000000000006</ele><time>2026-04-25T07:38:55.033Z</time></trkpt><trkpt lat="43.4523713" lon="12.944003"><ele>400.0</ele><time>2026-04-25T07:38:56.033Z</time></trkpt><trkpt lat="43.4522855" lon="12.9439382"><ele>400.0</ele><time>2026-04-25T07:38:57.033Z</time></trkpt><trkpt lat="43.4522077" lon="12.9438965"><ele>400.0</ele><time>2026-04-25T07:38:58.032Z</time></trkpt><trkpt lat="43.4521398" lon="12.943867"><ele>400.00000000000006</ele><time>2026-04-25T07:38:59.032Z</time></trkpt><trkpt lat="43.4520623" lon="12.9438538"><ele>400.0</ele><time>2026-04-25T07:39:01.032Z</time></trkpt><trkpt lat="43.4520866" lon="12.9439445"><ele>400.00000000000006</ele><time>2026-04-25T07:39:09.033Z</time></trkpt><trkpt lat="43.4521481" lon="12.9440008"><ele>400.0</ele><time>2026-04-25T07:39:11.033Z</time></trkpt><trkpt lat="43.4522069" lon="12.9440819"><ele>400.0</ele><time>2026-04-25T07:39:13.032Z</time></trkpt><trkpt lat="43.4522609" lon="12.9442004"><ele>400.0</ele><time>2026-04-25T07:39:15.032Z</time></trkpt><trkpt lat="43.4523019" lon="12.9443017"><ele>400.00000000000006</ele><time>2026-04-25T07:39:16.033Z</time></trkpt><trkpt lat="43.4523448" lon="12.9444016"><ele>400.0</ele><time>2026-04-25T07:39:17.033Z</time></trkpt><trkpt lat="43.452381" lon="12.9444971"><ele>397.33333333333337</ele><time>2026-04-25T07:39:18.032Z</time></trkpt><trkpt lat="43.452414" lon="12.9445888"><ele>394.6666666666667</ele><time>2026-04-25T07:39:19.032Z</time></trkpt><trkpt lat="43.4524874" lon="12.9446981"><ele>392.0</ele><time>2026-04-25T07:39:21.032Z</time></trkpt><trkpt lat="43.4525804" lon="12.9447168"><ele>389.33333333333337</ele><time>2026-04-25T07:39:23.033Z</time></trkpt><trkpt lat="43.4526616" lon="12.9446939"><ele>386.6666666666667</ele><time>2026-04-25T07:39:24.033Z</time></trkpt><trkpt lat="43.4527401" lon="12.9446633"><ele>384.0</ele><time>2026-04-25T07:39:25.033Z</time></trkpt><trkpt lat="43.4528" lon="12.944627"><ele>384.0</ele><time>2026-04-25T07:39:26.034Z</time></trkpt><trkpt lat="43.4528709" lon="12.9445682"><ele>384.0</ele><time>2026-04-25T07:39:27.033Z</time></trkpt><trkpt lat="43.4529392" lon="12.9445389"><ele>384.0</ele><time>2026-04-25T07:39:28.034Z</time></trkpt><trkpt lat="43.4530039" lon="12.9445145"><ele>384.0</ele><time>2026-04-25T07:39:29.033Z</time></trkpt><trkpt lat="43.4530884" lon="12.9444861"><ele>384.0</ele><time>2026-04-25T07:39:31.032Z</time></trkpt><trkpt lat="43.4531813" lon="12.9445287"><ele>384.0</ele><time>2026-04-25T07:39:33.032Z</time></trkpt><trkpt lat="43.4532476" lon="12.9446174"><ele>384.1666666666667</ele><time>2026-04-25T07:39:35.032Z</time></trkpt><trkpt lat="43.4532764" lon="12.9447148"><ele>384.33333333333337</ele><time>2026-04-25T07:39:37.032Z</time></trkpt><trkpt lat="43.45324" lon="12.944791"><ele>384.5</ele><time>2026-04-25T07:39:39.034Z</time></trkpt><trkpt lat="43.4531697" lon="12.9448955"><ele>384.6666666666667</ele><time>2026-04-25T07:39:41.032Z</time></trkpt><trkpt lat="43.4531203" lon="12.9449715"><ele>384.83333333333337</ele><time>2026-04-25T07:39:43.033Z</time></trkpt><trkpt lat="43.4530487" lon="12.9450644"><ele>385.0</ele><time>2026-04-25T07:39:46.032Z</time></trkpt><trkpt lat="43.4530008" lon="12.945127"><ele>383.6666666666667</ele><time>2026-04-25T07:39:48.033Z</time></trkpt><trkpt lat="43.452934" lon="12.9451958"><ele>382.33333333333337</ele><time>2026-04-25T07:39:51.032Z</time></trkpt><trkpt lat="43.4528822" lon="12.9452576"><ele>381.0</ele><time>2026-04-25T07:39:53.032Z</time></trkpt><trkpt lat="43.4528232" lon="12.945351"><ele>379.6666666666667</ele><time>2026-04-25T07:39:55.032Z</time></trkpt><trkpt lat="43.4527883" lon="12.9454302"><ele>378.33333333333337</ele><time>2026-04-25T07:39:57.032Z</time></trkpt><trkpt lat="43.4527371" lon="12.9455038"><ele>377.0</ele><time>2026-04-25T07:39:59.032Z</time></trkpt><trkpt lat="43.452685" lon="12.9455685"><ele>376.99999999999994</ele><time>2026-04-25T07:40:01.032Z</time></trkpt><trkpt lat="43.4526329" lon="12.9456376"><ele>377.0</ele><time>2026-04-25T07:40:03.032Z</time></trkpt><trkpt lat="43.4525693" lon="12.9457022"><ele>377.0</ele><time>2026-04-25T07:40:05.032Z</time></trkpt><trkpt lat="43.4525029" lon="12.9457432"><ele>377.0</ele><time>2026-04-25T07:40:07.032Z</time></trkpt><trkpt lat="43.4524419" lon="12.9457751"><ele>377.0</ele><time>2026-04-25T07:40:09.034Z</time></trkpt><trkpt lat="43.4523759" lon="12.9458218"><ele>376.99999999999994</ele><time>2026-04-25T07:40:11.032Z</time></trkpt><trkpt lat="43.4523091" lon="12.9458603"><ele>377.0</ele><time>2026-04-25T07:40:13.033Z</time></trkpt><trkpt lat="43.4522249" lon="12.9458742"><ele>377.1666666666667</ele><time>2026-04-25T07:40:16.032Z</time></trkpt><trkpt lat="43.4521442" lon="12.945912"><ele>377.33333333333337</ele><time>2026-04-25T07:40:19.033Z</time></trkpt><trkpt lat="43.4521328" lon="12.9460109"><ele>377.5</ele><time>2026-04-25T07:40:23.032Z</time></trkpt><trkpt lat="43.4521599" lon="12.9461257"><ele>377.6666666666667</ele><time>2026-04-25T07:40:26.033Z</time></trkpt><trkpt lat="43.4521609" lon="12.9462157"><ele>377.8333333333333</ele><time>2026-04-25T07:40:28.032Z</time></trkpt><trkpt lat="43.4521418" lon="12.9463145"><ele>378.0</ele><time>2026-04-25T07:40:31.032Z</time></trkpt><trkpt lat="43.4520847" lon="12.9463723"><ele>378.0</ele><time>2026-04-25T07:40:51.032Z</time></trkpt><trkpt lat="43.4521356" lon="12.9463009"><ele>378.0</ele><time>2026-04-25T07:42:57.032Z</time></trkpt><trkpt lat="43.4521675" lon="12.9461869"><ele>378.0</ele><time>2026-04-25T07:43:00.032Z</time></trkpt><trkpt lat="43.452177" lon="12.9460899"><ele>378.0</ele><time>2026-04-25T07:43:03.033Z</time></trkpt><trkpt lat="43.4521456" lon="12.9459808"><ele>378.0</ele><time>2026-04-25T07:43:06.032Z</time></trkpt><trkpt lat="43.4521619" lon="12.9458772"><ele>378.0</ele><time>2026-04-25T07:43:09.033Z</time></trkpt><trkpt lat="43.4522512" lon="12.9458515"><ele>377.8333333333333</ele><time>2026-04-25T07:43:12.032Z</time></trkpt><trkpt lat="43.4523285" lon="12.9458445"><ele>377.6666666666667</ele><time>2026-04-25T07:43:14.033Z</time></trkpt><trkpt lat="43.4524221" lon="12.9457928"><ele>377.5</ele><time>2026-04-25T07:43:16.033Z</time></trkpt><trkpt lat="43.4525106" lon="12.9457378"><ele>377.33333333333337</ele><time>2026-04-25T07:43:18.032Z</time></trkpt><trkpt lat="43.4525744" lon="12.945695"><ele>377.1666666666667</ele><time>2026-04-25T07:43:20.032Z</time></trkpt><trkpt lat="43.4526365" lon="12.9456268"><ele>377.0</ele><time>2026-04-25T07:43:22.032Z</time></trkpt><trkpt lat="43.4527067" lon="12.945535"><ele>377.0</ele><time>2026-04-25T07:43:24.032Z</time></trkpt><trkpt lat="43.4527733" lon="12.9454471"><ele>377.0</ele><time>2026-04-25T07:43:26.031Z</time></trkpt><trkpt lat="43.4528296" lon="12.9453375"><ele>377.0</ele><time>2026-04-25T07:43:28.032Z</time></trkpt><trkpt lat="43.4528856" lon="12.9452509"><ele>377.0</ele><time>2026-04-25T07:43:30.031Z</time></trkpt><trkpt lat="43.4529537" lon="12.9451717"><ele>377.0</ele><time>2026-04-25T07:43:32.032Z</time></trkpt><trkpt lat="43.4530356" lon="12.9450836"><ele>380.0</ele><time>2026-04-25T07:43:34.031Z</time></trkpt><trkpt lat="43.4531499" lon="12.9449334"><ele>383.0</ele><time>2026-04-25T07:43:36.032Z</time></trkpt><trkpt lat="43.4532095" lon="12.9448445"><ele>386.0</ele><time>2026-04-25T07:43:37.031Z</time></trkpt><trkpt lat="43.4532628" lon="12.9447235"><ele>389.0</ele><time>2026-04-25T07:43:39.032Z</time></trkpt><trkpt lat="43.4532734" lon="12.9445895"><ele>392.0</ele><time>2026-04-25T07:43:41.031Z</time></trkpt><trkpt lat="43.4531849" lon="12.9444795"><ele>392.0</ele><time>2026-04-25T07:43:43.031Z</time></trkpt><trkpt lat="43.4531149" lon="12.9444544"><ele>392.0</ele><time>2026-04-25T07:43:44.031Z</time></trkpt><trkpt lat="43.4529837" lon="12.9444957"><ele>392.0</ele><time>2026-04-25T07:43:46.032Z</time></trkpt><trkpt lat="43.4528967" lon="12.9445316"><ele>392.0</ele><time>2026-04-25T07:43:47.032Z</time></trkpt><trkpt lat="43.452839" lon="12.9445784"><ele>392.0</ele><time>2026-04-25T07:43:48.031Z</time></trkpt><trkpt lat="43.4527634" lon="12.944637"><ele>390.40000000000003</ele><time>2026-04-25T07:43:49.031Z</time></trkpt><trkpt lat="43.4526913" lon="12.9446649"><ele>388.8</ele><time>2026-04-25T07:43:50.033Z</time></trkpt><trkpt lat="43.4525925" lon="12.9446935"><ele>387.2</ele><time>2026-04-25T07:43:51.031Z</time></trkpt><trkpt lat="43.4524798" lon="12.9446994"><ele>385.6</ele><time>2026-04-25T07:43:53.032Z</time></trkpt><trkpt lat="43.452413" lon="12.944603"><ele>384.0</ele><time>2026-04-25T07:43:55.031Z</time></trkpt><trkpt lat="43.4523686" lon="12.9444893"><ele>384.0</ele><time>2026-04-25T07:43:56.032Z</time></trkpt><trkpt lat="43.4523241" lon="12.9443845"><ele>384.0</ele><time>2026-04-25T07:43:57.033Z</time></trkpt><trkpt lat="43.4522645" lon="12.9442523"><ele>384.0</ele><time>2026-04-25T07:43:58.031Z</time></trkpt><trkpt lat="43.4522294" lon="12.94416"><ele>384.0</ele><time>2026-04-25T07:43:59.031Z</time></trkpt><trkpt lat="43.4521948" lon="12.9440863"><ele>384.0</ele><time>2026-04-25T07:44:00.031Z</time></trkpt><trkpt lat="43.4521162" lon="12.9439788"><ele>386.0</ele><time>2026-04-25T07:44:02.031Z</time></trkpt><trkpt lat="43.4520507" lon="12.943923"><ele>388.0</ele><time>2026-04-25T07:44:05.031Z</time></trkpt><trkpt lat="43.4519417" lon="12.9439267"><ele>390.0</ele><time>2026-04-25T07:44:07.031Z</time></trkpt><trkpt lat="43.4518749" lon="12.943971"><ele>392.0</ele><time>2026-04-25T07:44:08.031Z</time></trkpt><trkpt lat="43.4517568" lon="12.9440559"><ele>394.0</ele><time>2026-04-25T07:44:09.031Z</time></trkpt><trkpt lat="43.4516206" lon="12.9441561"><ele>391.2</ele><time>2026-04-25T07:44:10.032Z</time></trkpt><trkpt lat="43.4515289" lon="12.9442221"><ele>388.4</ele><time>2026-04-25T07:44:11.032Z</time></trkpt><trkpt lat="43.4514427" lon="12.9442831"><ele>385.6</ele><time>2026-04-25T07:44:12.031Z</time></trkpt><trkpt lat="43.4513624" lon="12.9443254"><ele>382.8</ele><time>2026-04-25T07:44:13.032Z</time></trkpt><trkpt lat="43.4512794" lon="12.9443463"><ele>380.0</ele><time>2026-04-25T07:44:14.032Z</time></trkpt><trkpt lat="43.4511822" lon="12.9443541"><ele>379.4</ele><time>2026-04-25T07:44:15.031Z</time></trkpt><trkpt lat="43.451078" lon="12.9443414"><ele>378.8</ele><time>2026-04-25T07:44:16.032Z</time></trkpt><trkpt lat="43.4509665" lon="12.9443229"><ele>378.20000000000005</ele><time>2026-04-25T07:44:17.032Z</time></trkpt><trkpt lat="43.4508551" lon="12.9443061"><ele>377.6</ele><time>2026-04-25T07:44:18.031Z</time></trkpt><trkpt lat="43.4507485" lon="12.9442963"><ele>377.0</ele><time>2026-04-25T07:44:19.031Z</time></trkpt><trkpt lat="43.4506479" lon="12.9442985"><ele>377.0</ele><time>2026-04-25T07:44:20.031Z</time></trkpt><trkpt lat="43.4505522" lon="12.9442949"><ele>377.0</ele><time>2026-04-25T07:44:21.031Z</time></trkpt><trkpt lat="43.4504603" lon="12.9442959"><ele>377.0</ele><time>2026-04-25T07:44:22.032Z</time></trkpt><trkpt lat="43.4503591" lon="12.9442912"><ele>377.0</ele><time>2026-04-25T07:44:23.032Z</time></trkpt><trkpt lat="43.4502387" lon="12.9442677"><ele>377.0</ele><time>2026-04-25T07:44:24.033Z</time></trkpt><trkpt lat="43.4501194" lon="12.9442223"><ele>378.5</ele><time>2026-04-25T07:44:25.031Z</time></trkpt><trkpt lat="43.45001" lon="12.9441594"><ele>380.0</ele><time>2026-04-25T07:44:26.031Z</time></trkpt><trkpt lat="43.4498907" lon="12.9440673"><ele>381.5</ele><time>2026-04-25T07:44:27.031Z</time></trkpt><trkpt lat="43.4497701" lon="12.9439467"><ele>383.0</ele><time>2026-04-25T07:44:28.031Z</time></trkpt><trkpt lat="43.4496491" lon="12.9438007"><ele>381.6666666666667</ele><time>2026-04-25T07:44:29.031Z</time></trkpt><trkpt lat="43.4495183" lon="12.9436366"><ele>380.3333333333333</ele><time>2026-04-25T07:44:30.032Z</time></trkpt><trkpt lat="43.4493853" lon="12.9434778"><ele>379.0</ele><time>2026-04-25T07:44:31.032Z</time></trkpt><trkpt lat="43.4492668" lon="12.9433246"><ele>379.0</ele><time>2026-04-25T07:44:32.032Z</time></trkpt><trkpt lat="43.4491684" lon="12.9431648"><ele>379.0</ele><time>2026-04-25T07:44:33.032Z</time></trkpt><trkpt lat="43.4490842" lon="12.9429875"><ele>379.0</ele><time>2026-04-25T07:44:34.031Z</time></trkpt><trkpt lat="43.449007" lon="12.9427877"><ele>379.0</ele><time>2026-04-25T07:44:35.033Z</time></trkpt><trkpt lat="43.4489346" lon="12.9425889"><ele>379.0</ele><time>2026-04-25T07:44:36.033Z</time></trkpt><trkpt lat="43.4488721" lon="12.9424003"><ele>379.0</ele><time>2026-04-25T07:44:37.031Z</time></trkpt><trkpt lat="43.4488183" lon="12.9422234"><ele>378.0</ele><time>2026-04-25T07:44:38.032Z</time></trkpt><trkpt lat="43.4487587" lon="12.9420584"><ele>377.0</ele><time>2026-04-25T07:44:39.031Z</time></trkpt><trkpt lat="43.4486894" lon="12.9419019"><ele>376.0</ele><time>2026-04-25T07:44:40.033Z</time></trkpt><trkpt lat="43.4486129" lon="12.941753"><ele>375.0</ele><time>2026-04-25T07:44:41.031Z</time></trkpt><trkpt lat="43.4485385" lon="12.9416219"><ele>376.3333333333333</ele><time>2026-04-25T07:44:42.031Z</time></trkpt><trkpt lat="43.4484672" lon="12.9415199"><ele>377.6666666666667</ele><time>2026-04-25T07:44:43.031Z</time></trkpt><trkpt lat="43.4484068" lon="12.9414483"><ele>379.0</ele><time>2026-04-25T07:44:44.032Z</time></trkpt><trkpt lat="43.4483274" lon="12.9413671"><ele>380.33333333333337</ele><time>2026-04-25T07:44:46.031Z</time></trkpt><trkpt lat="43.4482633" lon="12.9413443"><ele>381.6666666666667</ele><time>2026-04-25T07:45:02.031Z</time></trkpt><trkpt lat="43.4482474" lon="12.9412388"><ele>383.0</ele><time>2026-04-25T07:45:12.031Z</time></trkpt><trkpt lat="43.4482676" lon="12.9411556"><ele>383.0</ele><time>2026-04-25T07:45:16.032Z</time></trkpt><trkpt lat="43.4483128" lon="12.9410517"><ele>383.0</ele><time>2026-04-25T07:50:45.032Z</time></trkpt><trkpt lat="43.4483759" lon="12.9410246"><ele>383.0</ele><time>2026-04-25T07:50:48.031Z</time></trkpt><trkpt lat="43.4484407" lon="12.9409601"><ele>383.0</ele><time>2026-04-25T07:50:54.031Z</time></trkpt><trkpt lat="43.4485065" lon="12.9409935"><ele>383.0</ele><time>2026-04-25T07:54:52.031Z</time></trkpt><trkpt lat="43.4485845" lon="12.9409405"><ele>383.0</ele><time>2026-04-25T08:00:24.032Z</time></trkpt><trkpt lat="43.4486445" lon="12.9408808"><ele>383.0</ele><time>2026-04-25T08:00:57.032Z</time></trkpt><trkpt lat="43.4486991" lon="12.9408054"><ele>383.0</ele><time>2026-04-25T08:01:02.032Z</time></trkpt><trkpt lat="43.4487662" lon="12.9408174"><ele>383.0</ele><time>2026-04-25T08:01:07.031Z</time></trkpt><trkpt lat="43.4487775" lon="12.9409079"><ele>383.0</ele><time>2026-04-25T08:01:20.031Z</time></trkpt><trkpt lat="43.4488384" lon="12.9409638"><ele>383.0</ele><time>2026-04-25T08:01:25.031Z</time></trkpt><trkpt lat="43.4488616" lon="12.9410563"><ele>383.0</ele><time>2026-04-25T08:01:34.033Z</time></trkpt><trkpt lat="43.4488928" lon="12.9411326"><ele>383.0</ele><time>2026-04-25T08:01:41.031Z</time></trkpt><trkpt lat="43.4489587" lon="12.9411319"><ele>385.57142857142856</ele><time>2026-04-25T08:01:52.031Z</time></trkpt><trkpt lat="43.4490152" lon="12.9411715"><ele>388.1428571428571</ele><time>2026-04-25T08:02:01.033Z</time></trkpt><trkpt lat="43.4490789" lon="12.9411639"><ele>390.7142857142857</ele><time>2026-04-25T08:02:07.032Z</time></trkpt><trkpt lat="43.4491446" lon="12.9411445"><ele>393.2857142857143</ele><time>2026-04-25T08:02:13.032Z</time></trkpt><trkpt lat="43.4492107" lon="12.9411055"><ele>395.8571428571429</ele><time>2026-04-25T08:02:59.032Z</time></trkpt><trkpt lat="43.4492561" lon="12.9410409"><ele>398.42857142857144</ele><time>2026-04-25T08:03:04.032Z</time></trkpt><trkpt lat="43.4493031" lon="12.9409815"><ele>401.0</ele><time>2026-04-25T08:03:08.033Z</time></trkpt><trkpt lat="43.449363" lon="12.9409368"><ele>401.57142857142856</ele><time>2026-04-25T08:03:14.031Z</time></trkpt><trkpt lat="43.4494229" lon="12.9408801"><ele>402.14285714285717</ele><time>2026-04-25T08:03:21.032Z</time></trkpt><trkpt lat="43.449465" lon="12.9408103"><ele>402.71428571428567</ele><time>2026-04-25T08:03:28.033Z</time></trkpt><trkpt lat="43.4494989" lon="12.9407301"><ele>403.2857142857143</ele><time>2026-04-25T08:03:34.033Z</time></trkpt><trkpt lat="43.4495401" lon="12.9406569"><ele>403.85714285714283</ele><time>2026-04-25T08:03:40.033Z</time></trkpt><trkpt lat="43.4495583" lon="12.9405605"><ele>404.4285714285714</ele><time>2026-04-25T08:03:47.034Z</time></trkpt><trkpt lat="43.4495639" lon="12.9404658"><ele>405.0</ele><time>2026-04-25T08:03:54.033Z</time></trkpt><trkpt lat="43.4495834" lon="12.9403725"><ele>404.99999999999994</ele><time>2026-04-25T08:04:00.033Z</time></trkpt><trkpt lat="43.4496153" lon="12.9402917"><ele>405.0</ele><time>2026-04-25T08:04:07.032Z</time></trkpt><trkpt lat="43.4496403" lon="12.9402028"><ele>405.0</ele><time>2026-04-25T08:04:13.032Z</time></trkpt><trkpt lat="43.4496256" lon="12.9401058"><ele>405.0</ele><time>2026-04-25T08:04:21.033Z</time></trkpt><trkpt lat="43.4496145" lon="12.940006"><ele>405.0</ele><time>2026-04-25T08:04:27.032Z</time></trkpt><trkpt lat="43.4495922" lon="12.9399203"><ele>404.99999999999994</ele><time>2026-04-25T08:04:33.032Z</time></trkpt><trkpt lat="43.4495702" lon="12.9398316"><ele>405.0</ele><time>2026-04-25T08:04:39.033Z</time></trkpt><trkpt lat="43.4495598" lon="12.9397415"><ele>406.57142857142856</ele><time>2026-04-25T08:04:44.033Z</time></trkpt><trkpt lat="43.449537" lon="12.9396561"><ele>408.1428571428571</ele><time>2026-04-25T08:04:50.033Z</time></trkpt><trkpt lat="43.449494" lon="12.9395864"><ele>409.71428571428567</ele><time>2026-04-25T08:04:56.033Z</time></trkpt><trkpt lat="43.4494513" lon="12.9395026"><ele>411.2857142857143</ele><time>2026-04-25T08:05:02.033Z</time></trkpt><trkpt lat="43.449431" lon="12.9394181"><ele>412.8571428571429</ele><time>2026-04-25T08:05:09.034Z</time></trkpt><trkpt lat="43.4494528" lon="12.9395165"><ele>414.4285714285714</ele><time>2026-04-25T08:05:25.033Z</time></trkpt><trkpt lat="43.4494875" lon="12.9396106"><ele>416.0</ele><time>2026-04-25T08:05:30.032Z</time></trkpt><trkpt lat="43.4495247" lon="12.9396882"><ele>416.0</ele><time>2026-04-25T08:05:35.032Z</time></trkpt><trkpt lat="43.4495531" lon="12.9397697"><ele>416.0</ele><time>2026-04-25T08:05:41.032Z</time></trkpt><trkpt lat="43.4495675" lon="12.939858"><ele>416.0</ele><time>2026-04-25T08:05:46.033Z</time></trkpt><trkpt lat="43.4495739" lon="12.9399481"><ele>416.0</ele><time>2026-04-25T08:05:50.033Z</time></trkpt><trkpt lat="43.449598" lon="12.9400353"><ele>416.0</ele><time>2026-04-25T08:05:55.033Z</time></trkpt><trkpt lat="43.4496163" lon="12.9401307"><ele>416.0</ele><time>2026-04-25T08:06:01.034Z</time></trkpt><trkpt lat="43.4496165" lon="12.9402218"><ele>416.0</ele><time>2026-04-25T08:06:06.034Z</time></trkpt><trkpt lat="43.4496054" lon="12.9403188"><ele>414.4285714285714</ele><time>2026-04-25T08:06:12.033Z</time></trkpt><trkpt lat="43.4495875" lon="12.9404091"><ele>412.8571428571429</ele><time>2026-04-25T08:06:19.032Z</time></trkpt><trkpt lat="43.4495587" lon="12.9404885"><ele>411.2857142857143</ele><time>2026-04-25T08:06:25.032Z</time></trkpt><trkpt lat="43.4495381" lon="12.9405857"><ele>409.71428571428567</ele><time>2026-04-25T08:06:31.067Z</time></trkpt><trkpt lat="43.4495304" lon="12.940684"><ele>408.1428571428571</ele><time>2026-04-25T08:06:37.069Z</time></trkpt><trkpt lat="43.4495039" lon="12.9407741"><ele>406.57142857142856</ele><time>2026-04-25T08:06:43.072Z</time></trkpt><trkpt lat="43.4494562" lon="12.9408492"><ele>405.0</ele><time>2026-04-25T08:06:49.033Z</time></trkpt><trkpt lat="43.4494059" lon="12.9409079"><ele>404.4285714285714</ele><time>2026-04-25T08:06:54.032Z</time></trkpt><trkpt lat="43.4493449" lon="12.9409482"><ele>403.85714285714283</ele><time>2026-04-25T08:06:58.962Z</time></trkpt><trkpt lat="43.4492763" lon="12.9409818"><ele>403.2857142857143</ele><time>2026-04-25T08:07:04.032Z</time></trkpt><trkpt lat="43.4492152" lon="12.9410271"><ele>402.71428571428567</ele><time>2026-04-25T08:07:09.033Z</time></trkpt><trkpt lat="43.4491705" lon="12.9411111"><ele>402.14285714285717</ele><time>2026-04-25T08:07:16.032Z</time></trkpt><trkpt lat="43.4491391" lon="12.9411954"><ele>401.57142857142856</ele><time>2026-04-25T08:07:21.924Z</time></trkpt><trkpt lat="43.4490747" lon="12.941228"><ele>401.0</ele><time>2026-04-25T08:07:29.055Z</time></trkpt><trkpt lat="43.4490066" lon="12.9412132"><ele>401.0</ele><time>2026-04-25T08:07:35.032Z</time></trkpt><trkpt lat="43.4489463" lon="12.9411794"><ele>401.0</ele><time>2026-04-25T08:07:40.033Z</time></trkpt><trkpt lat="43.448893" lon="12.9411205"><ele>401.0</ele><time>2026-04-25T08:07:46.033Z</time></trkpt><trkpt lat="43.44885" lon="12.9410448"><ele>401.0</ele><time>2026-04-25T08:07:52.032Z</time></trkpt><trkpt lat="43.4488246" lon="12.9409474"><ele>401.0</ele><time>2026-04-25T08:07:57.033Z</time></trkpt><trkpt lat="43.4487984" lon="12.9408644"><ele>401.0</ele><time>2026-04-25T08:08:03.985Z</time></trkpt><trkpt lat="43.4487438" lon="12.9408082"><ele>401.0</ele><time>2026-04-25T08:08:34.033Z</time></trkpt><trkpt lat="43.4486745" lon="12.9407939"><ele>402.8571428571429</ele><time>2026-04-25T08:08:38.032Z</time></trkpt><trkpt lat="43.4485995" lon="12.9407764"><ele>404.7142857142857</ele><time>2026-04-25T08:08:52.032Z</time></trkpt><trkpt lat="43.4485431" lon="12.9408281"><ele>406.57142857142856</ele><time>2026-04-25T08:08:57.074Z</time></trkpt><trkpt lat="43.4484676" lon="12.9408343"><ele>408.42857142857144</ele><time>2026-04-25T08:09:02.033Z</time></trkpt><trkpt lat="43.4483954" lon="12.9408445"><ele>410.2857142857143</ele><time>2026-04-25T08:09:07.018Z</time></trkpt><trkpt lat="43.4484422" lon="12.9409322"><ele>412.14285714285717</ele><time>2026-04-25T08:09:52.032Z</time></trkpt><trkpt lat="43.4485076" lon="12.9409407"><ele>414.0</ele><time>2026-04-25T08:10:00.035Z</time></trkpt><trkpt lat="43.4486028" lon="12.9409091"><ele>409.5714285714286</ele><time>2026-04-25T08:11:34.033Z</time></trkpt><trkpt lat="43.4485612" lon="12.9409829"><ele>405.14285714285717</ele><time>2026-04-25T08:12:45.033Z</time></trkpt><trkpt lat="43.4485054" lon="12.9410385"><ele>400.7142857142857</ele><time>2026-04-25T08:12:49.991Z</time></trkpt><trkpt lat="43.4484582" lon="12.9411024"><ele>396.28571428571433</ele><time>2026-04-25T08:12:55.034Z</time></trkpt><trkpt lat="43.4485285" lon="12.9410861"><ele>391.85714285714283</ele><time>2026-04-25T08:14:26.033Z</time></trkpt><trkpt lat="43.448602" lon="12.9410897"><ele>387.42857142857144</ele><time>2026-04-25T08:14:36.69Z</time></trkpt><trkpt lat="43.4485605" lon="12.9410095"><ele>383.0</ele><time>2026-04-25T08:15:20.032Z</time></trkpt><trkpt lat="43.4484958" lon="12.9410208"><ele>383.0</ele><time>2026-04-25T08:15:24.032Z</time></trkpt><trkpt lat="43.4484307" lon="12.9410263"><ele>383.0</ele><time>2026-04-25T08:21:10.027Z</time></trkpt><trkpt lat="43.448442" lon="12.9411358"><ele>383.0</ele><time>2026-04-25T08:21:15.049Z</time></trkpt><trkpt lat="43.4482512" lon="12.9413204"><ele>383.0</ele><time>2026-04-25T08:21:17.034Z</time></trkpt><trkpt lat="43.4481908" lon="12.941371"><ele>383.0</ele><time>2026-04-25T08:21:18.034Z</time></trkpt><trkpt lat="43.4481359" lon="12.9414911"><ele>383.0</ele><time>2026-04-25T08:21:39.033Z</time></trkpt><trkpt lat="43.4480889" lon="12.941689"><ele>383.0</ele><time>2026-04-25T08:21:40.035Z</time></trkpt><trkpt lat="43.4480534" lon="12.9418981"><ele>383.0</ele><time>2026-04-25T08:21:41.033Z</time></trkpt><trkpt lat="43.4480381" lon="12.9421067"><ele>380.33333333333337</ele><time>2026-04-25T08:21:42.033Z</time></trkpt><trkpt lat="43.4480432" lon="12.9423678"><ele>377.6666666666667</ele><time>2026-04-25T08:21:43.034Z</time></trkpt><trkpt lat="43.4480482" lon="12.9425991"><ele>375.0</ele><time>2026-04-25T08:21:44.033Z</time></trkpt><trkpt lat="43.4480366" lon="12.9427627"><ele>373.3333333333333</ele><time>2026-04-25T08:21:45.035Z</time></trkpt><trkpt lat="43.4480082" lon="12.9429213"><ele>371.66666666666663</ele><time>2026-04-25T08:21:46.034Z</time></trkpt><trkpt lat="43.4479439" lon="12.9431135"><ele>370.0</ele><time>2026-04-25T08:21:47.033Z</time></trkpt><trkpt lat="43.4478685" lon="12.9433403"><ele>377.5</ele><time>2026-04-25T08:21:48.033Z</time></trkpt><trkpt lat="43.4478081" lon="12.9435264"><ele>385.0</ele><time>2026-04-25T08:21:49.034Z</time></trkpt><trkpt lat="43.4477624" lon="12.9436828"><ele>392.5</ele><time>2026-04-25T08:21:50.034Z</time></trkpt><trkpt lat="43.4477383" lon="12.9438425"><ele>400.0</ele><time>2026-04-25T08:21:51.033Z</time></trkpt><trkpt lat="43.4477479" lon="12.9440071"><ele>400.0</ele><time>2026-04-25T08:21:52.034Z</time></trkpt><trkpt lat="43.4477939" lon="12.9441818"><ele>400.0</ele><time>2026-04-25T08:21:53.034Z</time></trkpt><trkpt lat="43.4478838" lon="12.9443868"><ele>400.0</ele><time>2026-04-25T08:21:54.033Z</time></trkpt><trkpt lat="43.4479809" lon="12.9445882"><ele>396.8</ele><time>2026-04-25T08:21:55.033Z</time></trkpt><trkpt lat="43.4480493" lon="12.9447395"><ele>393.6</ele><time>2026-04-25T08:21:56.034Z</time></trkpt><trkpt lat="43.4480966" lon="12.9448776"><ele>390.4</ele><time>2026-04-25T08:21:57.033Z</time></trkpt><trkpt lat="43.4481182" lon="12.9450191"><ele>387.2</ele><time>2026-04-25T08:21:58.035Z</time></trkpt><trkpt lat="43.4481042" lon="12.9451462"><ele>384.0</ele><time>2026-04-25T08:21:59.033Z</time></trkpt><trkpt lat="43.4480925" lon="12.9452535"><ele>384.0</ele><time>2026-04-25T08:22:00.033Z</time></trkpt><trkpt lat="43.4480181" lon="12.9453204"><ele>384.0</ele><time>2026-04-25T08:22:01.033Z</time></trkpt><trkpt lat="43.4479274" lon="12.9453554"><ele>384.0</ele><time>2026-04-25T08:22:02.033Z</time></trkpt><trkpt lat="43.4478399" lon="12.9453529"><ele>384.0</ele><time>2026-04-25T08:22:03.033Z</time></trkpt><trkpt lat="43.4477578" lon="12.9452956"><ele>384.0</ele><time>2026-04-25T08:22:04.034Z</time></trkpt><trkpt lat="43.4476869" lon="12.9451969"><ele>384.0</ele><time>2026-04-25T08:22:05.033Z</time></trkpt><trkpt lat="43.4476224" lon="12.9450711"><ele>384.0</ele><time>2026-04-25T08:22:06.035Z</time></trkpt><trkpt lat="43.4475673" lon="12.9449266"><ele>384.0</ele><time>2026-04-25T08:22:07.034Z</time></trkpt><trkpt lat="43.4475248" lon="12.9447863"><ele>384.0</ele><time>2026-04-25T08:22:08.034Z</time></trkpt><trkpt lat="43.4474937" lon="12.9446668"><ele>384.0</ele><time>2026-04-25T08:22:09.034Z</time></trkpt><trkpt lat="43.4474668" lon="12.9445675"><ele>385.8333333333333</ele><time>2026-04-25T08:22:10.033Z</time></trkpt><trkpt lat="43.4474429" lon="12.9444843"><ele>387.66666666666663</ele><time>2026-04-25T08:22:11.033Z</time></trkpt><trkpt lat="43.447416" lon="12.944392"><ele>389.5</ele><time>2026-04-25T08:22:12.033Z</time></trkpt><trkpt lat="43.4473776" lon="12.9442874"><ele>391.3333333333333</ele><time>2026-04-25T08:22:13.034Z</time></trkpt><trkpt lat="43.4473404" lon="12.9441974"><ele>393.16666666666663</ele><time>2026-04-25T08:22:14.033Z</time></trkpt><trkpt lat="43.4472806" lon="12.9441348"><ele>395.0</ele><time>2026-04-25T08:22:16.035Z</time></trkpt><trkpt lat="43.4472784" lon="12.9442883"><ele>395.0</ele><time>2026-04-25T08:22:19.034Z</time></trkpt><trkpt lat="43.4473223" lon="12.9444097"><ele>395.0</ele><time>2026-04-25T08:22:20.034Z</time></trkpt><trkpt lat="43.4473686" lon="12.9446043"><ele>395.0</ele><time>2026-04-25T08:22:21.034Z</time></trkpt><trkpt lat="43.4474223" lon="12.9448471"><ele>395.0</ele><time>2026-04-25T08:22:22.033Z</time></trkpt><trkpt lat="43.447463" lon="12.9450553"><ele>392.25</ele><time>2026-04-25T08:22:23.033Z</time></trkpt><trkpt lat="43.4474884" lon="12.9452358"><ele>389.5</ele><time>2026-04-25T08:22:24.035Z</time></trkpt><trkpt lat="43.4475067" lon="12.9453992"><ele>386.75</ele><time>2026-04-25T08:22:25.034Z</time></trkpt><trkpt lat="43.4475264" lon="12.9455567"><ele>384.0</ele><time>2026-04-25T08:22:26.033Z</time></trkpt><trkpt lat="43.447558" lon="12.9457112"><ele>384.0</ele><time>2026-04-25T08:22:27.034Z</time></trkpt><trkpt lat="43.4476033" lon="12.9458578"><ele>384.0</ele><time>2026-04-25T08:22:28.034Z</time></trkpt><trkpt lat="43.4476554" lon="12.945989"><ele>384.0</ele><time>2026-04-25T08:22:29.035Z</time></trkpt><trkpt lat="43.4477242" lon="12.946113"><ele>384.0</ele><time>2026-04-25T08:22:30.034Z</time></trkpt><trkpt lat="43.4478104" lon="12.9462248"><ele>381.0</ele><time>2026-04-25T08:22:31.033Z</time></trkpt><trkpt lat="43.4478998" lon="12.9463278"><ele>378.0</ele><time>2026-04-25T08:22:32.033Z</time></trkpt><trkpt lat="43.4479838" lon="12.9464395"><ele>375.0</ele><time>2026-04-25T08:22:33.035Z</time></trkpt><trkpt lat="43.4480553" lon="12.9465645"><ele>372.0</ele><time>2026-04-25T08:22:34.033Z</time></trkpt><trkpt lat="43.4481298" lon="12.9466946"><ele>368.6</ele><time>2026-04-25T08:22:35.033Z</time></trkpt><trkpt lat="43.4482085" lon="12.9468197"><ele>365.20000000000005</ele><time>2026-04-25T08:22:36.033Z</time></trkpt><trkpt lat="43.4482802" lon="12.9469355"><ele>361.8</ele><time>2026-04-25T08:22:37.033Z</time></trkpt><trkpt lat="43.4483508" lon="12.9470345"><ele>358.4</ele><time>2026-04-25T08:22:38.035Z</time></trkpt><trkpt lat="43.4484315" lon="12.947108"><ele>355.0</ele><time>2026-04-25T08:22:39.033Z</time></trkpt><trkpt lat="43.4485233" lon="12.9471452"><ele>355.0</ele><time>2026-04-25T08:22:40.034Z</time></trkpt><trkpt lat="43.4486069" lon="12.9471556"><ele>355.0</ele><time>2026-04-25T08:22:41.033Z</time></trkpt><trkpt lat="43.4486886" lon="12.947207"><ele>355.0</ele><time>2026-04-25T08:22:43.035Z</time></trkpt><trkpt lat="43.4486808" lon="12.9474024"><ele>355.0</ele><time>2026-04-25T08:22:45.033Z</time></trkpt><trkpt lat="43.4486647" lon="12.9475617"><ele>355.0</ele><time>2026-04-25T08:22:46.033Z</time></trkpt><trkpt lat="43.4486687" lon="12.9477393"><ele>352.8</ele><time>2026-04-25T08:22:47.035Z</time></trkpt><trkpt lat="43.4486769" lon="12.9478987"><ele>350.6</ele><time>2026-04-25T08:22:48.033Z</time></trkpt><trkpt lat="43.4487067" lon="12.9480494"><ele>348.4</ele><time>2026-04-25T08:22:49.033Z</time></trkpt><trkpt lat="43.4487527" lon="12.9481989"><ele>346.2</ele><time>2026-04-25T08:22:50.034Z</time></trkpt><trkpt lat="43.4487909" lon="12.948328"><ele>344.0</ele><time>2026-04-25T08:22:51.033Z</time></trkpt><trkpt lat="43.4488193" lon="12.9484494"><ele>342.6</ele><time>2026-04-25T08:22:52.034Z</time></trkpt><trkpt lat="43.4488391" lon="12.9485748"><ele>341.2</ele><time>2026-04-25T08:22:53.033Z</time></trkpt><trkpt lat="43.4488523" lon="12.9487064"><ele>339.8</ele><time>2026-04-25T08:22:54.035Z</time></trkpt><trkpt lat="43.4488578" lon="12.9488105"><ele>338.40000000000003</ele><time>2026-04-25T08:22:55.034Z</time></trkpt><trkpt lat="43.4488937" lon="12.9489402"><ele>337.0</ele><time>2026-04-25T08:22:57.033Z</time></trkpt><trkpt lat="43.448984" lon="12.9489326"><ele>337.0</ele><time>2026-04-25T08:22:59.034Z</time></trkpt><trkpt lat="43.4490254" lon="12.9488527"><ele>337.0</ele><time>2026-04-25T08:23:00.033Z</time></trkpt><trkpt lat="43.4490612" lon="12.9487023"><ele>337.0</ele><time>2026-04-25T08:23:01.033Z</time></trkpt><trkpt lat="43.4490837" lon="12.9485572"><ele>337.0</ele><time>2026-04-25T08:23:02.034Z</time></trkpt><trkpt lat="43.4491067" lon="12.9484263"><ele>337.0</ele><time>2026-04-25T08:23:03.033Z</time></trkpt><trkpt lat="43.449172" lon="12.9483355"><ele>337.0</ele><time>2026-04-25T08:23:05.033Z</time></trkpt><trkpt lat="43.4492495" lon="12.9483969"><ele>337.0</ele><time>2026-04-25T08:23:07.033Z</time></trkpt><trkpt lat="43.4492842" lon="12.948513"><ele>337.0</ele><time>2026-04-25T08:23:08.034Z</time></trkpt><trkpt lat="43.4493397" lon="12.9486879"><ele>337.0</ele><time>2026-04-25T08:23:09.034Z</time></trkpt><trkpt lat="43.4494057" lon="12.9489179"><ele>337.0</ele><time>2026-04-25T08:23:10.033Z</time></trkpt><trkpt lat="43.4494573" lon="12.9491098"><ele>337.0</ele><time>2026-04-25T08:23:11.034Z</time></trkpt><trkpt lat="43.4495" lon="12.9492664"><ele>337.0</ele><time>2026-04-25T08:23:12.034Z</time></trkpt><trkpt lat="43.4495373" lon="12.9494168"><ele>337.0</ele><time>2026-04-25T08:23:13.033Z</time></trkpt><trkpt lat="43.4495595" lon="12.9495586"><ele>337.5</ele><time>2026-04-25T08:23:14.033Z</time></trkpt><trkpt lat="43.4495678" lon="12.9496945"><ele>338.0</ele><time>2026-04-25T08:23:15.034Z</time></trkpt><trkpt lat="43.4495516" lon="12.9498224"><ele>338.5</ele><time>2026-04-25T08:23:16.033Z</time></trkpt><trkpt lat="43.4494987" lon="12.9499349"><ele>339.0</ele><time>2026-04-25T08:23:17.033Z</time></trkpt><trkpt lat="43.4473776" lon="12.9442874"><ele>350.2</ele><time>2026-04-25T08:22:13.034Z</time></trkpt><trkpt lat="43.4473404" lon="12.9441974"><ele>361.4</ele><time>2026-04-25T08:22:14.033Z</time></trkpt><trkpt lat="43.4472806" lon="12.9441348"><ele>372.6</ele><time>2026-04-25T08:22:16.035Z</time></trkpt><trkpt lat="43.4472784" lon="12.9442883"><ele>383.8</ele><time>2026-04-25T08:22:19.034Z</time></trkpt><trkpt lat="43.4473223" lon="12.9444097"><ele>395.0</ele><time>2026-04-25T08:22:20.034Z</time></trkpt><trkpt lat="43.4473686" lon="12.9446043"><ele>395.0</ele><time>2026-04-25T08:22:21.034Z</time></trkpt><trkpt lat="43.4474223" lon="12.9448471"><ele>395.0</ele><time>2026-04-25T08:22:22.033Z</time></trkpt><trkpt lat="43.447463" lon="12.9450553"><ele>395.0</ele><time>2026-04-25T08:22:23.033Z</time></trkpt><trkpt lat="43.4474884" lon="12.9452358"><ele>392.25</ele><time>2026-04-25T08:22:24.035Z</time></trkpt><trkpt lat="43.4475067" lon="12.9453992"><ele>389.5</ele><time>2026-04-25T08:22:25.034Z</time></trkpt><trkpt lat="43.4475264" lon="12.9455567"><ele>386.75</ele><time>2026-04-25T08:22:26.033Z</time></trkpt><trkpt lat="43.447558" lon="12.9457112"><ele>384.0</ele><time>2026-04-25T08:22:27.034Z</time></trkpt><trkpt lat="43.4476033" lon="12.9458578"><ele>381.0</ele><time>2026-04-25T08:22:28.034Z</time></trkpt><trkpt lat="43.4476554" lon="12.945989"><ele>378.0</ele><time>2026-04-25T08:22:29.035Z</time></trkpt><trkpt lat="43.4477242" lon="12.946113"><ele>375.0</ele><time>2026-04-25T08:22:30.034Z</time></trkpt><trkpt lat="43.4478104" lon="12.9462248"><ele>372.0</ele><time>2026-04-25T08:22:31.033Z</time></trkpt><trkpt lat="43.4478998" lon="12.9463278"><ele>371.5</ele><time>2026-04-25T08:22:32.033Z</time></trkpt><trkpt lat="43.4479838" lon="12.9464395"><ele>371.0</ele><time>2026-04-25T08:22:33.035Z</time></trkpt><trkpt lat="43.4480553" lon="12.9465645"><ele>370.5</ele><time>2026-04-25T08:22:34.033Z</time></trkpt><trkpt lat="43.4481298" lon="12.9466946"><ele>370.0</ele><time>2026-04-25T08:22:35.033Z</time></trkpt><trkpt lat="43.4482085" lon="12.9468197"><ele>367.0</ele><time>2026-04-25T08:22:36.033Z</time></trkpt><trkpt lat="43.4482802" lon="12.9469355"><ele>364.0</ele><time>2026-04-25T08:22:37.033Z</time></trkpt><trkpt lat="43.4483508" lon="12.9470345"><ele>361.0</ele><time>2026-04-25T08:22:38.035Z</time></trkpt><trkpt lat="43.4484315" lon="12.947108"><ele>358.0</ele><time>2026-04-25T08:22:39.033Z</time></trkpt><trkpt lat="43.4485233" lon="12.9471452"><ele>355.0</ele><time>2026-04-25T08:22:40.034Z</time></trkpt><trkpt lat="43.4486069" lon="12.9471556"><ele>355.0</ele><time>2026-04-25T08:22:41.033Z</time></trkpt><trkpt lat="43.4486886" lon="12.947207"><ele>355.0</ele><time>2026-04-25T08:22:43.035Z</time></trkpt><trkpt lat="43.4486808" lon="12.9474024"><ele>355.0</ele><time>2026-04-25T08:22:45.033Z</time></trkpt><trkpt lat="43.4486647" lon="12.9475617"><ele>355.0</ele><time>2026-04-25T08:22:46.033Z</time></trkpt><trkpt lat="43.4486687" lon="12.9477393"><ele>352.8</ele><time>2026-04-25T08:22:47.035Z</time></trkpt><trkpt lat="43.4486769" lon="12.9478987"><ele>350.6</ele><time>2026-04-25T08:22:48.033Z</time></trkpt><trkpt lat="43.4487067" lon="12.9480494"><ele>348.4</ele><time>2026-04-25T08:22:49.033Z</time></trkpt><trkpt lat="43.4487527" lon="12.9481989"><ele>346.2</ele><time>2026-04-25T08:22:50.034Z</time></trkpt><trkpt lat="43.4487909" lon="12.948328"><ele>344.0</ele><time>2026-04-25T08:22:51.033Z</time></trkpt><trkpt lat="43.4488193" lon="12.9484494"><ele>342.6</ele><time>2026-04-25T08:22:52.034Z</time></trkpt><trkpt lat="43.4488391" lon="12.9485748"><ele>341.2</ele><time>2026-04-25T08:22:53.033Z</time></trkpt><trkpt lat="43.4488523" lon="12.9487064"><ele>339.8</ele><time>2026-04-25T08:22:54.035Z</time></trkpt><trkpt lat="43.4488578" lon="12.9488105"><ele>338.40000000000003</ele><time>2026-04-25T08:22:55.034Z</time></trkpt><trkpt lat="43.4488937" lon="12.9489402"><ele>337.0</ele><time>2026-04-25T08:22:57.033Z</time></trkpt><trkpt lat="43.448984" lon="12.9489326"><ele>337.0</ele><time>2026-04-25T08:22:59.034Z</time></trkpt><trkpt lat="43.4490254" lon="12.9488527"><ele>337.0</ele><time>2026-04-25T08:23:00.033Z</time></trkpt><trkpt lat="43.4490612" lon="12.9487023"><ele>337.0</ele><time>2026-04-25T08:23:01.033Z</time></trkpt><trkpt lat="43.4490837" lon="12.9485572"><ele>337.0</ele><time>2026-04-25T08:23:02.034Z</time></trkpt><trkpt lat="43.4491067" lon="12.9484263"><ele>337.0</ele><time>2026-04-25T08:23:03.033Z</time></trkpt><trkpt lat="43.449172" lon="12.9483355"><ele>337.0</ele><time>2026-04-25T08:23:05.033Z</time></trkpt><trkpt lat="43.4492495" lon="12.9483969"><ele>337.0</ele><time>2026-04-25T08:23:07.033Z</time></trkpt><trkpt lat="43.4492842" lon="12.948513"><ele>337.0</ele><time>2026-04-25T08:23:08.034Z</time></trkpt><trkpt lat="43.4493397" lon="12.9486879"><ele>337.0</ele><time>2026-04-25T08:23:09.034Z</time></trkpt><trkpt lat="43.4494057" lon="12.9489179"><ele>337.0</ele><time>2026-04-25T08:23:10.033Z</time></trkpt><trkpt lat="43.4494573" lon="12.9491098"><ele>337.0</ele><time>2026-04-25T08:23:11.034Z</time></trkpt><trkpt lat="43.4495" lon="12.9492664"><ele>337.0</ele><time>2026-04-25T08:23:12.034Z</time></trkpt><trkpt lat="43.4495373" lon="12.9494168"><ele>337.0</ele><time>2026-04-25T08:23:13.033Z</time></trkpt><trkpt lat="43.4495595" lon="12.9495586"><ele>337.40000000000003</ele><time>2026-04-25T08:23:14.033Z</time></trkpt><trkpt lat="43.4495678" lon="12.9496945"><ele>337.8</ele><time>2026-04-25T08:23:15.034Z</time></trkpt><trkpt lat="43.4495516" lon="12.9498224"><ele>338.2</ele><time>2026-04-25T08:23:16.033Z</time></trkpt><trkpt lat="43.4494987" lon="12.9499349"><ele>338.6</ele><time>2026-04-25T08:23:17.033Z</time></trkpt><trkpt lat="43.4494419" lon="12.9500455"><ele>339.0</ele><time>2026-04-25T08:23:18.034Z</time></trkpt><trkpt lat="43.4493789" lon="12.950166"><ele>339.2</ele><time>2026-04-25T08:23:19.034Z</time></trkpt><trkpt lat="43.4493389" lon="12.9503015"><ele>339.4</ele><time>2026-04-25T08:23:20.033Z</time></trkpt><trkpt lat="43.4493144" lon="12.950427"><ele>339.6</ele><time>2026-04-25T08:23:21.035Z</time></trkpt><trkpt lat="43.4492906" lon="12.9505453"><ele>339.8</ele><time>2026-04-25T08:23:22.033Z</time></trkpt><trkpt lat="43.4492566" lon="12.950669"><ele>340.0</ele><time>2026-04-25T08:23:23.033Z</time></trkpt><trkpt lat="43.4492067" lon="12.9507831"><ele>340.4</ele><time>2026-04-25T08:23:24.035Z</time></trkpt><trkpt lat="43.4491515" lon="12.9508863"><ele>340.8</ele><time>2026-04-25T08:23:25.033Z</time></trkpt><trkpt lat="43.4490952" lon="12.9509981"><ele>341.20000000000005</ele><time>2026-04-25T08:23:26.033Z</time></trkpt><trkpt lat="43.4490504" lon="12.9511379"><ele>341.6</ele><time>2026-04-25T08:23:27.034Z</time></trkpt><trkpt lat="43.4490186" lon="12.9512799"><ele>342.0</ele><time>2026-04-25T08:23:28.034Z</time></trkpt><trkpt lat="43.4489885" lon="12.9514066"><ele>342.0</ele><time>2026-04-25T08:23:29.034Z</time></trkpt><trkpt lat="43.4489435" lon="12.9515191"><ele>342.0</ele><time>2026-04-25T08:23:30.033Z</time></trkpt><trkpt lat="43.44888" lon="12.9516276"><ele>342.0</ele><time>2026-04-25T08:23:31.034Z</time></trkpt><trkpt lat="43.4487999" lon="12.9517356"><ele>342.0</ele><time>2026-04-25T08:23:32.034Z</time></trkpt><trkpt lat="43.448733" lon="12.9518409"><ele>342.0</ele><time>2026-04-25T08:23:33.034Z</time></trkpt><trkpt lat="43.4486871" lon="12.9519546"><ele>340.5</ele><time>2026-04-25T08:23:34.034Z</time></trkpt><trkpt lat="43.448655" lon="12.9520792"><ele>339.0</ele><time>2026-04-25T08:23:35.033Z</time></trkpt><trkpt lat="43.4486542" lon="12.9522459"><ele>337.5</ele><time>2026-04-25T08:23:36.034Z</time></trkpt><trkpt lat="43.4486648" lon="12.9524268"><ele>336.0</ele><time>2026-04-25T08:23:37.034Z</time></trkpt><trkpt lat="43.4486873" lon="12.9526006"><ele>336.0</ele><time>2026-04-25T08:23:38.034Z</time></trkpt><trkpt lat="43.4487219" lon="12.9527671"><ele>336.0</ele><time>2026-04-25T08:23:39.034Z</time></trkpt><trkpt lat="43.4487597" lon="12.9529091"><ele>336.0</ele><time>2026-04-25T08:23:40.035Z</time></trkpt><trkpt lat="43.448803" lon="12.95303"><ele>336.0</ele><time>2026-04-25T08:23:41.035Z</time></trkpt><trkpt lat="43.4488469" lon="12.9531301"><ele>336.0</ele><time>2026-04-25T08:23:42.034Z</time></trkpt><trkpt lat="43.4489071" lon="12.9532092"><ele>335.25</ele><time>2026-04-25T08:23:43.034Z</time></trkpt><trkpt lat="43.4489894" lon="12.9532759"><ele>334.5</ele><time>2026-04-25T08:23:44.034Z</time></trkpt><trkpt lat="43.4490912" lon="12.9533449"><ele>333.75</ele><time>2026-04-25T08:23:45.033Z</time></trkpt><trkpt lat="43.4492087" lon="12.9534249"><ele>333.0</ele><time>2026-04-25T08:23:46.033Z</time></trkpt><trkpt lat="43.4493301" lon="12.9535114"><ele>333.0</ele><time>2026-04-25T08:23:47.033Z</time></trkpt><trkpt lat="43.4494449" lon="12.9535937"><ele>333.0</ele><time>2026-04-25T08:23:48.034Z</time></trkpt><trkpt lat="43.4495536" lon="12.9536825"><ele>333.0</ele><time>2026-04-25T08:23:49.035Z</time></trkpt><trkpt lat="43.4496606" lon="12.9537888"><ele>333.0</ele><time>2026-04-25T08:23:50.035Z</time></trkpt><trkpt lat="43.449753" lon="12.9538844"><ele>334.3333333333333</ele><time>2026-04-25T08:23:51.034Z</time></trkpt><trkpt lat="43.4498255" lon="12.9539599"><ele>335.6666666666667</ele><time>2026-04-25T08:23:52.034Z</time></trkpt><trkpt lat="43.449891" lon="12.9540368"><ele>337.0</ele><time>2026-04-25T08:23:53.033Z</time></trkpt><trkpt lat="43.4499432" lon="12.9541321"><ele>338.33333333333337</ele><time>2026-04-25T08:23:54.034Z</time></trkpt><trkpt lat="43.4499823" lon="12.9542481"><ele>339.6666666666667</ele><time>2026-04-25T08:23:55.033Z</time></trkpt><trkpt lat="43.4500094" lon="12.9543673"><ele>341.0</ele><time>2026-04-25T08:23:56.033Z</time></trkpt><trkpt lat="43.4500249" lon="12.9544739"><ele>341.0</ele><time>2026-04-25T08:23:57.035Z</time></trkpt><trkpt lat="43.4500288" lon="12.9545729"><ele>341.0</ele><time>2026-04-25T08:23:58.033Z</time></trkpt><trkpt lat="43.4500154" lon="12.954692"><ele>341.0</ele><time>2026-04-25T08:23:59.033Z</time></trkpt><trkpt lat="43.4499755" lon="12.9548131"><ele>341.0</ele><time>2026-04-25T08:24:00.035Z</time></trkpt><trkpt lat="43.4499265" lon="12.9549011"><ele>341.0</ele><time>2026-04-25T08:24:01.034Z</time></trkpt><trkpt lat="43.4498698" lon="12.9549403"><ele>341.0</ele><time>2026-04-25T08:24:02.033Z</time></trkpt><trkpt lat="43.4497474" lon="12.9548722"><ele>341.0</ele><time>2026-04-25T08:24:04.033Z</time></trkpt><trkpt lat="43.4496709" lon="12.9547911"><ele>341.0</ele><time>2026-04-25T08:24:05.035Z</time></trkpt><trkpt lat="43.4495795" lon="12.9547503"><ele>341.0</ele><time>2026-04-25T08:24:06.033Z</time></trkpt><trkpt lat="43.4494689" lon="12.9547546"><ele>341.0</ele><time>2026-04-25T08:24:07.034Z</time></trkpt><trkpt lat="43.4493474" lon="12.9547912"><ele>341.0</ele><time>2026-04-25T08:24:08.034Z</time></trkpt><trkpt lat="43.4492103" lon="12.9548598"><ele>340.0</ele><time>2026-04-25T08:24:09.035Z</time></trkpt><trkpt lat="43.4490764" lon="12.9549342"><ele>339.0</ele><time>2026-04-25T08:24:10.033Z</time></trkpt><trkpt lat="43.4489385" lon="12.9550311"><ele>338.0</ele><time>2026-04-25T08:24:11.034Z</time></trkpt><trkpt lat="43.4488028" lon="12.9551536"><ele>341.33333333333337</ele><time>2026-04-25T08:24:12.034Z</time></trkpt><trkpt lat="43.4486576" lon="12.9552764"><ele>344.6666666666667</ele><time>2026-04-25T08:24:13.034Z</time></trkpt><trkpt lat="43.4485027" lon="12.9553857"><ele>348.0</ele><time>2026-04-25T08:24:14.034Z</time></trkpt><trkpt lat="43.4483736" lon="12.9554816"><ele>348.0</ele><time>2026-04-25T08:24:15.033Z</time></trkpt><trkpt lat="43.4482859" lon="12.9555562"><ele>348.0</ele><time>2026-04-25T08:24:16.033Z</time></trkpt><trkpt lat="43.44821" lon="12.9556018"><ele>348.0</ele><time>2026-04-25T08:24:17.034Z</time></trkpt><trkpt lat="43.4481254" lon="12.9555979"><ele>348.0</ele><time>2026-04-25T08:24:18.033Z</time></trkpt><trkpt lat="43.4480392" lon="12.9555863"><ele>348.0</ele><time>2026-04-25T08:24:19.034Z</time></trkpt><trkpt lat="43.447869" lon="12.955501"><ele>348.0</ele><time>2026-04-25T08:24:20.034Z</time></trkpt><trkpt lat="43.4476742" lon="12.9554392"><ele>348.0</ele><time>2026-04-25T08:24:21.034Z</time></trkpt><trkpt lat="43.4475028" lon="12.9553931"><ele>348.0</ele><time>2026-04-25T08:24:22.033Z</time></trkpt><trkpt lat="43.4473608" lon="12.9553495"><ele>348.0</ele><time>2026-04-25T08:24:23.033Z</time></trkpt><trkpt lat="43.4472342" lon="12.9553117"><ele>348.0</ele><time>2026-04-25T08:24:24.033Z</time></trkpt><trkpt lat="43.4471206" lon="12.9552777"><ele>348.0</ele><time>2026-04-25T08:24:25.033Z</time></trkpt><trkpt lat="43.4470116" lon="12.9552488"><ele>348.0</ele><time>2026-04-25T08:24:26.035Z</time></trkpt><trkpt lat="43.4469069" lon="12.9552246"><ele>346.79999999999995</ele><time>2026-04-25T08:24:27.035Z</time></trkpt><trkpt lat="43.446803" lon="12.9552092"><ele>345.6</ele><time>2026-04-25T08:24:28.033Z</time></trkpt><trkpt lat="43.4466985" lon="12.9552024"><ele>344.4</ele><time>2026-04-25T08:24:29.034Z</time></trkpt><trkpt lat="43.4465905" lon="12.9552086"><ele>343.20000000000005</ele><time>2026-04-25T08:24:30.035Z</time></trkpt><trkpt lat="43.4464879" lon="12.9552237"><ele>342.0</ele><time>2026-04-25T08:24:31.033Z</time></trkpt><trkpt lat="43.4463957" lon="12.9552462"><ele>342.0</ele><time>2026-04-25T08:24:32.033Z</time></trkpt><trkpt lat="43.4463152" lon="12.9552685"><ele>342.0</ele><time>2026-04-25T08:24:33.034Z</time></trkpt><trkpt lat="43.44625" lon="12.9552857"><ele>342.0</ele><time>2026-04-25T08:24:34.034Z</time></trkpt><trkpt lat="43.446174" lon="12.9553041"><ele>342.0</ele><time>2026-04-25T08:24:36.033Z</time></trkpt><trkpt lat="43.4461044" lon="12.9553366"><ele>342.0</ele><time>2026-04-25T08:25:09.033Z</time></trkpt><trkpt lat="43.4460083" lon="12.9553811"><ele>342.0</ele><time>2026-04-25T08:25:11.033Z</time></trkpt><trkpt lat="43.4459022" lon="12.9554162"><ele>339.75</ele><time>2026-04-25T08:25:12.033Z</time></trkpt><trkpt lat="43.4457749" lon="12.9554362"><ele>337.5</ele><time>2026-04-25T08:25:13.033Z</time></trkpt><trkpt lat="43.4456453" lon="12.9554447"><ele>335.25</ele><time>2026-04-25T08:25:14.034Z</time></trkpt><trkpt lat="43.4455359" lon="12.9554486"><ele>333.0</ele><time>2026-04-25T08:25:15.035Z</time></trkpt><trkpt lat="43.445443" lon="12.955448"><ele>332.2</ele><time>2026-04-25T08:25:16.034Z</time></trkpt><trkpt lat="43.4453575" lon="12.9554264"><ele>331.4</ele><time>2026-04-25T08:25:17.034Z</time></trkpt><trkpt lat="43.4452789" lon="12.9553672"><ele>330.59999999999997</ele><time>2026-04-25T08:25:18.034Z</time></trkpt><trkpt lat="43.4452077" lon="12.9552721"><ele>329.79999999999995</ele><time>2026-04-25T08:25:19.034Z</time></trkpt><trkpt lat="43.4451527" lon="12.9551538"><ele>329.0</ele><time>2026-04-25T08:25:20.033Z</time></trkpt><trkpt lat="43.4451061" lon="12.9550115"><ele>327.0</ele><time>2026-04-25T08:25:21.033Z</time></trkpt><trkpt lat="43.4450704" lon="12.9548636"><ele>325.0</ele><time>2026-04-25T08:25:22.034Z</time></trkpt><trkpt lat="43.4450317" lon="12.9547286"><ele>323.0</ele><time>2026-04-25T08:25:23.033Z</time></trkpt><trkpt lat="43.444977" lon="12.9546068"><ele>321.0</ele><time>2026-04-25T08:25:24.034Z</time></trkpt><trkpt lat="43.444897" lon="12.9545052"><ele>319.0</ele><time>2026-04-25T08:25:25.033Z</time></trkpt><trkpt lat="43.4448099" lon="12.9544332"><ele>319.0</ele><time>2026-04-25T08:25:26.035Z</time></trkpt><trkpt lat="43.4447149" lon="12.9543911"><ele>319.0</ele><time>2026-04-25T08:25:27.034Z</time></trkpt><trkpt lat="43.4445944" lon="12.9543879"><ele>319.0</ele><time>2026-04-25T08:25:28.033Z</time></trkpt><trkpt lat="43.4444557" lon="12.9544133"><ele>319.0</ele><time>2026-04-25T08:25:29.034Z</time></trkpt><trkpt lat="43.4443245" lon="12.9544383"><ele>317.75</ele><time>2026-04-25T08:25:30.034Z</time></trkpt><trkpt lat="43.4442043" lon="12.9544426"><ele>316.5</ele><time>2026-04-25T08:25:31.035Z</time></trkpt><trkpt lat="43.4440909" lon="12.9544197"><ele>315.25</ele><time>2026-04-25T08:25:32.034Z</time></trkpt><trkpt lat="43.443983" lon="12.9543536"><ele>314.0</ele><time>2026-04-25T08:25:33.034Z</time></trkpt><trkpt lat="43.4438696" lon="12.9542592"><ele>312.0</ele><time>2026-04-25T08:25:34.033Z</time></trkpt><trkpt lat="43.443759" lon="12.95417"><ele>310.0</ele><time>2026-04-25T08:25:35.033Z</time></trkpt><trkpt lat="43.4436565" lon="12.9540962"><ele>308.0</ele><time>2026-04-25T08:25:36.034Z</time></trkpt><trkpt lat="43.4435532" lon="12.9540274"><ele>306.0</ele><time>2026-04-25T08:25:37.035Z</time></trkpt><trkpt lat="43.4434378" lon="12.9539538"><ele>306.0</ele><time>2026-04-25T08:25:38.035Z</time></trkpt><trkpt lat="43.4433126" lon="12.9538845"><ele>306.0</ele><time>2026-04-25T08:25:39.033Z</time></trkpt><trkpt lat="43.4431785" lon="12.9538305"><ele>306.0</ele><time>2026-04-25T08:25:40.035Z</time></trkpt><trkpt lat="43.4430343" lon="12.9537829"><ele>306.0</ele><time>2026-04-25T08:25:41.034Z</time></trkpt><trkpt lat="43.4428846" lon="12.9537356"><ele>306.25</ele><time>2026-04-25T08:25:42.034Z</time></trkpt><trkpt lat="43.4427404" lon="12.9536915"><ele>306.5</ele><time>2026-04-25T08:25:43.034Z</time></trkpt><trkpt lat="43.4425987" lon="12.9536452"><ele>306.75</ele><time>2026-04-25T08:25:44.034Z</time></trkpt><trkpt lat="43.4424472" lon="12.953595"><ele>307.0</ele><time>2026-04-25T08:25:45.033Z</time></trkpt><trkpt lat="43.4422874" lon="12.953543"><ele>307.0</ele><time>2026-04-25T08:25:46.033Z</time></trkpt><trkpt lat="43.4421364" lon="12.9534962"><ele>307.0</ele><time>2026-04-25T08:25:47.034Z</time></trkpt><trkpt lat="43.4419979" lon="12.9534558"><ele>307.0</ele><time>2026-04-25T08:25:48.034Z</time></trkpt><trkpt lat="43.4418674" lon="12.9534322"><ele>307.0</ele><time>2026-04-25T08:25:49.033Z</time></trkpt><trkpt lat="43.4417428" lon="12.9534415"><ele>306.5</ele><time>2026-04-25T08:25:50.035Z</time></trkpt><trkpt lat="43.441615" lon="12.9534704"><ele>306.0</ele><time>2026-04-25T08:25:51.033Z</time></trkpt><trkpt lat="43.4414954" lon="12.9534655"><ele>305.5</ele><time>2026-04-25T08:25:52.034Z</time></trkpt><trkpt lat="43.4413728" lon="12.9534094"><ele>305.0</ele><time>2026-04-25T08:25:53.034Z</time></trkpt><trkpt lat="43.4412094" lon="12.9533247"><ele>304.0</ele><time>2026-04-25T08:25:54.033Z</time></trkpt><trkpt lat="43.4410447" lon="12.9532447"><ele>303.0</ele><time>2026-04-25T08:25:55.035Z</time></trkpt><trkpt lat="43.4408827" lon="12.9531712"><ele>302.0</ele><time>2026-04-25T08:25:56.033Z</time></trkpt><trkpt lat="43.4407109" lon="12.9530951"><ele>302.0</ele><time>2026-04-25T08:25:57.033Z</time></trkpt><trkpt lat="43.4405444" lon="12.9530232"><ele>302.0</ele><time>2026-04-25T08:25:58.033Z</time></trkpt><trkpt lat="43.440361" lon="12.9529479"><ele>302.0</ele><time>2026-04-25T08:25:59.035Z</time></trkpt><trkpt lat="43.4401549" lon="12.9528631"><ele>301.33333333333337</ele><time>2026-04-25T08:26:00.035Z</time></trkpt><trkpt lat="43.4399516" lon="12.9527762"><ele>300.6666666666667</ele><time>2026-04-25T08:26:01.033Z</time></trkpt><trkpt lat="43.4397568" lon="12.952692"><ele>300.0</ele><time>2026-04-25T08:26:02.033Z</time></trkpt><trkpt lat="43.4395709" lon="12.9526094"><ele>297.0</ele><time>2026-04-25T08:26:03.033Z</time></trkpt><trkpt lat="43.4393954" lon="12.9525308"><ele>294.0</ele><time>2026-04-25T08:26:04.035Z</time></trkpt><trkpt lat="43.4392273" lon="12.9524593"><ele>291.0</ele><time>2026-04-25T08:26:05.034Z</time></trkpt><trkpt lat="43.4390705" lon="12.9523948"><ele>291.0</ele><time>2026-04-25T08:26:06.034Z</time></trkpt><trkpt lat="43.4389317" lon="12.9523229"><ele>291.0</ele><time>2026-04-25T08:26:07.033Z</time></trkpt><trkpt lat="43.4387805" lon="12.9522466"><ele>291.0</ele><time>2026-04-25T08:26:08.034Z</time></trkpt><trkpt lat="43.4385993" lon="12.9521651"><ele>292.5</ele><time>2026-04-25T08:26:09.033Z</time></trkpt><trkpt lat="43.4384466" lon="12.9520925"><ele>294.0</ele><time>2026-04-25T08:26:10.033Z</time></trkpt><trkpt lat="43.4383387" lon="12.9520143"><ele>295.5</ele><time>2026-04-25T08:26:11.034Z</time></trkpt><trkpt lat="43.4382395" lon="12.9519208"><ele>297.0</ele><time>2026-04-25T08:26:12.033Z</time></trkpt><trkpt lat="43.438131" lon="12.9518055"><ele>295.6666666666667</ele><time>2026-04-25T08:26:13.034Z</time></trkpt><trkpt lat="43.4380189" lon="12.9516703"><ele>294.33333333333337</ele><time>2026-04-25T08:26:14.034Z</time></trkpt><trkpt lat="43.4379047" lon="12.9515271"><ele>293.0</ele><time>2026-04-25T08:26:15.034Z</time></trkpt><trkpt lat="43.4377762" lon="12.951374"><ele>293.0</ele><time>2026-04-25T08:26:16.033Z</time></trkpt><trkpt lat="43.4376279" lon="12.9512007"><ele>293.0</ele><time>2026-04-25T08:26:17.033Z</time></trkpt><trkpt lat="43.4374822" lon="12.9510334"><ele>293.0</ele><time>2026-04-25T08:26:18.034Z</time></trkpt><trkpt lat="43.4373562" lon="12.9509026"><ele>291.33333333333337</ele><time>2026-04-25T08:26:19.034Z</time></trkpt><trkpt lat="43.4372263" lon="12.9507927"><ele>289.6666666666667</ele><time>2026-04-25T08:26:20.035Z</time></trkpt><trkpt lat="43.4370733" lon="12.9506839"><ele>288.0</ele><time>2026-04-25T08:26:21.034Z</time></trkpt><trkpt lat="43.4369091" lon="12.9505767"><ele>288.0</ele><time>2026-04-25T08:26:22.034Z</time></trkpt><trkpt lat="43.436754" lon="12.9504739"><ele>288.0</ele><time>2026-04-25T08:26:23.035Z</time></trkpt><trkpt lat="43.4366087" lon="12.9503697"><ele>288.0</ele><time>2026-04-25T08:26:24.034Z</time></trkpt><trkpt lat="43.4364586" lon="12.9502598"><ele>287.0</ele><time>2026-04-25T08:26:25.034Z</time></trkpt><trkpt lat="43.4362977" lon="12.9501446"><ele>286.0</ele><time>2026-04-25T08:26:26.034Z</time></trkpt><trkpt lat="43.4361223" lon="12.9500269"><ele>285.0</ele><time>2026-04-25T08:26:27.035Z</time></trkpt><trkpt lat="43.4359418" lon="12.9499053"><ele>285.0</ele><time>2026-04-25T08:26:28.035Z</time></trkpt><trkpt lat="43.4357751" lon="12.9497947"><ele>285.0</ele><time>2026-04-25T08:26:29.034Z</time></trkpt><trkpt lat="43.4356174" lon="12.9496998"><ele>285.0</ele><time>2026-04-25T08:26:30.034Z</time></trkpt><trkpt lat="43.4354621" lon="12.9496136"><ele>285.0</ele><time>2026-04-25T08:26:31.036Z</time></trkpt><trkpt lat="43.4353071" lon="12.9495263"><ele>285.0</ele><time>2026-04-25T08:26:32.035Z</time></trkpt><trkpt lat="43.4351603" lon="12.9494378"><ele>285.0</ele><time>2026-04-25T08:26:33.034Z</time></trkpt><trkpt lat="43.4350245" lon="12.9493518"><ele>285.0</ele><time>2026-04-25T08:26:34.034Z</time></trkpt><trkpt lat="43.4348972" lon="12.949263"><ele>285.0</ele><time>2026-04-25T08:26:35.036Z</time></trkpt><trkpt lat="43.4347732" lon="12.9491633"><ele>285.0</ele><time>2026-04-25T08:26:36.034Z</time></trkpt><trkpt lat="43.4346598" lon="12.9490565"><ele>285.0</ele><time>2026-04-25T08:26:37.035Z</time></trkpt><trkpt lat="43.4345456" lon="12.94896"><ele>283.75</ele><time>2026-04-25T08:26:38.034Z</time></trkpt><trkpt lat="43.4344174" lon="12.9488834"><ele>282.5</ele><time>2026-04-25T08:26:39.034Z</time></trkpt><trkpt lat="43.4342809" lon="12.9488178"><ele>281.25</ele><time>2026-04-25T08:26:40.035Z</time></trkpt><trkpt lat="43.434155" lon="12.9487528"><ele>280.0</ele><time>2026-04-25T08:26:41.036Z</time></trkpt><trkpt lat="43.4340402" lon="12.948667"><ele>280.0</ele><time>2026-04-25T08:26:42.034Z</time></trkpt><trkpt lat="43.4339294" lon="12.9485508"><ele>280.0</ele><time>2026-04-25T08:26:43.034Z</time></trkpt><trkpt lat="43.4338306" lon="12.9484393"><ele>280.0</ele><time>2026-04-25T08:26:44.035Z</time></trkpt><trkpt lat="43.4337228" lon="12.9483583"><ele>280.0</ele><time>2026-04-25T08:26:45.034Z</time></trkpt><trkpt lat="43.4336217" lon="12.9483016"><ele>279.4</ele><time>2026-04-25T08:26:46.036Z</time></trkpt><trkpt lat="43.4335298" lon="12.9482554"><ele>278.8</ele><time>2026-04-25T08:26:47.034Z</time></trkpt><trkpt lat="43.4334449" lon="12.9482073"><ele>278.2</ele><time>2026-04-25T08:26:48.035Z</time></trkpt><trkpt lat="43.4333694" lon="12.9481524"><ele>277.6</ele><time>2026-04-25T08:26:49.034Z</time></trkpt><trkpt lat="43.4332998" lon="12.9480871"><ele>277.0</ele><time>2026-04-25T08:26:50.034Z</time></trkpt><trkpt lat="43.433231" lon="12.9479976"><ele>277.0</ele><time>2026-04-25T08:26:51.035Z</time></trkpt><trkpt lat="43.4331653" lon="12.9478769"><ele>277.0</ele><time>2026-04-25T08:26:52.034Z</time></trkpt><trkpt lat="43.4330999" lon="12.9477345"><ele>277.0</ele><time>2026-04-25T08:26:53.035Z</time></trkpt><trkpt lat="43.4330411" lon="12.9476011"><ele>277.0</ele><time>2026-04-25T08:26:54.034Z</time></trkpt><trkpt lat="43.4329879" lon="12.9474737"><ele>277.4</ele><time>2026-04-25T08:26:55.035Z</time></trkpt><trkpt lat="43.4329411" lon="12.9473613"><ele>277.79999999999995</ele><time>2026-04-25T08:26:56.034Z</time></trkpt><trkpt lat="43.4328911" lon="12.9472501"><ele>278.2</ele><time>2026-04-25T08:26:57.036Z</time></trkpt><trkpt lat="43.4328331" lon="12.9471332"><ele>278.59999999999997</ele><time>2026-04-25T08:26:58.035Z</time></trkpt><trkpt lat="43.4327635" lon="12.9470055"><ele>279.0</ele><time>2026-04-25T08:26:59.035Z</time></trkpt><trkpt lat="43.4326801" lon="12.946872"><ele>279.0</ele><time>2026-04-25T08:27:00.036Z</time></trkpt><trkpt lat="43.4325816" lon="12.9467477"><ele>279.0</ele><time>2026-04-25T08:27:01.035Z</time></trkpt><trkpt lat="43.4324724" lon="12.9466359"><ele>279.0</ele><time>2026-04-25T08:27:02.035Z</time></trkpt><trkpt lat="43.4323584" lon="12.9465346"><ele>279.0</ele><time>2026-04-25T08:27:03.034Z</time></trkpt><trkpt lat="43.4322457" lon="12.9464468"><ele>278.2</ele><time>2026-04-25T08:27:04.035Z</time></trkpt><trkpt lat="43.4321379" lon="12.9463811"><ele>277.4</ele><time>2026-04-25T08:27:05.035Z</time></trkpt><trkpt lat="43.4320319" lon="12.9463309"><ele>276.6</ele><time>2026-04-25T08:27:06.034Z</time></trkpt><trkpt lat="43.4319292" lon="12.9462943"><ele>275.8</ele><time>2026-04-25T08:27:07.035Z</time></trkpt><trkpt lat="43.4318437" lon="12.9462761"><ele>275.0</ele><time>2026-04-25T08:27:08.034Z</time></trkpt><trkpt lat="43.4317728" lon="12.9462678"><ele>275.0</ele><time>2026-04-25T08:27:09.034Z</time></trkpt><trkpt lat="43.4317019" lon="12.9462645"><ele>275.0</ele><time>2026-04-25T08:27:11.036Z</time></trkpt><trkpt lat="43.4316084" lon="12.9462335"><ele>275.0</ele><time>2026-04-25T08:27:13.034Z</time></trkpt><trkpt lat="43.4315244" lon="12.9461653"><ele>275.0</ele><time>2026-04-25T08:27:14.034Z</time></trkpt><trkpt lat="43.4314232" lon="12.9460332"><ele>275.0</ele><time>2026-04-25T08:27:15.035Z</time></trkpt><trkpt lat="43.4313055" lon="12.9458932"><ele>273.33333333333337</ele><time>2026-04-25T08:27:16.034Z</time></trkpt><trkpt lat="43.4311703" lon="12.9457917"><ele>271.6666666666667</ele><time>2026-04-25T08:27:17.034Z</time></trkpt><trkpt lat="43.4310169" lon="12.9456997"><ele>270.0</ele><time>2026-04-25T08:27:18.034Z</time></trkpt><trkpt lat="43.4308759" lon="12.9455785"><ele>270.0</ele><time>2026-04-25T08:27:19.034Z</time></trkpt><trkpt lat="43.4307375" lon="12.9454256"><ele>270.0</ele><time>2026-04-25T08:27:20.035Z</time></trkpt><trkpt lat="43.4306209" lon="12.9452773"><ele>270.0</ele><time>2026-04-25T08:27:21.035Z</time></trkpt><trkpt lat="43.4305218" lon="12.9451408"><ele>269.5</ele><time>2026-04-25T08:27:22.034Z</time></trkpt><trkpt lat="43.4304212" lon="12.9449896"><ele>269.0</ele><time>2026-04-25T08:27:23.035Z</time></trkpt><trkpt lat="43.4303286" lon="12.9448294"><ele>268.5</ele><time>2026-04-25T08:27:24.034Z</time></trkpt><trkpt lat="43.4302502" lon="12.9446765"><ele>268.0</ele><time>2026-04-25T08:27:25.034Z</time></trkpt><trkpt lat="43.4301763" lon="12.9445299"><ele>268.0</ele><time>2026-04-25T08:27:26.034Z</time></trkpt><trkpt lat="43.4301021" lon="12.9443845"><ele>268.0</ele><time>2026-04-25T08:27:27.034Z</time></trkpt><trkpt lat="43.4300296" lon="12.9442505"><ele>268.0</ele><time>2026-04-25T08:27:28.034Z</time></trkpt><trkpt lat="43.4299615" lon="12.9441244"><ele>268.0</ele><time>2026-04-25T08:27:29.036Z</time></trkpt><trkpt lat="43.4299045" lon="12.9439816"><ele>268.75</ele><time>2026-04-25T08:27:30.035Z</time></trkpt><trkpt lat="43.4298573" lon="12.9438076"><ele>269.5</ele><time>2026-04-25T08:27:31.034Z</time></trkpt><trkpt lat="43.4298222" lon="12.9436116"><ele>270.25</ele><time>2026-04-25T08:27:32.034Z</time></trkpt><trkpt lat="43.4297963" lon="12.9434158"><ele>271.0</ele><time>2026-04-25T08:27:33.035Z</time></trkpt><trkpt lat="43.429776" lon="12.9432253"><ele>273.0</ele><time>2026-04-25T08:27:34.035Z</time></trkpt><trkpt lat="43.4297572" lon="12.9430358"><ele>275.0</ele><time>2026-04-25T08:27:35.034Z</time></trkpt><trkpt lat="43.4297381" lon="12.942851"><ele>277.0</ele><time>2026-04-25T08:27:36.035Z</time></trkpt><trkpt lat="43.4297181" lon="12.9426683"><ele>279.0</ele><time>2026-04-25T08:27:37.034Z</time></trkpt><trkpt lat="43.4296982" lon="12.9424779"><ele>280.5</ele><time>2026-04-25T08:27:38.035Z</time></trkpt><trkpt lat="43.4296737" lon="12.9422861"><ele>282.0</ele><time>2026-04-25T08:27:39.034Z</time></trkpt><trkpt lat="43.4296382" lon="12.9421014"><ele>283.5</ele><time>2026-04-25T08:27:40.036Z</time></trkpt><trkpt lat="43.4295944" lon="12.9419311"><ele>285.0</ele><time>2026-04-25T08:27:41.034Z</time></trkpt><trkpt lat="43.4295427" lon="12.941777"><ele>278.0</ele><time>2026-04-25T08:27:42.036Z</time></trkpt><trkpt lat="43.4294807" lon="12.9416262"><ele>271.0</ele><time>2026-04-25T08:27:43.035Z</time></trkpt><trkpt lat="43.4294157" lon="12.9414778"><ele>264.0</ele><time>2026-04-25T08:27:44.035Z</time></trkpt><trkpt lat="43.4293579" lon="12.9413275"><ele>257.0</ele><time>2026-04-25T08:27:45.036Z</time></trkpt><trkpt lat="43.4293119" lon="12.9411681"><ele>257.0</ele><time>2026-04-25T08:27:46.034Z</time></trkpt><trkpt lat="43.4292771" lon="12.9409979"><ele>257.0</ele><time>2026-04-25T08:27:47.034Z</time></trkpt><trkpt lat="43.4292481" lon="12.940817"><ele>257.0</ele><time>2026-04-25T08:27:48.035Z</time></trkpt><trkpt lat="43.4292209" lon="12.9406225"><ele>257.0</ele><time>2026-04-25T08:27:49.035Z</time></trkpt><trkpt lat="43.4291913" lon="12.9404161"><ele>258.6666666666667</ele><time>2026-04-25T08:27:50.035Z</time></trkpt><trkpt lat="43.4291565" lon="12.9402024"><ele>260.3333333333333</ele><time>2026-04-25T08:27:51.034Z</time></trkpt><trkpt lat="43.4291119" lon="12.93999"><ele>262.0</ele><time>2026-04-25T08:27:52.035Z</time></trkpt><trkpt lat="43.4290523" lon="12.9397839"><ele>264.0</ele><time>2026-04-25T08:27:53.034Z</time></trkpt><trkpt lat="43.428988" lon="12.9395836"><ele>266.0</ele><time>2026-04-25T08:27:54.034Z</time></trkpt><trkpt lat="43.428924" lon="12.9393913"><ele>268.0</ele><time>2026-04-25T08:27:55.034Z</time></trkpt><trkpt lat="43.4288632" lon="12.9392052"><ele>265.0</ele><time>2026-04-25T08:27:56.034Z</time></trkpt><trkpt lat="43.4288031" lon="12.9390251"><ele>262.0</ele><time>2026-04-25T08:27:57.035Z</time></trkpt><trkpt lat="43.4287359" lon="12.9388442"><ele>259.0</ele><time>2026-04-25T08:27:58.034Z</time></trkpt><trkpt lat="43.4286556" lon="12.9386735"><ele>256.0</ele><time>2026-04-25T08:27:59.034Z</time></trkpt><trkpt lat="43.4285624" lon="12.9385216"><ele>256.0</ele><time>2026-04-25T08:28:00.036Z</time></trkpt><trkpt lat="43.4284501" lon="12.9383847"><ele>256.0</ele><time>2026-04-25T08:28:01.034Z</time></trkpt><trkpt lat="43.4283135" lon="12.9382528"><ele>256.0</ele><time>2026-04-25T08:28:02.034Z</time></trkpt><trkpt lat="43.4281575" lon="12.9381158"><ele>254.33333333333331</ele><time>2026-04-25T08:28:03.034Z</time></trkpt><trkpt lat="43.4280133" lon="12.9379846"><ele>252.66666666666669</ele><time>2026-04-25T08:28:04.035Z</time></trkpt><trkpt lat="43.4278795" lon="12.9378556"><ele>251.0</ele><time>2026-04-25T08:28:05.035Z</time></trkpt><trkpt lat="43.4277521" lon="12.9377187"><ele>251.0</ele><time>2026-04-25T08:28:06.035Z</time></trkpt><trkpt lat="43.4276298" lon="12.937585"><ele>251.0</ele><time>2026-04-25T08:28:07.035Z</time></trkpt><trkpt lat="43.4275098" lon="12.9374566"><ele>251.0</ele><time>2026-04-25T08:28:08.034Z</time></trkpt><trkpt lat="43.4273924" lon="12.9373403"><ele>251.75</ele><time>2026-04-25T08:28:09.034Z</time></trkpt><trkpt lat="43.4272751" lon="12.9372412"><ele>252.5</ele><time>2026-04-25T08:28:10.035Z</time></trkpt><trkpt lat="43.4271533" lon="12.9371639"><ele>253.25</ele><time>2026-04-25T08:28:11.035Z</time></trkpt><trkpt lat="43.427023" lon="12.937105"><ele>254.0</ele><time>2026-04-25T08:28:12.036Z</time></trkpt><trkpt lat="43.4268981" lon="12.9370637"><ele>254.0</ele><time>2026-04-25T08:28:13.035Z</time></trkpt><trkpt lat="43.4267834" lon="12.9370269"><ele>253.99999999999997</ele><time>2026-04-25T08:28:14.034Z</time></trkpt><trkpt lat="43.4266783" lon="12.9369726"><ele>253.99999999999997</ele><time>2026-04-25T08:28:15.035Z</time></trkpt><trkpt lat="43.4265823" lon="12.9369021"><ele>254.0</ele><time>2026-04-25T08:28:16.035Z</time></trkpt><trkpt lat="43.4264977" lon="12.9368178"><ele>254.0</ele><time>2026-04-25T08:28:17.035Z</time></trkpt><trkpt lat="43.4264235" lon="12.936709"><ele>254.0</ele><time>2026-04-25T08:28:18.034Z</time></trkpt><trkpt lat="43.4263676" lon="12.9365837"><ele>253.99999999999997</ele><time>2026-04-25T08:28:19.035Z</time></trkpt><trkpt lat="43.4263348" lon="12.9364536"><ele>253.99999999999997</ele><time>2026-04-25T08:28:20.035Z</time></trkpt><trkpt lat="43.4263258" lon="12.9363145"><ele>254.0</ele><time>2026-04-25T08:28:21.035Z</time></trkpt><trkpt lat="43.4263431" lon="12.93618"><ele>254.0</ele><time>2026-04-25T08:28:22.034Z</time></trkpt><trkpt lat="43.4263908" lon="12.9360499"><ele>254.0</ele><time>2026-04-25T08:28:23.035Z</time></trkpt><trkpt lat="43.4264642" lon="12.9359303"><ele>253.99999999999997</ele><time>2026-04-25T08:28:24.034Z</time></trkpt><trkpt lat="43.4265489" lon="12.9358165"><ele>253.99999999999997</ele><time>2026-04-25T08:28:25.035Z</time></trkpt><trkpt lat="43.4266285" lon="12.9357054"><ele>254.0</ele><time>2026-04-25T08:28:26.034Z</time></trkpt><trkpt lat="43.4266884" lon="12.9355994"><ele>254.0</ele><time>2026-04-25T08:28:27.034Z</time></trkpt><trkpt lat="43.4267378" lon="12.9355016"><ele>253.0</ele><time>2026-04-25T08:28:28.035Z</time></trkpt><trkpt lat="43.4267816" lon="12.9354061"><ele>251.99999999999997</ele><time>2026-04-25T08:28:29.035Z</time></trkpt><trkpt lat="43.4268226" lon="12.9353056"><ele>250.99999999999997</ele><time>2026-04-25T08:28:30.035Z</time></trkpt><trkpt lat="43.4268668" lon="12.9351952"><ele>250.0</ele><time>2026-04-25T08:28:31.036Z</time></trkpt><trkpt lat="43.426915" lon="12.9350778"><ele>249.0</ele><time>2026-04-25T08:28:32.034Z</time></trkpt><trkpt lat="43.4269637" lon="12.934953"><ele>247.83333333333334</ele><time>2026-04-25T08:28:33.035Z</time></trkpt><trkpt lat="43.4270082" lon="12.9348312"><ele>246.66666666666669</ele><time>2026-04-25T08:28:34.034Z</time></trkpt><trkpt lat="43.427052" lon="12.9347153"><ele>245.5</ele><time>2026-04-25T08:28:35.035Z</time></trkpt><trkpt lat="43.4270953" lon="12.9346098"><ele>244.33333333333334</ele><time>2026-04-25T08:28:36.035Z</time></trkpt><trkpt lat="43.427138" lon="12.9345098"><ele>243.16666666666669</ele><time>2026-04-25T08:28:37.034Z</time></trkpt><trkpt lat="43.4271788" lon="12.9344115"><ele>242.0</ele><time>2026-04-25T08:28:38.034Z</time></trkpt><trkpt lat="43.4272211" lon="12.9343032"><ele>242.66666666666669</ele><time>2026-04-25T08:28:39.036Z</time></trkpt><trkpt lat="43.4272711" lon="12.9341741"><ele>243.33333333333334</ele><time>2026-04-25T08:28:40.036Z</time></trkpt><trkpt lat="43.4273238" lon="12.9340531"><ele>244.0</ele><time>2026-04-25T08:28:41.034Z</time></trkpt><trkpt lat="43.4273682" lon="12.9339496"><ele>244.66666666666669</ele><time>2026-04-25T08:28:42.034Z</time></trkpt><trkpt lat="43.427405" lon="12.9338578"><ele>245.33333333333334</ele><time>2026-04-25T08:28:43.034Z</time></trkpt><trkpt lat="43.4274376" lon="12.9337757"><ele>246.0</ele><time>2026-04-25T08:28:44.035Z</time></trkpt><trkpt lat="43.4275008" lon="12.9336696"><ele>246.0</ele><time>2026-04-25T08:28:46.035Z</time></trkpt><trkpt lat="43.4275483" lon="12.9335827"><ele>246.0</ele><time>2026-04-25T08:28:48.034Z</time></trkpt><trkpt lat="43.4275653" lon="12.9334873"><ele>246.0</ele><time>2026-04-25T08:28:50.034Z</time></trkpt><trkpt lat="43.4275681" lon="12.9333641"><ele>246.0</ele><time>2026-04-25T08:29:25.035Z</time></trkpt><trkpt lat="43.4275723" lon="12.9332635"><ele>246.0</ele><time>2026-04-25T08:29:26.035Z</time></trkpt><trkpt lat="43.427581" lon="12.9331479"><ele>246.0</ele><time>2026-04-25T08:29:27.034Z</time></trkpt><trkpt lat="43.4275885" lon="12.9330487"><ele>245.20000000000002</ele><time>2026-04-25T08:29:28.035Z</time></trkpt><trkpt lat="43.4276123" lon="12.9329003"><ele>244.40000000000003</ele><time>2026-04-25T08:29:30.035Z</time></trkpt><trkpt lat="43.4276559" lon="12.9328355"><ele>243.6</ele><time>2026-04-25T08:29:32.034Z</time></trkpt><trkpt lat="43.4277064" lon="12.9329563"><ele>242.8</ele><time>2026-04-25T08:29:35.034Z</time></trkpt><trkpt lat="43.4277168" lon="12.9330587"><ele>242.0</ele><time>2026-04-25T08:29:36.036Z</time></trkpt><trkpt lat="43.4277273" lon="12.9332217"><ele>243.33333333333334</ele><time>2026-04-25T08:29:37.034Z</time></trkpt><trkpt lat="43.4277395" lon="12.9334435"><ele>244.66666666666669</ele><time>2026-04-25T08:29:38.034Z</time></trkpt><trkpt lat="43.4277567" lon="12.9337212"><ele>246.0</ele><time>2026-04-25T08:29:39.034Z</time></trkpt><trkpt lat="43.4277717" lon="12.9339862"><ele>246.0</ele><time>2026-04-25T08:29:40.035Z</time></trkpt><trkpt lat="43.4277771" lon="12.9342111"><ele>246.0</ele><time>2026-04-25T08:29:41.034Z</time></trkpt><trkpt lat="43.4277674" lon="12.9344221"><ele>246.0</ele><time>2026-04-25T08:29:42.036Z</time></trkpt><trkpt lat="43.4277314" lon="12.9346273"><ele>248.5</ele><time>2026-04-25T08:29:43.035Z</time></trkpt><trkpt lat="43.4276728" lon="12.9348102"><ele>251.0</ele><time>2026-04-25T08:29:44.036Z</time></trkpt><trkpt lat="43.4276042" lon="12.9349765"><ele>253.5</ele><time>2026-04-25T08:29:45.034Z</time></trkpt><trkpt lat="43.4275345" lon="12.9351259"><ele>256.0</ele><time>2026-04-25T08:29:46.034Z</time></trkpt><trkpt lat="43.4274585" lon="12.9352644"><ele>254.25</ele><time>2026-04-25T08:29:47.034Z</time></trkpt><trkpt lat="43.4273682" lon="12.9354165"><ele>252.5</ele><time>2026-04-25T08:29:48.034Z</time></trkpt><trkpt lat="43.4272677" lon="12.9355643"><ele>250.75</ele><time>2026-04-25T08:29:49.035Z</time></trkpt><trkpt lat="43.4271624" lon="12.935692"><ele>249.0</ele><time>2026-04-25T08:29:50.035Z</time></trkpt><trkpt lat="43.427051" lon="12.9358001"><ele>250.0</ele><time>2026-04-25T08:29:51.035Z</time></trkpt><trkpt lat="43.4269442" lon="12.9358965"><ele>250.99999999999997</ele><time>2026-04-25T08:29:52.035Z</time></trkpt><trkpt lat="43.4268492" lon="12.9359827"><ele>251.99999999999997</ele><time>2026-04-25T08:29:53.035Z</time></trkpt><trkpt lat="43.4267671" lon="12.9360572"><ele>253.0</ele><time>2026-04-25T08:29:54.036Z</time></trkpt><trkpt lat="43.4266954" lon="12.9361405"><ele>254.0</ele><time>2026-04-25T08:29:55.034Z</time></trkpt><trkpt lat="43.4266417" lon="12.9362467"><ele>254.0</ele><time>2026-04-25T08:29:56.035Z</time></trkpt><trkpt lat="43.4266264" lon="12.9363708"><ele>253.99999999999997</ele><time>2026-04-25T08:29:57.034Z</time></trkpt><trkpt lat="43.4266536" lon="12.9364977"><ele>253.99999999999997</ele><time>2026-04-25T08:29:58.035Z</time></trkpt><trkpt lat="43.4267153" lon="12.9365992"><ele>254.0</ele><time>2026-04-25T08:29:59.035Z</time></trkpt><trkpt lat="43.4268089" lon="12.9366795"><ele>254.0</ele><time>2026-04-25T08:30:00.035Z</time></trkpt><trkpt lat="43.4269271" lon="12.9367215"><ele>254.0</ele><time>2026-04-25T08:30:01.035Z</time></trkpt><trkpt lat="43.4270743" lon="12.9367149"><ele>254.0</ele><time>2026-04-25T08:30:02.034Z</time></trkpt><trkpt lat="43.4272459" lon="12.9366533"><ele>254.0</ele><time>2026-04-25T08:30:03.034Z</time></trkpt><trkpt lat="43.4274176" lon="12.9365684"><ele>258.33333333333337</ele><time>2026-04-25T08:30:04.035Z</time></trkpt><trkpt lat="43.4276204" lon="12.9365002"><ele>262.6666666666667</ele><time>2026-04-25T08:30:05.034Z</time></trkpt><trkpt lat="43.4278466" lon="12.9364524"><ele>267.0</ele><time>2026-04-25T08:30:06.034Z</time></trkpt><trkpt lat="43.428091" lon="12.93642"><ele>271.0</ele><time>2026-04-25T08:30:07.035Z</time></trkpt><trkpt lat="43.4283214" lon="12.9364008"><ele>275.0</ele><time>2026-04-25T08:30:08.034Z</time></trkpt><trkpt lat="43.4285419" lon="12.9363976"><ele>275.0</ele><time>2026-04-25T08:30:09.034Z</time></trkpt><trkpt lat="43.4287617" lon="12.9363939"><ele>275.0</ele><time>2026-04-25T08:30:10.035Z</time></trkpt><trkpt lat="43.4289738" lon="12.9363575"><ele>275.0</ele><time>2026-04-25T08:30:11.035Z</time></trkpt><trkpt lat="43.429171" lon="12.9362862"><ele>275.6666666666667</ele><time>2026-04-25T08:30:12.034Z</time></trkpt><trkpt lat="43.4293495" lon="12.9362184"><ele>276.3333333333333</ele><time>2026-04-25T08:30:13.034Z</time></trkpt><trkpt lat="43.4295017" lon="12.9361727"><ele>277.0</ele><time>2026-04-25T08:30:14.035Z</time></trkpt><trkpt lat="43.4296311" lon="12.9361538"><ele>279.0</ele><time>2026-04-25T08:30:15.034Z</time></trkpt><trkpt lat="43.4297576" lon="12.9361722"><ele>281.0</ele><time>2026-04-25T08:30:16.034Z</time></trkpt><trkpt lat="43.429885" lon="12.9362421"><ele>283.0</ele><time>2026-04-25T08:30:17.034Z</time></trkpt><trkpt lat="43.4300104" lon="12.9363626"><ele>285.0</ele><time>2026-04-25T08:30:18.036Z</time></trkpt><trkpt lat="43.4301315" lon="12.9364764"><ele>285.0</ele><time>2026-04-25T08:30:19.035Z</time></trkpt><trkpt lat="43.4302642" lon="12.9365402"><ele>285.0</ele><time>2026-04-25T08:30:20.035Z</time></trkpt><trkpt lat="43.4304184" lon="12.936572"><ele>285.0</ele><time>2026-04-25T08:30:21.035Z</time></trkpt><trkpt lat="43.4305836" lon="12.9365972"><ele>288.0</ele><time>2026-04-25T08:30:22.036Z</time></trkpt><trkpt lat="43.4307469" lon="12.9366245"><ele>291.0</ele><time>2026-04-25T08:30:23.034Z</time></trkpt><trkpt lat="43.4309039" lon="12.9366452"><ele>294.0</ele><time>2026-04-25T08:30:24.035Z</time></trkpt><trkpt lat="43.4310272" lon="12.9366418"><ele>297.0</ele><time>2026-04-25T08:30:25.034Z</time></trkpt><trkpt lat="43.4311244" lon="12.9365925"><ele>297.0</ele><time>2026-04-25T08:30:26.034Z</time></trkpt><trkpt lat="43.4312301" lon="12.9365061"><ele>297.0</ele><time>2026-04-25T08:30:27.034Z</time></trkpt><trkpt lat="43.4313302" lon="12.9364448"><ele>297.0</ele><time>2026-04-25T08:30:28.035Z</time></trkpt><trkpt lat="43.4314315" lon="12.9364626"><ele>297.0</ele><time>2026-04-25T08:30:29.034Z</time></trkpt><trkpt lat="43.4315356" lon="12.936539"><ele>297.6666666666667</ele><time>2026-04-25T08:30:30.034Z</time></trkpt><trkpt lat="43.4316353" lon="12.9366279"><ele>298.3333333333333</ele><time>2026-04-25T08:30:31.034Z</time></trkpt><trkpt lat="43.4317192" lon="12.9366801"><ele>299.0</ele><time>2026-04-25T08:30:32.034Z</time></trkpt><trkpt lat="43.431791" lon="12.9366776"><ele>299.66666666666663</ele><time>2026-04-25T08:30:33.034Z</time></trkpt><trkpt lat="43.431857" lon="12.9366256"><ele>300.3333333333333</ele><time>2026-04-25T08:30:34.036Z</time></trkpt><trkpt lat="43.431899" lon="12.9365422"><ele>301.0</ele><time>2026-04-25T08:30:35.035Z</time></trkpt><trkpt lat="43.4318995" lon="12.9364404"><ele>301.0</ele><time>2026-04-25T08:30:36.034Z</time></trkpt><trkpt lat="43.4318549" lon="12.936348"><ele>301.0</ele><time>2026-04-25T08:30:37.035Z</time></trkpt><trkpt lat="43.4317751" lon="12.9362903"><ele>301.0</ele><time>2026-04-25T08:30:38.034Z</time></trkpt><trkpt lat="43.4316837" lon="12.936235"><ele>301.0</ele><time>2026-04-25T08:30:39.035Z</time></trkpt><trkpt lat="43.4315385" lon="12.9362003"><ele>301.0</ele><time>2026-04-25T08:30:40.034Z</time></trkpt><trkpt lat="43.4314038" lon="12.936201"><ele>300.0</ele><time>2026-04-25T08:30:41.034Z</time></trkpt><trkpt lat="43.4312626" lon="12.9362524"><ele>299.0</ele><time>2026-04-25T08:30:42.035Z</time></trkpt><trkpt lat="43.4311209" lon="12.9363323"><ele>298.0</ele><time>2026-04-25T08:30:43.035Z</time></trkpt><trkpt lat="43.4310118" lon="12.9363603"><ele>297.0</ele><time>2026-04-25T08:30:44.035Z</time></trkpt><trkpt lat="43.4308944" lon="12.9363396"><ele>297.0</ele><time>2026-04-25T08:30:45.034Z</time></trkpt><trkpt lat="43.4307753" lon="12.9362847"><ele>297.0</ele><time>2026-04-25T08:30:46.035Z</time></trkpt><trkpt lat="43.4306727" lon="12.9362219"><ele>297.0</ele><time>2026-04-25T08:30:47.035Z</time></trkpt><trkpt lat="43.4305764" lon="12.9361524"><ele>297.0</ele><time>2026-04-25T08:30:48.035Z</time></trkpt><trkpt lat="43.4304842" lon="12.9360586"><ele>298.5</ele><time>2026-04-25T08:30:49.034Z</time></trkpt><trkpt lat="43.4304039" lon="12.9359419"><ele>300.0</ele><time>2026-04-25T08:30:50.035Z</time></trkpt><trkpt lat="43.4303304" lon="12.9358207"><ele>301.5</ele><time>2026-04-25T08:30:51.034Z</time></trkpt><trkpt lat="43.4302557" lon="12.9357048"><ele>303.0</ele><time>2026-04-25T08:30:52.035Z</time></trkpt><trkpt lat="43.4301765" lon="12.9356027"><ele>303.0</ele><time>2026-04-25T08:30:53.035Z</time></trkpt><trkpt lat="43.4301046" lon="12.9355222"><ele>303.0</ele><time>2026-04-25T08:30:54.035Z</time></trkpt><trkpt lat="43.4300481" lon="12.9354663"><ele>303.0</ele><time>2026-04-25T08:30:55.035Z</time></trkpt><trkpt lat="43.4299846" lon="12.9354132"><ele>303.0</ele><time>2026-04-25T08:30:57.034Z</time></trkpt><trkpt lat="43.4299084" lon="12.9353786"><ele>303.0</ele><time>2026-04-25T08:30:59.034Z</time></trkpt><trkpt lat="43.4298162" lon="12.9353699"><ele>303.0</ele><time>2026-04-25T08:31:01.034Z</time></trkpt><trkpt lat="43.4297415" lon="12.9353792"><ele>303.0</ele><time>2026-04-25T08:31:03.034Z</time></trkpt><trkpt lat="43.4296485" lon="12.9354012"><ele>303.0</ele><time>2026-04-25T08:31:05.034Z</time></trkpt><trkpt lat="43.4295547" lon="12.9354359"><ele>303.0</ele><time>2026-04-25T08:31:07.034Z</time></trkpt><trkpt lat="43.4294761" lon="12.9354515"><ele>303.0</ele><time>2026-04-25T08:31:09.036Z</time></trkpt><trkpt lat="43.429406" lon="12.9354417"><ele>303.0</ele><time>2026-04-25T08:31:11.035Z</time></trkpt><trkpt lat="43.4293498" lon="12.9353848"><ele>303.0</ele><time>2026-04-25T08:31:13.035Z</time></trkpt><trkpt lat="43.4293171" lon="12.9352657"><ele>303.5</ele><time>2026-04-25T08:31:15.034Z</time></trkpt><trkpt lat="43.4292953" lon="12.9351842"><ele>304.0</ele><time>2026-04-25T08:31:16.034Z</time></trkpt><trkpt lat="43.4292719" lon="12.9350499"><ele>304.5</ele><time>2026-04-25T08:31:18.036Z</time></trkpt><trkpt lat="43.4292262" lon="12.9349788"><ele>305.0</ele><time>2026-04-25T08:31:20.036Z</time></trkpt><trkpt lat="43.4291344" lon="12.9349964"><ele>305.5</ele><time>2026-04-25T08:31:22.035Z</time></trkpt><trkpt lat="43.4290309" lon="12.9350313"><ele>306.0</ele><time>2026-04-25T08:31:24.034Z</time></trkpt><trkpt lat="43.4289304" lon="12.9350704"><ele>306.0</ele><time>2026-04-25T08:31:26.034Z</time></trkpt><trkpt lat="43.4288346" lon="12.935118"><ele>306.0</ele><time>2026-04-25T08:31:28.035Z</time></trkpt><trkpt lat="43.4287925" lon="12.9352184"><ele>306.0</ele><time>2026-04-25T08:31:30.035Z</time></trkpt><trkpt lat="43.4287993" lon="12.935335"><ele>306.0</ele><time>2026-04-25T08:31:32.035Z</time></trkpt><trkpt lat="43.4288225" lon="12.9354442"><ele>306.0</ele><time>2026-04-25T08:31:34.035Z</time></trkpt><trkpt lat="43.4288824" lon="12.9355168"><ele>306.0</ele><time>2026-04-25T08:31:36.035Z</time></trkpt><trkpt lat="43.4289774" lon="12.9354825"><ele>306.0</ele><time>2026-04-25T08:31:38.034Z</time></trkpt><trkpt lat="43.4290782" lon="12.9354263"><ele>306.0</ele><time>2026-04-25T08:31:40.034Z</time></trkpt><trkpt lat="43.4291639" lon="12.9353789"><ele>306.0</ele><time>2026-04-25T08:31:42.034Z</time></trkpt><trkpt lat="43.4292473" lon="12.9353379"><ele>306.0</ele><time>2026-04-25T08:31:44.034Z</time></trkpt><trkpt lat="43.4293083" lon="12.9353117"><ele>306.0</ele><time>2026-04-25T08:31:46.034Z</time></trkpt><trkpt lat="43.4293903" lon="12.9353344"><ele>306.0</ele><time>2026-04-25T08:31:48.035Z</time></trkpt><trkpt lat="43.4294607" lon="12.9353725"><ele>306.0</ele><time>2026-04-25T08:31:49.035Z</time></trkpt><trkpt lat="43.4295278" lon="12.9353986"><ele>306.0</ele><time>2026-04-25T08:31:50.034Z</time></trkpt><trkpt lat="43.4295939" lon="12.9354025"><ele>306.0</ele><time>2026-04-25T08:31:51.035Z</time></trkpt><trkpt lat="43.4296582" lon="12.9354069"><ele>306.0</ele><time>2026-04-25T08:31:52.034Z</time></trkpt><trkpt lat="43.4297336" lon="12.935401"><ele>306.0</ele><time>2026-04-25T08:31:53.035Z</time></trkpt><trkpt lat="43.4298031" lon="12.9353943"><ele>306.0</ele><time>2026-04-25T08:31:54.035Z</time></trkpt><trkpt lat="43.4298669" lon="12.9353941"><ele>306.0</ele><time>2026-04-25T08:31:55.035Z</time></trkpt><trkpt lat="43.4299885" lon="12.9354518"><ele>305.40000000000003</ele><time>2026-04-25T08:31:57.034Z</time></trkpt><trkpt lat="43.4300607" lon="12.9355152"><ele>304.8</ele><time>2026-04-25T08:31:58.035Z</time></trkpt><trkpt lat="43.4301439" lon="12.9355959"><ele>304.20000000000005</ele><time>2026-04-25T08:31:59.034Z</time></trkpt><trkpt lat="43.4302286" lon="12.9356998"><ele>303.6</ele><time>2026-04-25T08:32:00.034Z</time></trkpt><trkpt lat="43.4303147" lon="12.9358275"><ele>303.0</ele><time>2026-04-25T08:32:01.035Z</time></trkpt><trkpt lat="43.4303989" lon="12.9359656"><ele>301.5</ele><time>2026-04-25T08:32:02.034Z</time></trkpt><trkpt lat="43.4304832" lon="12.9360846"><ele>300.0</ele><time>2026-04-25T08:32:03.034Z</time></trkpt><trkpt lat="43.4305827" lon="12.9361836"><ele>298.5</ele><time>2026-04-25T08:32:04.035Z</time></trkpt><trkpt lat="43.4307055" lon="12.9362744"><ele>297.0</ele><time>2026-04-25T08:32:05.035Z</time></trkpt><trkpt lat="43.4308221" lon="12.9363493"><ele>297.0</ele><time>2026-04-25T08:32:06.034Z</time></trkpt><trkpt lat="43.4309261" lon="12.9363963"><ele>297.0</ele><time>2026-04-25T08:32:07.035Z</time></trkpt><trkpt lat="43.4310292" lon="12.9364005"><ele>297.0</ele><time>2026-04-25T08:32:08.035Z</time></trkpt><trkpt lat="43.4311456" lon="12.9363465"><ele>297.0</ele><time>2026-04-25T08:32:09.035Z</time></trkpt><trkpt lat="43.4312568" lon="12.9362769"><ele>298.0</ele><time>2026-04-25T08:32:10.034Z</time></trkpt><trkpt lat="43.4313649" lon="12.9362285"><ele>299.0</ele><time>2026-04-25T08:32:11.034Z</time></trkpt><trkpt lat="43.4314921" lon="12.936234"><ele>300.0</ele><time>2026-04-25T08:32:12.034Z</time></trkpt><trkpt lat="43.4316137" lon="12.9362599"><ele>301.0</ele><time>2026-04-25T08:32:13.034Z</time></trkpt><trkpt lat="43.4317054" lon="12.936281"><ele>301.0</ele><time>2026-04-25T08:32:14.035Z</time></trkpt><trkpt lat="43.4318601" lon="12.9363536"><ele>301.0</ele><time>2026-04-25T08:32:16.035Z</time></trkpt><trkpt lat="43.4318676" lon="12.9364563"><ele>301.0</ele><time>2026-04-25T08:32:17.035Z</time></trkpt><trkpt lat="43.4318526" lon="12.9365572"><ele>301.0</ele><time>2026-04-25T08:32:18.034Z</time></trkpt><trkpt lat="43.4318157" lon="12.9366288"><ele>301.0</ele><time>2026-04-25T08:32:19.035Z</time></trkpt><trkpt lat="43.431748" lon="12.9366553"><ele>301.0</ele><time>2026-04-25T08:32:20.036Z</time></trkpt><trkpt lat="43.4316641" lon="12.9366171"><ele>301.0</ele><time>2026-04-25T08:32:21.035Z</time></trkpt><trkpt lat="43.4315586" lon="12.9365363"><ele>301.0</ele><time>2026-04-25T08:32:22.034Z</time></trkpt><trkpt lat="43.4314644" lon="12.9364644"><ele>301.0</ele><time>2026-04-25T08:32:23.035Z</time></trkpt><trkpt lat="43.4313728" lon="12.9364436"><ele>301.0</ele><time>2026-04-25T08:32:24.034Z</time></trkpt><trkpt lat="43.4312613" lon="12.9364824"><ele>301.0</ele><time>2026-04-25T08:32:25.035Z</time></trkpt><trkpt lat="43.4311438" lon="12.9365588"><ele>300.0</ele><time>2026-04-25T08:32:26.034Z</time></trkpt><trkpt lat="43.4310443" lon="12.9366214"><ele>299.0</ele><time>2026-04-25T08:32:27.034Z</time></trkpt><trkpt lat="43.4309409" lon="12.9366212"><ele>298.0</ele><time>2026-04-25T08:32:28.035Z</time></trkpt><trkpt lat="43.4308085" lon="12.9366148"><ele>297.0</ele><time>2026-04-25T08:32:29.036Z</time></trkpt><trkpt lat="43.4306454" lon="12.9366012"><ele>293.0</ele><time>2026-04-25T08:32:30.035Z</time></trkpt><trkpt lat="43.4304593" lon="12.9365812"><ele>289.0</ele><time>2026-04-25T08:32:31.035Z</time></trkpt><trkpt lat="43.4303028" lon="12.936548"><ele>285.0</ele><time>2026-04-25T08:32:32.034Z</time></trkpt><trkpt lat="43.4301683" lon="12.9364978"><ele>285.0</ele><time>2026-04-25T08:32:33.034Z</time></trkpt><trkpt lat="43.4300463" lon="12.9364032"><ele>285.0</ele><time>2026-04-25T08:32:34.034Z</time></trkpt><trkpt lat="43.4299313" lon="12.9362842"><ele>285.0</ele><time>2026-04-25T08:32:35.034Z</time></trkpt><trkpt lat="43.4298248" lon="12.9361951"><ele>285.0</ele><time>2026-04-25T08:32:36.034Z</time></trkpt><trkpt lat="43.4297071" lon="12.9361478"><ele>282.3333333333333</ele><time>2026-04-25T08:32:37.035Z</time></trkpt><trkpt lat="43.4295497" lon="12.9361584"><ele>279.66666666666663</ele><time>2026-04-25T08:32:38.036Z</time></trkpt><trkpt lat="43.4293435" lon="12.9362151"><ele>277.0</ele><time>2026-04-25T08:32:39.035Z</time></trkpt><trkpt lat="43.4291463" lon="12.9362836"><ele>277.0</ele><time>2026-04-25T08:32:40.035Z</time></trkpt><trkpt lat="43.4289812" lon="12.9363411"><ele>277.0</ele><time>2026-04-25T08:32:41.035Z</time></trkpt><trkpt lat="43.4288133" lon="12.9363755"><ele>277.0</ele><time>2026-04-25T08:32:42.034Z</time></trkpt><trkpt lat="43.4286032" lon="12.9363755"><ele>276.3333333333333</ele><time>2026-04-25T08:32:43.034Z</time></trkpt><trkpt lat="43.42839" lon="12.9363742"><ele>275.6666666666667</ele><time>2026-04-25T08:32:44.034Z</time></trkpt><trkpt lat="43.4281951" lon="12.9363847"><ele>275.0</ele><time>2026-04-25T08:32:45.035Z</time></trkpt><trkpt lat="43.4280166" lon="12.9364012"><ele>272.33333333333337</ele><time>2026-04-25T08:32:46.035Z</time></trkpt><trkpt lat="43.4278489" lon="12.9364246"><ele>269.6666666666667</ele><time>2026-04-25T08:32:47.034Z</time></trkpt><trkpt lat="43.4276918" lon="12.9364492"><ele>267.0</ele><time>2026-04-25T08:32:48.035Z</time></trkpt><trkpt lat="43.4275419" lon="12.9364814"><ele>267.0</ele><time>2026-04-25T08:32:49.035Z</time></trkpt><trkpt lat="43.4273983" lon="12.9365335"><ele>267.0</ele><time>2026-04-25T08:32:50.034Z</time></trkpt><trkpt lat="43.4272646" lon="12.9365965"><ele>267.0</ele><time>2026-04-25T08:32:51.034Z</time></trkpt><trkpt lat="43.427137" lon="12.9366535"><ele>267.0</ele><time>2026-04-25T08:32:52.034Z</time></trkpt><trkpt lat="43.4270127" lon="12.9366728"><ele>264.4</ele><time>2026-04-25T08:32:53.035Z</time></trkpt><trkpt lat="43.426887" lon="12.9366448"><ele>261.79999999999995</ele><time>2026-04-25T08:32:54.035Z</time></trkpt><trkpt lat="43.4267748" lon="12.9365796"><ele>259.2</ele><time>2026-04-25T08:32:55.034Z</time></trkpt><trkpt lat="43.4267032" lon="12.9364974"><ele>256.59999999999997</ele><time>2026-04-25T08:32:56.034Z</time></trkpt><trkpt lat="43.4266667" lon="12.936401"><ele>254.0</ele><time>2026-04-25T08:32:57.036Z</time></trkpt><trkpt lat="43.4266671" lon="12.9362855"><ele>254.0</ele><time>2026-04-25T08:32:58.035Z</time></trkpt><trkpt lat="43.4267156" lon="12.9361686"><ele>254.0</ele><time>2026-04-25T08:32:59.034Z</time></trkpt><trkpt lat="43.4268147" lon="12.9360436"><ele>254.0</ele><time>2026-04-25T08:33:00.035Z</time></trkpt><trkpt lat="43.4269473" lon="12.9359072"><ele>254.0</ele><time>2026-04-25T08:33:01.034Z</time></trkpt><trkpt lat="43.4270729" lon="12.9357889"><ele>258.5</ele><time>2026-04-25T08:33:02.035Z</time></trkpt><trkpt lat="43.4271824" lon="12.935683"><ele>263.0</ele><time>2026-04-25T08:33:03.035Z</time></trkpt><trkpt lat="43.4272753" lon="12.9355824"><ele>267.5</ele><time>2026-04-25T08:33:04.035Z</time></trkpt><trkpt lat="43.4273518" lon="12.9354749"><ele>272.0</ele><time>2026-04-25T08:33:05.034Z</time></trkpt><trkpt lat="43.4274199" lon="12.9353639"><ele>272.0</ele><time>2026-04-25T08:33:06.034Z</time></trkpt><trkpt lat="43.4274825" lon="12.9352489"><ele>272.0</ele><time>2026-04-25T08:33:07.034Z</time></trkpt><trkpt lat="43.4275469" lon="12.9351308"><ele>272.0</ele><time>2026-04-25T08:33:08.035Z</time></trkpt><trkpt lat="43.427609" lon="12.9350065"><ele>272.0</ele><time>2026-04-25T08:33:09.034Z</time></trkpt><trkpt lat="43.4276636" lon="12.9348823"><ele>272.0</ele><time>2026-04-25T08:33:10.034Z</time></trkpt><trkpt lat="43.4277115" lon="12.9347611"><ele>268.8</ele><time>2026-04-25T08:33:11.034Z</time></trkpt><trkpt lat="43.4277462" lon="12.9346408"><ele>265.6</ele><time>2026-04-25T08:33:12.034Z</time></trkpt><trkpt lat="43.4277692" lon="12.9345199"><ele>262.40000000000003</ele><time>2026-04-25T08:33:13.036Z</time></trkpt><trkpt lat="43.4277841" lon="12.9343844"><ele>259.2</ele><time>2026-04-25T08:33:14.035Z</time></trkpt><trkpt lat="43.4277898" lon="12.9342346"><ele>256.0</ele><time>2026-04-25T08:33:15.034Z</time></trkpt><trkpt lat="43.4277848" lon="12.9340734"><ele>253.5</ele><time>2026-04-25T08:33:16.034Z</time></trkpt><trkpt lat="43.4277737" lon="12.9339029"><ele>251.0</ele><time>2026-04-25T08:33:17.035Z</time></trkpt><trkpt lat="43.4277646" lon="12.9337278"><ele>248.5</ele><time>2026-04-25T08:33:18.035Z</time></trkpt><trkpt lat="43.4277571" lon="12.9335574"><ele>246.0</ele><time>2026-04-25T08:33:19.034Z</time></trkpt><trkpt lat="43.4277519" lon="12.9333938"><ele>245.20000000000002</ele><time>2026-04-25T08:33:20.034Z</time></trkpt><trkpt lat="43.4277494" lon="12.93324"><ele>244.40000000000003</ele><time>2026-04-25T08:33:21.034Z</time></trkpt><trkpt lat="43.4277424" lon="12.9330967"><ele>243.6</ele><time>2026-04-25T08:33:22.035Z</time></trkpt><trkpt lat="43.4277341" lon="12.9329722"><ele>242.8</ele><time>2026-04-25T08:33:23.034Z</time></trkpt><trkpt lat="43.4277264" lon="12.9328684"><ele>242.0</ele><time>2026-04-25T08:33:24.035Z</time></trkpt><trkpt lat="43.4277056" lon="12.93275"><ele>242.0</ele><time>2026-04-25T08:33:26.034Z</time></trkpt><trkpt lat="43.4276265" lon="12.9328024"><ele>242.0</ele><time>2026-04-25T08:33:29.035Z</time></trkpt><trkpt lat="43.4275988" lon="12.9329035"><ele>242.0</ele><time>2026-04-25T08:33:30.034Z</time></trkpt><trkpt lat="43.4275655" lon="12.933066"><ele>242.0</ele><time>2026-04-25T08:33:31.035Z</time></trkpt><trkpt lat="43.4275329" lon="12.9332319"><ele>242.0</ele><time>2026-04-25T08:33:32.034Z</time></trkpt><trkpt lat="43.4274989" lon="12.9334004"><ele>243.0</ele><time>2026-04-25T08:33:33.034Z</time></trkpt><trkpt lat="43.4274613" lon="12.9335769"><ele>244.0</ele><time>2026-04-25T08:33:34.035Z</time></trkpt><trkpt lat="43.4274201" lon="12.9337627"><ele>245.0</ele><time>2026-04-25T08:33:35.034Z</time></trkpt><trkpt lat="43.4273646" lon="12.9339506"><ele>246.0</ele><time>2026-04-25T08:33:36.034Z</time></trkpt><trkpt lat="43.427303" lon="12.9341189"><ele>245.0</ele><time>2026-04-25T08:33:37.034Z</time></trkpt><trkpt lat="43.4272448" lon="12.9342684"><ele>244.0</ele><time>2026-04-25T08:33:38.036Z</time></trkpt><trkpt lat="43.4271884" lon="12.9344083"><ele>243.0</ele><time>2026-04-25T08:33:39.035Z</time></trkpt><trkpt lat="43.427131" lon="12.934545"><ele>242.0</ele><time>2026-04-25T08:33:40.034Z</time></trkpt><trkpt lat="43.4270713" lon="12.9346851"><ele>242.0</ele><time>2026-04-25T08:33:41.036Z</time></trkpt><trkpt lat="43.4270154" lon="12.934825"><ele>242.0</ele><time>2026-04-25T08:33:42.034Z</time></trkpt><trkpt lat="43.4269597" lon="12.9349599"><ele>242.0</ele><time>2026-04-25T08:33:43.034Z</time></trkpt><trkpt lat="43.4269019" lon="12.9350991"><ele>242.0</ele><time>2026-04-25T08:33:44.034Z</time></trkpt><trkpt lat="43.4268438" lon="12.9352362"><ele>243.39999999999998</ele><time>2026-04-25T08:33:45.034Z</time></trkpt><trkpt lat="43.4267853" lon="12.9353678"><ele>244.79999999999998</ele><time>2026-04-25T08:33:46.034Z</time></trkpt><trkpt lat="43.4267268" lon="12.9354928"><ele>246.2</ele><time>2026-04-25T08:33:47.034Z</time></trkpt><trkpt lat="43.4266635" lon="12.9356062"><ele>247.6</ele><time>2026-04-25T08:33:48.034Z</time></trkpt><trkpt lat="43.4265866" lon="12.9357178"><ele>249.0</ele><time>2026-04-25T08:33:49.034Z</time></trkpt><trkpt lat="43.4265068" lon="12.9358248"><ele>250.0</ele><time>2026-04-25T08:33:50.035Z</time></trkpt><trkpt lat="43.4264329" lon="12.9359258"><ele>250.99999999999997</ele><time>2026-04-25T08:33:51.036Z</time></trkpt><trkpt lat="43.4263712" lon="12.9360269"><ele>251.99999999999997</ele><time>2026-04-25T08:33:52.036Z</time></trkpt><trkpt lat="43.4263284" lon="12.9361435"><ele>253.0</ele><time>2026-04-25T08:33:53.035Z</time></trkpt><trkpt lat="43.4263103" lon="12.9362691"><ele>254.0</ele><time>2026-04-25T08:33:54.035Z</time></trkpt><trkpt lat="43.4263082" lon="12.9363783"><ele>252.0</ele><time>2026-04-25T08:33:55.034Z</time></trkpt><trkpt lat="43.4263087" lon="12.9364945"><ele>249.99999999999997</ele><time>2026-04-25T08:33:56.035Z</time></trkpt><trkpt lat="43.4262972" lon="12.9366241"><ele>247.99999999999997</ele><time>2026-04-25T08:33:57.035Z</time></trkpt><trkpt lat="43.4262694" lon="12.9367501"><ele>246.0</ele><time>2026-04-25T08:33:58.034Z</time></trkpt><trkpt lat="43.4262284" lon="12.9368743"><ele>244.0</ele><time>2026-04-25T08:33:59.034Z</time></trkpt><trkpt lat="43.4261789" lon="12.9369919"><ele>243.79999999999998</ele><time>2026-04-25T08:34:00.034Z</time></trkpt><trkpt lat="43.4261225" lon="12.9370814"><ele>243.59999999999997</ele><time>2026-04-25T08:34:01.034Z</time></trkpt><trkpt lat="43.4260475" lon="12.9371399"><ele>243.4</ele><time>2026-04-25T08:34:02.035Z</time></trkpt><trkpt lat="43.4259568" lon="12.9371661"><ele>243.2</ele><time>2026-04-25T08:34:03.035Z</time></trkpt><trkpt lat="43.4258516" lon="12.9371627"><ele>243.0</ele><time>2026-04-25T08:34:04.034Z</time></trkpt><trkpt lat="43.4257077" lon="12.937148"><ele>243.0</ele><time>2026-04-25T08:34:05.034Z</time></trkpt><trkpt lat="43.4255222" lon="12.9371326"><ele>243.0</ele><time>2026-04-25T08:34:06.035Z</time></trkpt><trkpt lat="43.4253017" lon="12.9371144"><ele>243.0</ele><time>2026-04-25T08:34:07.034Z</time></trkpt><trkpt lat="43.4250795" lon="12.93709"><ele>244.75</ele><time>2026-04-25T08:34:08.035Z</time></trkpt><trkpt lat="43.4249117" lon="12.9370697"><ele>246.5</ele><time>2026-04-25T08:34:09.034Z</time></trkpt><trkpt lat="43.4247813" lon="12.937041"><ele>248.25</ele><time>2026-04-25T08:34:10.034Z</time></trkpt><trkpt lat="43.4246676" lon="12.9369976"><ele>250.0</ele><time>2026-04-25T08:34:11.036Z</time></trkpt><trkpt lat="43.4245784" lon="12.936948"><ele>251.16666666666666</ele><time>2026-04-25T08:34:12.034Z</time></trkpt><trkpt lat="43.4245115" lon="12.9368944"><ele>252.33333333333331</ele><time>2026-04-25T08:34:13.034Z</time></trkpt><trkpt lat="43.4244452" lon="12.9368138"><ele>253.5</ele><time>2026-04-25T08:34:14.036Z</time></trkpt><trkpt lat="43.4243875" lon="12.9367231"><ele>254.66666666666669</ele><time>2026-04-25T08:34:15.034Z</time></trkpt><trkpt lat="43.4243393" lon="12.9366305"><ele>255.83333333333334</ele><time>2026-04-25T08:34:16.034Z</time></trkpt><trkpt lat="43.4242969" lon="12.9365343"><ele>257.0</ele><time>2026-04-25T08:34:17.035Z</time></trkpt><trkpt lat="43.4242509" lon="12.9364406"><ele>257.0</ele><time>2026-04-25T08:34:18.035Z</time></trkpt><trkpt lat="43.4242058" lon="12.9363566"><ele>257.0</ele><time>2026-04-25T08:34:19.034Z</time></trkpt><trkpt lat="43.4241425" lon="12.9362405"><ele>257.0</ele><time>2026-04-25T08:34:21.035Z</time></trkpt><trkpt lat="43.4242121" lon="12.9364135"><ele>257.0</ele><time>2026-04-25T08:34:27.035Z</time></trkpt><trkpt lat="43.4242957" lon="12.9365682"><ele>261.75</ele><time>2026-04-25T08:34:28.035Z</time></trkpt><trkpt lat="43.4244045" lon="12.9367472"><ele>266.5</ele><time>2026-04-25T08:34:29.034Z</time></trkpt><trkpt lat="43.4244974" lon="12.9368739"><ele>271.25</ele><time>2026-04-25T08:34:30.035Z</time></trkpt><trkpt lat="43.424566" lon="12.9369458"><ele>276.0</ele><time>2026-04-25T08:34:31.035Z</time></trkpt><trkpt lat="43.4246433" lon="12.936995"><ele>276.0</ele><time>2026-04-25T08:34:33.034Z</time></trkpt><trkpt lat="43.4245968" lon="12.9371094"><ele>276.0</ele><time>2026-04-25T08:34:38.035Z</time></trkpt><trkpt lat="43.4245379" lon="12.9371432"><ele>276.0</ele><time>2026-04-25T08:34:40.035Z</time></trkpt><trkpt lat="43.4245329" lon="12.9372331"><ele>276.0</ele><time>2026-04-25T08:35:07.036Z</time></trkpt><trkpt lat="43.4245596" lon="12.9373252"><ele>276.0</ele><time>2026-04-25T08:35:13.034Z</time></trkpt><trkpt lat="43.4245853" lon="12.9374116"><ele>276.0</ele><time>2026-04-25T08:35:21.034Z</time></trkpt><trkpt lat="43.4245966" lon="12.9375102"><ele>276.0</ele><time>2026-04-25T08:35:28.034Z</time></trkpt><trkpt lat="43.4245773" lon="12.9375973"><ele>276.0</ele><time>2026-04-25T08:35:34.034Z</time></trkpt><trkpt lat="43.4245878" lon="12.9375032"><ele>276.0</ele><time>2026-04-25T08:36:20.034Z</time></trkpt><trkpt lat="43.4245645" lon="12.9374101"><ele>276.0</ele><time>2026-04-25T08:36:25.034Z</time></trkpt><trkpt lat="43.4245522" lon="12.9373178"><ele>276.0</ele><time>2026-04-25T08:36:30.035Z</time></trkpt><trkpt lat="43.4245321" lon="12.9372311"><ele>276.0</ele><time>2026-04-25T08:36:35.035Z</time></trkpt><trkpt lat="43.4245502" lon="12.9373724"><ele>276.0</ele><time>2026-04-25T08:37:12.034Z</time></trkpt><trkpt lat="43.4245803" lon="12.9374916"><ele>276.0</ele><time>2026-04-25T08:37:14.034Z</time></trkpt><trkpt lat="43.4245742" lon="12.9375925"><ele>276.0</ele><time>2026-04-25T08:37:16.034Z</time></trkpt><trkpt lat="43.4245111" lon="12.9376442"><ele>276.0</ele><time>2026-04-25T08:37:18.036Z</time></trkpt><trkpt lat="43.4244596" lon="12.937531"><ele>276.0</ele><time>2026-04-25T08:37:21.035Z</time></trkpt><trkpt lat="43.4244298" lon="12.9374431"><ele>276.0</ele><time>2026-04-25T08:37:23.034Z</time></trkpt><trkpt lat="43.4243502" lon="12.9373925"><ele>276.0</ele><time>2026-04-25T08:37:25.034Z</time></trkpt><trkpt lat="43.4242643" lon="12.9373368"><ele>276.0</ele><time>2026-04-25T08:37:27.034Z</time></trkpt><trkpt lat="43.4241935" lon="12.9372759"><ele>276.0</ele><time>2026-04-25T08:37:29.035Z</time></trkpt><trkpt lat="43.4241109" lon="12.9371927"><ele>276.0</ele><time>2026-04-25T08:37:31.035Z</time></trkpt><trkpt lat="43.4240085" lon="12.9371151"><ele>276.0</ele><time>2026-04-25T08:37:33.034Z</time></trkpt><trkpt lat="43.4238837" lon="12.9370807"><ele>276.0</ele><time>2026-04-25T08:37:35.034Z</time></trkpt><trkpt lat="43.4237621" lon="12.9370635"><ele>279.5</ele><time>2026-04-25T08:37:37.035Z</time></trkpt><trkpt lat="43.423699" lon="12.9370433"><ele>283.0</ele><time>2026-04-25T08:37:38.037Z</time></trkpt><trkpt lat="43.4235935" lon="12.9370399"><ele>286.5</ele><time>2026-04-25T08:37:40.036Z</time></trkpt><trkpt lat="43.4234863" lon="12.9370273"><ele>290.0</ele><time>2026-04-25T08:37:42.035Z</time></trkpt><trkpt lat="43.4234235" lon="12.9370099"><ele>293.5</ele><time>2026-04-25T08:37:43.035Z</time></trkpt><trkpt lat="43.4233599" lon="12.9370041"><ele>297.0</ele><time>2026-04-25T08:37:44.036Z</time></trkpt><trkpt lat="43.423297" lon="12.9369905"><ele>297.0</ele><time>2026-04-25T08:37:45.036Z</time></trkpt><trkpt lat="43.4232302" lon="12.9369886"><ele>297.0</ele><time>2026-04-25T08:37:46.037Z</time></trkpt><trkpt lat="43.423119" lon="12.9369882"><ele>297.0</ele><time>2026-04-25T08:37:48.035Z</time></trkpt><trkpt lat="43.4230118" lon="12.9370146"><ele>297.0</ele><time>2026-04-25T08:37:50.036Z</time></trkpt><trkpt lat="43.4229117" lon="12.9370528"><ele>297.0</ele><time>2026-04-25T08:37:52.035Z</time></trkpt><trkpt lat="43.4227903" lon="12.937039"><ele>299.5</ele><time>2026-04-25T08:37:54.036Z</time></trkpt><trkpt lat="43.4227272" lon="12.9370301"><ele>302.0</ele><time>2026-04-25T08:37:55.036Z</time></trkpt><trkpt lat="43.4226505" lon="12.937037"><ele>304.5</ele><time>2026-04-25T08:37:56.036Z</time></trkpt><trkpt lat="43.4225787" lon="12.9370385"><ele>307.0</ele><time>2026-04-25T08:37:57.036Z</time></trkpt><trkpt lat="43.4224462" lon="12.9370315"><ele>309.5</ele><time>2026-04-25T08:37:59.035Z</time></trkpt><trkpt lat="43.4223569" lon="12.9370343"><ele>312.0</ele><time>2026-04-25T08:38:00.036Z</time></trkpt><trkpt lat="43.4222601" lon="12.9370363"><ele>312.0</ele><time>2026-04-25T08:38:01.036Z</time></trkpt><trkpt lat="43.4221617" lon="12.9370272"><ele>312.0</ele><time>2026-04-25T08:38:02.036Z</time></trkpt><trkpt lat="43.4219852" lon="12.9370117"><ele>312.0</ele><time>2026-04-25T08:38:04.036Z</time></trkpt><trkpt lat="43.4218966" lon="12.9370011"><ele>312.0</ele><time>2026-04-25T08:38:05.036Z</time></trkpt><trkpt lat="43.4218063" lon="12.9369932"><ele>314.0</ele><time>2026-04-25T08:38:06.036Z</time></trkpt><trkpt lat="43.4217169" lon="12.9369871"><ele>316.0</ele><time>2026-04-25T08:38:07.035Z</time></trkpt><trkpt lat="43.4216315" lon="12.9369795"><ele>318.0</ele><time>2026-04-25T08:38:08.035Z</time></trkpt><trkpt lat="43.4215501" lon="12.9369708"><ele>320.0</ele><time>2026-04-25T08:38:09.035Z</time></trkpt><trkpt lat="43.4214682" lon="12.936965"><ele>322.0</ele><time>2026-04-25T08:38:10.035Z</time></trkpt><trkpt lat="43.4213872" lon="12.9369673"><ele>324.0</ele><time>2026-04-25T08:38:11.035Z</time></trkpt><trkpt lat="43.4213068" lon="12.9369681"><ele>325.6</ele><time>2026-04-25T08:38:12.037Z</time></trkpt><trkpt lat="43.4211473" lon="12.9369778"><ele>327.2</ele><time>2026-04-25T08:38:14.035Z</time></trkpt><trkpt lat="43.4210627" lon="12.9369969"><ele>328.8</ele><time>2026-04-25T08:38:15.036Z</time></trkpt><trkpt lat="43.4209845" lon="12.9370286"><ele>330.40000000000003</ele><time>2026-04-25T08:38:16.035Z</time></trkpt><trkpt lat="43.4209139" lon="12.9370636"><ele>332.0</ele><time>2026-04-25T08:38:17.035Z</time></trkpt><trkpt lat="43.4208451" lon="12.9371001"><ele>332.0</ele><time>2026-04-25T08:38:18.035Z</time></trkpt><trkpt lat="43.4207697" lon="12.9371447"><ele>332.0</ele><time>2026-04-25T08:38:19.035Z</time></trkpt><trkpt lat="43.4206964" lon="12.9371948"><ele>332.0</ele><time>2026-04-25T08:38:20.036Z</time></trkpt><trkpt lat="43.4206237" lon="12.9372453"><ele>332.0</ele><time>2026-04-25T08:38:21.036Z</time></trkpt><trkpt lat="43.4205572" lon="12.9372915"><ele>332.0</ele><time>2026-04-25T08:38:22.036Z</time></trkpt><trkpt lat="43.4204918" lon="12.9373432"><ele>332.0</ele><time>2026-04-25T08:38:23.036Z</time></trkpt><trkpt lat="43.4204318" lon="12.9373997"><ele>328.1666666666667</ele><time>2026-04-25T08:38:24.035Z</time></trkpt><trkpt lat="43.4203712" lon="12.9374731"><ele>324.33333333333337</ele><time>2026-04-25T08:38:25.035Z</time></trkpt><trkpt lat="43.4203176" lon="12.9375366"><ele>320.5</ele><time>2026-04-25T08:38:26.035Z</time></trkpt><trkpt lat="43.4202537" lon="12.9376361"><ele>316.6666666666667</ele><time>2026-04-25T08:38:28.035Z</time></trkpt><trkpt lat="43.4202498" lon="12.9377709"><ele>312.8333333333333</ele><time>2026-04-25T08:38:31.035Z</time></trkpt><trkpt lat="43.4202948" lon="12.937899"><ele>309.0</ele><time>2026-04-25T08:38:33.035Z</time></trkpt><trkpt lat="43.4203506" lon="12.9380387"><ele>309.0</ele><time>2026-04-25T08:38:35.035Z</time></trkpt><trkpt lat="43.4204217" lon="12.9381574"><ele>309.0</ele><time>2026-04-25T08:38:37.035Z</time></trkpt><trkpt lat="43.4204662" lon="12.9383034"><ele>309.0</ele><time>2026-04-25T08:38:39.035Z</time></trkpt><trkpt lat="43.4205243" lon="12.9384421"><ele>309.0</ele><time>2026-04-25T08:38:41.035Z</time></trkpt><trkpt lat="43.4205481" lon="12.9385231"><ele>309.0</ele><time>2026-04-25T08:38:42.035Z</time></trkpt><trkpt lat="43.4205706" lon="12.9386842"><ele>320.2</ele><time>2026-04-25T08:38:44.037Z</time></trkpt><trkpt lat="43.4205887" lon="12.9388573"><ele>331.4</ele><time>2026-04-25T08:38:46.035Z</time></trkpt><trkpt lat="43.4205936" lon="12.9389467"><ele>342.6</ele><time>2026-04-25T08:38:47.036Z</time></trkpt><trkpt lat="43.4206052" lon="12.9391195"><ele>353.8</ele><time>2026-04-25T08:38:49.035Z</time></trkpt><trkpt lat="43.4206308" lon="12.9392601"><ele>365.0</ele><time>2026-04-25T08:38:51.035Z</time></trkpt><trkpt lat="43.420617" lon="12.9393961"><ele>368.0</ele><time>2026-04-25T08:38:53.035Z</time></trkpt><trkpt lat="43.4205995" lon="12.9395449"><ele>371.0</ele><time>2026-04-25T08:38:55.036Z</time></trkpt><trkpt lat="43.4205642" lon="12.9396993"><ele>374.0</ele><time>2026-04-25T08:38:57.035Z</time></trkpt><trkpt lat="43.4205455" lon="12.9397859"><ele>377.0</ele><time>2026-04-25T08:38:58.035Z</time></trkpt><trkpt lat="43.420525" lon="12.9398832"><ele>380.0</ele><time>2026-04-25T08:38:59.035Z</time></trkpt><trkpt lat="43.4205018" lon="12.9399814"><ele>383.0</ele><time>2026-04-25T08:39:00.035Z</time></trkpt><trkpt lat="43.4204768" lon="12.940073"><ele>374.83333333333337</ele><time>2026-04-25T08:39:01.035Z</time></trkpt><trkpt lat="43.4204476" lon="12.940165"><ele>366.6666666666667</ele><time>2026-04-25T08:39:02.035Z</time></trkpt><trkpt lat="43.4204205" lon="12.9402665"><ele>358.5</ele><time>2026-04-25T08:39:03.037Z</time></trkpt><trkpt lat="43.420393" lon="12.9403735"><ele>350.3333333333333</ele><time>2026-04-25T08:39:04.035Z</time></trkpt><trkpt lat="43.4203674" lon="12.9404826"><ele>342.16666666666663</ele><time>2026-04-25T08:39:05.035Z</time></trkpt><trkpt lat="43.4203456" lon="12.9405879"><ele>334.0</ele><time>2026-04-25T08:39:06.035Z</time></trkpt><trkpt lat="43.4203306" lon="12.9407339"><ele>334.0</ele><time>2026-04-25T08:39:08.035Z</time></trkpt><trkpt lat="43.4203318" lon="12.9408226"><ele>334.0</ele><time>2026-04-25T08:39:09.036Z</time></trkpt><trkpt lat="43.420332" lon="12.9409276"><ele>334.0</ele><time>2026-04-25T08:39:10.036Z</time></trkpt><trkpt lat="43.4203328" lon="12.9410354"><ele>334.0</ele><time>2026-04-25T08:39:11.035Z</time></trkpt><trkpt lat="43.4203335" lon="12.9411364"><ele>334.0</ele><time>2026-04-25T08:39:12.035Z</time></trkpt><trkpt lat="43.4203316" lon="12.9412994"><ele>334.0</ele><time>2026-04-25T08:39:14.036Z</time></trkpt><trkpt lat="43.4203576" lon="12.9414552"><ele>335.1428571428571</ele><time>2026-04-25T08:39:16.036Z</time></trkpt><trkpt lat="43.4203693" lon="12.941554"><ele>336.2857142857143</ele><time>2026-04-25T08:39:18.035Z</time></trkpt><trkpt lat="43.4203446" lon="12.9414713"><ele>337.42857142857144</ele><time>2026-04-25T08:46:03.036Z</time></trkpt><trkpt lat="43.4203238" lon="12.9413888"><ele>338.57142857142856</ele><time>2026-04-25T08:46:17.035Z</time></trkpt><trkpt lat="43.4203091" lon="12.9413002"><ele>339.7142857142857</ele><time>2026-04-25T08:46:24.036Z</time></trkpt><trkpt lat="43.4203072" lon="12.9411823"><ele>340.85714285714283</ele><time>2026-04-25T08:47:23.035Z</time></trkpt><trkpt lat="43.4203067" lon="12.94106"><ele>342.0</ele><time>2026-04-25T08:47:25.036Z</time></trkpt><trkpt lat="43.4203061" lon="12.9409539"><ele>340.6666666666667</ele><time>2026-04-25T08:47:27.037Z</time></trkpt><trkpt lat="43.4202923" lon="12.9408659"><ele>339.3333333333333</ele><time>2026-04-25T08:47:29.036Z</time></trkpt><trkpt lat="43.4203066" lon="12.9407356"><ele>338.0</ele><time>2026-04-25T08:47:31.036Z</time></trkpt><trkpt lat="43.4203186" lon="12.9406152"><ele>336.66666666666663</ele><time>2026-04-25T08:47:33.036Z</time></trkpt><trkpt lat="43.4203505" lon="12.9404524"><ele>335.3333333333333</ele><time>2026-04-25T08:47:35.036Z</time></trkpt><trkpt lat="43.420373" lon="12.9403528"><ele>334.0</ele><time>2026-04-25T08:47:36.037Z</time></trkpt><trkpt lat="43.420394" lon="12.9402624"><ele>334.0</ele><time>2026-04-25T08:47:37.035Z</time></trkpt><trkpt lat="43.4204215" lon="12.9401692"><ele>334.0</ele><time>2026-04-25T08:47:38.037Z</time></trkpt><trkpt lat="43.4204464" lon="12.940084"><ele>334.0</ele><time>2026-04-25T08:47:39.035Z</time></trkpt><trkpt lat="43.4204895" lon="12.9399333"><ele>334.0</ele><time>2026-04-25T08:47:41.035Z</time></trkpt><trkpt lat="43.4205075" lon="12.9398475"><ele>334.0</ele><time>2026-04-25T08:47:42.036Z</time></trkpt><trkpt lat="43.4205387" lon="12.9396992"><ele>334.0</ele><time>2026-04-25T08:47:44.035Z</time></trkpt><trkpt lat="43.4205745" lon="12.9395412"><ele>340.2</ele><time>2026-04-25T08:47:46.035Z</time></trkpt><trkpt lat="43.420592" lon="12.9394133"><ele>346.4</ele><time>2026-04-25T08:47:48.035Z</time></trkpt><trkpt lat="43.4206082" lon="12.9392974"><ele>352.6</ele><time>2026-04-25T08:47:50.035Z</time></trkpt><trkpt lat="43.4206012" lon="12.9391768"><ele>358.8</ele><time>2026-04-25T08:47:52.035Z</time></trkpt><trkpt lat="43.4205811" lon="12.939034"><ele>365.0</ele><time>2026-04-25T08:47:54.037Z</time></trkpt><trkpt lat="43.4205774" lon="12.938881"><ele>365.0</ele><time>2026-04-25T08:47:56.036Z</time></trkpt><trkpt lat="43.4205631" lon="12.9387264"><ele>365.0</ele><time>2026-04-25T08:47:58.035Z</time></trkpt><trkpt lat="43.4205504" lon="12.9386021"><ele>365.0</ele><time>2026-04-25T08:48:00.036Z</time></trkpt><trkpt lat="43.4205259" lon="12.9384784"><ele>365.0</ele><time>2026-04-25T08:48:02.035Z</time></trkpt><trkpt lat="43.4204801" lon="12.9383591"><ele>365.0</ele><time>2026-04-25T08:48:04.035Z</time></trkpt><trkpt lat="43.4204359" lon="12.9382505"><ele>353.8</ele><time>2026-04-25T08:48:06.035Z</time></trkpt><trkpt lat="43.4203916" lon="12.9381289"><ele>342.6</ele><time>2026-04-25T08:48:08.035Z</time></trkpt><trkpt lat="43.4203306" lon="12.9380317"><ele>331.4</ele><time>2026-04-25T08:48:10.036Z</time></trkpt><trkpt lat="43.4202748" lon="12.9379122"><ele>320.2</ele><time>2026-04-25T08:48:12.035Z</time></trkpt><trkpt lat="43.4202415" lon="12.937791"><ele>309.0</ele><time>2026-04-25T08:48:14.035Z</time></trkpt><trkpt lat="43.4202398" lon="12.9376733"><ele>309.0</ele><time>2026-04-25T08:48:17.035Z</time></trkpt><trkpt lat="43.4202898" lon="12.9375669"><ele>309.0</ele><time>2026-04-25T08:48:19.036Z</time></trkpt><trkpt lat="43.4203654" lon="12.9374618"><ele>309.0</ele><time>2026-04-25T08:48:21.036Z</time></trkpt><trkpt lat="43.4204522" lon="12.9373573"><ele>309.0</ele><time>2026-04-25T08:48:23.035Z</time></trkpt><trkpt lat="43.4205405" lon="12.937278"><ele>309.0</ele><time>2026-04-25T08:48:25.036Z</time></trkpt><trkpt lat="43.4206446" lon="12.9372118"><ele>313.6</ele><time>2026-04-25T08:48:27.036Z</time></trkpt><trkpt lat="43.4207376" lon="12.9371456"><ele>318.2</ele><time>2026-04-25T08:48:29.035Z</time></trkpt><trkpt lat="43.4208486" lon="12.9370788"><ele>322.8</ele><time>2026-04-25T08:48:31.035Z</time></trkpt><trkpt lat="43.4209101" lon="12.9370508"><ele>327.40000000000003</ele><time>2026-04-25T08:48:32.036Z</time></trkpt><trkpt lat="43.4210251" lon="12.936997"><ele>332.0</ele><time>2026-04-25T08:48:34.035Z</time></trkpt><trkpt lat="43.4210931" lon="12.9369706"><ele>332.0</ele><time>2026-04-25T08:48:35.035Z</time></trkpt><trkpt lat="43.421163" lon="12.9369611"><ele>332.0</ele><time>2026-04-25T08:48:36.035Z</time></trkpt><trkpt lat="43.4212259" lon="12.9369532"><ele>332.0</ele><time>2026-04-25T08:48:37.037Z</time></trkpt><trkpt lat="43.4213567" lon="12.9369486"><ele>332.0</ele><time>2026-04-25T08:48:39.037Z</time></trkpt><trkpt lat="43.4214264" lon="12.9369511"><ele>332.0</ele><time>2026-04-25T08:48:40.036Z</time></trkpt><trkpt lat="43.4215177" lon="12.9369506"><ele>332.0</ele><time>2026-04-25T08:48:42.036Z</time></trkpt><trkpt lat="43.421638" lon="12.9369591"><ele>330.6666666666667</ele><time>2026-04-25T08:48:44.035Z</time></trkpt><trkpt lat="43.421707" lon="12.9369671"><ele>329.33333333333337</ele><time>2026-04-25T08:48:45.036Z</time></trkpt><trkpt lat="43.4217746" lon="12.9369713"><ele>328.0</ele><time>2026-04-25T08:48:46.035Z</time></trkpt><trkpt lat="43.4218399" lon="12.9369763"><ele>326.6666666666667</ele><time>2026-04-25T08:48:47.036Z</time></trkpt><trkpt lat="43.4219582" lon="12.9369865"><ele>325.3333333333333</ele><time>2026-04-25T08:48:49.035Z</time></trkpt><trkpt lat="43.4220259" lon="12.9369948"><ele>324.0</ele><time>2026-04-25T08:48:50.035Z</time></trkpt><trkpt lat="43.422146" lon="12.9370007"><ele>322.0</ele><time>2026-04-25T08:48:52.035Z</time></trkpt><trkpt lat="43.4222731" lon="12.9370157"><ele>320.0</ele><time>2026-04-25T08:48:54.037Z</time></trkpt><trkpt lat="43.422338" lon="12.9370187"><ele>318.0</ele><time>2026-04-25T08:48:55.035Z</time></trkpt><trkpt lat="43.4224388" lon="12.9370068"><ele>316.0</ele><time>2026-04-25T08:48:57.036Z</time></trkpt><trkpt lat="43.4225114" lon="12.9370092"><ele>314.0</ele><time>2026-04-25T08:48:58.035Z</time></trkpt><trkpt lat="43.4225822" lon="12.9369948"><ele>312.0</ele><time>2026-04-25T08:48:59.035Z</time></trkpt><trkpt lat="43.4226453" lon="12.9369919"><ele>312.0</ele><time>2026-04-25T08:49:00.035Z</time></trkpt><trkpt lat="43.4227339" lon="12.936982"><ele>312.0</ele><time>2026-04-25T08:49:02.036Z</time></trkpt><trkpt lat="43.4228607" lon="12.9369966"><ele>312.0</ele><time>2026-04-25T08:49:04.035Z</time></trkpt><trkpt lat="43.4229284" lon="12.9369903"><ele>312.0</ele><time>2026-04-25T08:49:05.036Z</time></trkpt><trkpt lat="43.422989" lon="12.9369659"><ele>312.0</ele><time>2026-04-25T08:49:06.035Z</time></trkpt><trkpt lat="43.4230769" lon="12.9369366"><ele>312.0</ele><time>2026-04-25T08:49:08.035Z</time></trkpt><trkpt lat="43.4232059" lon="12.9369415"><ele>309.5</ele><time>2026-04-25T08:49:10.036Z</time></trkpt><trkpt lat="43.4232812" lon="12.9369483"><ele>307.0</ele><time>2026-04-25T08:49:11.036Z</time></trkpt><trkpt lat="43.4233454" lon="12.9369444"><ele>304.5</ele><time>2026-04-25T08:49:12.036Z</time></trkpt><trkpt lat="43.4234138" lon="12.9369693"><ele>302.0</ele><time>2026-04-25T08:49:13.037Z</time></trkpt><trkpt lat="43.4234873" lon="12.9369826"><ele>299.5</ele><time>2026-04-25T08:49:14.036Z</time></trkpt><trkpt lat="43.4235916" lon="12.9370058"><ele>297.0</ele><time>2026-04-25T08:49:16.037Z</time></trkpt><trkpt lat="43.4236859" lon="12.9370151"><ele>297.0</ele><time>2026-04-25T08:49:18.035Z</time></trkpt><trkpt lat="43.4237842" lon="12.937045"><ele>297.0</ele><time>2026-04-25T08:49:20.036Z</time></trkpt><trkpt lat="43.4238797" lon="12.9370527"><ele>297.0</ele><time>2026-04-25T08:49:22.036Z</time></trkpt><trkpt lat="43.4239918" lon="12.9370743"><ele>297.0</ele><time>2026-04-25T08:49:24.036Z</time></trkpt><trkpt lat="43.424093" lon="12.9371529"><ele>297.0</ele><time>2026-04-25T08:49:26.035Z</time></trkpt><trkpt lat="43.4241624" lon="12.9372155"><ele>297.2857142857143</ele><time>2026-04-25T08:49:28.035Z</time></trkpt><trkpt lat="43.4242115" lon="12.9372745"><ele>297.5714285714286</ele><time>2026-04-25T08:49:30.035Z</time></trkpt><trkpt lat="43.4242663" lon="12.9373216"><ele>297.8571428571429</ele><time>2026-04-25T08:49:33.036Z</time></trkpt><trkpt lat="43.4243292" lon="12.937369"><ele>298.14285714285717</ele><time>2026-04-25T08:49:41.037Z</time></trkpt><trkpt lat="43.4243857" lon="12.9374158"><ele>298.42857142857144</ele><time>2026-04-25T08:49:45.036Z</time></trkpt><trkpt lat="43.4244479" lon="12.937468"><ele>298.7142857142857</ele><time>2026-04-25T08:49:48.036Z</time></trkpt><trkpt lat="43.4244759" lon="12.9375676"><ele>299.0</ele><time>2026-04-25T08:49:52.037Z</time></trkpt><trkpt lat="43.424515" lon="12.9376471"><ele>299.0</ele><time>2026-04-25T08:49:55.036Z</time></trkpt><trkpt lat="43.4245842" lon="12.9376128"><ele>299.0</ele><time>2026-04-25T08:49:58.035Z</time></trkpt><trkpt lat="43.424591" lon="12.9375024"><ele>299.0</ele><time>2026-04-25T08:50:00.036Z</time></trkpt><trkpt lat="43.4245337" lon="12.9373289"><ele>299.0</ele><time>2026-04-25T08:50:02.035Z</time></trkpt><trkpt lat="43.4245202" lon="12.9371953"><ele>299.0</ele><time>2026-04-25T08:50:04.035Z</time></trkpt><trkpt lat="43.4245588" lon="12.9371178"><ele>294.4</ele><time>2026-04-25T08:50:06.036Z</time></trkpt><trkpt lat="43.4246261" lon="12.9370663"><ele>289.79999999999995</ele><time>2026-04-25T08:50:09.036Z</time></trkpt><trkpt lat="43.4247362" lon="12.9370387"><ele>285.20000000000005</ele><time>2026-04-25T08:50:12.035Z</time></trkpt><trkpt lat="43.4248335" lon="12.9370585"><ele>280.6</ele><time>2026-04-25T08:50:13.035Z</time></trkpt><trkpt lat="43.4249822" lon="12.9370727"><ele>276.0</ele><time>2026-04-25T08:50:14.037Z</time></trkpt><trkpt lat="43.4251576" lon="12.9370829"><ele>267.3333333333333</ele><time>2026-04-25T08:50:15.035Z</time></trkpt><trkpt lat="43.4253121" lon="12.9370974"><ele>258.66666666666663</ele><time>2026-04-25T08:50:16.035Z</time></trkpt><trkpt lat="43.4254667" lon="12.937118"><ele>250.0</ele><time>2026-04-25T08:50:17.035Z</time></trkpt><trkpt lat="43.4256148" lon="12.9371367"><ele>248.6</ele><time>2026-04-25T08:50:18.036Z</time></trkpt><trkpt lat="43.4257634" lon="12.9371564"><ele>247.2</ele><time>2026-04-25T08:50:19.036Z</time></trkpt><trkpt lat="43.42587" lon="12.9371725"><ele>245.8</ele><time>2026-04-25T08:50:20.035Z</time></trkpt><trkpt lat="43.4259587" lon="12.9371827"><ele>244.4</ele><time>2026-04-25T08:50:21.035Z</time></trkpt><trkpt lat="43.4260399" lon="12.9371674"><ele>243.0</ele><time>2026-04-25T08:50:22.036Z</time></trkpt><trkpt lat="43.4261089" lon="12.9371145"><ele>243.0</ele><time>2026-04-25T08:50:23.037Z</time></trkpt><trkpt lat="43.426159" lon="12.9370314"><ele>243.0</ele><time>2026-04-25T08:50:24.035Z</time></trkpt><trkpt lat="43.4262019" lon="12.9369359"><ele>243.0</ele><time>2026-04-25T08:50:25.035Z</time></trkpt><trkpt lat="43.4262369" lon="12.9368382"><ele>243.0</ele><time>2026-04-25T08:50:26.035Z</time></trkpt><trkpt lat="43.4262654" lon="12.9367578"><ele>243.0</ele><time>2026-04-25T08:50:27.037Z</time></trkpt><trkpt lat="43.4262984" lon="12.9366349"><ele>243.0</ele><time>2026-04-25T08:50:29.036Z</time></trkpt><trkpt lat="43.4263178" lon="12.9364472"><ele>244.5</ele><time>2026-04-25T08:50:31.035Z</time></trkpt><trkpt lat="43.426329" lon="12.9363013"><ele>246.0</ele><time>2026-04-25T08:50:32.036Z</time></trkpt><trkpt lat="43.4263509" lon="12.9361688"><ele>247.5</ele><time>2026-04-25T08:50:33.036Z</time></trkpt><trkpt lat="43.4264059" lon="12.9360377"><ele>249.0</ele><time>2026-04-25T08:50:34.036Z</time></trkpt><trkpt lat="43.4265009" lon="12.9358836"><ele>249.0</ele><time>2026-04-25T08:50:35.036Z</time></trkpt><trkpt lat="43.4266223" lon="12.9357031"><ele>249.0</ele><time>2026-04-25T08:50:36.035Z</time></trkpt><trkpt lat="43.4267163" lon="12.9355336"><ele>249.0</ele><time>2026-04-25T08:50:37.036Z</time></trkpt><trkpt lat="43.4267942" lon="12.9353653"><ele>249.0</ele><time>2026-04-25T08:50:38.036Z</time></trkpt><trkpt lat="43.4268673" lon="12.9351957"><ele>249.0</ele><time>2026-04-25T08:50:39.036Z</time></trkpt><trkpt lat="43.4269403" lon="12.9350166"><ele>249.0</ele><time>2026-04-25T08:50:40.036Z</time></trkpt><trkpt lat="43.4270078" lon="12.934847"><ele>249.0</ele><time>2026-04-25T08:50:41.036Z</time></trkpt><trkpt lat="43.4270712" lon="12.9346922"><ele>248.0</ele><time>2026-04-25T08:50:42.035Z</time></trkpt><trkpt lat="43.427135" lon="12.9345428"><ele>247.0</ele><time>2026-04-25T08:50:43.036Z</time></trkpt><trkpt lat="43.427202" lon="12.934386"><ele>246.0</ele><time>2026-04-25T08:50:44.035Z</time></trkpt><trkpt lat="43.4273333" lon="12.9340787"><ele>246.0</ele><time>2026-04-25T08:50:46.037Z</time></trkpt><trkpt lat="43.4273879" lon="12.9339356"><ele>246.0</ele><time>2026-04-25T08:50:47.035Z</time></trkpt><trkpt lat="43.4274309" lon="12.9337844"><ele>246.0</ele><time>2026-04-25T08:50:48.035Z</time></trkpt><trkpt lat="43.4274677" lon="12.9336329"><ele>246.0</ele><time>2026-04-25T08:50:49.035Z</time></trkpt><trkpt lat="43.427499" lon="12.9334823"><ele>245.20000000000002</ele><time>2026-04-25T08:50:50.035Z</time></trkpt><trkpt lat="43.4275317" lon="12.933334"><ele>244.40000000000003</ele><time>2026-04-25T08:50:51.036Z</time></trkpt><trkpt lat="43.4275635" lon="12.9331879"><ele>243.6</ele><time>2026-04-25T08:50:52.035Z</time></trkpt><trkpt lat="43.4275926" lon="12.9330496"><ele>242.8</ele><time>2026-04-25T08:50:53.036Z</time></trkpt><trkpt lat="43.4276165" lon="12.9329309"><ele>242.0</ele><time>2026-04-25T08:50:54.035Z</time></trkpt><trkpt lat="43.4276466" lon="12.9327914"><ele>242.00000000000003</ele><time>2026-04-25T08:50:56.035Z</time></trkpt><trkpt lat="43.4276613" lon="12.9327048"><ele>242.0</ele><time>2026-04-25T08:50:57.037Z</time></trkpt><trkpt lat="43.4276408" lon="12.9325812"><ele>242.0</ele><time>2026-04-25T08:50:59.035Z</time></trkpt><trkpt lat="43.4276045" lon="12.9324861"><ele>242.0</ele><time>2026-04-25T08:51:02.036Z</time></trkpt><trkpt lat="43.4275132" lon="12.9324325"><ele>242.00000000000003</ele><time>2026-04-25T08:51:04.035Z</time></trkpt><trkpt lat="43.4274307" lon="12.932446"><ele>242.0</ele><time>2026-04-25T08:51:05.035Z</time></trkpt><trkpt lat="43.4272946" lon="12.9324673"><ele>240.33333333333334</ele><time>2026-04-25T08:51:06.036Z</time></trkpt><trkpt lat="43.4271159" lon="12.9324777"><ele>238.66666666666669</ele><time>2026-04-25T08:51:07.035Z</time></trkpt><trkpt lat="43.4269087" lon="12.9324551"><ele>237.0</ele><time>2026-04-25T08:51:08.035Z</time></trkpt><trkpt lat="43.4266744" lon="12.9324058"><ele>237.0</ele><time>2026-04-25T08:51:09.036Z</time></trkpt><trkpt lat="43.4264725" lon="12.9323744"><ele>237.0</ele><time>2026-04-25T08:51:10.035Z</time></trkpt><trkpt lat="43.4262868" lon="12.9323745"><ele>237.0</ele><time>2026-04-25T08:51:11.035Z</time></trkpt><trkpt lat="43.426071" lon="12.9324165"><ele>237.33333333333331</ele><time>2026-04-25T08:51:12.037Z</time></trkpt><trkpt lat="43.425864" lon="12.9324846"><ele>237.66666666666666</ele><time>2026-04-25T08:51:13.035Z</time></trkpt><trkpt lat="43.4256648" lon="12.932551"><ele>238.0</ele><time>2026-04-25T08:51:14.037Z</time></trkpt><trkpt lat="43.4254619" lon="12.9325999"><ele>238.0</ele><time>2026-04-25T08:51:15.036Z</time></trkpt><trkpt lat="43.4252554" lon="12.9326288"><ele>238.0</ele><time>2026-04-25T08:51:16.036Z</time></trkpt><trkpt lat="43.4250667" lon="12.9326223"><ele>238.0</ele><time>2026-04-25T08:51:17.035Z</time></trkpt><trkpt lat="43.4248841" lon="12.9325874"><ele>240.0</ele><time>2026-04-25T08:51:18.035Z</time></trkpt><trkpt lat="43.4246929" lon="12.9325243"><ele>242.0</ele><time>2026-04-25T08:51:19.036Z</time></trkpt><trkpt lat="43.4244923" lon="12.9324243"><ele>244.0</ele><time>2026-04-25T08:51:20.036Z</time></trkpt><trkpt lat="43.4243056" lon="12.9323132"><ele>244.0</ele><time>2026-04-25T08:51:21.036Z</time></trkpt><trkpt lat="43.4241291" lon="12.9322099"><ele>244.0</ele><time>2026-04-25T08:51:22.037Z</time></trkpt><trkpt lat="43.4239606" lon="12.9321125"><ele>244.0</ele><time>2026-04-25T08:51:23.037Z</time></trkpt><trkpt lat="43.4238011" lon="12.9320235"><ele>241.0</ele><time>2026-04-25T08:51:24.035Z</time></trkpt><trkpt lat="43.423648" lon="12.9319467"><ele>238.0</ele><time>2026-04-25T08:51:25.035Z</time></trkpt><trkpt lat="43.4234893" lon="12.9318633"><ele>235.0</ele><time>2026-04-25T08:51:26.035Z</time></trkpt><trkpt lat="43.4233304" lon="12.9317848"><ele>237.33333333333331</ele><time>2026-04-25T08:51:27.036Z</time></trkpt><trkpt lat="43.4231699" lon="12.9317094"><ele>239.66666666666669</ele><time>2026-04-25T08:51:28.035Z</time></trkpt><trkpt lat="43.4230082" lon="12.9316355"><ele>242.0</ele><time>2026-04-25T08:51:29.035Z</time></trkpt><trkpt lat="43.422847" lon="12.9315643"><ele>242.0</ele><time>2026-04-25T08:51:30.035Z</time></trkpt><trkpt lat="43.4226831" lon="12.9314912"><ele>242.0</ele><time>2026-04-25T08:51:31.036Z</time></trkpt><trkpt lat="43.422519" lon="12.9314247"><ele>242.0</ele><time>2026-04-25T08:51:32.037Z</time></trkpt><trkpt lat="43.4223494" lon="12.9313697"><ele>242.0</ele><time>2026-04-25T08:51:33.035Z</time></trkpt><trkpt lat="43.422173" lon="12.9313286"><ele>242.0</ele><time>2026-04-25T08:51:34.035Z</time></trkpt><trkpt lat="43.4219765" lon="12.9312949"><ele>242.0</ele><time>2026-04-25T08:51:35.037Z</time></trkpt><trkpt lat="43.4217487" lon="12.931261"><ele>240.5</ele><time>2026-04-25T08:51:36.036Z</time></trkpt><trkpt lat="43.4215191" lon="12.9312288"><ele>239.0</ele><time>2026-04-25T08:51:37.035Z</time></trkpt><trkpt lat="43.4212956" lon="12.9311906"><ele>237.33333333333334</ele><time>2026-04-25T08:51:38.036Z</time></trkpt><trkpt lat="43.4210811" lon="12.931153"><ele>235.66666666666669</ele><time>2026-04-25T08:51:39.035Z</time></trkpt><trkpt lat="43.4208752" lon="12.9311219"><ele>234.0</ele><time>2026-04-25T08:51:40.037Z</time></trkpt><trkpt lat="43.4206772" lon="12.9310908"><ele>233.33333333333331</ele><time>2026-04-25T08:51:41.035Z</time></trkpt><trkpt lat="43.4204829" lon="12.9310612"><ele>232.66666666666666</ele><time>2026-04-25T08:51:42.035Z</time></trkpt><trkpt lat="43.4202879" lon="12.9310292"><ele>232.0</ele><time>2026-04-25T08:51:43.036Z</time></trkpt><trkpt lat="43.4200996" lon="12.9309976"><ele>232.0</ele><time>2026-04-25T08:51:44.035Z</time></trkpt><trkpt lat="43.4199136" lon="12.9309698"><ele>232.0</ele><time>2026-04-25T08:51:45.035Z</time></trkpt><trkpt lat="43.4197281" lon="12.9309423"><ele>232.0</ele><time>2026-04-25T08:51:46.036Z</time></trkpt><trkpt lat="43.4195436" lon="12.9309149"><ele>235.66666666666666</ele><time>2026-04-25T08:51:47.036Z</time></trkpt><trkpt lat="43.4193604" lon="12.9308868"><ele>239.33333333333331</ele><time>2026-04-25T08:51:48.035Z</time></trkpt><trkpt lat="43.4191784" lon="12.9308578"><ele>243.0</ele><time>2026-04-25T08:51:49.035Z</time></trkpt><trkpt lat="43.4189942" lon="12.9308264"><ele>241.33333333333331</ele><time>2026-04-25T08:51:50.036Z</time></trkpt><trkpt lat="43.4188023" lon="12.9307968"><ele>239.66666666666666</ele><time>2026-04-25T08:51:51.036Z</time></trkpt><trkpt lat="43.4185921" lon="12.9307628"><ele>238.0</ele><time>2026-04-25T08:51:52.036Z</time></trkpt><trkpt lat="43.4183616" lon="12.9307222"><ele>238.0</ele><time>2026-04-25T08:51:53.035Z</time></trkpt><trkpt lat="43.4181182" lon="12.9306797"><ele>238.0</ele><time>2026-04-25T08:51:54.036Z</time></trkpt><trkpt lat="43.4178867" lon="12.930633"><ele>236.0</ele><time>2026-04-25T08:51:55.035Z</time></trkpt><trkpt lat="43.4176281" lon="12.930583"><ele>234.0</ele><time>2026-04-25T08:51:56.035Z</time></trkpt><trkpt lat="43.4173997" lon="12.9305379"><ele>234.0</ele><time>2026-04-25T08:51:57.036Z</time></trkpt><trkpt lat="43.4171803" lon="12.9304911"><ele>234.0</ele><time>2026-04-25T08:51:58.035Z</time></trkpt><trkpt lat="43.4169738" lon="12.930447"><ele>234.0</ele><time>2026-04-25T08:51:59.035Z</time></trkpt><trkpt lat="43.4167713" lon="12.9304015"><ele>233.33333333333331</ele><time>2026-04-25T08:52:00.036Z</time></trkpt><trkpt lat="43.4165666" lon="12.9303597"><ele>232.66666666666666</ele><time>2026-04-25T08:52:01.036Z</time></trkpt><trkpt lat="43.4163681" lon="12.9303126"><ele>232.0</ele><time>2026-04-25T08:52:02.036Z</time></trkpt><trkpt lat="43.4161741" lon="12.9302682"><ele>231.66666666666666</ele><time>2026-04-25T08:52:03.035Z</time></trkpt><trkpt lat="43.4159766" lon="12.9302189"><ele>231.33333333333331</ele><time>2026-04-25T08:52:04.035Z</time></trkpt><trkpt lat="43.4157792" lon="12.9301682"><ele>231.0</ele><time>2026-04-25T08:52:05.035Z</time></trkpt><trkpt lat="43.4155834" lon="12.9301161"><ele>231.0</ele><time>2026-04-25T08:52:06.036Z</time></trkpt><trkpt lat="43.4153919" lon="12.9300643"><ele>231.0</ele><time>2026-04-25T08:52:07.035Z</time></trkpt><trkpt lat="43.4152016" lon="12.9300083"><ele>231.0</ele><time>2026-04-25T08:52:08.036Z</time></trkpt><trkpt lat="43.4150098" lon="12.9299502"><ele>232.33333333333331</ele><time>2026-04-25T08:52:09.035Z</time></trkpt><trkpt lat="43.414814" lon="12.9298884"><ele>233.66666666666666</ele><time>2026-04-25T08:52:10.036Z</time></trkpt><trkpt lat="43.4146064" lon="12.9298227"><ele>235.0</ele><time>2026-04-25T08:52:11.035Z</time></trkpt><trkpt lat="43.4143931" lon="12.9297529"><ele>235.0</ele><time>2026-04-25T08:52:12.035Z</time></trkpt><trkpt lat="43.4141902" lon="12.9296854"><ele>235.0</ele><time>2026-04-25T08:52:13.036Z</time></trkpt><trkpt lat="43.4139901" lon="12.9296224"><ele>235.0</ele><time>2026-04-25T08:52:14.035Z</time></trkpt><trkpt lat="43.4137942" lon="12.9295634"><ele>233.66666666666666</ele><time>2026-04-25T08:52:15.036Z</time></trkpt><trkpt lat="43.4135979" lon="12.9295055"><ele>232.33333333333331</ele><time>2026-04-25T08:52:16.035Z</time></trkpt><trkpt lat="43.4133969" lon="12.9294612"><ele>231.0</ele><time>2026-04-25T08:52:17.035Z</time></trkpt><trkpt lat="43.4131912" lon="12.9294363"><ele>230.66666666666669</ele><time>2026-04-25T08:52:18.036Z</time></trkpt><trkpt lat="43.4129864" lon="12.9294209"><ele>230.33333333333334</ele><time>2026-04-25T08:52:19.035Z</time></trkpt><trkpt lat="43.4127887" lon="12.9294114"><ele>230.0</ele><time>2026-04-25T08:52:20.036Z</time></trkpt><trkpt lat="43.4125879" lon="12.9294049"><ele>230.0</ele><time>2026-04-25T08:52:21.035Z</time></trkpt><trkpt lat="43.4123885" lon="12.9293943"><ele>230.0</ele><time>2026-04-25T08:52:22.035Z</time></trkpt><trkpt lat="43.412189" lon="12.9293799"><ele>230.0</ele><time>2026-04-25T08:52:23.036Z</time></trkpt><trkpt lat="43.4119958" lon="12.9293623"><ele>230.33333333333334</ele><time>2026-04-25T08:52:24.035Z</time></trkpt><trkpt lat="43.411808" lon="12.9293431"><ele>230.66666666666669</ele><time>2026-04-25T08:52:25.036Z</time></trkpt><trkpt lat="43.4116261" lon="12.9293283"><ele>231.0</ele><time>2026-04-25T08:52:26.035Z</time></trkpt><trkpt lat="43.4114548" lon="12.9293136"><ele>231.33333333333331</ele><time>2026-04-25T08:52:27.035Z</time></trkpt><trkpt lat="43.4112919" lon="12.9293276"><ele>231.66666666666666</ele><time>2026-04-25T08:52:28.035Z</time></trkpt><trkpt lat="43.4111112" lon="12.9293615"><ele>232.0</ele><time>2026-04-25T08:52:29.037Z</time></trkpt><trkpt lat="43.4109104" lon="12.9294158"><ele>232.0</ele><time>2026-04-25T08:52:30.035Z</time></trkpt><trkpt lat="43.4106877" lon="12.9294843"><ele>232.0</ele><time>2026-04-25T08:52:31.035Z</time></trkpt><trkpt lat="43.4104598" lon="12.9295732"><ele>234.5</ele><time>2026-04-25T08:52:32.035Z</time></trkpt><trkpt lat="43.4102334" lon="12.9296915"><ele>237.0</ele><time>2026-04-25T08:52:33.035Z</time></trkpt><trkpt lat="43.4100289" lon="12.9298116"><ele>237.0</ele><time>2026-04-25T08:52:34.035Z</time></trkpt><trkpt lat="43.4098353" lon="12.9299353"><ele>237.0</ele><time>2026-04-25T08:52:35.036Z</time></trkpt><trkpt lat="43.4096596" lon="12.930064"><ele>237.0</ele><time>2026-04-25T08:52:36.037Z</time></trkpt><trkpt lat="43.409499" lon="12.9302126"><ele>237.66666666666669</ele><time>2026-04-25T08:52:37.035Z</time></trkpt><trkpt lat="43.4093469" lon="12.9303909"><ele>238.33333333333334</ele><time>2026-04-25T08:52:38.035Z</time></trkpt><trkpt lat="43.4092138" lon="12.9305977"><ele>239.0</ele><time>2026-04-25T08:52:39.036Z</time></trkpt><trkpt lat="43.4090983" lon="12.9308289"><ele>236.66666666666669</ele><time>2026-04-25T08:52:40.035Z</time></trkpt><trkpt lat="43.4089946" lon="12.9310842"><ele>234.33333333333331</ele><time>2026-04-25T08:52:41.035Z</time></trkpt><trkpt lat="43.4089026" lon="12.9313524"><ele>232.0</ele><time>2026-04-25T08:52:42.035Z</time></trkpt><trkpt lat="43.4088187" lon="12.9316188"><ele>235.33333333333331</ele><time>2026-04-25T08:52:43.036Z</time></trkpt><trkpt lat="43.4087379" lon="12.9318673"><ele>238.66666666666669</ele><time>2026-04-25T08:52:44.036Z</time></trkpt><trkpt lat="43.4086666" lon="12.9320962"><ele>242.0</ele><time>2026-04-25T08:52:45.036Z</time></trkpt><trkpt lat="43.4086008" lon="12.9323069"><ele>242.0</ele><time>2026-04-25T08:52:46.035Z</time></trkpt><trkpt lat="43.4085305" lon="12.9325177"><ele>242.0</ele><time>2026-04-25T08:52:47.037Z</time></trkpt><trkpt lat="43.4084435" lon="12.932725"><ele>242.0</ele><time>2026-04-25T08:52:48.036Z</time></trkpt><trkpt lat="43.4083357" lon="12.9329434"><ele>238.0</ele><time>2026-04-25T08:52:49.035Z</time></trkpt><trkpt lat="43.4082175" lon="12.93317"><ele>234.0</ele><time>2026-04-25T08:52:50.036Z</time></trkpt><trkpt lat="43.4081203" lon="12.9333574"><ele>230.0</ele><time>2026-04-25T08:52:51.036Z</time></trkpt><trkpt lat="43.4080383" lon="12.9335054"><ele>229.2</ele><time>2026-04-25T08:52:52.036Z</time></trkpt><trkpt lat="43.40798" lon="12.9336195"><ele>228.4</ele><time>2026-04-25T08:52:53.036Z</time></trkpt><trkpt lat="43.4079334" lon="12.9337041"><ele>227.60000000000002</ele><time>2026-04-25T08:52:54.035Z</time></trkpt><trkpt lat="43.4078842" lon="12.9338026"><ele>226.8</ele><time>2026-04-25T08:52:56.035Z</time></trkpt><trkpt lat="43.4078482" lon="12.9338989"><ele>226.0</ele><time>2026-04-25T08:53:37.035Z</time></trkpt><trkpt lat="43.4077803" lon="12.9340526"><ele>226.0</ele><time>2026-04-25T08:53:39.035Z</time></trkpt><trkpt lat="43.4077354" lon="12.9341413"><ele>226.00000000000003</ele><time>2026-04-25T08:53:40.036Z</time></trkpt><trkpt lat="43.4076786" lon="12.9342446"><ele>226.00000000000003</ele><time>2026-04-25T08:53:41.036Z</time></trkpt><trkpt lat="43.4076194" lon="12.9343562"><ele>226.0</ele><time>2026-04-25T08:53:42.035Z</time></trkpt><trkpt lat="43.4075546" lon="12.9344704"><ele>226.0</ele><time>2026-04-25T08:53:43.036Z</time></trkpt><trkpt lat="43.4074882" lon="12.9345962"><ele>227.25</ele><time>2026-04-25T08:53:44.036Z</time></trkpt><trkpt lat="43.4074181" lon="12.934725"><ele>228.5</ele><time>2026-04-25T08:53:45.036Z</time></trkpt><trkpt lat="43.407343" lon="12.9348568"><ele>229.75</ele><time>2026-04-25T08:53:46.036Z</time></trkpt><trkpt lat="43.4072563" lon="12.9350039"><ele>231.0</ele><time>2026-04-25T08:53:47.036Z</time></trkpt><trkpt lat="43.4071617" lon="12.9351566"><ele>230.66666666666669</ele><time>2026-04-25T08:53:48.036Z</time></trkpt><trkpt lat="43.4070655" lon="12.935325"><ele>230.33333333333334</ele><time>2026-04-25T08:53:49.035Z</time></trkpt><trkpt lat="43.4069681" lon="12.9354979"><ele>230.0</ele><time>2026-04-25T08:53:50.035Z</time></trkpt><trkpt lat="43.4068767" lon="12.9356638"><ele>230.0</ele><time>2026-04-25T08:53:51.036Z</time></trkpt><trkpt lat="43.4067904" lon="12.9358161"><ele>230.0</ele><time>2026-04-25T08:53:52.036Z</time></trkpt><trkpt lat="43.4067106" lon="12.9359634"><ele>230.0</ele><time>2026-04-25T08:53:53.035Z</time></trkpt><trkpt lat="43.4066353" lon="12.9361129"><ele>230.0</ele><time>2026-04-25T08:53:54.035Z</time></trkpt><trkpt lat="43.4065691" lon="12.9362632"><ele>230.5</ele><time>2026-04-25T08:53:55.037Z</time></trkpt><trkpt lat="43.4065233" lon="12.9364224"><ele>231.0</ele><time>2026-04-25T08:53:56.035Z</time></trkpt><trkpt lat="43.4065029" lon="12.9365952"><ele>231.5</ele><time>2026-04-25T08:53:57.035Z</time></trkpt><trkpt lat="43.4065129" lon="12.9367731"><ele>232.0</ele><time>2026-04-25T08:53:58.035Z</time></trkpt><trkpt lat="43.4065544" lon="12.9369595"><ele>232.0</ele><time>2026-04-25T08:53:59.035Z</time></trkpt><trkpt lat="43.4066146" lon="12.9371491"><ele>232.0</ele><time>2026-04-25T08:54:00.035Z</time></trkpt><trkpt lat="43.4066797" lon="12.9373384"><ele>232.0</ele><time>2026-04-25T08:54:01.036Z</time></trkpt><trkpt lat="43.406744" lon="12.9375487"><ele>231.25</ele><time>2026-04-25T08:54:02.035Z</time></trkpt><trkpt lat="43.4067957" lon="12.9377397"><ele>230.5</ele><time>2026-04-25T08:54:03.035Z</time></trkpt><trkpt lat="43.4068309" lon="12.9379328"><ele>229.75</ele><time>2026-04-25T08:54:04.035Z</time></trkpt><trkpt lat="43.4068486" lon="12.9381441"><ele>229.0</ele><time>2026-04-25T08:54:05.035Z</time></trkpt><trkpt lat="43.4068553" lon="12.9383572"><ele>228.66666666666666</ele><time>2026-04-25T08:54:06.036Z</time></trkpt><trkpt lat="43.4068574" lon="12.9385806"><ele>228.33333333333331</ele><time>2026-04-25T08:54:07.036Z</time></trkpt><trkpt lat="43.4068569" lon="12.9388021"><ele>228.0</ele><time>2026-04-25T08:54:08.035Z</time></trkpt><trkpt lat="43.4068534" lon="12.9389977"><ele>228.0</ele><time>2026-04-25T08:54:09.036Z</time></trkpt><trkpt lat="43.4068491" lon="12.9391817"><ele>228.0</ele><time>2026-04-25T08:54:10.036Z</time></trkpt><trkpt lat="43.4068427" lon="12.9393519"><ele>228.0</ele><time>2026-04-25T08:54:11.035Z</time></trkpt><trkpt lat="43.4068394" lon="12.9395078"><ele>228.0</ele><time>2026-04-25T08:54:12.035Z</time></trkpt><trkpt lat="43.4068343" lon="12.9396612"><ele>229.33333333333334</ele><time>2026-04-25T08:54:13.035Z</time></trkpt><trkpt lat="43.4068196" lon="12.9398007"><ele>230.66666666666669</ele><time>2026-04-25T08:54:14.035Z</time></trkpt><trkpt lat="43.4068056" lon="12.9399155"><ele>232.0</ele><time>2026-04-25T08:54:15.036Z</time></trkpt><trkpt lat="43.4067939" lon="12.9400124"><ele>233.33333333333334</ele><time>2026-04-25T08:54:16.036Z</time></trkpt><trkpt lat="43.4067814" lon="12.9401029"><ele>234.66666666666669</ele><time>2026-04-25T08:54:17.036Z</time></trkpt><trkpt lat="43.406768" lon="12.9401877"><ele>236.0</ele><time>2026-04-25T08:54:18.036Z</time></trkpt><trkpt lat="43.4067502" lon="12.9402745"><ele>237.33333333333334</ele><time>2026-04-25T08:54:19.036Z</time></trkpt><trkpt lat="43.40673" lon="12.9403654"><ele>238.66666666666669</ele><time>2026-04-25T08:54:20.035Z</time></trkpt><trkpt lat="43.4067061" lon="12.9404589"><ele>240.0</ele><time>2026-04-25T08:54:21.036Z</time></trkpt><trkpt lat="43.4066764" lon="12.9405529"><ele>241.33333333333331</ele><time>2026-04-25T08:54:22.036Z</time></trkpt><trkpt lat="43.4066449" lon="12.9406454"><ele>242.66666666666666</ele><time>2026-04-25T08:54:23.036Z</time></trkpt><trkpt lat="43.4066019" lon="12.9407403"><ele>244.0</ele><time>2026-04-25T08:54:24.036Z</time></trkpt><trkpt lat="43.4065438" lon="12.940842"><ele>241.79999999999998</ele><time>2026-04-25T08:54:25.035Z</time></trkpt><trkpt lat="43.4064815" lon="12.9409343"><ele>239.59999999999997</ele><time>2026-04-25T08:54:26.035Z</time></trkpt><trkpt lat="43.4064086" lon="12.9410268"><ele>237.4</ele><time>2026-04-25T08:54:27.036Z</time></trkpt><trkpt lat="43.406332" lon="12.9411197"><ele>235.2</ele><time>2026-04-25T08:54:28.036Z</time></trkpt><trkpt lat="43.406248" lon="12.9412171"><ele>233.0</ele><time>2026-04-25T08:54:29.036Z</time></trkpt><trkpt lat="43.4061551" lon="12.9413233"><ele>233.0</ele><time>2026-04-25T08:54:30.036Z</time></trkpt><trkpt lat="43.4060496" lon="12.9414449"><ele>233.0</ele><time>2026-04-25T08:54:31.036Z</time></trkpt><trkpt lat="43.4059332" lon="12.941579"><ele>233.0</ele><time>2026-04-25T08:54:32.036Z</time></trkpt><trkpt lat="43.4058244" lon="12.9417052"><ele>233.0</ele><time>2026-04-25T08:54:33.036Z</time></trkpt><trkpt lat="43.4057243" lon="12.941837"><ele>235.5</ele><time>2026-04-25T08:54:34.035Z</time></trkpt><trkpt lat="43.4056367" lon="12.9419814"><ele>238.0</ele><time>2026-04-25T08:54:35.035Z</time></trkpt><trkpt lat="43.4055787" lon="12.9421505"><ele>240.5</ele><time>2026-04-25T08:54:36.035Z</time></trkpt><trkpt lat="43.405557" lon="12.9423425"><ele>243.0</ele><time>2026-04-25T08:54:37.035Z</time></trkpt><trkpt lat="43.4055649" lon="12.9425607"><ele>245.0</ele><time>2026-04-25T08:54:38.037Z</time></trkpt><trkpt lat="43.4055887" lon="12.9428071"><ele>247.0</ele><time>2026-04-25T08:54:39.035Z</time></trkpt><trkpt lat="43.4056223" lon="12.9430545"><ele>249.0</ele><time>2026-04-25T08:54:40.036Z</time></trkpt><trkpt lat="43.4056556" lon="12.9433032"><ele>249.0</ele><time>2026-04-25T08:54:41.036Z</time></trkpt><trkpt lat="43.405703" lon="12.9435286"><ele>249.0</ele><time>2026-04-25T08:54:42.036Z</time></trkpt><trkpt lat="43.4057522" lon="12.9437849"><ele>249.0</ele><time>2026-04-25T08:54:43.036Z</time></trkpt><trkpt lat="43.4057992" lon="12.9440123"><ele>248.66666666666669</ele><time>2026-04-25T08:54:44.036Z</time></trkpt><trkpt lat="43.4058365" lon="12.9442267"><ele>248.33333333333334</ele><time>2026-04-25T08:54:45.036Z</time></trkpt><trkpt lat="43.4058659" lon="12.9444309"><ele>248.0</ele><time>2026-04-25T08:54:46.035Z</time></trkpt><trkpt lat="43.4058738" lon="12.9446258"><ele>248.0</ele><time>2026-04-25T08:54:47.036Z</time></trkpt><trkpt lat="43.4058715" lon="12.9448156"><ele>248.0</ele><time>2026-04-25T08:54:48.037Z</time></trkpt><trkpt lat="43.4058476" lon="12.9450134"><ele>248.0</ele><time>2026-04-25T08:54:49.036Z</time></trkpt><trkpt lat="43.4058149" lon="12.9452043"><ele>248.0</ele><time>2026-04-25T08:54:50.036Z</time></trkpt><trkpt lat="43.4057512" lon="12.945366"><ele>248.75</ele><time>2026-04-25T08:54:51.035Z</time></trkpt><trkpt lat="43.4056701" lon="12.9455283"><ele>249.5</ele><time>2026-04-25T08:54:52.036Z</time></trkpt><trkpt lat="43.4055743" lon="12.9456854"><ele>250.25</ele><time>2026-04-25T08:54:53.035Z</time></trkpt><trkpt lat="43.4054767" lon="12.9458423"><ele>251.0</ele><time>2026-04-25T08:54:54.036Z</time></trkpt><trkpt lat="43.405387" lon="12.9460181"><ele>243.0</ele><time>2026-04-25T08:54:55.036Z</time></trkpt><trkpt lat="43.4052662" lon="12.9462565"><ele>235.0</ele><time>2026-04-25T08:54:56.036Z</time></trkpt><trkpt lat="43.4051967" lon="12.9466009"><ele>247.0</ele><time>2026-04-25T08:54:57.036Z</time></trkpt><trkpt lat="43.4050834" lon="12.9468994"><ele>259.0</ele><time>2026-04-25T08:54:58.036Z</time></trkpt><trkpt lat="43.4049851" lon="12.9471641"><ele>259.0</ele><time>2026-04-25T08:54:59.035Z</time></trkpt><trkpt lat="43.4048839" lon="12.9474098"><ele>259.0</ele><time>2026-04-25T08:55:00.035Z</time></trkpt><trkpt lat="43.4047772" lon="12.9476216"><ele>259.0</ele><time>2026-04-25T08:55:01.035Z</time></trkpt><trkpt lat="43.404662" lon="12.9478048"><ele>253.33333333333331</ele><time>2026-04-25T08:55:02.036Z</time></trkpt><trkpt lat="43.4045274" lon="12.9479714"><ele>247.66666666666669</ele><time>2026-04-25T08:55:03.036Z</time></trkpt><trkpt lat="43.4043842" lon="12.9481252"><ele>242.0</ele><time>2026-04-25T08:55:04.036Z</time></trkpt><trkpt lat="43.4042447" lon="12.9482381"><ele>242.0</ele><time>2026-04-25T08:55:05.035Z</time></trkpt><trkpt lat="43.404103" lon="12.9483285"><ele>242.0</ele><time>2026-04-25T08:55:06.036Z</time></trkpt><trkpt lat="43.4039592" lon="12.9484025"><ele>242.0</ele><time>2026-04-25T08:55:07.036Z</time></trkpt><trkpt lat="43.4038133" lon="12.9484758"><ele>244.5</ele><time>2026-04-25T08:55:08.036Z</time></trkpt><trkpt lat="43.4036623" lon="12.948553"><ele>247.0</ele><time>2026-04-25T08:55:09.035Z</time></trkpt><trkpt lat="43.4035243" lon="12.9486314"><ele>249.5</ele><time>2026-04-25T08:55:10.035Z</time></trkpt><trkpt lat="43.4034007" lon="12.9487029"><ele>252.0</ele><time>2026-04-25T08:55:11.035Z</time></trkpt><trkpt lat="43.4032802" lon="12.9487447"><ele>252.0</ele><time>2026-04-25T08:55:12.036Z</time></trkpt><trkpt lat="43.4031349" lon="12.9487636"><ele>252.0</ele><time>2026-04-25T08:55:13.035Z</time></trkpt><trkpt lat="43.4029999" lon="12.9487591"><ele>252.0</ele><time>2026-04-25T08:55:14.035Z</time></trkpt><trkpt lat="43.4028726" lon="12.948757"><ele>252.0</ele><time>2026-04-25T08:55:15.036Z</time></trkpt><trkpt lat="43.4027437" lon="12.948801"><ele>254.25</ele><time>2026-04-25T08:55:16.035Z</time></trkpt><trkpt lat="43.4026166" lon="12.9488862"><ele>256.5</ele><time>2026-04-25T08:55:17.036Z</time></trkpt><trkpt lat="43.4025077" lon="12.9490027"><ele>258.75</ele><time>2026-04-25T08:55:18.035Z</time></trkpt><trkpt lat="43.4024064" lon="12.9491332"><ele>261.0</ele><time>2026-04-25T08:55:19.035Z</time></trkpt><trkpt lat="43.4023063" lon="12.9492762"><ele>262.6666666666667</ele><time>2026-04-25T08:55:20.036Z</time></trkpt><trkpt lat="43.4021994" lon="12.9494359"><ele>264.33333333333337</ele><time>2026-04-25T08:55:21.036Z</time></trkpt><trkpt lat="43.4020979" lon="12.9495912"><ele>266.0</ele><time>2026-04-25T08:55:22.036Z</time></trkpt><trkpt lat="43.4020251" lon="12.9497627"><ele>266.0</ele><time>2026-04-25T08:55:23.036Z</time></trkpt><trkpt lat="43.401964" lon="12.9499742"><ele>266.0</ele><time>2026-04-25T08:55:24.035Z</time></trkpt><trkpt lat="43.4019209" lon="12.9501873"><ele>266.0</ele><time>2026-04-25T08:55:25.036Z</time></trkpt><trkpt lat="43.4018878" lon="12.9503798"><ele>266.0</ele><time>2026-04-25T08:55:26.036Z</time></trkpt><trkpt lat="43.4018524" lon="12.9505678"><ele>266.0</ele><time>2026-04-25T08:55:27.035Z</time></trkpt><trkpt lat="43.4018211" lon="12.9507485"><ele>266.0</ele><time>2026-04-25T08:55:28.037Z</time></trkpt><trkpt lat="43.4017939" lon="12.950918"><ele>266.0</ele><time>2026-04-25T08:55:29.035Z</time></trkpt><trkpt lat="43.4017655" lon="12.9510944"><ele>266.0</ele><time>2026-04-25T08:55:30.035Z</time></trkpt><trkpt lat="43.4017353" lon="12.951283"><ele>266.0</ele><time>2026-04-25T08:55:31.035Z</time></trkpt><trkpt lat="43.4017047" lon="12.9514526"><ele>266.0</ele><time>2026-04-25T08:55:32.036Z</time></trkpt><trkpt lat="43.4016793" lon="12.9516134"><ele>266.0</ele><time>2026-04-25T08:55:33.035Z</time></trkpt><trkpt lat="43.4016615" lon="12.9517932"><ele>266.0</ele><time>2026-04-25T08:55:34.035Z</time></trkpt><trkpt lat="43.4016491" lon="12.951997"><ele>266.0</ele><time>2026-04-25T08:55:35.035Z</time></trkpt><trkpt lat="43.4016436" lon="12.9521899"><ele>266.0</ele><time>2026-04-25T08:55:36.037Z</time></trkpt><trkpt lat="43.4016446" lon="12.9523683"><ele>266.0</ele><time>2026-04-25T08:55:37.036Z</time></trkpt><trkpt lat="43.4016485" lon="12.9525447"><ele>266.0</ele><time>2026-04-25T08:55:38.037Z</time></trkpt><trkpt lat="43.4016576" lon="12.9527241"><ele>266.0</ele><time>2026-04-25T08:55:39.036Z</time></trkpt><trkpt lat="43.4016678" lon="12.9529105"><ele>266.0</ele><time>2026-04-25T08:55:40.035Z</time></trkpt><trkpt lat="43.4016809" lon="12.9530979"><ele>266.0</ele><time>2026-04-25T08:55:41.035Z</time></trkpt><trkpt lat="43.4016937" lon="12.9532948"><ele>266.0</ele><time>2026-04-25T08:55:42.036Z</time></trkpt><trkpt lat="43.4017019" lon="12.9534854"><ele>266.0</ele><time>2026-04-25T08:55:43.035Z</time></trkpt><trkpt lat="43.4017076" lon="12.9536797"><ele>266.0</ele><time>2026-04-25T08:55:44.037Z</time></trkpt><trkpt lat="43.4017142" lon="12.9538827"><ele>266.0</ele><time>2026-04-25T08:55:45.035Z</time></trkpt><trkpt lat="43.4017184" lon="12.9540925"><ele>266.0</ele><time>2026-04-25T08:55:46.035Z</time></trkpt><trkpt lat="43.4017161" lon="12.9543098"><ele>266.0</ele><time>2026-04-25T08:55:47.036Z</time></trkpt><trkpt lat="43.4017084" lon="12.9545096"><ele>266.0</ele><time>2026-04-25T08:55:48.036Z</time></trkpt><trkpt lat="43.4017022" lon="12.9547016"><ele>266.0</ele><time>2026-04-25T08:55:49.035Z</time></trkpt><trkpt lat="43.4016965" lon="12.9548966"><ele>266.0</ele><time>2026-04-25T08:55:50.035Z</time></trkpt><trkpt lat="43.4016862" lon="12.9550969"><ele>266.0</ele><time>2026-04-25T08:55:51.037Z</time></trkpt><trkpt lat="43.4016749" lon="12.9552858"><ele>266.0</ele><time>2026-04-25T08:55:52.035Z</time></trkpt><trkpt lat="43.4016681" lon="12.9554586"><ele>266.0</ele><time>2026-04-25T08:55:53.035Z</time></trkpt><trkpt lat="43.4016715" lon="12.9556334"><ele>266.0</ele><time>2026-04-25T08:55:54.035Z</time></trkpt><trkpt lat="43.4017137" lon="12.9558042"><ele>266.0</ele><time>2026-04-25T08:55:55.035Z</time></trkpt><trkpt lat="43.4017725" lon="12.9559623"><ele>266.0</ele><time>2026-04-25T08:55:56.035Z</time></trkpt><trkpt lat="43.4018375" lon="12.956102"><ele>266.0</ele><time>2026-04-25T08:55:57.035Z</time></trkpt><trkpt lat="43.4018758" lon="12.9562352"><ele>266.0</ele><time>2026-04-25T08:55:58.035Z</time></trkpt><trkpt lat="43.4018823" lon="12.9563734"><ele>266.0</ele><time>2026-04-25T08:55:59.036Z</time></trkpt><trkpt lat="43.4018649" lon="12.9565178"><ele>266.0</ele><time>2026-04-25T08:56:00.035Z</time></trkpt><trkpt lat="43.4018392" lon="12.9566693"><ele>266.0</ele><time>2026-04-25T08:56:01.036Z</time></trkpt><trkpt lat="43.4018051" lon="12.9568367"><ele>266.0</ele><time>2026-04-25T08:56:02.036Z</time></trkpt><trkpt lat="43.4017884" lon="12.9569399"><ele>266.0</ele><time>2026-04-25T08:56:03.035Z</time></trkpt><trkpt lat="43.4017708" lon="12.9570426"><ele>266.0</ele><time>2026-04-25T08:56:04.037Z</time></trkpt><trkpt lat="43.4017645" lon="12.9571331"><ele>266.0</ele><time>2026-04-25T08:56:05.035Z</time></trkpt><trkpt lat="43.4017605" lon="12.9572409"><ele>266.0</ele><time>2026-04-25T08:56:07.036Z</time></trkpt><trkpt lat="43.401763" lon="12.957409"><ele>266.0</ele><time>2026-04-25T08:57:05.035Z</time></trkpt><trkpt lat="43.401761" lon="12.9575284"><ele>266.0</ele><time>2026-04-25T08:57:06.035Z</time></trkpt><trkpt lat="43.4017565" lon="12.9576981"><ele>266.0</ele><time>2026-04-25T08:57:07.035Z</time></trkpt><trkpt lat="43.4017531" lon="12.9579335"><ele>266.0</ele><time>2026-04-25T08:57:08.036Z</time></trkpt><trkpt lat="43.4017468" lon="12.9582105"><ele>266.0</ele><time>2026-04-25T08:57:09.036Z</time></trkpt><trkpt lat="43.4017362" lon="12.9584876"><ele>266.0</ele><time>2026-04-25T08:57:10.036Z</time></trkpt><trkpt lat="43.4017225" lon="12.9587444"><ele>266.0</ele><time>2026-04-25T08:57:11.035Z</time></trkpt><trkpt lat="43.4017031" lon="12.9589507"><ele>266.0</ele><time>2026-04-25T08:57:12.036Z</time></trkpt><trkpt lat="43.4016704" lon="12.9591289"><ele>266.0</ele><time>2026-04-25T08:57:13.035Z</time></trkpt><trkpt lat="43.4016099" lon="12.9593081"><ele>266.0</ele><time>2026-04-25T08:57:14.035Z</time></trkpt><trkpt lat="43.4015381" lon="12.9594794"><ele>266.0</ele><time>2026-04-25T08:57:15.036Z</time></trkpt><trkpt lat="43.4014669" lon="12.9596363"><ele>266.0</ele><time>2026-04-25T08:57:16.035Z</time></trkpt><trkpt lat="43.4013931" lon="12.9597858"><ele>266.0</ele><time>2026-04-25T08:57:17.036Z</time></trkpt><trkpt lat="43.4013044" lon="12.9599298"><ele>266.0</ele><time>2026-04-25T08:57:18.036Z</time></trkpt><trkpt lat="43.4012021" lon="12.9600546"><ele>266.0</ele><time>2026-04-25T08:57:19.036Z</time></trkpt><trkpt lat="43.4010802" lon="12.9601673"><ele>266.0</ele><time>2026-04-25T08:57:20.036Z</time></trkpt><trkpt lat="43.4009605" lon="12.9602679"><ele>266.0</ele><time>2026-04-25T08:57:21.037Z</time></trkpt><trkpt lat="43.4008539" lon="12.9603605"><ele>266.0</ele><time>2026-04-25T08:57:22.035Z</time></trkpt><trkpt lat="43.4007529" lon="12.9604682"><ele>266.0</ele><time>2026-04-25T08:57:23.035Z</time></trkpt><trkpt lat="43.4006604" lon="12.9606144"><ele>266.0</ele><time>2026-04-25T08:57:24.036Z</time></trkpt><trkpt lat="43.4005818" lon="12.9607908"><ele>266.0</ele><time>2026-04-25T08:57:25.036Z</time></trkpt><trkpt lat="43.4005199" lon="12.96098"><ele>266.0</ele><time>2026-04-25T08:57:26.035Z</time></trkpt><trkpt lat="43.4004594" lon="12.961167"><ele>266.0</ele><time>2026-04-25T08:57:27.036Z</time></trkpt><trkpt lat="43.400401" lon="12.9613527"><ele>266.0</ele><time>2026-04-25T08:57:28.036Z</time></trkpt><trkpt lat="43.4003587" lon="12.9615311"><ele>264.5</ele><time>2026-04-25T08:57:29.035Z</time></trkpt><trkpt lat="43.4003439" lon="12.9617033"><ele>263.0</ele><time>2026-04-25T08:57:30.035Z</time></trkpt><trkpt lat="43.4003611" lon="12.9618943"><ele>261.5</ele><time>2026-04-25T08:57:31.035Z</time></trkpt><trkpt lat="43.400397" lon="12.96209"><ele>260.0</ele><time>2026-04-25T08:57:32.036Z</time></trkpt><trkpt lat="43.4004426" lon="12.9623015"><ele>260.0</ele><time>2026-04-25T08:57:33.035Z</time></trkpt><trkpt lat="43.4004952" lon="12.9625295"><ele>260.0</ele><time>2026-04-25T08:57:34.035Z</time></trkpt><trkpt lat="43.4005399" lon="12.962733"><ele>260.0</ele><time>2026-04-25T08:57:35.036Z</time></trkpt><trkpt lat="43.400569" lon="12.9629277"><ele>251.5</ele><time>2026-04-25T08:57:36.035Z</time></trkpt><trkpt lat="43.4005763" lon="12.9631302"><ele>243.0</ele><time>2026-04-25T08:57:37.036Z</time></trkpt><trkpt lat="43.4005706" lon="12.963331"><ele>234.5</ele><time>2026-04-25T08:57:38.035Z</time></trkpt><trkpt lat="43.4005588" lon="12.9635444"><ele>226.0</ele><time>2026-04-25T08:57:39.035Z</time></trkpt><trkpt lat="43.4005474" lon="12.9637522"><ele>223.75</ele><time>2026-04-25T08:57:40.036Z</time></trkpt><trkpt lat="43.4005335" lon="12.9639488"><ele>221.5</ele><time>2026-04-25T08:57:41.036Z</time></trkpt><trkpt lat="43.400522" lon="12.9641329"><ele>219.25</ele><time>2026-04-25T08:57:42.036Z</time></trkpt><trkpt lat="43.4005114" lon="12.9643001"><ele>217.0</ele><time>2026-04-25T08:57:43.036Z</time></trkpt><trkpt lat="43.4004993" lon="12.9644521"><ele>226.33333333333331</ele><time>2026-04-25T08:57:44.036Z</time></trkpt><trkpt lat="43.4004887" lon="12.9645883"><ele>235.66666666666666</ele><time>2026-04-25T08:57:45.035Z</time></trkpt><trkpt lat="43.4004804" lon="12.9647127"><ele>245.0</ele><time>2026-04-25T08:57:46.036Z</time></trkpt><trkpt lat="43.4004725" lon="12.9648279"><ele>254.33333333333331</ele><time>2026-04-25T08:57:47.036Z</time></trkpt><trkpt lat="43.4004661" lon="12.9649445"><ele>263.6666666666667</ele><time>2026-04-25T08:57:48.036Z</time></trkpt><trkpt lat="43.4004636" lon="12.9650555"><ele>273.0</ele><time>2026-04-25T08:57:49.035Z</time></trkpt><trkpt lat="43.400468" lon="12.9651694"><ele>275.4</ele><time>2026-04-25T08:57:50.035Z</time></trkpt><trkpt lat="43.4004891" lon="12.9652847"><ele>277.8</ele><time>2026-04-25T08:57:51.035Z</time></trkpt><trkpt lat="43.4005301" lon="12.965389"><ele>280.2</ele><time>2026-04-25T08:57:52.037Z</time></trkpt><trkpt lat="43.4005917" lon="12.9654899"><ele>282.6</ele><time>2026-04-25T08:57:53.035Z</time></trkpt><trkpt lat="43.4006653" lon="12.9655815"><ele>285.0</ele><time>2026-04-25T08:57:54.036Z</time></trkpt><trkpt lat="43.400744" lon="12.9656627"><ele>279.4</ele><time>2026-04-25T08:57:55.035Z</time></trkpt><trkpt lat="43.4008352" lon="12.9657446"><ele>273.8</ele><time>2026-04-25T08:57:56.035Z</time></trkpt><trkpt lat="43.4009261" lon="12.9658244"><ele>268.2</ele><time>2026-04-25T08:57:57.036Z</time></trkpt><trkpt lat="43.4010147" lon="12.9658984"><ele>262.6</ele><time>2026-04-25T08:57:58.035Z</time></trkpt><trkpt lat="43.4011009" lon="12.9659709"><ele>257.0</ele><time>2026-04-25T08:57:59.036Z</time></trkpt><trkpt lat="43.4011903" lon="12.9660455"><ele>257.0</ele><time>2026-04-25T08:58:00.036Z</time></trkpt><trkpt lat="43.4012757" lon="12.9661211"><ele>257.0</ele><time>2026-04-25T08:58:01.036Z</time></trkpt><trkpt lat="43.4013574" lon="12.966196"><ele>257.0</ele><time>2026-04-25T08:58:02.036Z</time></trkpt><trkpt lat="43.4014404" lon="12.9662705"><ele>257.0</ele><time>2026-04-25T08:58:03.036Z</time></trkpt><trkpt lat="43.4015247" lon="12.9663464"><ele>257.0</ele><time>2026-04-25T08:58:04.035Z</time></trkpt><trkpt lat="43.4016099" lon="12.9664223"><ele>252.50000000000003</ele><time>2026-04-25T08:58:05.036Z</time></trkpt><trkpt lat="43.4016902" lon="12.9664935"><ele>248.0</ele><time>2026-04-25T08:58:06.035Z</time></trkpt><trkpt lat="43.4017645" lon="12.9665605"><ele>243.5</ele><time>2026-04-25T08:58:07.036Z</time></trkpt><trkpt lat="43.4018338" lon="12.9666215"><ele>239.0</ele><time>2026-04-25T08:58:08.035Z</time></trkpt><trkpt lat="43.4019062" lon="12.9666833"><ele>234.50000000000003</ele><time>2026-04-25T08:58:09.035Z</time></trkpt><trkpt lat="43.4019799" lon="12.9667463"><ele>230.0</ele><time>2026-04-25T08:58:10.036Z</time></trkpt><trkpt lat="43.4020503" lon="12.9668167"><ele>230.00000000000003</ele><time>2026-04-25T08:58:11.037Z</time></trkpt><trkpt lat="43.402114" lon="12.9668905"><ele>230.0</ele><time>2026-04-25T08:58:12.036Z</time></trkpt><trkpt lat="43.4021717" lon="12.9669714"><ele>230.0</ele><time>2026-04-25T08:58:13.035Z</time></trkpt><trkpt lat="43.4022221" lon="12.9670575"><ele>230.0</ele><time>2026-04-25T08:58:14.035Z</time></trkpt><trkpt lat="43.4022754" lon="12.9671656"><ele>230.00000000000003</ele><time>2026-04-25T08:58:15.036Z</time></trkpt><trkpt lat="43.4023198" lon="12.9672686"><ele>230.0</ele><time>2026-04-25T08:58:16.036Z</time></trkpt><trkpt lat="43.4023481" lon="12.9673534"><ele>226.00000000000003</ele><time>2026-04-25T08:58:17.036Z</time></trkpt><trkpt lat="43.4023717" lon="12.9674352"><ele>222.0</ele><time>2026-04-25T08:58:18.035Z</time></trkpt><trkpt lat="43.402397" lon="12.9675775"><ele>218.0</ele><time>2026-04-25T08:58:20.036Z</time></trkpt><trkpt lat="43.4024199" lon="12.9677092"><ele>214.0</ele><time>2026-04-25T08:58:22.036Z</time></trkpt><trkpt lat="43.4024454" lon="12.9678311"><ele>210.00000000000003</ele><time>2026-04-25T08:58:24.036Z</time></trkpt><trkpt lat="43.4024667" lon="12.9679291"><ele>206.0</ele><time>2026-04-25T08:58:26.037Z</time></trkpt><trkpt lat="43.4024862" lon="12.9680315"><ele>206.00000000000003</ele><time>2026-04-25T08:58:28.035Z</time></trkpt><trkpt lat="43.4024943" lon="12.9681276"><ele>206.0</ele><time>2026-04-25T08:58:30.035Z</time></trkpt><trkpt lat="43.4025079" lon="12.9682171"><ele>206.0</ele><time>2026-04-25T08:58:32.035Z</time></trkpt><trkpt lat="43.402564" lon="12.9682847"><ele>206.0</ele><time>2026-04-25T08:58:34.036Z</time></trkpt><trkpt lat="43.4026265" lon="12.9683269"><ele>206.00000000000003</ele><time>2026-04-25T08:58:35.037Z</time></trkpt><trkpt lat="43.4026804" lon="12.9683787"><ele>206.0</ele><time>2026-04-25T08:58:36.036Z</time></trkpt><trkpt lat="43.4027205" lon="12.9685446"><ele>206.14285714285714</ele><time>2026-04-25T08:58:38.035Z</time></trkpt><trkpt lat="43.4027084" lon="12.9686474"><ele>206.28571428571428</ele><time>2026-04-25T08:58:39.036Z</time></trkpt><trkpt lat="43.4026874" lon="12.9687375"><ele>206.42857142857144</ele><time>2026-04-25T08:58:40.036Z</time></trkpt><trkpt lat="43.4026658" lon="12.9688283"><ele>206.57142857142856</ele><time>2026-04-25T08:58:41.036Z</time></trkpt><trkpt lat="43.4026397" lon="12.968921"><ele>206.71428571428572</ele><time>2026-04-25T08:58:42.035Z</time></trkpt><trkpt lat="43.4026138" lon="12.9690149"><ele>206.85714285714286</ele><time>2026-04-25T08:58:43.035Z</time></trkpt><trkpt lat="43.4025918" lon="12.9691118"><ele>207.0</ele><time>2026-04-25T08:58:44.035Z</time></trkpt><trkpt lat="43.4025789" lon="12.9692119"><ele>206.33333333333334</ele><time>2026-04-25T08:58:45.036Z</time></trkpt><trkpt lat="43.402578" lon="12.9693153"><ele>205.66666666666669</ele><time>2026-04-25T08:58:46.037Z</time></trkpt><trkpt lat="43.4025869" lon="12.9694179"><ele>205.0</ele><time>2026-04-25T08:58:47.035Z</time></trkpt><trkpt lat="43.402598" lon="12.9695215"><ele>204.33333333333334</ele><time>2026-04-25T08:58:48.036Z</time></trkpt><trkpt lat="43.4026151" lon="12.9696211"><ele>203.66666666666669</ele><time>2026-04-25T08:58:49.035Z</time></trkpt><trkpt lat="43.4026262" lon="12.9697259"><ele>203.0</ele><time>2026-04-25T08:58:50.035Z</time></trkpt><trkpt lat="43.4026335" lon="12.9698386"><ele>203.00000000000003</ele><time>2026-04-25T08:58:51.036Z</time></trkpt><trkpt lat="43.4026435" lon="12.9699535"><ele>203.0</ele><time>2026-04-25T08:58:52.035Z</time></trkpt><trkpt lat="43.4026542" lon="12.9700693"><ele>203.0</ele><time>2026-04-25T08:58:53.035Z</time></trkpt><trkpt lat="43.4026618" lon="12.9701863"><ele>203.0</ele><time>2026-04-25T08:58:54.036Z</time></trkpt><trkpt lat="43.4026649" lon="12.9702928"><ele>203.00000000000003</ele><time>2026-04-25T08:58:55.036Z</time></trkpt><trkpt lat="43.4026621" lon="12.9703818"><ele>203.0</ele><time>2026-04-25T08:58:56.037Z</time></trkpt><trkpt lat="43.4026389" lon="12.9705422"><ele>202.2</ele><time>2026-04-25T08:58:58.036Z</time></trkpt><trkpt lat="43.4026087" lon="12.9706714"><ele>201.4</ele><time>2026-04-25T08:59:00.036Z</time></trkpt><trkpt lat="43.4025733" lon="12.9708053"><ele>200.6</ele><time>2026-04-25T08:59:02.035Z</time></trkpt><trkpt lat="43.4025211" lon="12.9709222"><ele>199.79999999999998</ele><time>2026-04-25T08:59:04.035Z</time></trkpt><trkpt lat="43.4024693" lon="12.9710185"><ele>199.0</ele><time>2026-04-25T08:59:06.037Z</time></trkpt><trkpt lat="43.4024065" lon="12.9711008"><ele>198.99999999999997</ele><time>2026-04-25T08:59:08.035Z</time></trkpt><trkpt lat="43.4023484" lon="12.9711586"><ele>199.0</ele><time>2026-04-25T08:59:10.036Z</time></trkpt><trkpt lat="43.4022825" lon="12.9712141"><ele>199.0</ele><time>2026-04-25T08:59:13.036Z</time></trkpt><trkpt lat="43.4022395" lon="12.9712797"><ele>199.0</ele><time>2026-04-25T08:59:16.036Z</time></trkpt><trkpt lat="43.4023" lon="12.9712369"><ele>199.0</ele><time>2026-04-25T09:00:40.037Z</time></trkpt><trkpt lat="43.402355" lon="12.971193"><ele>198.99999999999997</ele><time>2026-04-25T09:00:47.036Z</time></trkpt><trkpt lat="43.4023974" lon="12.9711252"><ele>199.0</ele><time>2026-04-25T09:00:56.036Z</time></trkpt><trkpt lat="43.4024592" lon="12.9710914"><ele>198.99999999999997</ele><time>2026-04-25T09:01:06.036Z</time></trkpt><trkpt lat="43.4024956" lon="12.9711651"><ele>199.0</ele><time>2026-04-25T09:02:15.037Z</time></trkpt><trkpt lat="43.4025444" lon="12.9712563"><ele>199.0</ele><time>2026-04-25T09:16:36.038Z</time></trkpt><trkpt lat="43.4025072" lon="12.9711684"><ele>199.0</ele><time>2026-04-25T09:34:25.037Z</time></trkpt><trkpt lat="43.4024439" lon="12.9711646"><ele>199.0</ele><time>2026-04-25T09:36:56.038Z</time></trkpt><trkpt lat="43.4023943" lon="12.9712245"><ele>198.99999999999997</ele><time>2026-04-25T09:37:02.037Z</time></trkpt><trkpt lat="43.4023265" lon="12.9712648"><ele>199.0</ele><time>2026-04-25T09:37:08.038Z</time></trkpt><trkpt lat="43.402251" lon="12.9712552"><ele>199.0</ele><time>2026-04-25T09:38:37.045Z</time></trkpt><trkpt lat="43.4023567" lon="12.9711163"><ele>199.0</ele><time>2026-04-25T09:38:52.038Z</time></trkpt><trkpt lat="43.4024646" lon="12.9709984"><ele>199.0</ele><time>2026-04-25T09:38:53.037Z</time></trkpt><trkpt lat="43.4025241" lon="12.9709032"><ele>199.0</ele><time>2026-04-25T09:38:54.037Z</time></trkpt><trkpt lat="43.4025697" lon="12.9708075"><ele>198.99999999999997</ele><time>2026-04-25T09:38:55.037Z</time></trkpt><trkpt lat="43.4026063" lon="12.9707122"><ele>199.0</ele><time>2026-04-25T09:38:56.038Z</time></trkpt><trkpt lat="43.4026301" lon="12.9706197"><ele>199.0</ele><time>2026-04-25T09:38:57.038Z</time></trkpt><trkpt lat="43.4026456" lon="12.9704712"><ele>199.0</ele><time>2026-04-25T09:38:59.037Z</time></trkpt><trkpt lat="43.402661" lon="12.9703633"><ele>198.99999999999997</ele><time>2026-04-25T09:39:01.037Z</time></trkpt><trkpt lat="43.4026788" lon="12.9702152"><ele>199.0</ele><time>2026-04-25T09:39:04.038Z</time></trkpt><trkpt lat="43.4026791" lon="12.9701231"><ele>199.79999999999998</ele><time>2026-04-25T09:39:05.037Z</time></trkpt><trkpt lat="43.4026656" lon="12.9699564"><ele>200.6</ele><time>2026-04-25T09:39:07.038Z</time></trkpt><trkpt lat="43.4026556" lon="12.9697975"><ele>201.4</ele><time>2026-04-25T09:39:09.038Z</time></trkpt><trkpt lat="43.4026409" lon="12.9696479"><ele>202.2</ele><time>2026-04-25T09:39:11.038Z</time></trkpt><trkpt lat="43.4026285" lon="12.9695577"><ele>203.0</ele><time>2026-04-25T09:39:12.037Z</time></trkpt><trkpt lat="43.4026192" lon="12.9694634"><ele>203.00000000000003</ele><time>2026-04-25T09:39:13.039Z</time></trkpt><trkpt lat="43.4026132" lon="12.9693658"><ele>203.0</ele><time>2026-04-25T09:39:14.038Z</time></trkpt><trkpt lat="43.4026109" lon="12.9692669"><ele>203.0</ele><time>2026-04-25T09:39:15.038Z</time></trkpt><trkpt lat="43.4026323" lon="12.9691023"><ele>203.0</ele><time>2026-04-25T09:39:17.038Z</time></trkpt><trkpt lat="43.4026509" lon="12.969017"><ele>203.00000000000003</ele><time>2026-04-25T09:39:18.037Z</time></trkpt><trkpt lat="43.4026974" lon="12.9688647"><ele>203.0</ele><time>2026-04-25T09:39:20.037Z</time></trkpt><trkpt lat="43.4027338" lon="12.9687314"><ele>203.60000000000002</ele><time>2026-04-25T09:39:22.037Z</time></trkpt><trkpt lat="43.4027642" lon="12.9685803"><ele>204.20000000000002</ele><time>2026-04-25T09:39:24.037Z</time></trkpt><trkpt lat="43.4027703" lon="12.9684224"><ele>204.8</ele><time>2026-04-25T09:39:26.037Z</time></trkpt><trkpt lat="43.4027386" lon="12.9682931"><ele>205.4</ele><time>2026-04-25T09:39:28.037Z</time></trkpt><trkpt lat="43.4027025" lon="12.9681548"><ele>206.0</ele><time>2026-04-25T09:39:30.038Z</time></trkpt><trkpt lat="43.4026379" lon="12.9680432"><ele>206.0</ele><time>2026-04-25T09:39:32.037Z</time></trkpt><trkpt lat="43.4025458" lon="12.9680622"><ele>206.0</ele><time>2026-04-25T09:39:34.037Z</time></trkpt><trkpt lat="43.4024931" lon="12.9682368"><ele>206.0</ele><time>2026-04-25T09:39:36.039Z</time></trkpt><trkpt lat="43.4024832" lon="12.968361"><ele>206.0</ele><time>2026-04-25T09:39:37.038Z</time></trkpt><trkpt lat="43.4024737" lon="12.9684877"><ele>206.0</ele><time>2026-04-25T09:39:38.038Z</time></trkpt><trkpt lat="43.4024631" lon="12.9686134"><ele>206.16666666666669</ele><time>2026-04-25T09:39:39.038Z</time></trkpt><trkpt lat="43.4024504" lon="12.9687279"><ele>206.33333333333334</ele><time>2026-04-25T09:39:40.039Z</time></trkpt><trkpt lat="43.4024338" lon="12.9688356"><ele>206.5</ele><time>2026-04-25T09:39:41.039Z</time></trkpt><trkpt lat="43.4024084" lon="12.9689514"><ele>206.66666666666669</ele><time>2026-04-25T09:39:42.04Z</time></trkpt><trkpt lat="43.4023759" lon="12.9690683"><ele>206.83333333333334</ele><time>2026-04-25T09:39:43.039Z</time></trkpt><trkpt lat="43.4023385" lon="12.9691787"><ele>207.0</ele><time>2026-04-25T09:39:44.039Z</time></trkpt><trkpt lat="43.4022946" lon="12.9692816"><ele>206.2</ele><time>2026-04-25T09:39:45.038Z</time></trkpt><trkpt lat="43.4022479" lon="12.9693765"><ele>205.39999999999998</ele><time>2026-04-25T09:39:46.038Z</time></trkpt><trkpt lat="43.4022022" lon="12.9694792"><ele>204.60000000000002</ele><time>2026-04-25T09:39:47.039Z</time></trkpt><trkpt lat="43.4021512" lon="12.9695994"><ele>203.8</ele><time>2026-04-25T09:39:48.04Z</time></trkpt><trkpt lat="43.4020971" lon="12.969729"><ele>203.0</ele><time>2026-04-25T09:39:49.039Z</time></trkpt><trkpt lat="43.4020238" lon="12.9698812"><ele>204.0</ele><time>2026-04-25T09:39:50.039Z</time></trkpt><trkpt lat="43.4019534" lon="12.9700295"><ele>205.0</ele><time>2026-04-25T09:39:51.038Z</time></trkpt><trkpt lat="43.4018892" lon="12.9701615"><ele>206.0</ele><time>2026-04-25T09:39:52.039Z</time></trkpt><trkpt lat="43.4018288" lon="12.9702846"><ele>207.0</ele><time>2026-04-25T09:39:53.038Z</time></trkpt><trkpt lat="43.4017653" lon="12.9704152"><ele>207.0</ele><time>2026-04-25T09:39:54.04Z</time></trkpt><trkpt lat="43.4017051" lon="12.9705495"><ele>207.0</ele><time>2026-04-25T09:39:55.038Z</time></trkpt><trkpt lat="43.4016535" lon="12.9706696"><ele>207.0</ele><time>2026-04-25T09:39:56.039Z</time></trkpt><trkpt lat="43.4016039" lon="12.9707822"><ele>207.0</ele><time>2026-04-25T09:39:57.04Z</time></trkpt><trkpt lat="43.4015498" lon="12.9709025"><ele>207.0</ele><time>2026-04-25T09:39:58.038Z</time></trkpt><trkpt lat="43.401488" lon="12.9710379"><ele>205.39999999999998</ele><time>2026-04-25T09:39:59.039Z</time></trkpt><trkpt lat="43.4014224" lon="12.9711786"><ele>203.79999999999998</ele><time>2026-04-25T09:40:00.039Z</time></trkpt><trkpt lat="43.4013607" lon="12.971311"><ele>202.2</ele><time>2026-04-25T09:40:01.038Z</time></trkpt><trkpt lat="43.4013088" lon="12.9714311"><ele>200.6</ele><time>2026-04-25T09:40:02.039Z</time></trkpt><trkpt lat="43.4012658" lon="12.9715493"><ele>199.0</ele><time>2026-04-25T09:40:03.038Z</time></trkpt><trkpt lat="43.4012293" lon="12.9716753"><ele>201.0</ele><time>2026-04-25T09:40:04.038Z</time></trkpt><trkpt lat="43.4012042" lon="12.9718183"><ele>203.0</ele><time>2026-04-25T09:40:05.038Z</time></trkpt><trkpt lat="43.4011953" lon="12.9719739"><ele>205.0</ele><time>2026-04-25T09:40:06.038Z</time></trkpt><trkpt lat="43.4012027" lon="12.9721342"><ele>207.0</ele><time>2026-04-25T09:40:07.039Z</time></trkpt><trkpt lat="43.4012237" lon="12.9722898"><ele>207.0</ele><time>2026-04-25T09:40:08.038Z</time></trkpt><trkpt lat="43.401252" lon="12.9724325"><ele>207.0</ele><time>2026-04-25T09:40:09.038Z</time></trkpt><trkpt lat="43.4012811" lon="12.9725651"><ele>207.0</ele><time>2026-04-25T09:40:10.038Z</time></trkpt><trkpt lat="43.401311" lon="12.9726995"><ele>207.0</ele><time>2026-04-25T09:40:11.039Z</time></trkpt><trkpt lat="43.4013434" lon="12.9728358"><ele>207.0</ele><time>2026-04-25T09:40:12.038Z</time></trkpt><trkpt lat="43.401378" lon="12.9729732"><ele>206.5</ele><time>2026-04-25T09:40:13.04Z</time></trkpt><trkpt lat="43.4014146" lon="12.9731092"><ele>206.0</ele><time>2026-04-25T09:40:14.038Z</time></trkpt><trkpt lat="43.4014497" lon="12.9732355"><ele>205.5</ele><time>2026-04-25T09:40:15.038Z</time></trkpt><trkpt lat="43.4014798" lon="12.9733451"><ele>205.0</ele><time>2026-04-25T09:40:16.038Z</time></trkpt><trkpt lat="43.4015074" lon="12.9734438"><ele>204.5</ele><time>2026-04-25T09:40:17.038Z</time></trkpt><trkpt lat="43.4015363" lon="12.9735344"><ele>204.0</ele><time>2026-04-25T09:40:18.038Z</time></trkpt><trkpt lat="43.40158" lon="12.9736139"><ele>206.0</ele><time>2026-04-25T09:40:19.038Z</time></trkpt><trkpt lat="43.4016454" lon="12.9736693"><ele>208.0</ele><time>2026-04-25T09:40:20.038Z</time></trkpt><trkpt lat="43.4017329" lon="12.973688"><ele>209.99999999999997</ele><time>2026-04-25T09:40:21.039Z</time></trkpt><trkpt lat="43.4018378" lon="12.9736714"><ele>212.0</ele><time>2026-04-25T09:40:22.038Z</time></trkpt><trkpt lat="43.4019579" lon="12.9736225"><ele>214.0</ele><time>2026-04-25T09:40:23.038Z</time></trkpt><trkpt lat="43.4020912" lon="12.9735396"><ele>214.75</ele><time>2026-04-25T09:40:24.04Z</time></trkpt><trkpt lat="43.402209" lon="12.9734401"><ele>215.5</ele><time>2026-04-25T09:40:25.039Z</time></trkpt><trkpt lat="43.4023183" lon="12.9733263"><ele>216.25</ele><time>2026-04-25T09:40:26.038Z</time></trkpt><trkpt lat="43.4024172" lon="12.9732023"><ele>217.0</ele><time>2026-04-25T09:40:27.04Z</time></trkpt><trkpt lat="43.4024981" lon="12.9730688"><ele>217.0</ele><time>2026-04-25T09:40:28.038Z</time></trkpt><trkpt lat="43.4025581" lon="12.9729379"><ele>217.0</ele><time>2026-04-25T09:40:29.038Z</time></trkpt><trkpt lat="43.4026018" lon="12.9728008"><ele>217.0</ele><time>2026-04-25T09:40:30.038Z</time></trkpt><trkpt lat="43.4026345" lon="12.9726479"><ele>217.0</ele><time>2026-04-25T09:40:31.038Z</time></trkpt><trkpt lat="43.4026592" lon="12.9724905"><ele>214.6</ele><time>2026-04-25T09:40:32.039Z</time></trkpt><trkpt lat="43.4026801" lon="12.9723368"><ele>212.2</ele><time>2026-04-25T09:40:33.038Z</time></trkpt><trkpt lat="43.402698" lon="12.9721858"><ele>209.8</ele><time>2026-04-25T09:40:34.04Z</time></trkpt><trkpt lat="43.4027136" lon="12.9720366"><ele>207.4</ele><time>2026-04-25T09:40:35.039Z</time></trkpt><trkpt lat="43.4027262" lon="12.9718878"><ele>205.0</ele><time>2026-04-25T09:40:36.039Z</time></trkpt><trkpt lat="43.4027386" lon="12.971741"><ele>203.8</ele><time>2026-04-25T09:40:37.039Z</time></trkpt><trkpt lat="43.4027642" lon="12.9715975"><ele>202.6</ele><time>2026-04-25T09:40:38.039Z</time></trkpt><trkpt lat="43.4028144" lon="12.9714683"><ele>201.39999999999998</ele><time>2026-04-25T09:40:39.039Z</time></trkpt><trkpt lat="43.4028894" lon="12.9713674"><ele>200.2</ele><time>2026-04-25T09:40:40.038Z</time></trkpt><trkpt lat="43.4029888" lon="12.9712853"><ele>199.0</ele><time>2026-04-25T09:40:41.038Z</time></trkpt><trkpt lat="43.4031107" lon="12.9712123"><ele>200.75</ele><time>2026-04-25T09:40:42.039Z</time></trkpt><trkpt lat="43.4032485" lon="12.9711401"><ele>202.5</ele><time>2026-04-25T09:40:43.039Z</time></trkpt><trkpt lat="43.403375" lon="12.9710894"><ele>204.25</ele><time>2026-04-25T09:40:44.039Z</time></trkpt><trkpt lat="43.4034908" lon="12.9710393"><ele>206.0</ele><time>2026-04-25T09:40:45.04Z</time></trkpt><trkpt lat="43.4036732" lon="12.9708555"><ele>206.0</ele><time>2026-04-25T09:40:47.039Z</time></trkpt><trkpt lat="43.4037312" lon="12.9706802"><ele>206.0</ele><time>2026-04-25T09:40:48.039Z</time></trkpt><trkpt lat="43.403774" lon="12.9705045"><ele>206.0</ele><time>2026-04-25T09:40:49.038Z</time></trkpt><trkpt lat="43.4038194" lon="12.9703482"><ele>206.0</ele><time>2026-04-25T09:40:50.038Z</time></trkpt><trkpt lat="43.403877" lon="12.9702169"><ele>209.0</ele><time>2026-04-25T09:40:51.038Z</time></trkpt><trkpt lat="43.4039412" lon="12.9701292"><ele>212.0</ele><time>2026-04-25T09:40:52.039Z</time></trkpt><trkpt lat="43.4040483" lon="12.970129"><ele>215.00000000000003</ele><time>2026-04-25T09:40:54.038Z</time></trkpt><trkpt lat="43.4040984" lon="12.9702931"><ele>218.0</ele><time>2026-04-25T09:40:56.038Z</time></trkpt><trkpt lat="43.4041023" lon="12.9704506"><ele>221.0</ele><time>2026-04-25T09:40:57.038Z</time></trkpt><trkpt lat="43.4041041" lon="12.9706415"><ele>221.0</ele><time>2026-04-25T09:40:58.038Z</time></trkpt><trkpt lat="43.4041033" lon="12.9708242"><ele>221.0</ele><time>2026-04-25T09:40:59.038Z</time></trkpt><trkpt lat="43.4040999" lon="12.9710067"><ele>221.0</ele><time>2026-04-25T09:41:00.039Z</time></trkpt><trkpt lat="43.4040863" lon="12.9711966"><ele>221.0</ele><time>2026-04-25T09:41:01.038Z</time></trkpt><trkpt lat="43.4040461" lon="12.9713864"><ele>223.5</ele><time>2026-04-25T09:41:02.038Z</time></trkpt><trkpt lat="43.4039806" lon="12.9715671"><ele>226.0</ele><time>2026-04-25T09:41:03.039Z</time></trkpt><trkpt lat="43.4038944" lon="12.971734"><ele>228.5</ele><time>2026-04-25T09:41:04.038Z</time></trkpt><trkpt lat="43.4037944" lon="12.9718925"><ele>231.0</ele><time>2026-04-25T09:41:05.038Z</time></trkpt><trkpt lat="43.4036876" lon="12.9720334"><ele>231.0</ele><time>2026-04-25T09:41:06.038Z</time></trkpt><trkpt lat="43.4035907" lon="12.9721511"><ele>231.0</ele><time>2026-04-25T09:41:07.039Z</time></trkpt><trkpt lat="43.4035066" lon="12.9722547"><ele>231.0</ele><time>2026-04-25T09:41:08.039Z</time></trkpt><trkpt lat="43.4034217" lon="12.9723634"><ele>231.0</ele><time>2026-04-25T09:41:09.039Z</time></trkpt><trkpt lat="43.4033367" lon="12.9724847"><ele>236.0</ele><time>2026-04-25T09:41:10.038Z</time></trkpt><trkpt lat="43.4032545" lon="12.9726211"><ele>241.0</ele><time>2026-04-25T09:41:11.039Z</time></trkpt><trkpt lat="43.4031744" lon="12.9727662"><ele>246.0</ele><time>2026-04-25T09:41:12.038Z</time></trkpt><trkpt lat="43.4030986" lon="12.9729104"><ele>251.0</ele><time>2026-04-25T09:41:13.038Z</time></trkpt><trkpt lat="43.4030272" lon="12.9730506"><ele>243.25</ele><time>2026-04-25T09:41:14.039Z</time></trkpt><trkpt lat="43.4029555" lon="12.9731876"><ele>235.5</ele><time>2026-04-25T09:41:15.038Z</time></trkpt><trkpt lat="43.4028848" lon="12.9733182"><ele>227.75</ele><time>2026-04-25T09:41:16.038Z</time></trkpt><trkpt lat="43.4028168" lon="12.9734432"><ele>220.0</ele><time>2026-04-25T09:41:17.038Z</time></trkpt><trkpt lat="43.4027563" lon="12.973559"><ele>220.0</ele><time>2026-04-25T09:41:18.039Z</time></trkpt><trkpt lat="43.4027123" lon="12.9736604"><ele>220.0</ele><time>2026-04-25T09:41:19.038Z</time></trkpt><trkpt lat="43.4027202" lon="12.9738025"><ele>220.0</ele><time>2026-04-25T09:41:21.038Z</time></trkpt><trkpt lat="43.4028389" lon="12.9738152"><ele>220.0</ele><time>2026-04-25T09:41:23.038Z</time></trkpt><trkpt lat="43.4028902" lon="12.9737337"><ele>220.0</ele><time>2026-04-25T09:41:24.039Z</time></trkpt><trkpt lat="43.4029398" lon="12.97359"><ele>220.0</ele><time>2026-04-25T09:41:25.039Z</time></trkpt><trkpt lat="43.4029958" lon="12.9734349"><ele>220.0</ele><time>2026-04-25T09:41:26.039Z</time></trkpt><trkpt lat="43.4030766" lon="12.9732819"><ele>220.0</ele><time>2026-04-25T09:41:27.038Z</time></trkpt><trkpt lat="43.4032024" lon="12.9731158"><ele>220.0</ele><time>2026-04-25T09:41:28.038Z</time></trkpt><trkpt lat="43.4033533" lon="12.9729458"><ele>227.75</ele><time>2026-04-25T09:41:29.038Z</time></trkpt><trkpt lat="43.4034868" lon="12.9728219"><ele>235.5</ele><time>2026-04-25T09:41:30.038Z</time></trkpt><trkpt lat="43.4035972" lon="12.9727429"><ele>243.25</ele><time>2026-04-25T09:41:31.038Z</time></trkpt><trkpt lat="43.4037122" lon="12.9726966"><ele>251.0</ele><time>2026-04-25T09:41:32.039Z</time></trkpt><trkpt lat="43.4038434" lon="12.9726891"><ele>260.33333333333337</ele><time>2026-04-25T09:41:33.04Z</time></trkpt><trkpt lat="43.4040006" lon="12.9727026"><ele>269.6666666666667</ele><time>2026-04-25T09:41:34.038Z</time></trkpt><trkpt lat="43.4041975" lon="12.9727089"><ele>279.0</ele><time>2026-04-25T09:41:35.04Z</time></trkpt><trkpt lat="43.4043909" lon="12.9726927"><ele>279.0</ele><time>2026-04-25T09:41:36.038Z</time></trkpt><trkpt lat="43.4045788" lon="12.9726473"><ele>279.0</ele><time>2026-04-25T09:41:37.038Z</time></trkpt><trkpt lat="43.4047901" lon="12.9725597"><ele>279.0</ele><time>2026-04-25T09:41:38.039Z</time></trkpt><trkpt lat="43.4050023" lon="12.9724284"><ele>276.0</ele><time>2026-04-25T09:41:39.038Z</time></trkpt><trkpt lat="43.4051947" lon="12.9722948"><ele>273.0</ele><time>2026-04-25T09:41:40.038Z</time></trkpt><trkpt lat="43.4053619" lon="12.972176"><ele>270.0</ele><time>2026-04-25T09:41:41.039Z</time></trkpt><trkpt lat="43.4055168" lon="12.9720609"><ele>271.0</ele><time>2026-04-25T09:41:42.039Z</time></trkpt><trkpt lat="43.4056698" lon="12.9719263"><ele>272.0</ele><time>2026-04-25T09:41:43.038Z</time></trkpt><trkpt lat="43.405827" lon="12.9717564"><ele>273.0</ele><time>2026-04-25T09:41:44.038Z</time></trkpt><trkpt lat="43.4059867" lon="12.9715616"><ele>273.0</ele><time>2026-04-25T09:41:45.04Z</time></trkpt><trkpt lat="43.4061376" lon="12.9713616"><ele>273.0</ele><time>2026-04-25T09:41:46.038Z</time></trkpt><trkpt lat="43.4062713" lon="12.9711752"><ele>273.0</ele><time>2026-04-25T09:41:47.039Z</time></trkpt><trkpt lat="43.4063858" lon="12.9710114"><ele>276.5</ele><time>2026-04-25T09:41:48.039Z</time></trkpt><trkpt lat="43.406492" lon="12.9708641"><ele>280.0</ele><time>2026-04-25T09:41:49.038Z</time></trkpt><trkpt lat="43.4066003" lon="12.9707297"><ele>283.5</ele><time>2026-04-25T09:41:50.038Z</time></trkpt><trkpt lat="43.4067176" lon="12.9706161"><ele>287.0</ele><time>2026-04-25T09:41:51.039Z</time></trkpt><trkpt lat="43.4068509" lon="12.970526"><ele>287.0</ele><time>2026-04-25T09:41:52.038Z</time></trkpt><trkpt lat="43.4069998" lon="12.9704684"><ele>287.0</ele><time>2026-04-25T09:41:53.038Z</time></trkpt><trkpt lat="43.4071665" lon="12.9704372"><ele>287.0</ele><time>2026-04-25T09:41:54.039Z</time></trkpt><trkpt lat="43.4073288" lon="12.970413"><ele>293.6666666666667</ele><time>2026-04-25T09:41:55.038Z</time></trkpt><trkpt lat="43.4074863" lon="12.970377"><ele>300.3333333333333</ele><time>2026-04-25T09:41:56.038Z</time></trkpt><trkpt lat="43.4076443" lon="12.970327"><ele>307.0</ele><time>2026-04-25T09:41:57.038Z</time></trkpt><trkpt lat="43.4077946" lon="12.9702714"><ele>307.0</ele><time>2026-04-25T09:41:58.038Z</time></trkpt><trkpt lat="43.4079325" lon="12.9702147"><ele>307.0</ele><time>2026-04-25T09:41:59.038Z</time></trkpt><trkpt lat="43.4080668" lon="12.9701567"><ele>307.0</ele><time>2026-04-25T09:42:00.038Z</time></trkpt><trkpt lat="43.408197" lon="12.9700955"><ele>307.0</ele><time>2026-04-25T09:42:01.039Z</time></trkpt><trkpt lat="43.4083159" lon="12.970033"><ele>305.2</ele><time>2026-04-25T09:42:02.039Z</time></trkpt><trkpt lat="43.4084163" lon="12.9699745"><ele>303.4</ele><time>2026-04-25T09:42:03.04Z</time></trkpt><trkpt lat="43.4084966" lon="12.9699315"><ele>301.6</ele><time>2026-04-25T09:42:04.038Z</time></trkpt><trkpt lat="43.4085591" lon="12.969915"><ele>299.8</ele><time>2026-04-25T09:42:05.038Z</time></trkpt><trkpt lat="43.4086443" lon="12.9699957"><ele>298.0</ele><time>2026-04-25T09:42:07.038Z</time></trkpt><trkpt lat="43.4086202" lon="12.9701343"><ele>305.25</ele><time>2026-04-25T09:42:09.039Z</time></trkpt><trkpt lat="43.4085648" lon="12.9701854"><ele>312.5</ele><time>2026-04-25T09:42:10.039Z</time></trkpt><trkpt lat="43.4084828" lon="12.9702172"><ele>319.75</ele><time>2026-04-25T09:42:11.039Z</time></trkpt><trkpt lat="43.4083552" lon="12.9702558"><ele>327.0</ele><time>2026-04-25T09:42:12.039Z</time></trkpt><trkpt lat="43.4081893" lon="12.9703172"><ele>327.0</ele><time>2026-04-25T09:42:13.038Z</time></trkpt><trkpt lat="43.4080062" lon="12.9704087"><ele>327.0</ele><time>2026-04-25T09:42:14.038Z</time></trkpt><trkpt lat="43.4078083" lon="12.9705397"><ele>327.0</ele><time>2026-04-25T09:42:15.039Z</time></trkpt><trkpt lat="43.4076055" lon="12.9706807"><ele>330.6666666666667</ele><time>2026-04-25T09:42:16.038Z</time></trkpt><trkpt lat="43.4074417" lon="12.9707914"><ele>334.33333333333337</ele><time>2026-04-25T09:42:17.039Z</time></trkpt><trkpt lat="43.4073094" lon="12.9709067"><ele>338.0</ele><time>2026-04-25T09:42:18.038Z</time></trkpt><trkpt lat="43.4071767" lon="12.9710828"><ele>338.0</ele><time>2026-04-25T09:42:19.039Z</time></trkpt><trkpt lat="43.4070536" lon="12.9713066"><ele>338.0</ele><time>2026-04-25T09:42:20.04Z</time></trkpt><trkpt lat="43.4069479" lon="12.9715293"><ele>338.0</ele><time>2026-04-25T09:42:21.04Z</time></trkpt><trkpt lat="43.4068383" lon="12.9717464"><ele>338.0</ele><time>2026-04-25T09:42:22.04Z</time></trkpt><trkpt lat="43.4067126" lon="12.9719701"><ele>338.0</ele><time>2026-04-25T09:42:23.039Z</time></trkpt><trkpt lat="43.4065672" lon="12.9722099"><ele>338.0</ele><time>2026-04-25T09:42:24.038Z</time></trkpt><trkpt lat="43.4064186" lon="12.9724366"><ele>336.6666666666667</ele><time>2026-04-25T09:42:25.039Z</time></trkpt><trkpt lat="43.4062882" lon="12.9726175"><ele>335.3333333333333</ele><time>2026-04-25T09:42:26.04Z</time></trkpt><trkpt lat="43.4061583" lon="12.972782"><ele>334.0</ele><time>2026-04-25T09:42:27.038Z</time></trkpt><trkpt lat="43.4060163" lon="12.9729464"><ele>334.0</ele><time>2026-04-25T09:42:28.039Z</time></trkpt><trkpt lat="43.4058727" lon="12.9730877"><ele>334.0</ele><time>2026-04-25T09:42:29.038Z</time></trkpt><trkpt lat="43.4057425" lon="12.9732012"><ele>334.0</ele><time>2026-04-25T09:42:30.039Z</time></trkpt><trkpt lat="43.4056379" lon="12.9732921"><ele>332.79999999999995</ele><time>2026-04-25T09:42:31.038Z</time></trkpt><trkpt lat="43.4055611" lon="12.9733626"><ele>331.59999999999997</ele><time>2026-04-25T09:42:32.038Z</time></trkpt><trkpt lat="43.405496" lon="12.9734317"><ele>330.4</ele><time>2026-04-25T09:42:33.039Z</time></trkpt><trkpt lat="43.4054506" lon="12.9735007"><ele>329.2</ele><time>2026-04-25T09:42:34.038Z</time></trkpt><trkpt lat="43.4054849" lon="12.9736094"><ele>328.0</ele><time>2026-04-25T09:42:36.039Z</time></trkpt><trkpt lat="43.4056121" lon="12.9735651"><ele>328.0</ele><time>2026-04-25T09:42:38.038Z</time></trkpt><trkpt lat="43.4056803" lon="12.9734915"><ele>328.0</ele><time>2026-04-25T09:42:39.039Z</time></trkpt><trkpt lat="43.4057782" lon="12.9733982"><ele>328.0</ele><time>2026-04-25T09:42:40.038Z</time></trkpt><trkpt lat="43.4059245" lon="12.9732902"><ele>328.0</ele><time>2026-04-25T09:42:41.038Z</time></trkpt><trkpt lat="43.4061015" lon="12.97315"><ele>331.0</ele><time>2026-04-25T09:42:42.038Z</time></trkpt><trkpt lat="43.4063101" lon="12.9729807"><ele>334.0</ele><time>2026-04-25T09:42:43.039Z</time></trkpt><trkpt lat="43.4065357" lon="12.9727797"><ele>336.0</ele><time>2026-04-25T09:42:44.038Z</time></trkpt><trkpt lat="43.406747" lon="12.9725637"><ele>338.0</ele><time>2026-04-25T09:42:45.04Z</time></trkpt><trkpt lat="43.4069178" lon="12.9723746"><ele>338.0</ele><time>2026-04-25T09:42:46.038Z</time></trkpt><trkpt lat="43.4070754" lon="12.9722147"><ele>338.0</ele><time>2026-04-25T09:42:47.038Z</time></trkpt><trkpt lat="43.4072403" lon="12.9720626"><ele>338.0</ele><time>2026-04-25T09:42:48.039Z</time></trkpt><trkpt lat="43.4074065" lon="12.9719196"><ele>338.0</ele><time>2026-04-25T09:42:49.039Z</time></trkpt><trkpt lat="43.4075793" lon="12.9717935"><ele>338.0</ele><time>2026-04-25T09:42:50.039Z</time></trkpt><trkpt lat="43.4077661" lon="12.9716844"><ele>338.0</ele><time>2026-04-25T09:42:51.04Z</time></trkpt><trkpt lat="43.4079668" lon="12.9715853"><ele>348.0</ele><time>2026-04-25T09:42:52.038Z</time></trkpt><trkpt lat="43.4081856" lon="12.9714901"><ele>358.0</ele><time>2026-04-25T09:42:53.038Z</time></trkpt><trkpt lat="43.4084108" lon="12.9714033"><ele>358.0</ele><time>2026-04-25T09:42:54.038Z</time></trkpt><trkpt lat="43.4086314" lon="12.9713286"><ele>358.0</ele><time>2026-04-25T09:42:55.038Z</time></trkpt><trkpt lat="43.4088483" lon="12.9712642"><ele>358.0</ele><time>2026-04-25T09:42:56.04Z</time></trkpt><trkpt lat="43.4090514" lon="12.9711989"><ele>363.66666666666663</ele><time>2026-04-25T09:42:57.038Z</time></trkpt><trkpt lat="43.4092223" lon="12.9711321"><ele>369.3333333333333</ele><time>2026-04-25T09:42:58.039Z</time></trkpt><trkpt lat="43.4093623" lon="12.9710643"><ele>375.0</ele><time>2026-04-25T09:42:59.039Z</time></trkpt><trkpt lat="43.4094849" lon="12.9710031"><ele>375.0</ele><time>2026-04-25T09:43:00.038Z</time></trkpt><trkpt lat="43.4095963" lon="12.9709348"><ele>375.0</ele><time>2026-04-25T09:43:01.039Z</time></trkpt><trkpt lat="43.4096927" lon="12.970859"><ele>375.0</ele><time>2026-04-25T09:43:02.038Z</time></trkpt><trkpt lat="43.4097825" lon="12.9707813"><ele>375.0</ele><time>2026-04-25T09:43:03.038Z</time></trkpt><trkpt lat="43.4098648" lon="12.9707094"><ele>375.0</ele><time>2026-04-25T09:43:04.038Z</time></trkpt><trkpt lat="43.4099363" lon="12.970659"><ele>374.1666666666667</ele><time>2026-04-25T09:43:05.038Z</time></trkpt><trkpt lat="43.4100017" lon="12.9706338"><ele>373.3333333333333</ele><time>2026-04-25T09:43:06.038Z</time></trkpt><trkpt lat="43.4101125" lon="12.9706182"><ele>372.5</ele><time>2026-04-25T09:43:08.039Z</time></trkpt><trkpt lat="43.4101804" lon="12.9705012"><ele>371.66666666666663</ele><time>2026-04-25T09:43:10.039Z</time></trkpt><trkpt lat="43.4101996" lon="12.9703982"><ele>370.8333333333333</ele><time>2026-04-25T09:43:11.038Z</time></trkpt><trkpt lat="43.4102224" lon="12.9702953"><ele>370.0</ele><time>2026-04-25T09:43:12.039Z</time></trkpt><trkpt lat="43.4102576" lon="12.9702081"><ele>370.0</ele><time>2026-04-25T09:43:13.039Z</time></trkpt><trkpt lat="43.4103118" lon="12.9701376"><ele>370.0</ele><time>2026-04-25T09:43:14.038Z</time></trkpt><trkpt lat="43.4103749" lon="12.9700718"><ele>370.0</ele><time>2026-04-25T09:43:15.039Z</time></trkpt><trkpt lat="43.4104415" lon="12.969995"><ele>370.0</ele><time>2026-04-25T09:43:16.038Z</time></trkpt><trkpt lat="43.4105081" lon="12.9699101"><ele>370.0</ele><time>2026-04-25T09:43:17.038Z</time></trkpt><trkpt lat="43.4105775" lon="12.9698247"><ele>370.0</ele><time>2026-04-25T09:43:18.037Z</time></trkpt><trkpt lat="43.4106469" lon="12.9697444"><ele>366.4</ele><time>2026-04-25T09:43:19.039Z</time></trkpt><trkpt lat="43.4107176" lon="12.9696685"><ele>362.8</ele><time>2026-04-25T09:43:20.037Z</time></trkpt><trkpt lat="43.4107835" lon="12.9695851"><ele>359.20000000000005</ele><time>2026-04-25T09:43:21.038Z</time></trkpt><trkpt lat="43.4108334" lon="12.9694942"><ele>355.6</ele><time>2026-04-25T09:43:22.038Z</time></trkpt><trkpt lat="43.4108691" lon="12.9694071"><ele>352.0</ele><time>2026-04-25T09:43:23.038Z</time></trkpt><trkpt lat="43.4109186" lon="12.9692636"><ele>352.8</ele><time>2026-04-25T09:43:25.037Z</time></trkpt><trkpt lat="43.4109658" lon="12.9691302"><ele>353.6</ele><time>2026-04-25T09:43:27.038Z</time></trkpt><trkpt lat="43.4110256" lon="12.9690001"><ele>354.40000000000003</ele><time>2026-04-25T09:43:29.038Z</time></trkpt><trkpt lat="43.4110799" lon="12.9689247"><ele>355.20000000000005</ele><time>2026-04-25T09:43:31.038Z</time></trkpt><trkpt lat="43.4111598" lon="12.9688715"><ele>356.0</ele><time>2026-04-25T09:44:38.038Z</time></trkpt><trkpt lat="43.4112503" lon="12.9687775"><ele>356.0</ele><time>2026-04-25T09:44:40.038Z</time></trkpt><trkpt lat="43.4113066" lon="12.9687292"><ele>356.0</ele><time>2026-04-25T09:44:41.037Z</time></trkpt><trkpt lat="43.411372" lon="12.9686784"><ele>356.0</ele><time>2026-04-25T09:44:42.038Z</time></trkpt><trkpt lat="43.4114545" lon="12.9686258"><ele>356.0</ele><time>2026-04-25T09:44:43.037Z</time></trkpt><trkpt lat="43.4115415" lon="12.968584"><ele>356.0</ele><time>2026-04-25T09:44:44.038Z</time></trkpt><trkpt lat="43.4116444" lon="12.9685444"><ele>356.0</ele><time>2026-04-25T09:44:45.038Z</time></trkpt><trkpt lat="43.4117855" lon="12.968491"><ele>354.5</ele><time>2026-04-25T09:44:46.037Z</time></trkpt><trkpt lat="43.4119361" lon="12.9684427"><ele>353.0</ele><time>2026-04-25T09:44:47.037Z</time></trkpt><trkpt lat="43.4120737" lon="12.9684276"><ele>351.5</ele><time>2026-04-25T09:44:48.038Z</time></trkpt><trkpt lat="43.4121998" lon="12.9684456"><ele>350.0</ele><time>2026-04-25T09:44:49.038Z</time></trkpt><trkpt lat="43.4123134" lon="12.9684856"><ele>352.0</ele><time>2026-04-25T09:44:50.037Z</time></trkpt><trkpt lat="43.4124211" lon="12.9685377"><ele>354.0</ele><time>2026-04-25T09:44:51.037Z</time></trkpt><trkpt lat="43.412513" lon="12.9685951"><ele>356.0</ele><time>2026-04-25T09:44:52.038Z</time></trkpt><trkpt lat="43.4125804" lon="12.9686581"><ele>358.0</ele><time>2026-04-25T09:44:53.038Z</time></trkpt><trkpt lat="43.4126378" lon="12.9687187"><ele>360.0</ele><time>2026-04-25T09:44:54.037Z</time></trkpt><trkpt lat="43.412693" lon="12.9687701"><ele>362.0</ele><time>2026-04-25T09:44:55.037Z</time></trkpt><trkpt lat="43.4128074" lon="12.9688022"><ele>362.0</ele><time>2026-04-25T09:44:57.037Z</time></trkpt><trkpt lat="43.4128726" lon="12.9686914"><ele>362.0</ele><time>2026-04-25T09:44:59.038Z</time></trkpt><trkpt lat="43.4128541" lon="12.9686047"><ele>362.0</ele><time>2026-04-25T09:45:00.037Z</time></trkpt><trkpt lat="43.4128015" lon="12.9685263"><ele>362.0</ele><time>2026-04-25T09:45:01.039Z</time></trkpt><trkpt lat="43.4127109" lon="12.968454"><ele>362.0</ele><time>2026-04-25T09:45:02.037Z</time></trkpt><trkpt lat="43.412596" lon="12.9683632"><ele>366.6666666666667</ele><time>2026-04-25T09:45:03.038Z</time></trkpt><trkpt lat="43.412437" lon="12.9682422"><ele>371.3333333333333</ele><time>2026-04-25T09:45:04.037Z</time></trkpt><trkpt lat="43.4122988" lon="12.9681348"><ele>376.0</ele><time>2026-04-25T09:45:05.038Z</time></trkpt><trkpt lat="43.4121446" lon="12.9680433"><ele>376.0</ele><time>2026-04-25T09:45:06.039Z</time></trkpt><trkpt lat="43.411987" lon="12.9679756"><ele>376.0</ele><time>2026-04-25T09:45:07.037Z</time></trkpt><trkpt lat="43.4118631" lon="12.9679664"><ele>376.0</ele><time>2026-04-25T09:45:08.038Z</time></trkpt><trkpt lat="43.4117698" lon="12.9679515"><ele>376.0</ele><time>2026-04-25T09:45:09.038Z</time></trkpt><trkpt lat="43.4116969" lon="12.9679058"><ele>376.0</ele><time>2026-04-25T09:45:10.039Z</time></trkpt><trkpt lat="43.4116604" lon="12.9678307"><ele>376.0</ele><time>2026-04-25T09:45:11.039Z</time></trkpt><trkpt lat="43.4117108" lon="12.9677336"><ele>376.0</ele><time>2026-04-25T09:45:13.039Z</time></trkpt><trkpt lat="43.411775" lon="12.9677459"><ele>376.0</ele><time>2026-04-25T09:45:14.037Z</time></trkpt><trkpt lat="43.4118562" lon="12.9677722"><ele>376.0</ele><time>2026-04-25T09:45:15.038Z</time></trkpt><trkpt lat="43.4120089" lon="12.9678023"><ele>378.66666666666663</ele><time>2026-04-25T09:45:16.037Z</time></trkpt><trkpt lat="43.412192" lon="12.9678231"><ele>381.3333333333333</ele><time>2026-04-25T09:45:17.038Z</time></trkpt><trkpt lat="43.4123826" lon="12.9678374"><ele>384.0</ele><time>2026-04-25T09:45:18.037Z</time></trkpt><trkpt lat="43.4125297" lon="12.9678486"><ele>384.0</ele><time>2026-04-25T09:45:19.038Z</time></trkpt><trkpt lat="43.4126289" lon="12.9678516"><ele>384.0</ele><time>2026-04-25T09:45:20.038Z</time></trkpt><trkpt lat="43.4127154" lon="12.9678158"><ele>384.0</ele><time>2026-04-25T09:45:21.037Z</time></trkpt><trkpt lat="43.4127795" lon="12.9677359"><ele>384.0</ele><time>2026-04-25T09:45:22.038Z</time></trkpt><trkpt lat="43.4128185" lon="12.9676124"><ele>384.0</ele><time>2026-04-25T09:45:23.037Z</time></trkpt><trkpt lat="43.412857" lon="12.9674675"><ele>384.0</ele><time>2026-04-25T09:45:24.037Z</time></trkpt><trkpt lat="43.4128925" lon="12.9672171"><ele>384.0</ele><time>2026-04-25T09:45:25.038Z</time></trkpt><trkpt lat="43.4129499" lon="12.966992"><ele>384.0</ele><time>2026-04-25T09:45:26.038Z</time></trkpt><trkpt lat="43.4130286" lon="12.9667952"><ele>392.66666666666663</ele><time>2026-04-25T09:45:27.037Z</time></trkpt><trkpt lat="43.4131368" lon="12.9666188"><ele>401.3333333333333</ele><time>2026-04-25T09:45:28.038Z</time></trkpt><trkpt lat="43.41325" lon="12.9664697"><ele>410.0</ele><time>2026-04-25T09:45:29.038Z</time></trkpt><trkpt lat="43.4133678" lon="12.9663152"><ele>410.0</ele><time>2026-04-25T09:45:30.037Z</time></trkpt><trkpt lat="43.4134727" lon="12.9661357"><ele>410.0</ele><time>2026-04-25T09:45:31.037Z</time></trkpt><trkpt lat="43.4135638" lon="12.9659358"><ele>410.0</ele><time>2026-04-25T09:45:32.038Z</time></trkpt><trkpt lat="43.4136448" lon="12.9657072"><ele>416.3333333333333</ele><time>2026-04-25T09:45:33.039Z</time></trkpt><trkpt lat="43.4137082" lon="12.9654741"><ele>422.66666666666663</ele><time>2026-04-25T09:45:34.038Z</time></trkpt><trkpt lat="43.4137555" lon="12.9652568"><ele>429.0</ele><time>2026-04-25T09:45:35.038Z</time></trkpt><trkpt lat="43.4138001" lon="12.9650569"><ele>423.0</ele><time>2026-04-25T09:45:36.038Z</time></trkpt><trkpt lat="43.4138426" lon="12.9648701"><ele>417.0</ele><time>2026-04-25T09:45:37.038Z</time></trkpt><trkpt lat="43.4138824" lon="12.9646946"><ele>411.0</ele><time>2026-04-25T09:45:38.038Z</time></trkpt><trkpt lat="43.4139281" lon="12.9645332"><ele>405.0</ele><time>2026-04-25T09:45:39.037Z</time></trkpt><trkpt lat="43.4139973" lon="12.964403"><ele>405.0</ele><time>2026-04-25T09:45:40.038Z</time></trkpt><trkpt lat="43.4140934" lon="12.9642995"><ele>405.0</ele><time>2026-04-25T09:45:41.038Z</time></trkpt><trkpt lat="43.4142138" lon="12.9642212"><ele>405.0</ele><time>2026-04-25T09:45:42.038Z</time></trkpt><trkpt lat="43.4143328" lon="12.9641511"><ele>405.0</ele><time>2026-04-25T09:45:43.037Z</time></trkpt><trkpt lat="43.4144335" lon="12.9640556"><ele>403.5</ele><time>2026-04-25T09:45:44.037Z</time></trkpt><trkpt lat="43.4145159" lon="12.9639145"><ele>402.0</ele><time>2026-04-25T09:45:45.039Z</time></trkpt><trkpt lat="43.4145853" lon="12.9637498"><ele>400.5</ele><time>2026-04-25T09:45:46.037Z</time></trkpt><trkpt lat="43.4146535" lon="12.9636065"><ele>399.0</ele><time>2026-04-25T09:45:47.037Z</time></trkpt><trkpt lat="43.4147425" lon="12.9634918"><ele>399.0</ele><time>2026-04-25T09:45:48.037Z</time></trkpt><trkpt lat="43.414859" lon="12.9634037"><ele>399.0</ele><time>2026-04-25T09:45:49.038Z</time></trkpt><trkpt lat="43.414995" lon="12.9633475"><ele>399.0</ele><time>2026-04-25T09:45:50.037Z</time></trkpt><trkpt lat="43.4151384" lon="12.9633322"><ele>399.0</ele><time>2026-04-25T09:45:51.038Z</time></trkpt><trkpt lat="43.4152787" lon="12.9633596"><ele>399.0</ele><time>2026-04-25T09:45:52.037Z</time></trkpt><trkpt lat="43.4154203" lon="12.9634092"><ele>399.0</ele><time>2026-04-25T09:45:53.037Z</time></trkpt><trkpt lat="43.4155648" lon="12.9634726"><ele>399.0</ele><time>2026-04-25T09:45:54.037Z</time></trkpt><trkpt lat="43.4157127" lon="12.96354"><ele>401.5</ele><time>2026-04-25T09:45:55.037Z</time></trkpt><trkpt lat="43.4158571" lon="12.963606"><ele>404.0</ele><time>2026-04-25T09:45:56.038Z</time></trkpt><trkpt lat="43.4159884" lon="12.9636746"><ele>406.5</ele><time>2026-04-25T09:45:57.038Z</time></trkpt><trkpt lat="43.4161089" lon="12.9637531"><ele>409.0</ele><time>2026-04-25T09:45:58.038Z</time></trkpt><trkpt lat="43.416215" lon="12.9638644"><ele>409.0</ele><time>2026-04-25T09:45:59.037Z</time></trkpt><trkpt lat="43.4163045" lon="12.9640076"><ele>409.0</ele><time>2026-04-25T09:46:00.039Z</time></trkpt><trkpt lat="43.4163822" lon="12.9641928"><ele>409.0</ele><time>2026-04-25T09:46:01.038Z</time></trkpt><trkpt lat="43.4164469" lon="12.9643786"><ele>409.0</ele><time>2026-04-25T09:46:02.038Z</time></trkpt><trkpt lat="43.4164984" lon="12.9645427"><ele>408.79999999999995</ele><time>2026-04-25T09:46:03.038Z</time></trkpt><trkpt lat="43.4165437" lon="12.9646909"><ele>408.59999999999997</ele><time>2026-04-25T09:46:04.038Z</time></trkpt><trkpt lat="43.4165806" lon="12.9648181"><ele>408.4</ele><time>2026-04-25T09:46:05.039Z</time></trkpt><trkpt lat="43.4166216" lon="12.9649355"><ele>408.2</ele><time>2026-04-25T09:46:06.038Z</time></trkpt><trkpt lat="43.4166767" lon="12.965046"><ele>408.0</ele><time>2026-04-25T09:46:07.038Z</time></trkpt><trkpt lat="43.4167495" lon="12.9651374"><ele>408.0</ele><time>2026-04-25T09:46:08.038Z</time></trkpt><trkpt lat="43.416839" lon="12.965201"><ele>408.0</ele><time>2026-04-25T09:46:09.037Z</time></trkpt><trkpt lat="43.416942" lon="12.9652296"><ele>408.0</ele><time>2026-04-25T09:46:10.037Z</time></trkpt><trkpt lat="43.4170547" lon="12.9652141"><ele>408.0</ele><time>2026-04-25T09:46:11.037Z</time></trkpt><trkpt lat="43.4171992" lon="12.9651671"><ele>408.5</ele><time>2026-04-25T09:46:12.038Z</time></trkpt><trkpt lat="43.4173431" lon="12.965115"><ele>409.0</ele><time>2026-04-25T09:46:13.039Z</time></trkpt><trkpt lat="43.4174827" lon="12.9650677"><ele>409.5</ele><time>2026-04-25T09:46:14.037Z</time></trkpt><trkpt lat="43.4176324" lon="12.9650094"><ele>410.0</ele><time>2026-04-25T09:46:15.037Z</time></trkpt><trkpt lat="43.4177802" lon="12.9649311"><ele>417.25</ele><time>2026-04-25T09:46:16.038Z</time></trkpt><trkpt lat="43.4179157" lon="12.9648364"><ele>424.5</ele><time>2026-04-25T09:46:17.037Z</time></trkpt><trkpt lat="43.4180362" lon="12.9647459"><ele>431.75</ele><time>2026-04-25T09:46:18.037Z</time></trkpt><trkpt lat="43.4181432" lon="12.9646747"><ele>439.0</ele><time>2026-04-25T09:46:19.038Z</time></trkpt><trkpt lat="43.4182447" lon="12.9646455"><ele>439.0</ele><time>2026-04-25T09:46:20.038Z</time></trkpt><trkpt lat="43.418348" lon="12.9646564"><ele>439.0</ele><time>2026-04-25T09:46:21.037Z</time></trkpt><trkpt lat="43.4184541" lon="12.9647232"><ele>439.0</ele><time>2026-04-25T09:46:22.039Z</time></trkpt><trkpt lat="43.4185593" lon="12.9648351"><ele>439.0</ele><time>2026-04-25T09:46:23.037Z</time></trkpt><trkpt lat="43.4186603" lon="12.9649622"><ele>435.5</ele><time>2026-04-25T09:46:24.037Z</time></trkpt><trkpt lat="43.4187517" lon="12.9650694"><ele>432.0</ele><time>2026-04-25T09:46:25.038Z</time></trkpt><trkpt lat="43.4188557" lon="12.9651471"><ele>428.5</ele><time>2026-04-25T09:46:26.037Z</time></trkpt><trkpt lat="43.4189908" lon="12.9651994"><ele>425.0</ele><time>2026-04-25T09:46:27.037Z</time></trkpt><trkpt lat="43.4191608" lon="12.9652185"><ele>425.0</ele><time>2026-04-25T09:46:28.037Z</time></trkpt><trkpt lat="43.4193535" lon="12.9652158"><ele>425.0</ele><time>2026-04-25T09:46:29.039Z</time></trkpt><trkpt lat="43.4195716" lon="12.9652124"><ele>425.0</ele><time>2026-04-25T09:46:30.037Z</time></trkpt><trkpt lat="43.4197914" lon="12.9652186"><ele>427.0</ele><time>2026-04-25T09:46:31.037Z</time></trkpt><trkpt lat="43.4199808" lon="12.9652265"><ele>429.0</ele><time>2026-04-25T09:46:32.037Z</time></trkpt><trkpt lat="43.4201496" lon="12.9652163"><ele>431.0</ele><time>2026-04-25T09:46:33.037Z</time></trkpt><trkpt lat="43.4203317" lon="12.9651873"><ele>430.66666666666663</ele><time>2026-04-25T09:46:34.038Z</time></trkpt><trkpt lat="43.4205147" lon="12.9651434"><ele>430.33333333333337</ele><time>2026-04-25T09:46:35.038Z</time></trkpt><trkpt lat="43.4206712" lon="12.965092"><ele>430.0</ele><time>2026-04-25T09:46:36.037Z</time></trkpt><trkpt lat="43.420807" lon="12.9650379"><ele>438.75</ele><time>2026-04-25T09:46:37.037Z</time></trkpt><trkpt lat="43.4209285" lon="12.9649821"><ele>447.5</ele><time>2026-04-25T09:46:38.037Z</time></trkpt><trkpt lat="43.421046" lon="12.9649374"><ele>456.25</ele><time>2026-04-25T09:46:39.038Z</time></trkpt><trkpt lat="43.4211707" lon="12.9649132"><ele>465.0</ele><time>2026-04-25T09:46:40.037Z</time></trkpt><trkpt lat="43.4213023" lon="12.9649054"><ele>465.75</ele><time>2026-04-25T09:46:41.038Z</time></trkpt><trkpt lat="43.4214391" lon="12.9649056"><ele>466.5</ele><time>2026-04-25T09:46:42.037Z</time></trkpt><trkpt lat="43.4215685" lon="12.9649165"><ele>467.25</ele><time>2026-04-25T09:46:43.037Z</time></trkpt><trkpt lat="43.4216871" lon="12.9649445"><ele>468.0</ele><time>2026-04-25T09:46:44.037Z</time></trkpt><trkpt lat="43.4218031" lon="12.9649998"><ele>468.0</ele><time>2026-04-25T09:46:45.039Z</time></trkpt><trkpt lat="43.4219127" lon="12.9650785"><ele>467.99999999999994</ele><time>2026-04-25T09:46:46.039Z</time></trkpt><trkpt lat="43.4220069" lon="12.9651645"><ele>467.99999999999994</ele><time>2026-04-25T09:46:47.037Z</time></trkpt><trkpt lat="43.4220939" lon="12.9652325"><ele>468.0</ele><time>2026-04-25T09:46:48.038Z</time></trkpt><trkpt lat="43.4221847" lon="12.965271"><ele>468.0</ele><time>2026-04-25T09:46:49.037Z</time></trkpt><trkpt lat="43.4222708" lon="12.9652786"><ele>468.0</ele><time>2026-04-25T09:46:50.037Z</time></trkpt><trkpt lat="43.4223448" lon="12.9652677"><ele>467.99999999999994</ele><time>2026-04-25T09:46:51.037Z</time></trkpt><trkpt lat="43.4224738" lon="12.9652518"><ele>467.99999999999994</ele><time>2026-04-25T09:46:53.038Z</time></trkpt><trkpt lat="43.42256" lon="12.9652725"><ele>468.0</ele><time>2026-04-25T09:46:54.037Z</time></trkpt><trkpt lat="43.4226654" lon="12.9653132"><ele>468.0</ele><time>2026-04-25T09:46:55.039Z</time></trkpt><trkpt lat="43.4227662" lon="12.9653733"><ele>468.0</ele><time>2026-04-25T09:46:56.038Z</time></trkpt><trkpt lat="43.4229652" lon="12.9655526"><ele>468.0</ele><time>2026-04-25T09:46:58.037Z</time></trkpt><trkpt lat="43.4230533" lon="12.9656437"><ele>468.0</ele><time>2026-04-25T09:46:59.037Z</time></trkpt><trkpt lat="43.4231324" lon="12.9657236"><ele>468.0</ele><time>2026-04-25T09:47:00.038Z</time></trkpt><trkpt lat="43.4232061" lon="12.9657937"><ele>472.59999999999997</ele><time>2026-04-25T09:47:01.037Z</time></trkpt><trkpt lat="43.4232858" lon="12.9658641"><ele>477.19999999999993</ele><time>2026-04-25T09:47:02.037Z</time></trkpt><trkpt lat="43.4233698" lon="12.9659299"><ele>481.8</ele><time>2026-04-25T09:47:03.038Z</time></trkpt><trkpt lat="43.4234606" lon="12.9659896"><ele>486.4</ele><time>2026-04-25T09:47:04.038Z</time></trkpt><trkpt lat="43.42356" lon="12.9660363"><ele>491.0</ele><time>2026-04-25T09:47:05.037Z</time></trkpt><trkpt lat="43.4236705" lon="12.9660658"><ele>491.0</ele><time>2026-04-25T09:47:06.038Z</time></trkpt><trkpt lat="43.4237944" lon="12.9660842"><ele>491.0</ele><time>2026-04-25T09:47:07.038Z</time></trkpt><trkpt lat="43.4239452" lon="12.9660911"><ele>491.0</ele><time>2026-04-25T09:47:08.038Z</time></trkpt><trkpt lat="43.424135" lon="12.9660915"><ele>492.66666666666663</ele><time>2026-04-25T09:47:09.038Z</time></trkpt><trkpt lat="43.4243491" lon="12.9660809"><ele>494.33333333333337</ele><time>2026-04-25T09:47:10.037Z</time></trkpt><trkpt lat="43.4245377" lon="12.9660724"><ele>496.0</ele><time>2026-04-25T09:47:11.038Z</time></trkpt><trkpt lat="43.4247114" lon="12.966077"><ele>498.0</ele><time>2026-04-25T09:47:12.037Z</time></trkpt><trkpt lat="43.4248768" lon="12.9661006"><ele>500.0</ele><time>2026-04-25T09:47:13.038Z</time></trkpt><trkpt lat="43.4250109" lon="12.9661402"><ele>502.0</ele><time>2026-04-25T09:47:14.039Z</time></trkpt><trkpt lat="43.4251208" lon="12.9661985"><ele>504.0</ele><time>2026-04-25T09:47:15.038Z</time></trkpt><trkpt lat="43.4252233" lon="12.9662777"><ele>504.0</ele><time>2026-04-25T09:47:16.038Z</time></trkpt><trkpt lat="43.4253289" lon="12.9663669"><ele>504.0</ele><time>2026-04-25T09:47:17.037Z</time></trkpt><trkpt lat="43.4254114" lon="12.9664223"><ele>504.0</ele><time>2026-04-25T09:47:18.037Z</time></trkpt><trkpt lat="43.4254887" lon="12.9664398"><ele>504.0</ele><time>2026-04-25T09:47:19.037Z</time></trkpt><trkpt lat="43.4255786" lon="12.9664273"><ele>504.0</ele><time>2026-04-25T09:47:20.037Z</time></trkpt><trkpt lat="43.4256769" lon="12.9663743"><ele>504.75</ele><time>2026-04-25T09:47:21.039Z</time></trkpt><trkpt lat="43.4257784" lon="12.9662994"><ele>505.5</ele><time>2026-04-25T09:47:22.039Z</time></trkpt><trkpt lat="43.4258889" lon="12.966225"><ele>506.25</ele><time>2026-04-25T09:47:23.037Z</time></trkpt><trkpt lat="43.4260268" lon="12.9661642"><ele>507.0</ele><time>2026-04-25T09:47:24.037Z</time></trkpt><trkpt lat="43.4261933" lon="12.9661198"><ele>511.0</ele><time>2026-04-25T09:47:25.038Z</time></trkpt><trkpt lat="43.4263953" lon="12.9660805"><ele>515.0</ele><time>2026-04-25T09:47:26.037Z</time></trkpt><trkpt lat="43.4265994" lon="12.966046"><ele>519.0</ele><time>2026-04-25T09:47:27.039Z</time></trkpt><trkpt lat="43.4267741" lon="12.9660122"><ele>519.0</ele><time>2026-04-25T09:47:28.038Z</time></trkpt><trkpt lat="43.4269433" lon="12.9659822"><ele>519.0</ele><time>2026-04-25T09:47:29.038Z</time></trkpt><trkpt lat="43.4271027" lon="12.9659559"><ele>519.0</ele><time>2026-04-25T09:47:30.038Z</time></trkpt><trkpt lat="43.4272424" lon="12.9659323"><ele>518.2</ele><time>2026-04-25T09:47:31.038Z</time></trkpt><trkpt lat="43.4273591" lon="12.9659206"><ele>517.4</ele><time>2026-04-25T09:47:32.038Z</time></trkpt><trkpt lat="43.4274565" lon="12.9659311"><ele>516.6</ele><time>2026-04-25T09:47:33.037Z</time></trkpt><trkpt lat="43.4275448" lon="12.9659751"><ele>515.8</ele><time>2026-04-25T09:47:34.039Z</time></trkpt><trkpt lat="43.4276273" lon="12.9660522"><ele>515.0</ele><time>2026-04-25T09:47:35.037Z</time></trkpt><trkpt lat="43.4276946" lon="12.9661717"><ele>515.0</ele><time>2026-04-25T09:47:36.038Z</time></trkpt><trkpt lat="43.4277632" lon="12.9663324"><ele>515.0</ele><time>2026-04-25T09:47:37.037Z</time></trkpt><trkpt lat="43.4278414" lon="12.96655"><ele>515.0</ele><time>2026-04-25T09:47:38.037Z</time></trkpt><trkpt lat="43.4279203" lon="12.9668027"><ele>516.3333333333333</ele><time>2026-04-25T09:47:39.037Z</time></trkpt><trkpt lat="43.4279887" lon="12.9670692"><ele>517.6666666666666</ele><time>2026-04-25T09:47:40.037Z</time></trkpt><trkpt lat="43.4280589" lon="12.9673606"><ele>519.0</ele><time>2026-04-25T09:47:41.037Z</time></trkpt><trkpt lat="43.4281314" lon="12.9676269"><ele>519.0</ele><time>2026-04-25T09:47:42.038Z</time></trkpt><trkpt lat="43.4281913" lon="12.9678388"><ele>519.0</ele><time>2026-04-25T09:47:43.038Z</time></trkpt><trkpt lat="43.428239" lon="12.9680568"><ele>519.0</ele><time>2026-04-25T09:47:44.039Z</time></trkpt><trkpt lat="43.4282759" lon="12.9683081"><ele>526.6666666666666</ele><time>2026-04-25T09:47:45.037Z</time></trkpt><trkpt lat="43.4283102" lon="12.9685556"><ele>534.3333333333333</ele><time>2026-04-25T09:47:46.038Z</time></trkpt><trkpt lat="43.4283704" lon="12.968778"><ele>542.0</ele><time>2026-04-25T09:47:47.038Z</time></trkpt><trkpt lat="43.4284655" lon="12.9690026"><ele>552.3333333333333</ele><time>2026-04-25T09:47:48.038Z</time></trkpt><trkpt lat="43.4285719" lon="12.9692136"><ele>562.6666666666666</ele><time>2026-04-25T09:47:49.039Z</time></trkpt><trkpt lat="43.4286683" lon="12.9694021"><ele>573.0</ele><time>2026-04-25T09:47:50.038Z</time></trkpt><trkpt lat="43.4287485" lon="12.9695813"><ele>567.25</ele><time>2026-04-25T09:47:51.037Z</time></trkpt><trkpt lat="43.4288221" lon="12.9697538"><ele>561.5</ele><time>2026-04-25T09:47:52.037Z</time></trkpt><trkpt lat="43.4288927" lon="12.9699243"><ele>555.75</ele><time>2026-04-25T09:47:53.038Z</time></trkpt><trkpt lat="43.4289659" lon="12.9701002"><ele>550.0</ele><time>2026-04-25T09:47:54.037Z</time></trkpt><trkpt lat="43.4290419" lon="12.9702824"><ele>550.0</ele><time>2026-04-25T09:47:55.038Z</time></trkpt><trkpt lat="43.429115" lon="12.9704702"><ele>550.0</ele><time>2026-04-25T09:47:56.038Z</time></trkpt><trkpt lat="43.4291814" lon="12.9706586"><ele>550.0</ele><time>2026-04-25T09:47:57.039Z</time></trkpt><trkpt lat="43.4292407" lon="12.9708414"><ele>555.5</ele><time>2026-04-25T09:47:58.038Z</time></trkpt><trkpt lat="43.4292924" lon="12.9710158"><ele>561.0</ele><time>2026-04-25T09:47:59.038Z</time></trkpt><trkpt lat="43.4293377" lon="12.9711848"><ele>566.5</ele><time>2026-04-25T09:48:00.037Z</time></trkpt><trkpt lat="43.4293776" lon="12.9713427"><ele>572.0</ele><time>2026-04-25T09:48:01.037Z</time></trkpt><trkpt lat="43.4294172" lon="12.9714805"><ele>572.0</ele><time>2026-04-25T09:48:02.037Z</time></trkpt><trkpt lat="43.429464" lon="12.971607"><ele>572.0</ele><time>2026-04-25T09:48:03.039Z</time></trkpt><trkpt lat="43.4295948" lon="12.9718553"><ele>572.0</ele><time>2026-04-25T09:48:05.037Z</time></trkpt><trkpt lat="43.4296799" lon="12.9719505"><ele>572.0</ele><time>2026-04-25T09:48:06.037Z</time></trkpt><trkpt lat="43.4297818" lon="12.9720196"><ele>572.3333333333333</ele><time>2026-04-25T09:48:07.038Z</time></trkpt><trkpt lat="43.4298822" lon="12.9720699"><ele>572.6666666666666</ele><time>2026-04-25T09:48:08.04Z</time></trkpt><trkpt lat="43.429972" lon="12.9721078"><ele>573.0</ele><time>2026-04-25T09:48:09.038Z</time></trkpt><trkpt lat="43.4300536" lon="12.9721244"><ele>573.3333333333334</ele><time>2026-04-25T09:48:10.039Z</time></trkpt><trkpt lat="43.4301277" lon="12.9721079"><ele>573.6666666666667</ele><time>2026-04-25T09:48:11.038Z</time></trkpt><trkpt lat="43.4301872" lon="12.9720539"><ele>574.0</ele><time>2026-04-25T09:48:12.039Z</time></trkpt><trkpt lat="43.4302332" lon="12.971966"><ele>574.0</ele><time>2026-04-25T09:48:13.038Z</time></trkpt><trkpt lat="43.4302641" lon="12.971821"><ele>574.0</ele><time>2026-04-25T09:48:14.038Z</time></trkpt><trkpt lat="43.4302874" lon="12.9716149"><ele>574.0</ele><time>2026-04-25T09:48:15.039Z</time></trkpt><trkpt lat="43.4303116" lon="12.9713784"><ele>574.0</ele><time>2026-04-25T09:48:16.039Z</time></trkpt><trkpt lat="43.430342" lon="12.9711896"><ele>572.25</ele><time>2026-04-25T09:48:17.039Z</time></trkpt><trkpt lat="43.43038" lon="12.9710419"><ele>570.5</ele><time>2026-04-25T09:48:18.039Z</time></trkpt><trkpt lat="43.4304314" lon="12.9709151"><ele>568.75</ele><time>2026-04-25T09:48:19.039Z</time></trkpt><trkpt lat="43.4305075" lon="12.9708009"><ele>567.0</ele><time>2026-04-25T09:48:20.04Z</time></trkpt><trkpt lat="43.4306231" lon="12.970679"><ele>567.0</ele><time>2026-04-25T09:48:21.038Z</time></trkpt><trkpt lat="43.4307723" lon="12.9705398"><ele>567.0</ele><time>2026-04-25T09:48:22.039Z</time></trkpt><trkpt lat="43.4309144" lon="12.9703783"><ele>567.0</ele><time>2026-04-25T09:48:23.038Z</time></trkpt><trkpt lat="43.4310293" lon="12.9701894"><ele>573.6666666666666</ele><time>2026-04-25T09:48:24.038Z</time></trkpt><trkpt lat="43.431142" lon="12.9699653"><ele>580.3333333333333</ele><time>2026-04-25T09:48:25.038Z</time></trkpt><trkpt lat="43.4312628" lon="12.9696894"><ele>587.0</ele><time>2026-04-25T09:48:26.039Z</time></trkpt><trkpt lat="43.431383" lon="12.9694165"><ele>581.0</ele><time>2026-04-25T09:48:27.038Z</time></trkpt><trkpt lat="43.4314928" lon="12.9691828"><ele>575.0</ele><time>2026-04-25T09:48:28.038Z</time></trkpt><trkpt lat="43.431591" lon="12.9689609"><ele>569.0</ele><time>2026-04-25T09:48:29.039Z</time></trkpt><trkpt lat="43.4316801" lon="12.9687203"><ele>569.0</ele><time>2026-04-25T09:48:30.038Z</time></trkpt><trkpt lat="43.4317572" lon="12.9684859"><ele>569.0</ele><time>2026-04-25T09:48:31.038Z</time></trkpt><trkpt lat="43.4318215" lon="12.9682691"><ele>569.0</ele><time>2026-04-25T09:48:32.039Z</time></trkpt><trkpt lat="43.4318819" lon="12.9680498"><ele>565.8</ele><time>2026-04-25T09:48:33.038Z</time></trkpt><trkpt lat="43.4319253" lon="12.9678658"><ele>562.5999999999999</ele><time>2026-04-25T09:48:34.038Z</time></trkpt><trkpt lat="43.4319528" lon="12.9677209"><ele>559.4</ele><time>2026-04-25T09:48:35.04Z</time></trkpt><trkpt lat="43.4319802" lon="12.967593"><ele>556.1999999999999</ele><time>2026-04-25T09:48:36.039Z</time></trkpt><trkpt lat="43.4320085" lon="12.9674894"><ele>553.0</ele><time>2026-04-25T09:48:37.038Z</time></trkpt><trkpt lat="43.4320884" lon="12.9673889"><ele>554.6</ele><time>2026-04-25T09:48:39.039Z</time></trkpt><trkpt lat="43.4321766" lon="12.9674246"><ele>556.1999999999999</ele><time>2026-04-25T09:48:41.038Z</time></trkpt><trkpt lat="43.4322222" lon="12.9675059"><ele>557.8</ele><time>2026-04-25T09:48:42.038Z</time></trkpt><trkpt lat="43.432277" lon="12.9676352"><ele>559.4</ele><time>2026-04-25T09:48:43.038Z</time></trkpt><trkpt lat="43.4323521" lon="12.9677938"><ele>561.0</ele><time>2026-04-25T09:48:44.039Z</time></trkpt><trkpt lat="43.4324186" lon="12.9679276"><ele>565.75</ele><time>2026-04-25T09:48:45.039Z</time></trkpt><trkpt lat="43.4324677" lon="12.9680398"><ele>570.5</ele><time>2026-04-25T09:48:46.04Z</time></trkpt><trkpt lat="43.4325222" lon="12.9681646"><ele>575.25</ele><time>2026-04-25T09:48:47.038Z</time></trkpt><trkpt lat="43.4325887" lon="12.9683132"><ele>580.0</ele><time>2026-04-25T09:48:48.038Z</time></trkpt><trkpt lat="43.4326761" lon="12.968502"><ele>585.0</ele><time>2026-04-25T09:48:49.038Z</time></trkpt><trkpt lat="43.4327842" lon="12.9687394"><ele>590.0</ele><time>2026-04-25T09:48:50.039Z</time></trkpt><trkpt lat="43.4329091" lon="12.9690023"><ele>595.0</ele><time>2026-04-25T09:48:51.039Z</time></trkpt><trkpt lat="43.4330465" lon="12.9692865"><ele>595.0</ele><time>2026-04-25T09:48:52.039Z</time></trkpt><trkpt lat="43.4331863" lon="12.9695827"><ele>595.0</ele><time>2026-04-25T09:48:53.038Z</time></trkpt><trkpt lat="43.4333048" lon="12.9698356"><ele>602.6666666666667</ele><time>2026-04-25T09:48:54.039Z</time></trkpt><trkpt lat="43.4334113" lon="12.970065"><ele>610.3333333333334</ele><time>2026-04-25T09:48:55.038Z</time></trkpt><trkpt lat="43.433512" lon="12.9703127"><ele>618.0</ele><time>2026-04-25T09:48:56.039Z</time></trkpt><trkpt lat="43.4335969" lon="12.9705671"><ele>618.0</ele><time>2026-04-25T09:48:57.04Z</time></trkpt><trkpt lat="43.4336662" lon="12.9708168"><ele>618.0</ele><time>2026-04-25T09:48:58.038Z</time></trkpt><trkpt lat="43.4337391" lon="12.9710556"><ele>618.0</ele><time>2026-04-25T09:48:59.039Z</time></trkpt><trkpt lat="43.4338424" lon="12.9713126"><ele>623.0</ele><time>2026-04-25T09:49:00.039Z</time></trkpt><trkpt lat="43.4339802" lon="12.9715927"><ele>628.0</ele><time>2026-04-25T09:49:01.039Z</time></trkpt><trkpt lat="43.4341236" lon="12.9718555"><ele>628.0</ele><time>2026-04-25T09:49:02.038Z</time></trkpt><trkpt lat="43.4342536" lon="12.9720701"><ele>628.0</ele><time>2026-04-25T09:49:03.038Z</time></trkpt><trkpt lat="43.4343832" lon="12.9722677"><ele>628.0</ele><time>2026-04-25T09:49:04.04Z</time></trkpt><trkpt lat="43.4345044" lon="12.9724564"><ele>622.5</ele><time>2026-04-25T09:49:05.039Z</time></trkpt><trkpt lat="43.4345934" lon="12.9726145"><ele>617.0</ele><time>2026-04-25T09:49:06.039Z</time></trkpt><trkpt lat="43.4346528" lon="12.9727578"><ele>611.5</ele><time>2026-04-25T09:49:07.038Z</time></trkpt><trkpt lat="43.4346922" lon="12.972917"><ele>606.0</ele><time>2026-04-25T09:49:08.039Z</time></trkpt><trkpt lat="43.4347156" lon="12.9731176"><ele>606.0</ele><time>2026-04-25T09:49:09.038Z</time></trkpt><trkpt lat="43.4347365" lon="12.9733274"><ele>606.0</ele><time>2026-04-25T09:49:10.038Z</time></trkpt><trkpt lat="43.434776" lon="12.9735122"><ele>606.0</ele><time>2026-04-25T09:49:11.039Z</time></trkpt><trkpt lat="43.4348421" lon="12.973711"><ele>615.0</ele><time>2026-04-25T09:49:12.038Z</time></trkpt><trkpt lat="43.4349174" lon="12.9739069"><ele>624.0</ele><time>2026-04-25T09:49:13.039Z</time></trkpt><trkpt lat="43.4349724" lon="12.974057"><ele>633.0</ele><time>2026-04-25T09:49:14.038Z</time></trkpt><trkpt lat="43.4350975" lon="12.9742441"><ele>633.0</ele><time>2026-04-25T09:49:16.039Z</time></trkpt><trkpt lat="43.4351712" lon="12.9742608"><ele>633.0</ele><time>2026-04-25T09:49:17.039Z</time></trkpt><trkpt lat="43.4352613" lon="12.9742277"><ele>633.0</ele><time>2026-04-25T09:49:18.038Z</time></trkpt><trkpt lat="43.4353733" lon="12.974167"><ele>633.0</ele><time>2026-04-25T09:49:19.039Z</time></trkpt><trkpt lat="43.4354762" lon="12.9741392"><ele>633.0</ele><time>2026-04-25T09:49:20.039Z</time></trkpt><trkpt lat="43.4355762" lon="12.9741624"><ele>641.0</ele><time>2026-04-25T09:49:21.038Z</time></trkpt><trkpt lat="43.4357049" lon="12.9742201"><ele>649.0</ele><time>2026-04-25T09:49:22.038Z</time></trkpt><trkpt lat="43.4358517" lon="12.9743114"><ele>657.0</ele><time>2026-04-25T09:49:23.038Z</time></trkpt><trkpt lat="43.436009" lon="12.9744425"><ele>657.0</ele><time>2026-04-25T09:49:24.038Z</time></trkpt><trkpt lat="43.436145" lon="12.9745777"><ele>657.0</ele><time>2026-04-25T09:49:25.038Z</time></trkpt><trkpt lat="43.4362522" lon="12.9746753"><ele>657.0</ele><time>2026-04-25T09:49:26.039Z</time></trkpt><trkpt lat="43.4363419" lon="12.9747309"><ele>657.0</ele><time>2026-04-25T09:49:27.039Z</time></trkpt><trkpt lat="43.4364317" lon="12.9747535"><ele>656.5</ele><time>2026-04-25T09:49:28.04Z</time></trkpt><trkpt lat="43.4365262" lon="12.974734"><ele>656.0</ele><time>2026-04-25T09:49:29.038Z</time></trkpt><trkpt lat="43.436613" lon="12.9746766"><ele>655.5</ele><time>2026-04-25T09:49:30.038Z</time></trkpt><trkpt lat="43.436714" lon="12.9745649"><ele>655.0</ele><time>2026-04-25T09:49:31.039Z</time></trkpt><trkpt lat="43.4368147" lon="12.9744386"><ele>655.0</ele><time>2026-04-25T09:49:32.038Z</time></trkpt><trkpt lat="43.4369096" lon="12.9743538"><ele>655.0</ele><time>2026-04-25T09:49:33.04Z</time></trkpt><trkpt lat="43.4370109" lon="12.9743146"><ele>655.0</ele><time>2026-04-25T09:49:34.039Z</time></trkpt><trkpt lat="43.4371184" lon="12.9743095"><ele>655.0</ele><time>2026-04-25T09:49:35.039Z</time></trkpt><trkpt lat="43.4372298" lon="12.9743521"><ele>655.0</ele><time>2026-04-25T09:49:36.039Z</time></trkpt><trkpt lat="43.4373522" lon="12.9744362"><ele>653.6666666666667</ele><time>2026-04-25T09:49:37.038Z</time></trkpt><trkpt lat="43.437504" lon="12.9745779"><ele>652.3333333333334</ele><time>2026-04-25T09:49:38.038Z</time></trkpt><trkpt lat="43.4376644" lon="12.9747481"><ele>651.0</ele><time>2026-04-25T09:49:39.038Z</time></trkpt><trkpt lat="43.4378053" lon="12.9748982"><ele>651.0</ele><time>2026-04-25T09:49:40.039Z</time></trkpt><trkpt lat="43.4379063" lon="12.9749746"><ele>651.0</ele><time>2026-04-25T09:49:41.039Z</time></trkpt><trkpt lat="43.438" lon="12.9750104"><ele>651.0</ele><time>2026-04-25T09:49:42.039Z</time></trkpt><trkpt lat="43.4381214" lon="12.9750146"><ele>651.0</ele><time>2026-04-25T09:49:43.039Z</time></trkpt><trkpt lat="43.438288" lon="12.9749909"><ele>646.3333333333334</ele><time>2026-04-25T09:49:44.039Z</time></trkpt><trkpt lat="43.4384915" lon="12.9749591"><ele>641.6666666666667</ele><time>2026-04-25T09:49:45.039Z</time></trkpt><trkpt lat="43.4386695" lon="12.9749256"><ele>637.0</ele><time>2026-04-25T09:49:46.039Z</time></trkpt><trkpt lat="43.4388134" lon="12.9748995"><ele>637.0</ele><time>2026-04-25T09:49:47.039Z</time></trkpt><trkpt lat="43.4389447" lon="12.9749017"><ele>637.0</ele><time>2026-04-25T09:49:48.038Z</time></trkpt><trkpt lat="43.4390837" lon="12.9749315"><ele>637.0</ele><time>2026-04-25T09:49:49.038Z</time></trkpt><trkpt lat="43.4392811" lon="12.9750203"><ele>650.0</ele><time>2026-04-25T09:49:50.039Z</time></trkpt><trkpt lat="43.4395104" lon="12.9751169"><ele>663.0</ele><time>2026-04-25T09:49:51.038Z</time></trkpt><trkpt lat="43.4397292" lon="12.9752015"><ele>663.0</ele><time>2026-04-25T09:49:52.038Z</time></trkpt><trkpt lat="43.4399232" lon="12.9752668"><ele>663.0</ele><time>2026-04-25T09:49:53.038Z</time></trkpt><trkpt lat="43.4401268" lon="12.9753252"><ele>663.0</ele><time>2026-04-25T09:49:54.038Z</time></trkpt><trkpt lat="43.44034" lon="12.9753689"><ele>660.0</ele><time>2026-04-25T09:49:55.038Z</time></trkpt><trkpt lat="43.4405393" lon="12.9753903"><ele>657.0</ele><time>2026-04-25T09:49:56.038Z</time></trkpt><trkpt lat="43.4407323" lon="12.9754001"><ele>654.0</ele><time>2026-04-25T09:49:57.038Z</time></trkpt><trkpt lat="43.440923" lon="12.9754"><ele>654.0</ele><time>2026-04-25T09:49:58.039Z</time></trkpt><trkpt lat="43.441093" lon="12.9753861"><ele>654.0</ele><time>2026-04-25T09:49:59.039Z</time></trkpt><trkpt lat="43.4412343" lon="12.9753626"><ele>654.0</ele><time>2026-04-25T09:50:00.039Z</time></trkpt><trkpt lat="43.4413524" lon="12.9753362"><ele>654.0</ele><time>2026-04-25T09:50:01.038Z</time></trkpt><trkpt lat="43.4414507" lon="12.9753008"><ele>653.4000000000001</ele><time>2026-04-25T09:50:02.039Z</time></trkpt><trkpt lat="43.4415239" lon="12.9752427"><ele>652.8</ele><time>2026-04-25T09:50:03.038Z</time></trkpt><trkpt lat="43.4415702" lon="12.9751598"><ele>652.2</ele><time>2026-04-25T09:50:04.038Z</time></trkpt><trkpt lat="43.4415953" lon="12.9750624"><ele>651.5999999999999</ele><time>2026-04-25T09:50:05.038Z</time></trkpt><trkpt lat="43.441581" lon="12.9749124"><ele>651.0</ele><time>2026-04-25T09:50:06.038Z</time></trkpt><trkpt lat="43.4415496" lon="12.9747189"><ele>649.0</ele><time>2026-04-25T09:50:07.038Z</time></trkpt><trkpt lat="43.4415339" lon="12.97456"><ele>647.0</ele><time>2026-04-25T09:50:08.038Z</time></trkpt><trkpt lat="43.4415373" lon="12.9744557"><ele>645.0</ele><time>2026-04-25T09:50:09.038Z</time></trkpt><trkpt lat="43.4416044" lon="12.9743208"><ele>643.0</ele><time>2026-04-25T09:50:11.038Z</time></trkpt><trkpt lat="43.4416749" lon="12.9742801"><ele>641.0</ele><time>2026-04-25T09:50:12.039Z</time></trkpt><trkpt lat="43.4417912" lon="12.9742419"><ele>641.0</ele><time>2026-04-25T09:50:13.038Z</time></trkpt><trkpt lat="43.441916" lon="12.9741998"><ele>641.0</ele><time>2026-04-25T09:50:14.039Z</time></trkpt><trkpt lat="43.4420872" lon="12.9741417"><ele>641.0</ele><time>2026-04-25T09:50:15.039Z</time></trkpt><trkpt lat="43.4422425" lon="12.9740862"><ele>639.25</ele><time>2026-04-25T09:50:16.038Z</time></trkpt><trkpt lat="43.4423851" lon="12.9740335"><ele>637.5</ele><time>2026-04-25T09:50:17.039Z</time></trkpt><trkpt lat="43.4425229" lon="12.9739854"><ele>635.75</ele><time>2026-04-25T09:50:18.038Z</time></trkpt><trkpt lat="43.4426533" lon="12.9739416"><ele>634.0</ele><time>2026-04-25T09:50:19.039Z</time></trkpt><trkpt lat="43.4427752" lon="12.9739002"><ele>634.0</ele><time>2026-04-25T09:50:20.04Z</time></trkpt><trkpt lat="43.4428897" lon="12.9738616"><ele>634.0</ele><time>2026-04-25T09:50:21.039Z</time></trkpt><trkpt lat="43.4429958" lon="12.9738261"><ele>634.0</ele><time>2026-04-25T09:50:22.038Z</time></trkpt><trkpt lat="43.4430875" lon="12.9737961"><ele>634.0</ele><time>2026-04-25T09:50:23.039Z</time></trkpt><trkpt lat="43.4431639" lon="12.9737737"><ele>634.0</ele><time>2026-04-25T09:50:24.039Z</time></trkpt><trkpt lat="43.4432477" lon="12.9737575"><ele>633.8</ele><time>2026-04-25T09:50:26.04Z</time></trkpt><trkpt lat="43.4433093" lon="12.9738818"><ele>633.5999999999999</ele><time>2026-04-25T09:50:35.039Z</time></trkpt><trkpt lat="43.4433493" lon="12.9739682"><ele>633.4</ele><time>2026-04-25T09:50:36.038Z</time></trkpt><trkpt lat="43.4434124" lon="12.9740706"><ele>633.1999999999999</ele><time>2026-04-25T09:50:37.039Z</time></trkpt><trkpt lat="43.4434957" lon="12.9742242"><ele>633.0</ele><time>2026-04-25T09:50:38.039Z</time></trkpt><trkpt lat="43.4435953" lon="12.9744264"><ele>635.0</ele><time>2026-04-25T09:50:39.038Z</time></trkpt><trkpt lat="43.4436993" lon="12.9746534"><ele>637.0</ele><time>2026-04-25T09:50:40.039Z</time></trkpt><trkpt lat="43.443791" lon="12.9748673"><ele>639.0</ele><time>2026-04-25T09:50:41.039Z</time></trkpt><trkpt lat="43.4438671" lon="12.9750559"><ele>639.0</ele><time>2026-04-25T09:50:42.038Z</time></trkpt><trkpt lat="43.4439349" lon="12.9752288"><ele>639.0</ele><time>2026-04-25T09:50:43.038Z</time></trkpt><trkpt lat="43.4439866" lon="12.9753675"><ele>639.0</ele><time>2026-04-25T09:50:44.039Z</time></trkpt><trkpt lat="43.4440197" lon="12.975469"><ele>639.0</ele><time>2026-04-25T09:50:45.038Z</time></trkpt><trkpt lat="43.4440313" lon="12.9755642"><ele>639.0</ele><time>2026-04-25T09:50:46.038Z</time></trkpt><trkpt lat="43.444006" lon="12.9756877"><ele>639.0</ele><time>2026-04-25T09:50:47.039Z</time></trkpt><trkpt lat="43.4439407" lon="12.9758453"><ele>639.0</ele><time>2026-04-25T09:50:48.038Z</time></trkpt><trkpt lat="43.4438493" lon="12.9760425"><ele>639.0</ele><time>2026-04-25T09:50:49.038Z</time></trkpt><trkpt lat="43.443742" lon="12.9762754"><ele>642.0</ele><time>2026-04-25T09:50:50.039Z</time></trkpt><trkpt lat="43.4436195" lon="12.9765396"><ele>645.0</ele><time>2026-04-25T09:50:51.039Z</time></trkpt><trkpt lat="43.443501" lon="12.9767909"><ele>648.0</ele><time>2026-04-25T09:50:52.038Z</time></trkpt><trkpt lat="43.4434099" lon="12.9769755"><ele>649.0</ele><time>2026-04-25T09:50:53.039Z</time></trkpt><trkpt lat="43.4433391" lon="12.9770908"><ele>650.0</ele><time>2026-04-25T09:50:54.038Z</time></trkpt><trkpt lat="43.4432675" lon="12.97715"><ele>651.0</ele><time>2026-04-25T09:50:55.038Z</time></trkpt><trkpt lat="43.443166" lon="12.977162"><ele>652.0</ele><time>2026-04-25T09:50:56.039Z</time></trkpt><trkpt lat="43.4430442" lon="12.977145"><ele>653.0</ele><time>2026-04-25T09:50:57.038Z</time></trkpt><trkpt lat="43.4428644" lon="12.9771098"><ele>658.6666666666666</ele><time>2026-04-25T09:50:58.038Z</time></trkpt><trkpt lat="43.442689" lon="12.9770706"><ele>664.3333333333334</ele><time>2026-04-25T09:50:59.039Z</time></trkpt><trkpt lat="43.4425404" lon="12.9770324"><ele>670.0</ele><time>2026-04-25T09:51:00.039Z</time></trkpt><trkpt lat="43.4423954" lon="12.9769966"><ele>670.0</ele><time>2026-04-25T09:51:01.039Z</time></trkpt><trkpt lat="43.4422474" lon="12.9769691"><ele>670.0</ele><time>2026-04-25T09:51:02.039Z</time></trkpt><trkpt lat="43.4421007" lon="12.9769475"><ele>670.0</ele><time>2026-04-25T09:51:03.038Z</time></trkpt><trkpt lat="43.4419384" lon="12.9769165"><ele>673.6666666666667</ele><time>2026-04-25T09:51:04.038Z</time></trkpt><trkpt lat="43.44177" lon="12.9768801"><ele>677.3333333333334</ele><time>2026-04-25T09:51:05.039Z</time></trkpt><trkpt lat="43.4416066" lon="12.9768484"><ele>681.0</ele><time>2026-04-25T09:51:06.039Z</time></trkpt><trkpt lat="43.4414663" lon="12.9768224"><ele>681.0</ele><time>2026-04-25T09:51:07.038Z</time></trkpt><trkpt lat="43.4413534" lon="12.9767995"><ele>681.0</ele><time>2026-04-25T09:51:08.038Z</time></trkpt><trkpt lat="43.4412531" lon="12.9767807"><ele>681.0</ele><time>2026-04-25T09:51:09.039Z</time></trkpt><trkpt lat="43.4411544" lon="12.9767658"><ele>681.0</ele><time>2026-04-25T09:51:10.039Z</time></trkpt><trkpt lat="43.4410632" lon="12.9767634"><ele>681.0</ele><time>2026-04-25T09:51:11.039Z</time></trkpt><trkpt lat="43.4409954" lon="12.9767843"><ele>684.25</ele><time>2026-04-25T09:51:12.04Z</time></trkpt><trkpt lat="43.4409959" lon="12.9769874"><ele>687.5</ele><time>2026-04-25T09:51:15.04Z</time></trkpt><trkpt lat="43.4410744" lon="12.9770959"><ele>690.75</ele><time>2026-04-25T09:51:16.039Z</time></trkpt><trkpt lat="43.4411717" lon="12.9772361"><ele>694.0</ele><time>2026-04-25T09:51:17.04Z</time></trkpt><trkpt lat="43.4412733" lon="12.9773951"><ele>694.6666666666667</ele><time>2026-04-25T09:51:18.038Z</time></trkpt><trkpt lat="43.4413785" lon="12.9775696"><ele>695.3333333333334</ele><time>2026-04-25T09:51:19.039Z</time></trkpt><trkpt lat="43.4414597" lon="12.9777448"><ele>696.0</ele><time>2026-04-25T09:51:20.039Z</time></trkpt><trkpt lat="43.4415149" lon="12.9779334"><ele>696.0</ele><time>2026-04-25T09:51:21.04Z</time></trkpt><trkpt lat="43.4415458" lon="12.9781254"><ele>696.0</ele><time>2026-04-25T09:51:22.038Z</time></trkpt><trkpt lat="43.4415529" lon="12.9783373"><ele>696.0</ele><time>2026-04-25T09:51:23.038Z</time></trkpt><trkpt lat="43.4415419" lon="12.9785584"><ele>698.3333333333334</ele><time>2026-04-25T09:51:24.039Z</time></trkpt><trkpt lat="43.4415217" lon="12.9787997"><ele>700.6666666666667</ele><time>2026-04-25T09:51:25.039Z</time></trkpt><trkpt lat="43.4415057" lon="12.9790591"><ele>703.0</ele><time>2026-04-25T09:51:26.038Z</time></trkpt><trkpt lat="43.441499" lon="12.9793295"><ele>706.6666666666667</ele><time>2026-04-25T09:51:27.039Z</time></trkpt><trkpt lat="43.4415096" lon="12.9796099"><ele>710.3333333333334</ele><time>2026-04-25T09:51:28.039Z</time></trkpt><trkpt lat="43.4415243" lon="12.9798864"><ele>714.0</ele><time>2026-04-25T09:51:29.039Z</time></trkpt><trkpt lat="43.4415426" lon="12.9801551"><ele>718.0</ele><time>2026-04-25T09:51:30.038Z</time></trkpt><trkpt lat="43.4415608" lon="12.9804022"><ele>722.0</ele><time>2026-04-25T09:51:31.038Z</time></trkpt><trkpt lat="43.4415816" lon="12.9806455"><ele>726.0</ele><time>2026-04-25T09:51:32.039Z</time></trkpt><trkpt lat="43.4416035" lon="12.9808673"><ele>729.3333333333334</ele><time>2026-04-25T09:51:33.038Z</time></trkpt><trkpt lat="43.4416348" lon="12.9810753"><ele>732.6666666666667</ele><time>2026-04-25T09:51:34.039Z</time></trkpt><trkpt lat="43.4416775" lon="12.9812758"><ele>736.0</ele><time>2026-04-25T09:51:35.039Z</time></trkpt><trkpt lat="43.4417314" lon="12.9814723"><ele>736.0</ele><time>2026-04-25T09:51:36.038Z</time></trkpt><trkpt lat="43.4417786" lon="12.9816497"><ele>736.0</ele><time>2026-04-25T09:51:37.039Z</time></trkpt><trkpt lat="43.4418172" lon="12.9818102"><ele>736.0</ele><time>2026-04-25T09:51:38.038Z</time></trkpt><trkpt lat="43.441844" lon="12.9819685"><ele>736.0</ele><time>2026-04-25T09:51:39.039Z</time></trkpt><trkpt lat="43.4418528" lon="12.9821251"><ele>736.4</ele><time>2026-04-25T09:51:40.039Z</time></trkpt><trkpt lat="43.4418419" lon="12.9822658"><ele>736.8</ele><time>2026-04-25T09:51:41.038Z</time></trkpt><trkpt lat="43.4418147" lon="12.9823688"><ele>737.1999999999999</ele><time>2026-04-25T09:51:42.038Z</time></trkpt><trkpt lat="43.441725" lon="12.9824544"><ele>737.5999999999999</ele><time>2026-04-25T09:51:44.039Z</time></trkpt><trkpt lat="43.4416208" lon="12.98234"><ele>738.0</ele><time>2026-04-25T09:51:46.038Z</time></trkpt><trkpt lat="43.4415543" lon="12.9821872"><ele>738.0</ele><time>2026-04-25T09:51:47.039Z</time></trkpt><trkpt lat="43.4414586" lon="12.9819772"><ele>738.0</ele><time>2026-04-25T09:51:48.039Z</time></trkpt><trkpt lat="43.4413426" lon="12.9817557"><ele>738.0</ele><time>2026-04-25T09:51:49.038Z</time></trkpt><trkpt lat="43.4412263" lon="12.9815576"><ele>744.0</ele><time>2026-04-25T09:51:50.038Z</time></trkpt><trkpt lat="43.4411066" lon="12.9813641"><ele>750.0</ele><time>2026-04-25T09:51:51.039Z</time></trkpt><trkpt lat="43.440976" lon="12.9811653"><ele>756.0</ele><time>2026-04-25T09:51:52.039Z</time></trkpt><trkpt lat="43.4408293" lon="12.980964"><ele>754.6666666666666</ele><time>2026-04-25T09:51:53.039Z</time></trkpt><trkpt lat="43.4406875" lon="12.9807818"><ele>753.3333333333333</ele><time>2026-04-25T09:51:54.039Z</time></trkpt><trkpt lat="43.4405698" lon="12.9806336"><ele>752.0</ele><time>2026-04-25T09:51:55.038Z</time></trkpt><trkpt lat="43.4404665" lon="12.9805007"><ele>753.8</ele><time>2026-04-25T09:51:56.038Z</time></trkpt><trkpt lat="43.4403738" lon="12.9803788"><ele>755.6</ele><time>2026-04-25T09:51:57.038Z</time></trkpt><trkpt lat="43.4402923" lon="12.9802729"><ele>757.4</ele><time>2026-04-25T09:51:58.039Z</time></trkpt><trkpt lat="43.4402178" lon="12.9801819"><ele>759.1999999999999</ele><time>2026-04-25T09:51:59.038Z</time></trkpt><trkpt lat="43.4401367" lon="12.9800923"><ele>761.0</ele><time>2026-04-25T09:52:00.04Z</time></trkpt><trkpt lat="43.4400403" lon="12.9800027"><ele>761.0</ele><time>2026-04-25T09:52:01.039Z</time></trkpt><trkpt lat="43.4399267" lon="12.9799275"><ele>761.0</ele><time>2026-04-25T09:52:02.039Z</time></trkpt><trkpt lat="43.4397847" lon="12.9798681"><ele>761.0</ele><time>2026-04-25T09:52:03.039Z</time></trkpt><trkpt lat="43.4396373" lon="12.9798239"><ele>761.0</ele><time>2026-04-25T09:52:04.039Z</time></trkpt><trkpt lat="43.4395155" lon="12.979788"><ele>763.1666666666666</ele><time>2026-04-25T09:52:05.039Z</time></trkpt><trkpt lat="43.4394189" lon="12.9797589"><ele>765.3333333333333</ele><time>2026-04-25T09:52:06.04Z</time></trkpt><trkpt lat="43.4393436" lon="12.979737"><ele>767.5</ele><time>2026-04-25T09:52:07.039Z</time></trkpt><trkpt lat="43.4392801" lon="12.9797271"><ele>769.6666666666666</ele><time>2026-04-25T09:52:08.04Z</time></trkpt><trkpt lat="43.4391657" lon="12.9797409"><ele>771.8333333333334</ele><time>2026-04-25T09:52:10.039Z</time></trkpt><trkpt lat="43.4390928" lon="12.9796737"><ele>774.0</ele><time>2026-04-25T09:52:12.038Z</time></trkpt><trkpt lat="43.4390208" lon="12.9795408"><ele>774.0</ele><time>2026-04-25T09:52:14.039Z</time></trkpt><trkpt lat="43.4389551" lon="12.9794192"><ele>774.0</ele><time>2026-04-25T09:52:16.039Z</time></trkpt><trkpt lat="43.4388902" lon="12.9793134"><ele>774.0</ele><time>2026-04-25T09:52:18.04Z</time></trkpt><trkpt lat="43.4388103" lon="12.9791881"><ele>774.0</ele><time>2026-04-25T09:52:20.038Z</time></trkpt><trkpt lat="43.4387684" lon="12.9791172"><ele>774.0</ele><time>2026-04-25T09:52:21.039Z</time></trkpt><trkpt lat="43.4387239" lon="12.9790471"><ele>773.0</ele><time>2026-04-25T09:52:22.039Z</time></trkpt><trkpt lat="43.4386824" lon="12.9789817"><ele>772.0</ele><time>2026-04-25T09:52:23.04Z</time></trkpt><trkpt lat="43.4386032" lon="12.9788631"><ele>771.0</ele><time>2026-04-25T09:52:25.039Z</time></trkpt><trkpt lat="43.4385204" lon="12.9787604"><ele>770.0</ele><time>2026-04-25T09:52:27.039Z</time></trkpt><trkpt lat="43.4384205" lon="12.9786684"><ele>769.0</ele><time>2026-04-25T09:52:29.038Z</time></trkpt><trkpt lat="43.4383558" lon="12.978623"><ele>768.9999999999999</ele><time>2026-04-25T09:52:30.038Z</time></trkpt><trkpt lat="43.438276" lon="12.9785771"><ele>769.0</ele><time>2026-04-25T09:52:31.039Z</time></trkpt><trkpt lat="43.4382015" lon="12.9785356"><ele>769.0</ele><time>2026-04-25T09:52:32.039Z</time></trkpt><trkpt lat="43.4381289" lon="12.9784873"><ele>769.0</ele><time>2026-04-25T09:52:33.039Z</time></trkpt><trkpt lat="43.4380564" lon="12.9784286"><ele>768.9999999999999</ele><time>2026-04-25T09:52:34.038Z</time></trkpt><trkpt lat="43.4379909" lon="12.9783696"><ele>769.0</ele><time>2026-04-25T09:52:35.04Z</time></trkpt><trkpt lat="43.4379259" lon="12.9783137"><ele>767.8571428571428</ele><time>2026-04-25T09:52:36.039Z</time></trkpt><trkpt lat="43.4378654" lon="12.9782572"><ele>766.7142857142858</ele><time>2026-04-25T09:52:37.04Z</time></trkpt><trkpt lat="43.437802" lon="12.9781998"><ele>765.5714285714286</ele><time>2026-04-25T09:52:38.039Z</time></trkpt><trkpt lat="43.437742" lon="12.9781374"><ele>764.4285714285713</ele><time>2026-04-25T09:52:39.039Z</time></trkpt><trkpt lat="43.4376795" lon="12.9780705"><ele>763.2857142857142</ele><time>2026-04-25T09:52:40.038Z</time></trkpt><trkpt lat="43.4376213" lon="12.9780086"><ele>762.1428571428571</ele><time>2026-04-25T09:52:41.038Z</time></trkpt><trkpt lat="43.4375675" lon="12.9779608"><ele>761.0</ele><time>2026-04-25T09:52:42.039Z</time></trkpt><trkpt lat="43.437513" lon="12.9779076"><ele>761.0</ele><time>2026-04-25T09:52:43.038Z</time></trkpt><trkpt lat="43.4374572" lon="12.9778513"><ele>761.0</ele><time>2026-04-25T09:52:44.038Z</time></trkpt><trkpt lat="43.4373998" lon="12.9778153"><ele>761.0</ele><time>2026-04-25T09:52:45.038Z</time></trkpt><trkpt lat="43.4373388" lon="12.9777865"><ele>761.0</ele><time>2026-04-25T09:52:46.038Z</time></trkpt><trkpt lat="43.4372746" lon="12.9777613"><ele>761.0</ele><time>2026-04-25T09:52:47.039Z</time></trkpt><trkpt lat="43.4371455" lon="12.9777317"><ele>761.0</ele><time>2026-04-25T09:52:49.039Z</time></trkpt><trkpt lat="43.4370744" lon="12.9777307"><ele>760.5999999999999</ele><time>2026-04-25T09:52:50.038Z</time></trkpt><trkpt lat="43.436965" lon="12.9777142"><ele>760.2</ele><time>2026-04-25T09:52:52.038Z</time></trkpt><trkpt lat="43.4368864" lon="12.9776959"><ele>759.8</ele><time>2026-04-25T09:52:54.038Z</time></trkpt><trkpt lat="43.4368234" lon="12.9776996"><ele>759.4000000000001</ele><time>2026-04-25T09:52:56.038Z</time></trkpt><trkpt lat="43.4367278" lon="12.9777464"><ele>759.0</ele><time>2026-04-25T09:52:58.039Z</time></trkpt><trkpt lat="43.436636" lon="12.9778302"><ele>759.0</ele><time>2026-04-25T09:53:00.039Z</time></trkpt><trkpt lat="43.4365952" lon="12.9779"><ele>759.0</ele><time>2026-04-25T09:53:01.039Z</time></trkpt><trkpt lat="43.4365554" lon="12.9779767"><ele>759.0</ele><time>2026-04-25T09:53:02.039Z</time></trkpt><trkpt lat="43.4365267" lon="12.9780561"><ele>759.0</ele><time>2026-04-25T09:53:03.039Z</time></trkpt><trkpt lat="43.4364798" lon="12.9782031"><ele>759.0</ele><time>2026-04-25T09:53:05.039Z</time></trkpt><trkpt lat="43.4363673" lon="12.9783918"><ele>762.2</ele><time>2026-04-25T09:53:08.039Z</time></trkpt><trkpt lat="43.436326" lon="12.9784576"><ele>765.4000000000001</ele><time>2026-04-25T09:53:09.039Z</time></trkpt><trkpt lat="43.4362482" lon="12.9785842"><ele>768.6</ele><time>2026-04-25T09:53:11.039Z</time></trkpt><trkpt lat="43.4361798" lon="12.9787126"><ele>771.8</ele><time>2026-04-25T09:53:13.039Z</time></trkpt><trkpt lat="43.4361257" lon="12.9788316"><ele>775.0</ele><time>2026-04-25T09:53:15.039Z</time></trkpt><trkpt lat="43.4361065" lon="12.978954"><ele>775.0</ele><time>2026-04-25T09:53:17.038Z</time></trkpt><trkpt lat="43.4361225" lon="12.9790381"><ele>775.0</ele><time>2026-04-25T09:53:22.039Z</time></trkpt><trkpt lat="43.4361791" lon="12.9789769"><ele>775.0</ele><time>2026-04-25T09:53:25.038Z</time></trkpt><trkpt lat="43.4362626" lon="12.9788707"><ele>775.0</ele><time>2026-04-25T09:53:27.039Z</time></trkpt><trkpt lat="43.4363725" lon="12.978809"><ele>775.0</ele><time>2026-04-25T09:53:29.039Z</time></trkpt><trkpt lat="43.4364802" lon="12.9787762"><ele>775.0</ele><time>2026-04-25T09:53:31.038Z</time></trkpt><trkpt lat="43.436588" lon="12.9787344"><ele>775.0</ele><time>2026-04-25T09:53:33.039Z</time></trkpt><trkpt lat="43.4367061" lon="12.9787192"><ele>775.0</ele><time>2026-04-25T09:53:35.039Z</time></trkpt><trkpt lat="43.4368159" lon="12.9787151"><ele>775.0</ele><time>2026-04-25T09:53:37.039Z</time></trkpt><trkpt lat="43.43692" lon="12.9787293"><ele>775.0</ele><time>2026-04-25T09:53:39.039Z</time></trkpt><trkpt lat="43.4370261" lon="12.9787762"><ele>775.6666666666666</ele><time>2026-04-25T09:53:41.038Z</time></trkpt><trkpt lat="43.4371418" lon="12.9788374"><ele>776.3333333333333</ele><time>2026-04-25T09:53:43.039Z</time></trkpt><trkpt lat="43.4372607" lon="12.9788982"><ele>777.0</ele><time>2026-04-25T09:53:45.038Z</time></trkpt><trkpt lat="43.4373216" lon="12.9789375"><ele>777.6666666666667</ele><time>2026-04-25T09:53:46.039Z</time></trkpt><trkpt lat="43.4373795" lon="12.9789763"><ele>778.3333333333334</ele><time>2026-04-25T09:53:47.04Z</time></trkpt><trkpt lat="43.437437" lon="12.9790178"><ele>779.0</ele><time>2026-04-25T09:53:48.038Z</time></trkpt><trkpt lat="43.4374934" lon="12.9790589"><ele>779.0000000000001</ele><time>2026-04-25T09:53:49.038Z</time></trkpt><trkpt lat="43.4375755" lon="12.9791133"><ele>779.0</ele><time>2026-04-25T09:53:51.038Z</time></trkpt><trkpt lat="43.4376394" lon="12.979156"><ele>779.0</ele><time>2026-04-25T09:53:53.039Z</time></trkpt><trkpt lat="43.4376732" lon="12.9792434"><ele>779.0</ele><time>2026-04-25T09:53:56.038Z</time></trkpt><trkpt lat="43.4376078" lon="12.9793104"><ele>779.0000000000001</ele><time>2026-04-25T09:53:59.039Z</time></trkpt><trkpt lat="43.4375249" lon="12.9793243"><ele>779.0</ele><time>2026-04-25T09:54:00.038Z</time></trkpt><trkpt lat="43.4374543" lon="12.9793322"><ele>780.0000000000001</ele><time>2026-04-25T09:54:01.038Z</time></trkpt><trkpt lat="43.4373766" lon="12.9793413"><ele>781.0</ele><time>2026-04-25T09:54:02.038Z</time></trkpt><trkpt lat="43.4373025" lon="12.9793519"><ele>782.0</ele><time>2026-04-25T09:54:03.038Z</time></trkpt><trkpt lat="43.4372247" lon="12.9793723"><ele>783.0</ele><time>2026-04-25T09:54:04.038Z</time></trkpt><trkpt lat="43.4371423" lon="12.9793947"><ele>784.0000000000001</ele><time>2026-04-25T09:54:05.039Z</time></trkpt><trkpt lat="43.4370659" lon="12.9794246"><ele>785.0</ele><time>2026-04-25T09:54:06.039Z</time></trkpt><trkpt lat="43.4369919" lon="12.9794601"><ele>785.0000000000001</ele><time>2026-04-25T09:54:07.039Z</time></trkpt><trkpt lat="43.4369341" lon="12.9794991"><ele>785.0</ele><time>2026-04-25T09:54:08.038Z</time></trkpt><trkpt lat="43.4368774" lon="12.9795372"><ele>785.0</ele><time>2026-04-25T09:54:09.039Z</time></trkpt><trkpt lat="43.4367982" lon="12.9796154"><ele>785.0</ele><time>2026-04-25T09:54:11.038Z</time></trkpt><trkpt lat="43.4367487" lon="12.9796696"><ele>785.0000000000001</ele><time>2026-04-25T09:54:12.039Z</time></trkpt><trkpt lat="43.4366719" lon="12.9798626"><ele>785.0</ele><time>2026-04-25T09:54:15.04Z</time></trkpt><trkpt lat="43.4366412" lon="12.980002"><ele>785.6666666666667</ele><time>2026-04-25T09:54:17.038Z</time></trkpt><trkpt lat="43.4366219" lon="12.9801624"><ele>786.3333333333334</ele><time>2026-04-25T09:54:19.038Z</time></trkpt><trkpt lat="43.4366225" lon="12.980284"><ele>787.0</ele><time>2026-04-25T09:54:21.039Z</time></trkpt><trkpt lat="43.4366999" lon="12.9803437"><ele>787.6666666666667</ele><time>2026-04-25T09:54:24.038Z</time></trkpt><trkpt lat="43.4367759" lon="12.9802779"><ele>788.3333333333334</ele><time>2026-04-25T09:54:26.038Z</time></trkpt><trkpt lat="43.4368314" lon="12.9802362"><ele>789.0</ele><time>2026-04-25T09:54:27.039Z</time></trkpt><trkpt lat="43.4368842" lon="12.980185"><ele>789.0</ele><time>2026-04-25T09:54:28.038Z</time></trkpt><trkpt lat="43.4369982" lon="12.9801412"><ele>789.0</ele><time>2026-04-25T09:54:30.038Z</time></trkpt><trkpt lat="43.4371174" lon="12.9801602"><ele>789.0</ele><time>2026-04-25T09:54:32.038Z</time></trkpt><trkpt lat="43.4371862" lon="12.9802021"><ele>789.0</ele><time>2026-04-25T09:54:33.038Z</time></trkpt><trkpt lat="43.4372597" lon="12.9802596"><ele>789.0</ele><time>2026-04-25T09:54:34.038Z</time></trkpt><trkpt lat="43.4373289" lon="12.9803177"><ele>791.5</ele><time>2026-04-25T09:54:35.038Z</time></trkpt><trkpt lat="43.4373905" lon="12.9803691"><ele>794.0</ele><time>2026-04-25T09:54:36.038Z</time></trkpt><trkpt lat="43.4374417" lon="12.9804474"><ele>796.5</ele><time>2026-04-25T09:54:39.038Z</time></trkpt><trkpt lat="43.4373888" lon="12.9805101"><ele>799.0</ele><time>2026-04-25T09:54:42.039Z</time></trkpt><trkpt lat="43.4373058" lon="12.9805683"><ele>801.5</ele><time>2026-04-25T09:54:44.038Z</time></trkpt><trkpt lat="43.4372123" lon="12.9806797"><ele>804.0</ele><time>2026-04-25T09:54:46.039Z</time></trkpt><trkpt lat="43.4371685" lon="12.9807454"><ele>801.2</ele><time>2026-04-25T09:54:47.039Z</time></trkpt><trkpt lat="43.4371283" lon="12.9808204"><ele>798.4000000000001</ele><time>2026-04-25T09:54:48.04Z</time></trkpt><trkpt lat="43.4371039" lon="12.9809055"><ele>795.6</ele><time>2026-04-25T09:54:49.039Z</time></trkpt><trkpt lat="43.4370737" lon="12.9810723"><ele>792.8</ele><time>2026-04-25T09:54:51.039Z</time></trkpt><trkpt lat="43.4370584" lon="12.9812229"><ele>790.0</ele><time>2026-04-25T09:54:53.038Z</time></trkpt><trkpt lat="43.4370504" lon="12.9813478"><ele>790.0</ele><time>2026-04-25T09:54:55.038Z</time></trkpt><trkpt lat="43.4370613" lon="12.9814612"><ele>790.0</ele><time>2026-04-25T09:54:57.038Z</time></trkpt><trkpt lat="43.4370965" lon="12.9815868"><ele>790.0</ele><time>2026-04-25T09:54:59.04Z</time></trkpt><trkpt lat="43.4371626" lon="12.981754"><ele>790.0</ele><time>2026-04-25T09:55:01.039Z</time></trkpt><trkpt lat="43.4372004" lon="12.9818469"><ele>790.0</ele><time>2026-04-25T09:55:02.039Z</time></trkpt><trkpt lat="43.4372362" lon="12.9819398"><ele>795.2</ele><time>2026-04-25T09:55:03.039Z</time></trkpt><trkpt lat="43.4373002" lon="12.9820805"><ele>800.4</ele><time>2026-04-25T09:55:05.038Z</time></trkpt><trkpt lat="43.4373629" lon="12.9822183"><ele>805.5999999999999</ele><time>2026-04-25T09:55:07.039Z</time></trkpt><trkpt lat="43.4374052" lon="12.9822878"><ele>810.8</ele><time>2026-04-25T09:55:08.038Z</time></trkpt><trkpt lat="43.4374866" lon="12.9824126"><ele>816.0</ele><time>2026-04-25T09:55:10.038Z</time></trkpt><trkpt lat="43.4375462" lon="12.9824878"><ele>815.8333333333334</ele><time>2026-04-25T09:55:13.039Z</time></trkpt><trkpt lat="43.4375689" lon="12.9826129"><ele>815.6666666666667</ele><time>2026-04-25T09:55:16.038Z</time></trkpt><trkpt lat="43.4375703" lon="12.9827257"><ele>815.5</ele><time>2026-04-25T09:55:18.039Z</time></trkpt><trkpt lat="43.4375728" lon="12.9828314"><ele>815.3333333333334</ele><time>2026-04-25T09:55:22.038Z</time></trkpt><trkpt lat="43.437586" lon="12.9829456"><ele>815.1666666666667</ele><time>2026-04-25T09:55:25.038Z</time></trkpt><trkpt lat="43.4375993" lon="12.983069"><ele>815.0</ele><time>2026-04-25T09:55:28.039Z</time></trkpt><trkpt lat="43.4376097" lon="12.9831829"><ele>815.0000000000001</ele><time>2026-04-25T09:55:31.039Z</time></trkpt><trkpt lat="43.4376445" lon="12.9832621"><ele>815.0</ele><time>2026-04-25T09:55:34.038Z</time></trkpt><trkpt lat="43.4376963" lon="12.9833739"><ele>815.0</ele><time>2026-04-25T09:55:37.039Z</time></trkpt><trkpt lat="43.4377349" lon="12.9834426"><ele>815.0</ele><time>2026-04-25T09:55:39.038Z</time></trkpt><trkpt lat="43.4377809" lon="12.983564"><ele>815.0000000000001</ele><time>2026-04-25T09:55:42.039Z</time></trkpt><trkpt lat="43.437858" lon="12.9836741"><ele>815.0</ele><time>2026-04-25T09:55:44.039Z</time></trkpt><trkpt lat="43.4379384" lon="12.9837737"><ele>815.1666666666667</ele><time>2026-04-25T09:55:46.038Z</time></trkpt><trkpt lat="43.4380108" lon="12.9838601"><ele>815.3333333333334</ele><time>2026-04-25T09:55:48.039Z</time></trkpt><trkpt lat="43.4380792" lon="12.9839564"><ele>815.5</ele><time>2026-04-25T09:55:50.038Z</time></trkpt><trkpt lat="43.4381469" lon="12.9840399"><ele>815.6666666666667</ele><time>2026-04-25T09:55:52.039Z</time></trkpt><trkpt lat="43.4382156" lon="12.9841276"><ele>815.8333333333334</ele><time>2026-04-25T09:55:55.039Z</time></trkpt><trkpt lat="43.4382748" lon="12.9841763"><ele>816.0</ele><time>2026-04-25T09:55:57.039Z</time></trkpt><trkpt lat="43.4383449" lon="12.9841945"><ele>816.5</ele><time>2026-04-25T09:55:59.039Z</time></trkpt><trkpt lat="43.4384218" lon="12.9841521"><ele>817.0</ele><time>2026-04-25T09:56:01.038Z</time></trkpt><trkpt lat="43.4384894" lon="12.9841007"><ele>817.5</ele><time>2026-04-25T09:56:03.038Z</time></trkpt><trkpt lat="43.4385948" lon="12.9841107"><ele>818.0</ele><time>2026-04-25T09:56:06.039Z</time></trkpt><trkpt lat="43.4386537" lon="12.9841563"><ele>818.5</ele><time>2026-04-25T09:56:07.04Z</time></trkpt><trkpt lat="43.4387522" lon="12.9841777"><ele>819.0</ele><time>2026-04-25T09:56:09.039Z</time></trkpt><trkpt lat="43.4388682" lon="12.984205"><ele>819.0</ele><time>2026-04-25T09:56:11.039Z</time></trkpt><trkpt lat="43.4389421" lon="12.9842282"><ele>819.0</ele><time>2026-04-25T09:56:12.039Z</time></trkpt><trkpt lat="43.4390166" lon="12.9842508"><ele>819.0</ele><time>2026-04-25T09:56:13.039Z</time></trkpt><trkpt lat="43.4390811" lon="12.9842653"><ele>819.0</ele><time>2026-04-25T09:56:14.04Z</time></trkpt><trkpt lat="43.4391532" lon="12.9843051"><ele>819.0</ele><time>2026-04-25T09:56:16.039Z</time></trkpt><trkpt lat="43.4391952" lon="12.9843742"><ele>819.0</ele><time>2026-04-25T09:56:18.039Z</time></trkpt><trkpt lat="43.4392001" lon="12.9845327"><ele>819.0</ele><time>2026-04-25T09:56:20.038Z</time></trkpt><trkpt lat="43.4392022" lon="12.9846952"><ele>819.0</ele><time>2026-04-25T09:56:21.039Z</time></trkpt><trkpt lat="43.4392057" lon="12.9849325"><ele>819.0</ele><time>2026-04-25T09:56:22.039Z</time></trkpt><trkpt lat="43.4392101" lon="12.9852187"><ele>819.0</ele><time>2026-04-25T09:56:23.038Z</time></trkpt><trkpt lat="43.4392096" lon="12.9854653"><ele>819.0</ele><time>2026-04-25T09:56:24.038Z</time></trkpt><trkpt lat="43.4391938" lon="12.9856994"><ele>819.0</ele><time>2026-04-25T09:56:25.039Z</time></trkpt><trkpt lat="43.4391656" lon="12.9859401"><ele>818.5</ele><time>2026-04-25T09:56:26.039Z</time></trkpt><trkpt lat="43.4391348" lon="12.9861546"><ele>818.0</ele><time>2026-04-25T09:56:27.039Z</time></trkpt><trkpt lat="43.4391046" lon="12.9863222"><ele>817.5</ele><time>2026-04-25T09:56:28.038Z</time></trkpt><trkpt lat="43.4390762" lon="12.9864797"><ele>817.0</ele><time>2026-04-25T09:56:29.039Z</time></trkpt><trkpt lat="43.4390452" lon="12.9866272"><ele>816.2</ele><time>2026-04-25T09:56:30.039Z</time></trkpt><trkpt lat="43.4390161" lon="12.9867671"><ele>815.4000000000001</ele><time>2026-04-25T09:56:31.04Z</time></trkpt><trkpt lat="43.4389754" lon="12.9869043"><ele>814.5999999999999</ele><time>2026-04-25T09:56:32.039Z</time></trkpt><trkpt lat="43.4389222" lon="12.9870433"><ele>813.8</ele><time>2026-04-25T09:56:33.039Z</time></trkpt><trkpt lat="43.4388553" lon="12.9871721"><ele>813.0</ele><time>2026-04-25T09:56:34.038Z</time></trkpt><trkpt lat="43.4387723" lon="12.9872703"><ele>813.0</ele><time>2026-04-25T09:56:35.04Z</time></trkpt><trkpt lat="43.4386728" lon="12.9873457"><ele>813.0</ele><time>2026-04-25T09:56:36.038Z</time></trkpt><trkpt lat="43.4385623" lon="12.9874061"><ele>813.0</ele><time>2026-04-25T09:56:37.039Z</time></trkpt><trkpt lat="43.4384806" lon="12.9874893"><ele>813.0</ele><time>2026-04-25T09:56:38.038Z</time></trkpt><trkpt lat="43.4383309" lon="12.9878428"><ele>812.6666666666667</ele><time>2026-04-25T09:56:40.039Z</time></trkpt><trkpt lat="43.4382468" lon="12.988088"><ele>812.3333333333334</ele><time>2026-04-25T09:56:41.039Z</time></trkpt><trkpt lat="43.438177" lon="12.9883093"><ele>812.0</ele><time>2026-04-25T09:56:42.038Z</time></trkpt><trkpt lat="43.4381263" lon="12.9885195"><ele>811.3333333333334</ele><time>2026-04-25T09:56:43.038Z</time></trkpt><trkpt lat="43.4380877" lon="12.9887565"><ele>810.6666666666667</ele><time>2026-04-25T09:56:44.039Z</time></trkpt><trkpt lat="43.4380601" lon="12.9889985"><ele>810.0</ele><time>2026-04-25T09:56:45.04Z</time></trkpt><trkpt lat="43.4380392" lon="12.9892203"><ele>810.0</ele><time>2026-04-25T09:56:46.039Z</time></trkpt><trkpt lat="43.4380126" lon="12.9894176"><ele>810.0</ele><time>2026-04-25T09:56:47.038Z</time></trkpt><trkpt lat="43.4379739" lon="12.9896151"><ele>810.0</ele><time>2026-04-25T09:56:48.039Z</time></trkpt><trkpt lat="43.437925" lon="12.9898162"><ele>810.0</ele><time>2026-04-25T09:56:49.039Z</time></trkpt><trkpt lat="43.4378694" lon="12.9900134"><ele>810.0</ele><time>2026-04-25T09:56:50.039Z</time></trkpt><trkpt lat="43.4378037" lon="12.9901864"><ele>810.0</ele><time>2026-04-25T09:56:51.038Z</time></trkpt><trkpt lat="43.4377348" lon="12.99033"><ele>810.0</ele><time>2026-04-25T09:56:52.038Z</time></trkpt><trkpt lat="43.4376738" lon="12.9904732"><ele>810.0</ele><time>2026-04-25T09:56:53.039Z</time></trkpt><trkpt lat="43.4376276" lon="12.9906518"><ele>810.0</ele><time>2026-04-25T09:56:54.039Z</time></trkpt><trkpt lat="43.4375981" lon="12.9908381"><ele>810.0</ele><time>2026-04-25T09:56:55.039Z</time></trkpt><trkpt lat="43.4375823" lon="12.9910283"><ele>810.0</ele><time>2026-04-25T09:56:56.038Z</time></trkpt><trkpt lat="43.4375851" lon="12.991258"><ele>810.0</ele><time>2026-04-25T09:56:57.038Z</time></trkpt><trkpt lat="43.4376038" lon="12.9914807"><ele>807.6666666666667</ele><time>2026-04-25T09:56:58.039Z</time></trkpt><trkpt lat="43.4376673" lon="12.9918427"><ele>805.3333333333334</ele><time>2026-04-25T09:57:00.038Z</time></trkpt><trkpt lat="43.4377142" lon="12.992014"><ele>803.0</ele><time>2026-04-25T09:57:01.039Z</time></trkpt><trkpt lat="43.4377694" lon="12.9921871"><ele>803.0</ele><time>2026-04-25T09:57:02.039Z</time></trkpt><trkpt lat="43.4378309" lon="12.9923424"><ele>803.0</ele><time>2026-04-25T09:57:03.039Z</time></trkpt><trkpt lat="43.4378973" lon="12.9924836"><ele>803.0</ele><time>2026-04-25T09:57:04.038Z</time></trkpt><trkpt lat="43.4379677" lon="12.9926114"><ele>803.0</ele><time>2026-04-25T09:57:05.038Z</time></trkpt><trkpt lat="43.438041" lon="12.9927316"><ele>807.0</ele><time>2026-04-25T09:57:06.039Z</time></trkpt><trkpt lat="43.4381114" lon="12.9928474"><ele>811.0</ele><time>2026-04-25T09:57:07.038Z</time></trkpt><trkpt lat="43.4381734" lon="12.9929518"><ele>815.0</ele><time>2026-04-25T09:57:08.039Z</time></trkpt><trkpt lat="43.4382301" lon="12.9930424"><ele>819.0</ele><time>2026-04-25T09:57:09.038Z</time></trkpt><trkpt lat="43.4382908" lon="12.9931227"><ele>823.0</ele><time>2026-04-25T09:57:10.039Z</time></trkpt><trkpt lat="43.4383545" lon="12.9931813"><ele>823.0</ele><time>2026-04-25T09:57:11.039Z</time></trkpt><trkpt lat="43.4384178" lon="12.9932235"><ele>823.0</ele><time>2026-04-25T09:57:12.039Z</time></trkpt><trkpt lat="43.4384836" lon="12.9932592"><ele>823.0</ele><time>2026-04-25T09:57:13.039Z</time></trkpt><trkpt lat="43.438549" lon="12.9932966"><ele>823.0</ele><time>2026-04-25T09:57:14.039Z</time></trkpt><trkpt lat="43.4386111" lon="12.9933477"><ele>823.0</ele><time>2026-04-25T09:57:15.039Z</time></trkpt><trkpt lat="43.4386703" lon="12.993412"><ele>823.0</ele><time>2026-04-25T09:57:16.039Z</time></trkpt><trkpt lat="43.4387316" lon="12.993483"><ele>823.0</ele><time>2026-04-25T09:57:17.039Z</time></trkpt><trkpt lat="43.4387958" lon="12.9935529"><ele>823.3333333333333</ele><time>2026-04-25T09:57:18.039Z</time></trkpt><trkpt lat="43.4388607" lon="12.9936172"><ele>823.6666666666666</ele><time>2026-04-25T09:57:19.038Z</time></trkpt><trkpt lat="43.4389216" lon="12.9936877"><ele>824.0</ele><time>2026-04-25T09:57:20.038Z</time></trkpt><trkpt lat="43.4389742" lon="12.9937695"><ele>824.3333333333333</ele><time>2026-04-25T09:57:21.038Z</time></trkpt><trkpt lat="43.4390213" lon="12.9938624"><ele>824.6666666666666</ele><time>2026-04-25T09:57:22.039Z</time></trkpt><trkpt lat="43.4390701" lon="12.9939515"><ele>825.0</ele><time>2026-04-25T09:57:23.038Z</time></trkpt><trkpt lat="43.4391232" lon="12.99403"><ele>825.0</ele><time>2026-04-25T09:57:24.038Z</time></trkpt><trkpt lat="43.4391844" lon="12.9941018"><ele>825.0</ele><time>2026-04-25T09:57:25.038Z</time></trkpt><trkpt lat="43.4392533" lon="12.9941762"><ele>825.0</ele><time>2026-04-25T09:57:26.038Z</time></trkpt><trkpt lat="43.4393221" lon="12.9942577"><ele>825.0</ele><time>2026-04-25T09:57:27.038Z</time></trkpt><trkpt lat="43.4393892" lon="12.9943458"><ele>825.0</ele><time>2026-04-25T09:57:28.038Z</time></trkpt><trkpt lat="43.4394493" lon="12.9944337"><ele>825.0</ele><time>2026-04-25T09:57:29.039Z</time></trkpt><trkpt lat="43.4394997" lon="12.994521"><ele>823.2857142857142</ele><time>2026-04-25T09:57:30.039Z</time></trkpt><trkpt lat="43.4395357" lon="12.9946121"><ele>821.5714285714287</ele><time>2026-04-25T09:57:31.038Z</time></trkpt><trkpt lat="43.4395615" lon="12.9947066"><ele>819.8571428571429</ele><time>2026-04-25T09:57:32.039Z</time></trkpt><trkpt lat="43.4395819" lon="12.9947993"><ele>818.1428571428571</ele><time>2026-04-25T09:57:33.038Z</time></trkpt><trkpt lat="43.4396028" lon="12.9948896"><ele>816.4285714285713</ele><time>2026-04-25T09:57:34.039Z</time></trkpt><trkpt lat="43.4396247" lon="12.9949787"><ele>814.7142857142858</ele><time>2026-04-25T09:57:35.039Z</time></trkpt><trkpt lat="43.4396469" lon="12.995065"><ele>813.0</ele><time>2026-04-25T09:57:36.04Z</time></trkpt><trkpt lat="43.4396693" lon="12.9951506"><ele>810.8333333333334</ele><time>2026-04-25T09:57:37.04Z</time></trkpt><trkpt lat="43.4396926" lon="12.9952386"><ele>808.6666666666667</ele><time>2026-04-25T09:57:38.038Z</time></trkpt><trkpt lat="43.439715" lon="12.9953222"><ele>806.5</ele><time>2026-04-25T09:57:39.038Z</time></trkpt><trkpt lat="43.439761" lon="12.9954803"><ele>804.3333333333334</ele><time>2026-04-25T09:57:41.038Z</time></trkpt><trkpt lat="43.4397882" lon="12.9955611"><ele>802.1666666666667</ele><time>2026-04-25T09:57:42.039Z</time></trkpt><trkpt lat="43.4398211" lon="12.9956418"><ele>800.0</ele><time>2026-04-25T09:57:43.039Z</time></trkpt><trkpt lat="43.4398604" lon="12.9957225"><ele>800.0</ele><time>2026-04-25T09:57:44.039Z</time></trkpt><trkpt lat="43.4399087" lon="12.9958074"><ele>800.0</ele><time>2026-04-25T09:57:45.038Z</time></trkpt><trkpt lat="43.4399786" lon="12.9959045"><ele>800.0</ele><time>2026-04-25T09:57:46.039Z</time></trkpt><trkpt lat="43.4400619" lon="12.9959934"><ele>800.0</ele><time>2026-04-25T09:57:47.038Z</time></trkpt><trkpt lat="43.4401532" lon="12.9960668"><ele>800.0</ele><time>2026-04-25T09:57:48.038Z</time></trkpt><trkpt lat="43.4402486" lon="12.9961246"><ele>797.4</ele><time>2026-04-25T09:57:49.038Z</time></trkpt><trkpt lat="43.4403406" lon="12.9961641"><ele>794.8</ele><time>2026-04-25T09:57:50.039Z</time></trkpt><trkpt lat="43.4404267" lon="12.9961954"><ele>792.2</ele><time>2026-04-25T09:57:51.039Z</time></trkpt><trkpt lat="43.4405058" lon="12.9962333"><ele>789.6</ele><time>2026-04-25T09:57:52.039Z</time></trkpt><trkpt lat="43.4405856" lon="12.9962812"><ele>787.0</ele><time>2026-04-25T09:57:53.039Z</time></trkpt><trkpt lat="43.4406782" lon="12.9963349"><ele>787.0</ele><time>2026-04-25T09:57:54.038Z</time></trkpt><trkpt lat="43.4407807" lon="12.9963812"><ele>787.0</ele><time>2026-04-25T09:57:55.04Z</time></trkpt><trkpt lat="43.4408776" lon="12.9964166"><ele>787.0</ele><time>2026-04-25T09:57:56.039Z</time></trkpt><trkpt lat="43.44097" lon="12.9964443"><ele>787.0</ele><time>2026-04-25T09:57:57.038Z</time></trkpt><trkpt lat="43.4410582" lon="12.9964643"><ele>787.0</ele><time>2026-04-25T09:57:58.038Z</time></trkpt><trkpt lat="43.4411429" lon="12.9964716"><ele>786.9999999999999</ele><time>2026-04-25T09:57:59.038Z</time></trkpt><trkpt lat="43.4412238" lon="12.9964592"><ele>787.0</ele><time>2026-04-25T09:58:00.038Z</time></trkpt><trkpt lat="43.4413023" lon="12.9964357"><ele>787.0</ele><time>2026-04-25T09:58:01.038Z</time></trkpt><trkpt lat="43.441374" lon="12.9964209"><ele>787.0</ele><time>2026-04-25T09:58:02.038Z</time></trkpt><trkpt lat="43.4414422" lon="12.996431"><ele>786.9999999999999</ele><time>2026-04-25T09:58:03.039Z</time></trkpt><trkpt lat="43.4415061" lon="12.9964734"><ele>787.0</ele><time>2026-04-25T09:58:04.038Z</time></trkpt><trkpt lat="43.4415606" lon="12.9965508"><ele>783.75</ele><time>2026-04-25T09:58:05.038Z</time></trkpt><trkpt lat="43.4416069" lon="12.9966718"><ele>780.5</ele><time>2026-04-25T09:58:06.038Z</time></trkpt><trkpt lat="43.4416465" lon="12.9968262"><ele>777.25</ele><time>2026-04-25T09:58:07.038Z</time></trkpt><trkpt lat="43.441675" lon="12.9969886"><ele>774.0</ele><time>2026-04-25T09:58:08.04Z</time></trkpt><trkpt lat="43.4416987" lon="12.9971382"><ele>774.0</ele><time>2026-04-25T09:58:09.04Z</time></trkpt><trkpt lat="43.4417218" lon="12.9972739"><ele>774.0</ele><time>2026-04-25T09:58:10.038Z</time></trkpt><trkpt lat="43.4417458" lon="12.9973992"><ele>774.0</ele><time>2026-04-25T09:58:11.038Z</time></trkpt><trkpt lat="43.4417699" lon="12.9975161"><ele>774.0</ele><time>2026-04-25T09:58:12.038Z</time></trkpt><trkpt lat="43.4417938" lon="12.9976331"><ele>774.0</ele><time>2026-04-25T09:58:13.038Z</time></trkpt><trkpt lat="43.4418148" lon="12.9977565"><ele>774.6666666666666</ele><time>2026-04-25T09:58:14.038Z</time></trkpt><trkpt lat="43.44183" lon="12.9978837"><ele>775.3333333333333</ele><time>2026-04-25T09:58:15.038Z</time></trkpt><trkpt lat="43.4418465" lon="12.9980023"><ele>776.0</ele><time>2026-04-25T09:58:16.04Z</time></trkpt><trkpt lat="43.4418612" lon="12.9981016"><ele>776.6666666666666</ele><time>2026-04-25T09:58:17.038Z</time></trkpt><trkpt lat="43.4418865" lon="12.9982438"><ele>777.3333333333333</ele><time>2026-04-25T09:58:19.038Z</time></trkpt><trkpt lat="43.4419376" lon="12.9983271"><ele>778.0</ele><time>2026-04-25T09:58:21.04Z</time></trkpt><trkpt lat="43.4420099" lon="12.9983889"><ele>778.3333333333333</ele><time>2026-04-25T09:58:23.038Z</time></trkpt><trkpt lat="43.4420918" lon="12.9984513"><ele>778.6666666666666</ele><time>2026-04-25T09:58:25.038Z</time></trkpt><trkpt lat="43.4421658" lon="12.9984909"><ele>779.0</ele><time>2026-04-25T09:58:27.039Z</time></trkpt><trkpt lat="43.4422662" lon="12.998515"><ele>779.3333333333333</ele><time>2026-04-25T09:58:29.039Z</time></trkpt><trkpt lat="43.4423327" lon="12.9985216"><ele>779.6666666666666</ele><time>2026-04-25T09:58:30.038Z</time></trkpt><trkpt lat="43.442408" lon="12.9985236"><ele>780.0</ele><time>2026-04-25T09:58:31.039Z</time></trkpt><trkpt lat="43.4424918" lon="12.9985239"><ele>778.2857142857142</ele><time>2026-04-25T09:58:32.038Z</time></trkpt><trkpt lat="43.4425752" lon="12.9985306"><ele>776.5714285714286</ele><time>2026-04-25T09:58:33.039Z</time></trkpt><trkpt lat="43.4426555" lon="12.9985375"><ele>774.8571428571429</ele><time>2026-04-25T09:58:34.039Z</time></trkpt><trkpt lat="43.442727" lon="12.9985431"><ele>773.1428571428571</ele><time>2026-04-25T09:58:35.038Z</time></trkpt><trkpt lat="43.4427942" lon="12.9985462"><ele>771.4285714285714</ele><time>2026-04-25T09:58:36.038Z</time></trkpt><trkpt lat="43.4428641" lon="12.9985495"><ele>769.7142857142857</ele><time>2026-04-25T09:58:37.04Z</time></trkpt><trkpt lat="43.442937" lon="12.9985506"><ele>768.0</ele><time>2026-04-25T09:58:38.038Z</time></trkpt><trkpt lat="43.4430119" lon="12.9985517"><ele>767.6666666666666</ele><time>2026-04-25T09:58:39.039Z</time></trkpt><trkpt lat="43.4430769" lon="12.9985516"><ele>767.3333333333334</ele><time>2026-04-25T09:58:40.038Z</time></trkpt><trkpt lat="43.4431727" lon="12.9985548"><ele>767.0</ele><time>2026-04-25T09:58:42.039Z</time></trkpt><trkpt lat="43.4432339" lon="12.9986014"><ele>766.6666666666667</ele><time>2026-04-25T10:02:15.039Z</time></trkpt><trkpt lat="43.4431923" lon="12.9986759"><ele>766.3333333333334</ele><time>2026-04-25T10:02:19.04Z</time></trkpt><trkpt lat="43.4430958" lon="12.9986005"><ele>766.0</ele><time>2026-04-25T10:02:21.039Z</time></trkpt><trkpt lat="43.4430309" lon="12.9985685"><ele>766.3333333333334</ele><time>2026-04-25T10:02:22.039Z</time></trkpt><trkpt lat="43.4429574" lon="12.9985518"><ele>766.6666666666667</ele><time>2026-04-25T10:02:23.04Z</time></trkpt><trkpt lat="43.4428826" lon="12.9985453"><ele>767.0</ele><time>2026-04-25T10:02:24.039Z</time></trkpt><trkpt lat="43.4428153" lon="12.998545"><ele>767.3333333333334</ele><time>2026-04-25T10:02:25.039Z</time></trkpt><trkpt lat="43.4426944" lon="12.9985441"><ele>767.6666666666666</ele><time>2026-04-25T10:02:27.041Z</time></trkpt><trkpt lat="43.4425918" lon="12.9985357"><ele>768.0</ele><time>2026-04-25T10:02:29.041Z</time></trkpt><trkpt lat="43.4425146" lon="12.9985323"><ele>768.0</ele><time>2026-04-25T10:02:31.04Z</time></trkpt><trkpt lat="43.4424292" lon="12.9985316"><ele>768.0</ele><time>2026-04-25T10:02:34.039Z</time></trkpt><trkpt lat="43.4423552" lon="12.9985237"><ele>768.0</ele><time>2026-04-25T10:02:36.039Z</time></trkpt><trkpt lat="43.4422772" lon="12.9985017"><ele>768.0</ele><time>2026-04-25T10:02:39.04Z</time></trkpt><trkpt lat="43.4422017" lon="12.9984456"><ele>768.0</ele><time>2026-04-25T10:03:16.039Z</time></trkpt><trkpt lat="43.4421359" lon="12.9984167"><ele>768.0</ele><time>2026-04-25T10:03:17.04Z</time></trkpt><trkpt lat="43.4420752" lon="12.99839"><ele>769.6666666666666</ele><time>2026-04-25T10:03:18.04Z</time></trkpt><trkpt lat="43.4419836" lon="12.9983516"><ele>771.3333333333333</ele><time>2026-04-25T10:03:20.04Z</time></trkpt><trkpt lat="43.4419054" lon="12.9983016"><ele>773.0</ele><time>2026-04-25T10:03:22.04Z</time></trkpt><trkpt lat="43.4418649" lon="12.9982113"><ele>774.6666666666666</ele><time>2026-04-25T10:03:24.039Z</time></trkpt><trkpt lat="43.4418518" lon="12.9980647"><ele>776.3333333333333</ele><time>2026-04-25T10:03:26.039Z</time></trkpt><trkpt lat="43.4418364" lon="12.9979543"><ele>778.0</ele><time>2026-04-25T10:03:27.039Z</time></trkpt><trkpt lat="43.441823" lon="12.9978538"><ele>777.9999999999999</ele><time>2026-04-25T10:03:28.041Z</time></trkpt><trkpt lat="43.4418131" lon="12.9977669"><ele>778.0</ele><time>2026-04-25T10:03:29.04Z</time></trkpt><trkpt lat="43.4417989" lon="12.9976782"><ele>778.0</ele><time>2026-04-25T10:03:30.039Z</time></trkpt><trkpt lat="43.4417772" lon="12.9975667"><ele>778.0</ele><time>2026-04-25T10:03:31.04Z</time></trkpt><trkpt lat="43.4417499" lon="12.9974323"><ele>777.9999999999999</ele><time>2026-04-25T10:03:32.04Z</time></trkpt><trkpt lat="43.4417151" lon="12.9972535"><ele>778.0</ele><time>2026-04-25T10:03:33.039Z</time></trkpt><trkpt lat="43.4416706" lon="12.9970077"><ele>777.8</ele><time>2026-04-25T10:03:34.039Z</time></trkpt><trkpt lat="43.4416328" lon="12.9967848"><ele>777.5999999999999</ele><time>2026-04-25T10:03:35.039Z</time></trkpt><trkpt lat="43.4416046" lon="12.9966483"><ele>777.4000000000001</ele><time>2026-04-25T10:03:36.039Z</time></trkpt><trkpt lat="43.4415693" lon="12.9965574"><ele>777.2</ele><time>2026-04-25T10:03:37.039Z</time></trkpt><trkpt lat="43.4415156" lon="12.9964796"><ele>777.0</ele><time>2026-04-25T10:03:38.039Z</time></trkpt><trkpt lat="43.4414458" lon="12.9964214"><ele>777.0</ele><time>2026-04-25T10:03:39.039Z</time></trkpt><trkpt lat="43.4413732" lon="12.996405"><ele>777.0</ele><time>2026-04-25T10:03:40.039Z</time></trkpt><trkpt lat="43.4412939" lon="12.9964305"><ele>777.0</ele><time>2026-04-25T10:03:41.039Z</time></trkpt><trkpt lat="43.4411971" lon="12.9964609"><ele>777.0</ele><time>2026-04-25T10:03:42.039Z</time></trkpt><trkpt lat="43.4410858" lon="12.9964609"><ele>777.0</ele><time>2026-04-25T10:03:43.04Z</time></trkpt><trkpt lat="43.4409646" lon="12.9964365"><ele>780.3333333333333</ele><time>2026-04-25T10:03:44.039Z</time></trkpt><trkpt lat="43.4408213" lon="12.9963871"><ele>783.6666666666666</ele><time>2026-04-25T10:03:45.039Z</time></trkpt><trkpt lat="43.4406635" lon="12.9963145"><ele>787.0</ele><time>2026-04-25T10:03:46.04Z</time></trkpt><trkpt lat="43.4405072" lon="12.9962278"><ele>785.25</ele><time>2026-04-25T10:03:47.039Z</time></trkpt><trkpt lat="43.4403541" lon="12.9961541"><ele>783.5</ele><time>2026-04-25T10:03:48.039Z</time></trkpt><trkpt lat="43.4402259" lon="12.9960954"><ele>781.75</ele><time>2026-04-25T10:03:49.04Z</time></trkpt><trkpt lat="43.4401166" lon="12.996028"><ele>780.0</ele><time>2026-04-25T10:03:50.04Z</time></trkpt><trkpt lat="43.4400219" lon="12.9959423"><ele>780.0</ele><time>2026-04-25T10:03:51.04Z</time></trkpt><trkpt lat="43.439933" lon="12.9958378"><ele>780.0</ele><time>2026-04-25T10:03:52.04Z</time></trkpt><trkpt lat="43.4398585" lon="12.9957172"><ele>780.0</ele><time>2026-04-25T10:03:53.039Z</time></trkpt><trkpt lat="43.4398002" lon="12.9955846"><ele>780.0</ele><time>2026-04-25T10:03:54.04Z</time></trkpt><trkpt lat="43.4397513" lon="12.9954393"><ele>785.0</ele><time>2026-04-25T10:03:55.04Z</time></trkpt><trkpt lat="43.4397067" lon="12.9952812"><ele>790.0</ele><time>2026-04-25T10:03:56.04Z</time></trkpt><trkpt lat="43.4396644" lon="12.9951169"><ele>795.0</ele><time>2026-04-25T10:03:57.04Z</time></trkpt><trkpt lat="43.4396241" lon="12.9949496"><ele>800.0</ele><time>2026-04-25T10:03:58.04Z</time></trkpt><trkpt lat="43.4395867" lon="12.9947882"><ele>802.6</ele><time>2026-04-25T10:03:59.04Z</time></trkpt><trkpt lat="43.4395527" lon="12.9946492"><ele>805.2</ele><time>2026-04-25T10:04:00.039Z</time></trkpt><trkpt lat="43.4395091" lon="12.9945267"><ele>807.8</ele><time>2026-04-25T10:04:01.039Z</time></trkpt><trkpt lat="43.4394443" lon="12.994409"><ele>810.4</ele><time>2026-04-25T10:04:02.04Z</time></trkpt><trkpt lat="43.439358" lon="12.9942924"><ele>813.0</ele><time>2026-04-25T10:04:03.04Z</time></trkpt><trkpt lat="43.4392678" lon="12.9941855"><ele>815.0</ele><time>2026-04-25T10:04:04.041Z</time></trkpt><trkpt lat="43.4391944" lon="12.9941018"><ele>817.0</ele><time>2026-04-25T10:04:05.04Z</time></trkpt><trkpt lat="43.4391307" lon="12.9940309"><ele>819.0</ele><time>2026-04-25T10:04:06.039Z</time></trkpt><trkpt lat="43.4390689" lon="12.9939499"><ele>821.0</ele><time>2026-04-25T10:04:07.039Z</time></trkpt><trkpt lat="43.4390159" lon="12.9938573"><ele>823.0</ele><time>2026-04-25T10:04:08.04Z</time></trkpt><trkpt lat="43.4389729" lon="12.9937668"><ele>825.0</ele><time>2026-04-25T10:04:09.041Z</time></trkpt><trkpt lat="43.4389314" lon="12.9936863"><ele>825.0</ele><time>2026-04-25T10:04:10.04Z</time></trkpt><trkpt lat="43.438885" lon="12.9936216"><ele>825.0</ele><time>2026-04-25T10:04:11.041Z</time></trkpt><trkpt lat="43.4388073" lon="12.9935531"><ele>825.0</ele><time>2026-04-25T10:04:13.039Z</time></trkpt><trkpt lat="43.4387508" lon="12.9935096"><ele>825.0</ele><time>2026-04-25T10:04:35.04Z</time></trkpt><trkpt lat="43.4386917" lon="12.9934447"><ele>825.0</ele><time>2026-04-25T10:04:37.039Z</time></trkpt><trkpt lat="43.4385885" lon="12.9933302"><ele>825.0</ele><time>2026-04-25T10:04:39.041Z</time></trkpt><trkpt lat="43.4385013" lon="12.9932707"><ele>824.6</ele><time>2026-04-25T10:04:40.039Z</time></trkpt><trkpt lat="43.4384052" lon="12.993212"><ele>824.2</ele><time>2026-04-25T10:04:41.04Z</time></trkpt><trkpt lat="43.4383352" lon="12.9931598"><ele>823.8</ele><time>2026-04-25T10:04:42.039Z</time></trkpt><trkpt lat="43.4382731" lon="12.9930927"><ele>823.4</ele><time>2026-04-25T10:04:43.041Z</time></trkpt><trkpt lat="43.4382024" lon="12.9929906"><ele>823.0</ele><time>2026-04-25T10:04:44.039Z</time></trkpt><trkpt lat="43.4381173" lon="12.9928468"><ele>823.0</ele><time>2026-04-25T10:04:45.039Z</time></trkpt><trkpt lat="43.4380203" lon="12.992676"><ele>823.0</ele><time>2026-04-25T10:04:46.04Z</time></trkpt><trkpt lat="43.4379284" lon="12.9925082"><ele>823.0</ele><time>2026-04-25T10:04:47.04Z</time></trkpt><trkpt lat="43.4378498" lon="12.9923499"><ele>823.0</ele><time>2026-04-25T10:04:48.04Z</time></trkpt><trkpt lat="43.4377818" lon="12.9921941"><ele>819.5</ele><time>2026-04-25T10:04:49.04Z</time></trkpt><trkpt lat="43.4377226" lon="12.9920357"><ele>816.0</ele><time>2026-04-25T10:04:50.04Z</time></trkpt><trkpt lat="43.4376722" lon="12.9918566"><ele>812.5</ele><time>2026-04-25T10:04:51.041Z</time></trkpt><trkpt lat="43.4376354" lon="12.9916599"><ele>809.0</ele><time>2026-04-25T10:04:52.04Z</time></trkpt><trkpt lat="43.4376115" lon="12.9914576"><ele>809.0</ele><time>2026-04-25T10:04:53.04Z</time></trkpt><trkpt lat="43.4375953" lon="12.9912622"><ele>809.0</ele><time>2026-04-25T10:04:54.039Z</time></trkpt><trkpt lat="43.4375867" lon="12.9910738"><ele>809.0</ele><time>2026-04-25T10:04:55.039Z</time></trkpt><trkpt lat="43.4375942" lon="12.9908895"><ele>809.0</ele><time>2026-04-25T10:04:56.039Z</time></trkpt><trkpt lat="43.4376195" lon="12.9907155"><ele>809.25</ele><time>2026-04-25T10:04:57.039Z</time></trkpt><trkpt lat="43.4376633" lon="12.9905471"><ele>809.5</ele><time>2026-04-25T10:04:58.041Z</time></trkpt><trkpt lat="43.4377207" lon="12.990383"><ele>809.75</ele><time>2026-04-25T10:04:59.04Z</time></trkpt><trkpt lat="43.4377871" lon="12.9902333"><ele>810.0</ele><time>2026-04-25T10:05:00.04Z</time></trkpt><trkpt lat="43.4378536" lon="12.9900779"><ele>811.75</ele><time>2026-04-25T10:05:01.039Z</time></trkpt><trkpt lat="43.4379147" lon="12.9898986"><ele>813.5</ele><time>2026-04-25T10:05:02.041Z</time></trkpt><trkpt lat="43.4379661" lon="12.9897041"><ele>815.25</ele><time>2026-04-25T10:05:03.039Z</time></trkpt><trkpt lat="43.4380061" lon="12.9895153"><ele>817.0</ele><time>2026-04-25T10:05:04.039Z</time></trkpt><trkpt lat="43.4380359" lon="12.9893364"><ele>815.25</ele><time>2026-04-25T10:05:05.04Z</time></trkpt><trkpt lat="43.4380546" lon="12.9891574"><ele>813.5</ele><time>2026-04-25T10:05:06.039Z</time></trkpt><trkpt lat="43.438069" lon="12.9889795"><ele>811.75</ele><time>2026-04-25T10:05:07.039Z</time></trkpt><trkpt lat="43.4380842" lon="12.9888122"><ele>810.0</ele><time>2026-04-25T10:05:08.04Z</time></trkpt><trkpt lat="43.4381067" lon="12.9886542"><ele>810.0</ele><time>2026-04-25T10:05:09.039Z</time></trkpt><trkpt lat="43.4381387" lon="12.9884916"><ele>810.0</ele><time>2026-04-25T10:05:10.039Z</time></trkpt><trkpt lat="43.4381788" lon="12.988315"><ele>810.0</ele><time>2026-04-25T10:05:11.04Z</time></trkpt><trkpt lat="43.438226" lon="12.9881382"><ele>810.0</ele><time>2026-04-25T10:05:12.039Z</time></trkpt><trkpt lat="43.4382804" lon="12.9879644"><ele>810.5</ele><time>2026-04-25T10:05:13.04Z</time></trkpt><trkpt lat="43.4383369" lon="12.9878037"><ele>811.0</ele><time>2026-04-25T10:05:14.039Z</time></trkpt><trkpt lat="43.4383924" lon="12.9876565"><ele>811.5</ele><time>2026-04-25T10:05:15.04Z</time></trkpt><trkpt lat="43.438451" lon="12.9875288"><ele>812.0</ele><time>2026-04-25T10:05:16.039Z</time></trkpt><trkpt lat="43.4385189" lon="12.9874252"><ele>812.0</ele><time>2026-04-25T10:05:17.04Z</time></trkpt><trkpt lat="43.4386076" lon="12.9873521"><ele>812.0</ele><time>2026-04-25T10:05:18.039Z</time></trkpt><trkpt lat="43.4387283" lon="12.9872886"><ele>812.0</ele><time>2026-04-25T10:05:19.039Z</time></trkpt><trkpt lat="43.4388363" lon="12.9872032"><ele>812.0</ele><time>2026-04-25T10:05:20.04Z</time></trkpt><trkpt lat="43.4389201" lon="12.9870767"><ele>812.0</ele><time>2026-04-25T10:05:21.04Z</time></trkpt><trkpt lat="43.4389829" lon="12.9869054"><ele>812.0</ele><time>2026-04-25T10:05:22.039Z</time></trkpt><trkpt lat="43.4390266" lon="12.9867429"><ele>812.0</ele><time>2026-04-25T10:05:23.039Z</time></trkpt><trkpt lat="43.4390611" lon="12.9865892"><ele>812.0</ele><time>2026-04-25T10:05:24.041Z</time></trkpt><trkpt lat="43.4390945" lon="12.9864215"><ele>813.25</ele><time>2026-04-25T10:05:25.039Z</time></trkpt><trkpt lat="43.4391259" lon="12.9862498"><ele>814.5</ele><time>2026-04-25T10:05:26.04Z</time></trkpt><trkpt lat="43.4391518" lon="12.9860898"><ele>815.75</ele><time>2026-04-25T10:05:27.04Z</time></trkpt><trkpt lat="43.4391778" lon="12.9859405"><ele>817.0</ele><time>2026-04-25T10:05:28.04Z</time></trkpt><trkpt lat="43.4391992" lon="12.9857995"><ele>817.4000000000001</ele><time>2026-04-25T10:05:29.04Z</time></trkpt><trkpt lat="43.4392119" lon="12.9856656"><ele>817.8000000000001</ele><time>2026-04-25T10:05:30.04Z</time></trkpt><trkpt lat="43.4392174" lon="12.985526"><ele>818.2</ele><time>2026-04-25T10:05:31.041Z</time></trkpt><trkpt lat="43.4392188" lon="12.9853785"><ele>818.6</ele><time>2026-04-25T10:05:32.039Z</time></trkpt><trkpt lat="43.439215" lon="12.985224"><ele>819.0</ele><time>2026-04-25T10:05:33.04Z</time></trkpt><trkpt lat="43.4392109" lon="12.9850682"><ele>819.0</ele><time>2026-04-25T10:05:34.04Z</time></trkpt><trkpt lat="43.4392075" lon="12.9849166"><ele>819.0</ele><time>2026-04-25T10:05:35.039Z</time></trkpt><trkpt lat="43.4392052" lon="12.9847737"><ele>819.0</ele><time>2026-04-25T10:05:36.04Z</time></trkpt><trkpt lat="43.4392038" lon="12.9846363"><ele>819.0</ele><time>2026-04-25T10:05:37.039Z</time></trkpt><trkpt lat="43.4392077" lon="12.9845017"><ele>819.0</ele><time>2026-04-25T10:05:38.04Z</time></trkpt><trkpt lat="43.4392177" lon="12.9843595"><ele>819.0</ele><time>2026-04-25T10:05:39.04Z</time></trkpt><trkpt lat="43.4392318" lon="12.9842179"><ele>819.0</ele><time>2026-04-25T10:05:40.04Z</time></trkpt><trkpt lat="43.4392519" lon="12.984082"><ele>819.0</ele><time>2026-04-25T10:05:41.04Z</time></trkpt><trkpt lat="43.4392772" lon="12.9839527"><ele>819.0</ele><time>2026-04-25T10:05:42.039Z</time></trkpt><trkpt lat="43.4392997" lon="12.9838251"><ele>819.0</ele><time>2026-04-25T10:05:43.04Z</time></trkpt><trkpt lat="43.4393266" lon="12.9836879"><ele>819.0</ele><time>2026-04-25T10:05:44.04Z</time></trkpt><trkpt lat="43.4393546" lon="12.9835383"><ele>819.0</ele><time>2026-04-25T10:05:45.04Z</time></trkpt><trkpt lat="43.4393802" lon="12.9833803"><ele>819.0</ele><time>2026-04-25T10:05:46.04Z</time></trkpt><trkpt lat="43.4394011" lon="12.9832214"><ele>819.0</ele><time>2026-04-25T10:05:47.039Z</time></trkpt><trkpt lat="43.4394168" lon="12.983061"><ele>816.75</ele><time>2026-04-25T10:05:48.04Z</time></trkpt><trkpt lat="43.4394269" lon="12.9828936"><ele>814.5</ele><time>2026-04-25T10:05:49.04Z</time></trkpt><trkpt lat="43.4394306" lon="12.9827107"><ele>812.25</ele><time>2026-04-25T10:05:50.039Z</time></trkpt><trkpt lat="43.4394251" lon="12.9825167"><ele>810.0</ele><time>2026-04-25T10:05:51.039Z</time></trkpt><trkpt lat="43.4394152" lon="12.9823234"><ele>808.5</ele><time>2026-04-25T10:05:52.041Z</time></trkpt><trkpt lat="43.4394059" lon="12.982132"><ele>807.0</ele><time>2026-04-25T10:05:53.04Z</time></trkpt><trkpt lat="43.439396" lon="12.9819445"><ele>805.5</ele><time>2026-04-25T10:05:54.04Z</time></trkpt><trkpt lat="43.4393837" lon="12.9817607"><ele>804.0</ele><time>2026-04-25T10:05:55.039Z</time></trkpt><trkpt lat="43.4393724" lon="12.9815786"><ele>801.0</ele><time>2026-04-25T10:05:56.04Z</time></trkpt><trkpt lat="43.4393618" lon="12.9813972"><ele>798.0</ele><time>2026-04-25T10:05:57.04Z</time></trkpt><trkpt lat="43.4393506" lon="12.9812165"><ele>795.0</ele><time>2026-04-25T10:05:58.039Z</time></trkpt><trkpt lat="43.4393382" lon="12.9810394"><ele>792.0</ele><time>2026-04-25T10:05:59.04Z</time></trkpt><trkpt lat="43.4393258" lon="12.980863"><ele>789.5</ele><time>2026-04-25T10:06:00.04Z</time></trkpt><trkpt lat="43.4393058" lon="12.9806862"><ele>787.0</ele><time>2026-04-25T10:06:01.04Z</time></trkpt><trkpt lat="43.4392752" lon="12.980508"><ele>784.5</ele><time>2026-04-25T10:06:02.039Z</time></trkpt><trkpt lat="43.4392361" lon="12.9803387"><ele>782.0</ele><time>2026-04-25T10:06:03.04Z</time></trkpt><trkpt lat="43.439201" lon="12.9801843"><ele>782.0000000000001</ele><time>2026-04-25T10:06:04.039Z</time></trkpt><trkpt lat="43.4391726" lon="12.9800473"><ele>782.0</ele><time>2026-04-25T10:06:05.04Z</time></trkpt><trkpt lat="43.4391518" lon="12.9799291"><ele>782.0</ele><time>2026-04-25T10:06:06.041Z</time></trkpt><trkpt lat="43.4391482" lon="12.9798367"><ele>782.0</ele><time>2026-04-25T10:06:07.041Z</time></trkpt><trkpt lat="43.4392247" lon="12.979746"><ele>782.0000000000001</ele><time>2026-04-25T10:06:09.04Z</time></trkpt><trkpt lat="43.4393036" lon="12.9797544"><ele>782.0</ele><time>2026-04-25T10:06:10.039Z</time></trkpt><trkpt lat="43.4394045" lon="12.9797861"><ele>779.3333333333334</ele><time>2026-04-25T10:06:11.04Z</time></trkpt><trkpt lat="43.4395405" lon="12.9798214"><ele>776.6666666666667</ele><time>2026-04-25T10:06:12.039Z</time></trkpt><trkpt lat="43.439721" lon="12.9798666"><ele>774.0</ele><time>2026-04-25T10:06:13.039Z</time></trkpt><trkpt lat="43.4398991" lon="12.9799357"><ele>771.6666666666666</ele><time>2026-04-25T10:06:14.041Z</time></trkpt><trkpt lat="43.4400551" lon="12.980033"><ele>769.3333333333333</ele><time>2026-04-25T10:06:15.039Z</time></trkpt><trkpt lat="43.4401885" lon="12.9801603"><ele>767.0</ele><time>2026-04-25T10:06:16.039Z</time></trkpt><trkpt lat="43.4402887" lon="12.9802906"><ele>767.0</ele><time>2026-04-25T10:06:17.039Z</time></trkpt><trkpt lat="43.4403805" lon="12.9804117"><ele>767.0</ele><time>2026-04-25T10:06:18.039Z</time></trkpt><trkpt lat="43.4404783" lon="12.9805341"><ele>767.0</ele><time>2026-04-25T10:06:19.039Z</time></trkpt><trkpt lat="43.4405854" lon="12.980667"><ele>767.0</ele><time>2026-04-25T10:06:20.04Z</time></trkpt><trkpt lat="43.4407083" lon="12.9808238"><ele>763.3333333333333</ele><time>2026-04-25T10:06:21.039Z</time></trkpt><trkpt lat="43.4408505" lon="12.9810072"><ele>759.6666666666666</ele><time>2026-04-25T10:06:22.039Z</time></trkpt><trkpt lat="43.4409838" lon="12.9811944"><ele>756.0</ele><time>2026-04-25T10:06:23.039Z</time></trkpt><trkpt lat="43.4411047" lon="12.9813813"><ele>756.0</ele><time>2026-04-25T10:06:24.04Z</time></trkpt><trkpt lat="43.4412178" lon="12.9815652"><ele>756.0</ele><time>2026-04-25T10:06:25.04Z</time></trkpt><trkpt lat="43.441325" lon="12.9817429"><ele>756.0</ele><time>2026-04-25T10:06:26.039Z</time></trkpt><trkpt lat="43.4414238" lon="12.9819163"><ele>751.5</ele><time>2026-04-25T10:06:27.04Z</time></trkpt><trkpt lat="43.4415051" lon="12.9820749"><ele>747.0</ele><time>2026-04-25T10:06:28.039Z</time></trkpt><trkpt lat="43.4416114" lon="12.9823319"><ele>742.5</ele><time>2026-04-25T10:06:30.04Z</time></trkpt><trkpt lat="43.4416518" lon="12.9824088"><ele>738.0</ele><time>2026-04-25T10:06:31.04Z</time></trkpt><trkpt lat="43.4417575" lon="12.9824523"><ele>738.0</ele><time>2026-04-25T10:06:33.04Z</time></trkpt><trkpt lat="43.4418403" lon="12.9823161"><ele>738.0</ele><time>2026-04-25T10:06:35.039Z</time></trkpt><trkpt lat="43.4418555" lon="12.9821675"><ele>738.0</ele><time>2026-04-25T10:06:36.039Z</time></trkpt><trkpt lat="43.4418458" lon="12.9819721"><ele>738.0</ele><time>2026-04-25T10:06:37.04Z</time></trkpt><trkpt lat="43.441815" lon="12.9817684"><ele>737.3333333333334</ele><time>2026-04-25T10:06:38.039Z</time></trkpt><trkpt lat="43.4417633" lon="12.981554"><ele>736.6666666666667</ele><time>2026-04-25T10:06:39.04Z</time></trkpt><trkpt lat="43.441706" lon="12.9813421"><ele>736.0</ele><time>2026-04-25T10:06:40.039Z</time></trkpt><trkpt lat="43.4416592" lon="12.9811461"><ele>736.0</ele><time>2026-04-25T10:06:41.039Z</time></trkpt><trkpt lat="43.4416238" lon="12.980957"><ele>736.0</ele><time>2026-04-25T10:06:42.04Z</time></trkpt><trkpt lat="43.4415993" lon="12.9807656"><ele>736.0</ele><time>2026-04-25T10:06:43.04Z</time></trkpt><trkpt lat="43.4415806" lon="12.9805739"><ele>736.0</ele><time>2026-04-25T10:06:44.039Z</time></trkpt><trkpt lat="43.4415626" lon="12.9803656"><ele>732.6666666666667</ele><time>2026-04-25T10:06:45.04Z</time></trkpt><trkpt lat="43.4415469" lon="12.9801494"><ele>729.3333333333334</ele><time>2026-04-25T10:06:46.04Z</time></trkpt><trkpt lat="43.4415319" lon="12.9799391"><ele>726.0</ele><time>2026-04-25T10:06:47.039Z</time></trkpt><trkpt lat="43.4415203" lon="12.9797349"><ele>723.0</ele><time>2026-04-25T10:06:48.04Z</time></trkpt><trkpt lat="43.441513" lon="12.9795339"><ele>720.0</ele><time>2026-04-25T10:06:49.04Z</time></trkpt><trkpt lat="43.4415091" lon="12.9793328"><ele>717.0</ele><time>2026-04-25T10:06:50.039Z</time></trkpt><trkpt lat="43.4415092" lon="12.9791329"><ele>714.0</ele><time>2026-04-25T10:06:51.04Z</time></trkpt><trkpt lat="43.4415158" lon="12.9789327"><ele>711.25</ele><time>2026-04-25T10:06:52.039Z</time></trkpt><trkpt lat="43.4415295" lon="12.9787348"><ele>708.5</ele><time>2026-04-25T10:06:53.039Z</time></trkpt><trkpt lat="43.441545" lon="12.9785379"><ele>705.75</ele><time>2026-04-25T10:06:54.04Z</time></trkpt><trkpt lat="43.4415578" lon="12.9783434"><ele>703.0</ele><time>2026-04-25T10:06:55.039Z</time></trkpt><trkpt lat="43.4415573" lon="12.9781489"><ele>701.25</ele><time>2026-04-25T10:06:56.039Z</time></trkpt><trkpt lat="43.4415352" lon="12.9779563"><ele>699.5</ele><time>2026-04-25T10:06:57.04Z</time></trkpt><trkpt lat="43.4414878" lon="12.977776"><ele>697.75</ele><time>2026-04-25T10:06:58.039Z</time></trkpt><trkpt lat="43.4414185" lon="12.9776136"><ele>696.0</ele><time>2026-04-25T10:06:59.039Z</time></trkpt><trkpt lat="43.4413278" lon="12.9774596"><ele>695.5</ele><time>2026-04-25T10:07:00.039Z</time></trkpt><trkpt lat="43.4412225" lon="12.9773082"><ele>695.0</ele><time>2026-04-25T10:07:01.039Z</time></trkpt><trkpt lat="43.4411258" lon="12.9771689"><ele>694.5</ele><time>2026-04-25T10:07:02.039Z</time></trkpt><trkpt lat="43.4410455" lon="12.9770539"><ele>694.0</ele><time>2026-04-25T10:07:03.041Z</time></trkpt><trkpt lat="43.4409909" lon="12.9769634"><ele>694.0</ele><time>2026-04-25T10:07:04.041Z</time></trkpt><trkpt lat="43.4409676" lon="12.9768359"><ele>694.0</ele><time>2026-04-25T10:07:06.039Z</time></trkpt><trkpt lat="43.4410792" lon="12.9767592"><ele>694.0</ele><time>2026-04-25T10:07:08.039Z</time></trkpt><trkpt lat="43.4411883" lon="12.9767689"><ele>694.0</ele><time>2026-04-25T10:07:09.04Z</time></trkpt><trkpt lat="43.4413504" lon="12.9767956"><ele>689.6666666666667</ele><time>2026-04-25T10:07:10.04Z</time></trkpt><trkpt lat="43.4415605" lon="12.9768314"><ele>685.3333333333334</ele><time>2026-04-25T10:07:11.039Z</time></trkpt><trkpt lat="43.4417797" lon="12.9768723"><ele>681.0</ele><time>2026-04-25T10:07:12.04Z</time></trkpt><trkpt lat="43.4419738" lon="12.9769149"><ele>677.3333333333334</ele><time>2026-04-25T10:07:13.04Z</time></trkpt><trkpt lat="43.4421684" lon="12.9769548"><ele>673.6666666666667</ele><time>2026-04-25T10:07:14.039Z</time></trkpt><trkpt lat="43.4423903" lon="12.9769977"><ele>670.0</ele><time>2026-04-25T10:07:15.039Z</time></trkpt><trkpt lat="43.4425997" lon="12.9770425"><ele>670.0</ele><time>2026-04-25T10:07:16.039Z</time></trkpt><trkpt lat="43.4427828" lon="12.9770857"><ele>670.0</ele><time>2026-04-25T10:07:17.04Z</time></trkpt><trkpt lat="43.4429387" lon="12.9771268"><ele>670.0</ele><time>2026-04-25T10:07:18.04Z</time></trkpt><trkpt lat="43.4430698" lon="12.9771556"><ele>666.6</ele><time>2026-04-25T10:07:19.039Z</time></trkpt><trkpt lat="43.4431756" lon="12.9771707"><ele>663.2</ele><time>2026-04-25T10:07:20.039Z</time></trkpt><trkpt lat="43.44327" lon="12.9771576"><ele>659.8</ele><time>2026-04-25T10:07:21.04Z</time></trkpt><trkpt lat="43.4433532" lon="12.9771014"><ele>656.4</ele><time>2026-04-25T10:07:22.04Z</time></trkpt><trkpt lat="43.4434389" lon="12.9769786"><ele>653.0</ele><time>2026-04-25T10:07:23.04Z</time></trkpt><trkpt lat="43.4435347" lon="12.9767872"><ele>651.3333333333333</ele><time>2026-04-25T10:07:24.039Z</time></trkpt><trkpt lat="43.443647" lon="12.9765402"><ele>649.6666666666666</ele><time>2026-04-25T10:07:25.04Z</time></trkpt><trkpt lat="43.4437555" lon="12.9763015"><ele>648.0</ele><time>2026-04-25T10:07:26.039Z</time></trkpt><trkpt lat="43.4438454" lon="12.9761051"><ele>646.8</ele><time>2026-04-25T10:07:27.039Z</time></trkpt><trkpt lat="43.4439165" lon="12.9759526"><ele>645.5999999999999</ele><time>2026-04-25T10:07:28.039Z</time></trkpt><trkpt lat="43.4439779" lon="12.9758171"><ele>644.4000000000001</ele><time>2026-04-25T10:07:29.041Z</time></trkpt><trkpt lat="43.4440226" lon="12.9756997"><ele>643.2</ele><time>2026-04-25T10:07:30.039Z</time></trkpt><trkpt lat="43.4440444" lon="12.9755863"><ele>642.0</ele><time>2026-04-25T10:07:31.04Z</time></trkpt><trkpt lat="43.4440357" lon="12.975466"><ele>641.0</ele><time>2026-04-25T10:07:32.039Z</time></trkpt><trkpt lat="43.44399" lon="12.975333"><ele>640.0</ele><time>2026-04-25T10:07:33.04Z</time></trkpt><trkpt lat="43.4439085" lon="12.975135"><ele>639.0</ele><time>2026-04-25T10:07:34.04Z</time></trkpt><trkpt lat="43.4437997" lon="12.9748818"><ele>641.3333333333334</ele><time>2026-04-25T10:07:35.039Z</time></trkpt><trkpt lat="43.4437" lon="12.9746398"><ele>643.6666666666667</ele><time>2026-04-25T10:07:36.039Z</time></trkpt><trkpt lat="43.4436231" lon="12.974454"><ele>646.0</ele><time>2026-04-25T10:07:37.039Z</time></trkpt><trkpt lat="43.4435526" lon="12.9743033"><ele>643.4</ele><time>2026-04-25T10:07:38.041Z</time></trkpt><trkpt lat="43.4434823" lon="12.9741711"><ele>640.8</ele><time>2026-04-25T10:07:39.04Z</time></trkpt><trkpt lat="43.4434179" lon="12.9740571"><ele>638.1999999999999</ele><time>2026-04-25T10:07:40.041Z</time></trkpt><trkpt lat="43.4433631" lon="12.9739661"><ele>635.5999999999999</ele><time>2026-04-25T10:07:41.039Z</time></trkpt><trkpt lat="43.4433248" lon="12.9738966"><ele>633.0</ele><time>2026-04-25T10:07:42.039Z</time></trkpt><trkpt lat="43.4433033" lon="12.9737901"><ele>633.0</ele><time>2026-04-25T10:07:44.039Z</time></trkpt><trkpt lat="43.4433854" lon="12.9737736"><ele>633.0</ele><time>2026-04-25T10:07:47.039Z</time></trkpt><trkpt lat="43.4434492" lon="12.9738271"><ele>633.0</ele><time>2026-04-25T10:07:48.039Z</time></trkpt><trkpt lat="43.443547" lon="12.9739304"><ele>633.0</ele><time>2026-04-25T10:07:49.039Z</time></trkpt><trkpt lat="43.4436865" lon="12.9740749"><ele>632.0</ele><time>2026-04-25T10:07:50.04Z</time></trkpt><trkpt lat="43.4438592" lon="12.9742522"><ele>631.0</ele><time>2026-04-25T10:07:51.04Z</time></trkpt><trkpt lat="43.4440274" lon="12.974433"><ele>630.0</ele><time>2026-04-25T10:07:52.039Z</time></trkpt><trkpt lat="43.4441857" lon="12.9746094"><ele>630.0</ele><time>2026-04-25T10:07:53.039Z</time></trkpt><trkpt lat="43.4443382" lon="12.9747859"><ele>630.0</ele><time>2026-04-25T10:07:54.041Z</time></trkpt><trkpt lat="43.4444801" lon="12.974963"><ele>630.0</ele><time>2026-04-25T10:07:55.04Z</time></trkpt><trkpt lat="43.4446104" lon="12.9751407"><ele>627.0</ele><time>2026-04-25T10:07:56.04Z</time></trkpt><trkpt lat="43.4447298" lon="12.9753195"><ele>624.0</ele><time>2026-04-25T10:07:57.04Z</time></trkpt><trkpt lat="43.4448438" lon="12.9754969"><ele>621.0</ele><time>2026-04-25T10:07:58.041Z</time></trkpt><trkpt lat="43.4449518" lon="12.9756761"><ele>622.6666666666666</ele><time>2026-04-25T10:07:59.041Z</time></trkpt><trkpt lat="43.4450531" lon="12.9758618"><ele>624.3333333333333</ele><time>2026-04-25T10:08:00.039Z</time></trkpt><trkpt lat="43.4451381" lon="12.9760444"><ele>626.0</ele><time>2026-04-25T10:08:01.039Z</time></trkpt><trkpt lat="43.4452149" lon="12.9762416"><ele>626.0</ele><time>2026-04-25T10:08:02.041Z</time></trkpt><trkpt lat="43.4452897" lon="12.9764599"><ele>626.0</ele><time>2026-04-25T10:08:03.04Z</time></trkpt><trkpt lat="43.4453571" lon="12.9766643"><ele>626.0</ele><time>2026-04-25T10:08:04.039Z</time></trkpt><trkpt lat="43.4454184" lon="12.9768652"><ele>619.5</ele><time>2026-04-25T10:08:05.04Z</time></trkpt><trkpt lat="43.4454745" lon="12.9770625"><ele>613.0</ele><time>2026-04-25T10:08:06.039Z</time></trkpt><trkpt lat="43.4455229" lon="12.9772478"><ele>606.5</ele><time>2026-04-25T10:08:07.039Z</time></trkpt><trkpt lat="43.4455568" lon="12.977421"><ele>600.0</ele><time>2026-04-25T10:08:08.039Z</time></trkpt><trkpt lat="43.4455721" lon="12.9775811"><ele>599.4</ele><time>2026-04-25T10:08:09.04Z</time></trkpt><trkpt lat="43.4455665" lon="12.9777335"><ele>598.8</ele><time>2026-04-25T10:08:10.04Z</time></trkpt><trkpt lat="43.44554" lon="12.9778766"><ele>598.2</ele><time>2026-04-25T10:08:11.039Z</time></trkpt><trkpt lat="43.4454978" lon="12.9779965"><ele>597.6</ele><time>2026-04-25T10:08:12.039Z</time></trkpt><trkpt lat="43.4454298" lon="12.978117"><ele>597.0</ele><time>2026-04-25T10:08:13.039Z</time></trkpt><trkpt lat="43.4453401" lon="12.9782567"><ele>602.25</ele><time>2026-04-25T10:08:14.04Z</time></trkpt><trkpt lat="43.445268" lon="12.9783827"><ele>607.5</ele><time>2026-04-25T10:08:15.039Z</time></trkpt><trkpt lat="43.4452307" lon="12.9785079"><ele>612.75</ele><time>2026-04-25T10:08:16.039Z</time></trkpt><trkpt lat="43.4452192" lon="12.9786671"><ele>618.0</ele><time>2026-04-25T10:08:17.04Z</time></trkpt><trkpt lat="43.4452108" lon="12.9788413"><ele>618.0</ele><time>2026-04-25T10:08:18.039Z</time></trkpt><trkpt lat="43.445178" lon="12.9790287"><ele>618.0</ele><time>2026-04-25T10:08:19.041Z</time></trkpt><trkpt lat="43.4451315" lon="12.9792276"><ele>618.0</ele><time>2026-04-25T10:08:20.039Z</time></trkpt><trkpt lat="43.4450898" lon="12.9794157"><ele>618.0</ele><time>2026-04-25T10:08:21.04Z</time></trkpt><trkpt lat="43.4450608" lon="12.9796"><ele>616.5</ele><time>2026-04-25T10:08:22.039Z</time></trkpt><trkpt lat="43.4450401" lon="12.979784"><ele>615.0</ele><time>2026-04-25T10:08:23.039Z</time></trkpt><trkpt lat="43.4450217" lon="12.9799531"><ele>613.5</ele><time>2026-04-25T10:08:24.041Z</time></trkpt><trkpt lat="43.4449967" lon="12.9801079"><ele>612.0</ele><time>2026-04-25T10:08:25.039Z</time></trkpt><trkpt lat="43.4449616" lon="12.9802504"><ele>609.8000000000001</ele><time>2026-04-25T10:08:26.04Z</time></trkpt><trkpt lat="43.4449176" lon="12.9803797"><ele>607.6</ele><time>2026-04-25T10:08:27.04Z</time></trkpt><trkpt lat="43.4448592" lon="12.9805086"><ele>605.4000000000001</ele><time>2026-04-25T10:08:28.039Z</time></trkpt><trkpt lat="43.4447939" lon="12.9806267"><ele>603.2</ele><time>2026-04-25T10:08:29.039Z</time></trkpt><trkpt lat="43.4447408" lon="12.9807347"><ele>601.0</ele><time>2026-04-25T10:08:30.039Z</time></trkpt><trkpt lat="43.4447129" lon="12.9808448"><ele>602.0</ele><time>2026-04-25T10:08:31.04Z</time></trkpt><trkpt lat="43.4447097" lon="12.9809696"><ele>603.0</ele><time>2026-04-25T10:08:32.041Z</time></trkpt><trkpt lat="43.4447296" lon="12.9811115"><ele>604.0</ele><time>2026-04-25T10:08:33.039Z</time></trkpt><trkpt lat="43.4447667" lon="12.9812623"><ele>605.0</ele><time>2026-04-25T10:08:34.039Z</time></trkpt><trkpt lat="43.4448165" lon="12.9814259"><ele>606.0</ele><time>2026-04-25T10:08:35.039Z</time></trkpt><trkpt lat="43.4448734" lon="12.9816077"><ele>610.6666666666666</ele><time>2026-04-25T10:08:36.039Z</time></trkpt><trkpt lat="43.4449351" lon="12.9818076"><ele>615.3333333333333</ele><time>2026-04-25T10:08:37.039Z</time></trkpt><trkpt lat="43.4450113" lon="12.9820408"><ele>620.0</ele><time>2026-04-25T10:08:38.039Z</time></trkpt><trkpt lat="43.4450982" lon="12.9822792"><ele>620.0</ele><time>2026-04-25T10:08:39.041Z</time></trkpt><trkpt lat="43.4451819" lon="12.9824965"><ele>620.0</ele><time>2026-04-25T10:08:40.04Z</time></trkpt><trkpt lat="43.4452691" lon="12.982708"><ele>620.0</ele><time>2026-04-25T10:08:41.04Z</time></trkpt><trkpt lat="43.4453541" lon="12.9828984"><ele>619.0</ele><time>2026-04-25T10:08:42.039Z</time></trkpt><trkpt lat="43.4454303" lon="12.9830728"><ele>618.0</ele><time>2026-04-25T10:08:43.04Z</time></trkpt><trkpt lat="43.4455045" lon="12.9832387"><ele>617.0</ele><time>2026-04-25T10:08:44.039Z</time></trkpt><trkpt lat="43.4455881" lon="12.9834036"><ele>616.0</ele><time>2026-04-25T10:08:45.039Z</time></trkpt><trkpt lat="43.4456857" lon="12.9835653"><ele>616.0</ele><time>2026-04-25T10:08:46.04Z</time></trkpt><trkpt lat="43.4457986" lon="12.9837281"><ele>616.0</ele><time>2026-04-25T10:08:47.04Z</time></trkpt><trkpt lat="43.4459071" lon="12.9838876"><ele>616.0</ele><time>2026-04-25T10:08:48.039Z</time></trkpt><trkpt lat="43.4460229" lon="12.9840681"><ele>605.5</ele><time>2026-04-25T10:08:49.039Z</time></trkpt><trkpt lat="43.4461611" lon="12.9842873"><ele>595.0</ele><time>2026-04-25T10:08:50.039Z</time></trkpt><trkpt lat="43.4463205" lon="12.9845379"><ele>595.0</ele><time>2026-04-25T10:08:51.039Z</time></trkpt><trkpt lat="43.4464786" lon="12.9847947"><ele>595.0</ele><time>2026-04-25T10:08:52.039Z</time></trkpt><trkpt lat="43.4466271" lon="12.9850273"><ele>603.0</ele><time>2026-04-25T10:08:53.039Z</time></trkpt><trkpt lat="43.4467637" lon="12.9852393"><ele>611.0</ele><time>2026-04-25T10:08:54.039Z</time></trkpt><trkpt lat="43.44689" lon="12.9854326"><ele>619.0</ele><time>2026-04-25T10:08:55.039Z</time></trkpt><trkpt lat="43.4470054" lon="12.9856152"><ele>619.0</ele><time>2026-04-25T10:08:56.04Z</time></trkpt><trkpt lat="43.4471093" lon="12.9857825"><ele>619.0</ele><time>2026-04-25T10:08:57.039Z</time></trkpt><trkpt lat="43.4472089" lon="12.9859476"><ele>619.0</ele><time>2026-04-25T10:08:58.04Z</time></trkpt><trkpt lat="43.447317" lon="12.9861278"><ele>611.6666666666667</ele><time>2026-04-25T10:08:59.039Z</time></trkpt><trkpt lat="43.4474487" lon="12.9863357"><ele>604.3333333333334</ele><time>2026-04-25T10:09:00.041Z</time></trkpt><trkpt lat="43.4475763" lon="12.9865222"><ele>597.0</ele><time>2026-04-25T10:09:01.039Z</time></trkpt><trkpt lat="43.4476846" lon="12.9866715"><ele>593.6666666666666</ele><time>2026-04-25T10:09:02.04Z</time></trkpt><trkpt lat="43.4477996" lon="12.9868184"><ele>590.3333333333333</ele><time>2026-04-25T10:09:03.041Z</time></trkpt><trkpt lat="43.4479458" lon="12.9869916"><ele>587.0</ele><time>2026-04-25T10:09:04.039Z</time></trkpt><trkpt lat="43.4480973" lon="12.9871595"><ele>587.0</ele><time>2026-04-25T10:09:05.039Z</time></trkpt><trkpt lat="43.4482295" lon="12.9872888"><ele>587.0</ele><time>2026-04-25T10:09:06.04Z</time></trkpt><trkpt lat="43.4483491" lon="12.9873919"><ele>587.0</ele><time>2026-04-25T10:09:07.04Z</time></trkpt><trkpt lat="43.4484708" lon="12.9874952"><ele>587.0</ele><time>2026-04-25T10:09:08.039Z</time></trkpt><trkpt lat="43.4485948" lon="12.987605"><ele>584.0</ele><time>2026-04-25T10:09:09.039Z</time></trkpt><trkpt lat="43.4487028" lon="12.9876962"><ele>581.0</ele><time>2026-04-25T10:09:10.041Z</time></trkpt><trkpt lat="43.4487923" lon="12.9877709"><ele>578.0</ele><time>2026-04-25T10:09:11.039Z</time></trkpt><trkpt lat="43.4488687" lon="12.987846"><ele>575.0</ele><time>2026-04-25T10:09:12.04Z</time></trkpt><trkpt lat="43.4489291" lon="12.9879316"><ele>572.0</ele><time>2026-04-25T10:09:13.039Z</time></trkpt><trkpt lat="43.4489779" lon="12.9880398"><ele>572.0</ele><time>2026-04-25T10:09:14.039Z</time></trkpt><trkpt lat="43.4490353" lon="12.9881975"><ele>572.0</ele><time>2026-04-25T10:09:15.039Z</time></trkpt><trkpt lat="43.4491075" lon="12.988404"><ele>572.0</ele><time>2026-04-25T10:09:16.039Z</time></trkpt><trkpt lat="43.4491827" lon="12.9885833"><ele>572.0</ele><time>2026-04-25T10:09:17.039Z</time></trkpt><trkpt lat="43.4492502" lon="12.9887199"><ele>573.4</ele><time>2026-04-25T10:09:18.039Z</time></trkpt><trkpt lat="43.4493075" lon="12.9888481"><ele>574.8000000000001</ele><time>2026-04-25T10:09:19.041Z</time></trkpt><trkpt lat="43.4493469" lon="12.9889716"><ele>576.2</ele><time>2026-04-25T10:09:20.04Z</time></trkpt><trkpt lat="43.4493683" lon="12.9890941"><ele>577.6</ele><time>2026-04-25T10:09:21.04Z</time></trkpt><trkpt lat="43.4493828" lon="12.9892223"><ele>579.0</ele><time>2026-04-25T10:09:22.039Z</time></trkpt><trkpt lat="43.4494263" lon="12.9894302"><ele>576.0</ele><time>2026-04-25T10:09:24.04Z</time></trkpt><trkpt lat="43.4494702" lon="12.9895107"><ele>573.0</ele><time>2026-04-25T10:09:25.039Z</time></trkpt><trkpt lat="43.4495314" lon="12.9895794"><ele>570.0</ele><time>2026-04-25T10:09:26.04Z</time></trkpt><trkpt lat="43.4496204" lon="12.9896486"><ele>567.0</ele><time>2026-04-25T10:09:27.039Z</time></trkpt><trkpt lat="43.4497259" lon="12.9897237"><ele>564.0</ele><time>2026-04-25T10:09:28.04Z</time></trkpt><trkpt lat="43.4498236" lon="12.9897912"><ele>564.0</ele><time>2026-04-25T10:09:29.04Z</time></trkpt><trkpt lat="43.4499088" lon="12.9898517"><ele>564.0</ele><time>2026-04-25T10:09:30.039Z</time></trkpt><trkpt lat="43.4499837" lon="12.9899038"><ele>564.0</ele><time>2026-04-25T10:09:31.039Z</time></trkpt><trkpt lat="43.4500634" lon="12.9899552"><ele>564.0</ele><time>2026-04-25T10:09:32.039Z</time></trkpt><trkpt lat="43.4501542" lon="12.99001"><ele>564.0</ele><time>2026-04-25T10:09:33.04Z</time></trkpt><trkpt lat="43.4502452" lon="12.9900711"><ele>562.1666666666666</ele><time>2026-04-25T10:09:34.039Z</time></trkpt><trkpt lat="43.4503295" lon="12.9901353"><ele>560.3333333333334</ele><time>2026-04-25T10:09:35.04Z</time></trkpt><trkpt lat="43.4504056" lon="12.9901947"><ele>558.5</ele><time>2026-04-25T10:09:36.039Z</time></trkpt><trkpt lat="43.4504733" lon="12.9902505"><ele>556.6666666666667</ele><time>2026-04-25T10:09:37.04Z</time></trkpt><trkpt lat="43.4505315" lon="12.9903019"><ele>554.8333333333334</ele><time>2026-04-25T10:09:38.039Z</time></trkpt><trkpt lat="43.450618" lon="12.9903917"><ele>553.0</ele><time>2026-04-25T10:09:40.039Z</time></trkpt><trkpt lat="43.4506725" lon="12.9904936"><ele>553.0</ele><time>2026-04-25T10:09:42.04Z</time></trkpt><trkpt lat="43.4507407" lon="12.9905801"><ele>553.0</ele><time>2026-04-25T10:09:44.04Z</time></trkpt><trkpt lat="43.4508099" lon="12.990617"><ele>553.0</ele><time>2026-04-25T10:09:45.04Z</time></trkpt><trkpt lat="43.4509156" lon="12.990676"><ele>553.0</ele><time>2026-04-25T10:09:46.04Z</time></trkpt><trkpt lat="43.4510361" lon="12.9907509"><ele>553.0</ele><time>2026-04-25T10:09:47.04Z</time></trkpt><trkpt lat="43.451141" lon="12.9908171"><ele>550.8333333333334</ele><time>2026-04-25T10:09:48.039Z</time></trkpt><trkpt lat="43.4512263" lon="12.9908663"><ele>548.6666666666667</ele><time>2026-04-25T10:09:49.04Z</time></trkpt><trkpt lat="43.4513036" lon="12.9909037"><ele>546.5</ele><time>2026-04-25T10:09:50.04Z</time></trkpt><trkpt lat="43.4513822" lon="12.9909331"><ele>544.3333333333334</ele><time>2026-04-25T10:09:51.039Z</time></trkpt><trkpt lat="43.451472" lon="12.9909527"><ele>542.1666666666666</ele><time>2026-04-25T10:09:52.039Z</time></trkpt><trkpt lat="43.4515659" lon="12.9909601"><ele>540.0</ele><time>2026-04-25T10:09:53.04Z</time></trkpt><trkpt lat="43.4516535" lon="12.9909666"><ele>540.0</ele><time>2026-04-25T10:09:54.04Z</time></trkpt><trkpt lat="43.4517348" lon="12.9909871"><ele>540.0</ele><time>2026-04-25T10:09:55.039Z</time></trkpt><trkpt lat="43.4518156" lon="12.9910182"><ele>540.0</ele><time>2026-04-25T10:09:56.039Z</time></trkpt><trkpt lat="43.4518907" lon="12.9910544"><ele>540.0</ele><time>2026-04-25T10:09:57.039Z</time></trkpt><trkpt lat="43.4519751" lon="12.991111"><ele>540.0</ele><time>2026-04-25T10:09:58.039Z</time></trkpt><trkpt lat="43.4520569" lon="12.9911782"><ele>540.0</ele><time>2026-04-25T10:09:59.039Z</time></trkpt><trkpt lat="43.4521389" lon="12.9912446"><ele>540.6666666666666</ele><time>2026-04-25T10:10:00.04Z</time></trkpt><trkpt lat="43.4522293" lon="12.9913118"><ele>541.3333333333334</ele><time>2026-04-25T10:10:01.04Z</time></trkpt><trkpt lat="43.4523155" lon="12.9913713"><ele>542.0</ele><time>2026-04-25T10:10:02.039Z</time></trkpt><trkpt lat="43.4523919" lon="12.9914267"><ele>542.6666666666667</ele><time>2026-04-25T10:10:03.039Z</time></trkpt><trkpt lat="43.4524533" lon="12.9914766"><ele>543.3333333333334</ele><time>2026-04-25T10:10:04.04Z</time></trkpt><trkpt lat="43.4525275" lon="12.9915394"><ele>544.0</ele><time>2026-04-25T10:10:06.04Z</time></trkpt><trkpt lat="43.4526121" lon="12.9916554"><ele>541.6</ele><time>2026-04-25T10:10:08.04Z</time></trkpt><trkpt lat="43.4526516" lon="12.9917242"><ele>539.2</ele><time>2026-04-25T10:10:09.04Z</time></trkpt><trkpt lat="43.452716" lon="12.991811"><ele>536.8000000000001</ele><time>2026-04-25T10:10:10.04Z</time></trkpt><trkpt lat="43.4528019" lon="12.9919107"><ele>534.4</ele><time>2026-04-25T10:10:11.04Z</time></trkpt><trkpt lat="43.4528832" lon="12.9920124"><ele>532.0</ele><time>2026-04-25T10:10:12.039Z</time></trkpt><trkpt lat="43.452952" lon="12.992105"><ele>534.3333333333334</ele><time>2026-04-25T10:10:13.039Z</time></trkpt><trkpt lat="43.4530167" lon="12.9922044"><ele>536.6666666666667</ele><time>2026-04-25T10:10:14.039Z</time></trkpt><trkpt lat="43.4530732" lon="12.9922933"><ele>539.0</ele><time>2026-04-25T10:10:15.041Z</time></trkpt><trkpt lat="43.4531212" lon="12.992379"><ele>541.3333333333334</ele><time>2026-04-25T10:10:16.039Z</time></trkpt><trkpt lat="43.4531621" lon="12.9924625"><ele>543.6666666666666</ele><time>2026-04-25T10:10:17.039Z</time></trkpt><trkpt lat="43.4532037" lon="12.9925485"><ele>546.0</ele><time>2026-04-25T10:10:18.04Z</time></trkpt><trkpt lat="43.4532475" lon="12.9926541"><ele>546.5</ele><time>2026-04-25T10:10:19.039Z</time></trkpt><trkpt lat="43.4532828" lon="12.9927579"><ele>547.0</ele><time>2026-04-25T10:10:20.039Z</time></trkpt><trkpt lat="43.4533151" lon="12.9928582"><ele>547.5</ele><time>2026-04-25T10:10:21.04Z</time></trkpt><trkpt lat="43.4533482" lon="12.9929523"><ele>548.0</ele><time>2026-04-25T10:10:22.039Z</time></trkpt><trkpt lat="43.4533882" lon="12.9930483"><ele>548.5</ele><time>2026-04-25T10:10:23.04Z</time></trkpt><trkpt lat="43.4534297" lon="12.9931469"><ele>549.0</ele><time>2026-04-25T10:10:24.039Z</time></trkpt><trkpt lat="43.453464" lon="12.9932347"><ele>549.1666666666666</ele><time>2026-04-25T10:10:25.04Z</time></trkpt><trkpt lat="43.4535318" lon="12.9933502"><ele>549.3333333333334</ele><time>2026-04-25T10:10:27.041Z</time></trkpt><trkpt lat="43.4535991" lon="12.993468"><ele>549.5</ele><time>2026-04-25T10:10:29.039Z</time></trkpt><trkpt lat="43.4536387" lon="12.9935369"><ele>549.6666666666667</ele><time>2026-04-25T10:10:30.039Z</time></trkpt><trkpt lat="43.4536907" lon="12.993598"><ele>549.8333333333334</ele><time>2026-04-25T10:10:31.039Z</time></trkpt><trkpt lat="43.4537473" lon="12.993666"><ele>550.0</ele><time>2026-04-25T10:10:32.039Z</time></trkpt><trkpt lat="43.4538091" lon="12.9937351"><ele>554.0</ele><time>2026-04-25T10:10:33.04Z</time></trkpt><trkpt lat="43.453881" lon="12.9938025"><ele>558.0</ele><time>2026-04-25T10:10:34.04Z</time></trkpt><trkpt lat="43.4539521" lon="12.9938682"><ele>562.0</ele><time>2026-04-25T10:10:35.039Z</time></trkpt><trkpt lat="43.4540242" lon="12.993918"><ele>566.0</ele><time>2026-04-25T10:10:36.039Z</time></trkpt><trkpt lat="43.4541155" lon="12.9939569"><ele>570.0</ele><time>2026-04-25T10:10:38.039Z</time></trkpt><trkpt lat="43.4541803" lon="12.993961"><ele>574.0</ele><time>2026-04-25T10:10:40.04Z</time></trkpt><trkpt lat="43.4542815" lon="12.9940339"><ele>574.0</ele><time>2026-04-25T10:10:42.039Z</time></trkpt><trkpt lat="43.4543576" lon="12.9940701"><ele>574.0</ele><time>2026-04-25T10:10:43.039Z</time></trkpt><trkpt lat="43.4544691" lon="12.994124"><ele>574.0</ele><time>2026-04-25T10:10:45.04Z</time></trkpt><trkpt lat="43.4545884" lon="12.9941908"><ele>574.0</ele><time>2026-04-25T10:10:47.039Z</time></trkpt><trkpt lat="43.4546514" lon="12.9942255"><ele>574.0</ele><time>2026-04-25T10:10:48.04Z</time></trkpt><trkpt lat="43.454715" lon="12.9942582"><ele>579.0</ele><time>2026-04-25T10:10:49.04Z</time></trkpt><trkpt lat="43.4547819" lon="12.9942925"><ele>584.0</ele><time>2026-04-25T10:10:50.039Z</time></trkpt><trkpt lat="43.4548542" lon="12.9943286"><ele>589.0</ele><time>2026-04-25T10:10:51.04Z</time></trkpt><trkpt lat="43.4549267" lon="12.9943594"><ele>594.0</ele><time>2026-04-25T10:10:52.04Z</time></trkpt><trkpt lat="43.4549985" lon="12.9943888"><ele>599.0</ele><time>2026-04-25T10:10:53.04Z</time></trkpt><trkpt lat="43.4550729" lon="12.9944056"><ele>604.0</ele><time>2026-04-25T10:10:54.039Z</time></trkpt><trkpt lat="43.4551487" lon="12.9944256"><ele>604.0</ele><time>2026-04-25T10:10:55.039Z</time></trkpt><trkpt lat="43.4552133" lon="12.9944383"><ele>604.0</ele><time>2026-04-25T10:10:56.04Z</time></trkpt><trkpt lat="43.4553292" lon="12.9944574"><ele>604.0</ele><time>2026-04-25T10:10:58.04Z</time></trkpt><trkpt lat="43.4554534" lon="12.9944619"><ele>604.0</ele><time>2026-04-25T10:11:00.039Z</time></trkpt><trkpt lat="43.4555279" lon="12.9944644"><ele>604.0</ele><time>2026-04-25T10:11:01.039Z</time></trkpt><trkpt lat="43.4556175" lon="12.9944737"><ele>605.0000000000001</ele><time>2026-04-25T10:11:02.04Z</time></trkpt><trkpt lat="43.4556989" lon="12.9944752"><ele>606.0</ele><time>2026-04-25T10:11:03.039Z</time></trkpt><trkpt lat="43.4557674" lon="12.9944794"><ele>607.0</ele><time>2026-04-25T10:11:04.039Z</time></trkpt><trkpt lat="43.4558332" lon="12.9944854"><ele>608.0</ele><time>2026-04-25T10:11:05.04Z</time></trkpt><trkpt lat="43.455907" lon="12.9945074"><ele>609.0</ele><time>2026-04-25T10:11:06.04Z</time></trkpt><trkpt lat="43.4559698" lon="12.9945279"><ele>610.0000000000001</ele><time>2026-04-25T10:11:07.039Z</time></trkpt><trkpt lat="43.4560379" lon="12.9945525"><ele>611.0</ele><time>2026-04-25T10:11:08.039Z</time></trkpt><trkpt lat="43.456111" lon="12.994584"><ele>611.0</ele><time>2026-04-25T10:11:09.04Z</time></trkpt><trkpt lat="43.4561821" lon="12.9946161"><ele>611.0</ele><time>2026-04-25T10:11:10.039Z</time></trkpt><trkpt lat="43.456256" lon="12.994666"><ele>611.0</ele><time>2026-04-25T10:11:11.039Z</time></trkpt><trkpt lat="43.4563209" lon="12.9947302"><ele>611.0</ele><time>2026-04-25T10:11:12.04Z</time></trkpt><trkpt lat="43.4563741" lon="12.9947867"><ele>611.0</ele><time>2026-04-25T10:11:13.04Z</time></trkpt><trkpt lat="43.4564432" lon="12.9948673"><ele>611.0</ele><time>2026-04-25T10:11:15.04Z</time></trkpt><trkpt lat="43.4565133" lon="12.9949261"><ele>610.8333333333333</ele><time>2026-04-25T10:11:17.039Z</time></trkpt><trkpt lat="43.4565849" lon="12.9950436"><ele>610.6666666666666</ele><time>2026-04-25T10:11:19.04Z</time></trkpt><trkpt lat="43.4566306" lon="12.9951091"><ele>610.5</ele><time>2026-04-25T10:11:20.039Z</time></trkpt><trkpt lat="43.4566863" lon="12.9951819"><ele>610.3333333333334</ele><time>2026-04-25T10:11:21.04Z</time></trkpt><trkpt lat="43.456744" lon="12.9952558"><ele>610.1666666666667</ele><time>2026-04-25T10:11:22.04Z</time></trkpt><trkpt lat="43.4568019" lon="12.9953204"><ele>610.0</ele><time>2026-04-25T10:11:23.041Z</time></trkpt><trkpt lat="43.4568632" lon="12.9953768"><ele>610.0</ele><time>2026-04-25T10:11:24.039Z</time></trkpt><trkpt lat="43.456918" lon="12.9954278"><ele>610.0</ele><time>2026-04-25T10:11:25.039Z</time></trkpt><trkpt lat="43.4570051" lon="12.9955313"><ele>610.0</ele><time>2026-04-25T10:11:27.039Z</time></trkpt><trkpt lat="43.4570704" lon="12.9955974"><ele>610.0</ele><time>2026-04-25T10:11:28.039Z</time></trkpt><trkpt lat="43.4571359" lon="12.9956677"><ele>610.0</ele><time>2026-04-25T10:11:29.04Z</time></trkpt><trkpt lat="43.4571998" lon="12.9957315"><ele>610.0</ele><time>2026-04-25T10:11:30.04Z</time></trkpt><trkpt lat="43.4572715" lon="12.995793"><ele>609.5</ele><time>2026-04-25T10:11:31.039Z</time></trkpt><trkpt lat="43.4573443" lon="12.9958445"><ele>609.0</ele><time>2026-04-25T10:11:32.04Z</time></trkpt><trkpt lat="43.4574139" lon="12.9958851"><ele>608.5</ele><time>2026-04-25T10:11:33.039Z</time></trkpt><trkpt lat="43.4574857" lon="12.9959143"><ele>608.0</ele><time>2026-04-25T10:11:34.039Z</time></trkpt><trkpt lat="43.4575523" lon="12.9959273"><ele>607.5</ele><time>2026-04-25T10:11:35.041Z</time></trkpt><trkpt lat="43.4576613" lon="12.9958957"><ele>607.0</ele><time>2026-04-25T10:11:37.04Z</time></trkpt><trkpt lat="43.4577372" lon="12.9958052"><ele>606.6666666666667</ele><time>2026-04-25T10:11:39.04Z</time></trkpt><trkpt lat="43.4577698" lon="12.9957274"><ele>606.3333333333334</ele><time>2026-04-25T10:11:40.039Z</time></trkpt><trkpt lat="43.4578058" lon="12.9956348"><ele>606.0</ele><time>2026-04-25T10:11:41.039Z</time></trkpt><trkpt lat="43.4578466" lon="12.9955444"><ele>605.6666666666666</ele><time>2026-04-25T10:11:42.04Z</time></trkpt><trkpt lat="43.4578852" lon="12.9954596"><ele>605.3333333333333</ele><time>2026-04-25T10:11:43.04Z</time></trkpt><trkpt lat="43.4579486" lon="12.9953305"><ele>605.0</ele><time>2026-04-25T10:11:45.039Z</time></trkpt><trkpt lat="43.4580106" lon="12.9951875"><ele>605.0</ele><time>2026-04-25T10:11:47.039Z</time></trkpt><trkpt lat="43.458009" lon="12.9950341"><ele>605.0</ele><time>2026-04-25T10:11:49.041Z</time></trkpt><trkpt lat="43.457986" lon="12.9949508"><ele>605.0</ele><time>2026-04-25T10:11:50.04Z</time></trkpt><trkpt lat="43.4579682" lon="12.994847"><ele>605.0</ele><time>2026-04-25T10:11:51.04Z</time></trkpt><trkpt lat="43.4579524" lon="12.9947341"><ele>605.0</ele><time>2026-04-25T10:11:52.039Z</time></trkpt><trkpt lat="43.4579423" lon="12.9946324"><ele>605.0</ele><time>2026-04-25T10:11:53.04Z</time></trkpt><trkpt lat="43.4579594" lon="12.9945253"><ele>605.8333333333333</ele><time>2026-04-25T10:11:55.04Z</time></trkpt><trkpt lat="43.4580231" lon="12.9944761"><ele>606.6666666666666</ele><time>2026-04-25T10:11:57.039Z</time></trkpt><trkpt lat="43.4580857" lon="12.9944599"><ele>607.5</ele><time>2026-04-25T10:11:58.039Z</time></trkpt><trkpt lat="43.4581574" lon="12.9944443"><ele>608.3333333333334</ele><time>2026-04-25T10:11:59.039Z</time></trkpt><trkpt lat="43.4582435" lon="12.9944091"><ele>609.1666666666667</ele><time>2026-04-25T10:12:01.039Z</time></trkpt><trkpt lat="43.4583013" lon="12.994301"><ele>610.0</ele><time>2026-04-25T10:12:03.04Z</time></trkpt><trkpt lat="43.4583514" lon="12.9941612"><ele>607.8</ele><time>2026-04-25T10:12:05.04Z</time></trkpt><trkpt lat="43.4583956" lon="12.9940337"><ele>605.6</ele><time>2026-04-25T10:12:07.039Z</time></trkpt><trkpt lat="43.4584496" lon="12.9939457"><ele>603.4</ele><time>2026-04-25T10:12:09.039Z</time></trkpt><trkpt lat="43.4585278" lon="12.9938888"><ele>601.2</ele><time>2026-04-25T10:12:11.039Z</time></trkpt><trkpt lat="43.4586172" lon="12.9938815"><ele>599.0</ele><time>2026-04-25T10:12:13.039Z</time></trkpt><trkpt lat="43.4587125" lon="12.9939049"><ele>596.3333333333333</ele><time>2026-04-25T10:12:15.039Z</time></trkpt><trkpt lat="43.4588299" lon="12.9939381"><ele>593.6666666666666</ele><time>2026-04-25T10:12:17.039Z</time></trkpt><trkpt lat="43.4589046" lon="12.9939626"><ele>591.0</ele><time>2026-04-25T10:12:18.04Z</time></trkpt><trkpt lat="43.4589792" lon="12.9939855"><ele>588.3333333333334</ele><time>2026-04-25T10:12:19.039Z</time></trkpt><trkpt lat="43.4590526" lon="12.9940066"><ele>585.6666666666667</ele><time>2026-04-25T10:12:20.039Z</time></trkpt><trkpt lat="43.4591234" lon="12.9940278"><ele>583.0</ele><time>2026-04-25T10:12:21.039Z</time></trkpt><trkpt lat="43.4591951" lon="12.9940476"><ele>583.0000000000001</ele><time>2026-04-25T10:12:22.04Z</time></trkpt><trkpt lat="43.459266" lon="12.9940671"><ele>583.0</ele><time>2026-04-25T10:12:23.04Z</time></trkpt><trkpt lat="43.4593379" lon="12.9940841"><ele>583.0</ele><time>2026-04-25T10:12:24.04Z</time></trkpt><trkpt lat="43.4594092" lon="12.9941028"><ele>583.0</ele><time>2026-04-25T10:12:25.039Z</time></trkpt><trkpt lat="43.4594822" lon="12.9941266"><ele>583.0</ele><time>2026-04-25T10:12:26.04Z</time></trkpt><trkpt lat="43.459553" lon="12.9941519"><ele>583.0000000000001</ele><time>2026-04-25T10:12:27.04Z</time></trkpt><trkpt lat="43.4596243" lon="12.9941756"><ele>583.0</ele><time>2026-04-25T10:12:28.039Z</time></trkpt><trkpt lat="43.459694" lon="12.9942025"><ele>583.0000000000001</ele><time>2026-04-25T10:12:29.039Z</time></trkpt><trkpt lat="43.4597591" lon="12.9942341"><ele>583.0</ele><time>2026-04-25T10:12:30.039Z</time></trkpt><trkpt lat="43.4598218" lon="12.9942698"><ele>583.0</ele><time>2026-04-25T10:12:31.04Z</time></trkpt><trkpt lat="43.459882" lon="12.9943092"><ele>583.0</ele><time>2026-04-25T10:12:32.04Z</time></trkpt><trkpt lat="43.4599434" lon="12.9943502"><ele>583.0</ele><time>2026-04-25T10:12:33.041Z</time></trkpt><trkpt lat="43.4600045" lon="12.994393"><ele>583.0000000000001</ele><time>2026-04-25T10:12:34.039Z</time></trkpt><trkpt lat="43.4600651" lon="12.9944376"><ele>583.0</ele><time>2026-04-25T10:12:35.04Z</time></trkpt><trkpt lat="43.460126" lon="12.9944828"><ele>583.0</ele><time>2026-04-25T10:12:36.039Z</time></trkpt><trkpt lat="43.4601957" lon="12.9945319"><ele>583.0</ele><time>2026-04-25T10:12:37.04Z</time></trkpt><trkpt lat="43.4602633" lon="12.9945758"><ele>583.0</ele><time>2026-04-25T10:12:38.039Z</time></trkpt><trkpt lat="43.4603195" lon="12.9946164"><ele>583.0</ele><time>2026-04-25T10:12:39.039Z</time></trkpt><trkpt lat="43.4604114" lon="12.9946806"><ele>583.0</ele><time>2026-04-25T10:12:41.04Z</time></trkpt><trkpt lat="43.4604985" lon="12.9947538"><ele>583.0</ele><time>2026-04-25T10:12:43.04Z</time></trkpt><trkpt lat="43.4606055" lon="12.9948522"><ele>580.1666666666667</ele><time>2026-04-25T10:12:45.04Z</time></trkpt><trkpt lat="43.4606665" lon="12.9949102"><ele>577.3333333333334</ele><time>2026-04-25T10:12:46.039Z</time></trkpt><trkpt lat="43.4607259" lon="12.9949698"><ele>574.5</ele><time>2026-04-25T10:12:47.04Z</time></trkpt><trkpt lat="43.4607796" lon="12.9950297"><ele>571.6666666666666</ele><time>2026-04-25T10:12:48.039Z</time></trkpt><trkpt lat="43.4608691" lon="12.9951031"><ele>568.8333333333333</ele><time>2026-04-25T10:12:50.039Z</time></trkpt><trkpt lat="43.4609409" lon="12.9950793"><ele>566.0</ele><time>2026-04-25T10:12:52.039Z</time></trkpt><trkpt lat="43.4610185" lon="12.9949562"><ele>565.0</ele><time>2026-04-25T10:12:54.039Z</time></trkpt><trkpt lat="43.4610524" lon="12.9947996"><ele>564.0</ele><time>2026-04-25T10:12:56.04Z</time></trkpt><trkpt lat="43.4610511" lon="12.9946789"><ele>563.0</ele><time>2026-04-25T10:12:57.04Z</time></trkpt><trkpt lat="43.4610507" lon="12.9945586"><ele>562.0</ele><time>2026-04-25T10:12:58.039Z</time></trkpt><trkpt lat="43.4610434" lon="12.9944464"><ele>561.0</ele><time>2026-04-25T10:12:59.04Z</time></trkpt><trkpt lat="43.4610332" lon="12.9943418"><ele>561.0</ele><time>2026-04-25T10:13:00.039Z</time></trkpt><trkpt lat="43.4610278" lon="12.994251"><ele>561.0</ele><time>2026-04-25T10:13:01.039Z</time></trkpt><trkpt lat="43.461038" lon="12.9940905"><ele>561.0</ele><time>2026-04-25T10:13:03.04Z</time></trkpt><trkpt lat="43.4610822" lon="12.9939752"><ele>561.0</ele><time>2026-04-25T10:13:05.039Z</time></trkpt><trkpt lat="43.4611778" lon="12.9939111"><ele>561.0</ele><time>2026-04-25T10:13:07.039Z</time></trkpt><trkpt lat="43.4612472" lon="12.9938917"><ele>559.7142857142857</ele><time>2026-04-25T10:13:08.039Z</time></trkpt><trkpt lat="43.4613238" lon="12.9938781"><ele>558.4285714285713</ele><time>2026-04-25T10:13:09.04Z</time></trkpt><trkpt lat="43.4613974" lon="12.9938686"><ele>557.1428571428571</ele><time>2026-04-25T10:13:10.041Z</time></trkpt><trkpt lat="43.4614701" lon="12.9938565"><ele>555.8571428571429</ele><time>2026-04-25T10:13:11.039Z</time></trkpt><trkpt lat="43.4615426" lon="12.9938422"><ele>554.5714285714287</ele><time>2026-04-25T10:13:12.04Z</time></trkpt><trkpt lat="43.4616146" lon="12.9938328"><ele>553.2857142857143</ele><time>2026-04-25T10:13:13.039Z</time></trkpt><trkpt lat="43.4616839" lon="12.993829"><ele>552.0</ele><time>2026-04-25T10:13:14.039Z</time></trkpt><trkpt lat="43.4617516" lon="12.9938283"><ele>552.0</ele><time>2026-04-25T10:13:15.039Z</time></trkpt><trkpt lat="43.461822" lon="12.9938285"><ele>552.0</ele><time>2026-04-25T10:13:16.039Z</time></trkpt><trkpt lat="43.4619023" lon="12.9938287"><ele>552.0</ele><time>2026-04-25T10:13:17.04Z</time></trkpt><trkpt lat="43.4619808" lon="12.9938238"><ele>552.0</ele><time>2026-04-25T10:13:18.041Z</time></trkpt><trkpt lat="43.4620542" lon="12.9938097"><ele>552.0</ele><time>2026-04-25T10:13:19.04Z</time></trkpt><trkpt lat="43.4621241" lon="12.9937934"><ele>552.0</ele><time>2026-04-25T10:13:20.04Z</time></trkpt><trkpt lat="43.4621892" lon="12.993778"><ele>552.0</ele><time>2026-04-25T10:13:21.039Z</time></trkpt><trkpt lat="43.4622528" lon="12.9937658"><ele>552.0</ele><time>2026-04-25T10:13:22.039Z</time></trkpt><trkpt lat="43.4623169" lon="12.993744"><ele>552.0</ele><time>2026-04-25T10:13:23.041Z</time></trkpt><trkpt lat="43.4623816" lon="12.9937128"><ele>552.0</ele><time>2026-04-25T10:13:24.039Z</time></trkpt><trkpt lat="43.4624485" lon="12.9936752"><ele>552.0</ele><time>2026-04-25T10:13:25.04Z</time></trkpt><trkpt lat="43.4625171" lon="12.9936283"><ele>552.0</ele><time>2026-04-25T10:13:26.039Z</time></trkpt><trkpt lat="43.4625826" lon="12.9935622"><ele>552.0</ele><time>2026-04-25T10:13:27.04Z</time></trkpt><trkpt lat="43.4626465" lon="12.993482"><ele>552.0</ele><time>2026-04-25T10:13:28.039Z</time></trkpt><trkpt lat="43.4627031" lon="12.9933933"><ele>552.0</ele><time>2026-04-25T10:13:29.039Z</time></trkpt><trkpt lat="43.4627515" lon="12.9933096"><ele>552.0</ele><time>2026-04-25T10:13:30.04Z</time></trkpt><trkpt lat="43.4627984" lon="12.9932367"><ele>552.0</ele><time>2026-04-25T10:13:31.039Z</time></trkpt><trkpt lat="43.4628776" lon="12.9931133"><ele>552.0</ele><time>2026-04-25T10:13:33.04Z</time></trkpt><trkpt lat="43.4629491" lon="12.9929933"><ele>549.8333333333334</ele><time>2026-04-25T10:13:35.04Z</time></trkpt><trkpt lat="43.4630335" lon="12.9928655"><ele>547.6666666666666</ele><time>2026-04-25T10:13:37.039Z</time></trkpt><trkpt lat="43.4630882" lon="12.9928061"><ele>545.5</ele><time>2026-04-25T10:13:38.039Z</time></trkpt><trkpt lat="43.4631515" lon="12.9927538"><ele>543.3333333333333</ele><time>2026-04-25T10:13:39.039Z</time></trkpt><trkpt lat="43.4632169" lon="12.9927139"><ele>541.1666666666666</ele><time>2026-04-25T10:13:40.039Z</time></trkpt><trkpt lat="43.4632791" lon="12.9926781"><ele>539.0</ele><time>2026-04-25T10:13:41.04Z</time></trkpt><trkpt lat="43.4633454" lon="12.9926462"><ele>539.0</ele><time>2026-04-25T10:13:42.04Z</time></trkpt><trkpt lat="43.4634189" lon="12.9926131"><ele>539.0</ele><time>2026-04-25T10:13:43.04Z</time></trkpt><trkpt lat="43.4634984" lon="12.9925813"><ele>539.0</ele><time>2026-04-25T10:13:44.039Z</time></trkpt><trkpt lat="43.4635704" lon="12.9925538"><ele>539.0</ele><time>2026-04-25T10:13:45.039Z</time></trkpt><trkpt lat="43.4636441" lon="12.9925344"><ele>539.0</ele><time>2026-04-25T10:13:46.039Z</time></trkpt><trkpt lat="43.4637345" lon="12.9925234"><ele>539.0</ele><time>2026-04-25T10:13:47.04Z</time></trkpt><trkpt lat="43.4638231" lon="12.9925206"><ele>537.8333333333333</ele><time>2026-04-25T10:13:48.04Z</time></trkpt><trkpt lat="43.4639089" lon="12.9925173"><ele>536.6666666666666</ele><time>2026-04-25T10:13:49.04Z</time></trkpt><trkpt lat="43.4639999" lon="12.9925222"><ele>535.5</ele><time>2026-04-25T10:13:50.039Z</time></trkpt><trkpt lat="43.4640866" lon="12.9925262"><ele>534.3333333333334</ele><time>2026-04-25T10:13:51.04Z</time></trkpt><trkpt lat="43.4641639" lon="12.9925262"><ele>533.1666666666667</ele><time>2026-04-25T10:13:52.039Z</time></trkpt><trkpt lat="43.4642412" lon="12.9925195"><ele>532.0</ele><time>2026-04-25T10:13:53.04Z</time></trkpt><trkpt lat="43.4643187" lon="12.9925152"><ele>532.0</ele><time>2026-04-25T10:13:54.039Z</time></trkpt><trkpt lat="43.4643912" lon="12.9925197"><ele>532.0</ele><time>2026-04-25T10:13:55.04Z</time></trkpt><trkpt lat="43.4644578" lon="12.9925235"><ele>532.0</ele><time>2026-04-25T10:13:56.039Z</time></trkpt><trkpt lat="43.4645818" lon="12.9925308"><ele>532.0</ele><time>2026-04-25T10:13:58.04Z</time></trkpt><trkpt lat="43.4646454" lon="12.9925428"><ele>532.0</ele><time>2026-04-25T10:13:59.04Z</time></trkpt><trkpt lat="43.4647095" lon="12.9925665"><ele>532.0</ele><time>2026-04-25T10:14:00.039Z</time></trkpt><trkpt lat="43.4648102" lon="12.9926067"><ele>526.75</ele><time>2026-04-25T10:14:02.04Z</time></trkpt><trkpt lat="43.4647228" lon="12.9925182"><ele>521.5</ele><time>2026-04-25T10:14:09.039Z</time></trkpt><trkpt lat="43.4646149" lon="12.9924704"><ele>516.25</ele><time>2026-04-25T10:14:10.041Z</time></trkpt><trkpt lat="43.4644783" lon="12.9924236"><ele>511.0</ele><time>2026-04-25T10:14:11.039Z</time></trkpt><trkpt lat="43.464358" lon="12.9923856"><ele>510.0</ele><time>2026-04-25T10:14:12.039Z</time></trkpt><trkpt lat="43.4642399" lon="12.9923562"><ele>509.0</ele><time>2026-04-25T10:14:13.04Z</time></trkpt><trkpt lat="43.464135" lon="12.9923377"><ele>508.0</ele><time>2026-04-25T10:14:14.04Z</time></trkpt><trkpt lat="43.4640596" lon="12.9923274"><ele>507.0</ele><time>2026-04-25T10:14:15.039Z</time></trkpt><trkpt lat="43.4639842" lon="12.9923179"><ele>506.0</ele><time>2026-04-25T10:14:16.039Z</time></trkpt><trkpt lat="43.4639084" lon="12.9923058"><ele>506.0</ele><time>2026-04-25T10:14:17.039Z</time></trkpt><trkpt lat="43.4638333" lon="12.9922949"><ele>506.0</ele><time>2026-04-25T10:14:18.039Z</time></trkpt><trkpt lat="43.4637652" lon="12.9922821"><ele>506.0</ele><time>2026-04-25T10:14:19.039Z</time></trkpt><trkpt lat="43.4636527" lon="12.9922664"><ele>506.0</ele><time>2026-04-25T10:14:21.041Z</time></trkpt><trkpt lat="43.4635642" lon="12.9922643"><ele>506.0</ele><time>2026-04-25T10:14:23.041Z</time></trkpt><trkpt lat="43.4634579" lon="12.9922778"><ele>506.99999999999994</ele><time>2026-04-25T10:14:25.04Z</time></trkpt><trkpt lat="43.4633584" lon="12.9922921"><ele>508.0</ele><time>2026-04-25T10:14:27.04Z</time></trkpt><trkpt lat="43.4632603" lon="12.9923031"><ele>509.0</ele><time>2026-04-25T10:14:29.04Z</time></trkpt><trkpt lat="43.463165" lon="12.9923076"><ele>510.0</ele><time>2026-04-25T10:14:31.039Z</time></trkpt><trkpt lat="43.4630866" lon="12.9922932"><ele>510.99999999999994</ele><time>2026-04-25T10:14:33.04Z</time></trkpt><trkpt lat="43.4630192" lon="12.9922649"><ele>512.0</ele><time>2026-04-25T10:14:35.039Z</time></trkpt><trkpt lat="43.462954" lon="12.9922505"><ele>511.99999999999994</ele><time>2026-04-25T10:14:38.039Z</time></trkpt><trkpt lat="43.4630399" lon="12.9923121"><ele>512.0</ele><time>2026-04-25T10:14:48.04Z</time></trkpt><trkpt lat="43.4631055" lon="12.9923096"><ele>512.0</ele><time>2026-04-25T10:14:49.039Z</time></trkpt><trkpt lat="43.4631794" lon="12.9923145"><ele>512.0</ele><time>2026-04-25T10:14:50.04Z</time></trkpt><trkpt lat="43.4632549" lon="12.9923136"><ele>511.99999999999994</ele><time>2026-04-25T10:14:51.04Z</time></trkpt><trkpt lat="43.4633356" lon="12.9923058"><ele>512.0</ele><time>2026-04-25T10:14:52.039Z</time></trkpt><trkpt lat="43.4634229" lon="12.992293"><ele>511.99999999999994</ele><time>2026-04-25T10:14:53.04Z</time></trkpt><trkpt lat="43.4635155" lon="12.9922753"><ele>512.0</ele><time>2026-04-25T10:14:54.039Z</time></trkpt><trkpt lat="43.463601" lon="12.9922664"><ele>512.0</ele><time>2026-04-25T10:14:55.039Z</time></trkpt><trkpt lat="43.4636764" lon="12.9922706"><ele>512.0</ele><time>2026-04-25T10:14:56.039Z</time></trkpt><trkpt lat="43.4637503" lon="12.9922836"><ele>511.99999999999994</ele><time>2026-04-25T10:14:57.039Z</time></trkpt><trkpt lat="43.463825" lon="12.9923007"><ele>512.0</ele><time>2026-04-25T10:14:58.039Z</time></trkpt><trkpt lat="43.463893" lon="12.9923152"><ele>510.99999999999994</ele><time>2026-04-25T10:14:59.039Z</time></trkpt><trkpt lat="43.4639734" lon="12.9923283"><ele>510.0</ele><time>2026-04-25T10:15:00.04Z</time></trkpt><trkpt lat="43.464053" lon="12.9923382"><ele>509.0</ele><time>2026-04-25T10:15:01.039Z</time></trkpt><trkpt lat="43.4641219" lon="12.992349"><ele>508.0</ele><time>2026-04-25T10:15:02.04Z</time></trkpt><trkpt lat="43.4641851" lon="12.9923605"><ele>506.99999999999994</ele><time>2026-04-25T10:15:03.041Z</time></trkpt><trkpt lat="43.4642652" lon="12.9923767"><ele>506.0</ele><time>2026-04-25T10:15:04.039Z</time></trkpt><trkpt lat="43.4643641" lon="12.9923987"><ele>505.99999999999994</ele><time>2026-04-25T10:15:05.04Z</time></trkpt><trkpt lat="43.4644649" lon="12.9924238"><ele>506.0</ele><time>2026-04-25T10:15:06.039Z</time></trkpt><trkpt lat="43.4645584" lon="12.9924526"><ele>506.0</ele><time>2026-04-25T10:15:07.04Z</time></trkpt><trkpt lat="43.4646439" lon="12.9924826"><ele>506.0</ele><time>2026-04-25T10:15:08.039Z</time></trkpt><trkpt lat="43.4647196" lon="12.9925138"><ele>505.99999999999994</ele><time>2026-04-25T10:15:09.039Z</time></trkpt><trkpt lat="43.4647889" lon="12.9925486"><ele>506.0</ele><time>2026-04-25T10:15:10.039Z</time></trkpt><trkpt lat="43.4648507" lon="12.9925885"><ele>506.7142857142858</ele><time>2026-04-25T10:15:11.039Z</time></trkpt><trkpt lat="43.4649064" lon="12.9926325"><ele>507.42857142857144</ele><time>2026-04-25T10:15:12.041Z</time></trkpt><trkpt lat="43.4649613" lon="12.9926816"><ele>508.14285714285717</ele><time>2026-04-25T10:15:13.04Z</time></trkpt><trkpt lat="43.4650208" lon="12.992738"><ele>508.8571428571429</ele><time>2026-04-25T10:15:14.04Z</time></trkpt><trkpt lat="43.4650809" lon="12.9927994"><ele>509.57142857142856</ele><time>2026-04-25T10:15:15.039Z</time></trkpt><trkpt lat="43.4651362" lon="12.9928641"><ele>510.2857142857143</ele><time>2026-04-25T10:15:16.041Z</time></trkpt><trkpt lat="43.4652009" lon="12.9929352"><ele>511.0</ele><time>2026-04-25T10:15:18.04Z</time></trkpt><trkpt lat="43.4652162" lon="12.9928366"><ele>511.00000000000006</ele><time>2026-04-25T10:15:22.04Z</time></trkpt><trkpt lat="43.4651866" lon="12.9927368"><ele>511.0</ele><time>2026-04-25T10:15:23.039Z</time></trkpt><trkpt lat="43.46515" lon="12.9926132"><ele>511.0</ele><time>2026-04-25T10:15:24.039Z</time></trkpt><trkpt lat="43.4651204" lon="12.9925126"><ele>511.0</ele><time>2026-04-25T10:15:25.039Z</time></trkpt><trkpt lat="43.4650781" lon="12.9924103"><ele>511.00000000000006</ele><time>2026-04-25T10:15:26.041Z</time></trkpt><trkpt lat="43.4650276" lon="12.9922905"><ele>511.0</ele><time>2026-04-25T10:15:27.041Z</time></trkpt><trkpt lat="43.4649875" lon="12.9921801"><ele>510.1666666666667</ele><time>2026-04-25T10:15:28.039Z</time></trkpt><trkpt lat="43.4649429" lon="12.992084"><ele>509.33333333333337</ele><time>2026-04-25T10:15:29.039Z</time></trkpt><trkpt lat="43.4648971" lon="12.9920089"><ele>508.5</ele><time>2026-04-25T10:15:30.04Z</time></trkpt><trkpt lat="43.4648252" lon="12.9919247"><ele>507.66666666666663</ele><time>2026-04-25T10:15:32.039Z</time></trkpt><trkpt lat="43.4647093" lon="12.9919029"><ele>506.8333333333333</ele><time>2026-04-25T10:15:34.039Z</time></trkpt><trkpt lat="43.4646349" lon="12.9918827"><ele>506.0</ele><time>2026-04-25T10:15:35.039Z</time></trkpt><trkpt lat="43.4645693" lon="12.9918375"><ele>505.99999999999994</ele><time>2026-04-25T10:15:36.039Z</time></trkpt><trkpt lat="43.464502" lon="12.9917635"><ele>506.0</ele><time>2026-04-25T10:15:37.039Z</time></trkpt><trkpt lat="43.4644428" lon="12.9917001"><ele>506.0</ele><time>2026-04-25T10:15:38.039Z</time></trkpt><trkpt lat="43.4643846" lon="12.9916617"><ele>506.0</ele><time>2026-04-25T10:15:39.04Z</time></trkpt><trkpt lat="43.4643129" lon="12.9916429"><ele>505.99999999999994</ele><time>2026-04-25T10:15:40.041Z</time></trkpt><trkpt lat="43.4642203" lon="12.9916315"><ele>506.0</ele><time>2026-04-25T10:15:41.04Z</time></trkpt><trkpt lat="43.4641228" lon="12.9916043"><ele>502.3333333333333</ele><time>2026-04-25T10:15:42.039Z</time></trkpt><trkpt lat="43.4640386" lon="12.9915647"><ele>498.66666666666663</ele><time>2026-04-25T10:15:43.039Z</time></trkpt><trkpt lat="43.4639604" lon="12.9915238"><ele>495.0</ele><time>2026-04-25T10:15:44.039Z</time></trkpt><trkpt lat="43.463876" lon="12.9914806"><ele>491.33333333333337</ele><time>2026-04-25T10:15:45.039Z</time></trkpt><trkpt lat="43.4637937" lon="12.9914388"><ele>487.6666666666667</ele><time>2026-04-25T10:15:46.039Z</time></trkpt><trkpt lat="43.4637141" lon="12.9914084"><ele>484.0</ele><time>2026-04-25T10:15:47.04Z</time></trkpt><trkpt lat="43.4636326" lon="12.9913902"><ele>484.00000000000006</ele><time>2026-04-25T10:15:48.039Z</time></trkpt><trkpt lat="43.4635462" lon="12.9913815"><ele>484.0</ele><time>2026-04-25T10:15:49.04Z</time></trkpt><trkpt lat="43.4634617" lon="12.9913776"><ele>484.0</ele><time>2026-04-25T10:15:50.039Z</time></trkpt><trkpt lat="43.4633795" lon="12.991366"><ele>484.0</ele><time>2026-04-25T10:15:51.039Z</time></trkpt><trkpt lat="43.4632918" lon="12.99136"><ele>484.00000000000006</ele><time>2026-04-25T10:15:52.04Z</time></trkpt><trkpt lat="43.4631871" lon="12.9913614"><ele>484.0</ele><time>2026-04-25T10:15:53.039Z</time></trkpt><trkpt lat="43.4630715" lon="12.9913745"><ele>484.0</ele><time>2026-04-25T10:15:54.04Z</time></trkpt><trkpt lat="43.4629605" lon="12.9913849"><ele>484.0</ele><time>2026-04-25T10:15:55.041Z</time></trkpt><trkpt lat="43.4628572" lon="12.9913865"><ele>484.0</ele><time>2026-04-25T10:15:56.04Z</time></trkpt><trkpt lat="43.4627514" lon="12.9913735"><ele>484.0</ele><time>2026-04-25T10:15:57.04Z</time></trkpt><trkpt lat="43.4626501" lon="12.9913558"><ele>484.0</ele><time>2026-04-25T10:15:58.039Z</time></trkpt><trkpt lat="43.4625516" lon="12.991346"><ele>483.4</ele><time>2026-04-25T10:15:59.039Z</time></trkpt><trkpt lat="43.4624441" lon="12.9913439"><ele>482.79999999999995</ele><time>2026-04-25T10:16:00.039Z</time></trkpt><trkpt lat="43.4623323" lon="12.9913484"><ele>482.20000000000005</ele><time>2026-04-25T10:16:01.04Z</time></trkpt><trkpt lat="43.4622159" lon="12.9913632"><ele>481.6</ele><time>2026-04-25T10:16:02.04Z</time></trkpt><trkpt lat="43.462104" lon="12.991385"><ele>481.0</ele><time>2026-04-25T10:16:03.039Z</time></trkpt><trkpt lat="43.4619988" lon="12.9914008"><ele>479.20000000000005</ele><time>2026-04-25T10:16:04.039Z</time></trkpt><trkpt lat="43.4619014" lon="12.9914176"><ele>477.40000000000003</ele><time>2026-04-25T10:16:05.04Z</time></trkpt><trkpt lat="43.461805" lon="12.9914359"><ele>475.6</ele><time>2026-04-25T10:16:06.04Z</time></trkpt><trkpt lat="43.4617132" lon="12.9914575"><ele>473.8</ele><time>2026-04-25T10:16:07.041Z</time></trkpt><trkpt lat="43.4616222" lon="12.9914892"><ele>472.0</ele><time>2026-04-25T10:16:08.04Z</time></trkpt><trkpt lat="43.461514" lon="12.9915385"><ele>472.0</ele><time>2026-04-25T10:16:09.04Z</time></trkpt><trkpt lat="43.4613964" lon="12.9915906"><ele>472.00000000000006</ele><time>2026-04-25T10:16:10.04Z</time></trkpt><trkpt lat="43.4612857" lon="12.9916334"><ele>472.00000000000006</ele><time>2026-04-25T10:16:11.039Z</time></trkpt><trkpt lat="43.4611821" lon="12.991668"><ele>472.0</ele><time>2026-04-25T10:16:12.039Z</time></trkpt><trkpt lat="43.4610845" lon="12.9917034"><ele>472.0</ele><time>2026-04-25T10:16:13.039Z</time></trkpt><trkpt lat="43.4609912" lon="12.9917426"><ele>474.1666666666667</ele><time>2026-04-25T10:16:14.04Z</time></trkpt><trkpt lat="43.4608925" lon="12.9917734"><ele>476.33333333333337</ele><time>2026-04-25T10:16:15.039Z</time></trkpt><trkpt lat="43.460803" lon="12.9917837"><ele>478.5</ele><time>2026-04-25T10:16:16.04Z</time></trkpt><trkpt lat="43.4607313" lon="12.991775"><ele>480.66666666666663</ele><time>2026-04-25T10:16:17.039Z</time></trkpt><trkpt lat="43.4606711" lon="12.9917428"><ele>482.8333333333333</ele><time>2026-04-25T10:16:18.039Z</time></trkpt><trkpt lat="43.4606056" lon="12.9916656"><ele>485.0</ele><time>2026-04-25T10:16:19.04Z</time></trkpt><trkpt lat="43.4605411" lon="12.9915628"><ele>479.8</ele><time>2026-04-25T10:16:20.039Z</time></trkpt><trkpt lat="43.4604797" lon="12.9914746"><ele>474.6</ele><time>2026-04-25T10:16:21.04Z</time></trkpt><trkpt lat="43.4604184" lon="12.9914135"><ele>469.4</ele><time>2026-04-25T10:16:22.039Z</time></trkpt><trkpt lat="43.4603498" lon="12.9913771"><ele>464.2</ele><time>2026-04-25T10:16:23.04Z</time></trkpt><trkpt lat="43.4602541" lon="12.991348"><ele>459.0</ele><time>2026-04-25T10:16:24.04Z</time></trkpt><trkpt lat="43.4601357" lon="12.9913274"><ele>458.6</ele><time>2026-04-25T10:16:25.04Z</time></trkpt><trkpt lat="43.4600176" lon="12.9913135"><ele>458.2</ele><time>2026-04-25T10:16:26.04Z</time></trkpt><trkpt lat="43.4599247" lon="12.991296"><ele>457.80000000000007</ele><time>2026-04-25T10:16:27.039Z</time></trkpt><trkpt lat="43.4598473" lon="12.9912682"><ele>457.40000000000003</ele><time>2026-04-25T10:16:28.039Z</time></trkpt><trkpt lat="43.4597665" lon="12.9912218"><ele>457.0</ele><time>2026-04-25T10:16:29.04Z</time></trkpt><trkpt lat="43.4596553" lon="12.9911466"><ele>453.6666666666667</ele><time>2026-04-25T10:16:30.039Z</time></trkpt><trkpt lat="43.459528" lon="12.9910468"><ele>450.33333333333337</ele><time>2026-04-25T10:16:31.039Z</time></trkpt><trkpt lat="43.4594196" lon="12.9909514"><ele>447.0</ele><time>2026-04-25T10:16:32.04Z</time></trkpt><trkpt lat="43.4592482" lon="12.9907826"><ele>447.0</ele><time>2026-04-25T10:16:34.039Z</time></trkpt><trkpt lat="43.45914" lon="12.9906221"><ele>447.00000000000006</ele><time>2026-04-25T10:16:36.04Z</time></trkpt><trkpt lat="43.4590939" lon="12.990527"><ele>447.00000000000006</ele><time>2026-04-25T10:16:37.04Z</time></trkpt><trkpt lat="43.4590462" lon="12.9904026"><ele>447.0</ele><time>2026-04-25T10:16:38.039Z</time></trkpt><trkpt lat="43.4590021" lon="12.9902734"><ele>447.0</ele><time>2026-04-25T10:16:39.039Z</time></trkpt><trkpt lat="43.4589607" lon="12.9901603"><ele>447.0</ele><time>2026-04-25T10:16:40.04Z</time></trkpt><trkpt lat="43.4589166" lon="12.9900572"><ele>447.0</ele><time>2026-04-25T10:16:41.04Z</time></trkpt><trkpt lat="43.4588756" lon="12.9899645"><ele>447.0</ele><time>2026-04-25T10:16:42.039Z</time></trkpt><trkpt lat="43.4588307" lon="12.9898858"><ele>447.0</ele><time>2026-04-25T10:16:43.04Z</time></trkpt><trkpt lat="43.4587735" lon="12.9898245"><ele>447.0</ele><time>2026-04-25T10:16:44.039Z</time></trkpt><trkpt lat="43.4587085" lon="12.9897684"><ele>447.0</ele><time>2026-04-25T10:16:45.04Z</time></trkpt><trkpt lat="43.4586386" lon="12.9897117"><ele>446.6666666666667</ele><time>2026-04-25T10:16:46.04Z</time></trkpt><trkpt lat="43.4585591" lon="12.9896563"><ele>446.33333333333337</ele><time>2026-04-25T10:16:47.04Z</time></trkpt><trkpt lat="43.4584738" lon="12.9895995"><ele>446.0</ele><time>2026-04-25T10:16:48.04Z</time></trkpt><trkpt lat="43.458395" lon="12.9895342"><ele>445.6666666666667</ele><time>2026-04-25T10:16:49.04Z</time></trkpt><trkpt lat="43.4583267" lon="12.9894663"><ele>445.33333333333337</ele><time>2026-04-25T10:16:50.039Z</time></trkpt><trkpt lat="43.4582639" lon="12.9893953"><ele>445.0</ele><time>2026-04-25T10:16:51.039Z</time></trkpt><trkpt lat="43.4582013" lon="12.9893261"><ele>445.00000000000006</ele><time>2026-04-25T10:16:52.04Z</time></trkpt><trkpt lat="43.4581379" lon="12.9892666"><ele>445.0</ele><time>2026-04-25T10:16:53.04Z</time></trkpt><trkpt lat="43.4580641" lon="12.9892243"><ele>445.0</ele><time>2026-04-25T10:16:54.039Z</time></trkpt><trkpt lat="43.4579749" lon="12.9891994"><ele>445.0</ele><time>2026-04-25T10:16:55.039Z</time></trkpt><trkpt lat="43.4578767" lon="12.9891779"><ele>445.00000000000006</ele><time>2026-04-25T10:16:56.04Z</time></trkpt><trkpt lat="43.4577841" lon="12.9891663"><ele>445.0</ele><time>2026-04-25T10:16:57.041Z</time></trkpt><trkpt lat="43.4576856" lon="12.989157"><ele>440.83333333333337</ele><time>2026-04-25T10:16:58.039Z</time></trkpt><trkpt lat="43.4575885" lon="12.9891456"><ele>436.6666666666667</ele><time>2026-04-25T10:16:59.039Z</time></trkpt><trkpt lat="43.4575014" lon="12.9891263"><ele>432.5</ele><time>2026-04-25T10:17:00.039Z</time></trkpt><trkpt lat="43.4574229" lon="12.9891064"><ele>428.33333333333337</ele><time>2026-04-25T10:17:01.04Z</time></trkpt><trkpt lat="43.4573586" lon="12.989092"><ele>424.1666666666667</ele><time>2026-04-25T10:17:02.041Z</time></trkpt><trkpt lat="43.4572693" lon="12.989081"><ele>420.0</ele><time>2026-04-25T10:17:04.04Z</time></trkpt><trkpt lat="43.457198" lon="12.9890711"><ele>420.0</ele><time>2026-04-25T10:17:07.04Z</time></trkpt><trkpt lat="43.457162" lon="12.988982"><ele>420.0</ele><time>2026-04-25T10:17:12.04Z</time></trkpt><trkpt lat="43.4572098" lon="12.9888865"><ele>420.0</ele><time>2026-04-25T10:17:16.039Z</time></trkpt><trkpt lat="43.4572907" lon="12.9888194"><ele>420.0</ele><time>2026-04-25T10:17:19.04Z</time></trkpt><trkpt lat="43.4573734" lon="12.9887759"><ele>420.0</ele><time>2026-04-25T10:17:22.039Z</time></trkpt><trkpt lat="43.4574334" lon="12.9887456"><ele>420.0</ele><time>2026-04-25T10:17:25.04Z</time></trkpt><trkpt lat="43.457502" lon="12.9887187"><ele>420.0</ele><time>2026-04-25T10:17:28.039Z</time></trkpt><trkpt lat="43.4575669" lon="12.9886991"><ele>420.0</ele><time>2026-04-25T10:17:30.039Z</time></trkpt><trkpt lat="43.4576665" lon="12.9886742"><ele>420.0</ele><time>2026-04-25T10:17:32.039Z</time></trkpt><trkpt lat="43.4577603" lon="12.9886436"><ele>420.0</ele><time>2026-04-25T10:17:34.039Z</time></trkpt><trkpt lat="43.4578566" lon="12.9886117"><ele>420.0</ele><time>2026-04-25T10:17:36.039Z</time></trkpt><trkpt lat="43.4579154" lon="12.9885713"><ele>420.0</ele><time>2026-04-25T10:17:38.039Z</time></trkpt><trkpt lat="43.4578598" lon="12.9885285"><ele>420.0</ele><time>2026-04-25T10:17:44.04Z</time></trkpt><trkpt lat="43.4577674" lon="12.9885293"><ele>420.0</ele><time>2026-04-25T10:17:46.04Z</time></trkpt><trkpt lat="43.4576645" lon="12.9885233"><ele>420.0</ele><time>2026-04-25T10:17:48.041Z</time></trkpt><trkpt lat="43.4575399" lon="12.9885139"><ele>420.0</ele><time>2026-04-25T10:17:50.039Z</time></trkpt><trkpt lat="43.4574263" lon="12.9884824"><ele>420.0</ele><time>2026-04-25T10:17:52.04Z</time></trkpt><trkpt lat="43.4573231" lon="12.988424"><ele>420.0</ele><time>2026-04-25T10:17:54.039Z</time></trkpt><trkpt lat="43.4572376" lon="12.9883679"><ele>420.0</ele><time>2026-04-25T10:17:56.039Z</time></trkpt><trkpt lat="43.4571401" lon="12.9883052"><ele>420.0</ele><time>2026-04-25T10:17:58.04Z</time></trkpt><trkpt lat="43.4570554" lon="12.9882553"><ele>420.0</ele><time>2026-04-25T10:18:00.04Z</time></trkpt><trkpt lat="43.4569921" lon="12.9882341"><ele>420.0</ele><time>2026-04-25T10:18:02.04Z</time></trkpt><trkpt lat="43.4569032" lon="12.9882073"><ele>416.0</ele><time>2026-04-25T10:18:04.04Z</time></trkpt><trkpt lat="43.4568379" lon="12.9881454"><ele>412.0</ele><time>2026-04-25T10:18:07.039Z</time></trkpt><trkpt lat="43.4568671" lon="12.9880599"><ele>408.0</ele><time>2026-04-25T10:18:09.039Z</time></trkpt><trkpt lat="43.4569349" lon="12.9879557"><ele>404.0</ele><time>2026-04-25T10:18:11.04Z</time></trkpt><trkpt lat="43.4570092" lon="12.9878968"><ele>400.0</ele><time>2026-04-25T10:18:14.041Z</time></trkpt><trkpt lat="43.4571035" lon="12.987931"><ele>396.0</ele><time>2026-04-25T10:18:16.039Z</time></trkpt><trkpt lat="43.4571806" lon="12.9879635"><ele>395.5</ele><time>2026-04-25T10:18:17.04Z</time></trkpt><trkpt lat="43.4572611" lon="12.9879818"><ele>395.0</ele><time>2026-04-25T10:18:18.04Z</time></trkpt><trkpt lat="43.4573376" lon="12.987997"><ele>394.5</ele><time>2026-04-25T10:18:19.039Z</time></trkpt><trkpt lat="43.4574168" lon="12.9880199"><ele>394.0</ele><time>2026-04-25T10:18:20.04Z</time></trkpt><trkpt lat="43.4574962" lon="12.9880377"><ele>393.5</ele><time>2026-04-25T10:18:21.039Z</time></trkpt><trkpt lat="43.4575635" lon="12.9880426"><ele>393.0</ele><time>2026-04-25T10:18:22.039Z</time></trkpt><trkpt lat="43.4576394" lon="12.9880401"><ele>393.0</ele><time>2026-04-25T10:18:23.04Z</time></trkpt><trkpt lat="43.4577224" lon="12.988033"><ele>393.0</ele><time>2026-04-25T10:18:24.039Z</time></trkpt><trkpt lat="43.4577892" lon="12.9880315"><ele>393.0</ele><time>2026-04-25T10:18:25.04Z</time></trkpt><trkpt lat="43.457908" lon="12.9880339"><ele>393.0</ele><time>2026-04-25T10:18:27.039Z</time></trkpt><trkpt lat="43.4580844" lon="12.9879765"><ele>392.4</ele><time>2026-04-25T10:18:30.039Z</time></trkpt><trkpt lat="43.4582046" lon="12.9879281"><ele>391.79999999999995</ele><time>2026-04-25T10:18:32.039Z</time></trkpt><trkpt lat="43.4583189" lon="12.987947"><ele>391.2</ele><time>2026-04-25T10:18:34.039Z</time></trkpt><trkpt lat="43.4584339" lon="12.9879739"><ele>390.6</ele><time>2026-04-25T10:18:36.04Z</time></trkpt><trkpt lat="43.4584965" lon="12.9879538"><ele>390.0</ele><time>2026-04-25T10:18:37.04Z</time></trkpt><trkpt lat="43.4585755" lon="12.9879344"><ele>390.0</ele><time>2026-04-25T10:18:38.039Z</time></trkpt><trkpt lat="43.4586499" lon="12.987919"><ele>390.0</ele><time>2026-04-25T10:18:39.04Z</time></trkpt><trkpt lat="43.4587112" lon="12.9878941"><ele>390.0</ele><time>2026-04-25T10:18:40.04Z</time></trkpt><trkpt lat="43.4587712" lon="12.9878529"><ele>390.0</ele><time>2026-04-25T10:18:41.039Z</time></trkpt><trkpt lat="43.4588358" lon="12.9877502"><ele>390.0</ele><time>2026-04-25T10:18:43.039Z</time></trkpt><trkpt lat="43.4588331" lon="12.9876112"><ele>390.0</ele><time>2026-04-25T10:18:45.04Z</time></trkpt><trkpt lat="43.4588353" lon="12.9875176"><ele>386.8</ele><time>2026-04-25T10:18:46.041Z</time></trkpt><trkpt lat="43.4588858" lon="12.9873859"><ele>383.6</ele><time>2026-04-25T10:18:48.039Z</time></trkpt><trkpt lat="43.4589827" lon="12.987316"><ele>380.4</ele><time>2026-04-25T10:18:50.04Z</time></trkpt><trkpt lat="43.4590452" lon="12.9872905"><ele>377.2</ele><time>2026-04-25T10:18:51.04Z</time></trkpt><trkpt lat="43.4591731" lon="12.9872084"><ele>374.0</ele><time>2026-04-25T10:18:53.04Z</time></trkpt><trkpt lat="43.4592454" lon="12.9871516"><ele>374.0</ele><time>2026-04-25T10:18:54.04Z</time></trkpt><trkpt lat="43.4593113" lon="12.9871087"><ele>374.0</ele><time>2026-04-25T10:18:55.039Z</time></trkpt><trkpt lat="43.4593712" lon="12.9870772"><ele>374.0</ele><time>2026-04-25T10:18:56.041Z</time></trkpt><trkpt lat="43.4594434" lon="12.9870371"><ele>374.0</ele><time>2026-04-25T10:18:57.04Z</time></trkpt><trkpt lat="43.4595269" lon="12.9869823"><ele>374.0</ele><time>2026-04-25T10:18:58.04Z</time></trkpt><trkpt lat="43.4596114" lon="12.9869261"><ele>374.0</ele><time>2026-04-25T10:18:59.04Z</time></trkpt><trkpt lat="43.4596993" lon="12.9868752"><ele>373.6</ele><time>2026-04-25T10:19:00.039Z</time></trkpt><trkpt lat="43.4597949" lon="12.9868312"><ele>373.2</ele><time>2026-04-25T10:19:01.04Z</time></trkpt><trkpt lat="43.4598856" lon="12.9868"><ele>372.8</ele><time>2026-04-25T10:19:02.039Z</time></trkpt><trkpt lat="43.4599838" lon="12.9867575"><ele>372.40000000000003</ele><time>2026-04-25T10:19:03.039Z</time></trkpt><trkpt lat="43.4600797" lon="12.9867107"><ele>372.0</ele><time>2026-04-25T10:19:04.039Z</time></trkpt><trkpt lat="43.4601743" lon="12.9866666"><ele>373.3333333333333</ele><time>2026-04-25T10:19:05.039Z</time></trkpt><trkpt lat="43.4602559" lon="12.9866293"><ele>374.6666666666667</ele><time>2026-04-25T10:19:06.04Z</time></trkpt><trkpt lat="43.4603319" lon="12.9865968"><ele>376.0</ele><time>2026-04-25T10:19:07.04Z</time></trkpt><trkpt lat="43.4604133" lon="12.9865585"><ele>377.33333333333337</ele><time>2026-04-25T10:19:08.04Z</time></trkpt><trkpt lat="43.4605037" lon="12.9865121"><ele>378.6666666666667</ele><time>2026-04-25T10:19:09.039Z</time></trkpt><trkpt lat="43.4605919" lon="12.9864752"><ele>380.0</ele><time>2026-04-25T10:19:10.041Z</time></trkpt><trkpt lat="43.4606767" lon="12.9864521"><ele>380.0</ele><time>2026-04-25T10:19:11.039Z</time></trkpt><trkpt lat="43.4607772" lon="12.9864342"><ele>380.0</ele><time>2026-04-25T10:19:12.039Z</time></trkpt><trkpt lat="43.4608825" lon="12.986424"><ele>380.0</ele><time>2026-04-25T10:19:13.041Z</time></trkpt><trkpt lat="43.4609968" lon="12.9864241"><ele>380.0</ele><time>2026-04-25T10:19:14.039Z</time></trkpt><trkpt lat="43.4611035" lon="12.9864241"><ele>380.0</ele><time>2026-04-25T10:19:15.04Z</time></trkpt><trkpt lat="43.4612007" lon="12.9864257"><ele>378.6666666666667</ele><time>2026-04-25T10:19:16.04Z</time></trkpt><trkpt lat="43.4612921" lon="12.9864269"><ele>377.33333333333337</ele><time>2026-04-25T10:19:17.039Z</time></trkpt><trkpt lat="43.4613781" lon="12.9864243"><ele>376.0</ele><time>2026-04-25T10:19:18.041Z</time></trkpt><trkpt lat="43.4614555" lon="12.9864182"><ele>374.6666666666667</ele><time>2026-04-25T10:19:19.039Z</time></trkpt><trkpt lat="43.4615347" lon="12.9864153"><ele>373.3333333333333</ele><time>2026-04-25T10:19:20.039Z</time></trkpt><trkpt lat="43.4616174" lon="12.9864142"><ele>372.0</ele><time>2026-04-25T10:19:21.041Z</time></trkpt><trkpt lat="43.4617063" lon="12.9864163"><ele>372.0</ele><time>2026-04-25T10:19:22.039Z</time></trkpt><trkpt lat="43.4617973" lon="12.9864124"><ele>372.0</ele><time>2026-04-25T10:19:23.04Z</time></trkpt><trkpt lat="43.4618793" lon="12.9863999"><ele>372.0</ele><time>2026-04-25T10:19:24.039Z</time></trkpt><trkpt lat="43.4619557" lon="12.9863749"><ele>372.0</ele><time>2026-04-25T10:19:25.04Z</time></trkpt><trkpt lat="43.4620453" lon="12.9863355"><ele>372.0</ele><time>2026-04-25T10:19:26.04Z</time></trkpt><trkpt lat="43.4621375" lon="12.9862871"><ele>372.0</ele><time>2026-04-25T10:19:27.039Z</time></trkpt><trkpt lat="43.4622328" lon="12.9862294"><ele>370.0</ele><time>2026-04-25T10:19:28.041Z</time></trkpt><trkpt lat="43.4623229" lon="12.9861774"><ele>368.0</ele><time>2026-04-25T10:19:29.039Z</time></trkpt><trkpt lat="43.4623955" lon="12.9861343"><ele>366.0</ele><time>2026-04-25T10:19:30.039Z</time></trkpt><trkpt lat="43.4624649" lon="12.9860874"><ele>364.0</ele><time>2026-04-25T10:19:31.04Z</time></trkpt><trkpt lat="43.4625347" lon="12.9860293"><ele>362.0</ele><time>2026-04-25T10:19:32.04Z</time></trkpt><trkpt lat="43.4626102" lon="12.9859459"><ele>360.0</ele><time>2026-04-25T10:19:33.039Z</time></trkpt><trkpt lat="43.4626839" lon="12.985866"><ele>360.8</ele><time>2026-04-25T10:19:34.039Z</time></trkpt><trkpt lat="43.462773" lon="12.9857938"><ele>361.6</ele><time>2026-04-25T10:19:35.04Z</time></trkpt><trkpt lat="43.4628722" lon="12.9857312"><ele>362.4</ele><time>2026-04-25T10:19:36.04Z</time></trkpt><trkpt lat="43.4629641" lon="12.9856752"><ele>363.2</ele><time>2026-04-25T10:19:37.041Z</time></trkpt><trkpt lat="43.4630519" lon="12.9856201"><ele>364.0</ele><time>2026-04-25T10:19:38.04Z</time></trkpt><trkpt lat="43.4631363" lon="12.9855726"><ele>364.0</ele><time>2026-04-25T10:19:39.04Z</time></trkpt><trkpt lat="43.4632203" lon="12.9855339"><ele>364.0</ele><time>2026-04-25T10:19:40.039Z</time></trkpt><trkpt lat="43.4633038" lon="12.9854935"><ele>364.0</ele><time>2026-04-25T10:19:41.04Z</time></trkpt><trkpt lat="43.4633828" lon="12.985453"><ele>364.0</ele><time>2026-04-25T10:19:42.039Z</time></trkpt><trkpt lat="43.4634591" lon="12.9854094"><ele>364.0</ele><time>2026-04-25T10:19:43.039Z</time></trkpt><trkpt lat="43.4635377" lon="12.9853666"><ele>364.0</ele><time>2026-04-25T10:19:44.04Z</time></trkpt><trkpt lat="43.4636135" lon="12.9853181"><ele>364.0</ele><time>2026-04-25T10:19:45.04Z</time></trkpt><trkpt lat="43.4636879" lon="12.9852739"><ele>364.0</ele><time>2026-04-25T10:19:46.04Z</time></trkpt><trkpt lat="43.463764" lon="12.9852281"><ele>364.0</ele><time>2026-04-25T10:19:47.039Z</time></trkpt><trkpt lat="43.4638392" lon="12.9851763"><ele>364.0</ele><time>2026-04-25T10:19:48.039Z</time></trkpt><trkpt lat="43.4639182" lon="12.9851268"><ele>364.0</ele><time>2026-04-25T10:19:49.039Z</time></trkpt><trkpt lat="43.4639963" lon="12.9850833"><ele>364.0</ele><time>2026-04-25T10:19:50.04Z</time></trkpt><trkpt lat="43.4640739" lon="12.9850492"><ele>363.5</ele><time>2026-04-25T10:19:51.039Z</time></trkpt><trkpt lat="43.4641474" lon="12.9850132"><ele>363.0</ele><time>2026-04-25T10:19:52.04Z</time></trkpt><trkpt lat="43.4642212" lon="12.9849691"><ele>362.5</ele><time>2026-04-25T10:19:53.04Z</time></trkpt><trkpt lat="43.4642867" lon="12.9849187"><ele>362.0</ele><time>2026-04-25T10:19:54.041Z</time></trkpt><trkpt lat="43.4643446" lon="12.9848668"><ele>361.5</ele><time>2026-04-25T10:19:55.039Z</time></trkpt><trkpt lat="43.4644081" lon="12.9848064"><ele>361.0</ele><time>2026-04-25T10:19:56.04Z</time></trkpt><trkpt lat="43.4644781" lon="12.9847391"><ele>361.0</ele><time>2026-04-25T10:19:57.04Z</time></trkpt><trkpt lat="43.4645436" lon="12.9846789"><ele>361.0</ele><time>2026-04-25T10:19:58.04Z</time></trkpt><trkpt lat="43.4646081" lon="12.9846233"><ele>361.0</ele><time>2026-04-25T10:19:59.04Z</time></trkpt><trkpt lat="43.4646728" lon="12.9845677"><ele>361.0</ele><time>2026-04-25T10:20:00.039Z</time></trkpt><trkpt lat="43.4647281" lon="12.9845193"><ele>361.0</ele><time>2026-04-25T10:20:01.039Z</time></trkpt><trkpt lat="43.464781" lon="12.9844642"><ele>361.0</ele><time>2026-04-25T10:20:03.04Z</time></trkpt><trkpt lat="43.4648411" lon="12.9843986"><ele>361.0</ele><time>2026-04-25T10:20:05.039Z</time></trkpt><trkpt lat="43.4649223" lon="12.984305"><ele>358.5</ele><time>2026-04-25T10:20:07.04Z</time></trkpt><trkpt lat="43.464988" lon="12.9842548"><ele>356.0</ele><time>2026-04-25T10:20:08.039Z</time></trkpt><trkpt lat="43.4650514" lon="12.9842095"><ele>353.5</ele><time>2026-04-25T10:20:09.039Z</time></trkpt><trkpt lat="43.4651558" lon="12.9841445"><ele>351.0</ele><time>2026-04-25T10:20:11.041Z</time></trkpt><trkpt lat="43.4652438" lon="12.9841187"><ele>348.5</ele><time>2026-04-25T10:20:13.039Z</time></trkpt><trkpt lat="43.4653227" lon="12.9841035"><ele>346.0</ele><time>2026-04-25T10:20:16.039Z</time></trkpt><trkpt lat="43.4654026" lon="12.9841285"><ele>346.4</ele><time>2026-04-25T10:20:19.039Z</time></trkpt><trkpt lat="43.4654559" lon="12.9842659"><ele>346.8</ele><time>2026-04-25T10:20:21.04Z</time></trkpt><trkpt lat="43.4654944" lon="12.9844157"><ele>347.2</ele><time>2026-04-25T10:20:23.041Z</time></trkpt><trkpt lat="43.4655765" lon="12.9844977"><ele>347.59999999999997</ele><time>2026-04-25T10:20:25.04Z</time></trkpt><trkpt lat="43.4656426" lon="12.9845056"><ele>348.0</ele><time>2026-04-25T10:20:26.04Z</time></trkpt><trkpt lat="43.4657291" lon="12.9845034"><ele>348.0</ele><time>2026-04-25T10:20:27.04Z</time></trkpt><trkpt lat="43.4658258" lon="12.98452"><ele>348.0</ele><time>2026-04-25T10:20:28.039Z</time></trkpt><trkpt lat="43.4659183" lon="12.9845599"><ele>348.0</ele><time>2026-04-25T10:20:29.04Z</time></trkpt><trkpt lat="43.4660054" lon="12.984604"><ele>348.0</ele><time>2026-04-25T10:20:30.039Z</time></trkpt><trkpt lat="43.4660912" lon="12.9846262"><ele>348.0</ele><time>2026-04-25T10:20:31.041Z</time></trkpt><trkpt lat="43.4661762" lon="12.9846155"><ele>348.0</ele><time>2026-04-25T10:20:32.041Z</time></trkpt><trkpt lat="43.4662725" lon="12.9845906"><ele>348.0</ele><time>2026-04-25T10:20:33.039Z</time></trkpt><trkpt lat="43.4663639" lon="12.9845808"><ele>348.0</ele><time>2026-04-25T10:20:34.039Z</time></trkpt><trkpt lat="43.466436" lon="12.9845901"><ele>348.0</ele><time>2026-04-25T10:20:35.04Z</time></trkpt><trkpt lat="43.4665049" lon="12.9846218"><ele>348.0</ele><time>2026-04-25T10:20:36.04Z</time></trkpt><trkpt lat="43.4666" lon="12.9846862"><ele>348.0</ele><time>2026-04-25T10:20:37.039Z</time></trkpt><trkpt lat="43.4667178" lon="12.984753"><ele>348.25</ele><time>2026-04-25T10:20:38.039Z</time></trkpt><trkpt lat="43.4668388" lon="12.9848041"><ele>348.5</ele><time>2026-04-25T10:20:39.04Z</time></trkpt><trkpt lat="43.4669648" lon="12.984845"><ele>348.75</ele><time>2026-04-25T10:20:40.04Z</time></trkpt><trkpt lat="43.4670993" lon="12.9848789"><ele>349.0</ele><time>2026-04-25T10:20:41.039Z</time></trkpt><trkpt lat="43.4672281" lon="12.9849019"><ele>348.0</ele><time>2026-04-25T10:20:42.04Z</time></trkpt><trkpt lat="43.467327" lon="12.9849173"><ele>347.0</ele><time>2026-04-25T10:20:43.039Z</time></trkpt><trkpt lat="43.467399" lon="12.9849368"><ele>346.0</ele><time>2026-04-25T10:20:44.041Z</time></trkpt><trkpt lat="43.4674623" lon="12.984973"><ele>345.0</ele><time>2026-04-25T10:20:45.039Z</time></trkpt><trkpt lat="43.4675265" lon="12.9850351"><ele>344.0</ele><time>2026-04-25T10:20:46.039Z</time></trkpt><trkpt lat="43.4676075" lon="12.9851255"><ele>343.0</ele><time>2026-04-25T10:20:47.039Z</time></trkpt><trkpt lat="43.4676954" lon="12.9852115"><ele>343.0</ele><time>2026-04-25T10:20:48.041Z</time></trkpt><trkpt lat="43.4677731" lon="12.9852846"><ele>343.0</ele><time>2026-04-25T10:20:49.039Z</time></trkpt><trkpt lat="43.4678332" lon="12.9853651"><ele>343.0</ele><time>2026-04-25T10:20:50.039Z</time></trkpt><trkpt lat="43.4678892" lon="12.9854651"><ele>343.0</ele><time>2026-04-25T10:20:51.039Z</time></trkpt><trkpt lat="43.4679486" lon="12.9855512"><ele>343.0</ele><time>2026-04-25T10:20:52.039Z</time></trkpt><trkpt lat="43.4680217" lon="12.9856044"><ele>343.0</ele><time>2026-04-25T10:20:53.039Z</time></trkpt><trkpt lat="43.4681104" lon="12.985637"><ele>340.59999999999997</ele><time>2026-04-25T10:20:54.041Z</time></trkpt><trkpt lat="43.4682135" lon="12.9856632"><ele>338.2</ele><time>2026-04-25T10:20:55.039Z</time></trkpt><trkpt lat="43.4683259" lon="12.9856823"><ele>335.8</ele><time>2026-04-25T10:20:56.039Z</time></trkpt><trkpt lat="43.4684298" lon="12.9857002"><ele>333.4</ele><time>2026-04-25T10:20:57.04Z</time></trkpt><trkpt lat="43.4685132" lon="12.9857302"><ele>331.0</ele><time>2026-04-25T10:20:58.039Z</time></trkpt><trkpt lat="43.4685897" lon="12.9857936"><ele>332.20000000000005</ele><time>2026-04-25T10:20:59.04Z</time></trkpt><trkpt lat="43.4686704" lon="12.9858885"><ele>333.40000000000003</ele><time>2026-04-25T10:21:00.04Z</time></trkpt><trkpt lat="43.4687471" lon="12.985977"><ele>334.6</ele><time>2026-04-25T10:21:01.041Z</time></trkpt><trkpt lat="43.4688257" lon="12.9860369"><ele>335.8</ele><time>2026-04-25T10:21:02.039Z</time></trkpt><trkpt lat="43.4689279" lon="12.986078"><ele>337.0</ele><time>2026-04-25T10:21:03.039Z</time></trkpt><trkpt lat="43.4690358" lon="12.9861078"><ele>337.0</ele><time>2026-04-25T10:21:04.039Z</time></trkpt><trkpt lat="43.469127" lon="12.9861464"><ele>337.0</ele><time>2026-04-25T10:21:05.039Z</time></trkpt><trkpt lat="43.4692199" lon="12.9862005"><ele>337.0</ele><time>2026-04-25T10:21:06.04Z</time></trkpt><trkpt lat="43.4693093" lon="12.9862583"><ele>337.0</ele><time>2026-04-25T10:21:07.039Z</time></trkpt><trkpt lat="43.4693962" lon="12.9863147"><ele>337.0</ele><time>2026-04-25T10:21:08.039Z</time></trkpt><trkpt lat="43.4695038" lon="12.986366"><ele>335.6</ele><time>2026-04-25T10:21:09.039Z</time></trkpt><trkpt lat="43.4696291" lon="12.9864197"><ele>334.20000000000005</ele><time>2026-04-25T10:21:10.04Z</time></trkpt><trkpt lat="43.4697254" lon="12.9864695"><ele>332.8</ele><time>2026-04-25T10:21:11.039Z</time></trkpt><trkpt lat="43.4697907" lon="12.9865153"><ele>331.4</ele><time>2026-04-25T10:21:12.039Z</time></trkpt><trkpt lat="43.4698431" lon="12.9865742"><ele>330.0</ele><time>2026-04-25T10:21:13.04Z</time></trkpt><trkpt lat="43.4698934" lon="12.9867465"><ele>330.0</ele><time>2026-04-25T10:21:15.039Z</time></trkpt><trkpt lat="43.4699128" lon="12.9868932"><ele>330.0</ele><time>2026-04-25T10:21:16.04Z</time></trkpt><trkpt lat="43.4699253" lon="12.9870433"><ele>330.0</ele><time>2026-04-25T10:21:17.04Z</time></trkpt><trkpt lat="43.4699303" lon="12.9871627"><ele>330.0</ele><time>2026-04-25T10:21:18.039Z</time></trkpt><trkpt lat="43.4699357" lon="12.9872532"><ele>330.0</ele><time>2026-04-25T10:21:19.039Z</time></trkpt><trkpt lat="43.4699399" lon="12.9873587"><ele>330.0</ele><time>2026-04-25T10:21:21.04Z</time></trkpt><trkpt lat="43.4700039" lon="12.9874117"><ele>330.0</ele><time>2026-04-25T10:21:44.041Z</time></trkpt><trkpt lat="43.4701377" lon="12.9873552"><ele>330.0</ele><time>2026-04-25T10:21:46.04Z</time></trkpt><trkpt lat="43.4702251" lon="12.9873428"><ele>330.0</ele><time>2026-04-25T10:21:47.04Z</time></trkpt><trkpt lat="43.4703123" lon="12.9873837"><ele>330.0</ele><time>2026-04-25T10:21:48.04Z</time></trkpt><trkpt lat="43.4704081" lon="12.9874828"><ele>330.0</ele><time>2026-04-25T10:21:49.04Z</time></trkpt><trkpt lat="43.4705319" lon="12.9876272"><ele>327.3333333333333</ele><time>2026-04-25T10:21:50.039Z</time></trkpt><trkpt lat="43.4706829" lon="12.9877915"><ele>324.66666666666663</ele><time>2026-04-25T10:21:51.039Z</time></trkpt><trkpt lat="43.470858" lon="12.9879722"><ele>322.0</ele><time>2026-04-25T10:21:52.04Z</time></trkpt><trkpt lat="43.4710571" lon="12.9881479"><ele>320.0</ele><time>2026-04-25T10:21:53.04Z</time></trkpt><trkpt lat="43.4712908" lon="12.9883072"><ele>318.0</ele><time>2026-04-25T10:21:54.039Z</time></trkpt><trkpt lat="43.4715571" lon="12.9884564"><ele>318.0</ele><time>2026-04-25T10:21:55.04Z</time></trkpt><trkpt lat="43.471848" lon="12.9886145"><ele>318.0</ele><time>2026-04-25T10:21:56.039Z</time></trkpt><trkpt lat="43.4721578" lon="12.9887824"><ele>325.0</ele><time>2026-04-25T10:21:57.041Z</time></trkpt><trkpt lat="43.4724566" lon="12.9889456"><ele>332.0</ele><time>2026-04-25T10:21:58.04Z</time></trkpt><trkpt lat="43.4727121" lon="12.9890892"><ele>328.5</ele><time>2026-04-25T10:21:59.04Z</time></trkpt><trkpt lat="43.4729373" lon="12.9892171"><ele>325.0</ele><time>2026-04-25T10:22:00.039Z</time></trkpt><trkpt lat="43.4731447" lon="12.9893407"><ele>325.0</ele><time>2026-04-25T10:22:01.039Z</time></trkpt><trkpt lat="43.4733344" lon="12.9894603"><ele>325.0</ele><time>2026-04-25T10:22:02.039Z</time></trkpt><trkpt lat="43.4735055" lon="12.9895826"><ele>325.0</ele><time>2026-04-25T10:22:03.04Z</time></trkpt><trkpt lat="43.4736749" lon="12.9897204"><ele>324.66666666666663</ele><time>2026-04-25T10:22:04.039Z</time></trkpt><trkpt lat="43.4738538" lon="12.9898697"><ele>324.3333333333333</ele><time>2026-04-25T10:22:05.04Z</time></trkpt><trkpt lat="43.4740233" lon="12.9900028"><ele>324.0</ele><time>2026-04-25T10:22:06.04Z</time></trkpt><trkpt lat="43.4741839" lon="12.9901114"><ele>324.0</ele><time>2026-04-25T10:22:07.04Z</time></trkpt><trkpt lat="43.4743526" lon="12.9902076"><ele>324.0</ele><time>2026-04-25T10:22:08.039Z</time></trkpt><trkpt lat="43.4745061" lon="12.9902831"><ele>324.0</ele><time>2026-04-25T10:22:09.04Z</time></trkpt><trkpt lat="43.4746478" lon="12.9903292"><ele>327.6666666666667</ele><time>2026-04-25T10:22:10.04Z</time></trkpt><trkpt lat="43.4748059" lon="12.9903374"><ele>331.33333333333337</ele><time>2026-04-25T10:22:11.04Z</time></trkpt><trkpt lat="43.4749933" lon="12.990312"><ele>335.0</ele><time>2026-04-25T10:22:12.04Z</time></trkpt><trkpt lat="43.4751841" lon="12.9902803"><ele>335.0</ele><time>2026-04-25T10:22:13.039Z</time></trkpt><trkpt lat="43.4753642" lon="12.9902496"><ele>335.0</ele><time>2026-04-25T10:22:14.039Z</time></trkpt><trkpt lat="43.4755294" lon="12.9902242"><ele>335.0</ele><time>2026-04-25T10:22:15.041Z</time></trkpt><trkpt lat="43.4756886" lon="12.9901986"><ele>336.0</ele><time>2026-04-25T10:22:16.04Z</time></trkpt><trkpt lat="43.4758397" lon="12.9901714"><ele>337.0</ele><time>2026-04-25T10:22:17.041Z</time></trkpt><trkpt lat="43.4759759" lon="12.990144"><ele>338.0</ele><time>2026-04-25T10:22:18.04Z</time></trkpt><trkpt lat="43.4760972" lon="12.9901012"><ele>339.0</ele><time>2026-04-25T10:22:19.039Z</time></trkpt><trkpt lat="43.4762104" lon="12.9900275"><ele>345.6666666666667</ele><time>2026-04-25T10:22:20.04Z</time></trkpt><trkpt lat="43.4763167" lon="12.9899091"><ele>352.33333333333337</ele><time>2026-04-25T10:22:21.039Z</time></trkpt><trkpt lat="43.4764239" lon="12.9897468"><ele>359.0</ele><time>2026-04-25T10:22:22.039Z</time></trkpt><trkpt lat="43.4765359" lon="12.9895699"><ele>359.0</ele><time>2026-04-25T10:22:23.04Z</time></trkpt><trkpt lat="43.4766369" lon="12.9894179"><ele>359.0</ele><time>2026-04-25T10:22:24.041Z</time></trkpt><trkpt lat="43.4767286" lon="12.989307"><ele>359.0</ele><time>2026-04-25T10:22:25.041Z</time></trkpt><trkpt lat="43.4768254" lon="12.9892324"><ele>359.0</ele><time>2026-04-25T10:22:26.039Z</time></trkpt><trkpt lat="43.4769365" lon="12.9891973"><ele>359.0</ele><time>2026-04-25T10:22:27.04Z</time></trkpt><trkpt lat="43.4770559" lon="12.9892172"><ele>359.0</ele><time>2026-04-25T10:22:28.04Z</time></trkpt><trkpt lat="43.4771844" lon="12.9892938"><ele>359.0</ele><time>2026-04-25T10:22:29.039Z</time></trkpt><trkpt lat="43.47732" lon="12.9894001"><ele>359.0</ele><time>2026-04-25T10:22:30.039Z</time></trkpt><trkpt lat="43.4774364" lon="12.9894926"><ele>361.0</ele><time>2026-04-25T10:22:31.039Z</time></trkpt><trkpt lat="43.4775428" lon="12.9895544"><ele>363.0</ele><time>2026-04-25T10:22:32.04Z</time></trkpt><trkpt lat="43.4776428" lon="12.9895659"><ele>365.0</ele><time>2026-04-25T10:22:33.04Z</time></trkpt><trkpt lat="43.477737" lon="12.9895399"><ele>367.0</ele><time>2026-04-25T10:22:34.04Z</time></trkpt><trkpt lat="43.4778106" lon="12.9895197"><ele>369.0</ele><time>2026-04-25T10:22:35.04Z</time></trkpt><trkpt lat="43.4778749" lon="12.989535"><ele>370.0</ele><time>2026-04-25T10:22:36.039Z</time></trkpt><trkpt lat="43.4779432" lon="12.9895902"><ele>371.0</ele><time>2026-04-25T10:22:37.039Z</time></trkpt><trkpt lat="43.4780094" lon="12.9896852"><ele>372.0</ele><time>2026-04-25T10:22:38.039Z</time></trkpt><trkpt lat="43.4780919" lon="12.989831"><ele>373.0</ele><time>2026-04-25T10:22:39.04Z</time></trkpt><trkpt lat="43.4782016" lon="12.9900285"><ele>373.0</ele><time>2026-04-25T10:22:40.039Z</time></trkpt><trkpt lat="43.478315" lon="12.9902149"><ele>373.0</ele><time>2026-04-25T10:22:41.039Z</time></trkpt><trkpt lat="43.4784353" lon="12.9903721"><ele>373.0</ele><time>2026-04-25T10:22:42.04Z</time></trkpt><trkpt lat="43.4785911" lon="12.990502"><ele>374.66666666666663</ele><time>2026-04-25T10:22:43.04Z</time></trkpt><trkpt lat="43.4787846" lon="12.9906089"><ele>376.3333333333333</ele><time>2026-04-25T10:22:44.039Z</time></trkpt><trkpt lat="43.4789975" lon="12.9906945"><ele>378.0</ele><time>2026-04-25T10:22:45.04Z</time></trkpt><trkpt lat="43.4791799" lon="12.9907716"><ele>378.0</ele><time>2026-04-25T10:22:46.04Z</time></trkpt><trkpt lat="43.4793239" lon="12.9908671"><ele>378.0</ele><time>2026-04-25T10:22:47.039Z</time></trkpt><trkpt lat="43.4794739" lon="12.9910043"><ele>378.0</ele><time>2026-04-25T10:22:48.04Z</time></trkpt><trkpt lat="43.4796356" lon="12.9911606"><ele>378.0</ele><time>2026-04-25T10:22:49.039Z</time></trkpt><trkpt lat="43.4797713" lon="12.9913014"><ele>378.0</ele><time>2026-04-25T10:22:50.04Z</time></trkpt><trkpt lat="43.4798748" lon="12.991416"><ele>378.0</ele><time>2026-04-25T10:22:51.039Z</time></trkpt><trkpt lat="43.479963" lon="12.9915225"><ele>378.0</ele><time>2026-04-25T10:22:52.04Z</time></trkpt><trkpt lat="43.4800336" lon="12.9916273"><ele>376.5</ele><time>2026-04-25T10:22:53.04Z</time></trkpt><trkpt lat="43.4800844" lon="12.9917574"><ele>375.0</ele><time>2026-04-25T10:22:54.04Z</time></trkpt><trkpt lat="43.4801103" lon="12.991921"><ele>373.5</ele><time>2026-04-25T10:22:55.039Z</time></trkpt><trkpt lat="43.4801157" lon="12.9921363"><ele>372.0</ele><time>2026-04-25T10:22:56.039Z</time></trkpt><trkpt lat="43.4801118" lon="12.9923717"><ele>369.6666666666667</ele><time>2026-04-25T10:22:57.039Z</time></trkpt><trkpt lat="43.4801019" lon="12.9925964"><ele>367.33333333333337</ele><time>2026-04-25T10:22:58.039Z</time></trkpt><trkpt lat="43.4800995" lon="12.9928101"><ele>365.0</ele><time>2026-04-25T10:22:59.039Z</time></trkpt><trkpt lat="43.480121" lon="12.9930423"><ele>365.0</ele><time>2026-04-25T10:23:00.039Z</time></trkpt><trkpt lat="43.4801602" lon="12.993282"><ele>365.0</ele><time>2026-04-25T10:23:01.041Z</time></trkpt><trkpt lat="43.4802023" lon="12.993508"><ele>365.0</ele><time>2026-04-25T10:23:02.039Z</time></trkpt><trkpt lat="43.4802412" lon="12.9937038"><ele>363.25</ele><time>2026-04-25T10:23:03.04Z</time></trkpt><trkpt lat="43.4802862" lon="12.9938714"><ele>361.5</ele><time>2026-04-25T10:23:04.041Z</time></trkpt><trkpt lat="43.4803456" lon="12.9940243"><ele>359.75</ele><time>2026-04-25T10:23:05.04Z</time></trkpt><trkpt lat="43.4804272" lon="12.9941703"><ele>358.0</ele><time>2026-04-25T10:23:06.04Z</time></trkpt><trkpt lat="43.4805297" lon="12.9943098"><ele>356.66666666666663</ele><time>2026-04-25T10:23:07.041Z</time></trkpt><trkpt lat="43.4806563" lon="12.9944589"><ele>355.3333333333333</ele><time>2026-04-25T10:23:08.039Z</time></trkpt><trkpt lat="43.4807893" lon="12.9946084"><ele>354.0</ele><time>2026-04-25T10:23:09.039Z</time></trkpt><trkpt lat="43.4809188" lon="12.9947514"><ele>354.0</ele><time>2026-04-25T10:23:10.04Z</time></trkpt><trkpt lat="43.4810416" lon="12.9948903"><ele>354.0</ele><time>2026-04-25T10:23:11.04Z</time></trkpt><trkpt lat="43.4811561" lon="12.995027"><ele>354.0</ele><time>2026-04-25T10:23:12.039Z</time></trkpt><trkpt lat="43.4812664" lon="12.9951601"><ele>351.25</ele><time>2026-04-25T10:23:13.04Z</time></trkpt><trkpt lat="43.4813739" lon="12.9952881"><ele>348.5</ele><time>2026-04-25T10:23:14.04Z</time></trkpt><trkpt lat="43.4814821" lon="12.9954188"><ele>345.75</ele><time>2026-04-25T10:23:15.039Z</time></trkpt><trkpt lat="43.4815991" lon="12.9955637"><ele>343.0</ele><time>2026-04-25T10:23:16.039Z</time></trkpt><trkpt lat="43.4817134" lon="12.9957224"><ele>341.0</ele><time>2026-04-25T10:23:17.039Z</time></trkpt><trkpt lat="43.4818335" lon="12.9958996"><ele>339.0</ele><time>2026-04-25T10:23:18.041Z</time></trkpt><trkpt lat="43.4819654" lon="12.9960938"><ele>337.0</ele><time>2026-04-25T10:23:19.039Z</time></trkpt><trkpt lat="43.4820936" lon="12.9962864"><ele>335.66666666666663</ele><time>2026-04-25T10:23:20.04Z</time></trkpt><trkpt lat="43.4822055" lon="12.9964659"><ele>334.3333333333333</ele><time>2026-04-25T10:23:21.039Z</time></trkpt><trkpt lat="43.4823129" lon="12.9966429"><ele>333.0</ele><time>2026-04-25T10:23:22.041Z</time></trkpt><trkpt lat="43.4824174" lon="12.9968162"><ele>332.0</ele><time>2026-04-25T10:23:23.039Z</time></trkpt><trkpt lat="43.4825178" lon="12.996985"><ele>331.0</ele><time>2026-04-25T10:23:24.04Z</time></trkpt><trkpt lat="43.4826151" lon="12.9971515"><ele>330.0</ele><time>2026-04-25T10:23:25.04Z</time></trkpt><trkpt lat="43.4827099" lon="12.997312"><ele>330.0</ele><time>2026-04-25T10:23:26.04Z</time></trkpt><trkpt lat="43.4828001" lon="12.9974668"><ele>330.0</ele><time>2026-04-25T10:23:27.041Z</time></trkpt><trkpt lat="43.4828856" lon="12.9976173"><ele>330.0</ele><time>2026-04-25T10:23:28.04Z</time></trkpt><trkpt lat="43.4829646" lon="12.9977669"><ele>330.0</ele><time>2026-04-25T10:23:29.039Z</time></trkpt><trkpt lat="43.4830481" lon="12.9979341"><ele>327.6666666666667</ele><time>2026-04-25T10:23:30.04Z</time></trkpt><trkpt lat="43.4831529" lon="12.9981403"><ele>325.33333333333337</ele><time>2026-04-25T10:23:31.041Z</time></trkpt><trkpt lat="43.4832666" lon="12.9983545"><ele>323.0</ele><time>2026-04-25T10:23:32.039Z</time></trkpt><trkpt lat="43.4833624" lon="12.9985381"><ele>322.59999999999997</ele><time>2026-04-25T10:23:33.04Z</time></trkpt><trkpt lat="43.4834358" lon="12.9986767"><ele>322.2</ele><time>2026-04-25T10:23:34.04Z</time></trkpt><trkpt lat="43.4834997" lon="12.9987857"><ele>321.8</ele><time>2026-04-25T10:23:35.039Z</time></trkpt><trkpt lat="43.4835734" lon="12.9988756"><ele>321.4</ele><time>2026-04-25T10:23:36.04Z</time></trkpt><trkpt lat="43.483665" lon="12.9989523"><ele>321.0</ele><time>2026-04-25T10:23:37.039Z</time></trkpt><trkpt lat="43.4837987" lon="12.9989926"><ele>320.0</ele><time>2026-04-25T10:23:38.04Z</time></trkpt><trkpt lat="43.4839881" lon="12.9990094"><ele>319.0</ele><time>2026-04-25T10:23:39.04Z</time></trkpt><trkpt lat="43.4842264" lon="12.9990207"><ele>318.0</ele><time>2026-04-25T10:23:40.039Z</time></trkpt><trkpt lat="43.4844962" lon="12.9990329"><ele>312.0</ele><time>2026-04-25T10:23:41.039Z</time></trkpt><trkpt lat="43.4847428" lon="12.9990454"><ele>306.0</ele><time>2026-04-25T10:23:42.039Z</time></trkpt><trkpt lat="43.4849477" lon="12.9990567"><ele>306.0</ele><time>2026-04-25T10:23:43.04Z</time></trkpt><trkpt lat="43.4851326" lon="12.9990659"><ele>306.0</ele><time>2026-04-25T10:23:44.04Z</time></trkpt><trkpt lat="43.4853289" lon="12.9990801"><ele>306.0</ele><time>2026-04-25T10:23:45.04Z</time></trkpt><trkpt lat="43.4855478" lon="12.999115"><ele>303.5</ele><time>2026-04-25T10:23:46.039Z</time></trkpt><trkpt lat="43.4857875" lon="12.9991749"><ele>301.0</ele><time>2026-04-25T10:23:47.041Z</time></trkpt><trkpt lat="43.4860363" lon="12.9992544"><ele>297.3333333333333</ele><time>2026-04-25T10:23:48.041Z</time></trkpt><trkpt lat="43.4862627" lon="12.9993423"><ele>293.6666666666667</ele><time>2026-04-25T10:23:49.04Z</time></trkpt><trkpt lat="43.4864612" lon="12.999426"><ele>290.0</ele><time>2026-04-25T10:23:50.039Z</time></trkpt><trkpt lat="43.4866702" lon="12.9995056"><ele>290.0</ele><time>2026-04-25T10:23:51.039Z</time></trkpt><trkpt lat="43.486886" lon="12.9995808"><ele>290.0</ele><time>2026-04-25T10:23:52.039Z</time></trkpt><trkpt lat="43.4870882" lon="12.9996506"><ele>290.0</ele><time>2026-04-25T10:23:53.04Z</time></trkpt><trkpt lat="43.4872702" lon="12.999714"><ele>286.6666666666667</ele><time>2026-04-25T10:23:54.04Z</time></trkpt><trkpt lat="43.4874436" lon="12.9997836"><ele>283.3333333333333</ele><time>2026-04-25T10:23:55.04Z</time></trkpt><trkpt lat="43.4876147" lon="12.999855"><ele>280.0</ele><time>2026-04-25T10:23:56.039Z</time></trkpt><trkpt lat="43.4877811" lon="12.9999263"><ele>277.0</ele><time>2026-04-25T10:23:57.04Z</time></trkpt><trkpt lat="43.487951" lon="12.9999966"><ele>274.0</ele><time>2026-04-25T10:23:58.039Z</time></trkpt><trkpt lat="43.4881292" lon="13.0000693"><ele>271.0</ele><time>2026-04-25T10:23:59.04Z</time></trkpt><trkpt lat="43.4883062" lon="13.0001395"><ele>271.0</ele><time>2026-04-25T10:24:00.039Z</time></trkpt><trkpt lat="43.4884782" lon="13.0002012"><ele>271.0</ele><time>2026-04-25T10:24:01.04Z</time></trkpt><trkpt lat="43.4886482" lon="13.0002526"><ele>271.0</ele><time>2026-04-25T10:24:02.04Z</time></trkpt><trkpt lat="43.4888169" lon="13.0002989"><ele>267.66666666666663</ele><time>2026-04-25T10:24:03.04Z</time></trkpt><trkpt lat="43.4889835" lon="13.0003479"><ele>264.3333333333333</ele><time>2026-04-25T10:24:04.039Z</time></trkpt><trkpt lat="43.4891398" lon="13.0004094"><ele>261.0</ele><time>2026-04-25T10:24:05.039Z</time></trkpt><trkpt lat="43.4892803" lon="13.0004918"><ele>261.0</ele><time>2026-04-25T10:24:06.039Z</time></trkpt><trkpt lat="43.4894254" lon="13.0006033"><ele>261.0</ele><time>2026-04-25T10:24:07.039Z</time></trkpt><trkpt lat="43.4895808" lon="13.0007403"><ele>261.0</ele><time>2026-04-25T10:24:08.039Z</time></trkpt><trkpt lat="43.4897594" lon="13.0008928"><ele>258.6666666666667</ele><time>2026-04-25T10:24:09.039Z</time></trkpt><trkpt lat="43.4899428" lon="13.0010385"><ele>256.33333333333337</ele><time>2026-04-25T10:24:10.04Z</time></trkpt><trkpt lat="43.4901351" lon="13.0011678"><ele>254.0</ele><time>2026-04-25T10:24:11.039Z</time></trkpt><trkpt lat="43.4903143" lon="13.0012958"><ele>252.33333333333334</ele><time>2026-04-25T10:24:12.04Z</time></trkpt><trkpt lat="43.4904725" lon="13.001432"><ele>250.66666666666669</ele><time>2026-04-25T10:24:13.04Z</time></trkpt><trkpt lat="43.4906164" lon="13.0016003"><ele>249.0</ele><time>2026-04-25T10:24:14.04Z</time></trkpt><trkpt lat="43.4907569" lon="13.0018188"><ele>249.0</ele><time>2026-04-25T10:24:15.04Z</time></trkpt><trkpt lat="43.4908865" lon="13.0020435"><ele>249.0</ele><time>2026-04-25T10:24:16.04Z</time></trkpt><trkpt lat="43.4910158" lon="13.0022432"><ele>249.0</ele><time>2026-04-25T10:24:17.041Z</time></trkpt><trkpt lat="43.4911522" lon="13.0024152"><ele>246.0</ele><time>2026-04-25T10:24:18.039Z</time></trkpt><trkpt lat="43.4913057" lon="13.0025868"><ele>243.0</ele><time>2026-04-25T10:24:19.04Z</time></trkpt><trkpt lat="43.4914704" lon="13.0027536"><ele>240.0</ele><time>2026-04-25T10:24:20.039Z</time></trkpt><trkpt lat="43.4916351" lon="13.002915"><ele>240.0</ele><time>2026-04-25T10:24:21.04Z</time></trkpt><trkpt lat="43.4918115" lon="13.0030857"><ele>240.0</ele><time>2026-04-25T10:24:22.04Z</time></trkpt><trkpt lat="43.491985" lon="13.003255"><ele>240.0</ele><time>2026-04-25T10:24:23.039Z</time></trkpt><trkpt lat="43.492148" lon="13.0034134"><ele>238.33333333333331</ele><time>2026-04-25T10:24:24.04Z</time></trkpt><trkpt lat="43.4923129" lon="13.0035728"><ele>236.66666666666666</ele><time>2026-04-25T10:24:25.04Z</time></trkpt><trkpt lat="43.4924806" lon="13.0037343"><ele>235.0</ele><time>2026-04-25T10:24:26.04Z</time></trkpt><trkpt lat="43.4926454" lon="13.0038867"><ele>235.0</ele><time>2026-04-25T10:24:27.039Z</time></trkpt><trkpt lat="43.4927996" lon="13.0040268"><ele>235.0</ele><time>2026-04-25T10:24:28.039Z</time></trkpt><trkpt lat="43.4929607" lon="13.0041738"><ele>235.0</ele><time>2026-04-25T10:24:29.041Z</time></trkpt><trkpt lat="43.4931126" lon="13.0043124"><ele>233.0</ele><time>2026-04-25T10:24:30.04Z</time></trkpt><trkpt lat="43.4932555" lon="13.0044444"><ele>231.0</ele><time>2026-04-25T10:24:31.039Z</time></trkpt><trkpt lat="43.4934007" lon="13.0045851"><ele>229.0</ele><time>2026-04-25T10:24:32.039Z</time></trkpt><trkpt lat="43.4935392" lon="13.0047285"><ele>229.0</ele><time>2026-04-25T10:24:33.039Z</time></trkpt><trkpt lat="43.4936747" lon="13.0048602"><ele>229.0</ele><time>2026-04-25T10:24:34.04Z</time></trkpt><trkpt lat="43.4938097" lon="13.00498"><ele>229.0</ele><time>2026-04-25T10:24:35.039Z</time></trkpt><trkpt lat="43.49394" lon="13.0050993"><ele>227.5</ele><time>2026-04-25T10:24:36.04Z</time></trkpt><trkpt lat="43.4940677" lon="13.0052087"><ele>226.0</ele><time>2026-04-25T10:24:37.039Z</time></trkpt><trkpt lat="43.4941959" lon="13.0052978"><ele>224.5</ele><time>2026-04-25T10:24:38.039Z</time></trkpt><trkpt lat="43.494326" lon="13.0053562"><ele>223.0</ele><time>2026-04-25T10:24:39.04Z</time></trkpt><trkpt lat="43.4944543" lon="13.0053963"><ele>223.0</ele><time>2026-04-25T10:24:40.04Z</time></trkpt><trkpt lat="43.4945463" lon="13.0054439"><ele>223.0</ele><time>2026-04-25T10:24:41.039Z</time></trkpt><trkpt lat="43.4946334" lon="13.0055289"><ele>223.0</ele><time>2026-04-25T10:24:42.039Z</time></trkpt><trkpt lat="43.494721" lon="13.0056686"><ele>223.0</ele><time>2026-04-25T10:24:43.039Z</time></trkpt><trkpt lat="43.4948016" lon="13.0058798"><ele>219.0</ele><time>2026-04-25T10:24:44.04Z</time></trkpt><trkpt lat="43.4948751" lon="13.0060782"><ele>215.0</ele><time>2026-04-25T10:24:45.041Z</time></trkpt><trkpt lat="43.4949695" lon="13.006253"><ele>211.0</ele><time>2026-04-25T10:24:46.04Z</time></trkpt><trkpt lat="43.495099" lon="13.0064149"><ele>211.0</ele><time>2026-04-25T10:24:47.039Z</time></trkpt><trkpt lat="43.495234" lon="13.0065425"><ele>211.0</ele><time>2026-04-25T10:24:48.04Z</time></trkpt><trkpt lat="43.4953607" lon="13.0066453"><ele>211.0</ele><time>2026-04-25T10:24:49.039Z</time></trkpt><trkpt lat="43.4954686" lon="13.0067596"><ele>211.0</ele><time>2026-04-25T10:24:50.04Z</time></trkpt><trkpt lat="43.4955509" lon="13.0068967"><ele>210.25</ele><time>2026-04-25T10:24:51.04Z</time></trkpt><trkpt lat="43.495612" lon="13.0070628"><ele>209.5</ele><time>2026-04-25T10:24:52.039Z</time></trkpt><trkpt lat="43.4956535" lon="13.007246"><ele>208.75</ele><time>2026-04-25T10:24:53.039Z</time></trkpt><trkpt lat="43.4956861" lon="13.0074021"><ele>208.0</ele><time>2026-04-25T10:24:54.04Z</time></trkpt><trkpt lat="43.4957287" lon="13.0075155"><ele>208.0</ele><time>2026-04-25T10:24:55.04Z</time></trkpt><trkpt lat="43.4957932" lon="13.0075921"><ele>208.0</ele><time>2026-04-25T10:24:56.04Z</time></trkpt><trkpt lat="43.4958808" lon="13.0076255"><ele>208.0</ele><time>2026-04-25T10:24:57.039Z</time></trkpt><trkpt lat="43.4959939" lon="13.007606"><ele>208.0</ele><time>2026-04-25T10:24:58.039Z</time></trkpt><trkpt lat="43.4961487" lon="13.0075417"><ele>209.0</ele><time>2026-04-25T10:24:59.04Z</time></trkpt><trkpt lat="43.4963208" lon="13.0074588"><ele>210.0</ele><time>2026-04-25T10:25:00.041Z</time></trkpt><trkpt lat="43.496458" lon="13.0074052"><ele>211.0</ele><time>2026-04-25T10:25:01.039Z</time></trkpt><trkpt lat="43.496565" lon="13.0073901"><ele>212.0</ele><time>2026-04-25T10:25:02.039Z</time></trkpt><trkpt lat="43.4966697" lon="13.0074166"><ele>210.66666666666669</ele><time>2026-04-25T10:25:03.039Z</time></trkpt><trkpt lat="43.4967756" lon="13.0075007"><ele>209.33333333333331</ele><time>2026-04-25T10:25:04.04Z</time></trkpt><trkpt lat="43.496902" lon="13.0076508"><ele>208.0</ele><time>2026-04-25T10:25:05.04Z</time></trkpt><trkpt lat="43.4970525" lon="13.0078456"><ele>212.5</ele><time>2026-04-25T10:25:06.039Z</time></trkpt><trkpt lat="43.497232" lon="13.0080767"><ele>217.0</ele><time>2026-04-25T10:25:07.041Z</time></trkpt><trkpt lat="43.4974087" lon="13.0082832"><ele>214.0</ele><time>2026-04-25T10:25:08.04Z</time></trkpt><trkpt lat="43.4975697" lon="13.0084628"><ele>211.0</ele><time>2026-04-25T10:25:09.039Z</time></trkpt><trkpt lat="43.4977151" lon="13.008633"><ele>208.0</ele><time>2026-04-25T10:25:10.039Z</time></trkpt><trkpt lat="43.4978473" lon="13.0087899"><ele>207.33333333333331</ele><time>2026-04-25T10:25:11.04Z</time></trkpt><trkpt lat="43.497976" lon="13.0089346"><ele>206.66666666666669</ele><time>2026-04-25T10:25:12.041Z</time></trkpt><trkpt lat="43.4981108" lon="13.0090669"><ele>206.0</ele><time>2026-04-25T10:25:13.039Z</time></trkpt><trkpt lat="43.498258" lon="13.0091911"><ele>206.0</ele><time>2026-04-25T10:25:14.04Z</time></trkpt><trkpt lat="43.4984116" lon="13.0092953"><ele>206.0</ele><time>2026-04-25T10:25:15.041Z</time></trkpt><trkpt lat="43.4985588" lon="13.0093717"><ele>206.0</ele><time>2026-04-25T10:25:16.039Z</time></trkpt><trkpt lat="43.4987008" lon="13.009429"><ele>207.25</ele><time>2026-04-25T10:25:17.04Z</time></trkpt><trkpt lat="43.4988481" lon="13.0094832"><ele>208.5</ele><time>2026-04-25T10:25:18.039Z</time></trkpt><trkpt lat="43.4989783" lon="13.0095433"><ele>209.75</ele><time>2026-04-25T10:25:19.039Z</time></trkpt><trkpt lat="43.4990858" lon="13.0096163"><ele>211.0</ele><time>2026-04-25T10:25:20.039Z</time></trkpt><trkpt lat="43.4991773" lon="13.0096944"><ele>210.99999999999997</ele><time>2026-04-25T10:25:21.04Z</time></trkpt><trkpt lat="43.4992563" lon="13.0097591"><ele>211.0</ele><time>2026-04-25T10:25:22.039Z</time></trkpt><trkpt lat="43.4993392" lon="13.009799"><ele>211.0</ele><time>2026-04-25T10:25:23.04Z</time></trkpt><trkpt lat="43.4994335" lon="13.0098136"><ele>211.0</ele><time>2026-04-25T10:25:24.039Z</time></trkpt><trkpt lat="43.4995246" lon="13.0098067"><ele>210.99999999999997</ele><time>2026-04-25T10:25:25.04Z</time></trkpt><trkpt lat="43.4995977" lon="13.0097837"><ele>211.0</ele><time>2026-04-25T10:25:26.041Z</time></trkpt><trkpt lat="43.4996597" lon="13.009765"><ele>210.99999999999997</ele><time>2026-04-25T10:25:27.04Z</time></trkpt><trkpt lat="43.4997282" lon="13.0097755"><ele>211.0</ele><time>2026-04-25T10:25:28.04Z</time></trkpt><trkpt lat="43.4998106" lon="13.0098139"><ele>211.0</ele><time>2026-04-25T10:25:29.04Z</time></trkpt><trkpt lat="43.4998867" lon="13.0098625"><ele>211.0</ele><time>2026-04-25T10:25:30.039Z</time></trkpt><trkpt lat="43.4999536" lon="13.0099038"><ele>210.99999999999997</ele><time>2026-04-25T10:25:31.039Z</time></trkpt><trkpt lat="43.5000151" lon="13.0099501"><ele>211.0</ele><time>2026-04-25T10:25:32.039Z</time></trkpt><trkpt lat="43.5000738" lon="13.0100164"><ele>210.49999999999997</ele><time>2026-04-25T10:25:33.039Z</time></trkpt><trkpt lat="43.5001189" lon="13.0101046"><ele>210.0</ele><time>2026-04-25T10:25:34.039Z</time></trkpt><trkpt lat="43.500145" lon="13.0102054"><ele>209.5</ele><time>2026-04-25T10:25:35.04Z</time></trkpt><trkpt lat="43.5001632" lon="13.0103189"><ele>209.0</ele><time>2026-04-25T10:25:36.04Z</time></trkpt><trkpt lat="43.5001862" lon="13.0104291"><ele>208.49999999999997</ele><time>2026-04-25T10:25:37.04Z</time></trkpt><trkpt lat="43.5002132" lon="13.0105329"><ele>208.0</ele><time>2026-04-25T10:25:38.039Z</time></trkpt><trkpt lat="43.5002381" lon="13.0106329"><ele>207.99999999999997</ele><time>2026-04-25T10:25:39.04Z</time></trkpt><trkpt lat="43.5002617" lon="13.0107378"><ele>208.0</ele><time>2026-04-25T10:25:40.039Z</time></trkpt><trkpt lat="43.5002812" lon="13.0108495"><ele>208.0</ele><time>2026-04-25T10:25:41.04Z</time></trkpt><trkpt lat="43.5002963" lon="13.0109666"><ele>208.0</ele><time>2026-04-25T10:25:42.04Z</time></trkpt><trkpt lat="43.5003094" lon="13.0110818"><ele>207.99999999999997</ele><time>2026-04-25T10:25:43.039Z</time></trkpt><trkpt lat="43.5003187" lon="13.0111904"><ele>208.0</ele><time>2026-04-25T10:25:44.039Z</time></trkpt><trkpt lat="43.5003327" lon="13.0113198"><ele>206.8</ele><time>2026-04-25T10:25:45.04Z</time></trkpt><trkpt lat="43.5003493" lon="13.0114604"><ele>205.60000000000002</ele><time>2026-04-25T10:25:46.039Z</time></trkpt><trkpt lat="43.5003645" lon="13.0115907"><ele>204.39999999999998</ele><time>2026-04-25T10:25:47.039Z</time></trkpt><trkpt lat="43.5003798" lon="13.0117206"><ele>203.2</ele><time>2026-04-25T10:25:48.039Z</time></trkpt><trkpt lat="43.5003996" lon="13.0118474"><ele>202.0</ele><time>2026-04-25T10:25:49.039Z</time></trkpt><trkpt lat="43.5004277" lon="13.0119544"><ele>201.2</ele><time>2026-04-25T10:25:50.039Z</time></trkpt><trkpt lat="43.5004713" lon="13.012035"><ele>200.39999999999998</ele><time>2026-04-25T10:25:51.041Z</time></trkpt><trkpt lat="43.5005375" lon="13.012095"><ele>199.60000000000002</ele><time>2026-04-25T10:25:52.04Z</time></trkpt><trkpt lat="43.5006395" lon="13.01214"><ele>198.8</ele><time>2026-04-25T10:25:53.039Z</time></trkpt><trkpt lat="43.5007707" lon="13.0121728"><ele>198.0</ele><time>2026-04-25T10:25:54.04Z</time></trkpt><trkpt lat="43.5008823" lon="13.0121976"><ele>198.0</ele><time>2026-04-25T10:25:55.039Z</time></trkpt><trkpt lat="43.5009738" lon="13.0122304"><ele>198.0</ele><time>2026-04-25T10:25:56.039Z</time></trkpt><trkpt lat="43.5010528" lon="13.0122837"><ele>198.0</ele><time>2026-04-25T10:25:57.039Z</time></trkpt><trkpt lat="43.5011339" lon="13.0123572"><ele>198.0</ele><time>2026-04-25T10:25:58.04Z</time></trkpt><trkpt lat="43.5012088" lon="13.0124372"><ele>198.0</ele><time>2026-04-25T10:25:59.04Z</time></trkpt><trkpt lat="43.5012716" lon="13.0125133"><ele>196.4</ele><time>2026-04-25T10:26:00.039Z</time></trkpt><trkpt lat="43.5013292" lon="13.0126094"><ele>194.8</ele><time>2026-04-25T10:26:01.039Z</time></trkpt><trkpt lat="43.5013842" lon="13.0127292"><ele>193.2</ele><time>2026-04-25T10:26:02.039Z</time></trkpt><trkpt lat="43.5014401" lon="13.0128565"><ele>191.6</ele><time>2026-04-25T10:26:03.041Z</time></trkpt><trkpt lat="43.5015051" lon="13.0129919"><ele>190.0</ele><time>2026-04-25T10:26:04.04Z</time></trkpt><trkpt lat="43.5015712" lon="13.0131282"><ele>190.0</ele><time>2026-04-25T10:26:05.04Z</time></trkpt><trkpt lat="43.5016379" lon="13.0132641"><ele>190.0</ele><time>2026-04-25T10:26:06.039Z</time></trkpt><trkpt lat="43.5017022" lon="13.0133947"><ele>190.0</ele><time>2026-04-25T10:26:07.04Z</time></trkpt><trkpt lat="43.5017665" lon="13.0135214"><ele>190.0</ele><time>2026-04-25T10:26:08.039Z</time></trkpt><trkpt lat="43.5018325" lon="13.0136475"><ele>189.16666666666669</ele><time>2026-04-25T10:26:09.04Z</time></trkpt><trkpt lat="43.5018971" lon="13.0137672"><ele>188.33333333333334</ele><time>2026-04-25T10:26:10.04Z</time></trkpt><trkpt lat="43.5019551" lon="13.013865"><ele>187.5</ele><time>2026-04-25T10:26:11.04Z</time></trkpt><trkpt lat="43.5020055" lon="13.0139372"><ele>186.66666666666666</ele><time>2026-04-25T10:26:12.04Z</time></trkpt><trkpt lat="43.5020608" lon="13.0139859"><ele>185.83333333333331</ele><time>2026-04-25T10:26:13.041Z</time></trkpt><trkpt lat="43.5021409" lon="13.0140222"><ele>185.0</ele><time>2026-04-25T10:26:14.04Z</time></trkpt><trkpt lat="43.5022613" lon="13.0140565"><ele>185.0</ele><time>2026-04-25T10:26:15.039Z</time></trkpt><trkpt lat="43.502396" lon="13.0140931"><ele>185.0</ele><time>2026-04-25T10:26:16.04Z</time></trkpt><trkpt lat="43.5025238" lon="13.014129"><ele>185.0</ele><time>2026-04-25T10:26:17.04Z</time></trkpt><trkpt lat="43.5026503" lon="13.0141624"><ele>185.0</ele><time>2026-04-25T10:26:18.039Z</time></trkpt><trkpt lat="43.5027764" lon="13.0141863"><ele>184.25</ele><time>2026-04-25T10:26:19.039Z</time></trkpt><trkpt lat="43.5028924" lon="13.014195"><ele>183.5</ele><time>2026-04-25T10:26:20.039Z</time></trkpt><trkpt lat="43.5030048" lon="13.0141815"><ele>182.75</ele><time>2026-04-25T10:26:21.039Z</time></trkpt><trkpt lat="43.5031195" lon="13.0141368"><ele>182.0</ele><time>2026-04-25T10:26:22.04Z</time></trkpt><trkpt lat="43.5032433" lon="13.0140729"><ele>182.25</ele><time>2026-04-25T10:26:23.04Z</time></trkpt><trkpt lat="43.5033691" lon="13.0140219"><ele>182.5</ele><time>2026-04-25T10:26:24.04Z</time></trkpt><trkpt lat="43.5034925" lon="13.013998"><ele>182.75</ele><time>2026-04-25T10:26:25.039Z</time></trkpt><trkpt lat="43.5036152" lon="13.0140076"><ele>183.0</ele><time>2026-04-25T10:26:26.04Z</time></trkpt><trkpt lat="43.5037485" lon="13.0140525"><ele>183.0</ele><time>2026-04-25T10:26:27.039Z</time></trkpt><trkpt lat="43.5038926" lon="13.0141175"><ele>183.0</ele><time>2026-04-25T10:26:28.039Z</time></trkpt><trkpt lat="43.5040349" lon="13.0141926"><ele>183.0</ele><time>2026-04-25T10:26:29.039Z</time></trkpt><trkpt lat="43.5041701" lon="13.0142623"><ele>183.0</ele><time>2026-04-25T10:26:30.039Z</time></trkpt><trkpt lat="43.5042979" lon="13.0143188"><ele>182.0</ele><time>2026-04-25T10:26:31.04Z</time></trkpt><trkpt lat="43.5044167" lon="13.014363"><ele>181.0</ele><time>2026-04-25T10:26:32.039Z</time></trkpt><trkpt lat="43.5045325" lon="13.0143971"><ele>180.0</ele><time>2026-04-25T10:26:33.04Z</time></trkpt><trkpt lat="43.5046501" lon="13.0144229"><ele>179.0</ele><time>2026-04-25T10:26:34.039Z</time></trkpt><trkpt lat="43.5047676" lon="13.014436"><ele>178.75</ele><time>2026-04-25T10:26:35.039Z</time></trkpt><trkpt lat="43.5048864" lon="13.0144338"><ele>178.5</ele><time>2026-04-25T10:26:36.039Z</time></trkpt><trkpt lat="43.5050006" lon="13.0144191"><ele>178.25</ele><time>2026-04-25T10:26:37.039Z</time></trkpt><trkpt lat="43.5051122" lon="13.0143904"><ele>178.0</ele><time>2026-04-25T10:26:38.041Z</time></trkpt><trkpt lat="43.5052279" lon="13.0143435"><ele>178.0</ele><time>2026-04-25T10:26:39.04Z</time></trkpt><trkpt lat="43.5053499" lon="13.0142766"><ele>178.0</ele><time>2026-04-25T10:26:40.04Z</time></trkpt><trkpt lat="43.5054907" lon="13.0142034"><ele>178.0</ele><time>2026-04-25T10:26:41.04Z</time></trkpt><trkpt lat="43.5056338" lon="13.0141416"><ele>178.0</ele><time>2026-04-25T10:26:42.04Z</time></trkpt><trkpt lat="43.5057871" lon="13.0140891"><ele>179.75</ele><time>2026-04-25T10:26:43.04Z</time></trkpt><trkpt lat="43.5059253" lon="13.0140467"><ele>181.5</ele><time>2026-04-25T10:26:44.04Z</time></trkpt><trkpt lat="43.5060487" lon="13.0140009"><ele>183.25</ele><time>2026-04-25T10:26:45.04Z</time></trkpt><trkpt lat="43.5061708" lon="13.0139425"><ele>185.0</ele><time>2026-04-25T10:26:46.04Z</time></trkpt><trkpt lat="43.5062692" lon="13.0138868"><ele>185.0</ele><time>2026-04-25T10:26:47.039Z</time></trkpt><trkpt lat="43.50636" lon="13.0138273"><ele>185.0</ele><time>2026-04-25T10:26:48.039Z</time></trkpt><trkpt lat="43.5064706" lon="13.0137489"><ele>185.0</ele><time>2026-04-25T10:26:49.041Z</time></trkpt><trkpt lat="43.5066013" lon="13.0136562"><ele>185.0</ele><time>2026-04-25T10:26:50.039Z</time></trkpt><trkpt lat="43.5067204" lon="13.0135746"><ele>185.0</ele><time>2026-04-25T10:26:51.039Z</time></trkpt><trkpt lat="43.5068275" lon="13.0135026"><ele>185.0</ele><time>2026-04-25T10:26:52.04Z</time></trkpt><trkpt lat="43.5069299" lon="13.0134337"><ele>185.0</ele><time>2026-04-25T10:26:53.04Z</time></trkpt><trkpt lat="43.5070344" lon="13.0133621"><ele>185.0</ele><time>2026-04-25T10:26:54.04Z</time></trkpt><trkpt lat="43.5071358" lon="13.0132894"><ele>185.2</ele><time>2026-04-25T10:26:55.041Z</time></trkpt><trkpt lat="43.5072273" lon="13.0132268"><ele>185.4</ele><time>2026-04-25T10:26:56.04Z</time></trkpt><trkpt lat="43.5073062" lon="13.0131769"><ele>185.60000000000002</ele><time>2026-04-25T10:26:57.039Z</time></trkpt><trkpt lat="43.5073783" lon="13.0131381"><ele>185.8</ele><time>2026-04-25T10:26:58.039Z</time></trkpt><trkpt lat="43.5074609" lon="13.0131141"><ele>186.0</ele><time>2026-04-25T10:26:59.039Z</time></trkpt><trkpt lat="43.5075682" lon="13.0131109"><ele>186.0</ele><time>2026-04-25T10:27:00.039Z</time></trkpt><trkpt lat="43.5077057" lon="13.0131456"><ele>186.0</ele><time>2026-04-25T10:27:01.041Z</time></trkpt><trkpt lat="43.5078509" lon="13.0131623"><ele>186.0</ele><time>2026-04-25T10:27:02.041Z</time></trkpt><trkpt lat="43.5080053" lon="13.0131485"><ele>186.0</ele><time>2026-04-25T10:27:03.039Z</time></trkpt><trkpt lat="43.508186" lon="13.0131063"><ele>186.0</ele><time>2026-04-25T10:27:04.039Z</time></trkpt><trkpt lat="43.5083562" lon="13.0130606"><ele>186.0</ele><time>2026-04-25T10:27:05.039Z</time></trkpt><trkpt lat="43.5084995" lon="13.0130223"><ele>186.0</ele><time>2026-04-25T10:27:06.039Z</time></trkpt><trkpt lat="43.5086245" lon="13.0129908"><ele>186.0</ele><time>2026-04-25T10:27:07.04Z</time></trkpt><trkpt lat="43.5087397" lon="13.0129649"><ele>186.4</ele><time>2026-04-25T10:27:08.04Z</time></trkpt><trkpt lat="43.5088442" lon="13.0129448"><ele>186.8</ele><time>2026-04-25T10:27:09.039Z</time></trkpt><trkpt lat="43.5089369" lon="13.0129338"><ele>187.20000000000002</ele><time>2026-04-25T10:27:10.039Z</time></trkpt><trkpt lat="43.5090171" lon="13.012931"><ele>187.60000000000002</ele><time>2026-04-25T10:27:11.04Z</time></trkpt><trkpt lat="43.5090998" lon="13.0129761"><ele>188.0</ele><time>2026-04-25T10:27:13.039Z</time></trkpt><trkpt lat="43.5091056" lon="13.0131438"><ele>188.0</ele><time>2026-04-25T10:27:15.039Z</time></trkpt><trkpt lat="43.5090917" lon="13.0132929"><ele>188.0</ele><time>2026-04-25T10:27:16.039Z</time></trkpt><trkpt lat="43.5091009" lon="13.0135046"><ele>188.0</ele><time>2026-04-25T10:27:17.04Z</time></trkpt><trkpt lat="43.5091338" lon="13.0137863"><ele>184.0</ele><time>2026-04-25T10:27:18.039Z</time></trkpt><trkpt lat="43.509176" lon="13.0141103"><ele>180.0</ele><time>2026-04-25T10:27:19.04Z</time></trkpt><trkpt lat="43.5092171" lon="13.0144125"><ele>178.66666666666666</ele><time>2026-04-25T10:27:20.039Z</time></trkpt><trkpt lat="43.5092526" lon="13.014685"><ele>177.33333333333331</ele><time>2026-04-25T10:27:21.039Z</time></trkpt><trkpt lat="43.5092815" lon="13.0149626"><ele>176.0</ele><time>2026-04-25T10:27:22.04Z</time></trkpt><trkpt lat="43.5093017" lon="13.015245"><ele>174.0</ele><time>2026-04-25T10:27:23.04Z</time></trkpt><trkpt lat="43.5093144" lon="13.0155223"><ele>172.0</ele><time>2026-04-25T10:27:24.039Z</time></trkpt><trkpt lat="43.5093231" lon="13.0157901"><ele>170.0</ele><time>2026-04-25T10:27:25.04Z</time></trkpt><trkpt lat="43.5093293" lon="13.0160359"><ele>169.66666666666666</ele><time>2026-04-25T10:27:26.039Z</time></trkpt><trkpt lat="43.5093339" lon="13.0162629"><ele>169.33333333333334</ele><time>2026-04-25T10:27:27.039Z</time></trkpt><trkpt lat="43.5093358" lon="13.0164687"><ele>169.0</ele><time>2026-04-25T10:27:28.039Z</time></trkpt><trkpt lat="43.5093366" lon="13.0166556"><ele>169.0</ele><time>2026-04-25T10:27:29.041Z</time></trkpt><trkpt lat="43.5093415" lon="13.0168216"><ele>169.0</ele><time>2026-04-25T10:27:30.04Z</time></trkpt><trkpt lat="43.5093566" lon="13.0169636"><ele>169.0</ele><time>2026-04-25T10:27:31.039Z</time></trkpt><trkpt lat="43.5093932" lon="13.0170929"><ele>169.0</ele><time>2026-04-25T10:27:32.04Z</time></trkpt><trkpt lat="43.5094541" lon="13.0172095"><ele>169.0</ele><time>2026-04-25T10:27:33.04Z</time></trkpt><trkpt lat="43.5095383" lon="13.0172982"><ele>170.5</ele><time>2026-04-25T10:27:34.04Z</time></trkpt><trkpt lat="43.509649" lon="13.017361"><ele>172.0</ele><time>2026-04-25T10:27:35.04Z</time></trkpt><trkpt lat="43.5097827" lon="13.0174165"><ele>173.5</ele><time>2026-04-25T10:27:36.04Z</time></trkpt><trkpt lat="43.509909" lon="13.0174724"><ele>175.0</ele><time>2026-04-25T10:27:37.04Z</time></trkpt><trkpt lat="43.5100152" lon="13.0175225"><ele>175.33333333333334</ele><time>2026-04-25T10:27:38.041Z</time></trkpt><trkpt lat="43.5101051" lon="13.0175643"><ele>175.66666666666669</ele><time>2026-04-25T10:27:39.041Z</time></trkpt><trkpt lat="43.5101869" lon="13.0176038"><ele>176.0</ele><time>2026-04-25T10:27:40.039Z</time></trkpt><trkpt lat="43.5102599" lon="13.0176389"><ele>176.33333333333334</ele><time>2026-04-25T10:27:41.04Z</time></trkpt><trkpt lat="43.5103253" lon="13.0176671"><ele>176.66666666666666</ele><time>2026-04-25T10:27:42.04Z</time></trkpt><trkpt lat="43.5104325" lon="13.0176499"><ele>177.0</ele><time>2026-04-25T10:27:44.04Z</time></trkpt><trkpt lat="43.5104889" lon="13.0175933"><ele>176.66666666666666</ele><time>2026-04-25T10:27:45.04Z</time></trkpt><trkpt lat="43.5105479" lon="13.0175161"><ele>176.33333333333334</ele><time>2026-04-25T10:27:46.039Z</time></trkpt><trkpt lat="43.5105918" lon="13.0174323"><ele>176.0</ele><time>2026-04-25T10:27:47.039Z</time></trkpt><trkpt lat="43.5106161" lon="13.0173382"><ele>175.66666666666669</ele><time>2026-04-25T10:27:48.04Z</time></trkpt><trkpt lat="43.5106226" lon="13.0172267"><ele>175.33333333333334</ele><time>2026-04-25T10:27:49.04Z</time></trkpt><trkpt lat="43.5106232" lon="13.0171251"><ele>175.0</ele><time>2026-04-25T10:27:50.041Z</time></trkpt><trkpt lat="43.5106494" lon="13.0169835"><ele>175.0</ele><time>2026-04-25T10:27:52.039Z</time></trkpt><trkpt lat="43.5107566" lon="13.0168843"><ele>175.0</ele><time>2026-04-25T10:27:54.039Z</time></trkpt><trkpt lat="43.5108403" lon="13.0168463"><ele>175.0</ele><time>2026-04-25T10:27:55.04Z</time></trkpt><trkpt lat="43.5109365" lon="13.0168175"><ele>175.0</ele><time>2026-04-25T10:27:56.04Z</time></trkpt><trkpt lat="43.5110391" lon="13.0167963"><ele>175.0</ele><time>2026-04-25T10:27:57.039Z</time></trkpt><trkpt lat="43.5111448" lon="13.0167837"><ele>175.0</ele><time>2026-04-25T10:27:58.039Z</time></trkpt><trkpt lat="43.5112545" lon="13.0167853"><ele>175.0</ele><time>2026-04-25T10:27:59.039Z</time></trkpt><trkpt lat="43.5113663" lon="13.0167822"><ele>175.0</ele><time>2026-04-25T10:28:00.04Z</time></trkpt><trkpt lat="43.5114838" lon="13.016768"><ele>175.0</ele><time>2026-04-25T10:28:01.04Z</time></trkpt><trkpt lat="43.5116127" lon="13.016743"><ele>175.0</ele><time>2026-04-25T10:28:02.039Z</time></trkpt><trkpt lat="43.5117326" lon="13.0167146"><ele>175.0</ele><time>2026-04-25T10:28:03.04Z</time></trkpt><trkpt lat="43.511841" lon="13.0166852"><ele>175.0</ele><time>2026-04-25T10:28:04.04Z</time></trkpt><trkpt lat="43.5119428" lon="13.0166542"><ele>175.0</ele><time>2026-04-25T10:28:05.039Z</time></trkpt><trkpt lat="43.5120473" lon="13.0166229"><ele>175.0</ele><time>2026-04-25T10:28:06.04Z</time></trkpt><trkpt lat="43.5121517" lon="13.0165948"><ele>173.25</ele><time>2026-04-25T10:28:07.04Z</time></trkpt><trkpt lat="43.5122542" lon="13.016578"><ele>171.5</ele><time>2026-04-25T10:28:08.04Z</time></trkpt><trkpt lat="43.5123658" lon="13.0165799"><ele>169.75</ele><time>2026-04-25T10:28:09.04Z</time></trkpt><trkpt lat="43.5124882" lon="13.016599"><ele>168.0</ele><time>2026-04-25T10:28:10.04Z</time></trkpt><trkpt lat="43.5126204" lon="13.0166376"><ele>169.25</ele><time>2026-04-25T10:28:11.039Z</time></trkpt><trkpt lat="43.5127449" lon="13.0166869"><ele>170.5</ele><time>2026-04-25T10:28:12.039Z</time></trkpt><trkpt lat="43.5128636" lon="13.016742"><ele>171.75</ele><time>2026-04-25T10:28:13.039Z</time></trkpt><trkpt lat="43.5129707" lon="13.0167973"><ele>173.0</ele><time>2026-04-25T10:28:14.039Z</time></trkpt><trkpt lat="43.51306" lon="13.0168432"><ele>173.0</ele><time>2026-04-25T10:28:15.039Z</time></trkpt><trkpt lat="43.5131393" lon="13.0168818"><ele>173.0</ele><time>2026-04-25T10:28:16.039Z</time></trkpt><trkpt lat="43.5132259" lon="13.0169017"><ele>173.0</ele><time>2026-04-25T10:28:17.039Z</time></trkpt><trkpt lat="43.5133197" lon="13.0169068"><ele>173.0</ele><time>2026-04-25T10:28:18.039Z</time></trkpt><trkpt lat="43.5134072" lon="13.0169152"><ele>173.0</ele><time>2026-04-25T10:28:19.039Z</time></trkpt><trkpt lat="43.5134965" lon="13.016953"><ele>173.0</ele><time>2026-04-25T10:28:20.04Z</time></trkpt><trkpt lat="43.5135961" lon="13.0170123"><ele>173.0</ele><time>2026-04-25T10:28:21.04Z</time></trkpt><trkpt lat="43.5137064" lon="13.0170736"><ele>173.0</ele><time>2026-04-25T10:28:22.039Z</time></trkpt><trkpt lat="43.513815" lon="13.0171182"><ele>173.0</ele><time>2026-04-25T10:28:23.039Z</time></trkpt><trkpt lat="43.5139155" lon="13.0171532"><ele>173.0</ele><time>2026-04-25T10:28:24.039Z</time></trkpt><trkpt lat="43.5140118" lon="13.0171867"><ele>173.0</ele><time>2026-04-25T10:28:25.04Z</time></trkpt><trkpt lat="43.5140968" lon="13.0172174"><ele>172.83333333333331</ele><time>2026-04-25T10:28:26.039Z</time></trkpt><trkpt lat="43.5141723" lon="13.0172481"><ele>172.66666666666666</ele><time>2026-04-25T10:28:27.04Z</time></trkpt><trkpt lat="43.5142453" lon="13.0172896"><ele>172.5</ele><time>2026-04-25T10:28:28.039Z</time></trkpt><trkpt lat="43.5143069" lon="13.0173507"><ele>172.33333333333334</ele><time>2026-04-25T10:28:29.039Z</time></trkpt><trkpt lat="43.5143574" lon="13.017414"><ele>172.16666666666669</ele><time>2026-04-25T10:28:30.039Z</time></trkpt><trkpt lat="43.5144693" lon="13.017489"><ele>172.0</ele><time>2026-04-25T10:28:32.04Z</time></trkpt><trkpt lat="43.5145531" lon="13.0175018"><ele>171.33333333333334</ele><time>2026-04-25T10:28:33.041Z</time></trkpt><trkpt lat="43.5146284" lon="13.0175151"><ele>170.66666666666669</ele><time>2026-04-25T10:28:34.04Z</time></trkpt><trkpt lat="43.5147201" lon="13.0175894"><ele>170.0</ele><time>2026-04-25T10:28:36.04Z</time></trkpt><trkpt lat="43.5147544" lon="13.0176645"><ele>169.33333333333334</ele><time>2026-04-25T10:28:37.039Z</time></trkpt><trkpt lat="43.5147845" lon="13.0177503"><ele>168.66666666666666</ele><time>2026-04-25T10:28:38.041Z</time></trkpt><trkpt lat="43.5148188" lon="13.0178265"><ele>168.0</ele><time>2026-04-25T10:28:39.039Z</time></trkpt><trkpt lat="43.5149214" lon="13.0179071"><ele>168.0</ele><time>2026-04-25T10:28:41.039Z</time></trkpt><trkpt lat="43.5150265" lon="13.0178757"><ele>168.0</ele><time>2026-04-25T10:28:43.04Z</time></trkpt><trkpt lat="43.5151034" lon="13.0178401"><ele>168.0</ele><time>2026-04-25T10:28:44.039Z</time></trkpt><trkpt lat="43.5151899" lon="13.017807"><ele>168.0</ele><time>2026-04-25T10:28:45.04Z</time></trkpt><trkpt lat="43.5152716" lon="13.0178049"><ele>168.0</ele><time>2026-04-25T10:28:46.039Z</time></trkpt><trkpt lat="43.5153509" lon="13.0178331"><ele>168.0</ele><time>2026-04-25T10:28:47.04Z</time></trkpt><trkpt lat="43.5154393" lon="13.0178982"><ele>167.5</ele><time>2026-04-25T10:28:48.04Z</time></trkpt><trkpt lat="43.5155134" lon="13.0179734"><ele>167.0</ele><time>2026-04-25T10:28:49.04Z</time></trkpt><trkpt lat="43.5155689" lon="13.0180325"><ele>166.5</ele><time>2026-04-25T10:28:50.039Z</time></trkpt><trkpt lat="43.5156428" lon="13.0180922"><ele>166.0</ele><time>2026-04-25T10:28:51.039Z</time></trkpt><trkpt lat="43.5157205" lon="13.0181545"><ele>165.5</ele><time>2026-04-25T10:28:52.04Z</time></trkpt><trkpt lat="43.5157884" lon="13.018203"><ele>165.0</ele><time>2026-04-25T10:28:53.041Z</time></trkpt><trkpt lat="43.5158626" lon="13.0182344"><ele>165.0</ele><time>2026-04-25T10:28:54.039Z</time></trkpt><trkpt lat="43.5159438" lon="13.0182461"><ele>165.0</ele><time>2026-04-25T10:28:55.039Z</time></trkpt><trkpt lat="43.5160225" lon="13.0182441"><ele>165.0</ele><time>2026-04-25T10:28:56.039Z</time></trkpt><trkpt lat="43.516094" lon="13.0182322"><ele>165.0</ele><time>2026-04-25T10:28:57.04Z</time></trkpt><trkpt lat="43.5161993" lon="13.0181646"><ele>165.0</ele><time>2026-04-25T10:28:59.04Z</time></trkpt><trkpt lat="43.5162775" lon="13.0180474"><ele>164.16666666666666</ele><time>2026-04-25T10:29:01.039Z</time></trkpt><trkpt lat="43.5163164" lon="13.0179564"><ele>163.33333333333334</ele><time>2026-04-25T10:29:02.04Z</time></trkpt><trkpt lat="43.5163704" lon="13.0178602"><ele>162.5</ele><time>2026-04-25T10:29:03.039Z</time></trkpt><trkpt lat="43.5164226" lon="13.0177792"><ele>161.66666666666669</ele><time>2026-04-25T10:29:04.039Z</time></trkpt><trkpt lat="43.5164691" lon="13.0176964"><ele>160.83333333333334</ele><time>2026-04-25T10:29:05.039Z</time></trkpt><trkpt lat="43.5165161" lon="13.0176088"><ele>160.0</ele><time>2026-04-25T10:29:06.04Z</time></trkpt><trkpt lat="43.5165632" lon="13.0175332"><ele>159.83333333333334</ele><time>2026-04-25T10:29:07.04Z</time></trkpt><trkpt lat="43.516615" lon="13.017462"><ele>159.66666666666669</ele><time>2026-04-25T10:29:08.04Z</time></trkpt><trkpt lat="43.5166679" lon="13.0173922"><ele>159.5</ele><time>2026-04-25T10:29:09.039Z</time></trkpt><trkpt lat="43.516722" lon="13.0173136"><ele>159.33333333333334</ele><time>2026-04-25T10:29:10.04Z</time></trkpt><trkpt lat="43.5167799" lon="13.0172182"><ele>159.16666666666666</ele><time>2026-04-25T10:29:11.04Z</time></trkpt><trkpt lat="43.5168442" lon="13.0170963"><ele>159.0</ele><time>2026-04-25T10:29:12.039Z</time></trkpt><trkpt lat="43.5169073" lon="13.0169781"><ele>159.0</ele><time>2026-04-25T10:29:13.039Z</time></trkpt><trkpt lat="43.5169666" lon="13.0168781"><ele>159.0</ele><time>2026-04-25T10:29:14.039Z</time></trkpt><trkpt lat="43.5170173" lon="13.016785"><ele>159.0</ele><time>2026-04-25T10:29:15.039Z</time></trkpt><trkpt lat="43.5170675" lon="13.016679"><ele>159.0</ele><time>2026-04-25T10:29:16.04Z</time></trkpt><trkpt lat="43.517111" lon="13.016583"><ele>159.0</ele><time>2026-04-25T10:29:17.039Z</time></trkpt><trkpt lat="43.5171511" lon="13.0165043"><ele>159.0</ele><time>2026-04-25T10:29:18.039Z</time></trkpt><trkpt lat="43.5172415" lon="13.0164178"><ele>158.0</ele><time>2026-04-25T10:29:20.039Z</time></trkpt><trkpt lat="43.5173681" lon="13.0164386"><ele>157.0</ele><time>2026-04-25T10:29:22.039Z</time></trkpt><trkpt lat="43.517437" lon="13.0164738"><ele>156.0</ele><time>2026-04-25T10:29:23.039Z</time></trkpt><trkpt lat="43.5175124" lon="13.0165204"><ele>155.0</ele><time>2026-04-25T10:29:24.039Z</time></trkpt><trkpt lat="43.517596" lon="13.0165791"><ele>154.0</ele><time>2026-04-25T10:29:25.039Z</time></trkpt><trkpt lat="43.5176738" lon="13.0166431"><ele>154.0</ele><time>2026-04-25T10:29:26.039Z</time></trkpt><trkpt lat="43.5177379" lon="13.0167064"><ele>154.0</ele><time>2026-04-25T10:29:27.039Z</time></trkpt><trkpt lat="43.5177928" lon="13.016775"><ele>154.0</ele><time>2026-04-25T10:29:28.04Z</time></trkpt><trkpt lat="43.5178342" lon="13.0168528"><ele>154.0</ele><time>2026-04-25T10:29:29.039Z</time></trkpt><trkpt lat="43.517865" lon="13.0169448"><ele>154.0</ele><time>2026-04-25T10:29:30.04Z</time></trkpt><trkpt lat="43.5178871" lon="13.0170335"><ele>154.0</ele><time>2026-04-25T10:29:31.039Z</time></trkpt><trkpt lat="43.5179122" lon="13.0171733"><ele>154.0</ele><time>2026-04-25T10:29:33.04Z</time></trkpt><trkpt lat="43.5179844" lon="13.01725"><ele>154.0</ele><time>2026-04-25T10:29:36.04Z</time></trkpt><trkpt lat="43.5180935" lon="13.0172058"><ele>154.0</ele><time>2026-04-25T10:29:38.04Z</time></trkpt><trkpt lat="43.5181801" lon="13.0171179"><ele>154.0</ele><time>2026-04-25T10:29:40.039Z</time></trkpt><trkpt lat="43.5182488" lon="13.0170523"><ele>154.0</ele><time>2026-04-25T10:29:42.04Z</time></trkpt><trkpt lat="43.518362" lon="13.0169693"><ele>154.0</ele><time>2026-04-25T10:29:44.041Z</time></trkpt><trkpt lat="43.5184668" lon="13.0169493"><ele>154.0</ele><time>2026-04-25T10:29:46.039Z</time></trkpt><trkpt lat="43.5185424" lon="13.0169555"><ele>154.0</ele><time>2026-04-25T10:29:48.039Z</time></trkpt><trkpt lat="43.5186212" lon="13.0169822"><ele>154.0</ele><time>2026-04-25T10:29:50.039Z</time></trkpt><trkpt lat="43.5187011" lon="13.0170055"><ele>154.0</ele><time>2026-04-25T10:29:52.039Z</time></trkpt><trkpt lat="43.5187685" lon="13.01706"><ele>154.0</ele><time>2026-04-25T10:29:54.04Z</time></trkpt><trkpt lat="43.5188064" lon="13.0171396"><ele>153.33333333333334</ele><time>2026-04-25T10:29:56.04Z</time></trkpt><trkpt lat="43.5188682" lon="13.017226"><ele>152.66666666666669</ele><time>2026-04-25T10:29:58.039Z</time></trkpt><trkpt lat="43.518969" lon="13.017288"><ele>152.0</ele><time>2026-04-25T10:30:00.039Z</time></trkpt><trkpt lat="43.5190441" lon="13.0173333"><ele>151.33333333333334</ele><time>2026-04-25T10:30:02.039Z</time></trkpt><trkpt lat="43.5191205" lon="13.017364"><ele>150.66666666666666</ele><time>2026-04-25T10:30:06.039Z</time></trkpt><trkpt lat="43.5192043" lon="13.0173488"><ele>150.0</ele><time>2026-04-25T10:30:10.039Z</time></trkpt><trkpt lat="43.5193009" lon="13.0173268"><ele>150.0</ele><time>2026-04-25T10:30:12.04Z</time></trkpt><trkpt lat="43.5194337" lon="13.0172999"><ele>150.0</ele><time>2026-04-25T10:30:14.04Z</time></trkpt><trkpt lat="43.5195119" lon="13.0172906"><ele>150.0</ele><time>2026-04-25T10:30:15.039Z</time></trkpt><trkpt lat="43.5195918" lon="13.0172844"><ele>150.0</ele><time>2026-04-25T10:30:16.04Z</time></trkpt><trkpt lat="43.5196758" lon="13.0172783"><ele>150.0</ele><time>2026-04-25T10:30:17.039Z</time></trkpt><trkpt lat="43.5197548" lon="13.0172682"><ele>150.16666666666666</ele><time>2026-04-25T10:30:18.039Z</time></trkpt><trkpt lat="43.5198312" lon="13.0172542"><ele>150.33333333333334</ele><time>2026-04-25T10:30:19.039Z</time></trkpt><trkpt lat="43.5199095" lon="13.0172356"><ele>150.5</ele><time>2026-04-25T10:30:20.039Z</time></trkpt><trkpt lat="43.519989" lon="13.0172151"><ele>150.66666666666669</ele><time>2026-04-25T10:30:21.039Z</time></trkpt><trkpt lat="43.5200629" lon="13.0171954"><ele>150.83333333333334</ele><time>2026-04-25T10:30:22.041Z</time></trkpt><trkpt lat="43.5201376" lon="13.0171747"><ele>151.0</ele><time>2026-04-25T10:30:23.039Z</time></trkpt><trkpt lat="43.5202144" lon="13.017155"><ele>151.0</ele><time>2026-04-25T10:30:24.04Z</time></trkpt><trkpt lat="43.5202899" lon="13.0171359"><ele>151.0</ele><time>2026-04-25T10:30:25.04Z</time></trkpt><trkpt lat="43.5203631" lon="13.0171187"><ele>151.0</ele><time>2026-04-25T10:30:26.039Z</time></trkpt><trkpt lat="43.5204317" lon="13.0171016"><ele>151.0</ele><time>2026-04-25T10:30:27.04Z</time></trkpt><trkpt lat="43.5206091" lon="13.0170679"><ele>151.0</ele><time>2026-04-25T10:30:30.039Z</time></trkpt><trkpt lat="43.520681" lon="13.0170608"><ele>151.5</ele><time>2026-04-25T10:30:31.04Z</time></trkpt><trkpt lat="43.5207656" lon="13.0170524"><ele>152.0</ele><time>2026-04-25T10:30:32.039Z</time></trkpt><trkpt lat="43.5208464" lon="13.0170404"><ele>152.5</ele><time>2026-04-25T10:30:33.039Z</time></trkpt><trkpt lat="43.5209256" lon="13.0170251"><ele>153.0</ele><time>2026-04-25T10:30:34.04Z</time></trkpt><trkpt lat="43.520993" lon="13.017011"><ele>153.5</ele><time>2026-04-25T10:30:35.039Z</time></trkpt><trkpt lat="43.5210739" lon="13.0169946"><ele>154.0</ele><time>2026-04-25T10:30:37.039Z</time></trkpt><trkpt lat="43.5211658" lon="13.0170267"><ele>154.0</ele><time>2026-04-25T10:30:39.04Z</time></trkpt><trkpt lat="43.5212661" lon="13.0170902"><ele>154.0</ele><time>2026-04-25T10:30:40.039Z</time></trkpt><trkpt lat="43.5214235" lon="13.0171703"><ele>154.0</ele><time>2026-04-25T10:30:41.039Z</time></trkpt><trkpt lat="43.5216353" lon="13.0172493"><ele>154.0</ele><time>2026-04-25T10:30:42.04Z</time></trkpt><trkpt lat="43.5218874" lon="13.0173177"><ele>154.0</ele><time>2026-04-25T10:30:43.04Z</time></trkpt><trkpt lat="43.5221631" lon="13.0173821"><ele>154.5</ele><time>2026-04-25T10:30:44.04Z</time></trkpt><trkpt lat="43.5224203" lon="13.0174425"><ele>155.0</ele><time>2026-04-25T10:30:45.039Z</time></trkpt><trkpt lat="43.5226445" lon="13.0174969"><ele>155.0</ele><time>2026-04-25T10:30:46.039Z</time></trkpt><trkpt lat="43.5228461" lon="13.0175464"><ele>155.0</ele><time>2026-04-25T10:30:47.04Z</time></trkpt><trkpt lat="43.5230339" lon="13.0175894"><ele>155.0</ele><time>2026-04-25T10:30:48.04Z</time></trkpt><trkpt lat="43.5232151" lon="13.0176225"><ele>156.0</ele><time>2026-04-25T10:30:49.04Z</time></trkpt><trkpt lat="43.5234024" lon="13.0176492"><ele>157.0</ele><time>2026-04-25T10:30:50.04Z</time></trkpt><trkpt lat="43.5235874" lon="13.0176718"><ele>158.0</ele><time>2026-04-25T10:30:51.04Z</time></trkpt><trkpt lat="43.5237577" lon="13.0176897"><ele>158.0</ele><time>2026-04-25T10:30:52.04Z</time></trkpt><trkpt lat="43.523921" lon="13.0177021"><ele>158.0</ele><time>2026-04-25T10:30:53.04Z</time></trkpt><trkpt lat="43.5240908" lon="13.0177068"><ele>158.0</ele><time>2026-04-25T10:30:54.04Z</time></trkpt><trkpt lat="43.5242699" lon="13.0177039"><ele>158.0</ele><time>2026-04-25T10:30:55.039Z</time></trkpt><trkpt lat="43.5244571" lon="13.0176927"><ele>158.0</ele><time>2026-04-25T10:30:56.04Z</time></trkpt><trkpt lat="43.5246394" lon="13.0176735"><ele>158.0</ele><time>2026-04-25T10:30:57.04Z</time></trkpt><trkpt lat="43.5248197" lon="13.0176492"><ele>157.33333333333331</ele><time>2026-04-25T10:30:58.039Z</time></trkpt><trkpt lat="43.5250029" lon="13.0176217"><ele>156.66666666666666</ele><time>2026-04-25T10:30:59.039Z</time></trkpt><trkpt lat="43.5251865" lon="13.0175915"><ele>156.0</ele><time>2026-04-25T10:31:00.039Z</time></trkpt><trkpt lat="43.5253669" lon="13.0175585"><ele>156.0</ele><time>2026-04-25T10:31:01.04Z</time></trkpt><trkpt lat="43.5255406" lon="13.0175274"><ele>156.0</ele><time>2026-04-25T10:31:02.039Z</time></trkpt><trkpt lat="43.5257094" lon="13.0174947"><ele>156.0</ele><time>2026-04-25T10:31:03.04Z</time></trkpt><trkpt lat="43.525875" lon="13.0174595"><ele>156.33333333333334</ele><time>2026-04-25T10:31:04.04Z</time></trkpt><trkpt lat="43.5260405" lon="13.017423"><ele>156.66666666666669</ele><time>2026-04-25T10:31:05.04Z</time></trkpt><trkpt lat="43.5262009" lon="13.0173835"><ele>157.0</ele><time>2026-04-25T10:31:06.041Z</time></trkpt><trkpt lat="43.5263553" lon="13.0173468"><ele>157.0</ele><time>2026-04-25T10:31:07.04Z</time></trkpt><trkpt lat="43.5265029" lon="13.0173137"><ele>157.0</ele><time>2026-04-25T10:31:08.04Z</time></trkpt><trkpt lat="43.526635" lon="13.0172924"><ele>157.0</ele><time>2026-04-25T10:31:09.039Z</time></trkpt><trkpt lat="43.5267595" lon="13.0173019"><ele>157.0</ele><time>2026-04-25T10:31:10.039Z</time></trkpt><trkpt lat="43.5268886" lon="13.017357"><ele>157.0</ele><time>2026-04-25T10:31:11.04Z</time></trkpt><trkpt lat="43.5270381" lon="13.0174535"><ele>157.0</ele><time>2026-04-25T10:31:12.04Z</time></trkpt><trkpt lat="43.5272106" lon="13.0175711"><ele>157.0</ele><time>2026-04-25T10:31:13.04Z</time></trkpt><trkpt lat="43.5274039" lon="13.0176977"><ele>156.66666666666669</ele><time>2026-04-25T10:31:14.04Z</time></trkpt><trkpt lat="43.5275953" lon="13.0178199"><ele>156.33333333333334</ele><time>2026-04-25T10:31:15.04Z</time></trkpt><trkpt lat="43.5277839" lon="13.0179423"><ele>156.0</ele><time>2026-04-25T10:31:16.041Z</time></trkpt><trkpt lat="43.5279704" lon="13.0180626"><ele>154.66666666666666</ele><time>2026-04-25T10:31:17.04Z</time></trkpt><trkpt lat="43.5281575" lon="13.018179"><ele>153.33333333333331</ele><time>2026-04-25T10:31:18.039Z</time></trkpt><trkpt lat="43.5283401" lon="13.0182942"><ele>152.0</ele><time>2026-04-25T10:31:19.039Z</time></trkpt><trkpt lat="43.5285118" lon="13.0184145"><ele>152.0</ele><time>2026-04-25T10:31:20.04Z</time></trkpt><trkpt lat="43.5286756" lon="13.0185563"><ele>152.0</ele><time>2026-04-25T10:31:21.039Z</time></trkpt><trkpt lat="43.5288304" lon="13.0187288"><ele>152.0</ele><time>2026-04-25T10:31:22.039Z</time></trkpt><trkpt lat="43.5289741" lon="13.0189277"><ele>151.66666666666666</ele><time>2026-04-25T10:31:23.04Z</time></trkpt><trkpt lat="43.5291046" lon="13.0191369"><ele>151.33333333333334</ele><time>2026-04-25T10:31:24.041Z</time></trkpt><trkpt lat="43.5292232" lon="13.0193437"><ele>151.0</ele><time>2026-04-25T10:31:25.04Z</time></trkpt><trkpt lat="43.5293454" lon="13.0195459"><ele>151.0</ele><time>2026-04-25T10:31:26.039Z</time></trkpt><trkpt lat="43.5294798" lon="13.019734"><ele>151.0</ele><time>2026-04-25T10:31:27.039Z</time></trkpt><trkpt lat="43.5296257" lon="13.0199087"><ele>151.0</ele><time>2026-04-25T10:31:28.04Z</time></trkpt><trkpt lat="43.5297784" lon="13.0200753"><ele>150.66666666666669</ele><time>2026-04-25T10:31:29.04Z</time></trkpt><trkpt lat="43.5299315" lon="13.0202225"><ele>150.33333333333334</ele><time>2026-04-25T10:31:30.039Z</time></trkpt><trkpt lat="43.5300849" lon="13.0203415"><ele>150.0</ele><time>2026-04-25T10:31:31.039Z</time></trkpt><trkpt lat="43.5302522" lon="13.0204307"><ele>149.66666666666666</ele><time>2026-04-25T10:31:32.04Z</time></trkpt><trkpt lat="43.5304422" lon="13.0204868"><ele>149.33333333333331</ele><time>2026-04-25T10:31:33.04Z</time></trkpt><trkpt lat="43.5306497" lon="13.020515"><ele>149.0</ele><time>2026-04-25T10:31:34.04Z</time></trkpt><trkpt lat="43.5308582" lon="13.0205222"><ele>149.0</ele><time>2026-04-25T10:31:35.039Z</time></trkpt><trkpt lat="43.5310565" lon="13.0205226"><ele>149.0</ele><time>2026-04-25T10:31:36.04Z</time></trkpt><trkpt lat="43.5312399" lon="13.0205196"><ele>149.0</ele><time>2026-04-25T10:31:37.039Z</time></trkpt><trkpt lat="43.5314135" lon="13.0205162"><ele>149.0</ele><time>2026-04-25T10:31:38.039Z</time></trkpt><trkpt lat="43.531591" lon="13.0205131"><ele>149.0</ele><time>2026-04-25T10:31:39.04Z</time></trkpt><trkpt lat="43.5317815" lon="13.0205093"><ele>149.0</ele><time>2026-04-25T10:31:40.041Z</time></trkpt><trkpt lat="43.5319755" lon="13.0205104"><ele>148.66666666666666</ele><time>2026-04-25T10:31:41.039Z</time></trkpt><trkpt lat="43.5321635" lon="13.0205183"><ele>148.33333333333334</ele><time>2026-04-25T10:31:42.039Z</time></trkpt><trkpt lat="43.5323536" lon="13.0205407"><ele>148.0</ele><time>2026-04-25T10:31:43.039Z</time></trkpt><trkpt lat="43.5325387" lon="13.020583"><ele>148.0</ele><time>2026-04-25T10:31:44.04Z</time></trkpt><trkpt lat="43.5327207" lon="13.0206488"><ele>148.0</ele><time>2026-04-25T10:31:45.04Z</time></trkpt><trkpt lat="43.5329137" lon="13.0207375"><ele>148.0</ele><time>2026-04-25T10:31:46.039Z</time></trkpt><trkpt lat="43.5330982" lon="13.0208349"><ele>146.33333333333334</ele><time>2026-04-25T10:31:47.039Z</time></trkpt><trkpt lat="43.5332671" lon="13.0209297"><ele>144.66666666666666</ele><time>2026-04-25T10:31:48.039Z</time></trkpt><trkpt lat="43.5334302" lon="13.0210237"><ele>143.0</ele><time>2026-04-25T10:31:49.039Z</time></trkpt><trkpt lat="43.5335976" lon="13.0211235"><ele>142.33333333333331</ele><time>2026-04-25T10:31:50.039Z</time></trkpt><trkpt lat="43.5337702" lon="13.0212278"><ele>141.66666666666666</ele><time>2026-04-25T10:31:51.039Z</time></trkpt><trkpt lat="43.5339303" lon="13.0213244"><ele>141.0</ele><time>2026-04-25T10:31:52.04Z</time></trkpt><trkpt lat="43.5340773" lon="13.0214093"><ele>141.0</ele><time>2026-04-25T10:31:53.039Z</time></trkpt><trkpt lat="43.5342169" lon="13.0214873"><ele>141.0</ele><time>2026-04-25T10:31:54.039Z</time></trkpt><trkpt lat="43.5343481" lon="13.0215575"><ele>141.0</ele><time>2026-04-25T10:31:55.041Z</time></trkpt><trkpt lat="43.5344686" lon="13.0216191"><ele>141.0</ele><time>2026-04-25T10:31:56.04Z</time></trkpt><trkpt lat="43.5345823" lon="13.0216735"><ele>141.0</ele><time>2026-04-25T10:31:57.04Z</time></trkpt><trkpt lat="43.5346848" lon="13.0217253"><ele>141.0</ele><time>2026-04-25T10:31:58.041Z</time></trkpt><trkpt lat="43.5347774" lon="13.0217728"><ele>141.0</ele><time>2026-04-25T10:31:59.04Z</time></trkpt><trkpt lat="43.5348596" lon="13.0218241"><ele>141.0</ele><time>2026-04-25T10:32:00.039Z</time></trkpt><trkpt lat="43.5349317" lon="13.0218777"><ele>141.0</ele><time>2026-04-25T10:32:01.04Z</time></trkpt><trkpt lat="43.5349984" lon="13.0219211"><ele>141.0</ele><time>2026-04-25T10:32:02.04Z</time></trkpt><trkpt lat="43.5351064" lon="13.0218963"><ele>141.0</ele><time>2026-04-25T10:32:04.039Z</time></trkpt><trkpt lat="43.5351246" lon="13.0217196"><ele>141.0</ele><time>2026-04-25T10:32:06.039Z</time></trkpt><trkpt lat="43.5351069" lon="13.0215668"><ele>141.0</ele><time>2026-04-25T10:32:07.039Z</time></trkpt><trkpt lat="43.5351075" lon="13.0214194"><ele>141.0</ele><time>2026-04-25T10:32:08.04Z</time></trkpt><trkpt lat="43.5351358" lon="13.0212381"><ele>141.0</ele><time>2026-04-25T10:32:09.039Z</time></trkpt><trkpt lat="43.5351912" lon="13.0209913"><ele>141.0</ele><time>2026-04-25T10:32:10.04Z</time></trkpt><trkpt lat="43.5352571" lon="13.0207576"><ele>141.0</ele><time>2026-04-25T10:32:11.039Z</time></trkpt><trkpt lat="43.5353304" lon="13.0205602"><ele>141.0</ele><time>2026-04-25T10:32:12.039Z</time></trkpt><trkpt lat="43.5354307" lon="13.0203457"><ele>141.0</ele><time>2026-04-25T10:32:13.04Z</time></trkpt><trkpt lat="43.5355492" lon="13.020109"><ele>140.75</ele><time>2026-04-25T10:32:14.041Z</time></trkpt><trkpt lat="43.535646" lon="13.0199113"><ele>140.5</ele><time>2026-04-25T10:32:15.041Z</time></trkpt><trkpt lat="43.5357245" lon="13.0197583"><ele>140.25</ele><time>2026-04-25T10:32:16.039Z</time></trkpt><trkpt lat="43.5358027" lon="13.0196246"><ele>140.0</ele><time>2026-04-25T10:32:17.04Z</time></trkpt><trkpt lat="43.5358887" lon="13.0194974"><ele>140.0</ele><time>2026-04-25T10:32:18.04Z</time></trkpt><trkpt lat="43.5359883" lon="13.0193722"><ele>140.0</ele><time>2026-04-25T10:32:19.04Z</time></trkpt><trkpt lat="43.5361142" lon="13.019239"><ele>140.0</ele><time>2026-04-25T10:32:20.039Z</time></trkpt><trkpt lat="43.5362603" lon="13.0191018"><ele>140.5</ele><time>2026-04-25T10:32:21.04Z</time></trkpt><trkpt lat="43.5363867" lon="13.018995"><ele>141.0</ele><time>2026-04-25T10:32:22.04Z</time></trkpt><trkpt lat="43.5364995" lon="13.01891"><ele>141.5</ele><time>2026-04-25T10:32:23.039Z</time></trkpt><trkpt lat="43.5366212" lon="13.0188454"><ele>142.0</ele><time>2026-04-25T10:32:24.041Z</time></trkpt><trkpt lat="43.536755" lon="13.0188149"><ele>142.0</ele><time>2026-04-25T10:32:25.039Z</time></trkpt><trkpt lat="43.5369111" lon="13.0188219"><ele>142.0</ele><time>2026-04-25T10:32:26.04Z</time></trkpt><trkpt lat="43.5370935" lon="13.0188556"><ele>142.0</ele><time>2026-04-25T10:32:27.04Z</time></trkpt><trkpt lat="43.5372959" lon="13.0189026"><ele>140.33333333333334</ele><time>2026-04-25T10:32:28.04Z</time></trkpt><trkpt lat="43.5374917" lon="13.0189532"><ele>138.66666666666666</ele><time>2026-04-25T10:32:29.039Z</time></trkpt><trkpt lat="43.5376696" lon="13.0189996"><ele>137.0</ele><time>2026-04-25T10:32:30.039Z</time></trkpt><trkpt lat="43.5378325" lon="13.0190405"><ele>136.75</ele><time>2026-04-25T10:32:31.039Z</time></trkpt><trkpt lat="43.5379819" lon="13.0190759"><ele>136.5</ele><time>2026-04-25T10:32:32.04Z</time></trkpt><trkpt lat="43.5381154" lon="13.0191084"><ele>136.25</ele><time>2026-04-25T10:32:33.04Z</time></trkpt><trkpt lat="43.5382394" lon="13.0191376"><ele>136.0</ele><time>2026-04-25T10:32:34.04Z</time></trkpt><trkpt lat="43.5383524" lon="13.0191642"><ele>136.0</ele><time>2026-04-25T10:32:35.039Z</time></trkpt><trkpt lat="43.5384578" lon="13.0191814"><ele>136.0</ele><time>2026-04-25T10:32:36.04Z</time></trkpt><trkpt lat="43.5385585" lon="13.0191837"><ele>136.0</ele><time>2026-04-25T10:32:37.039Z</time></trkpt><trkpt lat="43.5386533" lon="13.0191724"><ele>136.0</ele><time>2026-04-25T10:32:38.039Z</time></trkpt><trkpt lat="43.5387463" lon="13.0191527"><ele>136.0</ele><time>2026-04-25T10:32:39.039Z</time></trkpt><trkpt lat="43.5388398" lon="13.0191367"><ele>134.6</ele><time>2026-04-25T10:32:40.039Z</time></trkpt><trkpt lat="43.5389349" lon="13.0191326"><ele>133.2</ele><time>2026-04-25T10:32:41.039Z</time></trkpt><trkpt lat="43.5390305" lon="13.0191388"><ele>131.8</ele><time>2026-04-25T10:32:42.04Z</time></trkpt><trkpt lat="43.5391279" lon="13.0191478"><ele>130.4</ele><time>2026-04-25T10:32:43.04Z</time></trkpt><trkpt lat="43.5392209" lon="13.0191568"><ele>129.0</ele><time>2026-04-25T10:32:44.039Z</time></trkpt><trkpt lat="43.5393019" lon="13.0191675"><ele>129.0</ele><time>2026-04-25T10:32:45.039Z</time></trkpt><trkpt lat="43.5394173" lon="13.0191984"><ele>129.0</ele><time>2026-04-25T10:32:47.04Z</time></trkpt><trkpt lat="43.5394822" lon="13.019239"><ele>129.0</ele><time>2026-04-25T10:32:49.04Z</time></trkpt><trkpt lat="43.5395287" lon="13.019301"><ele>129.0</ele><time>2026-04-25T10:32:52.039Z</time></trkpt><trkpt lat="43.5396095" lon="13.019335"><ele>129.0</ele><time>2026-04-25T10:33:02.039Z</time></trkpt><trkpt lat="43.5396771" lon="13.0193775"><ele>129.0</ele><time>2026-04-25T10:33:06.04Z</time></trkpt><trkpt lat="43.5397463" lon="13.0194123"><ele>128.75</ele><time>2026-04-25T10:33:11.04Z</time></trkpt><trkpt lat="43.5397884" lon="13.01954"><ele>128.5</ele><time>2026-04-25T10:33:14.04Z</time></trkpt><trkpt lat="43.5399192" lon="13.019621"><ele>128.25</ele><time>2026-04-25T10:33:16.039Z</time></trkpt><trkpt lat="43.5400514" lon="13.0196761"><ele>128.0</ele><time>2026-04-25T10:33:17.04Z</time></trkpt><trkpt lat="43.5402158" lon="13.0197373"><ele>130.0</ele><time>2026-04-25T10:33:18.04Z</time></trkpt><trkpt lat="43.5404113" lon="13.0198061"><ele>132.0</ele><time>2026-04-25T10:33:19.04Z</time></trkpt><trkpt lat="43.5406423" lon="13.0198837"><ele>134.0</ele><time>2026-04-25T10:33:20.04Z</time></trkpt><trkpt lat="43.5408499" lon="13.0199549"><ele>134.75</ele><time>2026-04-25T10:33:21.039Z</time></trkpt><trkpt lat="43.5410001" lon="13.0200054"><ele>135.5</ele><time>2026-04-25T10:33:22.039Z</time></trkpt><trkpt lat="43.5411257" lon="13.0200349"><ele>136.25</ele><time>2026-04-25T10:33:23.04Z</time></trkpt><trkpt lat="43.5412393" lon="13.0200522"><ele>137.0</ele><time>2026-04-25T10:33:24.041Z</time></trkpt><trkpt lat="43.5413439" lon="13.0200618"><ele>137.0</ele><time>2026-04-25T10:33:25.04Z</time></trkpt><trkpt lat="43.5414471" lon="13.020074"><ele>137.0</ele><time>2026-04-25T10:33:26.04Z</time></trkpt><trkpt lat="43.5415153" lon="13.0200824"><ele>137.0</ele><time>2026-04-25T10:33:27.039Z</time></trkpt><trkpt lat="43.5416275" lon="13.0201009"><ele>137.0</ele><time>2026-04-25T10:33:29.041Z</time></trkpt><trkpt lat="43.541696" lon="13.0201529"><ele>137.0</ele><time>2026-04-25T10:33:30.04Z</time></trkpt><trkpt lat="43.5417646" lon="13.0202524"><ele>137.0</ele><time>2026-04-25T10:33:31.04Z</time></trkpt><trkpt lat="43.5418394" lon="13.0203842"><ele>137.0</ele><time>2026-04-25T10:33:32.04Z</time></trkpt><trkpt lat="43.5419348" lon="13.020565"><ele>137.0</ele><time>2026-04-25T10:33:33.039Z</time></trkpt><trkpt lat="43.5420566" lon="13.020796"><ele>137.5</ele><time>2026-04-25T10:33:34.039Z</time></trkpt><trkpt lat="43.5421988" lon="13.0210644"><ele>138.0</ele><time>2026-04-25T10:33:35.04Z</time></trkpt><trkpt lat="43.5423351" lon="13.021322"><ele>138.0</ele><time>2026-04-25T10:33:36.039Z</time></trkpt><trkpt lat="43.5424521" lon="13.0215203"><ele>138.0</ele><time>2026-04-25T10:33:37.041Z</time></trkpt><trkpt lat="43.5425733" lon="13.0216761"><ele>138.0</ele><time>2026-04-25T10:33:38.04Z</time></trkpt><trkpt lat="43.5427199" lon="13.0218157"><ele>136.66666666666666</ele><time>2026-04-25T10:33:39.04Z</time></trkpt><trkpt lat="43.5428948" lon="13.0219279"><ele>135.33333333333331</ele><time>2026-04-25T10:33:40.04Z</time></trkpt><trkpt lat="43.5431029" lon="13.0220042"><ele>134.0</ele><time>2026-04-25T10:33:41.039Z</time></trkpt><trkpt lat="43.5433427" lon="13.0220595"><ele>134.0</ele><time>2026-04-25T10:33:42.04Z</time></trkpt><trkpt lat="43.5435629" lon="13.0221105"><ele>134.0</ele><time>2026-04-25T10:33:43.04Z</time></trkpt><trkpt lat="43.543752" lon="13.0221577"><ele>134.0</ele><time>2026-04-25T10:33:44.04Z</time></trkpt><trkpt lat="43.5439239" lon="13.0222022"><ele>134.0</ele><time>2026-04-25T10:33:45.04Z</time></trkpt><trkpt lat="43.5440803" lon="13.0222401"><ele>134.0</ele><time>2026-04-25T10:33:46.04Z</time></trkpt><trkpt lat="43.5442258" lon="13.0222775"><ele>134.0</ele><time>2026-04-25T10:33:47.039Z</time></trkpt><trkpt lat="43.5443641" lon="13.0223132"><ele>134.0</ele><time>2026-04-25T10:33:48.041Z</time></trkpt><trkpt lat="43.5444944" lon="13.0223485"><ele>133.6</ele><time>2026-04-25T10:33:49.039Z</time></trkpt><trkpt lat="43.5446173" lon="13.0223751"><ele>133.2</ele><time>2026-04-25T10:33:50.039Z</time></trkpt><trkpt lat="43.5447304" lon="13.0223988"><ele>132.79999999999998</ele><time>2026-04-25T10:33:51.039Z</time></trkpt><trkpt lat="43.5448364" lon="13.0224228"><ele>132.4</ele><time>2026-04-25T10:33:52.039Z</time></trkpt><trkpt lat="43.544935" lon="13.0224464"><ele>132.0</ele><time>2026-04-25T10:33:53.04Z</time></trkpt><trkpt lat="43.5450075" lon="13.0224644"><ele>132.0</ele><time>2026-04-25T10:33:54.039Z</time></trkpt><trkpt lat="43.5450838" lon="13.0224802"><ele>132.0</ele><time>2026-04-25T10:33:56.041Z</time></trkpt><trkpt lat="43.5452358" lon="13.0225083"><ele>132.0</ele><time>2026-04-25T10:34:21.04Z</time></trkpt><trkpt lat="43.5453649" lon="13.0225376"><ele>132.0</ele><time>2026-04-25T10:34:22.04Z</time></trkpt><trkpt lat="43.5455019" lon="13.0225711"><ele>130.66666666666666</ele><time>2026-04-25T10:34:23.04Z</time></trkpt><trkpt lat="43.5456437" lon="13.0226068"><ele>129.33333333333331</ele><time>2026-04-25T10:34:24.04Z</time></trkpt><trkpt lat="43.5458132" lon="13.0226536"><ele>128.0</ele><time>2026-04-25T10:34:25.039Z</time></trkpt><trkpt lat="43.5460168" lon="13.0227108"><ele>129.0</ele><time>2026-04-25T10:34:26.039Z</time></trkpt><trkpt lat="43.5462251" lon="13.0227692"><ele>130.0</ele><time>2026-04-25T10:34:27.039Z</time></trkpt><trkpt lat="43.5464175" lon="13.0228156"><ele>131.0</ele><time>2026-04-25T10:34:28.039Z</time></trkpt><trkpt lat="43.546611" lon="13.0228584"><ele>131.0</ele><time>2026-04-25T10:34:29.04Z</time></trkpt><trkpt lat="43.5468048" lon="13.0229062"><ele>131.0</ele><time>2026-04-25T10:34:30.04Z</time></trkpt><trkpt lat="43.5469899" lon="13.0229533"><ele>131.0</ele><time>2026-04-25T10:34:31.04Z</time></trkpt><trkpt lat="43.5471692" lon="13.0229974"><ele>131.66666666666666</ele><time>2026-04-25T10:34:32.039Z</time></trkpt><trkpt lat="43.5473473" lon="13.0230413"><ele>132.33333333333334</ele><time>2026-04-25T10:34:33.04Z</time></trkpt><trkpt lat="43.5475251" lon="13.0230872"><ele>133.0</ele><time>2026-04-25T10:34:34.039Z</time></trkpt><trkpt lat="43.5477023" lon="13.0231309"><ele>133.33333333333334</ele><time>2026-04-25T10:34:35.039Z</time></trkpt><trkpt lat="43.5478801" lon="13.0231727"><ele>133.66666666666666</ele><time>2026-04-25T10:34:36.04Z</time></trkpt><trkpt lat="43.548054" lon="13.0232192"><ele>134.0</ele><time>2026-04-25T10:34:37.039Z</time></trkpt><trkpt lat="43.5482177" lon="13.0232647"><ele>134.0</ele><time>2026-04-25T10:34:38.039Z</time></trkpt><trkpt lat="43.5483773" lon="13.0233093"><ele>134.0</ele><time>2026-04-25T10:34:39.039Z</time></trkpt><trkpt lat="43.5485464" lon="13.0233547"><ele>134.0</ele><time>2026-04-25T10:34:40.039Z</time></trkpt><trkpt lat="43.5487252" lon="13.0233997"><ele>132.33333333333331</ele><time>2026-04-25T10:34:41.04Z</time></trkpt><trkpt lat="43.5489087" lon="13.0234464"><ele>130.66666666666666</ele><time>2026-04-25T10:34:42.039Z</time></trkpt><trkpt lat="43.5490962" lon="13.0234945"><ele>129.0</ele><time>2026-04-25T10:34:43.039Z</time></trkpt><trkpt lat="43.5492838" lon="13.0235441"><ele>129.0</ele><time>2026-04-25T10:34:44.039Z</time></trkpt><trkpt lat="43.5494655" lon="13.0235924"><ele>129.0</ele><time>2026-04-25T10:34:45.039Z</time></trkpt><trkpt lat="43.5496404" lon="13.0236282"><ele>129.0</ele><time>2026-04-25T10:34:46.04Z</time></trkpt><trkpt lat="43.5498227" lon="13.0236375"><ele>129.33333333333334</ele><time>2026-04-25T10:34:47.039Z</time></trkpt><trkpt lat="43.5500139" lon="13.0236203"><ele>129.66666666666669</ele><time>2026-04-25T10:34:48.039Z</time></trkpt><trkpt lat="43.5502065" lon="13.0235918"><ele>130.0</ele><time>2026-04-25T10:34:49.04Z</time></trkpt><trkpt lat="43.5503924" lon="13.0235644"><ele>129.33333333333334</ele><time>2026-04-25T10:34:50.04Z</time></trkpt><trkpt lat="43.550572" lon="13.0235374"><ele>128.66666666666666</ele><time>2026-04-25T10:34:51.041Z</time></trkpt><trkpt lat="43.5507476" lon="13.0235083"><ele>128.0</ele><time>2026-04-25T10:34:52.04Z</time></trkpt><trkpt lat="43.5509206" lon="13.0234786"><ele>128.0</ele><time>2026-04-25T10:34:53.039Z</time></trkpt><trkpt lat="43.5510927" lon="13.0234521"><ele>128.0</ele><time>2026-04-25T10:34:54.04Z</time></trkpt><trkpt lat="43.5512622" lon="13.0234289"><ele>128.0</ele><time>2026-04-25T10:34:55.04Z</time></trkpt><trkpt lat="43.5514317" lon="13.0234046"><ele>128.66666666666666</ele><time>2026-04-25T10:34:56.039Z</time></trkpt><trkpt lat="43.5516027" lon="13.0233782"><ele>129.33333333333334</ele><time>2026-04-25T10:34:57.039Z</time></trkpt><trkpt lat="43.5517754" lon="13.0233519"><ele>130.0</ele><time>2026-04-25T10:34:58.039Z</time></trkpt><trkpt lat="43.5519501" lon="13.0233253"><ele>130.66666666666669</ele><time>2026-04-25T10:34:59.039Z</time></trkpt><trkpt lat="43.552124" lon="13.0232998"><ele>131.33333333333334</ele><time>2026-04-25T10:35:00.04Z</time></trkpt><trkpt lat="43.5523" lon="13.0232774"><ele>132.0</ele><time>2026-04-25T10:35:01.039Z</time></trkpt><trkpt lat="43.5524765" lon="13.0232532"><ele>132.0</ele><time>2026-04-25T10:35:02.04Z</time></trkpt><trkpt lat="43.5526523" lon="13.0232237"><ele>132.0</ele><time>2026-04-25T10:35:03.04Z</time></trkpt><trkpt lat="43.5528267" lon="13.023194"><ele>132.0</ele><time>2026-04-25T10:35:04.041Z</time></trkpt><trkpt lat="43.5530013" lon="13.0231687"><ele>132.33333333333334</ele><time>2026-04-25T10:35:05.04Z</time></trkpt><trkpt lat="43.5531759" lon="13.023144"><ele>132.66666666666669</ele><time>2026-04-25T10:35:06.04Z</time></trkpt><trkpt lat="43.5533524" lon="13.0231201"><ele>133.0</ele><time>2026-04-25T10:35:07.04Z</time></trkpt><trkpt lat="43.5535262" lon="13.0230972"><ele>133.0</ele><time>2026-04-25T10:35:08.039Z</time></trkpt><trkpt lat="43.5536939" lon="13.0230727"><ele>133.0</ele><time>2026-04-25T10:35:09.039Z</time></trkpt><trkpt lat="43.5538645" lon="13.0230471"><ele>133.0</ele><time>2026-04-25T10:35:10.04Z</time></trkpt><trkpt lat="43.5540381" lon="13.0230198"><ele>132.33333333333334</ele><time>2026-04-25T10:35:11.039Z</time></trkpt><trkpt lat="43.5542099" lon="13.022995"><ele>131.66666666666666</ele><time>2026-04-25T10:35:12.039Z</time></trkpt><trkpt lat="43.5543777" lon="13.0229683"><ele>131.0</ele><time>2026-04-25T10:35:13.039Z</time></trkpt><trkpt lat="43.5545466" lon="13.0229425"><ele>130.33333333333331</ele><time>2026-04-25T10:35:14.039Z</time></trkpt><trkpt lat="43.5547181" lon="13.0229182"><ele>129.66666666666666</ele><time>2026-04-25T10:35:15.039Z</time></trkpt><trkpt lat="43.5548877" lon="13.0228955"><ele>129.0</ele><time>2026-04-25T10:35:16.04Z</time></trkpt><trkpt lat="43.555056" lon="13.0228722"><ele>129.0</ele><time>2026-04-25T10:35:17.039Z</time></trkpt><trkpt lat="43.5552253" lon="13.0228497"><ele>129.0</ele><time>2026-04-25T10:35:18.041Z</time></trkpt><trkpt lat="43.5553988" lon="13.0228228"><ele>129.0</ele><time>2026-04-25T10:35:19.039Z</time></trkpt><trkpt lat="43.5555724" lon="13.0227945"><ele>128.66666666666666</ele><time>2026-04-25T10:35:20.04Z</time></trkpt><trkpt lat="43.5557467" lon="13.0227694"><ele>128.33333333333331</ele><time>2026-04-25T10:35:21.039Z</time></trkpt><trkpt lat="43.555919" lon="13.0227422"><ele>128.0</ele><time>2026-04-25T10:35:22.039Z</time></trkpt><trkpt lat="43.5560892" lon="13.0227145"><ele>127.66666666666666</ele><time>2026-04-25T10:35:23.039Z</time></trkpt><trkpt lat="43.5562585" lon="13.0226879"><ele>127.33333333333334</ele><time>2026-04-25T10:35:24.039Z</time></trkpt><trkpt lat="43.5564314" lon="13.02266"><ele>127.0</ele><time>2026-04-25T10:35:25.039Z</time></trkpt><trkpt lat="43.5566087" lon="13.0226309"><ele>127.0</ele><time>2026-04-25T10:35:26.039Z</time></trkpt><trkpt lat="43.5567853" lon="13.0226034"><ele>127.0</ele><time>2026-04-25T10:35:27.039Z</time></trkpt><trkpt lat="43.5569532" lon="13.0225804"><ele>127.0</ele><time>2026-04-25T10:35:28.039Z</time></trkpt><trkpt lat="43.5571091" lon="13.0225634"><ele>126.5</ele><time>2026-04-25T10:35:29.04Z</time></trkpt><trkpt lat="43.5572528" lon="13.0225565"><ele>126.0</ele><time>2026-04-25T10:35:30.04Z</time></trkpt><trkpt lat="43.5573913" lon="13.0225646"><ele>125.5</ele><time>2026-04-25T10:35:31.04Z</time></trkpt><trkpt lat="43.5575209" lon="13.0225839"><ele>125.0</ele><time>2026-04-25T10:35:32.04Z</time></trkpt><trkpt lat="43.5576465" lon="13.022614"><ele>125.0</ele><time>2026-04-25T10:35:33.039Z</time></trkpt><trkpt lat="43.5577896" lon="13.0226528"><ele>125.0</ele><time>2026-04-25T10:35:34.039Z</time></trkpt><trkpt lat="43.5579468" lon="13.0226941"><ele>125.0</ele><time>2026-04-25T10:35:35.04Z</time></trkpt><trkpt lat="43.5580825" lon="13.0227281"><ele>125.0</ele><time>2026-04-25T10:35:36.039Z</time></trkpt><trkpt lat="43.5581975" lon="13.0227578"><ele>124.2</ele><time>2026-04-25T10:35:37.039Z</time></trkpt><trkpt lat="43.5582967" lon="13.022791"><ele>123.4</ele><time>2026-04-25T10:35:38.039Z</time></trkpt><trkpt lat="43.5583807" lon="13.0228345"><ele>122.6</ele><time>2026-04-25T10:35:39.04Z</time></trkpt><trkpt lat="43.5584585" lon="13.0228946"><ele>121.8</ele><time>2026-04-25T10:35:40.04Z</time></trkpt><trkpt lat="43.5585331" lon="13.0229745"><ele>121.0</ele><time>2026-04-25T10:35:41.039Z</time></trkpt><trkpt lat="43.5586073" lon="13.0230712"><ele>121.0</ele><time>2026-04-25T10:35:42.039Z</time></trkpt><trkpt lat="43.5586826" lon="13.0231732"><ele>121.0</ele><time>2026-04-25T10:35:43.04Z</time></trkpt><trkpt lat="43.5587486" lon="13.0232381"><ele>121.0</ele><time>2026-04-25T10:35:44.04Z</time></trkpt><trkpt lat="43.558811" lon="13.0232616"><ele>121.0</ele><time>2026-04-25T10:35:45.039Z</time></trkpt><trkpt lat="43.5589235" lon="13.0231871"><ele>121.0</ele><time>2026-04-25T10:35:47.04Z</time></trkpt><trkpt lat="43.558982" lon="13.0230748"><ele>120.0</ele><time>2026-04-25T10:35:48.039Z</time></trkpt><trkpt lat="43.5590536" lon="13.0229207"><ele>119.0</ele><time>2026-04-25T10:35:49.04Z</time></trkpt><trkpt lat="43.5591157" lon="13.0227998"><ele>118.0</ele><time>2026-04-25T10:35:50.04Z</time></trkpt><trkpt lat="43.5591641" lon="13.0227284"><ele>117.0</ele><time>2026-04-25T10:35:51.041Z</time></trkpt><trkpt lat="43.5592266" lon="13.0226691"><ele>116.0</ele><time>2026-04-25T10:35:52.04Z</time></trkpt><trkpt lat="43.5592995" lon="13.0226304"><ele>116.0</ele><time>2026-04-25T10:35:53.04Z</time></trkpt><trkpt lat="43.559372" lon="13.0226323"><ele>116.0</ele><time>2026-04-25T10:35:54.04Z</time></trkpt><trkpt lat="43.5594682" lon="13.0226812"><ele>116.0</ele><time>2026-04-25T10:35:55.04Z</time></trkpt><trkpt lat="43.5596006" lon="13.0227653"><ele>116.0</ele><time>2026-04-25T10:35:56.039Z</time></trkpt><trkpt lat="43.5597167" lon="13.0228303"><ele>116.0</ele><time>2026-04-25T10:35:57.039Z</time></trkpt><trkpt lat="43.5598144" lon="13.0228652"><ele>116.0</ele><time>2026-04-25T10:35:58.04Z</time></trkpt><trkpt lat="43.5599121" lon="13.022875"><ele>116.0</ele><time>2026-04-25T10:35:59.039Z</time></trkpt><trkpt lat="43.5600047" lon="13.0228526"><ele>116.0</ele><time>2026-04-25T10:36:00.04Z</time></trkpt><trkpt lat="43.5600913" lon="13.0227888"><ele>116.0</ele><time>2026-04-25T10:36:01.041Z</time></trkpt><trkpt lat="43.5601961" lon="13.0226712"><ele>116.0</ele><time>2026-04-25T10:36:02.039Z</time></trkpt><trkpt lat="43.5603077" lon="13.0225561"><ele>116.5</ele><time>2026-04-25T10:36:03.04Z</time></trkpt><trkpt lat="43.5604191" lon="13.0224831"><ele>117.0</ele><time>2026-04-25T10:36:04.04Z</time></trkpt><trkpt lat="43.5605378" lon="13.0224314"><ele>117.5</ele><time>2026-04-25T10:36:05.04Z</time></trkpt><trkpt lat="43.5606864" lon="13.0223904"><ele>118.0</ele><time>2026-04-25T10:36:06.039Z</time></trkpt><trkpt lat="43.5608538" lon="13.0223603"><ele>118.0</ele><time>2026-04-25T10:36:07.039Z</time></trkpt><trkpt lat="43.5609934" lon="13.0223362"><ele>118.00000000000001</ele><time>2026-04-25T10:36:08.04Z</time></trkpt><trkpt lat="43.5610954" lon="13.0223079"><ele>118.00000000000001</ele><time>2026-04-25T10:36:09.039Z</time></trkpt><trkpt lat="43.5611744" lon="13.0222479"><ele>118.0</ele><time>2026-04-25T10:36:10.039Z</time></trkpt><trkpt lat="43.5612365" lon="13.0221417"><ele>118.0</ele><time>2026-04-25T10:36:11.039Z</time></trkpt><trkpt lat="43.5612882" lon="13.0219849"><ele>118.4</ele><time>2026-04-25T10:36:12.04Z</time></trkpt><trkpt lat="43.5613251" lon="13.0218572"><ele>118.80000000000001</ele><time>2026-04-25T10:36:13.04Z</time></trkpt><trkpt lat="43.5613786" lon="13.0217525"><ele>119.2</ele><time>2026-04-25T10:36:15.041Z</time></trkpt><trkpt lat="43.5615004" lon="13.0217504"><ele>119.6</ele><time>2026-04-25T10:36:17.039Z</time></trkpt><trkpt lat="43.5616109" lon="13.0217844"><ele>120.0</ele><time>2026-04-25T10:36:18.04Z</time></trkpt><trkpt lat="43.5617564" lon="13.0218385"><ele>120.0</ele><time>2026-04-25T10:36:19.04Z</time></trkpt><trkpt lat="43.561931" lon="13.0219053"><ele>120.0</ele><time>2026-04-25T10:36:20.039Z</time></trkpt><trkpt lat="43.5621302" lon="13.0219822"><ele>120.0</ele><time>2026-04-25T10:36:21.041Z</time></trkpt><trkpt lat="43.5623439" lon="13.0220727"><ele>121.33333333333334</ele><time>2026-04-25T10:36:22.039Z</time></trkpt><trkpt lat="43.5625195" lon="13.0221544"><ele>122.66666666666667</ele><time>2026-04-25T10:36:23.039Z</time></trkpt><trkpt lat="43.5626564" lon="13.0222277"><ele>124.0</ele><time>2026-04-25T10:36:24.039Z</time></trkpt><trkpt lat="43.5627892" lon="13.0223121"><ele>127.33333333333334</ele><time>2026-04-25T10:36:25.04Z</time></trkpt><trkpt lat="43.5629389" lon="13.0224261"><ele>130.66666666666666</ele><time>2026-04-25T10:36:26.039Z</time></trkpt><trkpt lat="43.5631118" lon="13.0225671"><ele>134.0</ele><time>2026-04-25T10:36:27.04Z</time></trkpt><trkpt lat="43.5632976" lon="13.0227237"><ele>134.0</ele><time>2026-04-25T10:36:28.039Z</time></trkpt><trkpt lat="43.5634468" lon="13.0228511"><ele>134.0</ele><time>2026-04-25T10:36:29.04Z</time></trkpt><trkpt lat="43.5635615" lon="13.0229516"><ele>134.0</ele><time>2026-04-25T10:36:30.039Z</time></trkpt><trkpt lat="43.5636646" lon="13.023039"><ele>134.0</ele><time>2026-04-25T10:36:31.04Z</time></trkpt><trkpt lat="43.5637572" lon="13.0231103"><ele>135.33333333333331</ele><time>2026-04-25T10:36:32.039Z</time></trkpt><trkpt lat="43.5638371" lon="13.0231677"><ele>136.66666666666666</ele><time>2026-04-25T10:36:33.039Z</time></trkpt><trkpt lat="43.5639101" lon="13.0232017"><ele>138.0</ele><time>2026-04-25T10:36:34.04Z</time></trkpt><trkpt lat="43.5639794" lon="13.0232037"><ele>139.33333333333334</ele><time>2026-04-25T10:36:35.039Z</time></trkpt><trkpt lat="43.5640445" lon="13.0231766"><ele>140.66666666666669</ele><time>2026-04-25T10:36:36.04Z</time></trkpt><trkpt lat="43.5641045" lon="13.0231157"><ele>142.0</ele><time>2026-04-25T10:36:37.04Z</time></trkpt><trkpt lat="43.5641739" lon="13.0230088"><ele>142.0</ele><time>2026-04-25T10:36:38.04Z</time></trkpt><trkpt lat="43.5642623" lon="13.0228602"><ele>142.0</ele><time>2026-04-25T10:36:39.04Z</time></trkpt><trkpt lat="43.5643661" lon="13.0227105"><ele>142.0</ele><time>2026-04-25T10:36:40.04Z</time></trkpt><trkpt lat="43.5644868" lon="13.02258"><ele>142.0</ele><time>2026-04-25T10:36:41.039Z</time></trkpt><trkpt lat="43.5646312" lon="13.0224535"><ele>144.66666666666669</ele><time>2026-04-25T10:36:42.039Z</time></trkpt><trkpt lat="43.5648006" lon="13.0223138"><ele>147.33333333333334</ele><time>2026-04-25T10:36:43.039Z</time></trkpt><trkpt lat="43.5649621" lon="13.0221859"><ele>150.0</ele><time>2026-04-25T10:36:44.04Z</time></trkpt><trkpt lat="43.5650996" lon="13.0220837"><ele>150.0</ele><time>2026-04-25T10:36:45.04Z</time></trkpt><trkpt lat="43.5652273" lon="13.0220016"><ele>150.0</ele><time>2026-04-25T10:36:46.039Z</time></trkpt><trkpt lat="43.5653494" lon="13.0219361"><ele>150.0</ele><time>2026-04-25T10:36:47.04Z</time></trkpt><trkpt lat="43.5654783" lon="13.0218616"><ele>150.0</ele><time>2026-04-25T10:36:48.039Z</time></trkpt><trkpt lat="43.5656048" lon="13.0217658"><ele>150.66666666666666</ele><time>2026-04-25T10:36:49.04Z</time></trkpt><trkpt lat="43.5657371" lon="13.0216345"><ele>151.33333333333331</ele><time>2026-04-25T10:36:50.04Z</time></trkpt><trkpt lat="43.5658841" lon="13.0214601"><ele>152.0</ele><time>2026-04-25T10:36:51.04Z</time></trkpt><trkpt lat="43.5660411" lon="13.0212496"><ele>152.0</ele><time>2026-04-25T10:36:52.04Z</time></trkpt><trkpt lat="43.5661918" lon="13.0210397"><ele>152.0</ele><time>2026-04-25T10:36:53.04Z</time></trkpt><trkpt lat="43.5663169" lon="13.0208588"><ele>152.0</ele><time>2026-04-25T10:36:54.04Z</time></trkpt><trkpt lat="43.5664234" lon="13.0206967"><ele>153.25</ele><time>2026-04-25T10:36:55.04Z</time></trkpt><trkpt lat="43.5665121" lon="13.0205441"><ele>154.5</ele><time>2026-04-25T10:36:56.039Z</time></trkpt><trkpt lat="43.5665863" lon="13.0203971"><ele>155.75</ele><time>2026-04-25T10:36:57.039Z</time></trkpt><trkpt lat="43.5666544" lon="13.0202449"><ele>157.0</ele><time>2026-04-25T10:36:58.04Z</time></trkpt><trkpt lat="43.5667209" lon="13.0200931"><ele>157.25</ele><time>2026-04-25T10:36:59.04Z</time></trkpt><trkpt lat="43.5667876" lon="13.0199484"><ele>157.5</ele><time>2026-04-25T10:37:00.039Z</time></trkpt><trkpt lat="43.5668581" lon="13.0198044"><ele>157.75</ele><time>2026-04-25T10:37:01.04Z</time></trkpt><trkpt lat="43.566935" lon="13.0196582"><ele>158.0</ele><time>2026-04-25T10:37:02.04Z</time></trkpt><trkpt lat="43.5670183" lon="13.0195116"><ele>158.5</ele><time>2026-04-25T10:37:03.039Z</time></trkpt><trkpt lat="43.5671085" lon="13.0193647"><ele>159.0</ele><time>2026-04-25T10:37:04.039Z</time></trkpt><trkpt lat="43.5672052" lon="13.0192181"><ele>159.5</ele><time>2026-04-25T10:37:05.039Z</time></trkpt><trkpt lat="43.5673038" lon="13.0190723"><ele>160.0</ele><time>2026-04-25T10:37:06.039Z</time></trkpt><trkpt lat="43.567404" lon="13.0189252"><ele>160.33333333333334</ele><time>2026-04-25T10:37:07.039Z</time></trkpt><trkpt lat="43.5675065" lon="13.0187736"><ele>160.66666666666666</ele><time>2026-04-25T10:37:08.04Z</time></trkpt><trkpt lat="43.567608" lon="13.0186171"><ele>161.0</ele><time>2026-04-25T10:37:09.039Z</time></trkpt><trkpt lat="43.5677071" lon="13.0184544"><ele>160.66666666666666</ele><time>2026-04-25T10:37:10.039Z</time></trkpt><trkpt lat="43.5678038" lon="13.0182824"><ele>160.33333333333334</ele><time>2026-04-25T10:37:11.039Z</time></trkpt><trkpt lat="43.5679033" lon="13.0180861"><ele>160.0</ele><time>2026-04-25T10:37:12.039Z</time></trkpt><trkpt lat="43.5680109" lon="13.0178635"><ele>161.33333333333334</ele><time>2026-04-25T10:37:13.04Z</time></trkpt><trkpt lat="43.5681246" lon="13.0176214"><ele>162.66666666666666</ele><time>2026-04-25T10:37:14.04Z</time></trkpt><trkpt lat="43.5682318" lon="13.0173898"><ele>164.0</ele><time>2026-04-25T10:37:15.041Z</time></trkpt><trkpt lat="43.5683234" lon="13.0171734"><ele>166.33333333333331</ele><time>2026-04-25T10:37:16.039Z</time></trkpt><trkpt lat="43.5683981" lon="13.0169652"><ele>168.66666666666666</ele><time>2026-04-25T10:37:17.04Z</time></trkpt><trkpt lat="43.5684625" lon="13.0167572"><ele>171.0</ele><time>2026-04-25T10:37:18.041Z</time></trkpt><trkpt lat="43.5685209" lon="13.0165606"><ele>172.25</ele><time>2026-04-25T10:37:19.04Z</time></trkpt><trkpt lat="43.5685714" lon="13.0163981"><ele>173.5</ele><time>2026-04-25T10:37:20.04Z</time></trkpt><trkpt lat="43.5686185" lon="13.0162503"><ele>174.75</ele><time>2026-04-25T10:37:21.039Z</time></trkpt><trkpt lat="43.568673" lon="13.0160712"><ele>176.0</ele><time>2026-04-25T10:37:22.04Z</time></trkpt><trkpt lat="43.5687439" lon="13.0158636"><ele>178.0</ele><time>2026-04-25T10:37:23.039Z</time></trkpt><trkpt lat="43.5688239" lon="13.0156711"><ele>180.0</ele><time>2026-04-25T10:37:24.041Z</time></trkpt><trkpt lat="43.5689068" lon="13.0154829"><ele>182.0</ele><time>2026-04-25T10:37:25.039Z</time></trkpt><trkpt lat="43.5689886" lon="13.0152872"><ele>182.0</ele><time>2026-04-25T10:37:26.04Z</time></trkpt><trkpt lat="43.5690654" lon="13.0151003"><ele>182.0</ele><time>2026-04-25T10:37:27.04Z</time></trkpt><trkpt lat="43.5691484" lon="13.0149119"><ele>182.0</ele><time>2026-04-25T10:37:28.039Z</time></trkpt><trkpt lat="43.5692542" lon="13.0146827"><ele>182.33333333333331</ele><time>2026-04-25T10:37:29.04Z</time></trkpt><trkpt lat="43.5693617" lon="13.0144465"><ele>182.66666666666666</ele><time>2026-04-25T10:37:30.039Z</time></trkpt><trkpt lat="43.5694471" lon="13.0142528"><ele>183.0</ele><time>2026-04-25T10:37:31.039Z</time></trkpt><trkpt lat="43.5695187" lon="13.0140917"><ele>183.75</ele><time>2026-04-25T10:37:32.04Z</time></trkpt><trkpt lat="43.5695913" lon="13.0139421"><ele>184.5</ele><time>2026-04-25T10:37:33.039Z</time></trkpt><trkpt lat="43.5696819" lon="13.0137997"><ele>185.25</ele><time>2026-04-25T10:37:34.04Z</time></trkpt><trkpt lat="43.5697937" lon="13.0136863"><ele>186.0</ele><time>2026-04-25T10:37:35.039Z</time></trkpt><trkpt lat="43.5699361" lon="13.0135968"><ele>186.0</ele><time>2026-04-25T10:37:36.039Z</time></trkpt><trkpt lat="43.5701177" lon="13.0135012"><ele>186.0</ele><time>2026-04-25T10:37:37.041Z</time></trkpt><trkpt lat="43.5702931" lon="13.0134076"><ele>186.0</ele><time>2026-04-25T10:37:38.04Z</time></trkpt><trkpt lat="43.5704438" lon="13.0133248"><ele>189.0</ele><time>2026-04-25T10:37:39.039Z</time></trkpt><trkpt lat="43.5705975" lon="13.0132366"><ele>192.0</ele><time>2026-04-25T10:37:40.039Z</time></trkpt><trkpt lat="43.5707582" lon="13.0131346"><ele>195.0</ele><time>2026-04-25T10:37:41.04Z</time></trkpt><trkpt lat="43.5709231" lon="13.0130241"><ele>195.0</ele><time>2026-04-25T10:37:42.04Z</time></trkpt><trkpt lat="43.5710833" lon="13.0129142"><ele>195.0</ele><time>2026-04-25T10:37:43.039Z</time></trkpt><trkpt lat="43.5712271" lon="13.0128157"><ele>195.0</ele><time>2026-04-25T10:37:44.04Z</time></trkpt><trkpt lat="43.5713553" lon="13.0127327"><ele>196.0</ele><time>2026-04-25T10:37:45.039Z</time></trkpt><trkpt lat="43.5714742" lon="13.0126628"><ele>197.0</ele><time>2026-04-25T10:37:46.039Z</time></trkpt><trkpt lat="43.5716027" lon="13.0125965"><ele>198.0</ele><time>2026-04-25T10:37:47.039Z</time></trkpt><trkpt lat="43.5717303" lon="13.0125398"><ele>199.0</ele><time>2026-04-25T10:37:48.041Z</time></trkpt><trkpt lat="43.5718436" lon="13.0124966"><ele>198.39999999999998</ele><time>2026-04-25T10:37:49.04Z</time></trkpt><trkpt lat="43.5719405" lon="13.0124631"><ele>197.8</ele><time>2026-04-25T10:37:50.039Z</time></trkpt><trkpt lat="43.5720232" lon="13.0124335"><ele>197.2</ele><time>2026-04-25T10:37:51.04Z</time></trkpt><trkpt lat="43.5720899" lon="13.0124111"><ele>196.60000000000002</ele><time>2026-04-25T10:37:52.039Z</time></trkpt><trkpt lat="43.5721747" lon="13.0124044"><ele>196.0</ele><time>2026-04-25T10:37:54.039Z</time></trkpt><trkpt lat="43.5722917" lon="13.0124711"><ele>197.0</ele><time>2026-04-25T10:37:56.039Z</time></trkpt><trkpt lat="43.5724053" lon="13.0125613"><ele>198.0</ele><time>2026-04-25T10:37:57.04Z</time></trkpt><trkpt lat="43.57256" lon="13.012688"><ele>199.0</ele><time>2026-04-25T10:37:58.04Z</time></trkpt><trkpt lat="43.5727424" lon="13.0128395"><ele>197.33333333333331</ele><time>2026-04-25T10:37:59.04Z</time></trkpt><trkpt lat="43.5729122" lon="13.0129784"><ele>195.66666666666669</ele><time>2026-04-25T10:38:00.04Z</time></trkpt><trkpt lat="43.5730512" lon="13.0130914"><ele>194.0</ele><time>2026-04-25T10:38:01.04Z</time></trkpt><trkpt lat="43.5731759" lon="13.0132017"><ele>194.0</ele><time>2026-04-25T10:38:02.04Z</time></trkpt><trkpt lat="43.5732988" lon="13.0133191"><ele>194.0</ele><time>2026-04-25T10:38:03.039Z</time></trkpt><trkpt lat="43.5734418" lon="13.0134711"><ele>194.0</ele><time>2026-04-25T10:38:04.04Z</time></trkpt><trkpt lat="43.5735917" lon="13.0136443"><ele>194.0</ele><time>2026-04-25T10:38:05.039Z</time></trkpt><trkpt lat="43.5737167" lon="13.0138038"><ele>194.0</ele><time>2026-04-25T10:38:06.041Z</time></trkpt><trkpt lat="43.5738327" lon="13.0139614"><ele>194.0</ele><time>2026-04-25T10:38:07.039Z</time></trkpt><trkpt lat="43.5739517" lon="13.0141308"><ele>194.66666666666669</ele><time>2026-04-25T10:38:08.039Z</time></trkpt><trkpt lat="43.5740607" lon="13.0143043"><ele>195.33333333333331</ele><time>2026-04-25T10:38:09.04Z</time></trkpt><trkpt lat="43.5741493" lon="13.0144827"><ele>196.0</ele><time>2026-04-25T10:38:10.039Z</time></trkpt><trkpt lat="43.5742303" lon="13.0146724"><ele>196.0</ele><time>2026-04-25T10:38:11.039Z</time></trkpt><trkpt lat="43.5743155" lon="13.014875"><ele>196.0</ele><time>2026-04-25T10:38:12.039Z</time></trkpt><trkpt lat="43.5743992" lon="13.0150766"><ele>196.0</ele><time>2026-04-25T10:38:13.039Z</time></trkpt><trkpt lat="43.5744794" lon="13.0152714"><ele>195.0</ele><time>2026-04-25T10:38:14.04Z</time></trkpt><trkpt lat="43.5745574" lon="13.0154623"><ele>194.0</ele><time>2026-04-25T10:38:15.041Z</time></trkpt><trkpt lat="43.5746326" lon="13.0156496"><ele>193.0</ele><time>2026-04-25T10:38:16.04Z</time></trkpt><trkpt lat="43.5747062" lon="13.0158326"><ele>193.0</ele><time>2026-04-25T10:38:17.04Z</time></trkpt><trkpt lat="43.5747818" lon="13.016013"><ele>193.0</ele><time>2026-04-25T10:38:18.039Z</time></trkpt><trkpt lat="43.5748619" lon="13.0161945"><ele>193.0</ele><time>2026-04-25T10:38:19.039Z</time></trkpt><trkpt lat="43.5749441" lon="13.016372"><ele>193.0</ele><time>2026-04-25T10:38:20.04Z</time></trkpt><trkpt lat="43.5750248" lon="13.0165363"><ele>193.0</ele><time>2026-04-25T10:38:21.04Z</time></trkpt><trkpt lat="43.575109" lon="13.0166936"><ele>193.0</ele><time>2026-04-25T10:38:22.04Z</time></trkpt><trkpt lat="43.5751983" lon="13.0168581"><ele>193.0</ele><time>2026-04-25T10:38:23.041Z</time></trkpt><trkpt lat="43.5752887" lon="13.0170318"><ele>192.33333333333331</ele><time>2026-04-25T10:38:24.041Z</time></trkpt><trkpt lat="43.5753819" lon="13.0172141"><ele>191.66666666666666</ele><time>2026-04-25T10:38:25.04Z</time></trkpt><trkpt lat="43.5754708" lon="13.0173931"><ele>191.0</ele><time>2026-04-25T10:38:26.039Z</time></trkpt><trkpt lat="43.5755616" lon="13.0175766"><ele>193.33333333333331</ele><time>2026-04-25T10:38:27.04Z</time></trkpt><trkpt lat="43.5756551" lon="13.0177584"><ele>195.66666666666666</ele><time>2026-04-25T10:38:28.04Z</time></trkpt><trkpt lat="43.575748" lon="13.0179242"><ele>198.0</ele><time>2026-04-25T10:38:29.039Z</time></trkpt><trkpt lat="43.5758475" lon="13.0180731"><ele>198.0</ele><time>2026-04-25T10:38:30.041Z</time></trkpt><trkpt lat="43.5759503" lon="13.0181985"><ele>198.0</ele><time>2026-04-25T10:38:31.039Z</time></trkpt><trkpt lat="43.5760583" lon="13.0183146"><ele>198.0</ele><time>2026-04-25T10:38:32.039Z</time></trkpt><trkpt lat="43.5761596" lon="13.0184318"><ele>198.0</ele><time>2026-04-25T10:38:33.04Z</time></trkpt><trkpt lat="43.5762463" lon="13.0185666"><ele>198.0</ele><time>2026-04-25T10:38:34.04Z</time></trkpt><trkpt lat="43.5763171" lon="13.0187229"><ele>198.0</ele><time>2026-04-25T10:38:35.04Z</time></trkpt><trkpt lat="43.5763721" lon="13.0188971"><ele>198.0</ele><time>2026-04-25T10:38:36.039Z</time></trkpt><trkpt lat="43.5764141" lon="13.019082"><ele>198.0</ele><time>2026-04-25T10:38:37.04Z</time></trkpt><trkpt lat="43.5764511" lon="13.0192653"><ele>199.75</ele><time>2026-04-25T10:38:38.039Z</time></trkpt><trkpt lat="43.576483" lon="13.0194355"><ele>201.5</ele><time>2026-04-25T10:38:39.039Z</time></trkpt><trkpt lat="43.5765131" lon="13.0195893"><ele>203.25</ele><time>2026-04-25T10:38:40.04Z</time></trkpt><trkpt lat="43.5765405" lon="13.0197281"><ele>205.0</ele><time>2026-04-25T10:38:41.039Z</time></trkpt><trkpt lat="43.5765692" lon="13.0198715"><ele>206.25</ele><time>2026-04-25T10:38:42.039Z</time></trkpt><trkpt lat="43.5765957" lon="13.0200193"><ele>207.5</ele><time>2026-04-25T10:38:43.04Z</time></trkpt><trkpt lat="43.5766147" lon="13.0201693"><ele>208.75</ele><time>2026-04-25T10:38:44.039Z</time></trkpt><trkpt lat="43.5766225" lon="13.0203305"><ele>210.0</ele><time>2026-04-25T10:38:45.039Z</time></trkpt><trkpt lat="43.5766192" lon="13.0204999"><ele>210.0</ele><time>2026-04-25T10:38:46.039Z</time></trkpt><trkpt lat="43.5766063" lon="13.0206628"><ele>210.0</ele><time>2026-04-25T10:38:47.04Z</time></trkpt><trkpt lat="43.5765872" lon="13.020815"><ele>210.0</ele><time>2026-04-25T10:38:48.041Z</time></trkpt><trkpt lat="43.576573" lon="13.0209616"><ele>210.0</ele><time>2026-04-25T10:38:49.039Z</time></trkpt><trkpt lat="43.5765618" lon="13.0211053"><ele>210.0</ele><time>2026-04-25T10:38:50.04Z</time></trkpt><trkpt lat="43.5765492" lon="13.021247"><ele>210.0</ele><time>2026-04-25T10:38:51.04Z</time></trkpt><trkpt lat="43.5765331" lon="13.0213866"><ele>210.0</ele><time>2026-04-25T10:38:52.04Z</time></trkpt><trkpt lat="43.5765164" lon="13.0215326"><ele>210.0</ele><time>2026-04-25T10:38:53.039Z</time></trkpt><trkpt lat="43.5765081" lon="13.0216863"><ele>210.0</ele><time>2026-04-25T10:38:54.04Z</time></trkpt><trkpt lat="43.5765137" lon="13.0218322"><ele>210.0</ele><time>2026-04-25T10:38:55.039Z</time></trkpt><trkpt lat="43.5765324" lon="13.0219639"><ele>210.0</ele><time>2026-04-25T10:38:56.04Z</time></trkpt><trkpt lat="43.5765646" lon="13.022079"><ele>210.0</ele><time>2026-04-25T10:38:57.039Z</time></trkpt><trkpt lat="43.5766076" lon="13.0221777"><ele>210.0</ele><time>2026-04-25T10:38:58.039Z</time></trkpt><trkpt lat="43.5766645" lon="13.0222655"><ele>210.0</ele><time>2026-04-25T10:38:59.039Z</time></trkpt><trkpt lat="43.5767377" lon="13.0223316"><ele>210.0</ele><time>2026-04-25T10:39:00.04Z</time></trkpt><trkpt lat="43.5768175" lon="13.0223708"><ele>210.0</ele><time>2026-04-25T10:39:01.041Z</time></trkpt><trkpt lat="43.5768945" lon="13.0223955"><ele>210.0</ele><time>2026-04-25T10:39:02.04Z</time></trkpt><trkpt lat="43.5769616" lon="13.0224148"><ele>210.0</ele><time>2026-04-25T10:39:03.04Z</time></trkpt><trkpt lat="43.5770736" lon="13.02245"><ele>210.0</ele><time>2026-04-25T10:39:05.039Z</time></trkpt><trkpt lat="43.5771556" lon="13.0224826"><ele>210.0</ele><time>2026-04-25T10:39:07.039Z</time></trkpt><trkpt lat="43.577218" lon="13.0225066"><ele>210.0</ele><time>2026-04-25T10:39:09.04Z</time></trkpt><trkpt lat="43.5773081" lon="13.0225357"><ele>210.0</ele><time>2026-04-25T10:39:12.04Z</time></trkpt><trkpt lat="43.5773657" lon="13.0225756"><ele>210.4</ele><time>2026-04-25T10:39:15.041Z</time></trkpt><trkpt lat="43.5774312" lon="13.022632"><ele>210.8</ele><time>2026-04-25T10:39:17.039Z</time></trkpt><trkpt lat="43.577503" lon="13.0226719"><ele>211.2</ele><time>2026-04-25T10:39:18.039Z</time></trkpt><trkpt lat="43.5775893" lon="13.0227099"><ele>211.6</ele><time>2026-04-25T10:39:19.04Z</time></trkpt><trkpt lat="43.5776967" lon="13.0227504"><ele>212.0</ele><time>2026-04-25T10:39:20.039Z</time></trkpt><trkpt lat="43.5778337" lon="13.0228019"><ele>213.5</ele><time>2026-04-25T10:39:21.039Z</time></trkpt><trkpt lat="43.5779846" lon="13.0228604"><ele>215.0</ele><time>2026-04-25T10:39:22.04Z</time></trkpt><trkpt lat="43.5781227" lon="13.0229219"><ele>216.5</ele><time>2026-04-25T10:39:23.039Z</time></trkpt><trkpt lat="43.5782463" lon="13.0229847"><ele>218.0</ele><time>2026-04-25T10:39:24.039Z</time></trkpt><trkpt lat="43.578368" lon="13.0230539"><ele>218.0</ele><time>2026-04-25T10:39:25.04Z</time></trkpt><trkpt lat="43.5784853" lon="13.0231276"><ele>218.0</ele><time>2026-04-25T10:39:26.039Z</time></trkpt><trkpt lat="43.5786008" lon="13.0231936"><ele>218.0</ele><time>2026-04-25T10:39:27.041Z</time></trkpt><trkpt lat="43.5787172" lon="13.0232535"><ele>218.0</ele><time>2026-04-25T10:39:28.039Z</time></trkpt><trkpt lat="43.5788319" lon="13.0233223"><ele>218.0</ele><time>2026-04-25T10:39:29.039Z</time></trkpt><trkpt lat="43.5789364" lon="13.0234088"><ele>218.0</ele><time>2026-04-25T10:39:30.04Z</time></trkpt><trkpt lat="43.579015" lon="13.0235173"><ele>218.0</ele><time>2026-04-25T10:39:31.04Z</time></trkpt><trkpt lat="43.5790666" lon="13.0236493"><ele>218.0</ele><time>2026-04-25T10:39:32.04Z</time></trkpt><trkpt lat="43.5790931" lon="13.0238095"><ele>218.0</ele><time>2026-04-25T10:39:33.04Z</time></trkpt><trkpt lat="43.5791054" lon="13.0239905"><ele>218.0</ele><time>2026-04-25T10:39:34.039Z</time></trkpt><trkpt lat="43.5791147" lon="13.0241839"><ele>218.0</ele><time>2026-04-25T10:39:35.039Z</time></trkpt><trkpt lat="43.579124" lon="13.0243655"><ele>218.0</ele><time>2026-04-25T10:39:36.039Z</time></trkpt><trkpt lat="43.5791362" lon="13.0245315"><ele>217.66666666666669</ele><time>2026-04-25T10:39:37.04Z</time></trkpt><trkpt lat="43.5791505" lon="13.0246784"><ele>217.33333333333334</ele><time>2026-04-25T10:39:38.039Z</time></trkpt><trkpt lat="43.5791633" lon="13.0248131"><ele>217.0</ele><time>2026-04-25T10:39:39.04Z</time></trkpt><trkpt lat="43.5791745" lon="13.0249332"><ele>216.66666666666669</ele><time>2026-04-25T10:39:40.04Z</time></trkpt><trkpt lat="43.5791762" lon="13.0250419"><ele>216.33333333333334</ele><time>2026-04-25T10:39:41.039Z</time></trkpt><trkpt lat="43.5791646" lon="13.0251472"><ele>216.0</ele><time>2026-04-25T10:39:42.04Z</time></trkpt><trkpt lat="43.5791516" lon="13.0252558"><ele>215.4</ele><time>2026-04-25T10:39:43.039Z</time></trkpt><trkpt lat="43.5791568" lon="13.0253513"><ele>214.8</ele><time>2026-04-25T10:39:44.039Z</time></trkpt><trkpt lat="43.5792579" lon="13.025461"><ele>214.20000000000002</ele><time>2026-04-25T10:39:46.041Z</time></trkpt><trkpt lat="43.5793569" lon="13.0254936"><ele>213.60000000000002</ele><time>2026-04-25T10:39:47.039Z</time></trkpt><trkpt lat="43.579498" lon="13.0255329"><ele>213.0</ele><time>2026-04-25T10:39:48.039Z</time></trkpt><trkpt lat="43.5796856" lon="13.0255838"><ele>216.33333333333331</ele><time>2026-04-25T10:39:49.039Z</time></trkpt><trkpt lat="43.57987" lon="13.0256354"><ele>219.66666666666666</ele><time>2026-04-25T10:39:50.04Z</time></trkpt><trkpt lat="43.580035" lon="13.0256818"><ele>223.0</ele><time>2026-04-25T10:39:51.04Z</time></trkpt><trkpt lat="43.5801815" lon="13.0257199"><ele>223.0</ele><time>2026-04-25T10:39:52.04Z</time></trkpt><trkpt lat="43.5803186" lon="13.0257544"><ele>223.0</ele><time>2026-04-25T10:39:53.04Z</time></trkpt><trkpt lat="43.5804587" lon="13.02579"><ele>223.0</ele><time>2026-04-25T10:39:54.04Z</time></trkpt><trkpt lat="43.580621" lon="13.0258302"><ele>223.0</ele><time>2026-04-25T10:39:55.04Z</time></trkpt><trkpt lat="43.5807967" lon="13.02587"><ele>222.33333333333331</ele><time>2026-04-25T10:39:56.04Z</time></trkpt><trkpt lat="43.5809644" lon="13.0259108"><ele>221.66666666666669</ele><time>2026-04-25T10:39:57.04Z</time></trkpt><trkpt lat="43.5811198" lon="13.0259526"><ele>221.0</ele><time>2026-04-25T10:39:58.041Z</time></trkpt><trkpt lat="43.5812707" lon="13.0259976"><ele>221.0</ele><time>2026-04-25T10:39:59.041Z</time></trkpt><trkpt lat="43.5814296" lon="13.0260524"><ele>221.0</ele><time>2026-04-25T10:40:00.04Z</time></trkpt><trkpt lat="43.5815922" lon="13.0261184"><ele>221.0</ele><time>2026-04-25T10:40:01.04Z</time></trkpt><trkpt lat="43.5817496" lon="13.0261876"><ele>221.0</ele><time>2026-04-25T10:40:02.041Z</time></trkpt><trkpt lat="43.581892" lon="13.0262594"><ele>221.0</ele><time>2026-04-25T10:40:03.039Z</time></trkpt><trkpt lat="43.5820317" lon="13.0263279"><ele>221.0</ele><time>2026-04-25T10:40:04.039Z</time></trkpt><trkpt lat="43.5821615" lon="13.0263903"><ele>221.0</ele><time>2026-04-25T10:40:05.039Z</time></trkpt><trkpt lat="43.582276" lon="13.0264427"><ele>219.8</ele><time>2026-04-25T10:40:06.04Z</time></trkpt><trkpt lat="43.5823799" lon="13.026455"><ele>218.60000000000002</ele><time>2026-04-25T10:40:07.039Z</time></trkpt><trkpt lat="43.5824802" lon="13.0264161"><ele>217.4</ele><time>2026-04-25T10:40:08.04Z</time></trkpt><trkpt lat="43.5825748" lon="13.026329"><ele>216.2</ele><time>2026-04-25T10:40:09.04Z</time></trkpt><trkpt lat="43.5826497" lon="13.0262114"><ele>215.0</ele><time>2026-04-25T10:40:10.04Z</time></trkpt><trkpt lat="43.5827198" lon="13.0261022"><ele>215.0</ele><time>2026-04-25T10:40:11.039Z</time></trkpt><trkpt lat="43.5828148" lon="13.0260382"><ele>215.0</ele><time>2026-04-25T10:40:12.039Z</time></trkpt><trkpt lat="43.5829372" lon="13.0260087"><ele>215.0</ele><time>2026-04-25T10:40:13.039Z</time></trkpt><trkpt lat="43.5830832" lon="13.0259904"><ele>215.0</ele><time>2026-04-25T10:40:14.04Z</time></trkpt><trkpt lat="43.5832489" lon="13.0259692"><ele>213.66666666666669</ele><time>2026-04-25T10:40:15.041Z</time></trkpt><trkpt lat="43.5834253" lon="13.0259447"><ele>212.33333333333331</ele><time>2026-04-25T10:40:16.039Z</time></trkpt><trkpt lat="43.5835956" lon="13.0259183"><ele>211.0</ele><time>2026-04-25T10:40:17.04Z</time></trkpt><trkpt lat="43.5837568" lon="13.0258933"><ele>209.0</ele><time>2026-04-25T10:40:18.04Z</time></trkpt><trkpt lat="43.5839151" lon="13.0258725"><ele>207.0</ele><time>2026-04-25T10:40:19.039Z</time></trkpt><trkpt lat="43.5840692" lon="13.0258537"><ele>205.0</ele><time>2026-04-25T10:40:20.04Z</time></trkpt><trkpt lat="43.5842188" lon="13.0258338"><ele>205.0</ele><time>2026-04-25T10:40:21.039Z</time></trkpt><trkpt lat="43.5843656" lon="13.0258138"><ele>205.0</ele><time>2026-04-25T10:40:22.04Z</time></trkpt><trkpt lat="43.5845085" lon="13.0257942"><ele>205.0</ele><time>2026-04-25T10:40:23.039Z</time></trkpt><trkpt lat="43.5846484" lon="13.025779"><ele>205.0</ele><time>2026-04-25T10:40:24.04Z</time></trkpt><trkpt lat="43.584787" lon="13.0257744"><ele>201.75</ele><time>2026-04-25T10:40:25.04Z</time></trkpt><trkpt lat="43.5849173" lon="13.0257941"><ele>198.5</ele><time>2026-04-25T10:40:26.039Z</time></trkpt><trkpt lat="43.585028" lon="13.0258637"><ele>195.25</ele><time>2026-04-25T10:40:27.039Z</time></trkpt><trkpt lat="43.5851238" lon="13.0259924"><ele>192.0</ele><time>2026-04-25T10:40:28.039Z</time></trkpt><trkpt lat="43.5852115" lon="13.0261671"><ele>192.0</ele><time>2026-04-25T10:40:29.039Z</time></trkpt><trkpt lat="43.5853008" lon="13.0263522"><ele>192.0</ele><time>2026-04-25T10:40:30.039Z</time></trkpt><trkpt lat="43.5853976" lon="13.0265103"><ele>192.0</ele><time>2026-04-25T10:40:31.04Z</time></trkpt><trkpt lat="43.5855059" lon="13.0266352"><ele>191.0</ele><time>2026-04-25T10:40:32.039Z</time></trkpt><trkpt lat="43.5856308" lon="13.0267258"><ele>190.0</ele><time>2026-04-25T10:40:33.039Z</time></trkpt><trkpt lat="43.5857836" lon="13.0267771"><ele>189.0</ele><time>2026-04-25T10:40:34.039Z</time></trkpt><trkpt lat="43.5859769" lon="13.0268007"><ele>190.0</ele><time>2026-04-25T10:40:35.04Z</time></trkpt><trkpt lat="43.5861991" lon="13.026826"><ele>191.0</ele><time>2026-04-25T10:40:36.039Z</time></trkpt><trkpt lat="43.5864476" lon="13.0268615"><ele>191.0</ele><time>2026-04-25T10:40:37.04Z</time></trkpt><trkpt lat="43.5867042" lon="13.0269047"><ele>191.0</ele><time>2026-04-25T10:40:38.04Z</time></trkpt><trkpt lat="43.5869452" lon="13.0269396"><ele>192.5</ele><time>2026-04-25T10:40:39.039Z</time></trkpt><trkpt lat="43.5871776" lon="13.0269537"><ele>194.0</ele><time>2026-04-25T10:40:40.041Z</time></trkpt><trkpt lat="43.5874032" lon="13.0269437"><ele>194.0</ele><time>2026-04-25T10:40:41.039Z</time></trkpt><trkpt lat="43.5876268" lon="13.0269162"><ele>194.0</ele><time>2026-04-25T10:40:42.039Z</time></trkpt><trkpt lat="43.5878352" lon="13.026885"><ele>194.0</ele><time>2026-04-25T10:40:43.039Z</time></trkpt><trkpt lat="43.5880289" lon="13.0268572"><ele>193.33333333333334</ele><time>2026-04-25T10:40:44.04Z</time></trkpt><trkpt lat="43.5882143" lon="13.0268379"><ele>192.66666666666669</ele><time>2026-04-25T10:40:45.04Z</time></trkpt><trkpt lat="43.5884006" lon="13.0268298"><ele>192.0</ele><time>2026-04-25T10:40:46.039Z</time></trkpt><trkpt lat="43.5885897" lon="13.0268391"><ele>192.33333333333331</ele><time>2026-04-25T10:40:47.039Z</time></trkpt><trkpt lat="43.5887762" lon="13.0268626"><ele>192.66666666666666</ele><time>2026-04-25T10:40:48.04Z</time></trkpt><trkpt lat="43.5889627" lon="13.0268945"><ele>193.0</ele><time>2026-04-25T10:40:49.04Z</time></trkpt><trkpt lat="43.5891484" lon="13.0269357"><ele>193.0</ele><time>2026-04-25T10:40:50.04Z</time></trkpt><trkpt lat="43.5893294" lon="13.0269954"><ele>193.0</ele><time>2026-04-25T10:40:51.04Z</time></trkpt><trkpt lat="43.5895044" lon="13.0270794"><ele>193.0</ele><time>2026-04-25T10:40:52.04Z</time></trkpt><trkpt lat="43.5896724" lon="13.0271798"><ele>193.33333333333331</ele><time>2026-04-25T10:40:53.04Z</time></trkpt><trkpt lat="43.5898346" lon="13.0272879"><ele>193.66666666666669</ele><time>2026-04-25T10:40:54.039Z</time></trkpt><trkpt lat="43.5899958" lon="13.0274006"><ele>194.0</ele><time>2026-04-25T10:40:55.041Z</time></trkpt><trkpt lat="43.5901579" lon="13.0275178"><ele>195.66666666666669</ele><time>2026-04-25T10:40:56.039Z</time></trkpt><trkpt lat="43.5903248" lon="13.0276446"><ele>197.33333333333331</ele><time>2026-04-25T10:40:57.04Z</time></trkpt><trkpt lat="43.5904951" lon="13.027785"><ele>199.0</ele><time>2026-04-25T10:40:58.04Z</time></trkpt><trkpt lat="43.5906665" lon="13.0279381"><ele>200.0</ele><time>2026-04-25T10:40:59.039Z</time></trkpt><trkpt lat="43.5908479" lon="13.0281123"><ele>201.0</ele><time>2026-04-25T10:41:00.04Z</time></trkpt><trkpt lat="43.5910376" lon="13.0282979"><ele>201.66666666666669</ele><time>2026-04-25T10:41:01.041Z</time></trkpt><trkpt lat="43.5912179" lon="13.0284734"><ele>202.33333333333334</ele><time>2026-04-25T10:41:02.04Z</time></trkpt><trkpt lat="43.5913896" lon="13.0286383"><ele>203.0</ele><time>2026-04-25T10:41:03.04Z</time></trkpt><trkpt lat="43.5915609" lon="13.0287977"><ele>203.0</ele><time>2026-04-25T10:41:04.039Z</time></trkpt><trkpt lat="43.5917335" lon="13.0289569"><ele>203.0</ele><time>2026-04-25T10:41:05.039Z</time></trkpt><trkpt lat="43.5919037" lon="13.0291126"><ele>203.0</ele><time>2026-04-25T10:41:06.039Z</time></trkpt><trkpt lat="43.5920699" lon="13.0292652"><ele>202.0</ele><time>2026-04-25T10:41:07.041Z</time></trkpt><trkpt lat="43.5922348" lon="13.0294192"><ele>201.0</ele><time>2026-04-25T10:41:08.04Z</time></trkpt><trkpt lat="43.5924015" lon="13.0295758"><ele>200.0</ele><time>2026-04-25T10:41:09.04Z</time></trkpt><trkpt lat="43.5925688" lon="13.0297377"><ele>200.0</ele><time>2026-04-25T10:41:10.04Z</time></trkpt><trkpt lat="43.5927379" lon="13.0299134"><ele>200.0</ele><time>2026-04-25T10:41:11.04Z</time></trkpt><trkpt lat="43.5929121" lon="13.0301131"><ele>200.0</ele><time>2026-04-25T10:41:12.04Z</time></trkpt><trkpt lat="43.5930874" lon="13.0303375"><ele>197.5</ele><time>2026-04-25T10:41:13.04Z</time></trkpt><trkpt lat="43.5932582" lon="13.0305791"><ele>195.0</ele><time>2026-04-25T10:41:14.039Z</time></trkpt><trkpt lat="43.5934211" lon="13.0308225"><ele>195.0</ele><time>2026-04-25T10:41:15.04Z</time></trkpt><trkpt lat="43.5935747" lon="13.0310606"><ele>195.0</ele><time>2026-04-25T10:41:16.04Z</time></trkpt><trkpt lat="43.5937158" lon="13.0312884"><ele>195.0</ele><time>2026-04-25T10:41:17.04Z</time></trkpt><trkpt lat="43.5938529" lon="13.0314991"><ele>192.33333333333334</ele><time>2026-04-25T10:41:18.039Z</time></trkpt><trkpt lat="43.5939853" lon="13.0317008"><ele>189.66666666666669</ele><time>2026-04-25T10:41:19.04Z</time></trkpt><trkpt lat="43.5941145" lon="13.0319064"><ele>187.0</ele><time>2026-04-25T10:41:20.04Z</time></trkpt><trkpt lat="43.5942424" lon="13.0321204"><ele>187.0</ele><time>2026-04-25T10:41:21.04Z</time></trkpt><trkpt lat="43.5943579" lon="13.0323528"><ele>187.0</ele><time>2026-04-25T10:41:22.039Z</time></trkpt><trkpt lat="43.5944604" lon="13.0326102"><ele>187.0</ele><time>2026-04-25T10:41:23.039Z</time></trkpt><trkpt lat="43.5945553" lon="13.0328867"><ele>186.0</ele><time>2026-04-25T10:41:24.039Z</time></trkpt><trkpt lat="43.5946509" lon="13.0331644"><ele>185.0</ele><time>2026-04-25T10:41:25.039Z</time></trkpt><trkpt lat="43.5947517" lon="13.0334341"><ele>184.0</ele><time>2026-04-25T10:41:26.04Z</time></trkpt><trkpt lat="43.5948564" lon="13.0336821"><ele>186.0</ele><time>2026-04-25T10:41:27.04Z</time></trkpt><trkpt lat="43.5949778" lon="13.0339098"><ele>188.0</ele><time>2026-04-25T10:41:28.039Z</time></trkpt><trkpt lat="43.5951319" lon="13.0341169"><ele>190.0</ele><time>2026-04-25T10:41:29.04Z</time></trkpt><trkpt lat="43.5953237" lon="13.0343172"><ele>191.5</ele><time>2026-04-25T10:41:30.04Z</time></trkpt><trkpt lat="43.5955323" lon="13.0345174"><ele>193.0</ele><time>2026-04-25T10:41:31.04Z</time></trkpt><trkpt lat="43.5957104" lon="13.034691"><ele>193.0</ele><time>2026-04-25T10:41:32.039Z</time></trkpt><trkpt lat="43.5958625" lon="13.0348435"><ele>193.0</ele><time>2026-04-25T10:41:33.039Z</time></trkpt><trkpt lat="43.5960039" lon="13.0349904"><ele>193.0</ele><time>2026-04-25T10:41:34.04Z</time></trkpt><trkpt lat="43.5961443" lon="13.0351468"><ele>197.0</ele><time>2026-04-25T10:41:35.039Z</time></trkpt><trkpt lat="43.5963042" lon="13.0353411"><ele>201.0</ele><time>2026-04-25T10:41:36.039Z</time></trkpt><trkpt lat="43.5964726" lon="13.0355473"><ele>205.0</ele><time>2026-04-25T10:41:37.041Z</time></trkpt><trkpt lat="43.5966421" lon="13.035747"><ele>205.66666666666666</ele><time>2026-04-25T10:41:38.039Z</time></trkpt><trkpt lat="43.5968111" lon="13.0359439"><ele>206.33333333333331</ele><time>2026-04-25T10:41:39.039Z</time></trkpt><trkpt lat="43.5969685" lon="13.0361333"><ele>207.0</ele><time>2026-04-25T10:41:40.039Z</time></trkpt><trkpt lat="43.59712" lon="13.036342"><ele>206.0</ele><time>2026-04-25T10:41:41.039Z</time></trkpt><trkpt lat="43.5972609" lon="13.0365854"><ele>205.0</ele><time>2026-04-25T10:41:42.04Z</time></trkpt><trkpt lat="43.5973913" lon="13.036859"><ele>205.0</ele><time>2026-04-25T10:41:43.039Z</time></trkpt><trkpt lat="43.5975153" lon="13.0371413"><ele>205.0</ele><time>2026-04-25T10:41:44.041Z</time></trkpt><trkpt lat="43.5976338" lon="13.0374092"><ele>205.66666666666666</ele><time>2026-04-25T10:41:45.04Z</time></trkpt><trkpt lat="43.5977472" lon="13.0376623"><ele>206.33333333333331</ele><time>2026-04-25T10:41:46.041Z</time></trkpt><trkpt lat="43.5978571" lon="13.0379078"><ele>207.0</ele><time>2026-04-25T10:41:47.04Z</time></trkpt><trkpt lat="43.5979686" lon="13.0381555"><ele>207.0</ele><time>2026-04-25T10:41:48.04Z</time></trkpt><trkpt lat="43.5980792" lon="13.0383993"><ele>207.0</ele><time>2026-04-25T10:41:49.04Z</time></trkpt><trkpt lat="43.5981882" lon="13.0386378"><ele>207.0</ele><time>2026-04-25T10:41:50.04Z</time></trkpt><trkpt lat="43.5982961" lon="13.0388687"><ele>207.0</ele><time>2026-04-25T10:41:51.041Z</time></trkpt><trkpt lat="43.5984039" lon="13.0390986"><ele>207.0</ele><time>2026-04-25T10:41:52.04Z</time></trkpt><trkpt lat="43.5985113" lon="13.0393302"><ele>207.0</ele><time>2026-04-25T10:41:53.04Z</time></trkpt><trkpt lat="43.5986088" lon="13.0395679"><ele>205.66666666666669</ele><time>2026-04-25T10:41:54.04Z</time></trkpt><trkpt lat="43.5986809" lon="13.039815"><ele>204.33333333333334</ele><time>2026-04-25T10:41:55.039Z</time></trkpt><trkpt lat="43.5987234" lon="13.0400822"><ele>203.0</ele><time>2026-04-25T10:41:56.039Z</time></trkpt><trkpt lat="43.5987482" lon="13.0403644"><ele>203.0</ele><time>2026-04-25T10:41:57.039Z</time></trkpt><trkpt lat="43.5987687" lon="13.0406481"><ele>203.0</ele><time>2026-04-25T10:41:58.039Z</time></trkpt><trkpt lat="43.5987949" lon="13.0409276"><ele>203.0</ele><time>2026-04-25T10:41:59.039Z</time></trkpt><trkpt lat="43.598832" lon="13.0412001"><ele>203.0</ele><time>2026-04-25T10:42:00.041Z</time></trkpt><trkpt lat="43.5988813" lon="13.0414661"><ele>203.0</ele><time>2026-04-25T10:42:01.04Z</time></trkpt><trkpt lat="43.598943" lon="13.0417313"><ele>203.0</ele><time>2026-04-25T10:42:02.041Z</time></trkpt><trkpt lat="43.5990147" lon="13.0420052"><ele>204.0</ele><time>2026-04-25T10:42:03.039Z</time></trkpt><trkpt lat="43.5990903" lon="13.0422936"><ele>205.0</ele><time>2026-04-25T10:42:04.04Z</time></trkpt><trkpt lat="43.599168" lon="13.0425888"><ele>206.0</ele><time>2026-04-25T10:42:05.039Z</time></trkpt><trkpt lat="43.5992553" lon="13.0428799"><ele>207.0</ele><time>2026-04-25T10:42:06.041Z</time></trkpt><trkpt lat="43.59935" lon="13.0431641"><ele>207.0</ele><time>2026-04-25T10:42:07.041Z</time></trkpt><trkpt lat="43.5994499" lon="13.0434375"><ele>207.0</ele><time>2026-04-25T10:42:08.04Z</time></trkpt><trkpt lat="43.5995481" lon="13.0436962"><ele>207.0</ele><time>2026-04-25T10:42:09.039Z</time></trkpt><trkpt lat="43.5996393" lon="13.043937"><ele>206.33333333333331</ele><time>2026-04-25T10:42:10.039Z</time></trkpt><trkpt lat="43.5997255" lon="13.0441595"><ele>205.66666666666666</ele><time>2026-04-25T10:42:11.04Z</time></trkpt><trkpt lat="43.5998057" lon="13.0443664"><ele>205.0</ele><time>2026-04-25T10:42:12.039Z</time></trkpt><trkpt lat="43.5998783" lon="13.0445691"><ele>205.0</ele><time>2026-04-25T10:42:13.04Z</time></trkpt><trkpt lat="43.5999422" lon="13.0447877"><ele>205.0</ele><time>2026-04-25T10:42:14.039Z</time></trkpt><trkpt lat="43.599989" lon="13.0450318"><ele>205.0</ele><time>2026-04-25T10:42:15.04Z</time></trkpt><trkpt lat="43.6000204" lon="13.0453072"><ele>206.0</ele><time>2026-04-25T10:42:16.039Z</time></trkpt><trkpt lat="43.6000414" lon="13.0456029"><ele>207.0</ele><time>2026-04-25T10:42:17.04Z</time></trkpt><trkpt lat="43.600057" lon="13.045914"><ele>208.0</ele><time>2026-04-25T10:42:18.04Z</time></trkpt><trkpt lat="43.6000749" lon="13.0462411"><ele>208.0</ele><time>2026-04-25T10:42:19.041Z</time></trkpt><trkpt lat="43.6000952" lon="13.046559"><ele>208.0</ele><time>2026-04-25T10:42:20.04Z</time></trkpt><trkpt lat="43.6001154" lon="13.0468562"><ele>208.0</ele><time>2026-04-25T10:42:21.039Z</time></trkpt><trkpt lat="43.6001424" lon="13.0471552"><ele>205.0</ele><time>2026-04-25T10:42:22.039Z</time></trkpt><trkpt lat="43.6001873" lon="13.0474653"><ele>202.0</ele><time>2026-04-25T10:42:23.04Z</time></trkpt><trkpt lat="43.6002484" lon="13.0477911"><ele>202.0</ele><time>2026-04-25T10:42:24.039Z</time></trkpt><trkpt lat="43.6003171" lon="13.048128"><ele>202.0</ele><time>2026-04-25T10:42:25.039Z</time></trkpt><trkpt lat="43.6003785" lon="13.0484357"><ele>203.33333333333331</ele><time>2026-04-25T10:42:26.039Z</time></trkpt><trkpt lat="43.6004385" lon="13.0487146"><ele>204.66666666666669</ele><time>2026-04-25T10:42:27.04Z</time></trkpt><trkpt lat="43.600502" lon="13.0489718"><ele>206.0</ele><time>2026-04-25T10:42:28.04Z</time></trkpt><trkpt lat="43.6005681" lon="13.0492051"><ele>208.0</ele><time>2026-04-25T10:42:29.04Z</time></trkpt><trkpt lat="43.6006392" lon="13.0494319"><ele>210.0</ele><time>2026-04-25T10:42:30.039Z</time></trkpt><trkpt lat="43.6007063" lon="13.0496478"><ele>212.0</ele><time>2026-04-25T10:42:31.04Z</time></trkpt><trkpt lat="43.6007644" lon="13.0498526"><ele>213.33333333333334</ele><time>2026-04-25T10:42:32.04Z</time></trkpt><trkpt lat="43.6008165" lon="13.0500575"><ele>214.66666666666669</ele><time>2026-04-25T10:42:33.041Z</time></trkpt><trkpt lat="43.6008633" lon="13.0502615"><ele>216.0</ele><time>2026-04-25T10:42:34.041Z</time></trkpt><trkpt lat="43.6009673" lon="13.0506254"><ele>216.0</ele><time>2026-04-25T10:42:36.039Z</time></trkpt><trkpt lat="43.6010508" lon="13.0507753"><ele>216.0</ele><time>2026-04-25T10:42:37.039Z</time></trkpt><trkpt lat="43.6011646" lon="13.0509218"><ele>216.0</ele><time>2026-04-25T10:42:38.039Z</time></trkpt><trkpt lat="43.6013007" lon="13.0510863"><ele>215.33333333333331</ele><time>2026-04-25T10:42:39.04Z</time></trkpt><trkpt lat="43.6014546" lon="13.051279"><ele>214.66666666666666</ele><time>2026-04-25T10:42:40.04Z</time></trkpt><trkpt lat="43.6016013" lon="13.0514677"><ele>214.0</ele><time>2026-04-25T10:42:41.039Z</time></trkpt><trkpt lat="43.601734" lon="13.0516394"><ele>213.33333333333331</ele><time>2026-04-25T10:42:42.04Z</time></trkpt><trkpt lat="43.6018497" lon="13.0518098"><ele>212.66666666666669</ele><time>2026-04-25T10:42:43.04Z</time></trkpt><trkpt lat="43.6019389" lon="13.0519961"><ele>212.0</ele><time>2026-04-25T10:42:44.039Z</time></trkpt><trkpt lat="43.6020032" lon="13.0522064"><ele>211.66666666666669</ele><time>2026-04-25T10:42:45.039Z</time></trkpt><trkpt lat="43.6020431" lon="13.0524319"><ele>211.33333333333331</ele><time>2026-04-25T10:42:46.039Z</time></trkpt><trkpt lat="43.6020679" lon="13.0526648"><ele>211.0</ele><time>2026-04-25T10:42:47.04Z</time></trkpt><trkpt lat="43.6020842" lon="13.0529016"><ele>211.0</ele><time>2026-04-25T10:42:48.039Z</time></trkpt><trkpt lat="43.6020964" lon="13.0531381"><ele>211.0</ele><time>2026-04-25T10:42:49.039Z</time></trkpt><trkpt lat="43.6021078" lon="13.0533726"><ele>211.0</ele><time>2026-04-25T10:42:50.039Z</time></trkpt><trkpt lat="43.6021169" lon="13.0536031"><ele>212.0</ele><time>2026-04-25T10:42:51.039Z</time></trkpt><trkpt lat="43.6021221" lon="13.0538241"><ele>213.0</ele><time>2026-04-25T10:42:52.04Z</time></trkpt><trkpt lat="43.6021117" lon="13.0540261"><ele>214.0</ele><time>2026-04-25T10:42:53.04Z</time></trkpt><trkpt lat="43.6020737" lon="13.0542133"><ele>215.0</ele><time>2026-04-25T10:42:54.039Z</time></trkpt><trkpt lat="43.6020059" lon="13.0543838"><ele>215.66666666666669</ele><time>2026-04-25T10:42:55.039Z</time></trkpt><trkpt lat="43.6019137" lon="13.0545359"><ele>216.33333333333331</ele><time>2026-04-25T10:42:56.039Z</time></trkpt><trkpt lat="43.6018031" lon="13.0546879"><ele>217.0</ele><time>2026-04-25T10:42:57.039Z</time></trkpt><trkpt lat="43.6017092" lon="13.0548493"><ele>218.75</ele><time>2026-04-25T10:42:58.04Z</time></trkpt><trkpt lat="43.6016522" lon="13.055034"><ele>220.5</ele><time>2026-04-25T10:42:59.039Z</time></trkpt><trkpt lat="43.6016302" lon="13.0552307"><ele>222.25</ele><time>2026-04-25T10:43:00.039Z</time></trkpt><trkpt lat="43.601634" lon="13.0554096"><ele>224.0</ele><time>2026-04-25T10:43:01.04Z</time></trkpt><trkpt lat="43.6016512" lon="13.055554"><ele>224.00000000000003</ele><time>2026-04-25T10:43:02.039Z</time></trkpt><trkpt lat="43.6016737" lon="13.0556728"><ele>224.0</ele><time>2026-04-25T10:43:03.039Z</time></trkpt><trkpt lat="43.601696" lon="13.0557703"><ele>224.0</ele><time>2026-04-25T10:43:04.04Z</time></trkpt><trkpt lat="43.6017234" lon="13.0558486"><ele>224.0</ele><time>2026-04-25T10:43:05.039Z</time></trkpt><trkpt lat="43.601779" lon="13.0559152"><ele>224.00000000000003</ele><time>2026-04-25T10:43:06.04Z</time></trkpt><trkpt lat="43.6018474" lon="13.0559746"><ele>224.0</ele><time>2026-04-25T10:43:07.04Z</time></trkpt><trkpt lat="43.6019115" lon="13.0560484"><ele>225.39999999999998</ele><time>2026-04-25T10:43:08.04Z</time></trkpt><trkpt lat="43.6019608" lon="13.0561572"><ele>226.79999999999998</ele><time>2026-04-25T10:43:09.04Z</time></trkpt><trkpt lat="43.6020073" lon="13.056285"><ele>228.20000000000002</ele><time>2026-04-25T10:43:10.04Z</time></trkpt><trkpt lat="43.6020653" lon="13.0564078"><ele>229.60000000000002</ele><time>2026-04-25T10:43:11.039Z</time></trkpt><trkpt lat="43.6021348" lon="13.0565293"><ele>231.0</ele><time>2026-04-25T10:43:12.04Z</time></trkpt><trkpt lat="43.6022027" lon="13.0566443"><ele>233.20000000000002</ele><time>2026-04-25T10:43:13.039Z</time></trkpt><trkpt lat="43.6022615" lon="13.0567454"><ele>235.40000000000003</ele><time>2026-04-25T10:43:14.039Z</time></trkpt><trkpt lat="43.6023178" lon="13.0568489"><ele>237.6</ele><time>2026-04-25T10:43:15.04Z</time></trkpt><trkpt lat="43.6023785" lon="13.0569642"><ele>239.8</ele><time>2026-04-25T10:43:16.04Z</time></trkpt><trkpt lat="43.6024422" lon="13.05708"><ele>242.0</ele><time>2026-04-25T10:43:17.039Z</time></trkpt><trkpt lat="43.6025047" lon="13.0571842"><ele>242.00000000000003</ele><time>2026-04-25T10:43:18.039Z</time></trkpt><trkpt lat="43.6025621" lon="13.057281"><ele>242.0</ele><time>2026-04-25T10:43:19.04Z</time></trkpt><trkpt lat="43.6026157" lon="13.0573743"><ele>242.0</ele><time>2026-04-25T10:43:20.039Z</time></trkpt><trkpt lat="43.6026624" lon="13.0574678"><ele>242.0</ele><time>2026-04-25T10:43:21.039Z</time></trkpt><trkpt lat="43.6027001" lon="13.0575655"><ele>242.00000000000003</ele><time>2026-04-25T10:43:22.04Z</time></trkpt><trkpt lat="43.6027333" lon="13.0576678"><ele>242.0</ele><time>2026-04-25T10:43:23.04Z</time></trkpt><trkpt lat="43.6027697" lon="13.0577741"><ele>241.50000000000003</ele><time>2026-04-25T10:43:24.041Z</time></trkpt><trkpt lat="43.6028017" lon="13.0578816"><ele>241.0</ele><time>2026-04-25T10:43:25.04Z</time></trkpt><trkpt lat="43.602836" lon="13.0580028"><ele>240.5</ele><time>2026-04-25T10:43:26.04Z</time></trkpt><trkpt lat="43.6028681" lon="13.0581219"><ele>240.0</ele><time>2026-04-25T10:43:27.039Z</time></trkpt><trkpt lat="43.6028903" lon="13.0582351"><ele>239.50000000000003</ele><time>2026-04-25T10:43:28.039Z</time></trkpt><trkpt lat="43.6029057" lon="13.0583323"><ele>239.0</ele><time>2026-04-25T10:43:29.041Z</time></trkpt><trkpt lat="43.6029163" lon="13.0584196"><ele>239.0</ele><time>2026-04-25T10:43:30.039Z</time></trkpt><trkpt lat="43.6029344" lon="13.0585675"><ele>238.99999999999997</ele><time>2026-04-25T10:43:32.04Z</time></trkpt><trkpt lat="43.6029812" lon="13.0587145"><ele>238.99999999999997</ele><time>2026-04-25T10:43:35.039Z</time></trkpt><trkpt lat="43.6030414" lon="13.0588152"><ele>239.0</ele><time>2026-04-25T10:43:36.041Z</time></trkpt><trkpt lat="43.6031275" lon="13.0589325"><ele>239.0</ele><time>2026-04-25T10:43:37.039Z</time></trkpt><trkpt lat="43.6032109" lon="13.0590418"><ele>235.39999999999998</ele><time>2026-04-25T10:43:38.039Z</time></trkpt><trkpt lat="43.6032822" lon="13.0591358"><ele>231.79999999999998</ele><time>2026-04-25T10:43:39.04Z</time></trkpt><trkpt lat="43.6033506" lon="13.059224"><ele>228.20000000000002</ele><time>2026-04-25T10:43:40.039Z</time></trkpt><trkpt lat="43.6034148" lon="13.0593053"><ele>224.60000000000002</ele><time>2026-04-25T10:43:41.039Z</time></trkpt><trkpt lat="43.6034776" lon="13.0593845"><ele>221.0</ele><time>2026-04-25T10:43:42.039Z</time></trkpt><trkpt lat="43.6035523" lon="13.0594769"><ele>221.0</ele><time>2026-04-25T10:43:43.041Z</time></trkpt><trkpt lat="43.603654" lon="13.0595828"><ele>221.0</ele><time>2026-04-25T10:43:44.039Z</time></trkpt><trkpt lat="43.6037753" lon="13.0596885"><ele>221.0</ele><time>2026-04-25T10:43:45.04Z</time></trkpt><trkpt lat="43.6039002" lon="13.059781"><ele>221.0</ele><time>2026-04-25T10:43:46.039Z</time></trkpt><trkpt lat="43.6040239" lon="13.0598501"><ele>224.75</ele><time>2026-04-25T10:43:47.039Z</time></trkpt><trkpt lat="43.6041483" lon="13.0598914"><ele>228.5</ele><time>2026-04-25T10:43:48.039Z</time></trkpt><trkpt lat="43.604272" lon="13.0599089"><ele>232.25</ele><time>2026-04-25T10:43:49.039Z</time></trkpt><trkpt lat="43.6043937" lon="13.0599054"><ele>236.0</ele><time>2026-04-25T10:43:50.039Z</time></trkpt><trkpt lat="43.6045149" lon="13.0598805"><ele>236.0</ele><time>2026-04-25T10:43:51.04Z</time></trkpt><trkpt lat="43.6046352" lon="13.0598368"><ele>236.0</ele><time>2026-04-25T10:43:52.04Z</time></trkpt><trkpt lat="43.6047521" lon="13.0597712"><ele>236.0</ele><time>2026-04-25T10:43:53.04Z</time></trkpt><trkpt lat="43.6048603" lon="13.0596924"><ele>236.0</ele><time>2026-04-25T10:43:54.04Z</time></trkpt><trkpt lat="43.6049483" lon="13.0596059"><ele>236.00000000000003</ele><time>2026-04-25T10:43:55.04Z</time></trkpt><trkpt lat="43.6050196" lon="13.0595187"><ele>236.0</ele><time>2026-04-25T10:43:56.039Z</time></trkpt><trkpt lat="43.6050731" lon="13.0594313"><ele>236.0</ele><time>2026-04-25T10:43:57.039Z</time></trkpt><trkpt lat="43.6051116" lon="13.0593388"><ele>236.0</ele><time>2026-04-25T10:43:58.039Z</time></trkpt><trkpt lat="43.6051417" lon="13.0592562"><ele>236.00000000000003</ele><time>2026-04-25T10:43:59.041Z</time></trkpt><trkpt lat="43.6052172" lon="13.0591896"><ele>236.0</ele><time>2026-04-25T10:44:01.039Z</time></trkpt><trkpt lat="43.6053516" lon="13.0592724"><ele>233.75</ele><time>2026-04-25T10:44:03.04Z</time></trkpt><trkpt lat="43.6054457" lon="13.0593479"><ele>231.5</ele><time>2026-04-25T10:44:04.039Z</time></trkpt><trkpt lat="43.6055552" lon="13.0594363"><ele>229.25</ele><time>2026-04-25T10:44:05.04Z</time></trkpt><trkpt lat="43.6056732" lon="13.0595298"><ele>227.0</ele><time>2026-04-25T10:44:06.041Z</time></trkpt><trkpt lat="43.6058001" lon="13.0596256"><ele>227.0</ele><time>2026-04-25T10:44:07.04Z</time></trkpt><trkpt lat="43.6059227" lon="13.0597143"><ele>227.0</ele><time>2026-04-25T10:44:08.041Z</time></trkpt><trkpt lat="43.6060461" lon="13.0597971"><ele>227.0</ele><time>2026-04-25T10:44:09.04Z</time></trkpt><trkpt lat="43.606161" lon="13.0598771"><ele>227.0</ele><time>2026-04-25T10:44:10.041Z</time></trkpt><trkpt lat="43.6062691" lon="13.0599549"><ele>223.75</ele><time>2026-04-25T10:44:11.039Z</time></trkpt><trkpt lat="43.6063742" lon="13.0600313"><ele>220.5</ele><time>2026-04-25T10:44:12.04Z</time></trkpt><trkpt lat="43.6064812" lon="13.0601084"><ele>217.25</ele><time>2026-04-25T10:44:13.039Z</time></trkpt><trkpt lat="43.6065883" lon="13.0601838"><ele>214.0</ele><time>2026-04-25T10:44:14.04Z</time></trkpt><trkpt lat="43.6066923" lon="13.0602603"><ele>214.0</ele><time>2026-04-25T10:44:15.04Z</time></trkpt><trkpt lat="43.6067944" lon="13.0603306"><ele>214.0</ele><time>2026-04-25T10:44:16.039Z</time></trkpt><trkpt lat="43.6069798" lon="13.0604607"><ele>214.0</ele><time>2026-04-25T10:44:18.04Z</time></trkpt><trkpt lat="43.6070622" lon="13.0605211"><ele>214.0</ele><time>2026-04-25T10:44:19.039Z</time></trkpt><trkpt lat="43.6071365" lon="13.0605758"><ele>212.66666666666666</ele><time>2026-04-25T10:44:20.04Z</time></trkpt><trkpt lat="43.6071971" lon="13.0606231"><ele>211.33333333333331</ele><time>2026-04-25T10:44:21.04Z</time></trkpt><trkpt lat="43.6072685" lon="13.0606871"><ele>210.0</ele><time>2026-04-25T10:44:23.039Z</time></trkpt><trkpt lat="43.6073469" lon="13.0607021"><ele>208.66666666666669</ele><time>2026-04-25T10:44:29.039Z</time></trkpt><trkpt lat="43.6074344" lon="13.060675"><ele>207.33333333333334</ele><time>2026-04-25T10:44:30.039Z</time></trkpt><trkpt lat="43.6075375" lon="13.0606566"><ele>206.0</ele><time>2026-04-25T10:44:31.04Z</time></trkpt><trkpt lat="43.6076219" lon="13.0606567"><ele>206.0</ele><time>2026-04-25T10:44:32.039Z</time></trkpt><trkpt lat="43.6077323" lon="13.0606381"><ele>206.0</ele><time>2026-04-25T10:44:34.039Z</time></trkpt></trkseg></trk></gpx>